<?xml version='1.0' encoding='UTF-8'?><gpx version="1.1" creator="JPX - https://github.com/jenetics/jpx" xmlns="http://www.topografix.com/GPX/1/1"><trk><trkseg><trkpt lat="42.435176945288816" lon="11.120879302559311"><ele>7.000000000000001</ele><time>2026-04-25T07:59:57Z</time></trkpt><trkpt lat="42.435114318989186" lon="11.120845574137592"><ele>7.0</ele><time>2026-04-25T08:00:03Z</time></trkpt><trkpt lat="42.435054130308295" lon="11.12079024885136"><ele>7.0</ele><time>2026-04-25T08:00:08Z</time></trkpt><trkpt lat="42.434979575492754" lon="11.12075862202626"><ele>7.0</ele><time>2026-04-25T08:00:10Z</time></trkpt><trkpt lat="42.43491275129689" lon="11.120721171988796"><ele>7.000000000000001</ele><time>2026-04-25T08:00:12Z</time></trkpt><trkpt lat="42.43484128741321" lon="11.1207090552177"><ele>7.0</ele><time>2026-04-25T08:00:14Z</time></trkpt><trkpt lat="42.43473699117096" lon="11.120666882509312"><ele>9.2</ele><time>2026-04-25T08:00:16Z</time></trkpt><trkpt lat="42.434651301599814" lon="11.120591261026942"><ele>11.399999999999999</ele><time>2026-04-25T08:00:18Z</time></trkpt><trkpt lat="42.43456265310583" lon="11.120530856801022"><ele>13.600000000000001</ele><time>2026-04-25T08:00:20Z</time></trkpt><trkpt lat="42.43449121664627" lon="11.120493552479422"><ele>15.8</ele><time>2026-04-25T08:00:22Z</time></trkpt><trkpt lat="42.43441941269553" lon="11.120528163256687"><ele>18.0</ele><time>2026-04-25T08:00:24Z</time></trkpt><trkpt lat="42.434361828067665" lon="11.120636015777482"><ele>18.0</ele><time>2026-04-25T08:00:26Z</time></trkpt><trkpt lat="42.434331860784724" lon="11.120723501569085"><ele>18.0</ele><time>2026-04-25T08:00:28Z</time></trkpt><trkpt lat="42.43428534581087" lon="11.120793225293498"><ele>18.0</ele><time>2026-04-25T08:00:32Z</time></trkpt><trkpt lat="42.434253447905455" lon="11.12090055386029"><ele>18.0</ele><time>2026-04-25T08:00:34Z</time></trkpt><trkpt lat="42.43422200777337" lon="11.120998918737923"><ele>18.0</ele><time>2026-04-25T08:00:36Z</time></trkpt><trkpt lat="42.43419170491484" lon="11.121138208685606"><ele>18.0</ele><time>2026-04-25T08:00:38Z</time></trkpt><trkpt lat="42.4341496669862" lon="11.121270444162597"><ele>17.333333333333332</ele><time>2026-04-25T08:00:40Z</time></trkpt><trkpt lat="42.43410506930934" lon="11.121375514859562"><ele>16.666666666666668</ele><time>2026-04-25T08:00:42Z</time></trkpt><trkpt lat="42.434036002170366" lon="11.121435474925153"><ele>16.0</ele><time>2026-04-25T08:00:43Z</time></trkpt><trkpt lat="42.434001032881426" lon="11.121526175758284"><ele>15.333333333333334</ele><time>2026-04-25T08:00:44Z</time></trkpt><trkpt lat="42.4339688880007" lon="11.12160955082572"><ele>14.666666666666668</ele><time>2026-04-25T08:00:45Z</time></trkpt><trkpt lat="42.43391175866927" lon="11.121757728799919"><ele>14.0</ele><time>2026-04-25T08:00:47Z</time></trkpt><trkpt lat="42.43388196590435" lon="11.121835003127481"><ele>14.000000000000002</ele><time>2026-04-25T08:00:48Z</time></trkpt><trkpt lat="42.433851020730316" lon="11.121915266133367"><ele>14.0</ele><time>2026-04-25T08:00:49Z</time></trkpt><trkpt lat="42.4337877835896" lon="11.122032601864634"><ele>14.0</ele><time>2026-04-25T08:00:51Z</time></trkpt><trkpt lat="42.43374531901963" lon="11.1221202043404"><ele>14.0</ele><time>2026-04-25T08:00:52Z</time></trkpt><trkpt lat="42.43370152074512" lon="11.122217081802285"><ele>14.000000000000002</ele><time>2026-04-25T08:00:53Z</time></trkpt><trkpt lat="42.433665479266914" lon="11.122307239553567"><ele>14.0</ele><time>2026-04-25T08:00:54Z</time></trkpt><trkpt lat="42.433634941963625" lon="11.122392868368443"><ele>13.500000000000002</ele><time>2026-04-25T08:00:55Z</time></trkpt><trkpt lat="42.43361021052623" lon="11.122471479912157"><ele>13.0</ele><time>2026-04-25T08:00:56Z</time></trkpt><trkpt lat="42.43358077176324" lon="11.122564625290792"><ele>12.5</ele><time>2026-04-25T08:00:56.999Z</time></trkpt><trkpt lat="42.43354926503402" lon="11.122649131751498"><ele>12.0</ele><time>2026-04-25T08:00:57.999Z</time></trkpt><trkpt lat="42.433486670448794" lon="11.122789909869184"><ele>11.5</ele><time>2026-04-25T08:00:59.999Z</time></trkpt><trkpt lat="42.4334372950653" lon="11.122905190352371"><ele>11.0</ele><time>2026-04-25T08:01:01.999Z</time></trkpt><trkpt lat="42.433404802290056" lon="11.122987866127195"><ele>11.0</ele><time>2026-04-25T08:01:03.999Z</time></trkpt><trkpt lat="42.43330523316839" lon="11.123035314846344"><ele>11.0</ele><time>2026-04-25T08:01:05.999Z</time></trkpt><trkpt lat="42.433237883013575" lon="11.123123212376775"><ele>11.0</ele><time>2026-04-25T08:01:07.999Z</time></trkpt><trkpt lat="42.43331265393508" lon="11.123221073160037"><ele>11.0</ele><time>2026-04-25T08:01:09.999Z</time></trkpt><trkpt lat="42.43337770454577" lon="11.123247203179853"><ele>11.0</ele><time>2026-04-25T08:01:10.999Z</time></trkpt><trkpt lat="42.43345296962487" lon="11.123250928353945"><ele>11.0</ele><time>2026-04-25T08:01:11.999Z</time></trkpt><trkpt lat="42.43353122422186" lon="11.123276084044411"><ele>10.0</ele><time>2026-04-25T08:01:12.999Z</time></trkpt><trkpt lat="42.433596717975604" lon="11.12335235444323"><ele>9.0</ele><time>2026-04-25T08:01:13.999Z</time></trkpt><trkpt lat="42.43368523003532" lon="11.123398124946023"><ele>8.0</ele><time>2026-04-25T08:01:14.999Z</time></trkpt><trkpt lat="42.43376269136518" lon="11.123484499294772"><ele>7.0</ele><time>2026-04-25T08:01:15.999Z</time></trkpt><trkpt lat="42.43384018557344" lon="11.123551430494393"><ele>6.0</ele><time>2026-04-25T08:01:16.999Z</time></trkpt><trkpt lat="42.43389459536826" lon="11.123604922841386"><ele>5.0</ele><time>2026-04-25T08:01:17.999Z</time></trkpt><trkpt lat="42.43397994757014" lon="11.12371409115398"><ele>4.333333333333334</ele><time>2026-04-25T08:01:19.999Z</time></trkpt><trkpt lat="42.43403393617857" lon="11.12382479060491"><ele>3.666666666666667</ele><time>2026-04-25T08:01:21.999Z</time></trkpt><trkpt lat="42.434130196981286" lon="11.123798435615493"><ele>3.0</ele><time>2026-04-25T08:01:23.999Z</time></trkpt><trkpt lat="42.43417980567051" lon="11.123737592483295"><ele>2.3333333333333335</ele><time>2026-04-25T08:01:25.999Z</time></trkpt><trkpt lat="42.434227250594" lon="11.12363803808396"><ele>1.6666666666666665</ele><time>2026-04-25T08:01:26.999Z</time></trkpt><trkpt lat="42.43425494076267" lon="11.123525413718992"><ele>1.0</ele><time>2026-04-25T08:01:27.999Z</time></trkpt><trkpt lat="42.434273796453084" lon="11.12341458131464"><ele>0.9999999999999999</ele><time>2026-04-25T08:01:28.999Z</time></trkpt><trkpt lat="42.43428322211063" lon="11.12329697670965"><ele>1.0</ele><time>2026-04-25T08:01:29.999Z</time></trkpt><trkpt lat="42.43429741081841" lon="11.123198869813471"><ele>1.0</ele><time>2026-04-25T08:01:30.999Z</time></trkpt><trkpt lat="42.43431147610192" lon="11.123108736473794"><ele>1.0</ele><time>2026-04-25T08:01:31.999Z</time></trkpt><trkpt lat="42.4343314513523" lon="11.122960259954082"><ele>0.9999999999999999</ele><time>2026-04-25T08:01:33.999Z</time></trkpt><trkpt lat="42.43434728311467" lon="11.122819211546"><ele>1.0</ele><time>2026-04-25T08:01:35.999Z</time></trkpt><trkpt lat="42.434364499619335" lon="11.122731780516604"><ele>1.1666666666666665</ele><time>2026-04-25T08:01:36.999Z</time></trkpt><trkpt lat="42.43441814519062" lon="11.122568964383522"><ele>1.3333333333333333</ele><time>2026-04-25T08:01:38.999Z</time></trkpt><trkpt lat="42.43445785465231" lon="11.122478923749975"><ele>1.5</ele><time>2026-04-25T08:01:39.999Z</time></trkpt><trkpt lat="42.43450966869861" lon="11.12239878316861"><ele>1.6666666666666665</ele><time>2026-04-25T08:01:40.999Z</time></trkpt><trkpt lat="42.43456281055819" lon="11.12232963059406"><ele>1.8333333333333333</ele><time>2026-04-25T08:01:41.999Z</time></trkpt><trkpt lat="42.434617431238514" lon="11.122264224855677"><ele>2.0</ele><time>2026-04-25T08:01:42.999Z</time></trkpt><trkpt lat="42.43466446374252" lon="11.122207307958725"><ele>2.0</ele><time>2026-04-25T08:01:43.999Z</time></trkpt><trkpt lat="42.43476243394858" lon="11.122107896870494"><ele>2.0</ele><time>2026-04-25T08:01:45.999Z</time></trkpt><trkpt lat="42.43485928714837" lon="11.122036452513658"><ele>2.0</ele><time>2026-04-25T08:01:47.999Z</time></trkpt><trkpt lat="42.4349327368791" lon="11.12200624417159"><ele>2.0</ele><time>2026-04-25T08:01:49.999Z</time></trkpt><trkpt lat="42.435027168796616" lon="11.121952885776095"><ele>2.0</ele><time>2026-04-25T08:01:51.999Z</time></trkpt><trkpt lat="42.435096237763815" lon="11.121788742038685"><ele>2.0</ele><time>2026-04-25T08:01:53.999Z</time></trkpt><trkpt lat="42.4351640546431" lon="11.121667713975112"><ele>2.0</ele><time>2026-04-25T08:01:54.999Z</time></trkpt><trkpt lat="42.43522243493608" lon="11.121537482805254"><ele>2.0</ele><time>2026-04-25T08:01:55.999Z</time></trkpt><trkpt lat="42.43528952264492" lon="11.121385739032233"><ele>2.0</ele><time>2026-04-25T08:01:56.999Z</time></trkpt><trkpt lat="42.4353655596678" lon="11.121221691121821"><ele>2.5</ele><time>2026-04-25T08:01:57.999Z</time></trkpt><trkpt lat="42.43544676601964" lon="11.12109265973657"><ele>3.0</ele><time>2026-04-25T08:01:58.999Z</time></trkpt><trkpt lat="42.435521447499156" lon="11.120981972763673"><ele>3.5</ele><time>2026-04-25T08:01:59.999Z</time></trkpt><trkpt lat="42.43561286292298" lon="11.120888851326338"><ele>4.0</ele><time>2026-04-25T08:02:00.999Z</time></trkpt><trkpt lat="42.43572743530734" lon="11.120840032042048"><ele>4.0</ele><time>2026-04-25T08:02:01.999Z</time></trkpt><trkpt lat="42.43583227981602" lon="11.120801653847746"><ele>4.0</ele><time>2026-04-25T08:02:03Z</time></trkpt><trkpt lat="42.43593865930869" lon="11.120781512914984"><ele>4.0</ele><time>2026-04-25T08:02:04Z</time></trkpt><trkpt lat="42.43607076994698" lon="11.120773813010697"><ele>4.0</ele><time>2026-04-25T08:02:05Z</time></trkpt><trkpt lat="42.43620646348229" lon="11.120797359273547"><ele>6.5</ele><time>2026-04-25T08:02:06Z</time></trkpt><trkpt lat="42.4362999030098" lon="11.120660184861876"><ele>9.0</ele><time>2026-04-25T08:02:07Z</time></trkpt><trkpt lat="42.43640951676832" lon="11.12057577868423"><ele>11.5</ele><time>2026-04-25T08:02:08Z</time></trkpt><trkpt lat="42.43651762644389" lon="11.120461626303406"><ele>14.0</ele><time>2026-04-25T08:02:09Z</time></trkpt><trkpt lat="42.43662130047122" lon="11.1203520866657"><ele>14.000000000000002</ele><time>2026-04-25T08:02:10Z</time></trkpt><trkpt lat="42.4367098404564" lon="11.120257978144233"><ele>14.0</ele><time>2026-04-25T08:02:11Z</time></trkpt><trkpt lat="42.43679119842934" lon="11.120183098114989"><ele>14.0</ele><time>2026-04-25T08:02:12Z</time></trkpt><trkpt lat="42.436861711008746" lon="11.120117906887245"><ele>14.0</ele><time>2026-04-25T08:02:13Z</time></trkpt><trkpt lat="42.43691778463297" lon="11.120064251040265"><ele>14.000000000000002</ele><time>2026-04-25T08:02:14Z</time></trkpt><trkpt lat="42.43698070254291" lon="11.120022318727047"><ele>14.0</ele><time>2026-04-25T08:02:15Z</time></trkpt><trkpt lat="42.437050340415496" lon="11.119999247749929"><ele>14.0</ele><time>2026-04-25T08:02:16Z</time></trkpt><trkpt lat="42.43712744088173" lon="11.12000686963653"><ele>13.999999999999998</ele><time>2026-04-25T08:02:17Z</time></trkpt><trkpt lat="42.43720819377341" lon="11.120073017308624"><ele>13.999999999999998</ele><time>2026-04-25T08:02:18Z</time></trkpt><trkpt lat="42.43730246779082" lon="11.120113267321935"><ele>14.0</ele><time>2026-04-25T08:02:19Z</time></trkpt><trkpt lat="42.43740773369851" lon="11.120189470601499"><ele>14.0</ele><time>2026-04-25T08:02:20Z</time></trkpt><trkpt lat="42.43750761446948" lon="11.120257012192821"><ele>13.2</ele><time>2026-04-25T08:02:21Z</time></trkpt><trkpt lat="42.437593479952135" lon="11.120302491297155"><ele>12.399999999999999</ele><time>2026-04-25T08:02:22Z</time></trkpt><trkpt lat="42.437673692514856" lon="11.120319806617639"><ele>11.6</ele><time>2026-04-25T08:02:23Z</time></trkpt><trkpt lat="42.43776289146235" lon="11.120320220304924"><ele>10.8</ele><time>2026-04-25T08:02:24Z</time></trkpt><trkpt lat="42.43786265541081" lon="11.120286095633082"><ele>10.0</ele><time>2026-04-25T08:02:25Z</time></trkpt><trkpt lat="42.43796506698667" lon="11.120222879317616"><ele>8.333333333333334</ele><time>2026-04-25T08:02:26Z</time></trkpt><trkpt lat="42.43808381426808" lon="11.120138175760175"><ele>6.666666666666667</ele><time>2026-04-25T08:02:27Z</time></trkpt><trkpt lat="42.43821524057039" lon="11.120018264492609"><ele>5.0</ele><time>2026-04-25T08:02:28Z</time></trkpt><trkpt lat="42.438359602753096" lon="11.119892179105351"><ele>8.6</ele><time>2026-04-25T08:02:29Z</time></trkpt><trkpt lat="42.438475758715875" lon="11.119796435997916"><ele>12.2</ele><time>2026-04-25T08:02:30Z</time></trkpt><trkpt lat="42.438564710328436" lon="11.119723477186886"><ele>15.799999999999999</ele><time>2026-04-25T08:02:31Z</time></trkpt><trkpt lat="42.438646993173954" lon="11.119663531651257"><ele>19.4</ele><time>2026-04-25T08:02:32Z</time></trkpt><trkpt lat="42.438716178117886" lon="11.119602172623662"><ele>23.0</ele><time>2026-04-25T08:02:33Z</time></trkpt><trkpt lat="42.43879070643626" lon="11.119537116748091"><ele>19.2</ele><time>2026-04-25T08:02:34Z</time></trkpt><trkpt lat="42.438875307212385" lon="11.119465983375507"><ele>15.399999999999999</ele><time>2026-04-25T08:02:35Z</time></trkpt><trkpt lat="42.438953046137364" lon="11.119382933207618"><ele>11.6</ele><time>2026-04-25T08:02:36Z</time></trkpt><trkpt lat="42.43902996556764" lon="11.11928602030343"><ele>7.8</ele><time>2026-04-25T08:02:37Z</time></trkpt><trkpt lat="42.43910214194996" lon="11.119183503252021"><ele>4.0</ele><time>2026-04-25T08:02:38Z</time></trkpt><trkpt lat="42.43916451819337" lon="11.119088791887592"><ele>6.0</ele><time>2026-04-25T08:02:39Z</time></trkpt><trkpt lat="42.43922750114027" lon="11.118995892760115"><ele>8.0</ele><time>2026-04-25T08:02:40Z</time></trkpt><trkpt lat="42.43929678319584" lon="11.118901078227314"><ele>10.0</ele><time>2026-04-25T08:02:41Z</time></trkpt><trkpt lat="42.43935709168724" lon="11.118812989174046"><ele>12.0</ele><time>2026-04-25T08:02:42Z</time></trkpt><trkpt lat="42.43941072419317" lon="11.118738790081876"><ele>13.999999999999998</ele><time>2026-04-25T08:02:43Z</time></trkpt><trkpt lat="42.439461968028276" lon="11.118654689803268"><ele>16.0</ele><time>2026-04-25T08:02:44Z</time></trkpt><trkpt lat="42.43951346613295" lon="11.1185741017196"><ele>16.0</ele><time>2026-04-25T08:02:45Z</time></trkpt><trkpt lat="42.43956272993136" lon="11.118479858273858"><ele>16.0</ele><time>2026-04-25T08:02:46Z</time></trkpt><trkpt lat="42.43962004400467" lon="11.11837427671659"><ele>16.0</ele><time>2026-04-25T08:02:47Z</time></trkpt><trkpt lat="42.43967731962843" lon="11.118255779880796"><ele>16.0</ele><time>2026-04-25T08:02:48Z</time></trkpt><trkpt lat="42.439736468306116" lon="11.11811550264701"><ele>16.0</ele><time>2026-04-25T08:02:49Z</time></trkpt><trkpt lat="42.439778867373086" lon="11.1179915490709"><ele>13.666666666666666</ele><time>2026-04-25T08:02:50Z</time></trkpt><trkpt lat="42.43981894703577" lon="11.117869051404668"><ele>11.333333333333332</ele><time>2026-04-25T08:02:51Z</time></trkpt><trkpt lat="42.43984878229692" lon="11.117741241914157"><ele>9.0</ele><time>2026-04-25T08:02:52Z</time></trkpt><trkpt lat="42.43985371613997" lon="11.117616673955322"><ele>6.666666666666666</ele><time>2026-04-25T08:02:53Z</time></trkpt><trkpt lat="42.439830673917356" lon="11.117530699786085"><ele>4.333333333333333</ele><time>2026-04-25T08:02:54Z</time></trkpt><trkpt lat="42.439798718464516" lon="11.117434936586879"><ele>2.0</ele><time>2026-04-25T08:02:55Z</time></trkpt><trkpt lat="42.439752532984414" lon="11.117348405106881"><ele>1.8</ele><time>2026-04-25T08:02:56Z</time></trkpt><trkpt lat="42.43968811423808" lon="11.117276335882835"><ele>1.6</ele><time>2026-04-25T08:02:57Z</time></trkpt><trkpt lat="42.43960724519845" lon="11.117202948679338"><ele>1.4000000000000001</ele><time>2026-04-25T08:02:58Z</time></trkpt><trkpt lat="42.43952709062364" lon="11.117135720102068"><ele>1.2000000000000002</ele><time>2026-04-25T08:02:59Z</time></trkpt><trkpt lat="42.4394480500867" lon="11.117068522190104"><ele>1.0</ele><time>2026-04-25T08:03:00Z</time></trkpt><trkpt lat="42.43937613605143" lon="11.117010702570681"><ele>1.6666666666666665</ele><time>2026-04-25T08:03:01Z</time></trkpt><trkpt lat="42.43929699994965" lon="11.11695067234237"><ele>2.3333333333333335</ele><time>2026-04-25T08:03:02Z</time></trkpt><trkpt lat="42.439222222441295" lon="11.116892951305758"><ele>3.0</ele><time>2026-04-25T08:03:03Z</time></trkpt><trkpt lat="42.439157909254284" lon="11.116841415432114"><ele>3.666666666666667</ele><time>2026-04-25T08:03:04Z</time></trkpt><trkpt lat="42.43907193137461" lon="11.1167710243054"><ele>4.333333333333334</ele><time>2026-04-25T08:03:06Z</time></trkpt><trkpt lat="42.43901056783629" lon="11.116714075821424"><ele>5.0</ele><time>2026-04-25T08:03:09Z</time></trkpt><trkpt lat="42.43894659004616" lon="11.116759267551389"><ele>5.0</ele><time>2026-04-25T08:03:11.999Z</time></trkpt><trkpt lat="42.43885736710067" lon="11.116783376182568"><ele>5.0</ele><time>2026-04-25T08:03:14.999Z</time></trkpt><trkpt lat="42.43878698820879" lon="11.116829925458532"><ele>5.0</ele><time>2026-04-25T08:03:16.999Z</time></trkpt><trkpt lat="42.43869123507015" lon="11.116809256654477"><ele>5.0</ele><time>2026-04-25T08:03:18.999Z</time></trkpt><trkpt lat="42.43863067273272" lon="11.116780460135155"><ele>5.0</ele><time>2026-04-25T08:03:20.999Z</time></trkpt><trkpt lat="42.43857821073674" lon="11.116723955903097"><ele>5.0</ele><time>2026-04-25T08:03:23.999Z</time></trkpt><trkpt lat="42.438579408250504" lon="11.116581159602507"><ele>9.6</ele><time>2026-04-25T08:03:25.999Z</time></trkpt><trkpt lat="42.43860767027264" lon="11.116480399965571"><ele>14.2</ele><time>2026-04-25T08:03:26.999Z</time></trkpt><trkpt lat="42.43862967158321" lon="11.116313746335708"><ele>18.799999999999997</ele><time>2026-04-25T08:03:28.999Z</time></trkpt><trkpt lat="42.43865805847655" lon="11.116173645191683"><ele>23.4</ele><time>2026-04-25T08:03:30.999Z</time></trkpt><trkpt lat="42.43869488484977" lon="11.11601937918843"><ele>28.0</ele><time>2026-04-25T08:03:32.999Z</time></trkpt><trkpt lat="42.43869968405136" lon="11.1158572184093"><ele>28.333333333333336</ele><time>2026-04-25T08:03:34.999Z</time></trkpt><trkpt lat="42.43867324515754" lon="11.115720497445087"><ele>28.666666666666668</ele><time>2026-04-25T08:03:36.999Z</time></trkpt><trkpt lat="42.43864702456825" lon="11.115600358426283"><ele>29.0</ele><time>2026-04-25T08:03:37.999Z</time></trkpt><trkpt lat="42.43860250597104" lon="11.115508025299944"><ele>29.333333333333336</ele><time>2026-04-25T08:03:38.999Z</time></trkpt><trkpt lat="42.43856609888221" lon="11.115416077917663"><ele>29.666666666666668</ele><time>2026-04-25T08:03:39.999Z</time></trkpt><trkpt lat="42.438535462946106" lon="11.115312450614747"><ele>30.0</ele><time>2026-04-25T08:03:40.999Z</time></trkpt><trkpt lat="42.43849984280388" lon="11.115212513097708"><ele>30.0</ele><time>2026-04-25T08:03:41.999Z</time></trkpt><trkpt lat="42.43845795632242" lon="11.115050888215572"><ele>30.0</ele><time>2026-04-25T08:03:43.999Z</time></trkpt><trkpt lat="42.43844298380508" lon="11.114961420154431"><ele>30.0</ele><time>2026-04-25T08:03:44.999Z</time></trkpt><trkpt lat="42.43842835758054" lon="11.114863197309264"><ele>30.0</ele><time>2026-04-25T08:03:45.999Z</time></trkpt><trkpt lat="42.438434049383964" lon="11.11475718722145"><ele>30.0</ele><time>2026-04-25T08:03:46.999Z</time></trkpt><trkpt lat="42.43846455037305" lon="11.114650464165507"><ele>30.0</ele><time>2026-04-25T08:03:47.999Z</time></trkpt><trkpt lat="42.438518061123496" lon="11.114552175310203"><ele>29.6</ele><time>2026-04-25T08:03:48.999Z</time></trkpt><trkpt lat="42.43858354602208" lon="11.114460982646829"><ele>29.2</ele><time>2026-04-25T08:03:49.999Z</time></trkpt><trkpt lat="42.438662850413536" lon="11.114367424793477"><ele>28.799999999999997</ele><time>2026-04-25T08:03:50.999Z</time></trkpt><trkpt lat="42.43873093358073" lon="11.11427481945552"><ele>28.4</ele><time>2026-04-25T08:03:51.999Z</time></trkpt><trkpt lat="42.43878144922209" lon="11.114197689968924"><ele>28.0</ele><time>2026-04-25T08:03:52.999Z</time></trkpt><trkpt lat="42.43883188358088" lon="11.114114591204842"><ele>31.5</ele><time>2026-04-25T08:03:53.999Z</time></trkpt><trkpt lat="42.43889447709198" lon="11.114017494924832"><ele>35.0</ele><time>2026-04-25T08:03:54.999Z</time></trkpt><trkpt lat="42.43893790819827" lon="11.113897239314847"><ele>38.5</ele><time>2026-04-25T08:03:55.999Z</time></trkpt><trkpt lat="42.438973651426956" lon="11.113791789314442"><ele>42.0</ele><time>2026-04-25T08:03:56.999Z</time></trkpt><trkpt lat="42.439015782889435" lon="11.113723382608015"><ele>45.49999999999999</ele><time>2026-04-25T08:03:57.999Z</time></trkpt><trkpt lat="42.43908091528021" lon="11.113676430778119"><ele>49.0</ele><time>2026-04-25T08:03:58.999Z</time></trkpt><trkpt lat="42.43915720024724" lon="11.113661547538335"><ele>48.99999999999999</ele><time>2026-04-25T08:03:59.999Z</time></trkpt><trkpt lat="42.43923406018668" lon="11.113695408906759"><ele>49.0</ele><time>2026-04-25T08:04:00.999Z</time></trkpt><trkpt lat="42.43930335793262" lon="11.113735944170614"><ele>49.0</ele><time>2026-04-25T08:04:01.999Z</time></trkpt><trkpt lat="42.4393756010329" lon="11.113774528069783"><ele>49.0</ele><time>2026-04-25T08:04:02.999Z</time></trkpt><trkpt lat="42.439447701092845" lon="11.113794472788543"><ele>48.99999999999999</ele><time>2026-04-25T08:04:03.999Z</time></trkpt><trkpt lat="42.43952176955291" lon="11.113858309142485"><ele>49.0</ele><time>2026-04-25T08:04:05.999Z</time></trkpt><trkpt lat="42.43961103852253" lon="11.113933418565088"><ele>50.6</ele><time>2026-04-25T08:04:08Z</time></trkpt><trkpt lat="42.43969331694827" lon="11.114040426679042"><ele>52.2</ele><time>2026-04-25T08:04:10Z</time></trkpt><trkpt lat="42.439734170784185" lon="11.114110983541751"><ele>53.800000000000004</ele><time>2026-04-25T08:04:11Z</time></trkpt><trkpt lat="42.439808767779304" lon="11.114215778450653"><ele>55.400000000000006</ele><time>2026-04-25T08:04:13Z</time></trkpt><trkpt lat="42.43992455773287" lon="11.114267371992357"><ele>57.0</ele><time>2026-04-25T08:04:15Z</time></trkpt><trkpt lat="42.43998968480034" lon="11.114265783994984"><ele>54.0</ele><time>2026-04-25T08:04:16Z</time></trkpt><trkpt lat="42.440061562349385" lon="11.114268545169878"><ele>51.0</ele><time>2026-04-25T08:04:17Z</time></trkpt><trkpt lat="42.440135915129844" lon="11.114275395320753"><ele>48.0</ele><time>2026-04-25T08:04:18Z</time></trkpt><trkpt lat="42.44021247621569" lon="11.114278834100983"><ele>45.0</ele><time>2026-04-25T08:04:19Z</time></trkpt><trkpt lat="42.44030034933608" lon="11.114280056452772"><ele>42.0</ele><time>2026-04-25T08:04:20Z</time></trkpt><trkpt lat="42.44037197293667" lon="11.114282747270185"><ele>39.0</ele><time>2026-04-25T08:04:21Z</time></trkpt><trkpt lat="42.44044011335928" lon="11.114286905535057"><ele>40.8</ele><time>2026-04-25T08:04:22Z</time></trkpt><trkpt lat="42.4405137286585" lon="11.114292039867944"><ele>42.599999999999994</ele><time>2026-04-25T08:04:23Z</time></trkpt><trkpt lat="42.44059557549471" lon="11.11429293716746"><ele>44.4</ele><time>2026-04-25T08:04:24Z</time></trkpt><trkpt lat="42.440712654335776" lon="11.114289069248658"><ele>46.199999999999996</ele><time>2026-04-25T08:04:26Z</time></trkpt><trkpt lat="42.44078943481452" lon="11.114242304691896"><ele>48.0</ele><time>2026-04-25T08:04:28Z</time></trkpt><trkpt lat="42.44084952757602" lon="11.114088429662738"><ele>50.2</ele><time>2026-04-25T08:04:30Z</time></trkpt><trkpt lat="42.44083053889223" lon="11.113951978039317"><ele>52.4</ele><time>2026-04-25T08:04:31Z</time></trkpt><trkpt lat="42.440821479891106" lon="11.113802539387832"><ele>54.60000000000001</ele><time>2026-04-25T08:04:32Z</time></trkpt><trkpt lat="42.440808200127066" lon="11.113702016093063"><ele>56.800000000000004</ele><time>2026-04-25T08:04:33Z</time></trkpt><trkpt lat="42.440795561255065" lon="11.113614189497177"><ele>59.0</ele><time>2026-04-25T08:04:35Z</time></trkpt><trkpt lat="42.44066627355447" lon="11.113515267538862"><ele>59.0</ele><time>2026-04-25T08:04:39Z</time></trkpt><trkpt lat="42.4405767874115" lon="11.113489968658168"><ele>59.00000000000001</ele><time>2026-04-25T08:04:40Z</time></trkpt><trkpt lat="42.440475359056386" lon="11.1134619801833"><ele>59.00000000000001</ele><time>2026-04-25T08:04:41Z</time></trkpt><trkpt lat="42.44036353976821" lon="11.11341646027368"><ele>59.0</ele><time>2026-04-25T08:04:42Z</time></trkpt><trkpt lat="42.440249986892475" lon="11.113381866638726"><ele>59.0</ele><time>2026-04-25T08:04:43Z</time></trkpt><trkpt lat="42.440152196965606" lon="11.113355978364032"><ele>58.66666666666667</ele><time>2026-04-25T08:04:44Z</time></trkpt><trkpt lat="42.44005694590985" lon="11.11331475366466"><ele>58.333333333333336</ele><time>2026-04-25T08:04:45Z</time></trkpt><trkpt lat="42.43998135131818" lon="11.113300045340582"><ele>58.0</ele><time>2026-04-25T08:04:46Z</time></trkpt><trkpt lat="42.43992220556539" lon="11.113259674803153"><ele>57.66666666666667</ele><time>2026-04-25T08:04:47Z</time></trkpt><trkpt lat="42.439851243013386" lon="11.113236804681735"><ele>57.333333333333336</ele><time>2026-04-25T08:04:50Z</time></trkpt><trkpt lat="42.43978653992689" lon="11.113214881666142"><ele>57.0</ele><time>2026-04-25T08:04:54Z</time></trkpt><trkpt lat="42.43968966212291" lon="11.113182057071407"><ele>61.400000000000006</ele><time>2026-04-25T08:05:12.999Z</time></trkpt><trkpt lat="42.439624649974895" lon="11.113159229042374"><ele>65.80000000000001</ele><time>2026-04-25T08:05:13.999Z</time></trkpt><trkpt lat="42.43953831214613" lon="11.113128688639172"><ele>70.2</ele><time>2026-04-25T08:05:14.999Z</time></trkpt><trkpt lat="42.4394371122088" lon="11.113093528013755"><ele>74.60000000000001</ele><time>2026-04-25T08:05:15.999Z</time></trkpt><trkpt lat="42.43930806574101" lon="11.11305254632498"><ele>79.0</ele><time>2026-04-25T08:05:16.999Z</time></trkpt><trkpt lat="42.439176704053786" lon="11.11301367725336"><ele>79.0</ele><time>2026-04-25T08:05:17.999Z</time></trkpt><trkpt lat="42.43904858225496" lon="11.112980341496565"><ele>79.0</ele><time>2026-04-25T08:05:18.999Z</time></trkpt><trkpt lat="42.43893465642599" lon="11.1129596296158"><ele>79.0</ele><time>2026-04-25T08:05:19.999Z</time></trkpt><trkpt lat="42.438826874666354" lon="11.112949648654219"><ele>79.0</ele><time>2026-04-25T08:05:20.999Z</time></trkpt><trkpt lat="42.438720597273786" lon="11.112966177922452"><ele>80.0</ele><time>2026-04-25T08:05:21.999Z</time></trkpt><trkpt lat="42.438623331209484" lon="11.113048956950928"><ele>81.0</ele><time>2026-04-25T08:05:22.999Z</time></trkpt><trkpt lat="42.438535190638554" lon="11.113150233746966"><ele>82.0</ele><time>2026-04-25T08:05:23.999Z</time></trkpt><trkpt lat="42.43844153214581" lon="11.113292316808995"><ele>83.0</ele><time>2026-04-25T08:05:24.999Z</time></trkpt><trkpt lat="42.43833879704504" lon="11.11345567016573"><ele>74.66666666666667</ele><time>2026-04-25T08:05:25.999Z</time></trkpt><trkpt lat="42.43821705563656" lon="11.113620894568827"><ele>66.33333333333333</ele><time>2026-04-25T08:05:26.999Z</time></trkpt><trkpt lat="42.438089866024974" lon="11.11379639320504"><ele>58.0</ele><time>2026-04-25T08:05:27.999Z</time></trkpt><trkpt lat="42.43797933369791" lon="11.113953841545667"><ele>60.0</ele><time>2026-04-25T08:05:28.999Z</time></trkpt><trkpt lat="42.43787856259664" lon="11.11409975537839"><ele>62.0</ele><time>2026-04-25T08:05:29.999Z</time></trkpt><trkpt lat="42.43778237653976" lon="11.11423403491093"><ele>64.0</ele><time>2026-04-25T08:05:30.999Z</time></trkpt><trkpt lat="42.437686315659846" lon="11.114350749019604"><ele>66.0</ele><time>2026-04-25T08:05:31.999Z</time></trkpt><trkpt lat="42.437593906640146" lon="11.114453462849552"><ele>66.0</ele><time>2026-04-25T08:05:32.999Z</time></trkpt><trkpt lat="42.437483924829316" lon="11.114535194071376"><ele>66.0</ele><time>2026-04-25T08:05:33.999Z</time></trkpt><trkpt lat="42.437443718777004" lon="11.114698217575157"><ele>66.0</ele><time>2026-04-25T08:05:34.999Z</time></trkpt><trkpt lat="42.437406156631766" lon="11.114871483106912"><ele>66.0</ele><time>2026-04-25T08:05:35.999Z</time></trkpt><trkpt lat="42.43733153843283" lon="11.115037810125889"><ele>63.5</ele><time>2026-04-25T08:05:36.999Z</time></trkpt><trkpt lat="42.4372487980203" lon="11.115199569276788"><ele>61.0</ele><time>2026-04-25T08:05:37.999Z</time></trkpt><trkpt lat="42.43721062598404" lon="11.115364003242286"><ele>58.5</ele><time>2026-04-25T08:05:38.999Z</time></trkpt><trkpt lat="42.437208048988836" lon="11.115514453423062"><ele>56.0</ele><time>2026-04-25T08:05:39.999Z</time></trkpt><trkpt lat="42.43724455588446" lon="11.11567049724643"><ele>55.599999999999994</ele><time>2026-04-25T08:05:40.999Z</time></trkpt><trkpt lat="42.43729830513959" lon="11.115789703653688"><ele>55.199999999999996</ele><time>2026-04-25T08:05:41.999Z</time></trkpt><trkpt lat="42.437334443649455" lon="11.115878743199069"><ele>54.800000000000004</ele><time>2026-04-25T08:05:42.999Z</time></trkpt><trkpt lat="42.437301791552606" lon="11.116013526124597"><ele>54.400000000000006</ele><time>2026-04-25T08:05:44.999Z</time></trkpt><trkpt lat="42.437200748347514" lon="11.116055952348834"><ele>54.0</ele><time>2026-04-25T08:05:45.999Z</time></trkpt><trkpt lat="42.437127507085464" lon="11.116031725225733"><ele>58.333333333333336</ele><time>2026-04-25T08:05:46.999Z</time></trkpt><trkpt lat="42.43706427036118" lon="11.11599691543449"><ele>62.66666666666667</ele><time>2026-04-25T08:05:47.999Z</time></trkpt><trkpt lat="42.4370188123559" lon="11.116069164628112"><ele>67.0</ele><time>2026-04-25T08:05:48.999Z</time></trkpt><trkpt lat="42.43698280347969" lon="11.115930329091423"><ele>71.33333333333334</ele><time>2026-04-25T08:05:49.999Z</time></trkpt><trkpt lat="42.436930056817786" lon="11.115879941470629"><ele>75.66666666666667</ele><time>2026-04-25T08:05:50.999Z</time></trkpt><trkpt lat="42.436889266313415" lon="11.115779890169495"><ele>80.0</ele><time>2026-04-25T08:05:51.999Z</time></trkpt><trkpt lat="42.436835540901136" lon="11.115674823573205"><ele>80.5</ele><time>2026-04-25T08:05:52.999Z</time></trkpt><trkpt lat="42.436767681888334" lon="11.1155561815748"><ele>81.0</ele><time>2026-04-25T08:05:53.999Z</time></trkpt><trkpt lat="42.43671501521821" lon="11.115414588628584"><ele>81.5</ele><time>2026-04-25T08:05:54.999Z</time></trkpt><trkpt lat="42.43665217153159" lon="11.115268667096663"><ele>82.0</ele><time>2026-04-25T08:05:55.999Z</time></trkpt><trkpt lat="42.43660266082473" lon="11.115119202133187"><ele>82.0</ele><time>2026-04-25T08:05:56.999Z</time></trkpt><trkpt lat="42.436569045633355" lon="11.115003922963075"><ele>82.0</ele><time>2026-04-25T08:05:57.999Z</time></trkpt><trkpt lat="42.4365572591867" lon="11.114916195419084"><ele>82.0</ele><time>2026-04-25T08:05:58.999Z</time></trkpt><trkpt lat="42.43647786181448" lon="11.114842783355462"><ele>82.0</ele><time>2026-04-25T08:06:00.999Z</time></trkpt><trkpt lat="42.43640201381674" lon="11.114896199852222"><ele>82.0</ele><time>2026-04-25T08:06:01.999Z</time></trkpt><trkpt lat="42.436333428744256" lon="11.114956051179155"><ele>82.0</ele><time>2026-04-25T08:06:02.999Z</time></trkpt><trkpt lat="42.436227860677974" lon="11.115018757438259"><ele>85.8</ele><time>2026-04-25T08:06:03.999Z</time></trkpt><trkpt lat="42.43611406300147" lon="11.11514136477104"><ele>89.6</ele><time>2026-04-25T08:06:04.999Z</time></trkpt><trkpt lat="42.436027766107905" lon="11.115238813580005"><ele>93.39999999999999</ele><time>2026-04-25T08:06:05.999Z</time></trkpt><trkpt lat="42.43595486257976" lon="11.115299475191884"><ele>97.19999999999999</ele><time>2026-04-25T08:06:06.999Z</time></trkpt><trkpt lat="42.435886322176025" lon="11.1153325612451"><ele>101.0</ele><time>2026-04-25T08:06:07.999Z</time></trkpt><trkpt lat="42.43580147385616" lon="11.115262002369601"><ele>101.0</ele><time>2026-04-25T08:06:08.999Z</time></trkpt><trkpt lat="42.43569770629243" lon="11.115264774224615"><ele>101.0</ele><time>2026-04-25T08:06:09.999Z</time></trkpt><trkpt lat="42.43557751196411" lon="11.115216156262045"><ele>101.0</ele><time>2026-04-25T08:06:10.999Z</time></trkpt><trkpt lat="42.43545080764661" lon="11.11517555915831"><ele>101.0</ele><time>2026-04-25T08:06:11.999Z</time></trkpt><trkpt lat="42.435300803775085" lon="11.115151204583615"><ele>102.83333333333333</ele><time>2026-04-25T08:06:12.999Z</time></trkpt><trkpt lat="42.43521724302982" lon="11.115154439566105"><ele>104.66666666666666</ele><time>2026-04-25T08:06:14Z</time></trkpt><trkpt lat="42.43514216878876" lon="11.11508183356377"><ele>106.5</ele><time>2026-04-25T08:06:16Z</time></trkpt><trkpt lat="42.4351352894376" lon="11.114987941181138"><ele>108.33333333333334</ele><time>2026-04-25T08:06:17Z</time></trkpt><trkpt lat="42.43518441954546" lon="11.114871018149614"><ele>110.16666666666667</ele><time>2026-04-25T08:06:18Z</time></trkpt><trkpt lat="42.43518036508793" lon="11.114740457684375"><ele>112.0</ele><time>2026-04-25T08:06:19Z</time></trkpt><trkpt lat="42.43513011332512" lon="11.11462320152241"><ele>115.33333333333334</ele><time>2026-04-25T08:06:20Z</time></trkpt><trkpt lat="42.43511028827977" lon="11.114526997131202"><ele>118.66666666666667</ele><time>2026-04-25T08:06:21Z</time></trkpt><trkpt lat="42.43515580782537" lon="11.114445663592763"><ele>122.0</ele><time>2026-04-25T08:06:22Z</time></trkpt><trkpt lat="42.4351907701032" lon="11.11433660410823"><ele>125.33333333333334</ele><time>2026-04-25T08:06:23Z</time></trkpt><trkpt lat="42.43523264360043" lon="11.114217359671548"><ele>128.66666666666666</ele><time>2026-04-25T08:06:24Z</time></trkpt><trkpt lat="42.4352611426134" lon="11.114104153720662"><ele>132.0</ele><time>2026-04-25T08:06:25Z</time></trkpt><trkpt lat="42.43529914837755" lon="11.113998069291892"><ele>132.0</ele><time>2026-04-25T08:06:26Z</time></trkpt><trkpt lat="42.43534592002434" lon="11.113871238777069"><ele>132.0</ele><time>2026-04-25T08:06:27Z</time></trkpt><trkpt lat="42.435412731833026" lon="11.11370195138799"><ele>132.0</ele><time>2026-04-25T08:06:28Z</time></trkpt><trkpt lat="42.435469720202676" lon="11.113536238539272"><ele>132.0</ele><time>2026-04-25T08:06:29Z</time></trkpt><trkpt lat="42.435525409665686" lon="11.113387417578313"><ele>132.0</ele><time>2026-04-25T08:06:30Z</time></trkpt><trkpt lat="42.435581394954866" lon="11.113244893736978"><ele>132.0</ele><time>2026-04-25T08:06:31Z</time></trkpt><trkpt lat="42.435664868845805" lon="11.113109538614747"><ele>132.0</ele><time>2026-04-25T08:06:32Z</time></trkpt><trkpt lat="42.4357661485933" lon="11.112964544770767"><ele>132.0</ele><time>2026-04-25T08:06:33Z</time></trkpt><trkpt lat="42.435876552062965" lon="11.112816668159601"><ele>135.79999999999998</ele><time>2026-04-25T08:06:34Z</time></trkpt><trkpt lat="42.4359646129956" lon="11.112696163791073"><ele>139.6</ele><time>2026-04-25T08:06:35Z</time></trkpt><trkpt lat="42.43603553069251" lon="11.112566050532585"><ele>143.39999999999998</ele><time>2026-04-25T08:06:36Z</time></trkpt><trkpt lat="42.436078209572514" lon="11.112462320812424"><ele>147.2</ele><time>2026-04-25T08:06:37Z</time></trkpt><trkpt lat="42.436106110450716" lon="11.112328023139936"><ele>151.0</ele><time>2026-04-25T08:06:38Z</time></trkpt><trkpt lat="42.43613031326779" lon="11.112196091527293"><ele>152.25</ele><time>2026-04-25T08:06:39Z</time></trkpt><trkpt lat="42.436175447332076" lon="11.112100339895614"><ele>153.5</ele><time>2026-04-25T08:06:40Z</time></trkpt><trkpt lat="42.43628955721887" lon="11.112062309479308"><ele>154.75</ele><time>2026-04-25T08:06:41Z</time></trkpt><trkpt lat="42.436385821568564" lon="11.111956942720505"><ele>156.0</ele><time>2026-04-25T08:06:42Z</time></trkpt><trkpt lat="42.43649708718026" lon="11.111801908407465"><ele>156.0</ele><time>2026-04-25T08:06:43Z</time></trkpt><trkpt lat="42.43661738308351" lon="11.1116544281283"><ele>156.0</ele><time>2026-04-25T08:06:44Z</time></trkpt><trkpt lat="42.43675269592133" lon="11.111523427263144"><ele>156.0</ele><time>2026-04-25T08:06:45Z</time></trkpt><trkpt lat="42.43688072656016" lon="11.111392108003239"><ele>158.33333333333334</ele><time>2026-04-25T08:06:46Z</time></trkpt><trkpt lat="42.43700466748573" lon="11.111234266633561"><ele>160.66666666666669</ele><time>2026-04-25T08:06:47Z</time></trkpt><trkpt lat="42.437154367130134" lon="11.111066773275853"><ele>163.0</ele><time>2026-04-25T08:06:48Z</time></trkpt><trkpt lat="42.43730187061666" lon="11.110891467137622"><ele>163.0</ele><time>2026-04-25T08:06:49Z</time></trkpt><trkpt lat="42.437408581882224" lon="11.110755658854915"><ele>163.0</ele><time>2026-04-25T08:06:50Z</time></trkpt><trkpt lat="42.43747921476044" lon="11.110668266404408"><ele>163.0</ele><time>2026-04-25T08:06:51Z</time></trkpt><trkpt lat="42.43753299675218" lon="11.110581973646275"><ele>163.0</ele><time>2026-04-25T08:06:52Z</time></trkpt><trkpt lat="42.43756526523434" lon="11.110464393605294"><ele>163.0</ele><time>2026-04-25T08:06:53Z</time></trkpt><trkpt lat="42.43759218407374" lon="11.110310192696677"><ele>169.0</ele><time>2026-04-25T08:06:54Z</time></trkpt><trkpt lat="42.43761341690676" lon="11.110118022061979"><ele>175.0</ele><time>2026-04-25T08:06:55Z</time></trkpt><trkpt lat="42.43762840533511" lon="11.109903594610007"><ele>181.0</ele><time>2026-04-25T08:06:56Z</time></trkpt><trkpt lat="42.43764134305997" lon="11.109699187424361"><ele>181.20000000000002</ele><time>2026-04-25T08:06:57Z</time></trkpt><trkpt lat="42.437676844504914" lon="11.10954138127805"><ele>181.4</ele><time>2026-04-25T08:06:58Z</time></trkpt><trkpt lat="42.437683903981835" lon="11.109414904228966"><ele>181.6</ele><time>2026-04-25T08:06:59Z</time></trkpt><trkpt lat="42.4376918774374" lon="11.109301755387028"><ele>181.8</ele><time>2026-04-25T08:07:00Z</time></trkpt><trkpt lat="42.43766177275554" lon="11.109175366420597"><ele>182.0</ele><time>2026-04-25T08:07:01Z</time></trkpt><trkpt lat="42.437608585859984" lon="11.109068157160722"><ele>182.0</ele><time>2026-04-25T08:07:02Z</time></trkpt><trkpt lat="42.43759151610757" lon="11.108971578888804"><ele>182.0</ele><time>2026-04-25T08:07:03Z</time></trkpt><trkpt lat="42.437556553850214" lon="11.108867312970096"><ele>182.0</ele><time>2026-04-25T08:07:04Z</time></trkpt><trkpt lat="42.43745157610758" lon="11.108766305616815"><ele>182.0</ele><time>2026-04-25T08:07:05Z</time></trkpt><trkpt lat="42.43739751349729" lon="11.108637969805393"><ele>182.0</ele><time>2026-04-25T08:07:06Z</time></trkpt><trkpt lat="42.437364779098004" lon="11.108541378278918"><ele>182.0</ele><time>2026-04-25T08:07:07Z</time></trkpt><trkpt lat="42.43735081668503" lon="11.108445792040959"><ele>182.0</ele><time>2026-04-25T08:07:08Z</time></trkpt><trkpt lat="42.43734742618054" lon="11.108326302752854"><ele>182.0</ele><time>2026-04-25T08:07:09Z</time></trkpt><trkpt lat="42.43734189275225" lon="11.108162519157773"><ele>182.0</ele><time>2026-04-25T08:07:10Z</time></trkpt><trkpt lat="42.43733434826679" lon="11.108003643740268"><ele>182.0</ele><time>2026-04-25T08:07:11Z</time></trkpt><trkpt lat="42.4373128859254" lon="11.107870868436743"><ele>183.0</ele><time>2026-04-25T08:07:12Z</time></trkpt><trkpt lat="42.437305312938534" lon="11.107756925882882"><ele>184.0</ele><time>2026-04-25T08:07:13Z</time></trkpt><trkpt lat="42.43730923504962" lon="11.107627157580378"><ele>185.0</ele><time>2026-04-25T08:07:14Z</time></trkpt><trkpt lat="42.43723728658033" lon="11.107548193761303"><ele>186.0</ele><time>2026-04-25T08:07:15Z</time></trkpt><trkpt lat="42.43721838027532" lon="11.107425333831381"><ele>187.0</ele><time>2026-04-25T08:07:17Z</time></trkpt><trkpt lat="42.437080917866396" lon="11.10745610462889"><ele>187.6</ele><time>2026-04-25T08:07:18.999Z</time></trkpt><trkpt lat="42.43701929631172" lon="11.107488764197441"><ele>188.2</ele><time>2026-04-25T08:07:19.999Z</time></trkpt><trkpt lat="42.43691602071451" lon="11.107543500635153"><ele>188.8</ele><time>2026-04-25T08:07:21.999Z</time></trkpt><trkpt lat="42.43678116189931" lon="11.107617043644119"><ele>189.4</ele><time>2026-04-25T08:07:23.999Z</time></trkpt><trkpt lat="42.43668133721901" lon="11.107689654889224"><ele>190.0</ele><time>2026-04-25T08:07:24.999Z</time></trkpt><trkpt lat="42.4365924823038" lon="11.107762440382388"><ele>190.0</ele><time>2026-04-25T08:07:25.999Z</time></trkpt><trkpt lat="42.43647764216512" lon="11.107862111529085"><ele>190.0</ele><time>2026-04-25T08:07:26.999Z</time></trkpt><trkpt lat="42.43635658833547" lon="11.107998500797446"><ele>190.0</ele><time>2026-04-25T08:07:27.999Z</time></trkpt><trkpt lat="42.43624406542348" lon="11.10808231600027"><ele>190.0</ele><time>2026-04-25T08:07:28.999Z</time></trkpt><trkpt lat="42.43615244878528" lon="11.108160628449337"><ele>188.25</ele><time>2026-04-25T08:07:29.999Z</time></trkpt><trkpt lat="42.43606745231935" lon="11.108219609656983"><ele>186.5</ele><time>2026-04-25T08:07:30.999Z</time></trkpt><trkpt lat="42.43597381754771" lon="11.108264471986738"><ele>184.75</ele><time>2026-04-25T08:07:31.999Z</time></trkpt><trkpt lat="42.435864271642586" lon="11.108272219622803"><ele>183.0</ele><time>2026-04-25T08:07:32.999Z</time></trkpt><trkpt lat="42.435717003785925" lon="11.10831671101033"><ele>187.5</ele><time>2026-04-25T08:07:33.999Z</time></trkpt><trkpt lat="42.4355930601721" lon="11.108353468022818"><ele>192.0</ele><time>2026-04-25T08:07:34.999Z</time></trkpt><trkpt lat="42.435496518695665" lon="11.10837882737059"><ele>196.5</ele><time>2026-04-25T08:07:35.999Z</time></trkpt><trkpt lat="42.43541806199801" lon="11.108389708359214"><ele>201.0</ele><time>2026-04-25T08:07:36.999Z</time></trkpt><trkpt lat="42.43528064668559" lon="11.108470433325982"><ele>201.4</ele><time>2026-04-25T08:07:38.999Z</time></trkpt><trkpt lat="42.43521020241495" lon="11.108517587610377"><ele>201.8</ele><time>2026-04-25T08:07:39.999Z</time></trkpt><trkpt lat="42.43514980153496" lon="11.108662157475075"><ele>202.20000000000002</ele><time>2026-04-25T08:07:41.999Z</time></trkpt><trkpt lat="42.43519259179295" lon="11.108733778104442"><ele>202.60000000000002</ele><time>2026-04-25T08:07:42.999Z</time></trkpt><trkpt lat="42.435217179623066" lon="11.108877760553137"><ele>203.0</ele><time>2026-04-25T08:07:44.999Z</time></trkpt><trkpt lat="42.43515918820097" lon="11.109012514696994"><ele>205.2</ele><time>2026-04-25T08:07:46.999Z</time></trkpt><trkpt lat="42.43511906754326" lon="11.109135417220449"><ele>207.4</ele><time>2026-04-25T08:07:47.999Z</time></trkpt><trkpt lat="42.43506417110549" lon="11.109258468497718"><ele>209.59999999999997</ele><time>2026-04-25T08:07:48.999Z</time></trkpt><trkpt lat="42.434991537003484" lon="11.109353128362306"><ele>211.79999999999998</ele><time>2026-04-25T08:07:49.999Z</time></trkpt><trkpt lat="42.43494005541696" lon="11.109463946931166"><ele>214.0</ele><time>2026-04-25T08:07:50.999Z</time></trkpt><trkpt lat="42.434879423861126" lon="11.10955781146402"><ele>213.99999999999997</ele><time>2026-04-25T08:07:51.999Z</time></trkpt><trkpt lat="42.434825582976586" lon="11.109632889486932"><ele>214.0</ele><time>2026-04-25T08:07:52.999Z</time></trkpt><trkpt lat="42.43478048806689" lon="11.109694317069964"><ele>214.0</ele><time>2026-04-25T08:07:53.999Z</time></trkpt><trkpt lat="42.43470423956179" lon="11.109815414843073"><ele>214.0</ele><time>2026-04-25T08:07:55.999Z</time></trkpt><trkpt lat="42.434625233494636" lon="11.1099324467268"><ele>213.99999999999997</ele><time>2026-04-25T08:07:57.999Z</time></trkpt><trkpt lat="42.434569755051655" lon="11.10998790887146"><ele>214.0</ele><time>2026-04-25T08:07:58.999Z</time></trkpt><trkpt lat="42.434479137141565" lon="11.11007375094505"><ele>212.83333333333331</ele><time>2026-04-25T08:08:00.999Z</time></trkpt><trkpt lat="42.434397536048785" lon="11.11014039132064"><ele>211.66666666666666</ele><time>2026-04-25T08:08:02.999Z</time></trkpt><trkpt lat="42.4343349352441" lon="11.110205954833981"><ele>210.5</ele><time>2026-04-25T08:08:04.999Z</time></trkpt><trkpt lat="42.43430027629049" lon="11.110315873752494"><ele>209.33333333333331</ele><time>2026-04-25T08:08:06.999Z</time></trkpt><trkpt lat="42.43432024214772" lon="11.11045246973436"><ele>208.16666666666666</ele><time>2026-04-25T08:08:08.999Z</time></trkpt><trkpt lat="42.43435455448991" lon="11.110524048738789"><ele>207.0</ele><time>2026-04-25T08:08:09.999Z</time></trkpt><trkpt lat="42.43442078417051" lon="11.110647704018593"><ele>205.6</ele><time>2026-04-25T08:08:11.999Z</time></trkpt><trkpt lat="42.434500545692956" lon="11.1107575300516"><ele>204.2</ele><time>2026-04-25T08:08:13.999Z</time></trkpt><trkpt lat="42.43455429038951" lon="11.11088622929167"><ele>202.8</ele><time>2026-04-25T08:08:15.999Z</time></trkpt><trkpt lat="42.4345416764619" lon="11.110980160985545"><ele>201.4</ele><time>2026-04-25T08:08:16.999Z</time></trkpt><trkpt lat="42.434558233807586" lon="11.111096655159193"><ele>200.0</ele><time>2026-04-25T08:08:17.999Z</time></trkpt><trkpt lat="42.43455305895915" lon="11.111202327054682"><ele>200.00000000000003</ele><time>2026-04-25T08:08:18.999Z</time></trkpt><trkpt lat="42.43454501748715" lon="11.111304962930168"><ele>200.0</ele><time>2026-04-25T08:08:20Z</time></trkpt><trkpt lat="42.434518097341794" lon="11.111382994864545"><ele>200.0</ele><time>2026-04-25T08:08:21Z</time></trkpt><trkpt lat="42.43448109889322" lon="11.1114623484054"><ele>200.0</ele><time>2026-04-25T08:08:22Z</time></trkpt><trkpt lat="42.43443138755053" lon="11.11153022130198"><ele>200.00000000000003</ele><time>2026-04-25T08:08:23Z</time></trkpt><trkpt lat="42.434363742281356" lon="11.111558420051741"><ele>200.0</ele><time>2026-04-25T08:08:24Z</time></trkpt><trkpt lat="42.43423590451404" lon="11.11158768372739"><ele>200.00000000000003</ele><time>2026-04-25T08:08:26Z</time></trkpt><trkpt lat="42.434160270844956" lon="11.111600345443607"><ele>200.0</ele><time>2026-04-25T08:08:27Z</time></trkpt><trkpt lat="42.43409562608135" lon="11.111604640004442"><ele>200.0</ele><time>2026-04-25T08:08:29Z</time></trkpt><trkpt lat="42.43409848335914" lon="11.111502586735183"><ele>200.0</ele><time>2026-04-25T08:08:33Z</time></trkpt><trkpt lat="42.43407907708824" lon="11.111395051543576"><ele>200.0</ele><time>2026-04-25T08:08:34Z</time></trkpt><trkpt lat="42.43405817950395" lon="11.11129703409145"><ele>200.00000000000003</ele><time>2026-04-25T08:08:35Z</time></trkpt><trkpt lat="42.43404121003594" lon="11.111208028747193"><ele>200.0</ele><time>2026-04-25T08:08:36Z</time></trkpt><trkpt lat="42.43401672724848" lon="11.111056560391058"><ele>200.00000000000003</ele><time>2026-04-25T08:08:38Z</time></trkpt><trkpt lat="42.43400319716821" lon="11.110970149795541"><ele>200.0</ele><time>2026-04-25T08:09:03Z</time></trkpt><trkpt lat="42.433985588340136" lon="11.110873427163465"><ele>200.0</ele><time>2026-04-25T08:09:04Z</time></trkpt><trkpt lat="42.433958699053726" lon="11.110763894114713"><ele>200.0</ele><time>2026-04-25T08:09:05Z</time></trkpt><trkpt lat="42.43391050126144" lon="11.110641675280355"><ele>200.00000000000003</ele><time>2026-04-25T08:09:06Z</time></trkpt><trkpt lat="42.43384960321454" lon="11.1105442363147"><ele>200.0</ele><time>2026-04-25T08:09:07Z</time></trkpt><trkpt lat="42.43378752045951" lon="11.110448774564963"><ele>201.0</ele><time>2026-04-25T08:09:08Z</time></trkpt><trkpt lat="42.43373088989684" lon="11.110343048981003"><ele>202.0</ele><time>2026-04-25T08:09:09Z</time></trkpt><trkpt lat="42.43370527252695" lon="11.110228540545434"><ele>203.0</ele><time>2026-04-25T08:09:10Z</time></trkpt><trkpt lat="42.43367995917664" lon="11.110109302319911"><ele>204.0</ele><time>2026-04-25T08:09:11Z</time></trkpt><trkpt lat="42.433669360678685" lon="11.109955907138572"><ele>205.0</ele><time>2026-04-25T08:09:12Z</time></trkpt><trkpt lat="42.43366902475783" lon="11.109772691631843"><ele>206.2</ele><time>2026-04-25T08:09:13Z</time></trkpt><trkpt lat="42.43367888473027" lon="11.109578344333343"><ele>207.4</ele><time>2026-04-25T08:09:14Z</time></trkpt><trkpt lat="42.43368864028404" lon="11.109408186539945"><ele>208.60000000000002</ele><time>2026-04-25T08:09:15Z</time></trkpt><trkpt lat="42.43369466330454" lon="11.109286419217648"><ele>209.8</ele><time>2026-04-25T08:09:16Z</time></trkpt><trkpt lat="42.43367126482597" lon="11.109186347533846"><ele>211.0</ele><time>2026-04-25T08:09:17Z</time></trkpt><trkpt lat="42.43360890180542" lon="11.1090741605634"><ele>211.4</ele><time>2026-04-25T08:09:18Z</time></trkpt><trkpt lat="42.43353452558768" lon="11.108944317662793"><ele>211.8</ele><time>2026-04-25T08:09:18.999Z</time></trkpt><trkpt lat="42.43347171064247" lon="11.108826367091515"><ele>212.20000000000002</ele><time>2026-04-25T08:09:19.999Z</time></trkpt><trkpt lat="42.43340959124669" lon="11.108740050769292"><ele>212.60000000000002</ele><time>2026-04-25T08:09:20.999Z</time></trkpt><trkpt lat="42.433328724231195" lon="11.10865720033217"><ele>213.0</ele><time>2026-04-25T08:09:21.999Z</time></trkpt><trkpt lat="42.433230084714815" lon="11.108607027683894"><ele>213.0</ele><time>2026-04-25T08:09:22.999Z</time></trkpt><trkpt lat="42.43311279233417" lon="11.108576685529483"><ele>213.0</ele><time>2026-04-25T08:09:23.999Z</time></trkpt><trkpt lat="42.43296564052194" lon="11.10855632844632"><ele>213.0</ele><time>2026-04-25T08:09:24.999Z</time></trkpt><trkpt lat="42.4328266832573" lon="11.108502104309204"><ele>213.0</ele><time>2026-04-25T08:09:25.999Z</time></trkpt><trkpt lat="42.4327074646533" lon="11.108428303797698"><ele>214.33333333333331</ele><time>2026-04-25T08:09:26.999Z</time></trkpt><trkpt lat="42.43257718911517" lon="11.108372480104093"><ele>215.66666666666666</ele><time>2026-04-25T08:09:27.999Z</time></trkpt><trkpt lat="42.432409787975075" lon="11.108350531626147"><ele>217.0</ele><time>2026-04-25T08:09:28.999Z</time></trkpt><trkpt lat="42.43226032658361" lon="11.108330756998507"><ele>219.0</ele><time>2026-04-25T08:09:29.999Z</time></trkpt><trkpt lat="42.43213557072507" lon="11.108264139084248"><ele>221.0</ele><time>2026-04-25T08:09:30.999Z</time></trkpt><trkpt lat="42.432011021146614" lon="11.108193881788853"><ele>223.0</ele><time>2026-04-25T08:09:31.999Z</time></trkpt><trkpt lat="42.431855632831116" lon="11.108092604201275"><ele>225.0</ele><time>2026-04-25T08:09:32.999Z</time></trkpt><trkpt lat="42.4317208347763" lon="11.107993881911794"><ele>225.0</ele><time>2026-04-25T08:09:33.999Z</time></trkpt><trkpt lat="42.43159784764241" lon="11.107892919634205"><ele>225.0</ele><time>2026-04-25T08:09:34.999Z</time></trkpt><trkpt lat="42.431461427838315" lon="11.107759802565356"><ele>225.0</ele><time>2026-04-25T08:09:35.999Z</time></trkpt><trkpt lat="42.43132103809582" lon="11.107642498441066"><ele>225.5</ele><time>2026-04-25T08:09:36.999Z</time></trkpt><trkpt lat="42.431210486094834" lon="11.107514201316487"><ele>226.0</ele><time>2026-04-25T08:09:37.999Z</time></trkpt><trkpt lat="42.431101625625175" lon="11.107414550542742"><ele>226.5</ele><time>2026-04-25T08:09:38.999Z</time></trkpt><trkpt lat="42.430979501580566" lon="11.107336569156676"><ele>227.0</ele><time>2026-04-25T08:09:39.999Z</time></trkpt><trkpt lat="42.43084081990134" lon="11.107290277519972"><ele>227.0</ele><time>2026-04-25T08:09:40.999Z</time></trkpt><trkpt lat="42.43067264467635" lon="11.107261227926788"><ele>227.0</ele><time>2026-04-25T08:09:41.999Z</time></trkpt><trkpt lat="42.430492304369885" lon="11.107203413374183"><ele>227.0</ele><time>2026-04-25T08:09:42.999Z</time></trkpt><trkpt lat="42.43032663502607" lon="11.107179472892664"><ele>225.75</ele><time>2026-04-25T08:09:43.999Z</time></trkpt><trkpt lat="42.430195076314156" lon="11.107164904111666"><ele>224.5</ele><time>2026-04-25T08:09:44.999Z</time></trkpt><trkpt lat="42.43006772672279" lon="11.107153109576393"><ele>223.25</ele><time>2026-04-25T08:09:45.999Z</time></trkpt><trkpt lat="42.42992301741043" lon="11.10714466775748"><ele>222.0</ele><time>2026-04-25T08:09:46.999Z</time></trkpt><trkpt lat="42.42976659729005" lon="11.107140463257787"><ele>222.0</ele><time>2026-04-25T08:09:47.999Z</time></trkpt><trkpt lat="42.42964268128837" lon="11.107149780560832"><ele>222.0</ele><time>2026-04-25T08:09:48.999Z</time></trkpt><trkpt lat="42.429540121146665" lon="11.107181792090518"><ele>222.0</ele><time>2026-04-25T08:09:49.999Z</time></trkpt><trkpt lat="42.42942086530823" lon="11.107222848258822"><ele>222.0</ele><time>2026-04-25T08:09:50.999Z</time></trkpt><trkpt lat="42.429291399239595" lon="11.107276394154733"><ele>221.6</ele><time>2026-04-25T08:09:51.999Z</time></trkpt><trkpt lat="42.429158969852416" lon="11.107354233180319"><ele>221.2</ele><time>2026-04-25T08:09:52.999Z</time></trkpt><trkpt lat="42.42903005444378" lon="11.107428000009445"><ele>220.8</ele><time>2026-04-25T08:09:53.999Z</time></trkpt><trkpt lat="42.428934057320284" lon="11.107447081109427"><ele>220.4</ele><time>2026-04-25T08:09:54.999Z</time></trkpt><trkpt lat="42.428868764153435" lon="11.107470318712489"><ele>220.0</ele><time>2026-04-25T08:09:55.999Z</time></trkpt><trkpt lat="42.428760785863304" lon="11.107508657598624"><ele>218.4</ele><time>2026-04-25T08:09:57.999Z</time></trkpt><trkpt lat="42.42868942327066" lon="11.107532915940515"><ele>216.8</ele><time>2026-04-25T08:09:59.999Z</time></trkpt><trkpt lat="42.4285433549087" lon="11.107569828303621"><ele>215.2</ele><time>2026-04-25T08:10:03.999Z</time></trkpt><trkpt lat="42.428472923566396" lon="11.107577361932403"><ele>213.6</ele><time>2026-04-25T08:10:04.999Z</time></trkpt><trkpt lat="42.42838339834019" lon="11.107546575962887"><ele>212.0</ele><time>2026-04-25T08:10:06.999Z</time></trkpt><trkpt lat="42.428303455836875" lon="11.107513154454418"><ele>212.0</ele><time>2026-04-25T08:10:07.999Z</time></trkpt><trkpt lat="42.42819614398614" lon="11.107417561587736"><ele>212.0</ele><time>2026-04-25T08:10:08.999Z</time></trkpt><trkpt lat="42.42807881147388" lon="11.107340637205322"><ele>212.0</ele><time>2026-04-25T08:10:09.999Z</time></trkpt><trkpt lat="42.427985353394895" lon="11.107293895857584"><ele>212.0</ele><time>2026-04-25T08:10:10.999Z</time></trkpt><trkpt lat="42.42791587131103" lon="11.107258369560745"><ele>212.0</ele><time>2026-04-25T08:10:11.999Z</time></trkpt><trkpt lat="42.427811463868295" lon="11.107222488457898"><ele>214.39999999999998</ele><time>2026-04-25T08:10:13.999Z</time></trkpt><trkpt lat="42.42771927316914" lon="11.107225835715887"><ele>216.79999999999998</ele><time>2026-04-25T08:10:15.999Z</time></trkpt><trkpt lat="42.42761665059435" lon="11.107246782643587"><ele>219.2</ele><time>2026-04-25T08:10:17.999Z</time></trkpt><trkpt lat="42.42754687992121" lon="11.107263034667357"><ele>221.6</ele><time>2026-04-25T08:10:18.999Z</time></trkpt><trkpt lat="42.427465976200075" lon="11.107300362731726"><ele>224.0</ele><time>2026-04-25T08:10:20.999Z</time></trkpt><trkpt lat="42.427361994756964" lon="11.107351981640006"><ele>219.75</ele><time>2026-04-25T08:10:24.999Z</time></trkpt><trkpt lat="42.427253583391526" lon="11.107451459393406"><ele>215.5</ele><time>2026-04-25T08:10:27Z</time></trkpt><trkpt lat="42.42715553405567" lon="11.107542182279992"><ele>211.25</ele><time>2026-04-25T08:10:29Z</time></trkpt><trkpt lat="42.42701099804828" lon="11.107608191384093"><ele>207.0</ele><time>2026-04-25T08:10:31Z</time></trkpt><trkpt lat="42.42694645593325" lon="11.107637687662418"><ele>206.83333333333334</ele><time>2026-04-25T08:10:32Z</time></trkpt><trkpt lat="42.42687969233639" lon="11.107672538276"><ele>206.66666666666669</ele><time>2026-04-25T08:10:33Z</time></trkpt><trkpt lat="42.42680914547451" lon="11.107637928690192"><ele>206.5</ele><time>2026-04-25T08:10:34Z</time></trkpt><trkpt lat="42.42675022573257" lon="11.107592413947906"><ele>206.33333333333334</ele><time>2026-04-25T08:10:35Z</time></trkpt><trkpt lat="42.426691304366486" lon="11.107533346161135"><ele>206.16666666666669</ele><time>2026-04-25T08:10:36Z</time></trkpt><trkpt lat="42.42662536283735" lon="11.107460710957273"><ele>206.0</ele><time>2026-04-25T08:10:37Z</time></trkpt><trkpt lat="42.42654983015178" lon="11.10739386847629"><ele>205.60000000000002</ele><time>2026-04-25T08:10:38Z</time></trkpt><trkpt lat="42.42648291566924" lon="11.107301996938451"><ele>205.2</ele><time>2026-04-25T08:10:39Z</time></trkpt><trkpt lat="42.4263997672555" lon="11.107211068367377"><ele>204.8</ele><time>2026-04-25T08:10:40Z</time></trkpt><trkpt lat="42.426311765805146" lon="11.107116355758233"><ele>204.39999999999998</ele><time>2026-04-25T08:10:41Z</time></trkpt><trkpt lat="42.42622732805741" lon="11.107007279789265"><ele>204.0</ele><time>2026-04-25T08:10:42Z</time></trkpt><trkpt lat="42.42615116388402" lon="11.106918868861989"><ele>204.0</ele><time>2026-04-25T08:10:43Z</time></trkpt><trkpt lat="42.42607890222779" lon="11.106829623627286"><ele>204.0</ele><time>2026-04-25T08:10:44Z</time></trkpt><trkpt lat="42.42601029140665" lon="11.106734875278441"><ele>204.0</ele><time>2026-04-25T08:10:45Z</time></trkpt><trkpt lat="42.4259452025579" lon="11.106655611536906"><ele>204.0</ele><time>2026-04-25T08:10:46Z</time></trkpt><trkpt lat="42.425892167573245" lon="11.106588088916215"><ele>204.0</ele><time>2026-04-25T08:10:47Z</time></trkpt><trkpt lat="42.42584575845212" lon="11.106500946383719"><ele>204.0</ele><time>2026-04-25T08:10:48Z</time></trkpt><trkpt lat="42.425790605802945" lon="11.106424298751122"><ele>204.6</ele><time>2026-04-25T08:10:49Z</time></trkpt><trkpt lat="42.42573120535741" lon="11.10633720121293"><ele>205.2</ele><time>2026-04-25T08:10:50Z</time></trkpt><trkpt lat="42.42567542090797" lon="11.106225792543652"><ele>205.79999999999998</ele><time>2026-04-25T08:10:51Z</time></trkpt><trkpt lat="42.4256201316242" lon="11.10608607165395"><ele>206.39999999999998</ele><time>2026-04-25T08:10:52Z</time></trkpt><trkpt lat="42.425539695897534" lon="11.105942768785676"><ele>207.0</ele><time>2026-04-25T08:10:53Z</time></trkpt><trkpt lat="42.42546860836702" lon="11.105828274607239"><ele>208.0</ele><time>2026-04-25T08:10:54Z</time></trkpt><trkpt lat="42.42539041085293" lon="11.105711207031474"><ele>209.0</ele><time>2026-04-25T08:10:55Z</time></trkpt><trkpt lat="42.425298708020605" lon="11.105602142020452"><ele>210.0</ele><time>2026-04-25T08:10:56Z</time></trkpt><trkpt lat="42.42521549228343" lon="11.10547586473172"><ele>211.0</ele><time>2026-04-25T08:10:57Z</time></trkpt><trkpt lat="42.425117072165015" lon="11.105339771390257"><ele>211.0</ele><time>2026-04-25T08:10:58Z</time></trkpt><trkpt lat="42.42501766979734" lon="11.105194476443463"><ele>211.0</ele><time>2026-04-25T08:10:59Z</time></trkpt><trkpt lat="42.42490060468994" lon="11.105044220601732"><ele>211.0</ele><time>2026-04-25T08:11:00Z</time></trkpt><trkpt lat="42.42479569679452" lon="11.104908810957392"><ele>209.25</ele><time>2026-04-25T08:11:01Z</time></trkpt><trkpt lat="42.42470701471907" lon="11.10476200639498"><ele>207.5</ele><time>2026-04-25T08:11:02Z</time></trkpt><trkpt lat="42.42460888302729" lon="11.104636472630588"><ele>205.75</ele><time>2026-04-25T08:11:03Z</time></trkpt><trkpt lat="42.42450889654173" lon="11.104518865402012"><ele>204.0</ele><time>2026-04-25T08:11:04Z</time></trkpt><trkpt lat="42.42440102771944" lon="11.104399556474547"><ele>209.0</ele><time>2026-04-25T08:11:05Z</time></trkpt><trkpt lat="42.424296293145105" lon="11.104301948457337"><ele>214.0</ele><time>2026-04-25T08:11:06Z</time></trkpt><trkpt lat="42.42419173795965" lon="11.104220364173555"><ele>219.0</ele><time>2026-04-25T08:11:07Z</time></trkpt><trkpt lat="42.42408948364977" lon="11.104154586046876"><ele>224.0</ele><time>2026-04-25T08:11:08Z</time></trkpt><trkpt lat="42.42397693173732" lon="11.10408994865316"><ele>223.66666666666669</ele><time>2026-04-25T08:11:09Z</time></trkpt><trkpt lat="42.42387722045076" lon="11.104037334028332"><ele>223.33333333333334</ele><time>2026-04-25T08:11:10Z</time></trkpt><trkpt lat="42.423802451855714" lon="11.103996219095364"><ele>223.0</ele><time>2026-04-25T08:11:11Z</time></trkpt><trkpt lat="42.42373117730347" lon="11.103952408071374"><ele>222.66666666666669</ele><time>2026-04-25T08:11:12Z</time></trkpt><trkpt lat="42.423644144943054" lon="11.103935461042207"><ele>222.33333333333334</ele><time>2026-04-25T08:11:13Z</time></trkpt><trkpt lat="42.4235890091597" lon="11.103877891248192"><ele>222.0</ele><time>2026-04-25T08:11:14Z</time></trkpt><trkpt lat="42.42353359471139" lon="11.1038177953013"><ele>222.83333333333334</ele><time>2026-04-25T08:11:15Z</time></trkpt><trkpt lat="42.42350904503098" lon="11.103738785446298"><ele>223.66666666666669</ele><time>2026-04-25T08:11:16Z</time></trkpt><trkpt lat="42.42348017707005" lon="11.103642439164291"><ele>224.5</ele><time>2026-04-25T08:11:17Z</time></trkpt><trkpt lat="42.42342852917144" lon="11.10350961303897"><ele>225.33333333333334</ele><time>2026-04-25T08:11:18Z</time></trkpt><trkpt lat="42.42337317192286" lon="11.103404708905375"><ele>226.16666666666669</ele><time>2026-04-25T08:11:19Z</time></trkpt><trkpt lat="42.423318388854725" lon="11.103332827888819"><ele>227.0</ele><time>2026-04-25T08:11:20Z</time></trkpt><trkpt lat="42.423260710667584" lon="11.103273569241868"><ele>229.8</ele><time>2026-04-25T08:11:21Z</time></trkpt><trkpt lat="42.423189808853046" lon="11.103235661363348"><ele>232.6</ele><time>2026-04-25T08:11:22Z</time></trkpt><trkpt lat="42.42309293793031" lon="11.103198445370102"><ele>235.40000000000003</ele><time>2026-04-25T08:11:23Z</time></trkpt><trkpt lat="42.42299049667517" lon="11.103171165168579"><ele>238.20000000000002</ele><time>2026-04-25T08:11:24Z</time></trkpt><trkpt lat="42.42289662648551" lon="11.10314304201654"><ele>241.0</ele><time>2026-04-25T08:11:25Z</time></trkpt><trkpt lat="42.422805180888055" lon="11.10309256130426"><ele>241.20000000000002</ele><time>2026-04-25T08:11:26Z</time></trkpt><trkpt lat="42.422721391450864" lon="11.103042560260388"><ele>241.40000000000003</ele><time>2026-04-25T08:11:27Z</time></trkpt><trkpt lat="42.42260980312834" lon="11.10300335233889"><ele>241.6</ele><time>2026-04-25T08:11:29Z</time></trkpt><trkpt lat="42.42253883192594" lon="11.103056767634488"><ele>241.8</ele><time>2026-04-25T08:11:30Z</time></trkpt><trkpt lat="42.42249770913818" lon="11.10317020237549"><ele>242.0</ele><time>2026-04-25T08:11:31Z</time></trkpt><trkpt lat="42.42244692107373" lon="11.103278362833608"><ele>241.0</ele><time>2026-04-25T08:11:32Z</time></trkpt><trkpt lat="42.42237680987368" lon="11.103347000429489"><ele>240.0</ele><time>2026-04-25T08:11:33Z</time></trkpt><trkpt lat="42.42225871173142" lon="11.103446068921029"><ele>239.0</ele><time>2026-04-25T08:11:35Z</time></trkpt><trkpt lat="42.42217770915689" lon="11.103484629977284"><ele>238.0</ele><time>2026-04-25T08:11:36Z</time></trkpt><trkpt lat="42.422093021645836" lon="11.103514363040334"><ele>237.0</ele><time>2026-04-25T08:11:36.999Z</time></trkpt><trkpt lat="42.42195563723425" lon="11.103533653141325"><ele>237.0</ele><time>2026-04-25T08:11:37.999Z</time></trkpt><trkpt lat="42.4218873610436" lon="11.103556827268362"><ele>237.0</ele><time>2026-04-25T08:11:38.999Z</time></trkpt><trkpt lat="42.42182448549157" lon="11.103620338719999"><ele>237.0</ele><time>2026-04-25T08:11:40.999Z</time></trkpt><trkpt lat="42.42173190875924" lon="11.10367757463122"><ele>237.0</ele><time>2026-04-25T08:12:37Z</time></trkpt><trkpt lat="42.42167335781694" lon="11.103731322414978"><ele>237.0</ele><time>2026-04-25T08:12:38Z</time></trkpt><trkpt lat="42.42161482028995" lon="11.103778935217111"><ele>237.0</ele><time>2026-04-25T08:12:39Z</time></trkpt><trkpt lat="42.42152378672862" lon="11.103853778921891"><ele>237.0</ele><time>2026-04-25T08:12:41Z</time></trkpt><trkpt lat="42.421487061251966" lon="11.103934042512574"><ele>237.0</ele><time>2026-04-25T08:12:43Z</time></trkpt><trkpt lat="42.4213779369385" lon="11.103879045772478"><ele>237.0</ele><time>2026-04-25T08:12:45Z</time></trkpt><trkpt lat="42.421252779496065" lon="11.103798327068242"><ele>237.0</ele><time>2026-04-25T08:12:47Z</time></trkpt><trkpt lat="42.42118717819441" lon="11.103768696211267"><ele>237.0</ele><time>2026-04-25T08:12:48Z</time></trkpt><trkpt lat="42.42111570641475" lon="11.103749515673465"><ele>238.66666666666666</ele><time>2026-04-25T08:12:49Z</time></trkpt><trkpt lat="42.42103341632077" lon="11.103771739759827"><ele>240.33333333333331</ele><time>2026-04-25T08:12:50Z</time></trkpt><trkpt lat="42.42096882627343" lon="11.10383253257385"><ele>242.0</ele><time>2026-04-25T08:12:51Z</time></trkpt><trkpt lat="42.42093503292735" lon="11.103918659384561"><ele>243.66666666666666</ele><time>2026-04-25T08:12:52Z</time></trkpt><trkpt lat="42.42087840300839" lon="11.103960803575847"><ele>245.33333333333331</ele><time>2026-04-25T08:12:53Z</time></trkpt><trkpt lat="42.420833417979466" lon="11.104034182516294"><ele>247.0</ele><time>2026-04-25T08:12:54Z</time></trkpt><trkpt lat="42.42077183696002" lon="11.10413751761017"><ele>246.66666666666666</ele><time>2026-04-25T08:12:55Z</time></trkpt><trkpt lat="42.42072035284392" lon="11.104199450152423"><ele>246.33333333333331</ele><time>2026-04-25T08:12:56Z</time></trkpt><trkpt lat="42.42065901201069" lon="11.104235329174358"><ele>246.0</ele><time>2026-04-25T08:12:57Z</time></trkpt><trkpt lat="42.420583486974806" lon="11.104250145455756"><ele>245.66666666666669</ele><time>2026-04-25T08:12:58Z</time></trkpt><trkpt lat="42.420475088789836" lon="11.104250933088183"><ele>245.33333333333334</ele><time>2026-04-25T08:12:59Z</time></trkpt><trkpt lat="42.42036584179255" lon="11.10430049563232"><ele>245.0</ele><time>2026-04-25T08:13:00Z</time></trkpt><trkpt lat="42.42027545736587" lon="11.104376489831235"><ele>245.00000000000003</ele><time>2026-04-25T08:13:01Z</time></trkpt><trkpt lat="42.420200905654404" lon="11.104449413241928"><ele>245.0</ele><time>2026-04-25T08:13:02Z</time></trkpt><trkpt lat="42.42012809172582" lon="11.10452617545323"><ele>245.0</ele><time>2026-04-25T08:13:03Z</time></trkpt><trkpt lat="42.42005626153138" lon="11.1046106339235"><ele>245.0</ele><time>2026-04-25T08:13:04Z</time></trkpt><trkpt lat="42.41999921883739" lon="11.104684427632566"><ele>245.00000000000003</ele><time>2026-04-25T08:13:05Z</time></trkpt><trkpt lat="42.41994439960496" lon="11.104761318962112"><ele>245.0</ele><time>2026-04-25T08:13:06Z</time></trkpt><trkpt lat="42.41989047213149" lon="11.10484640030273"><ele>247.33333333333334</ele><time>2026-04-25T08:13:07Z</time></trkpt><trkpt lat="42.41983911683438" lon="11.104937675449676"><ele>249.66666666666669</ele><time>2026-04-25T08:13:08Z</time></trkpt><trkpt lat="42.419794006932044" lon="11.105024564288426"><ele>252.0</ele><time>2026-04-25T08:13:09Z</time></trkpt><trkpt lat="42.41974809864131" lon="11.105116998853694"><ele>254.33333333333331</ele><time>2026-04-25T08:13:10Z</time></trkpt><trkpt lat="42.41970327107773" lon="11.105212846950627"><ele>256.66666666666663</ele><time>2026-04-25T08:13:11Z</time></trkpt><trkpt lat="42.41965245460229" lon="11.105322285149825"><ele>259.0</ele><time>2026-04-25T08:13:12Z</time></trkpt><trkpt lat="42.41959936361946" lon="11.1054397348063"><ele>259.0</ele><time>2026-04-25T08:13:13Z</time></trkpt><trkpt lat="42.41954963142642" lon="11.105549754116858"><ele>259.0</ele><time>2026-04-25T08:13:14Z</time></trkpt><trkpt lat="42.41950092275794" lon="11.105668975573048"><ele>259.0</ele><time>2026-04-25T08:13:15Z</time></trkpt><trkpt lat="42.419454159080594" lon="11.10578530285212"><ele>259.0</ele><time>2026-04-25T08:13:16Z</time></trkpt><trkpt lat="42.419414820871395" lon="11.105886304512058"><ele>259.0</ele><time>2026-04-25T08:13:17Z</time></trkpt><trkpt lat="42.419378570937226" lon="11.105982671603735"><ele>255.79999999999998</ele><time>2026-04-25T08:13:18Z</time></trkpt><trkpt lat="42.41933893232146" lon="11.106100211021035"><ele>252.59999999999997</ele><time>2026-04-25T08:13:19Z</time></trkpt><trkpt lat="42.41930127308168" lon="11.106241467364956"><ele>249.4</ele><time>2026-04-25T08:13:20Z</time></trkpt><trkpt lat="42.419271135404436" lon="11.10636114767388"><ele>246.2</ele><time>2026-04-25T08:13:21Z</time></trkpt><trkpt lat="42.41924208930795" lon="11.106459929615086"><ele>243.0</ele><time>2026-04-25T08:13:22Z</time></trkpt><trkpt lat="42.41917789330503" lon="11.106577868999254"><ele>240.83333333333334</ele><time>2026-04-25T08:13:24Z</time></trkpt><trkpt lat="42.41909346771577" lon="11.106640295362363"><ele>238.66666666666669</ele><time>2026-04-25T08:13:26Z</time></trkpt><trkpt lat="42.41901840775224" lon="11.106660941112196"><ele>236.5</ele><time>2026-04-25T08:13:27Z</time></trkpt><trkpt lat="42.41895534304114" lon="11.106663141079672"><ele>234.33333333333334</ele><time>2026-04-25T08:13:28Z</time></trkpt><trkpt lat="42.41888328970858" lon="11.10666641841755"><ele>232.16666666666669</ele><time>2026-04-25T08:13:29Z</time></trkpt><trkpt lat="42.41880947326544" lon="11.10666842294888"><ele>230.0</ele><time>2026-04-25T08:13:30Z</time></trkpt><trkpt lat="42.41872827883536" lon="11.106660601633097"><ele>231.4</ele><time>2026-04-25T08:13:31Z</time></trkpt><trkpt lat="42.41863992086411" lon="11.106647162036817"><ele>232.8</ele><time>2026-04-25T08:13:32Z</time></trkpt><trkpt lat="42.41852775597955" lon="11.106623568544268"><ele>234.2</ele><time>2026-04-25T08:13:33Z</time></trkpt><trkpt lat="42.41842971711345" lon="11.106600984008766"><ele>235.6</ele><time>2026-04-25T08:13:34Z</time></trkpt><trkpt lat="42.418354658903105" lon="11.106585651901561"><ele>237.0</ele><time>2026-04-25T08:13:35Z</time></trkpt><trkpt lat="42.418250283860374" lon="11.106551722661926"><ele>237.0</ele><time>2026-04-25T08:13:37Z</time></trkpt><trkpt lat="42.418190909196326" lon="11.106497222358305"><ele>237.0</ele><time>2026-04-25T08:13:38Z</time></trkpt><trkpt lat="42.418117952102506" lon="11.106376610300067"><ele>237.0</ele><time>2026-04-25T08:13:40Z</time></trkpt><trkpt lat="42.418082939436545" lon="11.106289913048348"><ele>237.0</ele><time>2026-04-25T08:13:41Z</time></trkpt><trkpt lat="42.4180505543613" lon="11.106215412145481"><ele>237.0</ele><time>2026-04-25T08:13:42Z</time></trkpt><trkpt lat="42.418011874539" lon="11.106101202716244"><ele>237.0</ele><time>2026-04-25T08:13:44Z</time></trkpt><trkpt lat="42.41798756675568" lon="11.10600683612874"><ele>237.83333333333334</ele><time>2026-04-25T08:13:45Z</time></trkpt><trkpt lat="42.41794904762086" lon="11.105916761040199"><ele>238.66666666666669</ele><time>2026-04-25T08:13:46Z</time></trkpt><trkpt lat="42.41792243954371" lon="11.105764768457663"><ele>239.5</ele><time>2026-04-25T08:13:48Z</time></trkpt><trkpt lat="42.41786306990565" lon="11.10564517698247"><ele>240.33333333333334</ele><time>2026-04-25T08:13:50Z</time></trkpt><trkpt lat="42.41781279520642" lon="11.105593139306933"><ele>241.16666666666669</ele><time>2026-04-25T08:13:51Z</time></trkpt><trkpt lat="42.41773990101354" lon="11.105557128595477"><ele>242.0</ele><time>2026-04-25T08:13:52Z</time></trkpt><trkpt lat="42.41759875809853" lon="11.10543365657682"><ele>242.00000000000003</ele><time>2026-04-25T08:13:54Z</time></trkpt><trkpt lat="42.417525111119545" lon="11.105383799909319"><ele>242.0</ele><time>2026-04-25T08:13:54.999Z</time></trkpt><trkpt lat="42.41746207324811" lon="11.105353481584437"><ele>242.0</ele><time>2026-04-25T08:13:55.999Z</time></trkpt><trkpt lat="42.4173953279299" lon="11.105346707169996"><ele>242.0</ele><time>2026-04-25T08:13:56.999Z</time></trkpt><trkpt lat="42.41730301480269" lon="11.105347222911288"><ele>242.00000000000003</ele><time>2026-04-25T08:13:57.999Z</time></trkpt><trkpt lat="42.417210216787446" lon="11.10534868164851"><ele>242.0</ele><time>2026-04-25T08:13:58.999Z</time></trkpt><trkpt lat="42.41712524382717" lon="11.105353888594834"><ele>240.66666666666669</ele><time>2026-04-25T08:13:59.999Z</time></trkpt><trkpt lat="42.417047549973866" lon="11.105359171337753"><ele>239.33333333333334</ele><time>2026-04-25T08:14:00.999Z</time></trkpt><trkpt lat="42.41695610034082" lon="11.105366239214145"><ele>238.0</ele><time>2026-04-25T08:14:01.999Z</time></trkpt><trkpt lat="42.41685663301133" lon="11.105375594190106"><ele>236.66666666666669</ele><time>2026-04-25T08:14:02.999Z</time></trkpt><trkpt lat="42.4167693623741" lon="11.105390403259307"><ele>235.33333333333334</ele><time>2026-04-25T08:14:03.999Z</time></trkpt><trkpt lat="42.4166990851813" lon="11.105407407966512"><ele>234.0</ele><time>2026-04-25T08:14:04.999Z</time></trkpt><trkpt lat="42.4166200567926" lon="11.105423757452087"><ele>234.0</ele><time>2026-04-25T08:14:05.999Z</time></trkpt><trkpt lat="42.41652413294049" lon="11.105442845308284"><ele>233.99999999999997</ele><time>2026-04-25T08:14:06.999Z</time></trkpt><trkpt lat="42.41644726978002" lon="11.105403717364704"><ele>233.99999999999997</ele><time>2026-04-25T08:14:07.999Z</time></trkpt><trkpt lat="42.416384093945865" lon="11.105378454102821"><ele>234.0</ele><time>2026-04-25T08:14:08.999Z</time></trkpt><trkpt lat="42.416298839505075" lon="11.105344327220378"><ele>234.0</ele><time>2026-04-25T08:14:09.999Z</time></trkpt><trkpt lat="42.41617801756606" lon="11.105304208882389"><ele>233.79999999999998</ele><time>2026-04-25T08:14:10.999Z</time></trkpt><trkpt lat="42.416057840108735" lon="11.105268927631041"><ele>233.59999999999997</ele><time>2026-04-25T08:14:11.999Z</time></trkpt><trkpt lat="42.41596799142193" lon="11.105248529317578"><ele>233.4</ele><time>2026-04-25T08:14:12.999Z</time></trkpt><trkpt lat="42.415898875881034" lon="11.10526529753343"><ele>233.2</ele><time>2026-04-25T08:14:13.999Z</time></trkpt><trkpt lat="42.415816583008265" lon="11.105282159627317"><ele>233.0</ele><time>2026-04-25T08:14:14.999Z</time></trkpt><trkpt lat="42.41570537023238" lon="11.105329590742723"><ele>233.0</ele><time>2026-04-25T08:14:15.999Z</time></trkpt><trkpt lat="42.415565597189754" lon="11.10539492912551"><ele>233.0</ele><time>2026-04-25T08:14:16.999Z</time></trkpt><trkpt lat="42.415462684716" lon="11.105450673983917"><ele>233.0</ele><time>2026-04-25T08:14:17.999Z</time></trkpt><trkpt lat="42.41539523531786" lon="11.105494380255186"><ele>233.0</ele><time>2026-04-25T08:14:18.999Z</time></trkpt><trkpt lat="42.415336714100405" lon="11.105562854305902"><ele>233.0</ele><time>2026-04-25T08:14:19.999Z</time></trkpt><trkpt lat="42.41527137625787" lon="11.105604794498012"><ele>231.00000000000003</ele><time>2026-04-25T08:14:20.999Z</time></trkpt><trkpt lat="42.41521878167725" lon="11.105664881938187"><ele>229.0</ele><time>2026-04-25T08:14:21.999Z</time></trkpt><trkpt lat="42.41516462868832" lon="11.10572178236393"><ele>227.0</ele><time>2026-04-25T08:14:22.999Z</time></trkpt><trkpt lat="42.41515058242605" lon="11.105837638017226"><ele>225.0</ele><time>2026-04-25T08:14:23.999Z</time></trkpt><trkpt lat="42.41511631081389" lon="11.105945631566154"><ele>223.00000000000003</ele><time>2026-04-25T08:14:24.999Z</time></trkpt><trkpt lat="42.41509296677525" lon="11.106044291301822"><ele>221.0</ele><time>2026-04-25T08:14:25.999Z</time></trkpt><trkpt lat="42.415036191909074" lon="11.106104130519318"><ele>221.00000000000003</ele><time>2026-04-25T08:14:27.999Z</time></trkpt><trkpt lat="42.414970648270305" lon="11.106184199792995"><ele>221.0</ele><time>2026-04-25T08:14:29.999Z</time></trkpt><trkpt lat="42.414916682612386" lon="11.106097884321912"><ele>221.0</ele><time>2026-04-25T08:14:48Z</time></trkpt><trkpt lat="42.41487005716361" lon="11.105983942781592"><ele>221.0</ele><time>2026-04-25T08:14:51Z</time></trkpt><trkpt lat="42.4148191438369" lon="11.10592771129263"><ele>221.00000000000003</ele><time>2026-04-25T08:14:52Z</time></trkpt><trkpt lat="42.41478047860025" lon="11.105847720882148"><ele>221.0</ele><time>2026-04-25T08:14:53Z</time></trkpt><trkpt lat="42.41472076183103" lon="11.105773274537723"><ele>224.33333333333334</ele><time>2026-04-25T08:14:54Z</time></trkpt><trkpt lat="42.41466226238171" lon="11.10571365281429"><ele>227.66666666666669</ele><time>2026-04-25T08:14:55Z</time></trkpt><trkpt lat="42.41459751356315" lon="11.10565213580115"><ele>231.0</ele><time>2026-04-25T08:14:56Z</time></trkpt><trkpt lat="42.4145206477427" lon="11.105598786857904"><ele>234.33333333333331</ele><time>2026-04-25T08:14:57Z</time></trkpt><trkpt lat="42.4144521253491" lon="11.105510175862577"><ele>237.66666666666666</ele><time>2026-04-25T08:14:58Z</time></trkpt><trkpt lat="42.41437284455283" lon="11.105421467963522"><ele>241.0</ele><time>2026-04-25T08:14:59Z</time></trkpt><trkpt lat="42.414287869215315" lon="11.105316347169426"><ele>241.0</ele><time>2026-04-25T08:15:00Z</time></trkpt><trkpt lat="42.414212205879394" lon="11.105206842146641"><ele>241.00000000000003</ele><time>2026-04-25T08:15:01Z</time></trkpt><trkpt lat="42.414135423237354" lon="11.105094234727856"><ele>241.00000000000003</ele><time>2026-04-25T08:15:02Z</time></trkpt><trkpt lat="42.414041359412195" lon="11.105005925944829"><ele>241.0</ele><time>2026-04-25T08:15:03Z</time></trkpt><trkpt lat="42.413970252495226" lon="11.104920782595027"><ele>241.0</ele><time>2026-04-25T08:15:04Z</time></trkpt><trkpt lat="42.4139061044732" lon="11.104879795210113"><ele>241.8</ele><time>2026-04-25T08:15:05Z</time></trkpt><trkpt lat="42.413774599287215" lon="11.104895444843203"><ele>242.60000000000002</ele><time>2026-04-25T08:15:07Z</time></trkpt><trkpt lat="42.41370267618831" lon="11.104865965749113"><ele>243.4</ele><time>2026-04-25T08:15:08Z</time></trkpt><trkpt lat="42.41362789192988" lon="11.104884903954863"><ele>244.2</ele><time>2026-04-25T08:15:09Z</time></trkpt><trkpt lat="42.41352992429935" lon="11.104896183830553"><ele>245.0</ele><time>2026-04-25T08:15:10Z</time></trkpt><trkpt lat="42.41344286746954" lon="11.104912766576772"><ele>245.00000000000003</ele><time>2026-04-25T08:15:11Z</time></trkpt><trkpt lat="42.413355985351586" lon="11.104931662942626"><ele>245.0</ele><time>2026-04-25T08:15:13Z</time></trkpt><trkpt lat="42.41329268454175" lon="11.10495526296234"><ele>245.0</ele><time>2026-04-25T08:15:15Z</time></trkpt><trkpt lat="42.413227978164514" lon="11.10498781320599"><ele>245.0</ele><time>2026-04-25T08:15:17Z</time></trkpt><trkpt lat="42.41316847194269" lon="11.105019685389877"><ele>245.00000000000003</ele><time>2026-04-25T08:15:18Z</time></trkpt><trkpt lat="42.413045345898006" lon="11.105071962191248"><ele>245.0</ele><time>2026-04-25T08:15:20Z</time></trkpt><trkpt lat="42.41297595917943" lon="11.105075256720333"><ele>246.00000000000003</ele><time>2026-04-25T08:15:21Z</time></trkpt><trkpt lat="42.412908949773815" lon="11.105067476885345"><ele>247.0</ele><time>2026-04-25T08:15:22Z</time></trkpt><trkpt lat="42.412837312551176" lon="11.105062857582741"><ele>248.0</ele><time>2026-04-25T08:15:23Z</time></trkpt><trkpt lat="42.41271734834855" lon="11.105050490322567"><ele>249.0</ele><time>2026-04-25T08:15:25Z</time></trkpt><trkpt lat="42.41266091429945" lon="11.104989132784826"><ele>250.00000000000003</ele><time>2026-04-25T08:15:26Z</time></trkpt><trkpt lat="42.41260432715419" lon="11.104913081286407"><ele>251.0</ele><time>2026-04-25T08:15:27Z</time></trkpt><trkpt lat="42.41253551233125" lon="11.104828256182644"><ele>256.5</ele><time>2026-04-25T08:15:28Z</time></trkpt><trkpt lat="42.41246954940206" lon="11.104727761178742"><ele>262.0</ele><time>2026-04-25T08:15:29Z</time></trkpt><trkpt lat="42.412399036058254" lon="11.104610417054609"><ele>267.5</ele><time>2026-04-25T08:15:30Z</time></trkpt><trkpt lat="42.412309652691306" lon="11.104485230417188"><ele>273.0</ele><time>2026-04-25T08:15:31Z</time></trkpt><trkpt lat="42.41221536522522" lon="11.104375468406015"><ele>271.4</ele><time>2026-04-25T08:15:32Z</time></trkpt><trkpt lat="42.41213060743881" lon="11.10428712014458"><ele>269.8</ele><time>2026-04-25T08:15:33Z</time></trkpt><trkpt lat="42.412051646494824" lon="11.104218313300155"><ele>268.2</ele><time>2026-04-25T08:15:34Z</time></trkpt><trkpt lat="42.411971373194646" lon="11.104152450642044"><ele>266.6</ele><time>2026-04-25T08:15:35Z</time></trkpt><trkpt lat="42.411882798372325" lon="11.104107261848766"><ele>265.0</ele><time>2026-04-25T08:15:36Z</time></trkpt><trkpt lat="42.41178263160722" lon="11.104102986403209"><ele>265.0</ele><time>2026-04-25T08:15:37Z</time></trkpt><trkpt lat="42.41167455390246" lon="11.10410713436958"><ele>265.0</ele><time>2026-04-25T08:15:38Z</time></trkpt><trkpt lat="42.41160075869513" lon="11.104118272678583"><ele>265.0</ele><time>2026-04-25T08:15:39Z</time></trkpt><trkpt lat="42.41152928181407" lon="11.104147186227712"><ele>265.0</ele><time>2026-04-25T08:15:40Z</time></trkpt><trkpt lat="42.411447783886" lon="11.10420851025453"><ele>265.0</ele><time>2026-04-25T08:15:41Z</time></trkpt><trkpt lat="42.411363837965965" lon="11.104289410139815"><ele>266.0</ele><time>2026-04-25T08:15:42Z</time></trkpt><trkpt lat="42.41127581919851" lon="11.104337272139844"><ele>267.0</ele><time>2026-04-25T08:15:43Z</time></trkpt><trkpt lat="42.411210963940256" lon="11.104370729524947"><ele>268.0</ele><time>2026-04-25T08:15:44Z</time></trkpt><trkpt lat="42.41112468118539" lon="11.104371624078128"><ele>269.0</ele><time>2026-04-25T08:15:45Z</time></trkpt><trkpt lat="42.411026949235996" lon="11.10438728798809"><ele>270.0</ele><time>2026-04-25T08:15:46Z</time></trkpt><trkpt lat="42.41091917042802" lon="11.104392896619968"><ele>270.0</ele><time>2026-04-25T08:15:47Z</time></trkpt><trkpt lat="42.41081609929747" lon="11.104399746142773"><ele>270.0</ele><time>2026-04-25T08:15:48Z</time></trkpt><trkpt lat="42.4107430412077" lon="11.104437576079189"><ele>270.0</ele><time>2026-04-25T08:15:49Z</time></trkpt><trkpt lat="42.41066459507799" lon="11.104444372325066"><ele>270.0</ele><time>2026-04-25T08:15:50Z</time></trkpt><trkpt lat="42.410591408089154" lon="11.104479702341273"><ele>270.0</ele><time>2026-04-25T08:15:51Z</time></trkpt><trkpt lat="42.41051653741259" lon="11.104544479260262"><ele>270.0</ele><time>2026-04-25T08:15:52Z</time></trkpt><trkpt lat="42.41046507341715" lon="11.104630504076107"><ele>271.0</ele><time>2026-04-25T08:15:53Z</time></trkpt><trkpt lat="42.410393677686855" lon="11.104755779829885"><ele>272.0</ele><time>2026-04-25T08:15:54Z</time></trkpt><trkpt lat="42.4103438661538" lon="11.104889578233557"><ele>273.0</ele><time>2026-04-25T08:15:55Z</time></trkpt><trkpt lat="42.41029209807349" lon="11.105007531457717"><ele>274.0</ele><time>2026-04-25T08:15:56Z</time></trkpt><trkpt lat="42.410243298482655" lon="11.105121168734476"><ele>275.0</ele><time>2026-04-25T08:15:57Z</time></trkpt><trkpt lat="42.410163030995335" lon="11.105200376208357"><ele>275.0</ele><time>2026-04-25T08:15:58Z</time></trkpt><trkpt lat="42.41010042702551" lon="11.105283228801131"><ele>275.0</ele><time>2026-04-25T08:15:59Z</time></trkpt><trkpt lat="42.41003570756993" lon="11.105403156646414"><ele>275.0</ele><time>2026-04-25T08:16:00Z</time></trkpt><trkpt lat="42.40996881567648" lon="11.10552733091277"><ele>275.0</ele><time>2026-04-25T08:16:01Z</time></trkpt><trkpt lat="42.409905697102616" lon="11.105658237304183"><ele>275.0</ele><time>2026-04-25T08:16:02Z</time></trkpt><trkpt lat="42.4098593834311" lon="11.105788621569703"><ele>273.0</ele><time>2026-04-25T08:16:03Z</time></trkpt><trkpt lat="42.4098263871337" lon="11.1058927570402"><ele>271.0</ele><time>2026-04-25T08:16:04Z</time></trkpt><trkpt lat="42.40979655095024" lon="11.10601486944089"><ele>269.0</ele><time>2026-04-25T08:16:05Z</time></trkpt><trkpt lat="42.40979287890448" lon="11.106164900693763"><ele>267.0</ele><time>2026-04-25T08:16:06Z</time></trkpt><trkpt lat="42.40977459501681" lon="11.106295878689279"><ele>265.0</ele><time>2026-04-25T08:16:07Z</time></trkpt><trkpt lat="42.40973469599985" lon="11.106420187657514"><ele>265.0</ele><time>2026-04-25T08:16:07.999Z</time></trkpt><trkpt lat="42.40967273665938" lon="11.106516263316623"><ele>265.0</ele><time>2026-04-25T08:16:08.999Z</time></trkpt><trkpt lat="42.409606798668115" lon="11.10660957480948"><ele>265.0</ele><time>2026-04-25T08:16:09.999Z</time></trkpt><trkpt lat="42.40952727486474" lon="11.106721757781363"><ele>265.0</ele><time>2026-04-25T08:16:10.999Z</time></trkpt><trkpt lat="42.40945007475862" lon="11.106817486814146"><ele>265.0</ele><time>2026-04-25T08:16:11.999Z</time></trkpt><trkpt lat="42.409355981743474" lon="11.106899362757185"><ele>267.8</ele><time>2026-04-25T08:16:12.999Z</time></trkpt><trkpt lat="42.40927840191451" lon="11.10698234990869"><ele>270.6</ele><time>2026-04-25T08:16:13.999Z</time></trkpt><trkpt lat="42.40920417094667" lon="11.107067963262901"><ele>273.4</ele><time>2026-04-25T08:16:14.999Z</time></trkpt><trkpt lat="42.40914510419751" lon="11.107157445856433"><ele>276.2</ele><time>2026-04-25T08:16:15.999Z</time></trkpt><trkpt lat="42.40911096017873" lon="11.107252292392525"><ele>279.0</ele><time>2026-04-25T08:16:16.999Z</time></trkpt><trkpt lat="42.40909294597297" lon="11.107372023390445"><ele>277.8</ele><time>2026-04-25T08:16:17.999Z</time></trkpt><trkpt lat="42.40906922260843" lon="11.10751859919773"><ele>276.59999999999997</ele><time>2026-04-25T08:16:18.999Z</time></trkpt><trkpt lat="42.409042456568734" lon="11.107653228126974"><ele>275.4</ele><time>2026-04-25T08:16:19.999Z</time></trkpt><trkpt lat="42.40900653863195" lon="11.107775393145463"><ele>274.2</ele><time>2026-04-25T08:16:20.999Z</time></trkpt><trkpt lat="42.40898543555409" lon="11.10789421079978"><ele>273.0</ele><time>2026-04-25T08:16:21.999Z</time></trkpt><trkpt lat="42.40897792135154" lon="11.107987168765725"><ele>273.0</ele><time>2026-04-25T08:16:22.999Z</time></trkpt><trkpt lat="42.408996137079605" lon="11.108118742905663"><ele>273.0</ele><time>2026-04-25T08:16:23.999Z</time></trkpt><trkpt lat="42.40903618722917" lon="11.108258720231548"><ele>273.0</ele><time>2026-04-25T08:16:24.999Z</time></trkpt><trkpt lat="42.40906126243766" lon="11.108407305119721"><ele>273.0</ele><time>2026-04-25T08:16:25.999Z</time></trkpt><trkpt lat="42.409065947444454" lon="11.108518612298434"><ele>273.0</ele><time>2026-04-25T08:16:26.999Z</time></trkpt><trkpt lat="42.409072993843" lon="11.108609215479493"><ele>272.6666666666667</ele><time>2026-04-25T08:16:27.999Z</time></trkpt><trkpt lat="42.40906644796459" lon="11.10870834134346"><ele>272.3333333333333</ele><time>2026-04-25T08:16:28.999Z</time></trkpt><trkpt lat="42.40904021695896" lon="11.108829768618492"><ele>272.0</ele><time>2026-04-25T08:16:29.999Z</time></trkpt><trkpt lat="42.40901930566551" lon="11.108950849991407"><ele>271.66666666666663</ele><time>2026-04-25T08:16:30.999Z</time></trkpt><trkpt lat="42.4090095475025" lon="11.109054811600183"><ele>271.3333333333333</ele><time>2026-04-25T08:16:31.999Z</time></trkpt><trkpt lat="42.40902116293789" lon="11.109142787652514"><ele>271.0</ele><time>2026-04-25T08:16:32.999Z</time></trkpt><trkpt lat="42.40898525606301" lon="11.109219521374254"><ele>271.0</ele><time>2026-04-25T08:16:33.999Z</time></trkpt><trkpt lat="42.408877375219376" lon="11.109233253739163"><ele>271.0</ele><time>2026-04-25T08:16:36.999Z</time></trkpt><trkpt lat="42.40883906151288" lon="11.109154914561753"><ele>271.0</ele><time>2026-04-25T08:16:37.999Z</time></trkpt><trkpt lat="42.40874642632178" lon="11.109086385490373"><ele>271.0</ele><time>2026-04-25T08:16:39.999Z</time></trkpt><trkpt lat="42.408662817805016" lon="11.109056995240639"><ele>271.0</ele><time>2026-04-25T08:17:27Z</time></trkpt><trkpt lat="42.40858998177011" lon="11.109058137458433"><ele>271.0</ele><time>2026-04-25T08:17:31Z</time></trkpt><trkpt lat="42.408566949847334" lon="11.109225758242788"><ele>271.8</ele><time>2026-04-25T08:17:34Z</time></trkpt><trkpt lat="42.40857866804257" lon="11.109335450567041"><ele>272.6</ele><time>2026-04-25T08:17:35Z</time></trkpt><trkpt lat="42.40860759559133" lon="11.109464132794885"><ele>273.4</ele><time>2026-04-25T08:17:36Z</time></trkpt><trkpt lat="42.4086185190855" lon="11.109601159620832"><ele>274.2</ele><time>2026-04-25T08:17:37Z</time></trkpt><trkpt lat="42.408662302648665" lon="11.109743887481807"><ele>275.0</ele><time>2026-04-25T08:17:38Z</time></trkpt><trkpt lat="42.40870247756205" lon="11.10991241887691"><ele>274.0</ele><time>2026-04-25T08:17:39Z</time></trkpt><trkpt lat="42.40875511662108" lon="11.110049150926"><ele>273.0</ele><time>2026-04-25T08:17:40Z</time></trkpt><trkpt lat="42.40879985483317" lon="11.110148285651547"><ele>272.0</ele><time>2026-04-25T08:17:41Z</time></trkpt><trkpt lat="42.40881604067525" lon="11.110247161028978"><ele>271.0</ele><time>2026-04-25T08:17:42Z</time></trkpt><trkpt lat="42.40884362342936" lon="11.110371593975666"><ele>270.0</ele><time>2026-04-25T08:17:44Z</time></trkpt><trkpt lat="42.408779038944274" lon="11.110435538786403"><ele>273.6</ele><time>2026-04-25T08:17:46Z</time></trkpt><trkpt lat="42.4086897848046" lon="11.110298732469"><ele>277.2</ele><time>2026-04-25T08:17:49Z</time></trkpt><trkpt lat="42.408631830148906" lon="11.110227484566852"><ele>280.8</ele><time>2026-04-25T08:17:50Z</time></trkpt><trkpt lat="42.408558133878074" lon="11.110154948889315"><ele>284.4</ele><time>2026-04-25T08:17:51Z</time></trkpt><trkpt lat="42.408463591394025" lon="11.110114712153717"><ele>288.0</ele><time>2026-04-25T08:17:52Z</time></trkpt><trkpt lat="42.40836933088828" lon="11.110074767401965"><ele>288.0</ele><time>2026-04-25T08:17:53Z</time></trkpt><trkpt lat="42.40824516091248" lon="11.11002831123845"><ele>288.0</ele><time>2026-04-25T08:17:54Z</time></trkpt><trkpt lat="42.40808852681931" lon="11.109965884531652"><ele>288.0</ele><time>2026-04-25T08:17:55Z</time></trkpt><trkpt lat="42.407930358785194" lon="11.109900994430864"><ele>287.6666666666667</ele><time>2026-04-25T08:17:56Z</time></trkpt><trkpt lat="42.40776141234433" lon="11.109777381426667"><ele>287.33333333333337</ele><time>2026-04-25T08:17:57Z</time></trkpt><trkpt lat="42.40757583128614" lon="11.109654765538737"><ele>287.0</ele><time>2026-04-25T08:17:58Z</time></trkpt><trkpt lat="42.40742598521477" lon="11.10958859368457"><ele>287.0</ele><time>2026-04-25T08:17:59Z</time></trkpt><trkpt lat="42.40730433097269" lon="11.10952195797726"><ele>287.0</ele><time>2026-04-25T08:18:00Z</time></trkpt><trkpt lat="42.407190141631006" lon="11.109474586497585"><ele>287.0</ele><time>2026-04-25T08:18:01Z</time></trkpt><trkpt lat="42.407071187369155" lon="11.109439840999421"><ele>287.0</ele><time>2026-04-25T08:18:02Z</time></trkpt><trkpt lat="42.406941369052724" lon="11.109430220116598"><ele>290.75</ele><time>2026-04-25T08:18:03Z</time></trkpt><trkpt lat="42.40681101039948" lon="11.109421840073674"><ele>294.5</ele><time>2026-04-25T08:18:04Z</time></trkpt><trkpt lat="42.40667755875167" lon="11.109408640666086"><ele>298.25</ele><time>2026-04-25T08:18:05Z</time></trkpt><trkpt lat="42.40654598971956" lon="11.109400495490046"><ele>302.0</ele><time>2026-04-25T08:18:06Z</time></trkpt><trkpt lat="42.40641085231217" lon="11.109401748926075"><ele>305.5</ele><time>2026-04-25T08:18:07Z</time></trkpt><trkpt lat="42.40627579691101" lon="11.109394159439598"><ele>309.0</ele><time>2026-04-25T08:18:08Z</time></trkpt><trkpt lat="42.40614684272852" lon="11.10942885379336"><ele>312.5</ele><time>2026-04-25T08:18:09Z</time></trkpt><trkpt lat="42.406019503175536" lon="11.1094987638482"><ele>316.0</ele><time>2026-04-25T08:18:10Z</time></trkpt><trkpt lat="42.405876097814506" lon="11.109546660864138"><ele>316.0</ele><time>2026-04-25T08:18:11Z</time></trkpt><trkpt lat="42.40572143862666" lon="11.109579120580698"><ele>316.0</ele><time>2026-04-25T08:18:12Z</time></trkpt><trkpt lat="42.40557216515514" lon="11.109586975957525"><ele>316.0</ele><time>2026-04-25T08:18:13Z</time></trkpt><trkpt lat="42.40541182282631" lon="11.109551648881098"><ele>318.0</ele><time>2026-04-25T08:18:14Z</time></trkpt><trkpt lat="42.40525438922713" lon="11.109524870901925"><ele>320.0</ele><time>2026-04-25T08:18:15Z</time></trkpt><trkpt lat="42.4051010375964" lon="11.109500757343811"><ele>322.0</ele><time>2026-04-25T08:18:16Z</time></trkpt><trkpt lat="42.40494703786756" lon="11.109480454432148"><ele>322.0</ele><time>2026-04-25T08:18:17Z</time></trkpt><trkpt lat="42.404804240925685" lon="11.109486943791651"><ele>322.0</ele><time>2026-04-25T08:18:18Z</time></trkpt><trkpt lat="42.404662006425895" lon="11.109479715621424"><ele>322.0</ele><time>2026-04-25T08:18:19Z</time></trkpt><trkpt lat="42.40453572660571" lon="11.109504362470668"><ele>322.0</ele><time>2026-04-25T08:18:20Z</time></trkpt><trkpt lat="42.40441942379487" lon="11.109571165554904"><ele>323.0</ele><time>2026-04-25T08:18:21Z</time></trkpt><trkpt lat="42.40432322627422" lon="11.109685765908912"><ele>324.0</ele><time>2026-04-25T08:18:21.999Z</time></trkpt><trkpt lat="42.40423396540851" lon="11.109845170347466"><ele>325.0</ele><time>2026-04-25T08:18:22.999Z</time></trkpt><trkpt lat="42.40413898698895" lon="11.110010014924951"><ele>326.0</ele><time>2026-04-25T08:18:23.999Z</time></trkpt><trkpt lat="42.40403188262643" lon="11.110183288410628"><ele>326.0</ele><time>2026-04-25T08:18:24.999Z</time></trkpt><trkpt lat="42.403917924641995" lon="11.110355249918968"><ele>326.0</ele><time>2026-04-25T08:18:25.999Z</time></trkpt><trkpt lat="42.40378946398428" lon="11.11051291012379"><ele>326.0</ele><time>2026-04-25T08:18:26.999Z</time></trkpt><trkpt lat="42.403656344277806" lon="11.110633889719933"><ele>328.75</ele><time>2026-04-25T08:18:27.999Z</time></trkpt><trkpt lat="42.40353675721827" lon="11.110719654293165"><ele>331.5</ele><time>2026-04-25T08:18:28.999Z</time></trkpt><trkpt lat="42.403421862277675" lon="11.110813655224502"><ele>334.25</ele><time>2026-04-25T08:18:29.999Z</time></trkpt><trkpt lat="42.403318344705355" lon="11.110912206307768"><ele>337.0</ele><time>2026-04-25T08:18:30.999Z</time></trkpt><trkpt lat="42.403204434850835" lon="11.111022459972292"><ele>337.0</ele><time>2026-04-25T08:18:31.999Z</time></trkpt><trkpt lat="42.40308606184851" lon="11.11113526546092"><ele>337.0</ele><time>2026-04-25T08:18:32.999Z</time></trkpt><trkpt lat="42.402968580003794" lon="11.111250242152558"><ele>337.0</ele><time>2026-04-25T08:18:33.999Z</time></trkpt><trkpt lat="42.40285411031658" lon="11.111364361068643"><ele>337.0</ele><time>2026-04-25T08:18:34.999Z</time></trkpt><trkpt lat="42.40273393809988" lon="11.111455932877476"><ele>337.0</ele><time>2026-04-25T08:18:35.999Z</time></trkpt><trkpt lat="42.40259138373442" lon="11.111582949881463"><ele>337.0</ele><time>2026-04-25T08:18:36.999Z</time></trkpt><trkpt lat="42.402454058243386" lon="11.111687897138674"><ele>337.0</ele><time>2026-04-25T08:18:37.999Z</time></trkpt><trkpt lat="42.40230915126879" lon="11.1117877968877"><ele>337.0</ele><time>2026-04-25T08:18:38.999Z</time></trkpt><trkpt lat="42.40216603258552" lon="11.1118698234953"><ele>337.0</ele><time>2026-04-25T08:18:39.999Z</time></trkpt><trkpt lat="42.40202682683541" lon="11.111920413856241"><ele>337.0</ele><time>2026-04-25T08:18:40.999Z</time></trkpt><trkpt lat="42.40190166583211" lon="11.111969684252674"><ele>337.0</ele><time>2026-04-25T08:18:41.999Z</time></trkpt><trkpt lat="42.401771691703914" lon="11.112051200616824"><ele>337.0</ele><time>2026-04-25T08:18:42.999Z</time></trkpt><trkpt lat="42.401656969846364" lon="11.11218368066811"><ele>337.0</ele><time>2026-04-25T08:18:43.999Z</time></trkpt><trkpt lat="42.401544618315704" lon="11.11233448137631"><ele>337.0</ele><time>2026-04-25T08:18:44.999Z</time></trkpt><trkpt lat="42.40142917737591" lon="11.11249529982859"><ele>337.0</ele><time>2026-04-25T08:18:45.999Z</time></trkpt><trkpt lat="42.401334424175445" lon="11.112617679011274"><ele>337.0</ele><time>2026-04-25T08:18:46.999Z</time></trkpt><trkpt lat="42.401242174251806" lon="11.112683704172408"><ele>337.0</ele><time>2026-04-25T08:18:47.999Z</time></trkpt><trkpt lat="42.401179075347606" lon="11.112734796913369"><ele>337.0</ele><time>2026-04-25T08:18:49Z</time></trkpt><trkpt lat="42.40108338739548" lon="11.112787443434692"><ele>337.0</ele><time>2026-04-25T08:18:51Z</time></trkpt><trkpt lat="42.40100347233705" lon="11.112822587522302"><ele>339.25</ele><time>2026-04-25T08:18:53Z</time></trkpt><trkpt lat="42.40092131212706" lon="11.112852470489328"><ele>341.5</ele><time>2026-04-25T08:18:55Z</time></trkpt><trkpt lat="42.40085483399066" lon="11.112876451794316"><ele>343.75</ele><time>2026-04-25T08:18:57Z</time></trkpt><trkpt lat="42.400877169888716" lon="11.113140173241304"><ele>346.0</ele><time>2026-04-25T08:18:58Z</time></trkpt><trkpt lat="42.40088306094284" lon="11.11327598271984"><ele>346.0</ele><time>2026-04-25T08:19:00Z</time></trkpt><trkpt lat="42.400878175351146" lon="11.113406434932132"><ele>346.0</ele><time>2026-04-25T08:19:02Z</time></trkpt><trkpt lat="42.400868695383885" lon="11.113549392891136"><ele>346.0</ele><time>2026-04-25T08:19:04Z</time></trkpt><trkpt lat="42.40083238867133" lon="11.113668274018805"><ele>346.0</ele><time>2026-04-25T08:19:07Z</time></trkpt><trkpt lat="42.40076789434271" lon="11.113721290606378"><ele>346.0</ele><time>2026-04-25T08:19:09Z</time></trkpt><trkpt lat="42.40072051030129" lon="11.1138060772432"><ele>346.0</ele><time>2026-04-25T08:19:10Z</time></trkpt><trkpt lat="42.40067950068511" lon="11.11391030363724"><ele>346.0</ele><time>2026-04-25T08:19:11Z</time></trkpt><trkpt lat="42.40064920062102" lon="11.114037291664426"><ele>346.0</ele><time>2026-04-25T08:19:12Z</time></trkpt><trkpt lat="42.400599659069194" lon="11.114160727227787"><ele>346.0</ele><time>2026-04-25T08:19:13Z</time></trkpt><trkpt lat="42.40055999159901" lon="11.11427273263654"><ele>346.0</ele><time>2026-04-25T08:19:14Z</time></trkpt><trkpt lat="42.400510328619994" lon="11.114412962237159"><ele>346.4</ele><time>2026-04-25T08:19:15Z</time></trkpt><trkpt lat="42.40047334637748" lon="11.114552054152034"><ele>346.8</ele><time>2026-04-25T08:19:16Z</time></trkpt><trkpt lat="42.40044030778165" lon="11.11464396699193"><ele>347.2</ele><time>2026-04-25T08:19:17Z</time></trkpt><trkpt lat="42.40043007170248" lon="11.11479178882069"><ele>347.59999999999997</ele><time>2026-04-25T08:19:19Z</time></trkpt><trkpt lat="42.40045028586218" lon="11.114893120315845"><ele>348.0</ele><time>2026-04-25T08:19:20Z</time></trkpt><trkpt lat="42.40044468413398" lon="11.115000263555592"><ele>348.0</ele><time>2026-04-25T08:19:21Z</time></trkpt><trkpt lat="42.40045415757748" lon="11.115121796949529"><ele>348.0</ele><time>2026-04-25T08:19:22Z</time></trkpt><trkpt lat="42.40047819358699" lon="11.115284404283633"><ele>348.0</ele><time>2026-04-25T08:19:23Z</time></trkpt><trkpt lat="42.4004852591338" lon="11.115434804197735"><ele>348.0</ele><time>2026-04-25T08:19:24Z</time></trkpt><trkpt lat="42.40044252196452" lon="11.115545868131317"><ele>348.0</ele><time>2026-04-25T08:19:25Z</time></trkpt><trkpt lat="42.40043807691775" lon="11.115792912387366"><ele>350.4</ele><time>2026-04-25T08:19:27Z</time></trkpt><trkpt lat="42.40045189842933" lon="11.115912225810128"><ele>352.79999999999995</ele><time>2026-04-25T08:19:28Z</time></trkpt><trkpt lat="42.40047630658853" lon="11.116025224478234"><ele>355.2</ele><time>2026-04-25T08:19:29Z</time></trkpt><trkpt lat="42.40057252022186" lon="11.11613342438912"><ele>357.6</ele><time>2026-04-25T08:19:31Z</time></trkpt><trkpt lat="42.4006464129117" lon="11.116206356292286"><ele>360.0</ele><time>2026-04-25T08:19:32Z</time></trkpt><trkpt lat="42.400720283976874" lon="11.116287360042515"><ele>361.6666666666667</ele><time>2026-04-25T08:19:33Z</time></trkpt><trkpt lat="42.4007830788691" lon="11.116357839983111"><ele>363.3333333333333</ele><time>2026-04-25T08:19:34Z</time></trkpt><trkpt lat="42.40083639283646" lon="11.11641553155901"><ele>365.0</ele><time>2026-04-25T08:19:35Z</time></trkpt><trkpt lat="42.40091339128202" lon="11.116526017459428"><ele>366.66666666666663</ele><time>2026-04-25T08:19:37Z</time></trkpt><trkpt lat="42.40096136958194" lon="11.11660614990377"><ele>368.3333333333333</ele><time>2026-04-25T08:19:39Z</time></trkpt><trkpt lat="42.4009984391551" lon="11.116722033150348"><ele>370.0</ele><time>2026-04-25T08:24:33.999Z</time></trkpt><trkpt lat="42.40101128812478" lon="11.116902866148719"><ele>370.0</ele><time>2026-04-25T08:24:35.999Z</time></trkpt><trkpt lat="42.40101656498447" lon="11.117019246780597"><ele>370.0</ele><time>2026-04-25T08:24:36.999Z</time></trkpt><trkpt lat="42.40101602997016" lon="11.117162077324545"><ele>370.0</ele><time>2026-04-25T08:24:37.999Z</time></trkpt><trkpt lat="42.40102709838613" lon="11.117284000651363"><ele>370.0</ele><time>2026-04-25T08:24:38.999Z</time></trkpt><trkpt lat="42.40105545529199" lon="11.117410101135315"><ele>370.0</ele><time>2026-04-25T08:24:39.999Z</time></trkpt><trkpt lat="42.40109622350326" lon="11.117553267928642"><ele>370.2</ele><time>2026-04-25T08:24:40.999Z</time></trkpt><trkpt lat="42.40113607488245" lon="11.117684907559227"><ele>370.4</ele><time>2026-04-25T08:24:41.999Z</time></trkpt><trkpt lat="42.401174030659305" lon="11.11779639780721"><ele>370.6</ele><time>2026-04-25T08:24:42.999Z</time></trkpt><trkpt lat="42.40122819865499" lon="11.117921006869862"><ele>370.8</ele><time>2026-04-25T08:24:43.999Z</time></trkpt><trkpt lat="42.40129203147931" lon="11.118051595820171"><ele>371.0</ele><time>2026-04-25T08:24:44.999Z</time></trkpt><trkpt lat="42.40135274742061" lon="11.118189071638055"><ele>368.6</ele><time>2026-04-25T08:24:45.999Z</time></trkpt><trkpt lat="42.401389965100144" lon="11.118343559198909"><ele>366.20000000000005</ele><time>2026-04-25T08:24:46.999Z</time></trkpt><trkpt lat="42.401423370912305" lon="11.118473967355628"><ele>363.79999999999995</ele><time>2026-04-25T08:24:47.999Z</time></trkpt><trkpt lat="42.40146390437621" lon="11.118601782470405"><ele>361.4</ele><time>2026-04-25T08:24:48.999Z</time></trkpt><trkpt lat="42.40147594345189" lon="11.118712673275624"><ele>359.0</ele><time>2026-04-25T08:24:49.999Z</time></trkpt><trkpt lat="42.40148779013938" lon="11.118809177224644"><ele>359.0</ele><time>2026-04-25T08:24:50.999Z</time></trkpt><trkpt lat="42.401482865050376" lon="11.118926661450788"><ele>359.0</ele><time>2026-04-25T08:24:51.999Z</time></trkpt><trkpt lat="42.40149648990347" lon="11.11904140009238"><ele>359.0</ele><time>2026-04-25T08:24:52.998Z</time></trkpt><trkpt lat="42.40148024932027" lon="11.119158967132568"><ele>359.0</ele><time>2026-04-25T08:24:53.998Z</time></trkpt><trkpt lat="42.40148936537646" lon="11.11929256348553"><ele>359.0</ele><time>2026-04-25T08:24:54.998Z</time></trkpt><trkpt lat="42.401465922868454" lon="11.119418536980577"><ele>359.33333333333337</ele><time>2026-04-25T08:24:55.998Z</time></trkpt><trkpt lat="42.40148094464039" lon="11.119552526418618"><ele>359.6666666666667</ele><time>2026-04-25T08:24:56.998Z</time></trkpt><trkpt lat="42.401496372881674" lon="11.119664690089968"><ele>360.0</ele><time>2026-04-25T08:24:57.998Z</time></trkpt><trkpt lat="42.40152825658646" lon="11.11977479622693"><ele>360.3333333333333</ele><time>2026-04-25T08:24:58.998Z</time></trkpt><trkpt lat="42.40157327396639" lon="11.11987244567455"><ele>360.66666666666663</ele><time>2026-04-25T08:24:59.998Z</time></trkpt><trkpt lat="42.40160959285757" lon="11.119964215018104"><ele>361.0</ele><time>2026-04-25T08:25:00.998Z</time></trkpt><trkpt lat="42.40164669606357" lon="11.120107063284792"><ele>361.3333333333333</ele><time>2026-04-25T08:25:02.998Z</time></trkpt><trkpt lat="42.401644312631696" lon="11.12019260088245"><ele>361.66666666666663</ele><time>2026-04-25T08:25:03.998Z</time></trkpt><trkpt lat="42.40158610754731" lon="11.120271642709426"><ele>362.0</ele><time>2026-04-25T08:25:04.998Z</time></trkpt><trkpt lat="42.40154664249326" lon="11.12035769907713"><ele>362.3333333333333</ele><time>2026-04-25T08:25:06Z</time></trkpt><trkpt lat="42.40149293526139" lon="11.120457487061213"><ele>362.6666666666667</ele><time>2026-04-25T08:25:07Z</time></trkpt><trkpt lat="42.40145337165936" lon="11.120526369328784"><ele>363.0</ele><time>2026-04-25T08:25:08Z</time></trkpt><trkpt lat="42.40137857842251" lon="11.120636198653004"><ele>362.79999999999995</ele><time>2026-04-25T08:25:10Z</time></trkpt><trkpt lat="42.40133075222925" lon="11.120731577279535"><ele>362.6</ele><time>2026-04-25T08:25:12Z</time></trkpt><trkpt lat="42.40132151176278" lon="11.12090682729637"><ele>362.4</ele><time>2026-04-25T08:25:14Z</time></trkpt><trkpt lat="42.40130726614097" lon="11.121040995890558"><ele>362.20000000000005</ele><time>2026-04-25T08:25:15Z</time></trkpt><trkpt lat="42.40128154800783" lon="11.12118341814576"><ele>362.0</ele><time>2026-04-25T08:25:16Z</time></trkpt><trkpt lat="42.401265925413924" lon="11.121307810267892"><ele>359.40000000000003</ele><time>2026-04-25T08:25:17Z</time></trkpt><trkpt lat="42.40124777446803" lon="11.121415035474628"><ele>356.8</ele><time>2026-04-25T08:25:18Z</time></trkpt><trkpt lat="42.401227622540574" lon="11.12154011573108"><ele>354.2</ele><time>2026-04-25T08:25:19Z</time></trkpt><trkpt lat="42.401215637692545" lon="11.121667216381484"><ele>351.6</ele><time>2026-04-25T08:25:20Z</time></trkpt><trkpt lat="42.401200013202335" lon="11.121792801604474"><ele>349.0</ele><time>2026-04-25T08:25:21Z</time></trkpt><trkpt lat="42.401179712544625" lon="11.121921106534517"><ele>348.6</ele><time>2026-04-25T08:25:22Z</time></trkpt><trkpt lat="42.40115564134219" lon="11.122056871246775"><ele>348.2</ele><time>2026-04-25T08:25:23Z</time></trkpt><trkpt lat="42.40113234929748" lon="11.122184139041634"><ele>347.8</ele><time>2026-04-25T08:25:24Z</time></trkpt><trkpt lat="42.40109833279204" lon="11.122288848681"><ele>347.40000000000003</ele><time>2026-04-25T08:25:25Z</time></trkpt><trkpt lat="42.401106063836735" lon="11.122405175131519"><ele>347.0</ele><time>2026-04-25T08:25:26Z</time></trkpt><trkpt lat="42.40111230188247" lon="11.122520140072462"><ele>347.0</ele><time>2026-04-25T08:25:27Z</time></trkpt><trkpt lat="42.40113725646402" lon="11.122634421953885"><ele>347.0</ele><time>2026-04-25T08:25:28Z</time></trkpt><trkpt lat="42.40118167044999" lon="11.122747565467098"><ele>347.0</ele><time>2026-04-25T08:25:29Z</time></trkpt><trkpt lat="42.40124127922129" lon="11.122873610206025"><ele>347.0</ele><time>2026-04-25T08:25:30Z</time></trkpt><trkpt lat="42.40129413074482" lon="11.122994925176096"><ele>347.0</ele><time>2026-04-25T08:25:31Z</time></trkpt><trkpt lat="42.40130387852138" lon="11.123101826129446"><ele>349.1666666666667</ele><time>2026-04-25T08:25:32Z</time></trkpt><trkpt lat="42.401339428953015" lon="11.12319836145458"><ele>351.33333333333337</ele><time>2026-04-25T08:25:33Z</time></trkpt><trkpt lat="42.40135879200182" lon="11.123314767896533"><ele>353.5</ele><time>2026-04-25T08:25:34Z</time></trkpt><trkpt lat="42.40137816359943" lon="11.123414517918308"><ele>355.6666666666667</ele><time>2026-04-25T08:25:35Z</time></trkpt><trkpt lat="42.40139896756739" lon="11.12350741598837"><ele>357.8333333333333</ele><time>2026-04-25T08:25:36Z</time></trkpt><trkpt lat="42.40141723422846" lon="11.123599168115875"><ele>360.0</ele><time>2026-04-25T08:25:37Z</time></trkpt><trkpt lat="42.40143813857528" lon="11.123692264862239"><ele>360.0</ele><time>2026-04-25T08:25:38Z</time></trkpt><trkpt lat="42.40143716471546" lon="11.123852620816997"><ele>360.0</ele><time>2026-04-25T08:25:39.999Z</time></trkpt><trkpt lat="42.401422158329076" lon="11.123962855998618"><ele>360.0</ele><time>2026-04-25T08:25:40.999Z</time></trkpt><trkpt lat="42.40142732354053" lon="11.124169316515085"><ele>360.0</ele><time>2026-04-25T08:25:42.999Z</time></trkpt><trkpt lat="42.40141902731677" lon="11.124273517673062"><ele>360.0</ele><time>2026-04-25T08:25:43.999Z</time></trkpt><trkpt lat="42.40142913006555" lon="11.124375798233146"><ele>358.1666666666667</ele><time>2026-04-25T08:25:44.999Z</time></trkpt><trkpt lat="42.4014084212974" lon="11.124530273253747"><ele>356.3333333333333</ele><time>2026-04-25T08:25:46.999Z</time></trkpt><trkpt lat="42.401411953818496" lon="11.12461766426232"><ele>354.5</ele><time>2026-04-25T08:25:47.999Z</time></trkpt><trkpt lat="42.401398747475426" lon="11.124701123402222"><ele>352.66666666666663</ele><time>2026-04-25T08:25:48.999Z</time></trkpt><trkpt lat="42.401398482268895" lon="11.124838178439372"><ele>350.8333333333333</ele><time>2026-04-25T08:25:50.999Z</time></trkpt><trkpt lat="42.401383772792535" lon="11.124941388557106"><ele>349.0</ele><time>2026-04-25T08:25:52.999Z</time></trkpt><trkpt lat="42.40126334250331" lon="11.125002143702556"><ele>345.0</ele><time>2026-04-25T08:25:54.999Z</time></trkpt><trkpt lat="42.40119639133964" lon="11.125095964586093"><ele>341.0</ele><time>2026-04-25T08:25:55.999Z</time></trkpt><trkpt lat="42.401113501734834" lon="11.125210141106338"><ele>337.0</ele><time>2026-04-25T08:25:56.999Z</time></trkpt><trkpt lat="42.40103068782908" lon="11.125332710088559"><ele>333.0</ele><time>2026-04-25T08:25:57.999Z</time></trkpt><trkpt lat="42.40095471495623" lon="11.125484505675605"><ele>333.0</ele><time>2026-04-25T08:25:58.999Z</time></trkpt><trkpt lat="42.40085927258764" lon="11.125633069417125"><ele>333.0</ele><time>2026-04-25T08:25:59.999Z</time></trkpt><trkpt lat="42.400755718549114" lon="11.125735581949261"><ele>333.0</ele><time>2026-04-25T08:26:00.999Z</time></trkpt><trkpt lat="42.400657777874756" lon="11.125861438230272"><ele>333.0</ele><time>2026-04-25T08:26:01.999Z</time></trkpt><trkpt lat="42.40058912579997" lon="11.125987208552411"><ele>333.4</ele><time>2026-04-25T08:26:02.999Z</time></trkpt><trkpt lat="42.40053262487047" lon="11.126073183876033"><ele>333.79999999999995</ele><time>2026-04-25T08:26:03.999Z</time></trkpt><trkpt lat="42.4005058670793" lon="11.12617196013602"><ele>334.2</ele><time>2026-04-25T08:26:04.999Z</time></trkpt><trkpt lat="42.4004525687464" lon="11.126304650320543"><ele>334.6</ele><time>2026-04-25T08:26:05.999Z</time></trkpt><trkpt lat="42.40040703873675" lon="11.126434407730462"><ele>335.0</ele><time>2026-04-25T08:26:06.999Z</time></trkpt><trkpt lat="42.40038417969286" lon="11.12654761810489"><ele>333.6</ele><time>2026-04-25T08:26:07.999Z</time></trkpt><trkpt lat="42.40033666605452" lon="11.12664288731923"><ele>332.2</ele><time>2026-04-25T08:26:08.999Z</time></trkpt><trkpt lat="42.4002849004399" lon="11.12674519733081"><ele>330.79999999999995</ele><time>2026-04-25T08:26:09.999Z</time></trkpt><trkpt lat="42.40022332615601" lon="11.126854064981822"><ele>329.4</ele><time>2026-04-25T08:26:10.999Z</time></trkpt><trkpt lat="42.40015517207355" lon="11.12694853179385"><ele>328.0</ele><time>2026-04-25T08:26:11.999Z</time></trkpt><trkpt lat="42.400080493657775" lon="11.127034211388052"><ele>327.99999999999994</ele><time>2026-04-25T08:26:12.999Z</time></trkpt><trkpt lat="42.400020741260384" lon="11.127097505325912"><ele>328.0</ele><time>2026-04-25T08:26:13.999Z</time></trkpt><trkpt lat="42.39996320473104" lon="11.12715222301533"><ele>328.0</ele><time>2026-04-25T08:26:14.999Z</time></trkpt><trkpt lat="42.39989782600054" lon="11.127199213985827"><ele>328.0</ele><time>2026-04-25T08:26:15.999Z</time></trkpt><trkpt lat="42.39983773031776" lon="11.127247815451065"><ele>328.0</ele><time>2026-04-25T08:26:16.999Z</time></trkpt><trkpt lat="42.399787746117006" lon="11.127328523900013"><ele>327.99999999999994</ele><time>2026-04-25T08:26:17.999Z</time></trkpt><trkpt lat="42.39972409735055" lon="11.127358497469942"><ele>328.0</ele><time>2026-04-25T08:26:18.999Z</time></trkpt><trkpt lat="42.39962897662011" lon="11.127441013511953"><ele>324.5</ele><time>2026-04-25T08:26:20.999Z</time></trkpt><trkpt lat="42.39958241905821" lon="11.127517869322359"><ele>321.0</ele><time>2026-04-25T08:26:21.999Z</time></trkpt><trkpt lat="42.399530402737604" lon="11.127594777723885"><ele>317.5</ele><time>2026-04-25T08:26:22.999Z</time></trkpt><trkpt lat="42.39948568339902" lon="11.127684567185337"><ele>314.0</ele><time>2026-04-25T08:26:23.999Z</time></trkpt><trkpt lat="42.399441957663875" lon="11.12776316915301"><ele>310.5</ele><time>2026-04-25T08:26:24.999Z</time></trkpt><trkpt lat="42.39938711171235" lon="11.12781877266333"><ele>307.0</ele><time>2026-04-25T08:26:25.999Z</time></trkpt><trkpt lat="42.399313799169946" lon="11.127931940278085"><ele>307.0</ele><time>2026-04-25T08:26:27.999Z</time></trkpt><trkpt lat="42.399252482774855" lon="11.128010685438948"><ele>307.0</ele><time>2026-04-25T08:26:29.999Z</time></trkpt><trkpt lat="42.39920335206707" lon="11.12812127767989"><ele>307.0</ele><time>2026-04-25T08:26:31.999Z</time></trkpt><trkpt lat="42.39915532017348" lon="11.128194568265892"><ele>307.0</ele><time>2026-04-25T08:26:32.999Z</time></trkpt><trkpt lat="42.39912208524707" lon="11.128286253566516"><ele>307.0</ele><time>2026-04-25T08:26:33.999Z</time></trkpt><trkpt lat="42.399054714667834" lon="11.128394791060435"><ele>307.0</ele><time>2026-04-25T08:26:35.999Z</time></trkpt><trkpt lat="42.39902405925393" lon="11.12850242260026"><ele>307.0</ele><time>2026-04-25T08:26:37.999Z</time></trkpt><trkpt lat="42.39897722534048" lon="11.1286529317638"><ele>307.0</ele><time>2026-04-25T08:26:39.999Z</time></trkpt><trkpt lat="42.398952037261054" lon="11.128754390351626"><ele>307.0</ele><time>2026-04-25T08:26:40.999Z</time></trkpt><trkpt lat="42.39894639446798" lon="11.128840926110888"><ele>307.0</ele><time>2026-04-25T08:26:41.999Z</time></trkpt><trkpt lat="42.398970936043796" lon="11.12896084593913"><ele>307.0</ele><time>2026-04-25T08:26:43.999Z</time></trkpt><trkpt lat="42.398983797601026" lon="11.129088145137082"><ele>305.6</ele><time>2026-04-25T08:26:45.999Z</time></trkpt><trkpt lat="42.39899315032166" lon="11.129174826253282"><ele>304.2</ele><time>2026-04-25T08:26:47.999Z</time></trkpt><trkpt lat="42.399060876518206" lon="11.129313513885583"><ele>302.8</ele><time>2026-04-25T08:26:49.999Z</time></trkpt><trkpt lat="42.39913366571354" lon="11.129396702848535"><ele>301.4</ele><time>2026-04-25T08:26:51.999Z</time></trkpt><trkpt lat="42.399222428363736" lon="11.129484947715863"><ele>300.0</ele><time>2026-04-25T08:26:53.999Z</time></trkpt><trkpt lat="42.399323531627154" lon="11.129577346251775"><ele>300.0</ele><time>2026-04-25T08:26:55.999Z</time></trkpt><trkpt lat="42.39940634508171" lon="11.12963908127282"><ele>300.0</ele><time>2026-04-25T08:26:57.999Z</time></trkpt><trkpt lat="42.399493123517765" lon="11.129665805534222"><ele>300.0</ele><time>2026-04-25T08:26:59.999Z</time></trkpt><trkpt lat="42.3995855094938" lon="11.12968601482048"><ele>300.0</ele><time>2026-04-25T08:27:01.999Z</time></trkpt><trkpt lat="42.399663918701116" lon="11.129706950117848"><ele>300.0</ele><time>2026-04-25T08:27:04.998Z</time></trkpt><trkpt lat="42.39974298401627" lon="11.129739275294574"><ele>300.0</ele><time>2026-04-25T08:27:07.998Z</time></trkpt><trkpt lat="42.39982342304396" lon="11.129676162395503"><ele>299.1666666666667</ele><time>2026-04-25T08:27:09.998Z</time></trkpt><trkpt lat="42.39988880958547" lon="11.129649529833353"><ele>298.3333333333333</ele><time>2026-04-25T08:27:11Z</time></trkpt><trkpt lat="42.39994782986148" lon="11.129606362466612"><ele>297.5</ele><time>2026-04-25T08:27:12Z</time></trkpt><trkpt lat="42.40002053029426" lon="11.12955162599807"><ele>296.66666666666663</ele><time>2026-04-25T08:27:13Z</time></trkpt><trkpt lat="42.40010490364038" lon="11.129488100999332"><ele>295.8333333333333</ele><time>2026-04-25T08:27:14Z</time></trkpt><trkpt lat="42.40018962654351" lon="11.129424312956232"><ele>295.0</ele><time>2026-04-25T08:27:15Z</time></trkpt><trkpt lat="42.40028228571425" lon="11.129353139574933"><ele>295.0</ele><time>2026-04-25T08:27:16Z</time></trkpt><trkpt lat="42.400373028074114" lon="11.129276458944052"><ele>295.0</ele><time>2026-04-25T08:27:17Z</time></trkpt><trkpt lat="42.4004720961245" lon="11.129185538179406"><ele>295.0</ele><time>2026-04-25T08:27:18Z</time></trkpt><trkpt lat="42.400585043077896" lon="11.129103208453964"><ele>295.0</ele><time>2026-04-25T08:27:19Z</time></trkpt><trkpt lat="42.4006734557985" lon="11.129051714766954"><ele>295.8333333333333</ele><time>2026-04-25T08:27:20Z</time></trkpt><trkpt lat="42.400751586095794" lon="11.12900601134604"><ele>296.66666666666663</ele><time>2026-04-25T08:27:21Z</time></trkpt><trkpt lat="42.4008167026032" lon="11.128967666852894"><ele>297.5</ele><time>2026-04-25T08:27:22Z</time></trkpt><trkpt lat="42.400916490272216" lon="11.128905524637451"><ele>298.3333333333333</ele><time>2026-04-25T08:27:24Z</time></trkpt><trkpt lat="42.40097930327075" lon="11.128844185347416"><ele>299.1666666666667</ele><time>2026-04-25T08:27:25Z</time></trkpt><trkpt lat="42.401042147952595" lon="11.128756604831043"><ele>300.0</ele><time>2026-04-25T08:27:26Z</time></trkpt><trkpt lat="42.40108369564995" lon="11.128656635478393"><ele>300.0</ele><time>2026-04-25T08:27:27Z</time></trkpt><trkpt lat="42.40109465953756" lon="11.128545008036626"><ele>300.0</ele><time>2026-04-25T08:27:28Z</time></trkpt><trkpt lat="42.40111516944296" lon="11.128427255327379"><ele>300.0</ele><time>2026-04-25T08:27:29Z</time></trkpt><trkpt lat="42.401164917112865" lon="11.128292336499113"><ele>300.0</ele><time>2026-04-25T08:27:30Z</time></trkpt><trkpt lat="42.40122692423455" lon="11.12818520734802"><ele>300.0</ele><time>2026-04-25T08:27:31Z</time></trkpt><trkpt lat="42.40130063862735" lon="11.128110186500805"><ele>298.3333333333333</ele><time>2026-04-25T08:27:32Z</time></trkpt><trkpt lat="42.40137958462564" lon="11.128044186235577"><ele>296.6666666666667</ele><time>2026-04-25T08:27:33Z</time></trkpt><trkpt lat="42.40143182796733" lon="11.127989776574642"><ele>295.0</ele><time>2026-04-25T08:27:34Z</time></trkpt><trkpt lat="42.401465388292856" lon="11.12791579310885"><ele>293.33333333333337</ele><time>2026-04-25T08:27:35Z</time></trkpt><trkpt lat="42.40149295714411" lon="11.12781581954591"><ele>291.6666666666667</ele><time>2026-04-25T08:27:36Z</time></trkpt><trkpt lat="42.401520621169816" lon="11.127713494539341"><ele>290.0</ele><time>2026-04-25T08:27:37Z</time></trkpt><trkpt lat="42.401549002624094" lon="11.127609223443844"><ele>290.0</ele><time>2026-04-25T08:27:38Z</time></trkpt><trkpt lat="42.40157452992419" lon="11.127507146928568"><ele>290.0</ele><time>2026-04-25T08:27:39Z</time></trkpt><trkpt lat="42.401598796627184" lon="11.127400093114998"><ele>290.0</ele><time>2026-04-25T08:27:39.999Z</time></trkpt><trkpt lat="42.40161600261947" lon="11.127280821198053"><ele>290.0</ele><time>2026-04-25T08:27:40.999Z</time></trkpt><trkpt lat="42.401631210536344" lon="11.127170401366431"><ele>290.0</ele><time>2026-04-25T08:27:41.999Z</time></trkpt><trkpt lat="42.40163389375934" lon="11.127045437449269"><ele>290.0</ele><time>2026-04-25T08:27:42.999Z</time></trkpt><trkpt lat="42.40166113436288" lon="11.126949442372998"><ele>293.4</ele><time>2026-04-25T08:27:43.999Z</time></trkpt><trkpt lat="42.401696086407924" lon="11.126800323947288"><ele>296.8</ele><time>2026-04-25T08:27:45.999Z</time></trkpt><trkpt lat="42.401800811022106" lon="11.126704511959659"><ele>300.2</ele><time>2026-04-25T08:27:47.999Z</time></trkpt><trkpt lat="42.40187316963099" lon="11.126678293014807"><ele>303.6</ele><time>2026-04-25T08:27:48.999Z</time></trkpt><trkpt lat="42.401973165267684" lon="11.12668616996107"><ele>307.0</ele><time>2026-04-25T08:27:50.999Z</time></trkpt><trkpt lat="42.402121125457874" lon="11.126698546480759"><ele>307.8</ele><time>2026-04-25T08:27:52.999Z</time></trkpt><trkpt lat="42.40219280561417" lon="11.126710528528708"><ele>308.6</ele><time>2026-04-25T08:27:53.999Z</time></trkpt><trkpt lat="42.40230996421934" lon="11.126651956351854"><ele>309.40000000000003</ele><time>2026-04-25T08:27:55.999Z</time></trkpt><trkpt lat="42.40241324827495" lon="11.126569653094714"><ele>310.2</ele><time>2026-04-25T08:27:57.999Z</time></trkpt><trkpt lat="42.402443136974846" lon="11.126465609534948"><ele>311.0</ele><time>2026-04-25T08:27:58.999Z</time></trkpt><trkpt lat="42.402500869402516" lon="11.126348148857355"><ele>311.0</ele><time>2026-04-25T08:27:59.999Z</time></trkpt><trkpt lat="42.402573262786305" lon="11.126187833815859"><ele>311.0</ele><time>2026-04-25T08:28:00.999Z</time></trkpt><trkpt lat="42.402646766724544" lon="11.126070593113619"><ele>311.0</ele><time>2026-04-25T08:28:01.999Z</time></trkpt><trkpt lat="42.40270905537584" lon="11.125983411449033"><ele>311.0</ele><time>2026-04-25T08:28:02.999Z</time></trkpt><trkpt lat="42.4027493402317" lon="11.125909321086018"><ele>311.0</ele><time>2026-04-25T08:28:03.999Z</time></trkpt><trkpt lat="42.402792522874115" lon="11.125750266344456"><ele>313.20000000000005</ele><time>2026-04-25T08:28:05.999Z</time></trkpt><trkpt lat="42.402805134462774" lon="11.125587632988848"><ele>315.40000000000003</ele><time>2026-04-25T08:28:06.999Z</time></trkpt><trkpt lat="42.402794914128" lon="11.125446105935797"><ele>317.6</ele><time>2026-04-25T08:28:07.999Z</time></trkpt><trkpt lat="42.402831861220214" lon="11.125315925906227"><ele>319.8</ele><time>2026-04-25T08:28:09.999Z</time></trkpt><trkpt lat="42.40285981342665" lon="11.125189905630227"><ele>322.0</ele><time>2026-04-25T08:28:11.999Z</time></trkpt><trkpt lat="42.402921069771445" lon="11.125151917352968"><ele>322.0</ele><time>2026-04-25T08:28:14.999Z</time></trkpt><trkpt lat="42.40298359072667" lon="11.125219207577937"><ele>322.0</ele><time>2026-04-25T08:28:15.999Z</time></trkpt><trkpt lat="42.403091632442695" lon="11.125308349052528"><ele>322.0</ele><time>2026-04-25T08:28:16.999Z</time></trkpt><trkpt lat="42.403184157857886" lon="11.125367685386403"><ele>322.0</ele><time>2026-04-25T08:28:17.999Z</time></trkpt><trkpt lat="42.40326943539545" lon="11.125409341521515"><ele>322.0</ele><time>2026-04-25T08:28:18.999Z</time></trkpt><trkpt lat="42.40336215958334" lon="11.125449258071738"><ele>319.8333333333333</ele><time>2026-04-25T08:28:19.999Z</time></trkpt><trkpt lat="42.40344146926232" lon="11.125481634172106"><ele>317.66666666666663</ele><time>2026-04-25T08:28:20.999Z</time></trkpt><trkpt lat="42.40351943041376" lon="11.125476643809495"><ele>315.5</ele><time>2026-04-25T08:28:21.999Z</time></trkpt><trkpt lat="42.40362643248017" lon="11.125484571946853"><ele>313.3333333333333</ele><time>2026-04-25T08:28:22.999Z</time></trkpt><trkpt lat="42.40371520759778" lon="11.125477915263634"><ele>311.1666666666667</ele><time>2026-04-25T08:28:23.999Z</time></trkpt><trkpt lat="42.40377822144192" lon="11.125457345352062"><ele>309.0</ele><time>2026-04-25T08:28:24.999Z</time></trkpt><trkpt lat="42.40385580910132" lon="11.125410493555952"><ele>308.8</ele><time>2026-04-25T08:28:25.999Z</time></trkpt><trkpt lat="42.40394189214143" lon="11.125347165482696"><ele>308.59999999999997</ele><time>2026-04-25T08:28:26.999Z</time></trkpt><trkpt lat="42.404068693121985" lon="11.125323234117955"><ele>308.4</ele><time>2026-04-25T08:28:27.999Z</time></trkpt><trkpt lat="42.40416726473342" lon="11.125277150550387"><ele>308.2</ele><time>2026-04-25T08:28:28.999Z</time></trkpt><trkpt lat="42.40424170819998" lon="11.125275382073553"><ele>308.0</ele><time>2026-04-25T08:28:29.999Z</time></trkpt><trkpt lat="42.4043071677022" lon="11.125298041007492"><ele>308.0</ele><time>2026-04-25T08:28:30.999Z</time></trkpt><trkpt lat="42.404379914408395" lon="11.125374269099114"><ele>308.0</ele><time>2026-04-25T08:28:32.999Z</time></trkpt><trkpt lat="42.40446987348057" lon="11.125363579106846"><ele>308.0</ele><time>2026-04-25T08:28:34.999Z</time></trkpt><trkpt lat="42.40453716321313" lon="11.125344412268031"><ele>308.0</ele><time>2026-04-25T08:28:35.999Z</time></trkpt><trkpt lat="42.404628547263805" lon="11.12538276228781"><ele>308.0</ele><time>2026-04-25T08:28:37.999Z</time></trkpt><trkpt lat="42.404637146538434" lon="11.12547723010122"><ele>308.0</ele><time>2026-04-25T08:28:39.999Z</time></trkpt><trkpt lat="42.40464963399112" lon="11.125564135790178"><ele>309.0</ele><time>2026-04-25T08:28:40.999Z</time></trkpt><trkpt lat="42.40473135194693" lon="11.125627347959446"><ele>310.0</ele><time>2026-04-25T08:28:42.999Z</time></trkpt><trkpt lat="42.40480181643084" lon="11.125617573235719"><ele>311.0</ele><time>2026-04-25T08:28:43.999Z</time></trkpt><trkpt lat="42.404876849970655" lon="11.125592817444964"><ele>312.0</ele><time>2026-04-25T08:28:44.999Z</time></trkpt><trkpt lat="42.404983909068214" lon="11.125579383302421"><ele>313.0</ele><time>2026-04-25T08:28:45.999Z</time></trkpt><trkpt lat="42.40511023784121" lon="11.125495003328542"><ele>313.0</ele><time>2026-04-25T08:28:46.999Z</time></trkpt><trkpt lat="42.40523274201108" lon="11.1254510682422"><ele>313.0</ele><time>2026-04-25T08:28:47.999Z</time></trkpt><trkpt lat="42.405319941047566" lon="11.125423320173857"><ele>313.0</ele><time>2026-04-25T08:28:48.999Z</time></trkpt><trkpt lat="42.40538401052951" lon="11.125408496920132"><ele>313.0</ele><time>2026-04-25T08:28:49.999Z</time></trkpt><trkpt lat="42.40544892679923" lon="11.125389951682155"><ele>313.0</ele><time>2026-04-25T08:28:51.999Z</time></trkpt><trkpt lat="42.40553829001771" lon="11.125328024651745"><ele>313.0</ele><time>2026-04-25T08:28:57.999Z</time></trkpt><trkpt lat="42.4055144460863" lon="11.125219426213766"><ele>313.0</ele><time>2026-04-25T08:28:58.999Z</time></trkpt><trkpt lat="42.405548818320455" lon="11.12509656917965"><ele>313.0</ele><time>2026-04-25T08:29:00.999Z</time></trkpt><trkpt lat="42.405558426644404" lon="11.125004140139268"><ele>313.0</ele><time>2026-04-25T08:29:01.999Z</time></trkpt><trkpt lat="42.40554695877894" lon="11.124917055846037"><ele>313.0</ele><time>2026-04-25T08:29:37Z</time></trkpt><trkpt lat="42.40557124045357" lon="11.124788461355173"><ele>313.0</ele><time>2026-04-25T08:29:38.999Z</time></trkpt><trkpt lat="42.4055672023994" lon="11.12462236625071"><ele>313.0</ele><time>2026-04-25T08:29:40.999Z</time></trkpt><trkpt lat="42.40561224995121" lon="11.124523877084338"><ele>313.0</ele><time>2026-04-25T08:29:42.999Z</time></trkpt><trkpt lat="42.405637318982606" lon="11.124369110854513"><ele>313.0</ele><time>2026-04-25T08:29:44.999Z</time></trkpt><trkpt lat="42.40563165802011" lon="11.124262953142969"><ele>313.0</ele><time>2026-04-25T08:29:46.999Z</time></trkpt><trkpt lat="42.40564550813912" lon="11.124169273103425"><ele>313.0</ele><time>2026-04-25T08:29:47.999Z</time></trkpt><trkpt lat="42.40567041135357" lon="11.124040288184197"><ele>313.0</ele><time>2026-04-25T08:29:48.999Z</time></trkpt><trkpt lat="42.40565143793607" lon="11.123936968103521"><ele>313.0</ele><time>2026-04-25T08:29:49.999Z</time></trkpt><trkpt lat="42.40560038139573" lon="11.123790275969471"><ele>313.0</ele><time>2026-04-25T08:29:51.999Z</time></trkpt><trkpt lat="42.40554357462431" lon="11.123690451936742"><ele>313.0</ele><time>2026-04-25T08:29:52.999Z</time></trkpt><trkpt lat="42.40545804731765" lon="11.123624548665026"><ele>313.0</ele><time>2026-04-25T08:29:53.999Z</time></trkpt><trkpt lat="42.40536305255302" lon="11.123569913815066"><ele>315.8333333333333</ele><time>2026-04-25T08:29:54.999Z</time></trkpt><trkpt lat="42.40528078841695" lon="11.12348009919129"><ele>318.66666666666663</ele><time>2026-04-25T08:29:55.999Z</time></trkpt><trkpt lat="42.40521422135719" lon="11.123376241100068"><ele>321.5</ele><time>2026-04-25T08:29:56.999Z</time></trkpt><trkpt lat="42.40515838731927" lon="11.123290103952264"><ele>324.3333333333333</ele><time>2026-04-25T08:29:57.999Z</time></trkpt><trkpt lat="42.405110970731236" lon="11.123202818753887"><ele>327.1666666666667</ele><time>2026-04-25T08:29:58.999Z</time></trkpt><trkpt lat="42.40508797718631" lon="11.123118524849733"><ele>330.0</ele><time>2026-04-25T08:29:59.999Z</time></trkpt><trkpt lat="42.40507603015892" lon="11.122899401931146"><ele>330.25</ele><time>2026-04-25T08:30:01.999Z</time></trkpt><trkpt lat="42.40506304698771" lon="11.122724389780123"><ele>330.5</ele><time>2026-04-25T08:30:02.999Z</time></trkpt><trkpt lat="42.40504903395278" lon="11.122529685806626"><ele>330.75</ele><time>2026-04-25T08:30:03.999Z</time></trkpt><trkpt lat="42.40503609542086" lon="11.122352263790235"><ele>331.0</ele><time>2026-04-25T08:30:04.999Z</time></trkpt><trkpt lat="42.40501057789824" lon="11.122208046017612"><ele>331.0</ele><time>2026-04-25T08:30:05.999Z</time></trkpt><trkpt lat="42.40499878986566" lon="11.12207451887391"><ele>331.0</ele><time>2026-04-25T08:30:06.999Z</time></trkpt><trkpt lat="42.40497557146744" lon="11.121964476471303"><ele>331.0</ele><time>2026-04-25T08:30:07.999Z</time></trkpt><trkpt lat="42.40492623256668" lon="11.121869263342633"><ele>331.0</ele><time>2026-04-25T08:30:08.999Z</time></trkpt><trkpt lat="42.4048654900082" lon="11.121779517991518"><ele>331.0</ele><time>2026-04-25T08:30:09.999Z</time></trkpt><trkpt lat="42.40480858484174" lon="11.121644521435314"><ele>333.20000000000005</ele><time>2026-04-25T08:30:10.999Z</time></trkpt><trkpt lat="42.40473633528539" lon="11.12150759952341"><ele>335.40000000000003</ele><time>2026-04-25T08:30:11.999Z</time></trkpt><trkpt lat="42.40467020479238" lon="11.121378633551105"><ele>337.6</ele><time>2026-04-25T08:30:12.999Z</time></trkpt><trkpt lat="42.40460774244898" lon="11.121250522371993"><ele>339.8</ele><time>2026-04-25T08:30:13.999Z</time></trkpt><trkpt lat="42.40455753562601" lon="11.12116070607986"><ele>342.0</ele><time>2026-04-25T08:30:14.999Z</time></trkpt><trkpt lat="42.404488570641824" lon="11.121084248439107"><ele>342.0</ele><time>2026-04-25T08:30:15.999Z</time></trkpt><trkpt lat="42.404432996927945" lon="11.121037697589681"><ele>342.0</ele><time>2026-04-25T08:30:16.999Z</time></trkpt><trkpt lat="42.404346559857494" lon="11.121063937536558"><ele>342.0</ele><time>2026-04-25T08:30:17.999Z</time></trkpt><trkpt lat="42.40426983239695" lon="11.121050157800353"><ele>342.0</ele><time>2026-04-25T08:30:18.999Z</time></trkpt><trkpt lat="42.404189359544716" lon="11.121042250381418"><ele>342.0</ele><time>2026-04-25T08:30:19.999Z</time></trkpt><trkpt lat="42.40409425859737" lon="11.121034777472598"><ele>342.0</ele><time>2026-04-25T08:30:20.999Z</time></trkpt><trkpt lat="42.404004623441004" lon="11.12102958560249"><ele>342.0</ele><time>2026-04-25T08:30:21.999Z</time></trkpt><trkpt lat="42.403912457220954" lon="11.12102430506594"><ele>342.0</ele><time>2026-04-25T08:30:22.999Z</time></trkpt><trkpt lat="42.403810421862744" lon="11.121018705571526"><ele>342.0</ele><time>2026-04-25T08:30:23.999Z</time></trkpt><trkpt lat="42.403711923649645" lon="11.121006034046433"><ele>342.0</ele><time>2026-04-25T08:30:24.999Z</time></trkpt><trkpt lat="42.40361639158195" lon="11.120961148956008"><ele>342.0</ele><time>2026-04-25T08:30:25.999Z</time></trkpt><trkpt lat="42.403553747740595" lon="11.120889169849457"><ele>340.0</ele><time>2026-04-25T08:30:26.999Z</time></trkpt><trkpt lat="42.403468441815" lon="11.12080201239299"><ele>338.0</ele><time>2026-04-25T08:30:27.999Z</time></trkpt><trkpt lat="42.40334556824645" lon="11.120705881713725"><ele>336.0</ele><time>2026-04-25T08:30:28.999Z</time></trkpt><trkpt lat="42.40323129211477" lon="11.12057734975273"><ele>334.0</ele><time>2026-04-25T08:30:29.999Z</time></trkpt><trkpt lat="42.40314279414347" lon="11.12050391316186"><ele>334.0</ele><time>2026-04-25T08:30:30.999Z</time></trkpt><trkpt lat="42.40303528980858" lon="11.1204562319165"><ele>334.0</ele><time>2026-04-25T08:30:31.999Z</time></trkpt><trkpt lat="42.40293786605403" lon="11.120407885088248"><ele>334.0</ele><time>2026-04-25T08:30:32.999Z</time></trkpt><trkpt lat="42.40282137083241" lon="11.120339691027258"><ele>334.0</ele><time>2026-04-25T08:30:33.999Z</time></trkpt><trkpt lat="42.40268279458586" lon="11.12030461474816"><ele>338.25</ele><time>2026-04-25T08:30:34.999Z</time></trkpt><trkpt lat="42.40256141844873" lon="11.120319016416879"><ele>342.5</ele><time>2026-04-25T08:30:35.999Z</time></trkpt><trkpt lat="42.40244759904261" lon="11.120333617622338"><ele>346.75</ele><time>2026-04-25T08:30:36.999Z</time></trkpt><trkpt lat="42.40232121542943" lon="11.12032306230757"><ele>351.0</ele><time>2026-04-25T08:30:37.999Z</time></trkpt><trkpt lat="42.40221514978713" lon="11.12032174353018"><ele>353.0</ele><time>2026-04-25T08:30:38.999Z</time></trkpt><trkpt lat="42.402122606827525" lon="11.120310796165015"><ele>355.0</ele><time>2026-04-25T08:30:39.999Z</time></trkpt><trkpt lat="42.402052467252325" lon="11.120281416805005"><ele>357.0</ele><time>2026-04-25T08:30:40.999Z</time></trkpt><trkpt lat="42.40197169125302" lon="11.120231789710678"><ele>359.0</ele><time>2026-04-25T08:30:41.999Z</time></trkpt><trkpt lat="42.40188478920173" lon="11.120167602123498"><ele>361.0</ele><time>2026-04-25T08:30:42.999Z</time></trkpt><trkpt lat="42.40181904862235" lon="11.12009944612665"><ele>363.0</ele><time>2026-04-25T08:30:43.999Z</time></trkpt><trkpt lat="42.40173967536063" lon="11.120020562878068"><ele>363.0</ele><time>2026-04-25T08:30:45.999Z</time></trkpt><trkpt lat="42.40167677115246" lon="11.119990914673469"><ele>363.0</ele><time>2026-04-25T08:30:48.999Z</time></trkpt><trkpt lat="42.401623340527586" lon="11.120109035296721"><ele>363.0</ele><time>2026-04-25T08:31:07.998Z</time></trkpt><trkpt lat="42.40161139923592" lon="11.120200633668532"><ele>363.0</ele><time>2026-04-25T08:31:08.998Z</time></trkpt><trkpt lat="42.40158412792755" lon="11.120284147386656"><ele>363.0</ele><time>2026-04-25T08:31:09.998Z</time></trkpt><trkpt lat="42.401546632379656" lon="11.120388964853507"><ele>363.0</ele><time>2026-04-25T08:31:10.998Z</time></trkpt><trkpt lat="42.40147876805315" lon="11.120482707566397"><ele>363.0</ele><time>2026-04-25T08:31:11.998Z</time></trkpt><trkpt lat="42.40142563296059" lon="11.120573947208012"><ele>363.0</ele><time>2026-04-25T08:31:12.998Z</time></trkpt><trkpt lat="42.40137820405739" lon="11.120636834525104"><ele>363.0</ele><time>2026-04-25T08:31:13.998Z</time></trkpt><trkpt lat="42.401330961547465" lon="11.12076848337042"><ele>363.0</ele><time>2026-04-25T08:31:15.998Z</time></trkpt><trkpt lat="42.40130960867024" lon="11.120870170490843"><ele>363.0</ele><time>2026-04-25T08:31:16.998Z</time></trkpt><trkpt lat="42.40130583094927" lon="11.120990234826909"><ele>363.0</ele><time>2026-04-25T08:31:17.998Z</time></trkpt><trkpt lat="42.401297490655764" lon="11.12115797965456"><ele>359.5</ele><time>2026-04-25T08:31:18.998Z</time></trkpt><trkpt lat="42.40126557105658" lon="11.121310645643659"><ele>356.0</ele><time>2026-04-25T08:31:19.998Z</time></trkpt><trkpt lat="42.40124168340742" lon="11.121452841486303"><ele>352.5</ele><time>2026-04-25T08:31:20.998Z</time></trkpt><trkpt lat="42.40122895447857" lon="11.12162454135063"><ele>349.0</ele><time>2026-04-25T08:31:21.998Z</time></trkpt><trkpt lat="42.40120023641533" lon="11.121787443538528"><ele>348.6</ele><time>2026-04-25T08:31:22.999Z</time></trkpt><trkpt lat="42.40117504878721" lon="11.121945873979936"><ele>348.2</ele><time>2026-04-25T08:31:23.999Z</time></trkpt><trkpt lat="42.40114761843704" lon="11.122104745154408"><ele>347.8</ele><time>2026-04-25T08:31:24.999Z</time></trkpt><trkpt lat="42.40110733399508" lon="11.122233040523161"><ele>347.40000000000003</ele><time>2026-04-25T08:31:25.999Z</time></trkpt><trkpt lat="42.40110602693187" lon="11.122359489191377"><ele>347.0</ele><time>2026-04-25T08:31:26.999Z</time></trkpt><trkpt lat="42.40110414416418" lon="11.122478321174741"><ele>347.0</ele><time>2026-04-25T08:31:27.999Z</time></trkpt><trkpt lat="42.40112027724806" lon="11.122597703949456"><ele>347.0</ele><time>2026-04-25T08:31:28.999Z</time></trkpt><trkpt lat="42.40115930203546" lon="11.122690240787598"><ele>347.0</ele><time>2026-04-25T08:31:29.999Z</time></trkpt><trkpt lat="42.401211679307174" lon="11.122815266041483"><ele>347.0</ele><time>2026-04-25T08:31:30.999Z</time></trkpt><trkpt lat="42.401265276272056" lon="11.122954654063593"><ele>347.0</ele><time>2026-04-25T08:31:31.999Z</time></trkpt><trkpt lat="42.401305293735504" lon="11.123064275090874"><ele>349.1666666666667</ele><time>2026-04-25T08:31:32.999Z</time></trkpt><trkpt lat="42.401335570587975" lon="11.123183042656713"><ele>351.33333333333337</ele><time>2026-04-25T08:31:33.999Z</time></trkpt><trkpt lat="42.40135875808855" lon="11.12330805973532"><ele>353.5</ele><time>2026-04-25T08:31:34.999Z</time></trkpt><trkpt lat="42.40137165796078" lon="11.123435680611031"><ele>355.6666666666667</ele><time>2026-04-25T08:31:35.999Z</time></trkpt><trkpt lat="42.401399957245054" lon="11.123529843433412"><ele>357.8333333333333</ele><time>2026-04-25T08:31:36.999Z</time></trkpt><trkpt lat="42.401417554094316" lon="11.123628411603631"><ele>360.0</ele><time>2026-04-25T08:31:37.999Z</time></trkpt><trkpt lat="42.40143856003702" lon="11.12371972527115"><ele>360.0</ele><time>2026-04-25T08:31:38.999Z</time></trkpt><trkpt lat="42.401451945456216" lon="11.123803978759703"><ele>360.0</ele><time>2026-04-25T08:31:39.999Z</time></trkpt><trkpt lat="42.40142429600496" lon="11.12393070554475"><ele>360.0</ele><time>2026-04-25T08:31:41.999Z</time></trkpt><trkpt lat="42.40141997397249" lon="11.124102015667146"><ele>360.0</ele><time>2026-04-25T08:31:43.999Z</time></trkpt><trkpt lat="42.401415507696335" lon="11.124210740451282"><ele>360.0</ele><time>2026-04-25T08:31:44.999Z</time></trkpt><trkpt lat="42.40141924851708" lon="11.124341143809481"><ele>358.1666666666667</ele><time>2026-04-25T08:31:45.999Z</time></trkpt><trkpt lat="42.40142453431241" lon="11.124511103560943"><ele>356.3333333333333</ele><time>2026-04-25T08:31:47.999Z</time></trkpt><trkpt lat="42.401418389013045" lon="11.124601922025068"><ele>354.5</ele><time>2026-04-25T08:31:48.999Z</time></trkpt><trkpt lat="42.401402630838604" lon="11.12468723782568"><ele>352.66666666666663</ele><time>2026-04-25T08:31:49.999Z</time></trkpt><trkpt lat="42.40139897895854" lon="11.124797573635893"><ele>350.8333333333333</ele><time>2026-04-25T08:31:51.999Z</time></trkpt><trkpt lat="42.401375091140466" lon="11.124903362165583"><ele>349.0</ele><time>2026-04-25T08:31:53.999Z</time></trkpt><trkpt lat="42.40131428976979" lon="11.124979615938598"><ele>346.3333333333333</ele><time>2026-04-25T08:31:55.999Z</time></trkpt><trkpt lat="42.401240153328985" lon="11.125023797024673"><ele>343.66666666666663</ele><time>2026-04-25T08:31:56.999Z</time></trkpt><trkpt lat="42.401189265332796" lon="11.125103852316272"><ele>341.0</ele><time>2026-04-25T08:31:57.999Z</time></trkpt><trkpt lat="42.40112818092344" lon="11.1251778079544"><ele>338.3333333333333</ele><time>2026-04-25T08:31:58.999Z</time></trkpt><trkpt lat="42.40107031969526" lon="11.125272129012458"><ele>335.6666666666667</ele><time>2026-04-25T08:31:59.999Z</time></trkpt><trkpt lat="42.40101048265088" lon="11.125384115457287"><ele>333.0</ele><time>2026-04-25T08:32:00.999Z</time></trkpt><trkpt lat="42.40093780378436" lon="11.1255204461131"><ele>333.0</ele><time>2026-04-25T08:32:01.999Z</time></trkpt><trkpt lat="42.400839258068096" lon="11.125635593107928"><ele>333.0</ele><time>2026-04-25T08:32:02.999Z</time></trkpt><trkpt lat="42.40073966800246" lon="11.125756213481312"><ele>333.0</ele><time>2026-04-25T08:32:03.999Z</time></trkpt><trkpt lat="42.40065044552202" lon="11.125871886726323"><ele>333.0</ele><time>2026-04-25T08:32:04.999Z</time></trkpt><trkpt lat="42.40058726439618" lon="11.125989169166692"><ele>333.4</ele><time>2026-04-25T08:32:05.999Z</time></trkpt><trkpt lat="42.40052911772983" lon="11.12607691672791"><ele>333.79999999999995</ele><time>2026-04-25T08:32:06.999Z</time></trkpt><trkpt lat="42.40048669846199" lon="11.126200618364427"><ele>334.2</ele><time>2026-04-25T08:32:07.999Z</time></trkpt><trkpt lat="42.40045058369519" lon="11.126348219561567"><ele>334.6</ele><time>2026-04-25T08:32:08.999Z</time></trkpt><trkpt lat="42.40040176784818" lon="11.126449429496198"><ele>335.0</ele><time>2026-04-25T08:32:09.999Z</time></trkpt><trkpt lat="42.40037301398891" lon="11.126559322968607"><ele>333.6</ele><time>2026-04-25T08:32:10.999Z</time></trkpt><trkpt lat="42.40033312824715" lon="11.12666695772667"><ele>332.2</ele><time>2026-04-25T08:32:11.999Z</time></trkpt><trkpt lat="42.40025965977263" lon="11.126793992667855"><ele>330.79999999999995</ele><time>2026-04-25T08:32:12.999Z</time></trkpt><trkpt lat="42.40017973266765" lon="11.126914672316051"><ele>329.4</ele><time>2026-04-25T08:32:13.999Z</time></trkpt><trkpt lat="42.40011449575162" lon="11.126995887207638"><ele>328.0</ele><time>2026-04-25T08:32:14.999Z</time></trkpt><trkpt lat="42.40005506090881" lon="11.127062063998167"><ele>328.0</ele><time>2026-04-25T08:32:15.999Z</time></trkpt><trkpt lat="42.39994910216322" lon="11.127165182155219"><ele>328.0</ele><time>2026-04-25T08:32:17.999Z</time></trkpt><trkpt lat="42.39987127310087" lon="11.127220548755156"><ele>328.0</ele><time>2026-04-25T08:32:19.999Z</time></trkpt><trkpt lat="42.39979024385549" lon="11.127314333487199"><ele>328.0</ele><time>2026-04-25T08:32:21.999Z</time></trkpt><trkpt lat="42.39971620983797" lon="11.127385693867183"><ele>328.0</ele><time>2026-04-25T08:32:23.999Z</time></trkpt><trkpt lat="42.39965422034555" lon="11.127439988993459"><ele>324.5</ele><time>2026-04-25T08:32:24.999Z</time></trkpt><trkpt lat="42.399591278072094" lon="11.127498184342556"><ele>321.0</ele><time>2026-04-25T08:32:25.999Z</time></trkpt><trkpt lat="42.39952511358527" lon="11.127579994747125"><ele>317.5</ele><time>2026-04-25T08:32:26.999Z</time></trkpt><trkpt lat="42.39949492943733" lon="11.127658200821962"><ele>314.0</ele><time>2026-04-25T08:32:27.999Z</time></trkpt><trkpt lat="42.39945403620037" lon="11.127743883141509"><ele>310.5</ele><time>2026-04-25T08:32:28.999Z</time></trkpt><trkpt lat="42.39937367689907" lon="11.127840398636206"><ele>307.0</ele><time>2026-04-25T08:32:30.999Z</time></trkpt><trkpt lat="42.39930492135559" lon="11.127944346147077"><ele>307.0</ele><time>2026-04-25T08:32:32.999Z</time></trkpt><trkpt lat="42.39925366008499" lon="11.128008970124977"><ele>307.0</ele><time>2026-04-25T08:32:33.999Z</time></trkpt><trkpt lat="42.39918890954218" lon="11.128130287442518"><ele>307.0</ele><time>2026-04-25T08:32:35.999Z</time></trkpt><trkpt lat="42.39912364049551" lon="11.128274362499713"><ele>307.0</ele><time>2026-04-25T08:32:37.999Z</time></trkpt><trkpt lat="42.3990611616272" lon="11.128379730415956"><ele>307.0</ele><time>2026-04-25T08:32:39.999Z</time></trkpt><trkpt lat="42.3990235287526" lon="11.128494601595898"><ele>307.0</ele><time>2026-04-25T08:32:41.999Z</time></trkpt><trkpt lat="42.39896648559173" lon="11.128635207568015"><ele>307.0</ele><time>2026-04-25T08:32:43.999Z</time></trkpt><trkpt lat="42.39895450691307" lon="11.128719288460447"><ele>307.0</ele><time>2026-04-25T08:32:44.999Z</time></trkpt><trkpt lat="42.39895614097558" lon="11.128876711213413"><ele>307.0</ele><time>2026-04-25T08:32:46.999Z</time></trkpt><trkpt lat="42.398965978868326" lon="11.128968668096855"><ele>307.0</ele><time>2026-04-25T08:32:47.999Z</time></trkpt><trkpt lat="42.398981719299535" lon="11.129074893155869"><ele>307.0</ele><time>2026-04-25T08:32:49.999Z</time></trkpt><trkpt lat="42.3990097959292" lon="11.129189631494395"><ele>305.6</ele><time>2026-04-25T08:32:51.999Z</time></trkpt><trkpt lat="42.3990374463956" lon="11.129268800923306"><ele>304.2</ele><time>2026-04-25T08:32:52.999Z</time></trkpt><trkpt lat="42.39907718519103" lon="11.12935484426091"><ele>302.8</ele><time>2026-04-25T08:32:53.999Z</time></trkpt><trkpt lat="42.39913855998274" lon="11.129445970833375"><ele>301.4</ele><time>2026-04-25T08:32:55.999Z</time></trkpt><trkpt lat="42.39925340873005" lon="11.129512272997149"><ele>300.0</ele><time>2026-04-25T08:32:58.999Z</time></trkpt><trkpt lat="42.399342590407905" lon="11.129615349947649"><ele>300.0</ele><time>2026-04-25T08:33:00.999Z</time></trkpt><trkpt lat="42.39942590624121" lon="11.129662677471444"><ele>300.0</ele><time>2026-04-25T08:33:02.999Z</time></trkpt><trkpt lat="42.39950519723935" lon="11.129670274564372"><ele>300.0</ele><time>2026-04-25T08:33:04.999Z</time></trkpt><trkpt lat="42.39960076929521" lon="11.129688293839905"><ele>300.0</ele><time>2026-04-25T08:33:06.998Z</time></trkpt><trkpt lat="42.39966693518634" lon="11.129684066875235"><ele>300.0</ele><time>2026-04-25T08:33:08.998Z</time></trkpt><trkpt lat="42.399720679439376" lon="11.129745152957442"><ele>300.0</ele><time>2026-04-25T08:33:11.998Z</time></trkpt><trkpt lat="42.39981338328962" lon="11.1297047102085"><ele>299.1666666666667</ele><time>2026-04-25T08:33:20.998Z</time></trkpt><trkpt lat="42.39987010893807" lon="11.129663210803932"><ele>298.3333333333333</ele><time>2026-04-25T08:33:21.998Z</time></trkpt><trkpt lat="42.399945512707056" lon="11.129608046973264"><ele>297.5</ele><time>2026-04-25T08:33:22.998Z</time></trkpt><trkpt lat="42.40001407011549" lon="11.129556489854929"><ele>296.66666666666663</ele><time>2026-04-25T08:33:23.998Z</time></trkpt><trkpt lat="42.40008271473039" lon="11.129504807164558"><ele>295.8333333333333</ele><time>2026-04-25T08:33:24.998Z</time></trkpt><trkpt lat="42.400147503314436" lon="11.129456027621153"><ele>295.0</ele><time>2026-04-25T08:33:25.998Z</time></trkpt><trkpt lat="42.400213473926875" lon="11.129406358157707"><ele>295.0</ele><time>2026-04-25T08:33:26.998Z</time></trkpt><trkpt lat="42.400288975447374" lon="11.129347703677432"><ele>295.0</ele><time>2026-04-25T08:33:28.999Z</time></trkpt><trkpt lat="42.40035769515539" lon="11.129290755133036"><ele>295.0</ele><time>2026-04-25T08:33:30.999Z</time></trkpt><trkpt lat="42.40042181295571" lon="11.129230972864663"><ele>295.0</ele><time>2026-04-25T08:33:32.999Z</time></trkpt><trkpt lat="42.400501154208584" lon="11.129161594573429"><ele>295.0</ele><time>2026-04-25T08:33:35.999Z</time></trkpt><trkpt lat="42.40058243230454" lon="11.129104941300355"><ele>295.0</ele><time>2026-04-25T08:33:37.999Z</time></trkpt><trkpt lat="42.40068589557797" lon="11.129044437924742"><ele>296.0</ele><time>2026-04-25T08:33:39.999Z</time></trkpt><trkpt lat="42.400774742194194" lon="11.12899246581384"><ele>297.0</ele><time>2026-04-25T08:33:41.999Z</time></trkpt><trkpt lat="42.400849813280495" lon="11.128935862487763"><ele>298.0</ele><time>2026-04-25T08:33:44.999Z</time></trkpt><trkpt lat="42.40069019513747" lon="11.129027435148672"><ele>299.0</ele><time>2026-04-25T08:34:07.999Z</time></trkpt><trkpt lat="42.400628897990856" lon="11.129062669182984"><ele>300.0</ele><time>2026-04-25T08:34:08.999Z</time></trkpt><trkpt lat="42.400517059689705" lon="11.129136350824322"><ele>299.1666666666667</ele><time>2026-04-25T08:34:10.999Z</time></trkpt><trkpt lat="42.40044271728637" lon="11.129194249904193"><ele>298.3333333333333</ele><time>2026-04-25T08:34:11.999Z</time></trkpt><trkpt lat="42.40036916068853" lon="11.129251406959748"><ele>297.5</ele><time>2026-04-25T08:34:12.999Z</time></trkpt><trkpt lat="42.40029227613368" lon="11.129318245660544"><ele>296.66666666666663</ele><time>2026-04-25T08:34:13.999Z</time></trkpt><trkpt lat="42.40020688396559" lon="11.129359856389012"><ele>295.8333333333333</ele><time>2026-04-25T08:34:14.999Z</time></trkpt><trkpt lat="42.40012854843942" lon="11.129418835466337"><ele>295.0</ele><time>2026-04-25T08:34:15.999Z</time></trkpt><trkpt lat="42.4000568797458" lon="11.129472795157943"><ele>295.0</ele><time>2026-04-25T08:34:16.999Z</time></trkpt><trkpt lat="42.39998156685797" lon="11.129540418548055"><ele>295.0</ele><time>2026-04-25T08:34:17.999Z</time></trkpt><trkpt lat="42.39989874066524" lon="11.129613312985297"><ele>295.0</ele><time>2026-04-25T08:34:18.999Z</time></trkpt><trkpt lat="42.39979117301717" lon="11.129669837688958"><ele>295.0</ele><time>2026-04-25T08:34:19.999Z</time></trkpt><trkpt lat="42.39959645134932" lon="11.129803756944574"><ele>296.0</ele><time>2026-04-25T08:34:21.999Z</time></trkpt><trkpt lat="42.39948599063861" lon="11.129869845799266"><ele>297.0</ele><time>2026-04-25T08:34:22.999Z</time></trkpt><trkpt lat="42.39939028905542" lon="11.12993544161511"><ele>298.0</ele><time>2026-04-25T08:34:23.999Z</time></trkpt><trkpt lat="42.39930672727353" lon="11.129993477445655"><ele>299.0</ele><time>2026-04-25T08:34:24.999Z</time></trkpt><trkpt lat="42.39922826046621" lon="11.13004797468469"><ele>300.0</ele><time>2026-04-25T08:34:25.999Z</time></trkpt><trkpt lat="42.39915437383751" lon="11.130099242210598"><ele>297.3333333333333</ele><time>2026-04-25T08:34:26.999Z</time></trkpt><trkpt lat="42.3990829241797" lon="11.130152882227556"><ele>294.6666666666667</ele><time>2026-04-25T08:34:27.999Z</time></trkpt><trkpt lat="42.39902762619323" lon="11.130218319069611"><ele>292.0</ele><time>2026-04-25T08:34:28.999Z</time></trkpt><trkpt lat="42.398964145655235" lon="11.130233432011515"><ele>289.33333333333337</ele><time>2026-04-25T08:34:29.999Z</time></trkpt><trkpt lat="42.39889439806341" lon="11.130264219825046"><ele>286.6666666666667</ele><time>2026-04-25T08:34:30.999Z</time></trkpt><trkpt lat="42.39876893491641" lon="11.130248646432856"><ele>284.0</ele><time>2026-04-25T08:34:32.999Z</time></trkpt><trkpt lat="42.39868574706294" lon="11.130239829975642"><ele>282.2</ele><time>2026-04-25T08:34:33.999Z</time></trkpt><trkpt lat="42.39860497953595" lon="11.130256744516151"><ele>280.4</ele><time>2026-04-25T08:34:34.999Z</time></trkpt><trkpt lat="42.39849601773032" lon="11.130271032407341"><ele>278.6</ele><time>2026-04-25T08:34:35.999Z</time></trkpt><trkpt lat="42.39836771850486" lon="11.130297348315493"><ele>276.8</ele><time>2026-04-25T08:34:36.999Z</time></trkpt><trkpt lat="42.398247278629434" lon="11.13032260188175"><ele>275.0</ele><time>2026-04-25T08:34:37.999Z</time></trkpt><trkpt lat="42.398141273437965" lon="11.130329973732692"><ele>275.0</ele><time>2026-04-25T08:34:38.999Z</time></trkpt><trkpt lat="42.39802842621361" lon="11.130325961745703"><ele>275.0</ele><time>2026-04-25T08:34:39.999Z</time></trkpt><trkpt lat="42.3979135190527" lon="11.130310239923794"><ele>275.0</ele><time>2026-04-25T08:34:40.999Z</time></trkpt><trkpt lat="42.39779992124012" lon="11.130283958062938"><ele>275.0</ele><time>2026-04-25T08:34:41.999Z</time></trkpt><trkpt lat="42.39770641319232" lon="11.130265801106951"><ele>275.0</ele><time>2026-04-25T08:34:42.999Z</time></trkpt><trkpt lat="42.3976034871645" lon="11.130282916243237"><ele>274.2</ele><time>2026-04-25T08:34:43.999Z</time></trkpt><trkpt lat="42.39751289865016" lon="11.130347315861242"><ele>273.4</ele><time>2026-04-25T08:34:44.999Z</time></trkpt><trkpt lat="42.39741488578512" lon="11.13043087850666"><ele>272.6</ele><time>2026-04-25T08:34:45.999Z</time></trkpt><trkpt lat="42.39732185813208" lon="11.130520227569791"><ele>271.8</ele><time>2026-04-25T08:34:46.999Z</time></trkpt><trkpt lat="42.397223828595266" lon="11.130584637541538"><ele>271.0</ele><time>2026-04-25T08:34:47.999Z</time></trkpt><trkpt lat="42.39714081806371" lon="11.130629827767565"><ele>271.0</ele><time>2026-04-25T08:34:48.999Z</time></trkpt><trkpt lat="42.39704736373386" lon="11.1306588865728"><ele>271.0</ele><time>2026-04-25T08:34:49.999Z</time></trkpt><trkpt lat="42.39694756398365" lon="11.130688365526375"><ele>271.0</ele><time>2026-04-25T08:34:50.999Z</time></trkpt><trkpt lat="42.39686798245433" lon="11.13071373279526"><ele>271.0</ele><time>2026-04-25T08:34:51.999Z</time></trkpt><trkpt lat="42.39679917381239" lon="11.130739697876653"><ele>271.0</ele><time>2026-04-25T08:34:52.999Z</time></trkpt><trkpt lat="42.39671388806096" lon="11.130790087944309"><ele>271.0</ele><time>2026-04-25T08:34:54.999Z</time></trkpt><trkpt lat="42.396641579026664" lon="11.130835281000056"><ele>269.8</ele><time>2026-04-25T08:34:57.999Z</time></trkpt><trkpt lat="42.396578474919224" lon="11.130791355308034"><ele>268.6</ele><time>2026-04-25T08:34:58.999Z</time></trkpt><trkpt lat="42.39647251915642" lon="11.130829311002778"><ele>267.4</ele><time>2026-04-25T08:35:00.999Z</time></trkpt><trkpt lat="42.39640286845359" lon="11.130853960563652"><ele>266.2</ele><time>2026-04-25T08:35:01.999Z</time></trkpt><trkpt lat="42.39630318748785" lon="11.130802619095107"><ele>265.0</ele><time>2026-04-25T08:35:03.999Z</time></trkpt><trkpt lat="42.39618713643723" lon="11.130883122236702"><ele>265.0</ele><time>2026-04-25T08:35:05.999Z</time></trkpt><trkpt lat="42.39612927331709" lon="11.13092220712849"><ele>265.0</ele><time>2026-04-25T08:35:06.999Z</time></trkpt><trkpt lat="42.39605429669119" lon="11.130996070629871"><ele>265.0</ele><time>2026-04-25T08:35:07.999Z</time></trkpt><trkpt lat="42.396006026608156" lon="11.131073613621547"><ele>265.0</ele><time>2026-04-25T08:35:08.999Z</time></trkpt><trkpt lat="42.395954898894935" lon="11.13116295273677"><ele>265.0</ele><time>2026-04-25T08:35:09.999Z</time></trkpt><trkpt lat="42.39590142789281" lon="11.131270506721018"><ele>265.0</ele><time>2026-04-25T08:35:10.999Z</time></trkpt><trkpt lat="42.395851233358954" lon="11.131389573558705"><ele>265.0</ele><time>2026-04-25T08:35:11.998Z</time></trkpt><trkpt lat="42.395806283173854" lon="11.131512669221555"><ele>265.0</ele><time>2026-04-25T08:35:12.998Z</time></trkpt><trkpt lat="42.39576801630188" lon="11.131653143584064"><ele>265.0</ele><time>2026-04-25T08:35:13.998Z</time></trkpt><trkpt lat="42.3957448549587" lon="11.131780327714823"><ele>265.0</ele><time>2026-04-25T08:35:14.998Z</time></trkpt><trkpt lat="42.39570982300776" lon="11.131882936609493"><ele>265.0</ele><time>2026-04-25T08:35:15.998Z</time></trkpt><trkpt lat="42.39568709597528" lon="11.132003261254962"><ele>264.5</ele><time>2026-04-25T08:35:16.998Z</time></trkpt><trkpt lat="42.395660364820046" lon="11.132127449941137"><ele>264.0</ele><time>2026-04-25T08:35:17.998Z</time></trkpt><trkpt lat="42.39562950652971" lon="11.132254804980253"><ele>263.5</ele><time>2026-04-25T08:35:18.998Z</time></trkpt><trkpt lat="42.39560074375522" lon="11.132374544273778"><ele>263.0</ele><time>2026-04-25T08:35:19.998Z</time></trkpt><trkpt lat="42.39555202552073" lon="11.132465993709571"><ele>262.5</ele><time>2026-04-25T08:35:20.998Z</time></trkpt><trkpt lat="42.39550869063593" lon="11.132553138113979"><ele>262.0</ele><time>2026-04-25T08:35:21.998Z</time></trkpt><trkpt lat="42.39544541870916" lon="11.13262095581501"><ele>264.0</ele><time>2026-04-25T08:35:22.998Z</time></trkpt><trkpt lat="42.395353226223115" lon="11.132694995185963"><ele>266.0</ele><time>2026-04-25T08:35:24.998Z</time></trkpt><trkpt lat="42.395309764460414" lon="11.132630923218324"><ele>268.0</ele><time>2026-04-25T08:35:25.998Z</time></trkpt><trkpt lat="42.395261252332716" lon="11.132561080207354"><ele>270.0</ele><time>2026-04-25T08:35:27.998Z</time></trkpt><trkpt lat="42.39512511639794" lon="11.132591031657794"><ele>272.0</ele><time>2026-04-25T08:35:29.998Z</time></trkpt><trkpt lat="42.395055416219805" lon="11.132599946729657"><ele>272.0</ele><time>2026-04-25T08:35:30.998Z</time></trkpt><trkpt lat="42.394988328496154" lon="11.132612462954006"><ele>272.0</ele><time>2026-04-25T08:35:31.998Z</time></trkpt><trkpt lat="42.394919540911744" lon="11.133094697821356"><ele>272.0</ele><time>2026-04-25T08:35:32.998Z</time></trkpt><trkpt lat="42.39486469093901" lon="11.133161967725044"><ele>272.0</ele><time>2026-04-25T08:35:33.999Z</time></trkpt><trkpt lat="42.39481446754837" lon="11.133277009701894"><ele>272.0</ele><time>2026-04-25T08:35:35.999Z</time></trkpt><trkpt lat="42.394719308979134" lon="11.13332142503052"><ele>272.0</ele><time>2026-04-25T08:35:38.999Z</time></trkpt><trkpt lat="42.394648422176864" lon="11.133346220013886"><ele>272.0</ele><time>2026-04-25T08:35:39.999Z</time></trkpt><trkpt lat="42.394580820160456" lon="11.133375095434815"><ele>272.0</ele><time>2026-04-25T08:35:40.999Z</time></trkpt><trkpt lat="42.39450267006425" lon="11.133382860462884"><ele>272.0</ele><time>2026-04-25T08:35:42.999Z</time></trkpt><trkpt lat="42.3944313920685" lon="11.133376826499703"><ele>272.0</ele><time>2026-04-25T08:36:01.999Z</time></trkpt><trkpt lat="42.39435589306184" lon="11.133423850987507"><ele>272.0</ele><time>2026-04-25T08:36:05.999Z</time></trkpt><trkpt lat="42.39428830650117" lon="11.133465988036889"><ele>272.0</ele><time>2026-04-25T08:36:08.999Z</time></trkpt><trkpt lat="42.394222033808745" lon="11.133458154284305"><ele>272.0</ele><time>2026-04-25T08:36:11.999Z</time></trkpt><trkpt lat="42.39415271163602" lon="11.133481750366247"><ele>272.0</ele><time>2026-04-25T08:36:13.999Z</time></trkpt><trkpt lat="42.39408332135196" lon="11.133554946094156"><ele>272.0</ele><time>2026-04-25T08:36:15.999Z</time></trkpt><trkpt lat="42.394009027664545" lon="11.133623774792445"><ele>271.99999999999994</ele><time>2026-04-25T08:36:17.999Z</time></trkpt><trkpt lat="42.393954746133076" lon="11.133695784583589"><ele>272.0</ele><time>2026-04-25T08:36:19.999Z</time></trkpt><trkpt lat="42.39390319842196" lon="11.13375836368123"><ele>272.0</ele><time>2026-04-25T08:36:21.999Z</time></trkpt><trkpt lat="42.393869584760424" lon="11.1338425752017"><ele>272.0</ele><time>2026-04-25T08:36:31.999Z</time></trkpt><trkpt lat="42.39382035374881" lon="11.133912200269393"><ele>272.0</ele><time>2026-04-25T08:36:36.999Z</time></trkpt><trkpt lat="42.39376252017384" lon="11.13395626192846"><ele>271.99999999999994</ele><time>2026-04-25T08:36:41.999Z</time></trkpt><trkpt lat="42.39368366532983" lon="11.133984156253309"><ele>272.0</ele><time>2026-04-25T08:38:54.999Z</time></trkpt><trkpt lat="42.39362259032329" lon="11.134048180145689"><ele>272.33333333333337</ele><time>2026-04-25T08:38:58.999Z</time></trkpt><trkpt lat="42.39356971812728" lon="11.1341058561353"><ele>272.6666666666667</ele><time>2026-04-25T08:39:18.999Z</time></trkpt><trkpt lat="42.39352624936225" lon="11.134167882569754"><ele>273.0</ele><time>2026-04-25T08:39:21.999Z</time></trkpt><trkpt lat="42.39347942242458" lon="11.134246076979704"><ele>273.3333333333333</ele><time>2026-04-25T08:39:27.999Z</time></trkpt><trkpt lat="42.393425367374675" lon="11.134335995981928"><ele>273.66666666666663</ele><time>2026-04-25T08:39:30.999Z</time></trkpt><trkpt lat="42.39337143637287" lon="11.134465638128153"><ele>274.0</ele><time>2026-04-25T08:39:33.999Z</time></trkpt><trkpt lat="42.393312344331676" lon="11.13454296089587"><ele>274.00000000000006</ele><time>2026-04-25T08:39:36.998Z</time></trkpt><trkpt lat="42.393254694478394" lon="11.134636470765797"><ele>274.0</ele><time>2026-04-25T08:39:39.998Z</time></trkpt><trkpt lat="42.39319499028469" lon="11.134692957109158"><ele>274.0</ele><time>2026-04-25T08:39:42.998Z</time></trkpt><trkpt lat="42.39314597982548" lon="11.13475510461271"><ele>274.0</ele><time>2026-04-25T08:39:50Z</time></trkpt><trkpt lat="42.393096528325295" lon="11.134808509406993"><ele>274.0</ele><time>2026-04-25T08:39:54Z</time></trkpt><trkpt lat="42.39305209089729" lon="11.13487366034164"><ele>274.00000000000006</ele><time>2026-04-25T08:39:58Z</time></trkpt><trkpt lat="42.39299368687419" lon="11.134958620242767"><ele>274.0</ele><time>2026-04-25T08:40:03Z</time></trkpt><trkpt lat="42.392935370840995" lon="11.13504516969004"><ele>272.5714285714286</ele><time>2026-04-25T08:40:07Z</time></trkpt><trkpt lat="42.392876643778465" lon="11.135100573465921"><ele>271.14285714285717</ele><time>2026-04-25T08:40:10Z</time></trkpt><trkpt lat="42.3928065120938" lon="11.13512075987908"><ele>269.7142857142857</ele><time>2026-04-25T08:40:13Z</time></trkpt><trkpt lat="42.392749187035875" lon="11.135177642721619"><ele>268.28571428571433</ele><time>2026-04-25T08:40:15Z</time></trkpt><trkpt lat="42.39268988380968" lon="11.135231365324895"><ele>266.8571428571429</ele><time>2026-04-25T08:40:18Z</time></trkpt><trkpt lat="42.392644580832126" lon="11.13529474930349"><ele>265.42857142857144</ele><time>2026-04-25T08:40:20Z</time></trkpt><trkpt lat="42.39257898630947" lon="11.135361104010471"><ele>264.0</ele><time>2026-04-25T08:40:23Z</time></trkpt><trkpt lat="42.39252971653611" lon="11.135444954370211"><ele>264.0</ele><time>2026-04-25T08:40:25.999Z</time></trkpt><trkpt lat="42.39245679960265" lon="11.13549567674316"><ele>264.0</ele><time>2026-04-25T08:40:28.999Z</time></trkpt><trkpt lat="42.39241346286136" lon="11.135560189432152"><ele>264.0</ele><time>2026-04-25T08:40:30.999Z</time></trkpt><trkpt lat="42.392336459715004" lon="11.135616098024691"><ele>264.0</ele><time>2026-04-25T08:40:33.999Z</time></trkpt><trkpt lat="42.392281988314785" lon="11.135665384576829"><ele>264.0</ele><time>2026-04-25T08:40:35.999Z</time></trkpt><trkpt lat="42.392241317545896" lon="11.135731165270295"><ele>264.0</ele><time>2026-04-25T08:40:38.999Z</time></trkpt><trkpt lat="42.39217889202128" lon="11.135786871474762"><ele>264.0</ele><time>2026-04-25T08:40:41.999Z</time></trkpt><trkpt lat="42.39210115673926" lon="11.135847771831656"><ele>261.0</ele><time>2026-04-25T08:40:44.999Z</time></trkpt><trkpt lat="42.39203932122958" lon="11.135906808573008"><ele>258.0</ele><time>2026-04-25T08:40:47.999Z</time></trkpt><trkpt lat="42.39197737594126" lon="11.135944510683915"><ele>255.0</ele><time>2026-04-25T08:40:51.999Z</time></trkpt><trkpt lat="42.39191166846419" lon="11.135975969983994"><ele>252.0</ele><time>2026-04-25T08:40:54.999Z</time></trkpt><trkpt lat="42.39184565811618" lon="11.136026153742643"><ele>249.0</ele><time>2026-04-25T08:40:57.999Z</time></trkpt><trkpt lat="42.39176213642349" lon="11.136052651441814"><ele>246.0</ele><time>2026-04-25T08:41:02.999Z</time></trkpt><trkpt lat="42.3916917871484" lon="11.136086126388491"><ele>243.0</ele><time>2026-04-25T08:41:05.999Z</time></trkpt><trkpt lat="42.39160772542036" lon="11.136112613583185"><ele>243.0</ele><time>2026-04-25T08:41:08.999Z</time></trkpt><trkpt lat="42.39152980360622" lon="11.136112833083562"><ele>243.0</ele><time>2026-04-25T08:41:11.999Z</time></trkpt><trkpt lat="42.39145538064811" lon="11.136111617297894"><ele>243.0</ele><time>2026-04-25T08:41:14.999Z</time></trkpt><trkpt lat="42.391371528841226" lon="11.136118940128844"><ele>243.0</ele><time>2026-04-25T08:41:17.999Z</time></trkpt><trkpt lat="42.391308026811714" lon="11.136131947217907"><ele>243.0</ele><time>2026-04-25T08:41:19.999Z</time></trkpt><trkpt lat="42.391229792599795" lon="11.136160366639906"><ele>243.0</ele><time>2026-04-25T08:41:23.999Z</time></trkpt><trkpt lat="42.391161723167734" lon="11.1361944058198"><ele>240.83333333333334</ele><time>2026-04-25T08:41:26.999Z</time></trkpt><trkpt lat="42.39107477777305" lon="11.136192499540224"><ele>238.66666666666669</ele><time>2026-04-25T08:41:29.999Z</time></trkpt><trkpt lat="42.390993171692365" lon="11.136227468503966"><ele>236.5</ele><time>2026-04-25T08:41:32.999Z</time></trkpt><trkpt lat="42.390919254104325" lon="11.136232746434317"><ele>234.33333333333334</ele><time>2026-04-25T08:41:35.999Z</time></trkpt><trkpt lat="42.3908637633179" lon="11.136276351504613"><ele>232.16666666666669</ele><time>2026-04-25T08:41:38.999Z</time></trkpt><trkpt lat="42.390800891039454" lon="11.136288043434643"><ele>230.0</ele><time>2026-04-25T08:41:41.999Z</time></trkpt><trkpt lat="42.39073057882944" lon="11.136326923260928"><ele>230.00000000000003</ele><time>2026-04-25T08:41:44.999Z</time></trkpt><trkpt lat="42.390663363037774" lon="11.136410125786826"><ele>230.0</ele><time>2026-04-25T08:41:48.999Z</time></trkpt><trkpt lat="42.39061886903946" lon="11.136485061369214"><ele>230.0</ele><time>2026-04-25T08:41:52Z</time></trkpt><trkpt lat="42.390581476799476" lon="11.136556023472632"><ele>230.0</ele><time>2026-04-25T08:41:55Z</time></trkpt><trkpt lat="42.39051684601982" lon="11.136620203708622"><ele>230.00000000000003</ele><time>2026-04-25T08:41:58Z</time></trkpt><trkpt lat="42.390453399568216" lon="11.136716631860354"><ele>230.0</ele><time>2026-04-25T08:42:01Z</time></trkpt><trkpt lat="42.39040853586263" lon="11.136780452850983"><ele>225.57142857142853</ele><time>2026-04-25T08:42:11Z</time></trkpt><trkpt lat="42.39035412549656" lon="11.13683527115386"><ele>221.14285714285714</ele><time>2026-04-25T08:42:14Z</time></trkpt><trkpt lat="42.39027671761393" lon="11.13687127586536"><ele>216.7142857142857</ele><time>2026-04-25T08:42:17Z</time></trkpt><trkpt lat="42.39021190794696" lon="11.136876706800239"><ele>212.28571428571428</ele><time>2026-04-25T08:42:20Z</time></trkpt><trkpt lat="42.390168262715115" lon="11.1369595441125"><ele>207.85714285714283</ele><time>2026-04-25T08:42:25Z</time></trkpt><trkpt lat="42.3901791228593" lon="11.137077010041423"><ele>203.42857142857142</ele><time>2026-04-25T08:42:45.999Z</time></trkpt><trkpt lat="42.390120592277675" lon="11.137118626730796"><ele>199.0</ele><time>2026-04-25T08:43:02.999Z</time></trkpt><trkpt lat="42.39003156257184" lon="11.137121614801464"><ele>198.99999999999997</ele><time>2026-04-25T08:43:04.999Z</time></trkpt><trkpt lat="42.389967208327676" lon="11.137050561335665"><ele>199.0</ele><time>2026-04-25T08:43:11.999Z</time></trkpt><trkpt lat="42.389889683716035" lon="11.13705925889641"><ele>199.0</ele><time>2026-04-25T08:43:16.999Z</time></trkpt><trkpt lat="42.389838060239825" lon="11.137119628918294"><ele>199.0</ele><time>2026-04-25T08:43:20.999Z</time></trkpt><trkpt lat="42.38976913870879" lon="11.13712050323989"><ele>198.99999999999997</ele><time>2026-04-25T08:43:33.999Z</time></trkpt><trkpt lat="42.38973869399352" lon="11.137196511679113"><ele>199.0</ele><time>2026-04-25T08:43:36.999Z</time></trkpt><trkpt lat="42.38965396592167" lon="11.137245683920064"><ele>194.83333333333331</ele><time>2026-04-25T08:43:40.999Z</time></trkpt><trkpt lat="42.38959169881141" lon="11.137269699601397"><ele>190.66666666666666</ele><time>2026-04-25T08:43:43.999Z</time></trkpt><trkpt lat="42.38951044031384" lon="11.13733154013225"><ele>186.5</ele><time>2026-04-25T08:43:46.999Z</time></trkpt><trkpt lat="42.38942219931161" lon="11.13738858969728"><ele>182.33333333333331</ele><time>2026-04-25T08:47:01.999Z</time></trkpt><trkpt lat="42.38935912798229" lon="11.137460400093152"><ele>178.16666666666666</ele><time>2026-04-25T08:47:05.999Z</time></trkpt><trkpt lat="42.389289844003166" lon="11.137524159777305"><ele>174.0</ele><time>2026-04-25T08:47:08.999Z</time></trkpt><trkpt lat="42.38921989118803" lon="11.137575737331577"><ele>174.0</ele><time>2026-04-25T08:47:10.999Z</time></trkpt><trkpt lat="42.38915964039659" lon="11.137629348493883"><ele>174.0</ele><time>2026-04-25T08:47:12.999Z</time></trkpt><trkpt lat="42.389124251174614" lon="11.137710812645578"><ele>174.0</ele><time>2026-04-25T08:47:15.999Z</time></trkpt><trkpt lat="42.38911901631367" lon="11.137796483462775"><ele>174.0</ele><time>2026-04-25T08:47:18.999Z</time></trkpt><trkpt lat="42.38908505824535" lon="11.137897080938053"><ele>174.0</ele><time>2026-04-25T08:47:22.999Z</time></trkpt><trkpt lat="42.38906646261873" lon="11.13798377636362"><ele>174.0</ele><time>2026-04-25T08:47:26.999Z</time></trkpt><trkpt lat="42.38902790041815" lon="11.138085370031497"><ele>174.0</ele><time>2026-04-25T08:47:39.999Z</time></trkpt><trkpt lat="42.38902749233943" lon="11.138178026291008"><ele>174.5</ele><time>2026-04-25T08:47:42.999Z</time></trkpt><trkpt lat="42.388965819225696" lon="11.138248688310929"><ele>175.0</ele><time>2026-04-25T08:47:45.999Z</time></trkpt><trkpt lat="42.388895851829155" lon="11.138326260944623"><ele>175.5</ele><time>2026-04-25T08:47:48.999Z</time></trkpt><trkpt lat="42.388845352843774" lon="11.138407293815051"><ele>176.0</ele><time>2026-04-25T08:47:51.999Z</time></trkpt><trkpt lat="42.38878320210136" lon="11.138475010580967"><ele>176.5</ele><time>2026-04-25T08:47:54.999Z</time></trkpt><trkpt lat="42.388721908663825" lon="11.13851006558797"><ele>177.0</ele><time>2026-04-25T08:47:56.999Z</time></trkpt><trkpt lat="42.38865324631211" lon="11.138556161619984"><ele>172.85714285714286</ele><time>2026-04-25T08:47:58.999Z</time></trkpt><trkpt lat="42.388583061559395" lon="11.138568978280729"><ele>168.7142857142857</ele><time>2026-04-25T08:48:01.999Z</time></trkpt><trkpt lat="42.388504188316546" lon="11.138572431781107"><ele>164.57142857142856</ele><time>2026-04-25T08:48:05.998Z</time></trkpt><trkpt lat="42.38843487543496" lon="11.138540158417863"><ele>160.42857142857144</ele><time>2026-04-25T08:48:09Z</time></trkpt><trkpt lat="42.388375456603946" lon="11.138580951463743"><ele>156.28571428571428</ele><time>2026-04-25T08:48:13Z</time></trkpt><trkpt lat="42.38831070027393" lon="11.138585709668698"><ele>152.14285714285714</ele><time>2026-04-25T08:48:28Z</time></trkpt><trkpt lat="42.3882327974582" lon="11.138633986930317"><ele>148.0</ele><time>2026-04-25T08:48:34Z</time></trkpt><trkpt lat="42.38814747612459" lon="11.138626155471181"><ele>148.0</ele><time>2026-04-25T08:48:38Z</time></trkpt><trkpt lat="42.3881050932306" lon="11.138534154154426"><ele>148.0</ele><time>2026-04-25T08:48:42Z</time></trkpt><trkpt lat="42.38804144331805" lon="11.138536533567343"><ele>148.0</ele><time>2026-04-25T08:48:44Z</time></trkpt><trkpt lat="42.38795507472395" lon="11.138511240162186"><ele>148.0</ele><time>2026-04-25T08:48:46.999Z</time></trkpt><trkpt lat="42.38786871296899" lon="11.138498963012566"><ele>148.0</ele><time>2026-04-25T08:48:48.999Z</time></trkpt><trkpt lat="42.3878130648004" lon="11.138551831147447"><ele>148.0</ele><time>2026-04-25T08:48:50.999Z</time></trkpt><trkpt lat="42.38771691468284" lon="11.13857414885563"><ele>144.0</ele><time>2026-04-25T08:49:04.999Z</time></trkpt><trkpt lat="42.38761442056464" lon="11.138619129791909"><ele>140.0</ele><time>2026-04-25T08:49:06.999Z</time></trkpt><trkpt lat="42.387518542983116" lon="11.138627888931712"><ele>136.0</ele><time>2026-04-25T08:49:08.999Z</time></trkpt><trkpt lat="42.3874208794387" lon="11.138663444208598"><ele>132.0</ele><time>2026-04-25T08:49:10.999Z</time></trkpt><trkpt lat="42.38735223072985" lon="11.138677600353798"><ele>128.0</ele><time>2026-04-25T08:49:11.999Z</time></trkpt><trkpt lat="42.38725025081673" lon="11.138702732855348"><ele>125.49999999999999</ele><time>2026-04-25T08:49:13.999Z</time></trkpt><trkpt lat="42.38712940398371" lon="11.138775936976275"><ele>123.0</ele><time>2026-04-25T08:49:15.999Z</time></trkpt><trkpt lat="42.38706438522627" lon="11.138798439694314"><ele>120.5</ele><time>2026-04-25T08:49:16.999Z</time></trkpt><trkpt lat="42.387001202560334" lon="11.138806670316997"><ele>118.0</ele><time>2026-04-25T08:49:17.999Z</time></trkpt><trkpt lat="42.386920439621385" lon="11.138820206286008"><ele>115.49999999999999</ele><time>2026-04-25T08:49:18.999Z</time></trkpt><trkpt lat="42.386836105047635" lon="11.138854725483752"><ele>113.0</ele><time>2026-04-25T08:49:19.999Z</time></trkpt><trkpt lat="42.38673943005455" lon="11.138844052867702"><ele>113.0</ele><time>2026-04-25T08:49:20.999Z</time></trkpt><trkpt lat="42.38663267821978" lon="11.138878516046793"><ele>113.00000000000001</ele><time>2026-04-25T08:49:21.999Z</time></trkpt><trkpt lat="42.386528315310535" lon="11.138898817220339"><ele>113.00000000000001</ele><time>2026-04-25T08:49:22.999Z</time></trkpt><trkpt lat="42.38642728850025" lon="11.138955921589478"><ele>113.0</ele><time>2026-04-25T08:49:23.999Z</time></trkpt><trkpt lat="42.38631830433679" lon="11.138986416742158"><ele>113.0</ele><time>2026-04-25T08:49:24.999Z</time></trkpt><trkpt lat="42.386219422642526" lon="11.139012180450157"><ele>111.83333333333333</ele><time>2026-04-25T08:49:25.999Z</time></trkpt><trkpt lat="42.386117652602316" lon="11.13901744649673"><ele>110.66666666666666</ele><time>2026-04-25T08:49:26.999Z</time></trkpt><trkpt lat="42.3860237688776" lon="11.13902186488778"><ele>109.5</ele><time>2026-04-25T08:49:27.999Z</time></trkpt><trkpt lat="42.3859402083227" lon="11.1390246416696"><ele>108.33333333333334</ele><time>2026-04-25T08:49:28.999Z</time></trkpt><trkpt lat="42.38585994555929" lon="11.139023620025947"><ele>107.16666666666667</ele><time>2026-04-25T08:49:29.999Z</time></trkpt><trkpt lat="42.38578345857416" lon="11.13901067658178"><ele>106.0</ele><time>2026-04-25T08:49:30.999Z</time></trkpt><trkpt lat="42.385697215843905" lon="11.138991221868856"><ele>106.00000000000001</ele><time>2026-04-25T08:49:31.999Z</time></trkpt><trkpt lat="42.38561572990402" lon="11.138968702584108"><ele>106.0</ele><time>2026-04-25T08:49:32.999Z</time></trkpt><trkpt lat="42.385524459153636" lon="11.138949181598795"><ele>106.0</ele><time>2026-04-25T08:49:33.999Z</time></trkpt><trkpt lat="42.385436499375004" lon="11.138950307989509"><ele>106.0</ele><time>2026-04-25T08:49:34.999Z</time></trkpt><trkpt lat="42.38536130797779" lon="11.138956543988849"><ele>106.00000000000001</ele><time>2026-04-25T08:49:35.999Z</time></trkpt><trkpt lat="42.38529850339681" lon="11.138896374219382"><ele>106.0</ele><time>2026-04-25T08:49:36.999Z</time></trkpt><trkpt lat="42.385228149518376" lon="11.138890026862612"><ele>105.19999999999999</ele><time>2026-04-25T08:49:37.999Z</time></trkpt><trkpt lat="42.38514562249052" lon="11.138966926305857"><ele>104.39999999999999</ele><time>2026-04-25T08:49:38.999Z</time></trkpt><trkpt lat="42.38504851647399" lon="11.139031497766014"><ele>103.6</ele><time>2026-04-25T08:49:39.999Z</time></trkpt><trkpt lat="42.38493199914258" lon="11.139059027909365"><ele>102.8</ele><time>2026-04-25T08:49:40.999Z</time></trkpt><trkpt lat="42.384834559070725" lon="11.139101510935348"><ele>102.0</ele><time>2026-04-25T08:49:41.999Z</time></trkpt><trkpt lat="42.38474345078025" lon="11.13917298365428"><ele>104.19999999999999</ele><time>2026-04-25T08:49:42.999Z</time></trkpt><trkpt lat="42.38463252791404" lon="11.139214220400293"><ele>106.4</ele><time>2026-04-25T08:49:43.999Z</time></trkpt><trkpt lat="42.38454984265781" lon="11.139260926339967"><ele>108.60000000000001</ele><time>2026-04-25T08:49:44.999Z</time></trkpt><trkpt lat="42.38445682292051" lon="11.1393042205548"><ele>110.80000000000001</ele><time>2026-04-25T08:49:45.999Z</time></trkpt><trkpt lat="42.38435565349575" lon="11.139336692084118"><ele>113.0</ele><time>2026-04-25T08:49:46.999Z</time></trkpt><trkpt lat="42.38424241873075" lon="11.139349216297573"><ele>113.0</ele><time>2026-04-25T08:49:47.999Z</time></trkpt><trkpt lat="42.384122352834844" lon="11.13935872172717"><ele>113.0</ele><time>2026-04-25T08:49:48.999Z</time></trkpt><trkpt lat="42.383996342144414" lon="11.139359133882705"><ele>113.0</ele><time>2026-04-25T08:49:49.999Z</time></trkpt><trkpt lat="42.38387617127164" lon="11.139359135643236"><ele>113.0</ele><time>2026-04-25T08:49:50.999Z</time></trkpt><trkpt lat="42.38377362382365" lon="11.139353466835784"><ele>110.80000000000001</ele><time>2026-04-25T08:49:51.999Z</time></trkpt><trkpt lat="42.38367945164451" lon="11.13935899922621"><ele>108.60000000000001</ele><time>2026-04-25T08:49:52.999Z</time></trkpt><trkpt lat="42.383575253541075" lon="11.13936810544964"><ele>106.4</ele><time>2026-04-25T08:49:53.999Z</time></trkpt><trkpt lat="42.38347943764667" lon="11.139377620501167"><ele>104.19999999999999</ele><time>2026-04-25T08:49:54.999Z</time></trkpt><trkpt lat="42.3833761903412" lon="11.13939055223209"><ele>102.0</ele><time>2026-04-25T08:49:55.999Z</time></trkpt><trkpt lat="42.38327826003793" lon="11.1393992917348"><ele>102.0</ele><time>2026-04-25T08:49:56.999Z</time></trkpt><trkpt lat="42.3831833524601" lon="11.139381072904758"><ele>102.0</ele><time>2026-04-25T08:49:57.999Z</time></trkpt><trkpt lat="42.383094607443766" lon="11.139364037518165"><ele>102.0</ele><time>2026-04-25T08:49:58.999Z</time></trkpt><trkpt lat="42.38298060101111" lon="11.139362129963077"><ele>102.0</ele><time>2026-04-25T08:49:59.999Z</time></trkpt><trkpt lat="42.382867331133404" lon="11.139351867078615"><ele>102.0</ele><time>2026-04-25T08:50:00.999Z</time></trkpt><trkpt lat="42.38276487609066" lon="11.139326485179511"><ele>100.0</ele><time>2026-04-25T08:50:01.999Z</time></trkpt><trkpt lat="42.382668043187756" lon="11.139307729293595"><ele>98.0</ele><time>2026-04-25T08:50:02.999Z</time></trkpt><trkpt lat="42.38257632589759" lon="11.139286814773333"><ele>96.0</ele><time>2026-04-25T08:50:03.999Z</time></trkpt><trkpt lat="42.382487317896924" lon="11.139275488861863"><ele>94.0</ele><time>2026-04-25T08:50:04.999Z</time></trkpt><trkpt lat="42.38239202389148" lon="11.139280549107117"><ele>92.0</ele><time>2026-04-25T08:50:05.999Z</time></trkpt><trkpt lat="42.38230611066912" lon="11.139353094360217"><ele>92.0</ele><time>2026-04-25T08:50:06.998Z</time></trkpt><trkpt lat="42.38221307306457" lon="11.139356568530696"><ele>92.0</ele><time>2026-04-25T08:50:07.998Z</time></trkpt><trkpt lat="42.38213194698259" lon="11.139324783933867"><ele>92.0</ele><time>2026-04-25T08:50:08.998Z</time></trkpt><trkpt lat="42.38203421415964" lon="11.139295336198382"><ele>92.0</ele><time>2026-04-25T08:50:09.998Z</time></trkpt><trkpt lat="42.38194225837626" lon="11.139255216855808"><ele>92.0</ele><time>2026-04-25T08:50:10.998Z</time></trkpt><trkpt lat="42.38185688021224" lon="11.13921548616116"><ele>89.39999999999999</ele><time>2026-04-25T08:50:11.998Z</time></trkpt><trkpt lat="42.3817716840816" lon="11.139177249805451"><ele>86.8</ele><time>2026-04-25T08:50:12.998Z</time></trkpt><trkpt lat="42.381692060459386" lon="11.139152655444983"><ele>84.2</ele><time>2026-04-25T08:50:14Z</time></trkpt><trkpt lat="42.38160744896384" lon="11.139157935521453"><ele>81.6</ele><time>2026-04-25T08:50:15Z</time></trkpt><trkpt lat="42.38151273433637" lon="11.13922021313775"><ele>79.0</ele><time>2026-04-25T08:50:16Z</time></trkpt><trkpt lat="42.38140036673039" lon="11.139252112284849"><ele>77.0</ele><time>2026-04-25T08:50:17Z</time></trkpt><trkpt lat="42.38132081729096" lon="11.139320152417636"><ele>75.0</ele><time>2026-04-25T08:50:18Z</time></trkpt><trkpt lat="42.38124184933571" lon="11.139384887229925"><ele>73.0</ele><time>2026-04-25T08:50:19Z</time></trkpt><trkpt lat="42.38118763740508" lon="11.139463042303433"><ele>71.0</ele><time>2026-04-25T08:50:20Z</time></trkpt><trkpt lat="42.38115589014896" lon="11.139585939411466"><ele>69.0</ele><time>2026-04-25T08:50:21Z</time></trkpt><trkpt lat="42.38112756663506" lon="11.139737814701576"><ele>68.0</ele><time>2026-04-25T08:50:22Z</time></trkpt><trkpt lat="42.38108014730077" lon="11.139919916504704"><ele>67.0</ele><time>2026-04-25T08:50:23Z</time></trkpt><trkpt lat="42.38101000292896" lon="11.14007878129484"><ele>66.0</ele><time>2026-04-25T08:50:24Z</time></trkpt><trkpt lat="42.38093486605473" lon="11.140216877422855"><ele>65.0</ele><time>2026-04-25T08:50:25Z</time></trkpt><trkpt lat="42.38085361395569" lon="11.140318758654391"><ele>65.0</ele><time>2026-04-25T08:50:26Z</time></trkpt><trkpt lat="42.38078559123396" lon="11.140413333901426"><ele>65.0</ele><time>2026-04-25T08:50:27Z</time></trkpt><trkpt lat="42.38071337246918" lon="11.140479839869588"><ele>65.0</ele><time>2026-04-25T08:50:28Z</time></trkpt><trkpt lat="42.380669151777596" lon="11.14054415387999"><ele>65.0</ele><time>2026-04-25T08:50:29Z</time></trkpt><trkpt lat="42.38067755266627" lon="11.140653242637585"><ele>65.0</ele><time>2026-04-25T08:50:32Z</time></trkpt><trkpt lat="42.38078399411763" lon="11.140667481693301"><ele>65.0</ele><time>2026-04-25T08:50:34Z</time></trkpt><trkpt lat="42.380854584226185" lon="11.140674713787385"><ele>60.5</ele><time>2026-04-25T08:50:35.999Z</time></trkpt><trkpt lat="42.38090935631303" lon="11.14078996567612"><ele>56.0</ele><time>2026-04-25T08:50:38.999Z</time></trkpt><trkpt lat="42.38099822563734" lon="11.140925843339119"><ele>51.5</ele><time>2026-04-25T08:50:40.999Z</time></trkpt><trkpt lat="42.38109273357839" lon="11.140985984738869"><ele>47.0</ele><time>2026-04-25T08:50:41.999Z</time></trkpt><trkpt lat="42.38120433702798" lon="11.141054184061845"><ele>47.0</ele><time>2026-04-25T08:50:42.999Z</time></trkpt><trkpt lat="42.38131958571594" lon="11.141113479170997"><ele>47.0</ele><time>2026-04-25T08:50:43.999Z</time></trkpt><trkpt lat="42.38144339746595" lon="11.141153823181487"><ele>47.0</ele><time>2026-04-25T08:50:44.999Z</time></trkpt><trkpt lat="42.381579504688595" lon="11.14116353755802"><ele>47.0</ele><time>2026-04-25T08:50:45.999Z</time></trkpt><trkpt lat="42.38169587195891" lon="11.141176136744988"><ele>49.0</ele><time>2026-04-25T08:50:46.999Z</time></trkpt><trkpt lat="42.38179764069699" lon="11.141216343898794"><ele>51.0</ele><time>2026-04-25T08:50:47.999Z</time></trkpt><trkpt lat="42.381889762000604" lon="11.14127326205946"><ele>53.0</ele><time>2026-04-25T08:50:48.999Z</time></trkpt><trkpt lat="42.38197985392469" lon="11.141339259193435"><ele>55.0</ele><time>2026-04-25T08:50:49.999Z</time></trkpt><trkpt lat="42.38206338239642" lon="11.141422588119113"><ele>57.0</ele><time>2026-04-25T08:50:50.999Z</time></trkpt><trkpt lat="42.38214651652636" lon="11.141524292777424"><ele>58.0</ele><time>2026-04-25T08:50:51.999Z</time></trkpt><trkpt lat="42.382231428856606" lon="11.14163466337246"><ele>59.0</ele><time>2026-04-25T08:50:52.999Z</time></trkpt><trkpt lat="42.38231957887106" lon="11.141763263626528"><ele>60.0</ele><time>2026-04-25T08:50:53.999Z</time></trkpt><trkpt lat="42.38240920425418" lon="11.141905800084583"><ele>61.0</ele><time>2026-04-25T08:50:54.999Z</time></trkpt><trkpt lat="42.38247866968827" lon="11.142041772673869"><ele>61.0</ele><time>2026-04-25T08:50:55.999Z</time></trkpt><trkpt lat="42.38254899500329" lon="11.142162639755943"><ele>60.99999999999999</ele><time>2026-04-25T08:50:56.999Z</time></trkpt><trkpt lat="42.382634201876364" lon="11.14226416029873"><ele>60.99999999999999</ele><time>2026-04-25T08:50:57.999Z</time></trkpt><trkpt lat="42.38271732558257" lon="11.142330185524266"><ele>61.0</ele><time>2026-04-25T08:50:58.999Z</time></trkpt><trkpt lat="42.38282453635367" lon="11.14235819403479"><ele>61.0</ele><time>2026-04-25T08:50:59.999Z</time></trkpt><trkpt lat="42.38292511118179" lon="11.142350874120847"><ele>63.75</ele><time>2026-04-25T08:51:00.999Z</time></trkpt><trkpt lat="42.38302928870169" lon="11.14232298378734"><ele>66.5</ele><time>2026-04-25T08:51:01.999Z</time></trkpt><trkpt lat="42.38313913147634" lon="11.142270884408735"><ele>69.25</ele><time>2026-04-25T08:51:02.999Z</time></trkpt><trkpt lat="42.38324794743413" lon="11.14221408515745"><ele>72.0</ele><time>2026-04-25T08:51:03.999Z</time></trkpt><trkpt lat="42.38335776323654" lon="11.142158544621163"><ele>72.0</ele><time>2026-04-25T08:51:04.999Z</time></trkpt><trkpt lat="42.383475516653476" lon="11.142118790900003"><ele>72.0</ele><time>2026-04-25T08:51:05.999Z</time></trkpt><trkpt lat="42.38358608779252" lon="11.142024788636494"><ele>72.0</ele><time>2026-04-25T08:51:06.999Z</time></trkpt><trkpt lat="42.383704047416686" lon="11.14196797992045"><ele>72.0</ele><time>2026-04-25T08:51:07.999Z</time></trkpt><trkpt lat="42.38382633015594" lon="11.141935316888345"><ele>70.0</ele><time>2026-04-25T08:51:08.999Z</time></trkpt><trkpt lat="42.383959901998594" lon="11.141933735680913"><ele>68.0</ele><time>2026-04-25T08:51:09.999Z</time></trkpt><trkpt lat="42.38410261423794" lon="11.141953542686009"><ele>66.0</ele><time>2026-04-25T08:51:10.999Z</time></trkpt><trkpt lat="42.384254213403004" lon="11.141946023532913"><ele>64.0</ele><time>2026-04-25T08:51:11.999Z</time></trkpt><trkpt lat="42.38441200365838" lon="11.141896455633255"><ele>64.0</ele><time>2026-04-25T08:51:12.999Z</time></trkpt><trkpt lat="42.38458614052652" lon="11.141813642512933"><ele>64.0</ele><time>2026-04-25T08:51:13.999Z</time></trkpt><trkpt lat="42.38475289564228" lon="11.141756169773293"><ele>64.0</ele><time>2026-04-25T08:51:14.999Z</time></trkpt><trkpt lat="42.38489838606302" lon="11.141727833816002"><ele>63.75</ele><time>2026-04-25T08:51:15.999Z</time></trkpt><trkpt lat="42.38502789111693" lon="11.14173603197726"><ele>63.5</ele><time>2026-04-25T08:51:16.999Z</time></trkpt><trkpt lat="42.38513774350268" lon="11.141771621684665"><ele>63.25</ele><time>2026-04-25T08:51:17.999Z</time></trkpt><trkpt lat="42.385251147978856" lon="11.14181951173365"><ele>63.0</ele><time>2026-04-25T08:51:18.999Z</time></trkpt><trkpt lat="42.38537000684644" lon="11.141870279816287"><ele>63.0</ele><time>2026-04-25T08:51:19.999Z</time></trkpt><trkpt lat="42.38547675631363" lon="11.141923758840434"><ele>63.0</ele><time>2026-04-25T08:51:20.999Z</time></trkpt><trkpt lat="42.38558311423685" lon="11.141978899876522"><ele>63.0</ele><time>2026-04-25T08:51:21.999Z</time></trkpt><trkpt lat="42.38568076976958" lon="11.14203403352458"><ele>63.0</ele><time>2026-04-25T08:51:22.999Z</time></trkpt><trkpt lat="42.385759415662484" lon="11.142090013865175"><ele>63.0</ele><time>2026-04-25T08:51:23.999Z</time></trkpt><trkpt lat="42.38581641755041" lon="11.142156992244747"><ele>61.8</ele><time>2026-04-25T08:51:24.999Z</time></trkpt><trkpt lat="42.38585563108585" lon="11.142243672280241"><ele>60.599999999999994</ele><time>2026-04-25T08:51:25.999Z</time></trkpt><trkpt lat="42.38587475597486" lon="11.142356056860631"><ele>59.400000000000006</ele><time>2026-04-25T08:51:26.999Z</time></trkpt><trkpt lat="42.38588071364673" lon="11.14248433130243"><ele>58.2</ele><time>2026-04-25T08:51:27.999Z</time></trkpt><trkpt lat="42.385862820652555" lon="11.142650837660407"><ele>57.0</ele><time>2026-04-25T08:51:28.999Z</time></trkpt><trkpt lat="42.38584180136445" lon="11.142824502320577"><ele>57.0</ele><time>2026-04-25T08:51:29.999Z</time></trkpt><trkpt lat="42.38584278122751" lon="11.143001188130052"><ele>57.0</ele><time>2026-04-25T08:51:30.999Z</time></trkpt><trkpt lat="42.385878260594716" lon="11.143178175147586"><ele>57.0</ele><time>2026-04-25T08:51:31.999Z</time></trkpt><trkpt lat="42.38592325153666" lon="11.143333225242833"><ele>57.0</ele><time>2026-04-25T08:51:32.999Z</time></trkpt><trkpt lat="42.38598089342995" lon="11.143508858415803"><ele>62.0</ele><time>2026-04-25T08:51:33.999Z</time></trkpt><trkpt lat="42.38605410826059" lon="11.143668792984544"><ele>67.0</ele><time>2026-04-25T08:51:34.999Z</time></trkpt><trkpt lat="42.386150266267855" lon="11.143835009005404"><ele>72.0</ele><time>2026-04-25T08:51:35.999Z</time></trkpt><trkpt lat="42.38624979607041" lon="11.144040788086267"><ele>73.75</ele><time>2026-04-25T08:51:36.999Z</time></trkpt><trkpt lat="42.38634941113779" lon="11.144245826951149"><ele>75.5</ele><time>2026-04-25T08:51:37.999Z</time></trkpt><trkpt lat="42.38642476024047" lon="11.144413414482319"><ele>77.25</ele><time>2026-04-25T08:51:38.999Z</time></trkpt><trkpt lat="42.386474072840656" lon="11.144544940948684"><ele>79.0</ele><time>2026-04-25T08:51:39.999Z</time></trkpt><trkpt lat="42.38649131729876" lon="11.144666429767149"><ele>79.0</ele><time>2026-04-25T08:51:40.998Z</time></trkpt><trkpt lat="42.38644189185742" lon="11.144769398794407"><ele>79.0</ele><time>2026-04-25T08:51:41.998Z</time></trkpt><trkpt lat="42.38637430464494" lon="11.14489134347687"><ele>79.0</ele><time>2026-04-25T08:51:42.998Z</time></trkpt><trkpt lat="42.38636060538965" lon="11.144986257837248"><ele>79.0</ele><time>2026-04-25T08:51:43.998Z</time></trkpt><trkpt lat="42.386339277846986" lon="11.145135667802696"><ele>79.0</ele><time>2026-04-25T08:51:45.998Z</time></trkpt><trkpt lat="42.3863333797045" lon="11.145253023963688"><ele>80.0</ele><time>2026-04-25T08:51:47.998Z</time></trkpt><trkpt lat="42.386389717059984" lon="11.145319063347689"><ele>81.0</ele><time>2026-04-25T08:51:48.998Z</time></trkpt><trkpt lat="42.38645227700204" lon="11.145377390715286"><ele>82.0</ele><time>2026-04-25T08:51:49.998Z</time></trkpt><trkpt lat="42.38652889817169" lon="11.145433982482507"><ele>83.0</ele><time>2026-04-25T08:51:50.998Z</time></trkpt><trkpt lat="42.38658801992718" lon="11.145525592265015"><ele>84.0</ele><time>2026-04-25T08:51:51.998Z</time></trkpt><trkpt lat="42.386652744351615" lon="11.145596883061417"><ele>85.0</ele><time>2026-04-25T08:51:52.998Z</time></trkpt><trkpt lat="42.38669781667208" lon="11.145700870068938"><ele>87.33333333333333</ele><time>2026-04-25T08:51:53.998Z</time></trkpt><trkpt lat="42.3867521610364" lon="11.145805148965174"><ele>89.66666666666666</ele><time>2026-04-25T08:51:54.998Z</time></trkpt><trkpt lat="42.38679736342271" lon="11.145914673906482"><ele>92.0</ele><time>2026-04-25T08:51:55.998Z</time></trkpt><trkpt lat="42.386811925804984" lon="11.146018887032767"><ele>94.33333333333333</ele><time>2026-04-25T08:51:56.998Z</time></trkpt><trkpt lat="42.386847594085076" lon="11.1461601017424"><ele>96.66666666666667</ele><time>2026-04-25T08:51:58.998Z</time></trkpt><trkpt lat="42.38687670566887" lon="11.146237481575067"><ele>99.0</ele><time>2026-04-25T08:51:59.998Z</time></trkpt><trkpt lat="42.38687541561886" lon="11.146322995668024"><ele>99.0</ele><time>2026-04-25T08:52:00.998Z</time></trkpt><trkpt lat="42.386870710409916" lon="11.146432886060937"><ele>99.0</ele><time>2026-04-25T08:52:01.998Z</time></trkpt><trkpt lat="42.38687161117269" lon="11.146540325835225"><ele>99.0</ele><time>2026-04-25T08:52:02.998Z</time></trkpt><trkpt lat="42.38688095902503" lon="11.146658618083498"><ele>99.0</ele><time>2026-04-25T08:52:03.998Z</time></trkpt><trkpt lat="42.38691236048936" lon="11.146774078767002"><ele>99.0</ele><time>2026-04-25T08:52:04.998Z</time></trkpt><trkpt lat="42.38694897838053" lon="11.146904805298103"><ele>99.0</ele><time>2026-04-25T08:52:05.998Z</time></trkpt><trkpt lat="42.38697780986094" lon="11.147051011961727"><ele>102.4</ele><time>2026-04-25T08:52:06.998Z</time></trkpt><trkpt lat="42.38701782126346" lon="11.147192504036358"><ele>105.80000000000001</ele><time>2026-04-25T08:52:07.998Z</time></trkpt><trkpt lat="42.38706311362271" lon="11.147324988474317"><ele>109.19999999999999</ele><time>2026-04-25T08:52:08.998Z</time></trkpt><trkpt lat="42.387118319030066" lon="11.147450814648986"><ele>112.6</ele><time>2026-04-25T08:52:09.998Z</time></trkpt><trkpt lat="42.387156262994864" lon="11.14753618778867"><ele>116.0</ele><time>2026-04-25T08:52:10.998Z</time></trkpt><trkpt lat="42.38717944575725" lon="11.14762021139025"><ele>115.5</ele><time>2026-04-25T08:52:11.998Z</time></trkpt><trkpt lat="42.387191128217076" lon="11.147731830007894"><ele>115.0</ele><time>2026-04-25T08:52:12.998Z</time></trkpt><trkpt lat="42.38720988554631" lon="11.147883094937068"><ele>114.5</ele><time>2026-04-25T08:52:13.998Z</time></trkpt><trkpt lat="42.38720062881999" lon="11.14805805068353"><ele>114.0</ele><time>2026-04-25T08:52:14.998Z</time></trkpt><trkpt lat="42.38721659444732" lon="11.14824523234618"><ele>114.0</ele><time>2026-04-25T08:52:15.998Z</time></trkpt><trkpt lat="42.38722068251523" lon="11.148404181446994"><ele>114.0</ele><time>2026-04-25T08:52:16.998Z</time></trkpt><trkpt lat="42.387240930348256" lon="11.148553859915948"><ele>114.0</ele><time>2026-04-25T08:52:17.998Z</time></trkpt><trkpt lat="42.387268930277045" lon="11.148673912719103"><ele>114.0</ele><time>2026-04-25T08:52:18.999Z</time></trkpt><trkpt lat="42.387301495642184" lon="11.148765790529618"><ele>114.0</ele><time>2026-04-25T08:52:19.999Z</time></trkpt><trkpt lat="42.38732719221442" lon="11.14887238923511"><ele>114.0</ele><time>2026-04-25T08:52:21.999Z</time></trkpt><trkpt lat="42.38735290514737" lon="11.148957994176557"><ele>114.0</ele><time>2026-04-25T08:52:36.999Z</time></trkpt><trkpt lat="42.387263551678124" lon="11.148684023930992"><ele>114.0</ele><time>2026-04-25T08:52:54.999Z</time></trkpt><trkpt lat="42.38723433116708" lon="11.148530033347713"><ele>114.0</ele><time>2026-04-25T08:52:55.999Z</time></trkpt><trkpt lat="42.38721453790861" lon="11.148381314530988"><ele>114.0</ele><time>2026-04-25T08:52:56.999Z</time></trkpt><trkpt lat="42.38723724550276" lon="11.14824042816738"><ele>114.0</ele><time>2026-04-25T08:52:57.999Z</time></trkpt><trkpt lat="42.38723440114347" lon="11.148080804809068"><ele>114.0</ele><time>2026-04-25T08:52:58.999Z</time></trkpt><trkpt lat="42.3872301751801" lon="11.147948430442748"><ele>114.0</ele><time>2026-04-25T08:52:59.999Z</time></trkpt><trkpt lat="42.38722636791589" lon="11.147838558151163"><ele>114.0</ele><time>2026-04-25T08:53:00.999Z</time></trkpt><trkpt lat="42.3872221952156" lon="11.147749096859979"><ele>115.0</ele><time>2026-04-25T08:53:01.999Z</time></trkpt><trkpt lat="42.38718702471166" lon="11.147616099395613"><ele>116.0</ele><time>2026-04-25T08:53:04.999Z</time></trkpt><trkpt lat="42.38717511690202" lon="11.14752184521493"><ele>117.0</ele><time>2026-04-25T08:53:17.999Z</time></trkpt><trkpt lat="42.38706583880852" lon="11.147602461863679"><ele>118.0</ele><time>2026-04-25T08:53:29.999Z</time></trkpt><trkpt lat="42.38697879570049" lon="11.147608842088218"><ele>119.0</ele><time>2026-04-25T08:53:31.999Z</time></trkpt><trkpt lat="42.38685357074755" lon="11.147606285894472"><ele>120.2</ele><time>2026-04-25T08:53:33.999Z</time></trkpt><trkpt lat="42.38678007751718" lon="11.147621852634146"><ele>121.4</ele><time>2026-04-25T08:53:34.999Z</time></trkpt><trkpt lat="42.38667442642347" lon="11.147648931922584"><ele>122.6</ele><time>2026-04-25T08:53:36.999Z</time></trkpt><trkpt lat="42.386567295338054" lon="11.147676273774392"><ele>123.8</ele><time>2026-04-25T08:53:38.999Z</time></trkpt><trkpt lat="42.38645651069932" lon="11.147706780516744"><ele>125.0</ele><time>2026-04-25T08:53:40.999Z</time></trkpt><trkpt lat="42.386381215157805" lon="11.14773173901307"><ele>124.99999999999999</ele><time>2026-04-25T08:53:42.999Z</time></trkpt><trkpt lat="42.38634579286263" lon="11.147814375483433"><ele>125.0</ele><time>2026-04-25T08:53:52.999Z</time></trkpt><trkpt lat="42.386305755081196" lon="11.147902173680375"><ele>125.0</ele><time>2026-04-25T08:53:54.999Z</time></trkpt><trkpt lat="42.38624823570144" lon="11.14798918117364"><ele>125.0</ele><time>2026-04-25T08:53:56.999Z</time></trkpt><trkpt lat="42.386190062866845" lon="11.14808218460728"><ele>124.99999999999999</ele><time>2026-04-25T08:53:58.999Z</time></trkpt><trkpt lat="42.38617158001643" lon="11.148217453417177"><ele>125.0</ele><time>2026-04-25T08:54:00.999Z</time></trkpt><trkpt lat="42.38618043945007" lon="11.148329780697209"><ele>131.5</ele><time>2026-04-25T08:54:02.999Z</time></trkpt><trkpt lat="42.38619809556755" lon="11.148427395886841"><ele>138.0</ele><time>2026-04-25T08:54:05.999Z</time></trkpt><trkpt lat="42.3862501852274" lon="11.14856853639877"><ele>144.5</ele><time>2026-04-25T08:54:07.999Z</time></trkpt><trkpt lat="42.38627986277691" lon="11.148678989972511"><ele>151.0</ele><time>2026-04-25T08:54:09.999Z</time></trkpt><trkpt lat="42.38626436520233" lon="11.148766866046314"><ele>157.5</ele><time>2026-04-25T08:54:17.998Z</time></trkpt><trkpt lat="42.38619607611574" lon="11.148775399241265"><ele>164.0</ele><time>2026-04-25T08:55:05.999Z</time></trkpt><trkpt lat="42.38611440178436" lon="11.148682808828136"><ele>164.0</ele><time>2026-04-25T08:55:07.999Z</time></trkpt><trkpt lat="42.38603023753971" lon="11.148611366852798"><ele>164.0</ele><time>2026-04-25T08:55:09.999Z</time></trkpt><trkpt lat="42.38598359507697" lon="11.148513993538373"><ele>164.0</ele><time>2026-04-25T08:55:11.999Z</time></trkpt><trkpt lat="42.38594034861963" lon="11.148430346372034"><ele>164.0</ele><time>2026-04-25T08:55:12.999Z</time></trkpt><trkpt lat="42.38587393526948" lon="11.148276678135394"><ele>164.0</ele><time>2026-04-25T08:55:14.999Z</time></trkpt><trkpt lat="42.38579687061431" lon="11.14816263778478"><ele>162.2</ele><time>2026-04-25T08:55:16.999Z</time></trkpt><trkpt lat="42.38570803621927" lon="11.14807796347099"><ele>160.39999999999998</ele><time>2026-04-25T08:55:18.999Z</time></trkpt><trkpt lat="42.38564669854725" lon="11.147952723499"><ele>158.6</ele><time>2026-04-25T08:55:20.999Z</time></trkpt><trkpt lat="42.385579902505306" lon="11.147878643030886"><ele>156.8</ele><time>2026-04-25T08:55:22.999Z</time></trkpt><trkpt lat="42.38550454210375" lon="11.147877018822403"><ele>155.0</ele><time>2026-04-25T08:55:24.999Z</time></trkpt><trkpt lat="42.385399162771925" lon="11.147879714072435"><ele>160.33333333333331</ele><time>2026-04-25T08:55:26.999Z</time></trkpt><trkpt lat="42.38531527067172" lon="11.147890464266062"><ele>165.66666666666666</ele><time>2026-04-25T08:55:28.999Z</time></trkpt><trkpt lat="42.38530289215573" lon="11.147984113487253"><ele>171.0</ele><time>2026-04-25T08:55:46.999Z</time></trkpt><trkpt lat="42.38527264346059" lon="11.148106613872905"><ele>176.33333333333334</ele><time>2026-04-25T08:55:48.999Z</time></trkpt><trkpt lat="42.38525530069441" lon="11.148226938270522"><ele>181.66666666666669</ele><time>2026-04-25T08:55:50.999Z</time></trkpt><trkpt lat="42.38525014593083" lon="11.148373392261888"><ele>187.0</ele><time>2026-04-25T08:55:52.999Z</time></trkpt><trkpt lat="42.38525152879819" lon="11.148539177192353"><ele>187.83333333333334</ele><time>2026-04-25T08:55:54.999Z</time></trkpt><trkpt lat="42.3852716477445" lon="11.148629155387885"><ele>188.66666666666669</ele><time>2026-04-25T08:55:55.999Z</time></trkpt><trkpt lat="42.385278188789314" lon="11.14871911566864"><ele>189.5</ele><time>2026-04-25T08:55:56.999Z</time></trkpt><trkpt lat="42.385285657919624" lon="11.148823019812403"><ele>190.33333333333334</ele><time>2026-04-25T08:55:57.999Z</time></trkpt><trkpt lat="42.38529343510436" lon="11.148969859978994"><ele>191.16666666666666</ele><time>2026-04-25T08:55:59.999Z</time></trkpt><trkpt lat="42.38526059957447" lon="11.149125265657831"><ele>192.0</ele><time>2026-04-25T08:56:01.999Z</time></trkpt><trkpt lat="42.385239538143466" lon="11.149262013400513"><ele>194.25</ele><time>2026-04-25T08:56:03.999Z</time></trkpt><trkpt lat="42.38522137376322" lon="11.149422250787167"><ele>196.5</ele><time>2026-04-25T08:56:05.999Z</time></trkpt><trkpt lat="42.385231778126276" lon="11.14956737421751"><ele>198.75</ele><time>2026-04-25T08:56:07.999Z</time></trkpt><trkpt lat="42.38522502657576" lon="11.149704322907922"><ele>201.0</ele><time>2026-04-25T08:56:09.999Z</time></trkpt><trkpt lat="42.38523491046095" lon="11.149873838639738"><ele>202.33333333333334</ele><time>2026-04-25T08:56:11.999Z</time></trkpt><trkpt lat="42.38526460582804" lon="11.149970871673695"><ele>203.66666666666669</ele><time>2026-04-25T08:56:13.999Z</time></trkpt><trkpt lat="42.385297640994295" lon="11.150092475382747"><ele>205.0</ele><time>2026-04-25T08:56:14.999Z</time></trkpt><trkpt lat="42.385328022132576" lon="11.150170486301356"><ele>206.33333333333334</ele><time>2026-04-25T08:56:15.999Z</time></trkpt><trkpt lat="42.385372484462245" lon="11.150284652899254"><ele>207.66666666666669</ele><time>2026-04-25T08:56:17.999Z</time></trkpt><trkpt lat="42.38537594597657" lon="11.150400402865733"><ele>209.0</ele><time>2026-04-25T08:56:19.999Z</time></trkpt><trkpt lat="42.38529581477238" lon="11.15048508437765"><ele>209.0</ele><time>2026-04-25T08:56:21.999Z</time></trkpt><trkpt lat="42.385148495259145" lon="11.150445535697004"><ele>209.0</ele><time>2026-04-25T08:56:23.999Z</time></trkpt><trkpt lat="42.385072357497876" lon="11.150501209815257"><ele>209.0</ele><time>2026-04-25T08:56:24.998Z</time></trkpt><trkpt lat="42.385067746283575" lon="11.150702634165551"><ele>209.0</ele><time>2026-04-25T08:56:26.998Z</time></trkpt><trkpt lat="42.38502341578598" lon="11.15082381955033"><ele>207.2</ele><time>2026-04-25T08:56:28.998Z</time></trkpt><trkpt lat="42.38496732325623" lon="11.150904241052137"><ele>205.39999999999998</ele><time>2026-04-25T08:56:31Z</time></trkpt><trkpt lat="42.384898968895875" lon="11.150988217373346"><ele>203.6</ele><time>2026-04-25T08:56:33Z</time></trkpt><trkpt lat="42.38483242105043" lon="11.151112016229092"><ele>201.8</ele><time>2026-04-25T08:56:35Z</time></trkpt><trkpt lat="42.384763098214655" lon="11.151165914514145"><ele>200.0</ele><time>2026-04-25T08:56:37Z</time></trkpt><trkpt lat="42.384690334505514" lon="11.151260868232107"><ele>203.2</ele><time>2026-04-25T08:56:39Z</time></trkpt><trkpt lat="42.384610181207314" lon="11.151356763191462"><ele>206.4</ele><time>2026-04-25T08:56:41Z</time></trkpt><trkpt lat="42.384517368788764" lon="11.151398343652511"><ele>209.60000000000002</ele><time>2026-04-25T08:56:43Z</time></trkpt><trkpt lat="42.38443388398785" lon="11.151444741885093"><ele>212.8</ele><time>2026-04-25T08:56:45Z</time></trkpt><trkpt lat="42.384362128181955" lon="11.151451230530794"><ele>216.0</ele><time>2026-04-25T08:56:47Z</time></trkpt><trkpt lat="42.38422085382008" lon="11.15144620348324"><ele>216.0</ele><time>2026-04-25T08:56:49Z</time></trkpt><trkpt lat="42.38411362678941" lon="11.151499669107142"><ele>216.00000000000003</ele><time>2026-04-25T08:56:51Z</time></trkpt><trkpt lat="42.384018471999276" lon="11.151578699224286"><ele>216.00000000000003</ele><time>2026-04-25T08:56:53Z</time></trkpt><trkpt lat="42.38397325657434" lon="11.151646226506553"><ele>216.0</ele><time>2026-04-25T08:56:54Z</time></trkpt><trkpt lat="42.38397791363421" lon="11.151748331511062"><ele>216.0</ele><time>2026-04-25T08:56:55Z</time></trkpt><trkpt lat="42.383923600763865" lon="11.151883792821515"><ele>212.8</ele><time>2026-04-25T08:56:57Z</time></trkpt><trkpt lat="42.38388083335633" lon="11.15201400332101"><ele>209.60000000000002</ele><time>2026-04-25T08:56:59Z</time></trkpt><trkpt lat="42.38384547063614" lon="11.152085539143965"><ele>206.4</ele><time>2026-04-25T08:57:00Z</time></trkpt><trkpt lat="42.3837836019238" lon="11.152243670721917"><ele>203.2</ele><time>2026-04-25T08:57:02Z</time></trkpt><trkpt lat="42.38373972826406" lon="11.152367440726366"><ele>200.0</ele><time>2026-04-25T08:57:03.999Z</time></trkpt><trkpt lat="42.3836895385732" lon="11.152510074963763"><ele>199.75</ele><time>2026-04-25T08:57:05.999Z</time></trkpt><trkpt lat="42.383609212739835" lon="11.152643477339634"><ele>199.5</ele><time>2026-04-25T08:57:07.999Z</time></trkpt><trkpt lat="42.38354958859651" lon="11.152783176668274"><ele>199.25</ele><time>2026-04-25T08:57:09.999Z</time></trkpt><trkpt lat="42.38351253516654" lon="11.152945684056688"><ele>199.0</ele><time>2026-04-25T08:57:11.999Z</time></trkpt><trkpt lat="42.38352973966923" lon="11.153068575046863"><ele>199.0</ele><time>2026-04-25T08:57:13.999Z</time></trkpt><trkpt lat="42.383607931618265" lon="11.15319111022732"><ele>199.0</ele><time>2026-04-25T08:57:15.999Z</time></trkpt><trkpt lat="42.3836998163503" lon="11.153355604295628"><ele>199.0</ele><time>2026-04-25T08:57:17.999Z</time></trkpt><trkpt lat="42.383736699759496" lon="11.153438723377482"><ele>199.0</ele><time>2026-04-25T08:57:18.999Z</time></trkpt><trkpt lat="42.38372754302792" lon="11.153538341509995"><ele>199.0</ele><time>2026-04-25T08:57:19.999Z</time></trkpt><trkpt lat="42.38374082051347" lon="11.153656585268378"><ele>199.49999999999997</ele><time>2026-04-25T08:57:20.999Z</time></trkpt><trkpt lat="42.38371603523551" lon="11.153766065704701"><ele>200.0</ele><time>2026-04-25T08:57:21.999Z</time></trkpt><trkpt lat="42.38368805875157" lon="11.153851792569688"><ele>200.5</ele><time>2026-04-25T08:57:22.999Z</time></trkpt><trkpt lat="42.38360918996782" lon="11.153935114150833"><ele>201.0</ele><time>2026-04-25T08:57:24.999Z</time></trkpt><trkpt lat="42.38357160061291" lon="11.154006801448018"><ele>201.49999999999997</ele><time>2026-04-25T08:57:25.999Z</time></trkpt><trkpt lat="42.38355085371359" lon="11.154090805019864"><ele>202.0</ele><time>2026-04-25T08:57:26.999Z</time></trkpt><trkpt lat="42.383546146019015" lon="11.15421866502252"><ele>202.66666666666666</ele><time>2026-04-25T08:57:28.999Z</time></trkpt><trkpt lat="42.3835973689691" lon="11.154297306058982"><ele>203.33333333333331</ele><time>2026-04-25T08:57:29.999Z</time></trkpt><trkpt lat="42.38363502785978" lon="11.154407029648198"><ele>204.0</ele><time>2026-04-25T08:57:30.999Z</time></trkpt><trkpt lat="42.38367680495023" lon="11.154524387260263"><ele>204.66666666666669</ele><time>2026-04-25T08:57:31.999Z</time></trkpt><trkpt lat="42.38371608822999" lon="11.154648383922531"><ele>205.33333333333334</ele><time>2026-04-25T08:57:32.999Z</time></trkpt><trkpt lat="42.38376070608224" lon="11.15474078370323"><ele>206.0</ele><time>2026-04-25T08:57:33.999Z</time></trkpt><trkpt lat="42.38381251794283" lon="11.15482783833596"><ele>210.00000000000003</ele><time>2026-04-25T08:57:34.999Z</time></trkpt><trkpt lat="42.383872623382025" lon="11.15492284625253"><ele>214.0</ele><time>2026-04-25T08:57:35.999Z</time></trkpt><trkpt lat="42.383924241527076" lon="11.15501941824343"><ele>218.0</ele><time>2026-04-25T08:57:36.999Z</time></trkpt><trkpt lat="42.38397206552687" lon="11.155124185701572"><ele>222.0</ele><time>2026-04-25T08:57:37.999Z</time></trkpt><trkpt lat="42.38401621590129" lon="11.155214530777666"><ele>226.00000000000003</ele><time>2026-04-25T08:57:38.999Z</time></trkpt><trkpt lat="42.38404930374306" lon="11.155288261720898"><ele>230.0</ele><time>2026-04-25T08:57:39.999Z</time></trkpt><trkpt lat="42.384074359534644" lon="11.155455815786508"><ele>230.00000000000003</ele><time>2026-04-25T08:57:41.999Z</time></trkpt><trkpt lat="42.38407355680027" lon="11.155581154767281"><ele>230.0</ele><time>2026-04-25T08:57:42.999Z</time></trkpt><trkpt lat="42.38407514550232" lon="11.155705759327272"><ele>230.0</ele><time>2026-04-25T08:57:43.999Z</time></trkpt><trkpt lat="42.3840898782012" lon="11.155817491990614"><ele>230.0</ele><time>2026-04-25T08:57:44.999Z</time></trkpt><trkpt lat="42.38411725688501" lon="11.155929202434873"><ele>230.00000000000003</ele><time>2026-04-25T08:57:45.999Z</time></trkpt><trkpt lat="42.38415954550645" lon="11.156024010875262"><ele>230.0</ele><time>2026-04-25T08:57:46.999Z</time></trkpt><trkpt lat="42.384202097077704" lon="11.156170744037517"><ele>228.2</ele><time>2026-04-25T08:57:48.999Z</time></trkpt><trkpt lat="42.38408817996208" lon="11.156258763069578"><ele>226.4</ele><time>2026-04-25T08:57:50.999Z</time></trkpt><trkpt lat="42.38401287825502" lon="11.156316806932526"><ele>224.60000000000002</ele><time>2026-04-25T08:57:51.999Z</time></trkpt><trkpt lat="42.38391758802382" lon="11.156379826384306"><ele>222.8</ele><time>2026-04-25T08:57:52.999Z</time></trkpt><trkpt lat="42.3838193689366" lon="11.156443916591371"><ele>221.0</ele><time>2026-04-25T08:57:53.999Z</time></trkpt><trkpt lat="42.38369158418609" lon="11.156522543108743"><ele>220.0</ele><time>2026-04-25T08:57:54.999Z</time></trkpt><trkpt lat="42.38358865717981" lon="11.156577226636115"><ele>219.00000000000003</ele><time>2026-04-25T08:57:55.999Z</time></trkpt><trkpt lat="42.38350498666321" lon="11.156612771597244"><ele>218.00000000000003</ele><time>2026-04-25T08:57:56.999Z</time></trkpt><trkpt lat="42.38340179222962" lon="11.156656321555902"><ele>217.0</ele><time>2026-04-25T08:57:57.999Z</time></trkpt><trkpt lat="42.38328247544905" lon="11.156700693373981"><ele>216.0</ele><time>2026-04-25T08:57:58.999Z</time></trkpt><trkpt lat="42.383171191536505" lon="11.156741501932402"><ele>216.0</ele><time>2026-04-25T08:57:59.999Z</time></trkpt><trkpt lat="42.38308303490713" lon="11.156791510406016"><ele>216.0</ele><time>2026-04-25T08:58:00.999Z</time></trkpt><trkpt lat="42.38300280843093" lon="11.156812586050169"><ele>216.0</ele><time>2026-04-25T08:58:01.999Z</time></trkpt><trkpt lat="42.38293701082029" lon="11.156837486810296"><ele>216.0</ele><time>2026-04-25T08:58:02.999Z</time></trkpt><trkpt lat="42.38285606964257" lon="11.156871919289205"><ele>216.0</ele><time>2026-04-25T08:58:04.999Z</time></trkpt><trkpt lat="42.382796843566155" lon="11.156910858706219"><ele>216.0</ele><time>2026-04-25T08:58:21.999Z</time></trkpt><trkpt lat="42.38287220359147" lon="11.157085178155771"><ele>216.0</ele><time>2026-04-25T08:58:25.999Z</time></trkpt><trkpt lat="42.38292644456096" lon="11.15712981751035"><ele>216.0</ele><time>2026-04-25T08:58:26.999Z</time></trkpt><trkpt lat="42.382987251853656" lon="11.157169860099794"><ele>216.0</ele><time>2026-04-25T08:58:27.999Z</time></trkpt><trkpt lat="42.383064902457406" lon="11.157185394486898"><ele>216.0</ele><time>2026-04-25T08:58:28.999Z</time></trkpt><trkpt lat="42.38312555503114" lon="11.15725610487308"><ele>216.0</ele><time>2026-04-25T08:58:29.999Z</time></trkpt><trkpt lat="42.38318297937421" lon="11.157310529074884"><ele>216.0</ele><time>2026-04-25T08:58:30.999Z</time></trkpt><trkpt lat="42.38322077850587" lon="11.157404266180196"><ele>216.0</ele><time>2026-04-25T08:58:31.999Z</time></trkpt><trkpt lat="42.38325732012973" lon="11.157487124371036"><ele>216.33333333333334</ele><time>2026-04-25T08:58:32.999Z</time></trkpt><trkpt lat="42.38328747343422" lon="11.15758834361628"><ele>216.66666666666669</ele><time>2026-04-25T08:58:33.999Z</time></trkpt><trkpt lat="42.38330467342171" lon="11.157692147442939"><ele>217.0</ele><time>2026-04-25T08:58:34.999Z</time></trkpt><trkpt lat="42.383319606737274" lon="11.157809436553732"><ele>217.33333333333334</ele><time>2026-04-25T08:58:36Z</time></trkpt><trkpt lat="42.383341371537725" lon="11.157927261241898"><ele>217.66666666666669</ele><time>2026-04-25T08:58:37Z</time></trkpt><trkpt lat="42.38337192566328" lon="11.158045627995433"><ele>218.0</ele><time>2026-04-25T08:58:38Z</time></trkpt><trkpt lat="42.38341653785619" lon="11.158151528039813"><ele>215.2</ele><time>2026-04-25T08:58:39Z</time></trkpt><trkpt lat="42.38347300255871" lon="11.158253704749002"><ele>212.4</ele><time>2026-04-25T08:58:40Z</time></trkpt><trkpt lat="42.383528378521156" lon="11.1583553036677"><ele>209.6</ele><time>2026-04-25T08:58:41Z</time></trkpt><trkpt lat="42.38355322387484" lon="11.158475131266568"><ele>206.79999999999998</ele><time>2026-04-25T08:58:42Z</time></trkpt><trkpt lat="42.383599095588856" lon="11.158582225186883"><ele>204.0</ele><time>2026-04-25T08:58:43Z</time></trkpt><trkpt lat="42.38362147650304" lon="11.158696702658078"><ele>204.0</ele><time>2026-04-25T08:58:44Z</time></trkpt><trkpt lat="42.38362262270872" lon="11.158801336278714"><ele>204.0</ele><time>2026-04-25T08:58:45Z</time></trkpt><trkpt lat="42.38363349466636" lon="11.158933460589688"><ele>204.0</ele><time>2026-04-25T08:58:47Z</time></trkpt><trkpt lat="42.38358331166536" lon="11.159012760792622"><ele>204.0</ele><time>2026-04-25T08:58:49Z</time></trkpt><trkpt lat="42.383497281825825" lon="11.159029647735062"><ele>204.0</ele><time>2026-04-25T08:58:51Z</time></trkpt><trkpt lat="42.38336810840053" lon="11.15896511060569"><ele>204.0</ele><time>2026-04-25T08:58:53Z</time></trkpt><trkpt lat="42.38329300723726" lon="11.15889616121107"><ele>204.0</ele><time>2026-04-25T08:58:54Z</time></trkpt><trkpt lat="42.383212612324726" lon="11.15885046666513"><ele>204.0</ele><time>2026-04-25T08:58:55Z</time></trkpt><trkpt lat="42.383131894998165" lon="11.158806212659954"><ele>204.0</ele><time>2026-04-25T08:58:56Z</time></trkpt><trkpt lat="42.38304231109821" lon="11.158768271070942"><ele>204.0</ele><time>2026-04-25T08:58:57Z</time></trkpt><trkpt lat="42.38294561717819" lon="11.158749995756322"><ele>201.5</ele><time>2026-04-25T08:58:58Z</time></trkpt><trkpt lat="42.38284630318312" lon="11.158734767997988"><ele>199.0</ele><time>2026-04-25T08:58:59Z</time></trkpt><trkpt lat="42.382752306148504" lon="11.158736876503903"><ele>196.5</ele><time>2026-04-25T08:59:00Z</time></trkpt><trkpt lat="42.38266697112619" lon="11.158759361052386"><ele>194.0</ele><time>2026-04-25T08:59:01Z</time></trkpt><trkpt lat="42.38258051366774" lon="11.158772454410956"><ele>191.5</ele><time>2026-04-25T08:59:02Z</time></trkpt><trkpt lat="42.3825116467708" lon="11.15879884892832"><ele>189.0</ele><time>2026-04-25T08:59:03Z</time></trkpt><trkpt lat="42.38244914056904" lon="11.15885925309497"><ele>189.0</ele><time>2026-04-25T08:59:04Z</time></trkpt><trkpt lat="42.38240228974876" lon="11.158917422557177"><ele>189.0</ele><time>2026-04-25T08:59:05Z</time></trkpt><trkpt lat="42.38232380082864" lon="11.15892534449958"><ele>189.0</ele><time>2026-04-25T08:59:07Z</time></trkpt><trkpt lat="42.382229903034116" lon="11.158816288687438"><ele>189.0</ele><time>2026-04-25T08:59:09Z</time></trkpt><trkpt lat="42.38217337893311" lon="11.158759698334103"><ele>189.0</ele><time>2026-04-25T08:59:10Z</time></trkpt><trkpt lat="42.38209891064651" lon="11.15873692238337"><ele>189.0</ele><time>2026-04-25T08:59:11Z</time></trkpt><trkpt lat="42.38203795890405" lon="11.158766285749387"><ele>187.79999999999998</ele><time>2026-04-25T08:59:12Z</time></trkpt><trkpt lat="42.38193673347723" lon="11.158804751977987"><ele>186.6</ele><time>2026-04-25T08:59:13Z</time></trkpt><trkpt lat="42.381833612158445" lon="11.1588223670069"><ele>185.4</ele><time>2026-04-25T08:59:14Z</time></trkpt><trkpt lat="42.38174446738914" lon="11.158815036750353"><ele>184.2</ele><time>2026-04-25T08:59:15Z</time></trkpt><trkpt lat="42.38165887890846" lon="11.158781716019803"><ele>183.0</ele><time>2026-04-25T08:59:16Z</time></trkpt><trkpt lat="42.381570920022995" lon="11.158733780656508"><ele>183.0</ele><time>2026-04-25T08:59:17Z</time></trkpt><trkpt lat="42.38147802027851" lon="11.158678705932063"><ele>183.0</ele><time>2026-04-25T08:59:18Z</time></trkpt><trkpt lat="42.38136863783574" lon="11.158609961367727"><ele>183.0</ele><time>2026-04-25T08:59:19Z</time></trkpt><trkpt lat="42.381261903742484" lon="11.158535012391283"><ele>183.0</ele><time>2026-04-25T08:59:20Z</time></trkpt><trkpt lat="42.38116049400031" lon="11.158456707252682"><ele>182.4</ele><time>2026-04-25T08:59:21Z</time></trkpt><trkpt lat="42.38106692321924" lon="11.158370753507784"><ele>181.8</ele><time>2026-04-25T08:59:21.999Z</time></trkpt><trkpt lat="42.380954042307394" lon="11.158252697344082"><ele>181.2</ele><time>2026-04-25T08:59:22.999Z</time></trkpt><trkpt lat="42.38087317130903" lon="11.158165767715118"><ele>180.6</ele><time>2026-04-25T08:59:23.999Z</time></trkpt><trkpt lat="42.380815906918485" lon="11.158086950973592"><ele>180.0</ele><time>2026-04-25T08:59:24.999Z</time></trkpt><trkpt lat="42.38075063693569" lon="11.158022207461196"><ele>180.0</ele><time>2026-04-25T08:59:25.999Z</time></trkpt><trkpt lat="42.38066220574037" lon="11.15799716522507"><ele>180.0</ele><time>2026-04-25T08:59:26.999Z</time></trkpt><trkpt lat="42.380572277433934" lon="11.15796970560102"><ele>180.0</ele><time>2026-04-25T08:59:27.999Z</time></trkpt><trkpt lat="42.380467069373715" lon="11.157950894285683"><ele>180.0</ele><time>2026-04-25T08:59:28.999Z</time></trkpt><trkpt lat="42.380382757426446" lon="11.157932216361045"><ele>180.0</ele><time>2026-04-25T08:59:29.999Z</time></trkpt><trkpt lat="42.380294103756164" lon="11.157946381806958"><ele>181.33333333333334</ele><time>2026-04-25T08:59:30.999Z</time></trkpt><trkpt lat="42.38021468099175" lon="11.157961493143475"><ele>182.66666666666666</ele><time>2026-04-25T08:59:31.999Z</time></trkpt><trkpt lat="42.38013343490198" lon="11.157989257021661"><ele>184.0</ele><time>2026-04-25T08:59:32.999Z</time></trkpt><trkpt lat="42.380051004732955" lon="11.15797749300094"><ele>185.33333333333331</ele><time>2026-04-25T08:59:33.999Z</time></trkpt><trkpt lat="42.37995633326494" lon="11.157992365013529"><ele>186.66666666666666</ele><time>2026-04-25T08:59:34.999Z</time></trkpt><trkpt lat="42.37986682903662" lon="11.157972777471274"><ele>188.0</ele><time>2026-04-25T08:59:35.999Z</time></trkpt><trkpt lat="42.37977659969357" lon="11.157996373706252"><ele>190.2</ele><time>2026-04-25T08:59:36.999Z</time></trkpt><trkpt lat="42.379677038160445" lon="11.15804504215219"><ele>192.4</ele><time>2026-04-25T08:59:37.999Z</time></trkpt><trkpt lat="42.379569681243325" lon="11.158045821775913"><ele>194.6</ele><time>2026-04-25T08:59:38.999Z</time></trkpt><trkpt lat="42.37948031886071" lon="11.158051801508375"><ele>196.79999999999998</ele><time>2026-04-25T08:59:39.999Z</time></trkpt><trkpt lat="42.37940022303467" lon="11.158062168492258"><ele>199.0</ele><time>2026-04-25T08:59:40.999Z</time></trkpt><trkpt lat="42.379323956475766" lon="11.158023862880288"><ele>198.99999999999997</ele><time>2026-04-25T08:59:41.999Z</time></trkpt><trkpt lat="42.379250369392636" lon="11.157999630036878"><ele>199.0</ele><time>2026-04-25T08:59:42.999Z</time></trkpt><trkpt lat="42.379183841912194" lon="11.157939244749896"><ele>199.0</ele><time>2026-04-25T08:59:43.999Z</time></trkpt><trkpt lat="42.379124687926335" lon="11.157863075631319"><ele>199.0</ele><time>2026-04-25T08:59:44.999Z</time></trkpt><trkpt lat="42.37908225344396" lon="11.157718292315748"><ele>198.99999999999997</ele><time>2026-04-25T08:59:46.999Z</time></trkpt><trkpt lat="42.37906449186368" lon="11.157627446094201"><ele>199.0</ele><time>2026-04-25T08:59:47.999Z</time></trkpt><trkpt lat="42.37903254127352" lon="11.157440501461585"><ele>197.2</ele><time>2026-04-25T08:59:49.999Z</time></trkpt><trkpt lat="42.379006887548044" lon="11.157340496283256"><ele>195.39999999999998</ele><time>2026-04-25T08:59:50.999Z</time></trkpt><trkpt lat="42.37892364811249" lon="11.157194414296592"><ele>193.6</ele><time>2026-04-25T08:59:52.999Z</time></trkpt><trkpt lat="42.37884271540802" lon="11.157120551791571"><ele>191.8</ele><time>2026-04-25T08:59:53.999Z</time></trkpt><trkpt lat="42.37876614886617" lon="11.157049089444744"><ele>190.0</ele><time>2026-04-25T08:59:54.999Z</time></trkpt><trkpt lat="42.37869116113709" lon="11.156985197488682"><ele>194.33333333333334</ele><time>2026-04-25T08:59:55.999Z</time></trkpt><trkpt lat="42.37863293771805" lon="11.156942624315386"><ele>198.66666666666669</ele><time>2026-04-25T08:59:56.999Z</time></trkpt><trkpt lat="42.37854789066691" lon="11.156882103845179"><ele>203.0</ele><time>2026-04-25T08:59:58.999Z</time></trkpt><trkpt lat="42.378486934127494" lon="11.156839513723263"><ele>207.33333333333334</ele><time>2026-04-25T08:59:59.999Z</time></trkpt><trkpt lat="42.37842543845883" lon="11.156793331206872"><ele>211.66666666666666</ele><time>2026-04-25T09:00:00.999Z</time></trkpt><trkpt lat="42.37833354727236" lon="11.15671326326933"><ele>216.0</ele><time>2026-04-25T09:00:02.999Z</time></trkpt><trkpt lat="42.3782401430701" lon="11.156610933584808"><ele>213.8</ele><time>2026-04-25T09:00:04.999Z</time></trkpt><trkpt lat="42.37821740548395" lon="11.156518824228227"><ele>211.60000000000002</ele><time>2026-04-25T09:00:05.999Z</time></trkpt><trkpt lat="42.378192808998286" lon="11.156439144220926"><ele>209.4</ele><time>2026-04-25T09:00:06.999Z</time></trkpt><trkpt lat="42.378169460320386" lon="11.156272686339308"><ele>207.2</ele><time>2026-04-25T09:00:08.999Z</time></trkpt><trkpt lat="42.378167630041" lon="11.156157955535472"><ele>205.0</ele><time>2026-04-25T09:00:10.999Z</time></trkpt><trkpt lat="42.37812884658059" lon="11.15598744740626"><ele>205.0</ele><time>2026-04-25T09:00:12.999Z</time></trkpt><trkpt lat="42.3780875781358" lon="11.155911501466212"><ele>205.0</ele><time>2026-04-25T09:00:13.999Z</time></trkpt><trkpt lat="42.378041084249794" lon="11.155826586620774"><ele>205.0</ele><time>2026-04-25T09:00:14.999Z</time></trkpt><trkpt lat="42.37797871723041" lon="11.155723587669955"><ele>205.0</ele><time>2026-04-25T09:00:16.999Z</time></trkpt><trkpt lat="42.37791671495301" lon="11.155639872198593"><ele>205.0</ele><time>2026-04-25T09:00:17.999Z</time></trkpt><trkpt lat="42.37779563935288" lon="11.15555264760287"><ele>204.49999999999997</ele><time>2026-04-25T09:00:19.999Z</time></trkpt><trkpt lat="42.3777388051835" lon="11.155488473495733"><ele>204.0</ele><time>2026-04-25T09:00:20.999Z</time></trkpt><trkpt lat="42.37766032278134" lon="11.155445350631641"><ele>203.5</ele><time>2026-04-25T09:00:21.999Z</time></trkpt><trkpt lat="42.37757119332205" lon="11.155422823313636"><ele>203.0</ele><time>2026-04-25T09:00:22.999Z</time></trkpt><trkpt lat="42.37748018008034" lon="11.15542949981283"><ele>202.49999999999997</ele><time>2026-04-25T09:00:23.999Z</time></trkpt><trkpt lat="42.37739800088064" lon="11.155444407932844"><ele>202.0</ele><time>2026-04-25T09:00:24.999Z</time></trkpt><trkpt lat="42.37731140425328" lon="11.155499898329769"><ele>201.99999999999997</ele><time>2026-04-25T09:00:25.999Z</time></trkpt><trkpt lat="42.377221844948785" lon="11.155531555106172"><ele>202.0</ele><time>2026-04-25T09:00:26.999Z</time></trkpt><trkpt lat="42.377137266185755" lon="11.155568364826967"><ele>202.0</ele><time>2026-04-25T09:00:27.999Z</time></trkpt><trkpt lat="42.37705016057269" lon="11.155606078658872"><ele>202.0</ele><time>2026-04-25T09:00:28.999Z</time></trkpt><trkpt lat="42.37697133583836" lon="11.155653772678265"><ele>201.99999999999997</ele><time>2026-04-25T09:00:29.999Z</time></trkpt><trkpt lat="42.37689567491289" lon="11.155688506895045"><ele>202.0</ele><time>2026-04-25T09:00:30.999Z</time></trkpt><trkpt lat="42.376780027750264" lon="11.155755692622279"><ele>201.83333333333331</ele><time>2026-04-25T09:00:32.999Z</time></trkpt><trkpt lat="42.37671073966974" lon="11.155704087002391"><ele>201.66666666666666</ele><time>2026-04-25T09:00:33.999Z</time></trkpt><trkpt lat="42.376647678219754" lon="11.155681647751765"><ele>201.5</ele><time>2026-04-25T09:00:34.999Z</time></trkpt><trkpt lat="42.376557954202134" lon="11.155692760096672"><ele>201.33333333333331</ele><time>2026-04-25T09:00:35.999Z</time></trkpt><trkpt lat="42.37649451261774" lon="11.155687140774386"><ele>201.16666666666666</ele><time>2026-04-25T09:00:36.999Z</time></trkpt><trkpt lat="42.37640910808535" lon="11.1557662004178"><ele>201.0</ele><time>2026-04-25T09:00:38.999Z</time></trkpt><trkpt lat="42.37636747959256" lon="11.155839432759178"><ele>204.66666666666666</ele><time>2026-04-25T09:00:39.999Z</time></trkpt><trkpt lat="42.37632088711268" lon="11.155902248351438"><ele>208.33333333333331</ele><time>2026-04-25T09:00:40.999Z</time></trkpt><trkpt lat="42.376249429050475" lon="11.155926339560713"><ele>212.0</ele><time>2026-04-25T09:00:43Z</time></trkpt><trkpt lat="42.37617036341363" lon="11.155933546984242"><ele>215.66666666666666</ele><time>2026-04-25T09:00:46Z</time></trkpt><trkpt lat="42.37607449517099" lon="11.155923456832019"><ele>219.33333333333331</ele><time>2026-04-25T09:00:48Z</time></trkpt><trkpt lat="42.37596061622546" lon="11.155989128981219"><ele>223.0</ele><time>2026-04-25T09:00:50Z</time></trkpt><trkpt lat="42.37590633871239" lon="11.156046682462469"><ele>222.99999999999997</ele><time>2026-04-25T09:00:51Z</time></trkpt><trkpt lat="42.37584458833385" lon="11.156117536994719"><ele>223.0</ele><time>2026-04-25T09:00:52Z</time></trkpt><trkpt lat="42.3757794410275" lon="11.156180742852094"><ele>223.0</ele><time>2026-04-25T09:00:53Z</time></trkpt><trkpt lat="42.375709495180125" lon="11.156250233356198"><ele>223.0</ele><time>2026-04-25T09:00:54Z</time></trkpt><trkpt lat="42.37564397569965" lon="11.1562916455898"><ele>222.99999999999997</ele><time>2026-04-25T09:00:55Z</time></trkpt><trkpt lat="42.37557854602286" lon="11.156329283359923"><ele>223.0</ele><time>2026-04-25T09:00:56Z</time></trkpt><trkpt lat="42.3754918192714" lon="11.156332254752144"><ele>224.4</ele><time>2026-04-25T09:00:57Z</time></trkpt><trkpt lat="42.37538879174806" lon="11.156337799676212"><ele>225.8</ele><time>2026-04-25T09:00:58Z</time></trkpt><trkpt lat="42.37530113231276" lon="11.15635752111996"><ele>227.2</ele><time>2026-04-25T09:00:59Z</time></trkpt><trkpt lat="42.375222404696196" lon="11.156371458837283"><ele>228.6</ele><time>2026-04-25T09:01:00Z</time></trkpt><trkpt lat="42.375109829857884" lon="11.15634446653027"><ele>230.0</ele><time>2026-04-25T09:01:02Z</time></trkpt><trkpt lat="42.375059109685196" lon="11.156238806758292"><ele>230.0</ele><time>2026-04-25T09:01:03Z</time></trkpt><trkpt lat="42.37496785537229" lon="11.156155461221248"><ele>230.0</ele><time>2026-04-25T09:01:04Z</time></trkpt><trkpt lat="42.374873145610984" lon="11.156058252371952"><ele>230.0</ele><time>2026-04-25T09:01:05Z</time></trkpt><trkpt lat="42.37477448761087" lon="11.155972857609257"><ele>230.0</ele><time>2026-04-25T09:01:06Z</time></trkpt><trkpt lat="42.37469428161478" lon="11.155911042312601"><ele>230.0</ele><time>2026-04-25T09:01:07Z</time></trkpt><trkpt lat="42.37462005989907" lon="11.155874400024729"><ele>230.2</ele><time>2026-04-25T09:01:08Z</time></trkpt><trkpt lat="42.37455000080957" lon="11.155873777818387"><ele>230.4</ele><time>2026-04-25T09:01:09Z</time></trkpt><trkpt lat="42.37447878453446" lon="11.155871634891657"><ele>230.60000000000002</ele><time>2026-04-25T09:01:10Z</time></trkpt><trkpt lat="42.37441125361097" lon="11.155963543243969"><ele>230.8</ele><time>2026-04-25T09:01:11Z</time></trkpt><trkpt lat="42.37433633062034" lon="11.15605347098163"><ele>231.0</ele><time>2026-04-25T09:01:12Z</time></trkpt><trkpt lat="42.37424944944673" lon="11.156150053360474"><ele>231.0</ele><time>2026-04-25T09:01:13Z</time></trkpt><trkpt lat="42.37415359984322" lon="11.156232104855487"><ele>231.0</ele><time>2026-04-25T09:01:14Z</time></trkpt><trkpt lat="42.374022496442905" lon="11.156287644371865"><ele>231.0</ele><time>2026-04-25T09:01:15Z</time></trkpt><trkpt lat="42.373919627937624" lon="11.15640999167077"><ele>231.0</ele><time>2026-04-25T09:01:16Z</time></trkpt><trkpt lat="42.37381521083992" lon="11.156509958314178"><ele>228.8</ele><time>2026-04-25T09:01:17Z</time></trkpt><trkpt lat="42.37372067432432" lon="11.156609988769397"><ele>226.60000000000002</ele><time>2026-04-25T09:01:18Z</time></trkpt><trkpt lat="42.373630227041424" lon="11.156698852320558"><ele>224.4</ele><time>2026-04-25T09:01:19Z</time></trkpt><trkpt lat="42.37354928778744" lon="11.156769189763748"><ele>222.2</ele><time>2026-04-25T09:01:20Z</time></trkpt><trkpt lat="42.37348049879517" lon="11.156841289031624"><ele>220.0</ele><time>2026-04-25T09:01:21Z</time></trkpt><trkpt lat="42.3734223812247" lon="11.156943940889493"><ele>220.0</ele><time>2026-04-25T09:01:22Z</time></trkpt><trkpt lat="42.37338738553044" lon="11.157066817352156"><ele>220.0</ele><time>2026-04-25T09:01:23Z</time></trkpt><trkpt lat="42.37335436294931" lon="11.15719777940761"><ele>220.0</ele><time>2026-04-25T09:01:24Z</time></trkpt><trkpt lat="42.37331306210221" lon="11.157316172646576"><ele>220.0</ele><time>2026-04-25T09:01:25Z</time></trkpt><trkpt lat="42.3732688524675" lon="11.157421132746789"><ele>220.0</ele><time>2026-04-25T09:01:26Z</time></trkpt><trkpt lat="42.37321563402112" lon="11.157503287382074"><ele>219.8</ele><time>2026-04-25T09:01:27Z</time></trkpt><trkpt lat="42.373138174329426" lon="11.15752137951076"><ele>219.6</ele><time>2026-04-25T09:01:28Z</time></trkpt><trkpt lat="42.373057376392616" lon="11.157599870789221"><ele>219.39999999999998</ele><time>2026-04-25T09:01:29Z</time></trkpt><trkpt lat="42.37296046686262" lon="11.157672277795104"><ele>219.2</ele><time>2026-04-25T09:01:30Z</time></trkpt><trkpt lat="42.37285833437571" lon="11.157744788017906"><ele>219.0</ele><time>2026-04-25T09:01:31Z</time></trkpt><trkpt lat="42.3727519880037" lon="11.157761835335863"><ele>219.0</ele><time>2026-04-25T09:01:32Z</time></trkpt><trkpt lat="42.372657509857085" lon="11.15780116789914"><ele>219.0</ele><time>2026-04-25T09:01:32.999Z</time></trkpt><trkpt lat="42.372584047966576" lon="11.157864841500997"><ele>219.0</ele><time>2026-04-25T09:01:33.999Z</time></trkpt><trkpt lat="42.372528570781576" lon="11.157913364683857"><ele>219.0</ele><time>2026-04-25T09:01:34.999Z</time></trkpt><trkpt lat="42.37248562617596" lon="11.157984896454034"><ele>219.0</ele><time>2026-04-25T09:01:35.999Z</time></trkpt><trkpt lat="42.37242838344676" lon="11.158109346840552"><ele>219.0</ele><time>2026-04-25T09:01:36.999Z</time></trkpt><trkpt lat="42.37237348243591" lon="11.15821518964841"><ele>221.2</ele><time>2026-04-25T09:01:37.999Z</time></trkpt><trkpt lat="42.37228716103522" lon="11.158250230147065"><ele>223.39999999999998</ele><time>2026-04-25T09:01:38.999Z</time></trkpt><trkpt lat="42.372210032561746" lon="11.15832232625304"><ele>225.6</ele><time>2026-04-25T09:01:39.999Z</time></trkpt><trkpt lat="42.37210849696927" lon="11.158361208416906"><ele>227.8</ele><time>2026-04-25T09:01:40.999Z</time></trkpt><trkpt lat="42.37200790783177" lon="11.158354086095738"><ele>230.0</ele><time>2026-04-25T09:01:41.999Z</time></trkpt><trkpt lat="42.37190439437078" lon="11.158350862145893"><ele>230.00000000000003</ele><time>2026-04-25T09:01:42.999Z</time></trkpt><trkpt lat="42.37180858884544" lon="11.158367456956032"><ele>230.0</ele><time>2026-04-25T09:01:43.999Z</time></trkpt><trkpt lat="42.37172022899856" lon="11.15838346424121"><ele>230.0</ele><time>2026-04-25T09:01:44.999Z</time></trkpt><trkpt lat="42.3716407027601" lon="11.158403023512264"><ele>230.0</ele><time>2026-04-25T09:01:45.999Z</time></trkpt><trkpt lat="42.37156563190204" lon="11.158430054822615"><ele>230.00000000000003</ele><time>2026-04-25T09:01:46.999Z</time></trkpt><trkpt lat="42.371487147342926" lon="11.158435727527772"><ele>230.0</ele><time>2026-04-25T09:01:47.999Z</time></trkpt><trkpt lat="42.37141039776832" lon="11.15846935589249"><ele>227.00000000000003</ele><time>2026-04-25T09:01:48.999Z</time></trkpt><trkpt lat="42.37133640468418" lon="11.158515229591455"><ele>224.0</ele><time>2026-04-25T09:01:49.999Z</time></trkpt><trkpt lat="42.371269985971956" lon="11.158569659968535"><ele>221.0</ele><time>2026-04-25T09:01:50.999Z</time></trkpt><trkpt lat="42.37121143400532" lon="11.158629667430166"><ele>218.0</ele><time>2026-04-25T09:01:51.999Z</time></trkpt><trkpt lat="42.37115960113369" lon="11.15869892017115"><ele>215.00000000000003</ele><time>2026-04-25T09:01:52.999Z</time></trkpt><trkpt lat="42.37113107666516" lon="11.15878692609154"><ele>212.0</ele><time>2026-04-25T09:01:53.999Z</time></trkpt><trkpt lat="42.3710792569049" lon="11.158882479838283"><ele>212.0</ele><time>2026-04-25T09:01:54.999Z</time></trkpt><trkpt lat="42.37099912798039" lon="11.159007045209638"><ele>212.0</ele><time>2026-04-25T09:01:55.999Z</time></trkpt><trkpt lat="42.37091347767746" lon="11.15913605678776"><ele>212.0</ele><time>2026-04-25T09:01:56.999Z</time></trkpt><trkpt lat="42.370830345119096" lon="11.159210360118031"><ele>212.0</ele><time>2026-04-25T09:01:57.999Z</time></trkpt><trkpt lat="42.370756467342275" lon="11.159288449036328"><ele>212.0</ele><time>2026-04-25T09:01:58.999Z</time></trkpt><trkpt lat="42.37068281441833" lon="11.159346699950273"><ele>210.33333333333334</ele><time>2026-04-25T09:01:59.999Z</time></trkpt><trkpt lat="42.37060402607126" lon="11.15942515501028"><ele>208.66666666666669</ele><time>2026-04-25T09:02:00.999Z</time></trkpt><trkpt lat="42.37052109370427" lon="11.159493434034966"><ele>207.0</ele><time>2026-04-25T09:02:01.999Z</time></trkpt><trkpt lat="42.37045956019212" lon="11.159565172962349"><ele>205.33333333333331</ele><time>2026-04-25T09:02:02.999Z</time></trkpt><trkpt lat="42.37041209079987" lon="11.159629038481198"><ele>203.66666666666666</ele><time>2026-04-25T09:02:03.999Z</time></trkpt><trkpt lat="42.37035495345863" lon="11.1597276373148"><ele>202.0</ele><time>2026-04-25T09:02:05.999Z</time></trkpt><trkpt lat="42.37030268484514" lon="11.159788103152081"><ele>201.99999999999997</ele><time>2026-04-25T09:02:07.999Z</time></trkpt><trkpt lat="42.37025957524923" lon="11.159862113742216"><ele>202.0</ele><time>2026-04-25T09:02:10.999Z</time></trkpt><trkpt lat="42.370307993454624" lon="11.159757566562574"><ele>202.0</ele><time>2026-04-25T09:03:35.999Z</time></trkpt><trkpt lat="42.37033509130109" lon="11.159640575083733"><ele>202.0</ele><time>2026-04-25T09:03:38.999Z</time></trkpt><trkpt lat="42.3703778604055" lon="11.159524964693842"><ele>201.99999999999997</ele><time>2026-04-25T09:03:40.999Z</time></trkpt><trkpt lat="42.37043463494567" lon="11.159424218585407"><ele>202.0</ele><time>2026-04-25T09:03:42.999Z</time></trkpt><trkpt lat="42.3705003067774" lon="11.159354897638275"><ele>204.0</ele><time>2026-04-25T09:03:44.999Z</time></trkpt><trkpt lat="42.370581822255886" lon="11.159266071874654"><ele>206.0</ele><time>2026-04-25T09:03:46.999Z</time></trkpt><trkpt lat="42.370669375465184" lon="11.159165680091178"><ele>208.0</ele><time>2026-04-25T09:03:48.999Z</time></trkpt><trkpt lat="42.37073928155225" lon="11.1590326777352"><ele>210.0</ele><time>2026-04-25T09:03:50.999Z</time></trkpt><trkpt lat="42.37080228843756" lon="11.158918080629995"><ele>212.0</ele><time>2026-04-25T09:03:52.999Z</time></trkpt><trkpt lat="42.37083163967984" lon="11.158785641329686"><ele>212.0</ele><time>2026-04-25T09:03:54.999Z</time></trkpt><trkpt lat="42.370872903824335" lon="11.15867075633144"><ele>212.0</ele><time>2026-04-25T09:03:56.999Z</time></trkpt><trkpt lat="42.37088647984524" lon="11.15856834852462"><ele>212.0</ele><time>2026-04-25T09:03:58.999Z</time></trkpt><trkpt lat="42.37087486311145" lon="11.158463244216659"><ele>212.0</ele><time>2026-04-25T09:04:01.999Z</time></trkpt><trkpt lat="42.370739799344115" lon="11.158728158472623"><ele>212.00000000000003</ele><time>2026-04-25T09:04:20.999Z</time></trkpt><trkpt lat="42.370705119616936" lon="11.158816028714096"><ele>212.0</ele><time>2026-04-25T09:04:21.999Z</time></trkpt><trkpt lat="42.37065746497248" lon="11.15890429303526"><ele>212.0</ele><time>2026-04-25T09:04:22.999Z</time></trkpt><trkpt lat="42.37057726859958" lon="11.159026250616646"><ele>212.0</ele><time>2026-04-25T09:04:24.999Z</time></trkpt><trkpt lat="42.37053075484949" lon="11.159084281130198"><ele>212.00000000000003</ele><time>2026-04-25T09:04:25.999Z</time></trkpt><trkpt lat="42.37043884958618" lon="11.159141558096492"><ele>212.0</ele><time>2026-04-25T09:04:27.999Z</time></trkpt><trkpt lat="42.370343682520215" lon="11.159191930040862"><ele>210.0</ele><time>2026-04-25T09:04:29.999Z</time></trkpt><trkpt lat="42.37024701888623" lon="11.159251123350835"><ele>208.0</ele><time>2026-04-25T09:04:31.999Z</time></trkpt><trkpt lat="42.370149383577946" lon="11.159309658344544"><ele>206.0</ele><time>2026-04-25T09:04:33.999Z</time></trkpt><trkpt lat="42.37005918292737" lon="11.15938335051391"><ele>204.0</ele><time>2026-04-25T09:04:35.999Z</time></trkpt><trkpt lat="42.36997817217931" lon="11.159509652910522"><ele>202.0</ele><time>2026-04-25T09:04:37.999Z</time></trkpt><trkpt lat="42.36992704565773" lon="11.159626737185167"><ele>202.0</ele><time>2026-04-25T09:04:39.999Z</time></trkpt><trkpt lat="42.36987507395781" lon="11.159748673474965"><ele>202.0</ele><time>2026-04-25T09:04:41.999Z</time></trkpt><trkpt lat="42.369822221631715" lon="11.15988232795876"><ele>202.0</ele><time>2026-04-25T09:04:43.999Z</time></trkpt><trkpt lat="42.36975677223181" lon="11.159987563211121"><ele>202.0</ele><time>2026-04-25T09:04:45.999Z</time></trkpt><trkpt lat="42.36966110111676" lon="11.1600197219153"><ele>202.0</ele><time>2026-04-25T09:04:47.999Z</time></trkpt><trkpt lat="42.369558850969554" lon="11.159972042479401"><ele>204.0</ele><time>2026-04-25T09:04:49.999Z</time></trkpt><trkpt lat="42.36946763997684" lon="11.159870495049153"><ele>206.0</ele><time>2026-04-25T09:04:51.999Z</time></trkpt><trkpt lat="42.3693810705502" lon="11.159765966432053"><ele>208.0</ele><time>2026-04-25T09:04:54Z</time></trkpt><trkpt lat="42.36927463372179" lon="11.159693188188784"><ele>210.0</ele><time>2026-04-25T09:04:56Z</time></trkpt><trkpt lat="42.3691633775052" lon="11.15961214020554"><ele>208.16666666666666</ele><time>2026-04-25T09:04:58Z</time></trkpt><trkpt lat="42.36909896332034" lon="11.15958848157051"><ele>206.33333333333331</ele><time>2026-04-25T09:04:59Z</time></trkpt><trkpt lat="42.368987120319446" lon="11.159544003968701"><ele>204.5</ele><time>2026-04-25T09:05:01Z</time></trkpt><trkpt lat="42.368928699605235" lon="11.15951184188832"><ele>202.66666666666666</ele><time>2026-04-25T09:05:02Z</time></trkpt><trkpt lat="42.36885960706148" lon="11.159481873047199"><ele>200.83333333333331</ele><time>2026-04-25T09:05:03Z</time></trkpt><trkpt lat="42.36879236817258" lon="11.159462164859812"><ele>199.0</ele><time>2026-04-25T09:05:04Z</time></trkpt><trkpt lat="42.3686666667655" lon="11.159445850125147"><ele>199.0</ele><time>2026-04-25T09:05:06Z</time></trkpt><trkpt lat="42.36854585718745" lon="11.159421230212258"><ele>199.0</ele><time>2026-04-25T09:05:08Z</time></trkpt><trkpt lat="42.368438316624605" lon="11.159393858534322"><ele>199.0</ele><time>2026-04-25T09:05:10Z</time></trkpt><trkpt lat="42.36833324269324" lon="11.159369226981545"><ele>199.0</ele><time>2026-04-25T09:05:12Z</time></trkpt><trkpt lat="42.368227687064994" lon="11.159348801087178"><ele>199.0</ele><time>2026-04-25T09:05:14Z</time></trkpt><trkpt lat="42.368090849964446" lon="11.159324317828442"><ele>199.79999999999998</ele><time>2026-04-25T09:05:16Z</time></trkpt><trkpt lat="42.368013034396334" lon="11.159300667873874"><ele>200.6</ele><time>2026-04-25T09:05:17Z</time></trkpt><trkpt lat="42.36790002297685" lon="11.159259001389175"><ele>201.4</ele><time>2026-04-25T09:05:19Z</time></trkpt><trkpt lat="42.36779902198013" lon="11.159201156037456"><ele>202.2</ele><time>2026-04-25T09:05:21Z</time></trkpt><trkpt lat="42.36769836170352" lon="11.15914331903415"><ele>203.0</ele><time>2026-04-25T09:05:23Z</time></trkpt><trkpt lat="42.36759157383462" lon="11.159074430284575"><ele>198.60000000000002</ele><time>2026-04-25T09:05:25Z</time></trkpt><trkpt lat="42.36753515698353" lon="11.159018553820268"><ele>194.20000000000002</ele><time>2026-04-25T09:05:26Z</time></trkpt><trkpt lat="42.367478588422905" lon="11.158969039462798"><ele>189.8</ele><time>2026-04-25T09:05:27Z</time></trkpt><trkpt lat="42.367374606648454" lon="11.158884763542542"><ele>185.4</ele><time>2026-04-25T09:05:29Z</time></trkpt><trkpt lat="42.367273291864805" lon="11.158779263812166"><ele>181.0</ele><time>2026-04-25T09:05:31Z</time></trkpt><trkpt lat="42.36722830207906" lon="11.15871536755101"><ele>184.25</ele><time>2026-04-25T09:05:32Z</time></trkpt><trkpt lat="42.36712481122419" lon="11.158648279597335"><ele>187.5</ele><time>2026-04-25T09:05:34Z</time></trkpt><trkpt lat="42.3670309706847" lon="11.158594529178577"><ele>190.75</ele><time>2026-04-25T09:05:36Z</time></trkpt><trkpt lat="42.366924790374284" lon="11.15853629728412"><ele>194.0</ele><time>2026-04-25T09:05:38Z</time></trkpt><trkpt lat="42.36681611401453" lon="11.158449471153876"><ele>194.0</ele><time>2026-04-25T09:05:40Z</time></trkpt><trkpt lat="42.36673242712557" lon="11.158323005590677"><ele>194.0</ele><time>2026-04-25T09:05:42Z</time></trkpt><trkpt lat="42.3666287937653" lon="11.15823155920009"><ele>194.0</ele><time>2026-04-25T09:05:44Z</time></trkpt><trkpt lat="42.36657521667737" lon="11.158186651708245"><ele>194.0</ele><time>2026-04-25T09:05:44.999Z</time></trkpt><trkpt lat="42.36648432141201" lon="11.158104321280026"><ele>194.0</ele><time>2026-04-25T09:05:46.999Z</time></trkpt><trkpt lat="42.36640506943489" lon="11.158036878818919"><ele>191.6</ele><time>2026-04-25T09:05:48.999Z</time></trkpt><trkpt lat="42.36632263352925" lon="11.157979442536758"><ele>189.2</ele><time>2026-04-25T09:05:50.999Z</time></trkpt><trkpt lat="42.36624281692596" lon="11.157917209326838"><ele>186.79999999999998</ele><time>2026-04-25T09:05:52.999Z</time></trkpt><trkpt lat="42.36614400578" lon="11.157858012300823"><ele>184.39999999999998</ele><time>2026-04-25T09:05:54.999Z</time></trkpt><trkpt lat="42.36605588134274" lon="11.157766564073775"><ele>182.0</ele><time>2026-04-25T09:05:56.999Z</time></trkpt><trkpt lat="42.36597612090275" lon="11.157673938794014"><ele>182.0</ele><time>2026-04-25T09:05:58.999Z</time></trkpt><trkpt lat="42.36590097995305" lon="11.157602957625752"><ele>182.0</ele><time>2026-04-25T09:06:00.999Z</time></trkpt><trkpt lat="42.36581444860897" lon="11.157539521562482"><ele>182.0</ele><time>2026-04-25T09:06:02.999Z</time></trkpt><trkpt lat="42.36573088767799" lon="11.15748317337246"><ele>182.0</ele><time>2026-04-25T09:06:04.999Z</time></trkpt><trkpt lat="42.3656532825497" lon="11.157407557923"><ele>182.0</ele><time>2026-04-25T09:06:06.999Z</time></trkpt><trkpt lat="42.36556981048494" lon="11.157326501995865"><ele>179.0</ele><time>2026-04-25T09:06:08.999Z</time></trkpt><trkpt lat="42.36549936411666" lon="11.157258374616177"><ele>176.0</ele><time>2026-04-25T09:06:10.999Z</time></trkpt><trkpt lat="42.36541775008202" lon="11.157208370676534"><ele>173.0</ele><time>2026-04-25T09:06:12.999Z</time></trkpt><trkpt lat="42.36532481515295" lon="11.157131954909822"><ele>170.0</ele><time>2026-04-25T09:06:14.999Z</time></trkpt><trkpt lat="42.365222700867655" lon="11.15706146827761"><ele>167.0</ele><time>2026-04-25T09:06:16.999Z</time></trkpt><trkpt lat="42.36510976025354" lon="11.157013119665821"><ele>167.0</ele><time>2026-04-25T09:06:18.999Z</time></trkpt><trkpt lat="42.36500611651162" lon="11.157016532861556"><ele>167.0</ele><time>2026-04-25T09:06:20.999Z</time></trkpt><trkpt lat="42.364920971710724" lon="11.157041962084323"><ele>167.0</ele><time>2026-04-25T09:06:22.999Z</time></trkpt><trkpt lat="42.36485611533081" lon="11.156984570188023"><ele>167.0</ele><time>2026-04-25T09:06:25.999Z</time></trkpt><trkpt lat="42.36485952019221" lon="11.156858868238487"><ele>167.0</ele><time>2026-04-25T09:06:27.999Z</time></trkpt><trkpt lat="42.36483094444582" lon="11.156723944337587"><ele>167.0</ele><time>2026-04-25T09:06:29.999Z</time></trkpt><trkpt lat="42.36482456383716" lon="11.156615074967252"><ele>167.0</ele><time>2026-04-25T09:06:31.999Z</time></trkpt><trkpt lat="42.36489645087238" lon="11.156510412765162"><ele>167.0</ele><time>2026-04-25T09:06:33.999Z</time></trkpt><trkpt lat="42.36498506500284" lon="11.156444026418908"><ele>167.0</ele><time>2026-04-25T09:06:35.999Z</time></trkpt><trkpt lat="42.36507911359697" lon="11.156354729193177"><ele>167.0</ele><time>2026-04-25T09:06:37.999Z</time></trkpt><trkpt lat="42.365160655620365" lon="11.156298912714648"><ele>165.0</ele><time>2026-04-25T09:06:39.999Z</time></trkpt><trkpt lat="42.36524647502485" lon="11.156276054003083"><ele>163.0</ele><time>2026-04-25T09:06:41.999Z</time></trkpt><trkpt lat="42.36532855637977" lon="11.15625927733585"><ele>161.0</ele><time>2026-04-25T09:06:43.999Z</time></trkpt><trkpt lat="42.36539361209177" lon="11.156227840877083"><ele>159.0</ele><time>2026-04-25T09:06:47.999Z</time></trkpt><trkpt lat="42.3653922462559" lon="11.156141386338325"><ele>157.0</ele><time>2026-04-25T09:06:49.999Z</time></trkpt><trkpt lat="42.365346451463964" lon="11.156068426240573"><ele>155.0</ele><time>2026-04-25T09:06:51.999Z</time></trkpt><trkpt lat="42.365303183267095" lon="11.155988339913966"><ele>153.0</ele><time>2026-04-25T09:06:54.999Z</time></trkpt><trkpt lat="42.365297674292584" lon="11.155887783808211"><ele>153.0</ele><time>2026-04-25T09:06:58.999Z</time></trkpt><trkpt lat="42.36526498806213" lon="11.155777326919427"><ele>153.0</ele><time>2026-04-25T09:07:08Z</time></trkpt><trkpt lat="42.36522292161979" lon="11.155672262588304"><ele>153.0</ele><time>2026-04-25T09:07:11Z</time></trkpt><trkpt lat="42.36519916631235" lon="11.15559125526737"><ele>153.0</ele><time>2026-04-25T09:07:13Z</time></trkpt><trkpt lat="42.365111687424054" lon="11.15554587672499"><ele>153.0</ele><time>2026-04-25T09:07:16Z</time></trkpt><trkpt lat="42.36503922415516" lon="11.155557194389402"><ele>153.0</ele><time>2026-04-25T09:07:18Z</time></trkpt><trkpt lat="42.36497749085513" lon="11.155573935251631"><ele>150.16666666666666</ele><time>2026-04-25T09:07:20Z</time></trkpt><trkpt lat="42.36490381912833" lon="11.155580709378972"><ele>147.33333333333334</ele><time>2026-04-25T09:07:22Z</time></trkpt><trkpt lat="42.36481334495986" lon="11.15562521656142"><ele>144.5</ele><time>2026-04-25T09:07:25Z</time></trkpt><trkpt lat="42.36474160630786" lon="11.155643504194886"><ele>141.66666666666669</ele><time>2026-04-25T09:07:27Z</time></trkpt><trkpt lat="42.364661139714116" lon="11.15563659440723"><ele>138.83333333333334</ele><time>2026-04-25T09:07:29Z</time></trkpt><trkpt lat="42.364584659371836" lon="11.155647782329236"><ele>136.0</ele><time>2026-04-25T09:07:31Z</time></trkpt><trkpt lat="42.36451279954004" lon="11.155658206643773"><ele>133.6</ele><time>2026-04-25T09:07:33Z</time></trkpt><trkpt lat="42.36443302494487" lon="11.155651741943553"><ele>131.2</ele><time>2026-04-25T09:07:35Z</time></trkpt><trkpt lat="42.3643597013665" lon="11.1556171192947"><ele>128.8</ele><time>2026-04-25T09:07:37Z</time></trkpt><trkpt lat="42.364270702563545" lon="11.155564890891375"><ele>126.4</ele><time>2026-04-25T09:07:39Z</time></trkpt><trkpt lat="42.364173028436184" lon="11.155548216564204"><ele>124.0</ele><time>2026-04-25T09:07:41Z</time></trkpt><trkpt lat="42.36405554412347" lon="11.155531881623206"><ele>124.0</ele><time>2026-04-25T09:07:43Z</time></trkpt><trkpt lat="42.36393981441505" lon="11.155487323316905"><ele>124.0</ele><time>2026-04-25T09:07:45Z</time></trkpt><trkpt lat="42.363864648861366" lon="11.155453649276469"><ele>124.0</ele><time>2026-04-25T09:07:46Z</time></trkpt><trkpt lat="42.36378741527573" lon="11.15541916718701"><ele>124.0</ele><time>2026-04-25T09:07:47Z</time></trkpt><trkpt lat="42.36369111925171" lon="11.155351007579933"><ele>124.0</ele><time>2026-04-25T09:07:49Z</time></trkpt><trkpt lat="42.36361379320312" lon="11.155301213485455"><ele>122.66666666666667</ele><time>2026-04-25T09:07:50.999Z</time></trkpt><trkpt lat="42.36354756059254" lon="11.155256074587891"><ele>121.33333333333334</ele><time>2026-04-25T09:07:52.999Z</time></trkpt><trkpt lat="42.36348132453629" lon="11.155215079007606"><ele>120.0</ele><time>2026-04-25T09:07:55.999Z</time></trkpt><trkpt lat="42.363537272285605" lon="11.15525893397232"><ele>118.66666666666666</ele><time>2026-04-25T09:56:08Z</time></trkpt><trkpt lat="42.36362389577115" lon="11.155308232656834"><ele>117.33333333333333</ele><time>2026-04-25T09:56:10Z</time></trkpt><trkpt lat="42.36369219875379" lon="11.15534439900304"><ele>116.0</ele><time>2026-04-25T09:56:11Z</time></trkpt><trkpt lat="42.363768310315706" lon="11.15539392217687"><ele>116.00000000000001</ele><time>2026-04-25T09:56:12Z</time></trkpt><trkpt lat="42.36383470016709" lon="11.155434025296223"><ele>116.0</ele><time>2026-04-25T09:56:13Z</time></trkpt><trkpt lat="42.363912294414504" lon="11.15547510991178"><ele>116.00000000000001</ele><time>2026-04-25T09:56:14Z</time></trkpt><trkpt lat="42.36398098503767" lon="11.155499011213806"><ele>116.00000000000001</ele><time>2026-04-25T09:56:15Z</time></trkpt><trkpt lat="42.36404235629606" lon="11.15552043302056"><ele>116.0</ele><time>2026-04-25T09:56:16Z</time></trkpt><trkpt lat="42.36411833434091" lon="11.15554885585184"><ele>116.00000000000001</ele><time>2026-04-25T09:56:17Z</time></trkpt><trkpt lat="42.364188878118505" lon="11.155561991356274"><ele>116.00000000000001</ele><time>2026-04-25T09:56:18Z</time></trkpt><trkpt lat="42.36426673792798" lon="11.155576299458868"><ele>117.33333333333333</ele><time>2026-04-25T09:56:19Z</time></trkpt><trkpt lat="42.36433234825248" lon="11.15560024818627"><ele>118.66666666666666</ele><time>2026-04-25T09:56:20Z</time></trkpt><trkpt lat="42.36439849815335" lon="11.155640366316742"><ele>120.0</ele><time>2026-04-25T09:56:21Z</time></trkpt><trkpt lat="42.364465435864844" lon="11.155656950587971"><ele>121.33333333333334</ele><time>2026-04-25T09:56:22Z</time></trkpt><trkpt lat="42.36458200632181" lon="11.155649445405974"><ele>122.66666666666667</ele><time>2026-04-25T09:56:24Z</time></trkpt><trkpt lat="42.36465592639617" lon="11.155642753316172"><ele>124.0</ele><time>2026-04-25T09:56:25Z</time></trkpt><trkpt lat="42.36476793585905" lon="11.155623629237873"><ele>126.00000000000001</ele><time>2026-04-25T09:56:27Z</time></trkpt><trkpt lat="42.36483828107844" lon="11.15562618491865"><ele>128.0</ele><time>2026-04-25T09:56:28Z</time></trkpt><trkpt lat="42.364931912988624" lon="11.15559732367634"><ele>130.0</ele><time>2026-04-25T09:56:30Z</time></trkpt><trkpt lat="42.364989181963914" lon="11.155556812304397"><ele>132.0</ele><time>2026-04-25T09:56:31Z</time></trkpt><trkpt lat="42.36508399282806" lon="11.155557971814499"><ele>134.0</ele><time>2026-04-25T09:56:33Z</time></trkpt><trkpt lat="42.365206859537366" lon="11.155560621168423"><ele>136.0</ele><time>2026-04-25T09:56:35Z</time></trkpt><trkpt lat="42.365237731594725" lon="11.155660567548892"><ele>139.4</ele><time>2026-04-25T09:56:37.999Z</time></trkpt><trkpt lat="42.36528247578894" lon="11.155786359317728"><ele>142.8</ele><time>2026-04-25T09:56:39.999Z</time></trkpt><trkpt lat="42.365308168568184" lon="11.15587901864947"><ele>146.20000000000002</ele><time>2026-04-25T09:56:41.999Z</time></trkpt><trkpt lat="42.36530231453743" lon="11.156018840135632"><ele>149.6</ele><time>2026-04-25T09:56:43.999Z</time></trkpt><trkpt lat="42.365346950434116" lon="11.156104999234401"><ele>153.0</ele><time>2026-04-25T09:56:45.999Z</time></trkpt><trkpt lat="42.36541959834692" lon="11.156217882454438"><ele>153.0</ele><time>2026-04-25T09:56:47.999Z</time></trkpt><trkpt lat="42.365336319094844" lon="11.156293136742049"><ele>153.0</ele><time>2026-04-25T09:56:56.999Z</time></trkpt><trkpt lat="42.365264298510475" lon="11.15626499206524"><ele>153.0</ele><time>2026-04-25T09:56:58.999Z</time></trkpt><trkpt lat="42.36515598855163" lon="11.156303320921912"><ele>153.0</ele><time>2026-04-25T09:57:00.999Z</time></trkpt><trkpt lat="42.36506072836359" lon="11.156367774395173"><ele>153.0</ele><time>2026-04-25T09:57:02.999Z</time></trkpt><trkpt lat="42.365007253077394" lon="11.156413368546321"><ele>153.0</ele><time>2026-04-25T09:57:03.999Z</time></trkpt><trkpt lat="42.364953617481305" lon="11.156469346934635"><ele>153.0</ele><time>2026-04-25T09:57:04.999Z</time></trkpt><trkpt lat="42.364888531020355" lon="11.156540507868502"><ele>153.0</ele><time>2026-04-25T09:57:05.999Z</time></trkpt><trkpt lat="42.36483459604369" lon="11.156608320284501"><ele>153.0</ele><time>2026-04-25T09:57:07.999Z</time></trkpt><trkpt lat="42.36479441815052" lon="11.156707420023261"><ele>153.0</ele><time>2026-04-25T09:57:08.999Z</time></trkpt><trkpt lat="42.36483855345123" lon="11.156863788240749"><ele>153.0</ele><time>2026-04-25T09:57:10.999Z</time></trkpt><trkpt lat="42.36486526174743" lon="11.156950331352144"><ele>155.8</ele><time>2026-04-25T09:57:11.999Z</time></trkpt><trkpt lat="42.36489552644067" lon="11.157081887328392"><ele>158.60000000000002</ele><time>2026-04-25T09:57:13.999Z</time></trkpt><trkpt lat="42.365010897313105" lon="11.157048228868668"><ele>161.39999999999998</ele><time>2026-04-25T09:57:16.999Z</time></trkpt><trkpt lat="42.36507536348366" lon="11.157012444783247"><ele>164.2</ele><time>2026-04-25T09:57:18Z</time></trkpt><trkpt lat="42.36521265760037" lon="11.157044506987107"><ele>167.0</ele><time>2026-04-25T09:57:20Z</time></trkpt><trkpt lat="42.365293446960266" lon="11.157081285878094"><ele>167.0</ele><time>2026-04-25T09:57:21Z</time></trkpt><trkpt lat="42.365367419556904" lon="11.157138807822362"><ele>167.0</ele><time>2026-04-25T09:57:22Z</time></trkpt><trkpt lat="42.36542733185623" lon="11.157203085059773"><ele>167.0</ele><time>2026-04-25T09:57:23Z</time></trkpt><trkpt lat="42.365497874554215" lon="11.157256689359523"><ele>167.0</ele><time>2026-04-25T09:57:24Z</time></trkpt><trkpt lat="42.3655738383248" lon="11.15730857989472"><ele>167.0</ele><time>2026-04-25T09:57:25Z</time></trkpt><trkpt lat="42.365652784753436" lon="11.157379842000147"><ele>167.0</ele><time>2026-04-25T09:57:26Z</time></trkpt><trkpt lat="42.36572980209951" lon="11.157463703506405"><ele>170.0</ele><time>2026-04-25T09:57:27Z</time></trkpt><trkpt lat="42.365823647598454" lon="11.15754409572519"><ele>173.0</ele><time>2026-04-25T09:57:28Z</time></trkpt><trkpt lat="42.36591823280625" lon="11.157607752605566"><ele>176.0</ele><time>2026-04-25T09:57:29Z</time></trkpt><trkpt lat="42.36598361995303" lon="11.157654573859539"><ele>179.0</ele><time>2026-04-25T09:57:30Z</time></trkpt><trkpt lat="42.36604689744578" lon="11.157729462071984"><ele>182.0</ele><time>2026-04-25T09:57:31Z</time></trkpt><trkpt lat="42.36613934150864" lon="11.157832691864135"><ele>182.0</ele><time>2026-04-25T09:57:32Z</time></trkpt><trkpt lat="42.366245365900426" lon="11.157925777915217"><ele>182.0</ele><time>2026-04-25T09:57:33Z</time></trkpt><trkpt lat="42.36635045202162" lon="11.158000784595304"><ele>182.0</ele><time>2026-04-25T09:57:34Z</time></trkpt><trkpt lat="42.366456706928645" lon="11.158080731511188"><ele>182.0</ele><time>2026-04-25T09:57:35Z</time></trkpt><trkpt lat="42.36655375548716" lon="11.158155525651615"><ele>184.39999999999998</ele><time>2026-04-25T09:57:36Z</time></trkpt><trkpt lat="42.36664386863948" lon="11.158238704892078"><ele>186.79999999999998</ele><time>2026-04-25T09:57:37Z</time></trkpt><trkpt lat="42.366747855513076" lon="11.158316726057658"><ele>189.2</ele><time>2026-04-25T09:57:38Z</time></trkpt><trkpt lat="42.36684362365837" lon="11.158419899094215"><ele>191.6</ele><time>2026-04-25T09:57:39Z</time></trkpt><trkpt lat="42.36691107127121" lon="11.158515715843848"><ele>194.0</ele><time>2026-04-25T09:57:40Z</time></trkpt><trkpt lat="42.36699028955292" lon="11.158587735927323"><ele>194.00000000000003</ele><time>2026-04-25T09:57:41Z</time></trkpt><trkpt lat="42.367077992277515" lon="11.158612145933725"><ele>194.0</ele><time>2026-04-25T09:57:42Z</time></trkpt><trkpt lat="42.36715063652705" lon="11.158662028886805"><ele>194.0</ele><time>2026-04-25T09:57:43Z</time></trkpt><trkpt lat="42.36722968045871" lon="11.15871156220206"><ele>194.0</ele><time>2026-04-25T09:57:44Z</time></trkpt><trkpt lat="42.36728749246685" lon="11.158763691083815"><ele>194.00000000000003</ele><time>2026-04-25T09:57:45Z</time></trkpt><trkpt lat="42.36733513604916" lon="11.15883766526618"><ele>194.0</ele><time>2026-04-25T09:57:46Z</time></trkpt><trkpt lat="42.36746538511411" lon="11.158957630722618"><ele>195.79999999999998</ele><time>2026-04-25T09:57:48Z</time></trkpt><trkpt lat="42.36755999194156" lon="11.159036341250818"><ele>197.6</ele><time>2026-04-25T09:57:49Z</time></trkpt><trkpt lat="42.36765101329598" lon="11.159100374095024"><ele>199.4</ele><time>2026-04-25T09:57:50Z</time></trkpt><trkpt lat="42.36775175294722" lon="11.159162776324525"><ele>201.2</ele><time>2026-04-25T09:57:51Z</time></trkpt><trkpt lat="42.36784121316924" lon="11.159216748200924"><ele>203.0</ele><time>2026-04-25T09:57:52Z</time></trkpt><trkpt lat="42.367921460345556" lon="11.15924587266933"><ele>203.00000000000003</ele><time>2026-04-25T09:57:53Z</time></trkpt><trkpt lat="42.36800180856185" lon="11.15928917105167"><ele>203.0</ele><time>2026-04-25T09:57:54Z</time></trkpt><trkpt lat="42.368086949817844" lon="11.159314314203906"><ele>203.0</ele><time>2026-04-25T09:57:55Z</time></trkpt><trkpt lat="42.36817008624281" lon="11.159331033225522"><ele>203.0</ele><time>2026-04-25T09:57:56Z</time></trkpt><trkpt lat="42.368261883542885" lon="11.159335360510324"><ele>203.00000000000003</ele><time>2026-04-25T09:57:57Z</time></trkpt><trkpt lat="42.36834453942635" lon="11.159348686402103"><ele>203.0</ele><time>2026-04-25T09:57:58Z</time></trkpt><trkpt lat="42.36842672126562" lon="11.159370334339988"><ele>202.33333333333334</ele><time>2026-04-25T09:57:59Z</time></trkpt><trkpt lat="42.368503631208384" lon="11.159381971024501"><ele>201.66666666666669</ele><time>2026-04-25T09:58:00Z</time></trkpt><trkpt lat="42.36856876407159" lon="11.159401381964413"><ele>201.0</ele><time>2026-04-25T09:58:01Z</time></trkpt><trkpt lat="42.36866392007678" lon="11.159436797199007"><ele>200.33333333333331</ele><time>2026-04-25T09:58:02Z</time></trkpt><trkpt lat="42.368764561600145" lon="11.159455141642127"><ele>199.66666666666666</ele><time>2026-04-25T09:58:03Z</time></trkpt><trkpt lat="42.368860742067035" lon="11.159477693086625"><ele>199.0</ele><time>2026-04-25T09:58:04Z</time></trkpt><trkpt lat="42.36895861604011" lon="11.159503752645131"><ele>197.79999999999998</ele><time>2026-04-25T09:58:05Z</time></trkpt><trkpt lat="42.36905170090584" lon="11.159546955756882"><ele>196.6</ele><time>2026-04-25T09:58:06Z</time></trkpt><trkpt lat="42.36915772657473" lon="11.159603544934495"><ele>195.4</ele><time>2026-04-25T09:58:07Z</time></trkpt><trkpt lat="42.369240988311496" lon="11.159653613851646"><ele>194.2</ele><time>2026-04-25T09:58:08Z</time></trkpt><trkpt lat="42.36932186391206" lon="11.159710297413001"><ele>193.0</ele><time>2026-04-25T09:58:09Z</time></trkpt><trkpt lat="42.36940064695846" lon="11.159772877862729"><ele>192.99999999999997</ele><time>2026-04-25T09:58:10Z</time></trkpt><trkpt lat="42.369472594595436" lon="11.159843203348288"><ele>193.0</ele><time>2026-04-25T09:58:11Z</time></trkpt><trkpt lat="42.36954206858246" lon="11.159915099304754"><ele>193.0</ele><time>2026-04-25T09:58:12Z</time></trkpt><trkpt lat="42.369608637650884" lon="11.159988453598494"><ele>193.0</ele><time>2026-04-25T09:58:13Z</time></trkpt><trkpt lat="42.36966925964859" lon="11.160023915774367"><ele>192.99999999999997</ele><time>2026-04-25T09:58:14Z</time></trkpt><trkpt lat="42.36975000158256" lon="11.16000311728735"><ele>193.0</ele><time>2026-04-25T09:58:16Z</time></trkpt><trkpt lat="42.369805036079775" lon="11.159907938812987"><ele>194.49999999999997</ele><time>2026-04-25T09:58:18Z</time></trkpt><trkpt lat="42.36985483397099" lon="11.159818512657411"><ele>196.0</ele><time>2026-04-25T09:58:19Z</time></trkpt><trkpt lat="42.36989424895792" lon="11.159718451584846"><ele>197.5</ele><time>2026-04-25T09:58:20Z</time></trkpt><trkpt lat="42.36994020467546" lon="11.159609383992946"><ele>199.0</ele><time>2026-04-25T09:58:21Z</time></trkpt><trkpt lat="42.36998779223501" lon="11.159513126021801"><ele>200.49999999999997</ele><time>2026-04-25T09:58:22Z</time></trkpt><trkpt lat="42.37003393474089" lon="11.159407515690942"><ele>202.0</ele><time>2026-04-25T09:58:23Z</time></trkpt><trkpt lat="42.37009011119285" lon="11.159327832539555"><ele>202.0</ele><time>2026-04-25T09:58:24Z</time></trkpt><trkpt lat="42.37016247643063" lon="11.15927573869554"><ele>202.0</ele><time>2026-04-25T09:58:25Z</time></trkpt><trkpt lat="42.37023731706079" lon="11.159246010356894"><ele>202.0</ele><time>2026-04-25T09:58:26Z</time></trkpt><trkpt lat="42.37031753710551" lon="11.15920188407201"><ele>202.0</ele><time>2026-04-25T09:58:27Z</time></trkpt><trkpt lat="42.37040707778666" lon="11.159158386004808"><ele>202.0</ele><time>2026-04-25T09:58:28Z</time></trkpt><trkpt lat="42.370506163579485" lon="11.159099804661832"><ele>204.5</ele><time>2026-04-25T09:58:29Z</time></trkpt><trkpt lat="42.37058483700903" lon="11.159032453260005"><ele>207.0</ele><time>2026-04-25T09:58:30Z</time></trkpt><trkpt lat="42.370738497058596" lon="11.159068697791476"><ele>209.5</ele><time>2026-04-25T09:58:31Z</time></trkpt><trkpt lat="42.37079354912148" lon="11.1589326348721"><ele>212.0</ele><time>2026-04-25T09:58:32Z</time></trkpt><trkpt lat="42.37084375731643" lon="11.158807865360451"><ele>212.00000000000003</ele><time>2026-04-25T09:58:33Z</time></trkpt><trkpt lat="42.370872476608476" lon="11.15867804929336"><ele>212.0</ele><time>2026-04-25T09:58:34Z</time></trkpt><trkpt lat="42.37088517211746" lon="11.15858749738926"><ele>212.0</ele><time>2026-04-25T09:58:35Z</time></trkpt><trkpt lat="42.370886954033494" lon="11.158480141341789"><ele>212.0</ele><time>2026-04-25T09:58:38Z</time></trkpt><trkpt lat="42.370902064727225" lon="11.158568722645716"><ele>212.00000000000003</ele><time>2026-04-25T09:58:41.999Z</time></trkpt><trkpt lat="42.37087667414221" lon="11.158675877379737"><ele>212.0</ele><time>2026-04-25T09:58:42.999Z</time></trkpt><trkpt lat="42.37083982670511" lon="11.158783404219673"><ele>212.0</ele><time>2026-04-25T09:58:43.999Z</time></trkpt><trkpt lat="42.37080852389445" lon="11.158893846713834"><ele>212.0</ele><time>2026-04-25T09:58:44.999Z</time></trkpt><trkpt lat="42.370772778556464" lon="11.159012553382523"><ele>212.0</ele><time>2026-04-25T09:58:45.999Z</time></trkpt><trkpt lat="42.37069707488351" lon="11.159109995169134"><ele>212.0</ele><time>2026-04-25T09:58:46.999Z</time></trkpt><trkpt lat="42.37064892603918" lon="11.159247926079937"><ele>212.0</ele><time>2026-04-25T09:58:47.999Z</time></trkpt><trkpt lat="42.37054682169043" lon="11.159332581718822"><ele>210.0</ele><time>2026-04-25T09:58:48.999Z</time></trkpt><trkpt lat="42.37044953769199" lon="11.159416732417068"><ele>208.0</ele><time>2026-04-25T09:58:49.999Z</time></trkpt><trkpt lat="42.370364582316576" lon="11.15948947859923"><ele>206.0</ele><time>2026-04-25T09:58:50.999Z</time></trkpt><trkpt lat="42.37031534616615" lon="11.159583184549252"><ele>204.0</ele><time>2026-04-25T09:58:51.999Z</time></trkpt><trkpt lat="42.37029122364154" lon="11.159689046776993"><ele>202.0</ele><time>2026-04-25T09:58:52.999Z</time></trkpt><trkpt lat="42.37028145620034" lon="11.159823233231913"><ele>204.6</ele><time>2026-04-25T09:58:53.999Z</time></trkpt><trkpt lat="42.37030278847971" lon="11.159924961660757"><ele>207.2</ele><time>2026-04-25T09:58:54.999Z</time></trkpt><trkpt lat="42.370330755158825" lon="11.160045750667596"><ele>209.8</ele><time>2026-04-25T09:58:55.999Z</time></trkpt><trkpt lat="42.370368539287334" lon="11.160184275654473"><ele>212.4</ele><time>2026-04-25T09:58:56.999Z</time></trkpt><trkpt lat="42.37042876533377" lon="11.160346386333538"><ele>215.0</ele><time>2026-04-25T09:58:57.999Z</time></trkpt><trkpt lat="42.37047559994401" lon="11.16049631366377"><ele>219.6</ele><time>2026-04-25T09:58:58.999Z</time></trkpt><trkpt lat="42.37053709459097" lon="11.160639580752614"><ele>224.2</ele><time>2026-04-25T09:58:59.999Z</time></trkpt><trkpt lat="42.37059283276509" lon="11.160738570464847"><ele>228.8</ele><time>2026-04-25T09:59:00.999Z</time></trkpt><trkpt lat="42.370652430545555" lon="11.16085721298821"><ele>233.4</ele><time>2026-04-25T09:59:02.999Z</time></trkpt><trkpt lat="42.370702388228324" lon="11.160977543191324"><ele>238.0</ele><time>2026-04-25T09:59:04.999Z</time></trkpt><trkpt lat="42.370741007995456" lon="11.161086718802158"><ele>238.0</ele><time>2026-04-25T09:59:06.999Z</time></trkpt><trkpt lat="42.37071603742859" lon="11.161252044162607"><ele>238.0</ele><time>2026-04-25T09:59:08.999Z</time></trkpt><trkpt lat="42.370709575046575" lon="11.161415479941013"><ele>238.0</ele><time>2026-04-25T09:59:10.999Z</time></trkpt><trkpt lat="42.37071572262601" lon="11.161521582780601"><ele>238.0</ele><time>2026-04-25T09:59:11.999Z</time></trkpt><trkpt lat="42.370733617723964" lon="11.161612470307071"><ele>238.0</ele><time>2026-04-25T09:59:12.999Z</time></trkpt><trkpt lat="42.370753000101566" lon="11.161731262276973"><ele>234.75</ele><time>2026-04-25T09:59:13.999Z</time></trkpt><trkpt lat="42.370770456220654" lon="11.161876434730218"><ele>231.5</ele><time>2026-04-25T09:59:14.999Z</time></trkpt><trkpt lat="42.37079375184794" lon="11.162025447876896"><ele>228.25</ele><time>2026-04-25T09:59:15.999Z</time></trkpt><trkpt lat="42.370814658003766" lon="11.162175392542027"><ele>225.0</ele><time>2026-04-25T09:59:16.999Z</time></trkpt><trkpt lat="42.370854395017076" lon="11.162351232833856"><ele>222.75</ele><time>2026-04-25T09:59:17.999Z</time></trkpt><trkpt lat="42.370899539680096" lon="11.162519749917465"><ele>220.5</ele><time>2026-04-25T09:59:18.999Z</time></trkpt><trkpt lat="42.37093528997293" lon="11.162687986753959"><ele>218.25</ele><time>2026-04-25T09:59:19.999Z</time></trkpt><trkpt lat="42.37096992556456" lon="11.162866177545784"><ele>216.0</ele><time>2026-04-25T09:59:20.999Z</time></trkpt><trkpt lat="42.371004923581" lon="11.16305979174663"><ele>216.0</ele><time>2026-04-25T09:59:21.999Z</time></trkpt><trkpt lat="42.37104478908724" lon="11.16318271368835"><ele>216.0</ele><time>2026-04-25T09:59:22.999Z</time></trkpt><trkpt lat="42.37104948968252" lon="11.163340641183117"><ele>216.0</ele><time>2026-04-25T09:59:24Z</time></trkpt><trkpt lat="42.371079322140524" lon="11.163505404559894"><ele>216.0</ele><time>2026-04-25T09:59:25Z</time></trkpt><trkpt lat="42.37108374957336" lon="11.163667688519975"><ele>214.8</ele><time>2026-04-25T09:59:26Z</time></trkpt><trkpt lat="42.371046750052" lon="11.163803708056218"><ele>213.60000000000002</ele><time>2026-04-25T09:59:27Z</time></trkpt><trkpt lat="42.37103214386142" lon="11.163965846210065"><ele>212.4</ele><time>2026-04-25T09:59:28Z</time></trkpt><trkpt lat="42.37100589290162" lon="11.164103371542737"><ele>211.2</ele><time>2026-04-25T09:59:29Z</time></trkpt><trkpt lat="42.37099873853886" lon="11.164232064767146"><ele>210.0</ele><time>2026-04-25T09:59:30Z</time></trkpt><trkpt lat="42.37100495859601" lon="11.16439646442337"><ele>209.0</ele><time>2026-04-25T09:59:31Z</time></trkpt><trkpt lat="42.371015561464496" lon="11.164562085528257"><ele>208.0</ele><time>2026-04-25T09:59:32Z</time></trkpt><trkpt lat="42.37102175846677" lon="11.164697776063743"><ele>207.0</ele><time>2026-04-25T09:59:33Z</time></trkpt><trkpt lat="42.37102573573934" lon="11.164822168300395"><ele>206.0</ele><time>2026-04-25T09:59:34Z</time></trkpt><trkpt lat="42.37102719370678" lon="11.164934353639012"><ele>205.0</ele><time>2026-04-25T09:59:35Z</time></trkpt><trkpt lat="42.3710287838012" lon="11.165033205040569"><ele>204.16666666666666</ele><time>2026-04-25T09:59:36Z</time></trkpt><trkpt lat="42.37102724816953" lon="11.165148222123866"><ele>203.33333333333331</ele><time>2026-04-25T09:59:37Z</time></trkpt><trkpt lat="42.37101660079408" lon="11.16525257342157"><ele>202.5</ele><time>2026-04-25T09:59:38Z</time></trkpt><trkpt lat="42.37100967045094" lon="11.165355940965966"><ele>201.66666666666669</ele><time>2026-04-25T09:59:39Z</time></trkpt><trkpt lat="42.37100389430756" lon="11.165455896787357"><ele>200.83333333333334</ele><time>2026-04-25T09:59:40Z</time></trkpt><trkpt lat="42.37100059894671" lon="11.165564752397891"><ele>200.0</ele><time>2026-04-25T09:59:41Z</time></trkpt><trkpt lat="42.37097998054723" lon="11.165670692989785"><ele>198.6</ele><time>2026-04-25T09:59:42Z</time></trkpt><trkpt lat="42.37097543661219" lon="11.165757761450447"><ele>197.2</ele><time>2026-04-25T09:59:44Z</time></trkpt><trkpt lat="42.37098590222383" lon="11.165883497103481"><ele>195.8</ele><time>2026-04-25T09:59:45Z</time></trkpt><trkpt lat="42.371023648265556" lon="11.166029178183503"><ele>194.4</ele><time>2026-04-25T09:59:47Z</time></trkpt><trkpt lat="42.37109084196584" lon="11.16608297767201"><ele>193.0</ele><time>2026-04-25T09:59:48Z</time></trkpt><trkpt lat="42.3711937889527" lon="11.166109620242809"><ele>193.0</ele><time>2026-04-25T09:59:49Z</time></trkpt><trkpt lat="42.371302382305274" lon="11.166096534572283"><ele>193.0</ele><time>2026-04-25T09:59:50Z</time></trkpt><trkpt lat="42.371388830067744" lon="11.166077215291228"><ele>193.0</ele><time>2026-04-25T09:59:51Z</time></trkpt><trkpt lat="42.371491609901376" lon="11.16611064189198"><ele>193.0</ele><time>2026-04-25T09:59:53Z</time></trkpt><trkpt lat="42.371500262432214" lon="11.166205107766343"><ele>193.0</ele><time>2026-04-25T09:59:55Z</time></trkpt><trkpt lat="42.371436463250504" lon="11.166321556999446"><ele>191.60000000000002</ele><time>2026-04-25T09:59:57Z</time></trkpt><trkpt lat="42.37140827299354" lon="11.166432126564592"><ele>190.20000000000002</ele><time>2026-04-25T09:59:58Z</time></trkpt><trkpt lat="42.37137367494653" lon="11.166531868779742"><ele>188.8</ele><time>2026-04-25T09:59:59Z</time></trkpt><trkpt lat="42.371409095744816" lon="11.166654467943607"><ele>187.4</ele><time>2026-04-25T10:00:00Z</time></trkpt><trkpt lat="42.37140072558343" lon="11.166792748491169"><ele>186.0</ele><time>2026-04-25T10:00:01Z</time></trkpt><trkpt lat="42.37133564299105" lon="11.166879128327315"><ele>186.0</ele><time>2026-04-25T10:00:02Z</time></trkpt><trkpt lat="42.3712792032148" lon="11.166992602429172"><ele>186.0</ele><time>2026-04-25T10:00:03Z</time></trkpt><trkpt lat="42.37122274721139" lon="11.167128911865987"><ele>186.0</ele><time>2026-04-25T10:00:04Z</time></trkpt><trkpt lat="42.371173159418035" lon="11.16731228912155"><ele>186.0</ele><time>2026-04-25T10:00:05Z</time></trkpt><trkpt lat="42.37111321048012" lon="11.167512710618727"><ele>184.75</ele><time>2026-04-25T10:00:06Z</time></trkpt><trkpt lat="42.37104226585173" lon="11.167661053835905"><ele>183.5</ele><time>2026-04-25T10:00:07Z</time></trkpt><trkpt lat="42.37098672750896" lon="11.167806036527633"><ele>182.25</ele><time>2026-04-25T10:00:08Z</time></trkpt><trkpt lat="42.37093949296" lon="11.16797298030627"><ele>181.0</ele><time>2026-04-25T10:00:09Z</time></trkpt><trkpt lat="42.370887878862526" lon="11.1681034945646"><ele>182.75</ele><time>2026-04-25T10:00:10Z</time></trkpt><trkpt lat="42.370846612904856" lon="11.168235615359782"><ele>184.5</ele><time>2026-04-25T10:00:11Z</time></trkpt><trkpt lat="42.37079917493042" lon="11.168382664278834"><ele>186.25</ele><time>2026-04-25T10:00:12Z</time></trkpt><trkpt lat="42.37075117364412" lon="11.16854916455557"><ele>188.0</ele><time>2026-04-25T10:00:13Z</time></trkpt><trkpt lat="42.3707204466931" lon="11.168668637842153"><ele>188.0</ele><time>2026-04-25T10:00:14Z</time></trkpt><trkpt lat="42.370720077325565" lon="11.168783017057338"><ele>188.0</ele><time>2026-04-25T10:00:15Z</time></trkpt><trkpt lat="42.37074889730731" lon="11.168907138829258"><ele>188.0</ele><time>2026-04-25T10:00:16Z</time></trkpt><trkpt lat="42.37079845751417" lon="11.169078401622501"><ele>188.0</ele><time>2026-04-25T10:00:17Z</time></trkpt><trkpt lat="42.370834916195044" lon="11.16923573243819"><ele>188.0</ele><time>2026-04-25T10:00:18Z</time></trkpt><trkpt lat="42.370816650217265" lon="11.169361290163547"><ele>187.4</ele><time>2026-04-25T10:00:19Z</time></trkpt><trkpt lat="42.37080277011464" lon="11.16947559565145"><ele>186.8</ele><time>2026-04-25T10:00:20Z</time></trkpt><trkpt lat="42.37077135865568" lon="11.169592232099111"><ele>186.2</ele><time>2026-04-25T10:00:21Z</time></trkpt><trkpt lat="42.37074290159209" lon="11.16968521287555"><ele>185.6</ele><time>2026-04-25T10:00:22Z</time></trkpt><trkpt lat="42.370693037003996" lon="11.169794359589963"><ele>185.0</ele><time>2026-04-25T10:00:23Z</time></trkpt><trkpt lat="42.37062059989496" lon="11.169918590468084"><ele>184.0</ele><time>2026-04-25T10:00:24Z</time></trkpt><trkpt lat="42.37058681069871" lon="11.170002525221273"><ele>183.0</ele><time>2026-04-25T10:00:25Z</time></trkpt><trkpt lat="42.37061980122187" lon="11.17015008172463"><ele>182.0</ele><time>2026-04-25T10:00:27Z</time></trkpt><trkpt lat="42.37068214495312" lon="11.170186990167505"><ele>181.0</ele><time>2026-04-25T10:00:28Z</time></trkpt><trkpt lat="42.370755778608675" lon="11.170239483851185"><ele>180.0</ele><time>2026-04-25T10:00:29Z</time></trkpt><trkpt lat="42.370853879436225" lon="11.170295248099771"><ele>179.0</ele><time>2026-04-25T10:00:30Z</time></trkpt><trkpt lat="42.37097271344752" lon="11.170374410057542"><ele>179.0</ele><time>2026-04-25T10:00:31Z</time></trkpt><trkpt lat="42.37110243345911" lon="11.17043478049771"><ele>179.0</ele><time>2026-04-25T10:00:32Z</time></trkpt><trkpt lat="42.37125188405504" lon="11.170490658012273"><ele>179.0</ele><time>2026-04-25T10:00:33Z</time></trkpt><trkpt lat="42.371381774987796" lon="11.17051019458037"><ele>179.0</ele><time>2026-04-25T10:00:34Z</time></trkpt><trkpt lat="42.371512360746145" lon="11.170581501058857"><ele>177.79999999999998</ele><time>2026-04-25T10:00:34.999Z</time></trkpt><trkpt lat="42.37162801721467" lon="11.170648368016312"><ele>176.6</ele><time>2026-04-25T10:00:35.999Z</time></trkpt><trkpt lat="42.37174026242894" lon="11.170721174905315"><ele>175.4</ele><time>2026-04-25T10:00:36.999Z</time></trkpt><trkpt lat="42.37183212971712" lon="11.17077403007527"><ele>174.2</ele><time>2026-04-25T10:00:37.999Z</time></trkpt><trkpt lat="42.371884407340254" lon="11.17084062708965"><ele>173.0</ele><time>2026-04-25T10:00:38.999Z</time></trkpt><trkpt lat="42.371921186114655" lon="11.170947415208373"><ele>173.0</ele><time>2026-04-25T10:00:39.999Z</time></trkpt><trkpt lat="42.37198636890925" lon="11.171101467724151"><ele>173.0</ele><time>2026-04-25T10:00:40.999Z</time></trkpt><trkpt lat="42.37206039237767" lon="11.171290595678663"><ele>173.0</ele><time>2026-04-25T10:00:41.999Z</time></trkpt><trkpt lat="42.37210770820458" lon="11.17145983460865"><ele>173.0</ele><time>2026-04-25T10:00:42.999Z</time></trkpt><trkpt lat="42.37215468228295" lon="11.171619249601516"><ele>177.75</ele><time>2026-04-25T10:00:43.999Z</time></trkpt><trkpt lat="42.37218790096299" lon="11.171810102423136"><ele>182.5</ele><time>2026-04-25T10:00:44.999Z</time></trkpt><trkpt lat="42.37221401234424" lon="11.171990051809242"><ele>187.25</ele><time>2026-04-25T10:00:45.999Z</time></trkpt><trkpt lat="42.372240964190155" lon="11.172142989352464"><ele>192.0</ele><time>2026-04-25T10:00:46.999Z</time></trkpt><trkpt lat="42.372272307214246" lon="11.172279303990598"><ele>188.0</ele><time>2026-04-25T10:00:47.999Z</time></trkpt><trkpt lat="42.372321995326836" lon="11.172400465334952"><ele>184.0</ele><time>2026-04-25T10:00:48.999Z</time></trkpt><trkpt lat="42.37236522628129" lon="11.17252622608988"><ele>180.0</ele><time>2026-04-25T10:00:49.999Z</time></trkpt><trkpt lat="42.37240787092447" lon="11.172688258877006"><ele>176.0</ele><time>2026-04-25T10:00:50.999Z</time></trkpt><trkpt lat="42.37244870263739" lon="11.172835273667436"><ele>172.0</ele><time>2026-04-25T10:00:51.999Z</time></trkpt><trkpt lat="42.37249290157916" lon="11.172939554306968"><ele>172.0</ele><time>2026-04-25T10:00:52.999Z</time></trkpt><trkpt lat="42.37253446127653" lon="11.173041535936166"><ele>172.0</ele><time>2026-04-25T10:00:53.999Z</time></trkpt><trkpt lat="42.372591888057975" lon="11.173109230655639"><ele>172.0</ele><time>2026-04-25T10:00:54.999Z</time></trkpt><trkpt lat="42.37267085778219" lon="11.173162664455544"><ele>172.0</ele><time>2026-04-25T10:00:55.999Z</time></trkpt><trkpt lat="42.37277410372429" lon="11.17324121544923"><ele>172.0</ele><time>2026-04-25T10:00:56.999Z</time></trkpt><trkpt lat="42.37286437603918" lon="11.17339856019784"><ele>174.75</ele><time>2026-04-25T10:00:57.999Z</time></trkpt><trkpt lat="42.37299012261759" lon="11.173575924708397"><ele>177.5</ele><time>2026-04-25T10:00:58.999Z</time></trkpt><trkpt lat="42.37309032335892" lon="11.173688925719661"><ele>180.25</ele><time>2026-04-25T10:00:59.999Z</time></trkpt><trkpt lat="42.37314866974198" lon="11.17378908686681"><ele>183.0</ele><time>2026-04-25T10:01:00.999Z</time></trkpt><trkpt lat="42.37318953185251" lon="11.17389051476904"><ele>183.0</ele><time>2026-04-25T10:01:01.999Z</time></trkpt><trkpt lat="42.37322773746078" lon="11.17398796488095"><ele>183.0</ele><time>2026-04-25T10:01:02.999Z</time></trkpt><trkpt lat="42.37324621408361" lon="11.174104403990569"><ele>183.0</ele><time>2026-04-25T10:01:03.999Z</time></trkpt><trkpt lat="42.37328065235407" lon="11.174241645356103"><ele>183.0</ele><time>2026-04-25T10:01:04.999Z</time></trkpt><trkpt lat="42.37331406663081" lon="11.174375873154418"><ele>183.0</ele><time>2026-04-25T10:01:05.999Z</time></trkpt><trkpt lat="42.37335194882711" lon="11.174533846786606"><ele>180.16666666666666</ele><time>2026-04-25T10:01:06.999Z</time></trkpt><trkpt lat="42.37338028910074" lon="11.174638149331372"><ele>177.33333333333334</ele><time>2026-04-25T10:01:07.999Z</time></trkpt><trkpt lat="42.373429999346186" lon="11.174750792715999"><ele>174.5</ele><time>2026-04-25T10:01:08.999Z</time></trkpt><trkpt lat="42.37345782095383" lon="11.17486329521504"><ele>171.66666666666669</ele><time>2026-04-25T10:01:09.999Z</time></trkpt><trkpt lat="42.37348796676125" lon="11.174969571640212"><ele>168.83333333333334</ele><time>2026-04-25T10:01:10.999Z</time></trkpt><trkpt lat="42.373508370417085" lon="11.175069433984431"><ele>166.0</ele><time>2026-04-25T10:01:11.999Z</time></trkpt><trkpt lat="42.373537418597344" lon="11.17517720367009"><ele>164.16666666666669</ele><time>2026-04-25T10:01:12.999Z</time></trkpt><trkpt lat="42.37355732563477" lon="11.1752834679166"><ele>162.33333333333334</ele><time>2026-04-25T10:01:13.999Z</time></trkpt><trkpt lat="42.373638176147864" lon="11.175390515707704"><ele>160.5</ele><time>2026-04-25T10:01:14.999Z</time></trkpt><trkpt lat="42.373701263502866" lon="11.175491296427104"><ele>158.66666666666666</ele><time>2026-04-25T10:01:15.999Z</time></trkpt><trkpt lat="42.37375563336157" lon="11.175579524881101"><ele>156.83333333333331</ele><time>2026-04-25T10:01:16.999Z</time></trkpt><trkpt lat="42.373797824018126" lon="11.17564844416628"><ele>155.0</ele><time>2026-04-25T10:01:17.999Z</time></trkpt><trkpt lat="42.37379196187116" lon="11.175786109920375"><ele>154.8</ele><time>2026-04-25T10:01:19.999Z</time></trkpt><trkpt lat="42.37373220400267" lon="11.17588770235466"><ele>154.6</ele><time>2026-04-25T10:01:20.999Z</time></trkpt><trkpt lat="42.373681239974225" lon="11.175986756664416"><ele>154.4</ele><time>2026-04-25T10:01:21.999Z</time></trkpt><trkpt lat="42.37362003199171" lon="11.176124043405844"><ele>154.2</ele><time>2026-04-25T10:01:22.999Z</time></trkpt><trkpt lat="42.373533177796546" lon="11.176242878915774"><ele>154.0</ele><time>2026-04-25T10:01:23.999Z</time></trkpt><trkpt lat="42.373432754934846" lon="11.176382927910224"><ele>153.0</ele><time>2026-04-25T10:01:24.999Z</time></trkpt><trkpt lat="42.37331587310059" lon="11.176524975246489"><ele>152.0</ele><time>2026-04-25T10:01:25.999Z</time></trkpt><trkpt lat="42.3732202347209" lon="11.176645151189465"><ele>151.0</ele><time>2026-04-25T10:01:26.999Z</time></trkpt><trkpt lat="42.37312836193809" lon="11.176728551101041"><ele>150.0</ele><time>2026-04-25T10:01:27.999Z</time></trkpt><trkpt lat="42.373021265815275" lon="11.176792052566897"><ele>150.0</ele><time>2026-04-25T10:01:29Z</time></trkpt><trkpt lat="42.37289047854398" lon="11.176859777449918"><ele>150.0</ele><time>2026-04-25T10:01:30Z</time></trkpt><trkpt lat="42.37275816329387" lon="11.176924880379392"><ele>150.0</ele><time>2026-04-25T10:01:31Z</time></trkpt><trkpt lat="42.372635018821065" lon="11.176968338721577"><ele>150.0</ele><time>2026-04-25T10:01:32Z</time></trkpt><trkpt lat="42.372505421275264" lon="11.177003959415613"><ele>150.0</ele><time>2026-04-25T10:01:33Z</time></trkpt><trkpt lat="42.37238456858272" lon="11.17705096732291"><ele>150.0</ele><time>2026-04-25T10:01:34Z</time></trkpt><trkpt lat="42.372283581954925" lon="11.17709183325525"><ele>150.0</ele><time>2026-04-25T10:01:35Z</time></trkpt><trkpt lat="42.372157065299014" lon="11.177135918647224"><ele>150.0</ele><time>2026-04-25T10:01:36Z</time></trkpt><trkpt lat="42.3720603264889" lon="11.177181002291977"><ele>152.5</ele><time>2026-04-25T10:01:37Z</time></trkpt><trkpt lat="42.3719849948149" lon="11.177263911516212"><ele>155.0</ele><time>2026-04-25T10:01:38Z</time></trkpt><trkpt lat="42.37189535571705" lon="11.177383375965917"><ele>157.5</ele><time>2026-04-25T10:01:39Z</time></trkpt><trkpt lat="42.371799948422805" lon="11.17752999827102"><ele>160.0</ele><time>2026-04-25T10:01:40Z</time></trkpt><trkpt lat="42.371707212334584" lon="11.177677581284573"><ele>160.0</ele><time>2026-04-25T10:01:41Z</time></trkpt><trkpt lat="42.37162731044626" lon="11.177799709313915"><ele>160.0</ele><time>2026-04-25T10:01:42Z</time></trkpt><trkpt lat="42.3715838516962" lon="11.17788292797696"><ele>160.0</ele><time>2026-04-25T10:01:43Z</time></trkpt><trkpt lat="42.37155068606118" lon="11.177967540035528"><ele>160.0</ele><time>2026-04-25T10:01:44Z</time></trkpt><trkpt lat="42.37153188228876" lon="11.178067801184223"><ele>160.0</ele><time>2026-04-25T10:01:45Z</time></trkpt><trkpt lat="42.37153295550071" lon="11.178164989105552"><ele>160.0</ele><time>2026-04-25T10:01:46Z</time></trkpt><trkpt lat="42.371571223625935" lon="11.178254698722807"><ele>162.6</ele><time>2026-04-25T10:01:47Z</time></trkpt><trkpt lat="42.37161106166189" lon="11.178377661913922"><ele>165.2</ele><time>2026-04-25T10:01:48Z</time></trkpt><trkpt lat="42.37166588463658" lon="11.17850087426466"><ele>167.8</ele><time>2026-04-25T10:01:49Z</time></trkpt><trkpt lat="42.371704297327184" lon="11.178631313441178"><ele>170.4</ele><time>2026-04-25T10:01:50Z</time></trkpt><trkpt lat="42.37173005255023" lon="11.178752502261947"><ele>173.0</ele><time>2026-04-25T10:01:51Z</time></trkpt><trkpt lat="42.37172834546582" lon="11.178847185566893"><ele>173.0</ele><time>2026-04-25T10:01:52Z</time></trkpt><trkpt lat="42.371705376049604" lon="11.178938252022085"><ele>173.0</ele><time>2026-04-25T10:01:53Z</time></trkpt><trkpt lat="42.37165896898831" lon="11.179019421317996"><ele>173.0</ele><time>2026-04-25T10:01:54Z</time></trkpt><trkpt lat="42.371592853998735" lon="11.179139708351457"><ele>173.0</ele><time>2026-04-25T10:01:55Z</time></trkpt><trkpt lat="42.37151279127334" lon="11.179289471744204"><ele>173.0</ele><time>2026-04-25T10:01:56Z</time></trkpt><trkpt lat="42.37142512411188" lon="11.179451509474424"><ele>167.0</ele><time>2026-04-25T10:01:57Z</time></trkpt><trkpt lat="42.37134657925303" lon="11.179639510664247"><ele>161.0</ele><time>2026-04-25T10:01:58Z</time></trkpt><trkpt lat="42.371252078869055" lon="11.179807757144886"><ele>155.0</ele><time>2026-04-25T10:01:59Z</time></trkpt><trkpt lat="42.371168428332545" lon="11.179983830985302"><ele>155.0</ele><time>2026-04-25T10:02:00Z</time></trkpt><trkpt lat="42.37108130537639" lon="11.180143709895342"><ele>155.0</ele><time>2026-04-25T10:02:01Z</time></trkpt><trkpt lat="42.37097223086011" lon="11.18024650365697"><ele>155.0</ele><time>2026-04-25T10:02:02Z</time></trkpt><trkpt lat="42.37085717719367" lon="11.180360065105905"><ele>155.0</ele><time>2026-04-25T10:02:03Z</time></trkpt><trkpt lat="42.37074645880326" lon="11.180490120000533"><ele>155.0</ele><time>2026-04-25T10:02:04Z</time></trkpt><trkpt lat="42.37063323518515" lon="11.180640812015564"><ele>155.0</ele><time>2026-04-25T10:02:05Z</time></trkpt><trkpt lat="42.37054609732927" lon="11.180810569190504"><ele>155.0</ele><time>2026-04-25T10:02:06Z</time></trkpt><trkpt lat="42.370469430002736" lon="11.180908983629395"><ele>155.0</ele><time>2026-04-25T10:02:07Z</time></trkpt><trkpt lat="42.37038686156687" lon="11.181000534593393"><ele>153.33333333333331</ele><time>2026-04-25T10:02:08Z</time></trkpt><trkpt lat="42.37031321063628" lon="11.181075050300267"><ele>151.66666666666666</ele><time>2026-04-25T10:02:09Z</time></trkpt><trkpt lat="42.37026073181895" lon="11.181159108118676"><ele>150.0</ele><time>2026-04-25T10:02:10Z</time></trkpt><trkpt lat="42.37023092293106" lon="11.181263793655116"><ele>148.33333333333334</ele><time>2026-04-25T10:02:11Z</time></trkpt><trkpt lat="42.37022091633464" lon="11.181349807490946"><ele>146.66666666666669</ele><time>2026-04-25T10:02:12Z</time></trkpt><trkpt lat="42.37023328697594" lon="11.181436872381934"><ele>145.0</ele><time>2026-04-25T10:02:13Z</time></trkpt><trkpt lat="42.37026562726252" lon="11.18154640044909"><ele>149.6</ele><time>2026-04-25T10:02:14Z</time></trkpt><trkpt lat="42.37032162911466" lon="11.181660567676552"><ele>154.2</ele><time>2026-04-25T10:02:15Z</time></trkpt><trkpt lat="42.37038596947051" lon="11.181768426184876"><ele>158.8</ele><time>2026-04-25T10:02:16Z</time></trkpt><trkpt lat="42.37044624214732" lon="11.181835191769284"><ele>163.4</ele><time>2026-04-25T10:02:17Z</time></trkpt><trkpt lat="42.370518193375965" lon="11.181876850252785"><ele>168.0</ele><time>2026-04-25T10:02:18Z</time></trkpt><trkpt lat="42.37060635379593" lon="11.181910071591641"><ele>170.25</ele><time>2026-04-25T10:02:19Z</time></trkpt><trkpt lat="42.37071693356559" lon="11.181929650293768"><ele>172.5</ele><time>2026-04-25T10:02:20Z</time></trkpt><trkpt lat="42.37085270473512" lon="11.181929087194408"><ele>174.75</ele><time>2026-04-25T10:02:21Z</time></trkpt><trkpt lat="42.370991581399984" lon="11.181918221389878"><ele>177.0</ele><time>2026-04-25T10:02:22Z</time></trkpt><trkpt lat="42.37113692211588" lon="11.181914280374258"><ele>177.0</ele><time>2026-04-25T10:02:23Z</time></trkpt><trkpt lat="42.37126356956033" lon="11.181918524893705"><ele>177.0</ele><time>2026-04-25T10:02:24Z</time></trkpt><trkpt lat="42.371393357726284" lon="11.181925797703597"><ele>177.0</ele><time>2026-04-25T10:02:25Z</time></trkpt><trkpt lat="42.371521901455345" lon="11.181929153015163"><ele>177.0</ele><time>2026-04-25T10:02:26Z</time></trkpt><trkpt lat="42.371666963427955" lon="11.181946382383765"><ele>176.0</ele><time>2026-04-25T10:02:27Z</time></trkpt><trkpt lat="42.37183556297039" lon="11.181970694888436"><ele>175.0</ele><time>2026-04-25T10:02:28Z</time></trkpt><trkpt lat="42.371980424598405" lon="11.181996494260135"><ele>174.0</ele><time>2026-04-25T10:02:29Z</time></trkpt><trkpt lat="42.37212022096546" lon="11.18202485503072"><ele>172.25</ele><time>2026-04-25T10:02:30Z</time></trkpt><trkpt lat="42.37225257766649" lon="11.182067254841977"><ele>170.5</ele><time>2026-04-25T10:02:31Z</time></trkpt><trkpt lat="42.37237926364074" lon="11.182125405151565"><ele>168.75</ele><time>2026-04-25T10:02:32Z</time></trkpt><trkpt lat="42.37248489560547" lon="11.182176704106741"><ele>167.0</ele><time>2026-04-25T10:02:33Z</time></trkpt><trkpt lat="42.37258794692699" lon="11.182221690746914"><ele>167.0</ele><time>2026-04-25T10:02:34Z</time></trkpt><trkpt lat="42.37268164800758" lon="11.182263693087535"><ele>167.0</ele><time>2026-04-25T10:02:35Z</time></trkpt><trkpt lat="42.372765754585096" lon="11.182292046886404"><ele>167.0</ele><time>2026-04-25T10:02:36Z</time></trkpt><trkpt lat="42.372848374425345" lon="11.182314074897205"><ele>167.0</ele><time>2026-04-25T10:02:37Z</time></trkpt><trkpt lat="42.37293649596438" lon="11.182320560077233"><ele>167.0</ele><time>2026-04-25T10:02:38Z</time></trkpt><trkpt lat="42.37302536276664" lon="11.182293653310296"><ele>167.0</ele><time>2026-04-25T10:02:39Z</time></trkpt><trkpt lat="42.37311382140242" lon="11.18224768470028"><ele>165.2</ele><time>2026-04-25T10:02:40Z</time></trkpt><trkpt lat="42.373198847990295" lon="11.182168096389514"><ele>163.39999999999998</ele><time>2026-04-25T10:02:41Z</time></trkpt><trkpt lat="42.373294398026665" lon="11.182065564163286"><ele>161.60000000000002</ele><time>2026-04-25T10:02:42Z</time></trkpt><trkpt lat="42.3733831177522" lon="11.181980961809389"><ele>159.8</ele><time>2026-04-25T10:02:43Z</time></trkpt><trkpt lat="42.373478332239465" lon="11.181929618360659"><ele>158.0</ele><time>2026-04-25T10:02:44Z</time></trkpt><trkpt lat="42.37357227261558" lon="11.181899856030528"><ele>158.0</ele><time>2026-04-25T10:02:45Z</time></trkpt><trkpt lat="42.373658242352356" lon="11.181870990183462"><ele>158.0</ele><time>2026-04-25T10:02:46Z</time></trkpt><trkpt lat="42.373725910274544" lon="11.18185193545618"><ele>158.0</ele><time>2026-04-25T10:02:47Z</time></trkpt><trkpt lat="42.37378940818649" lon="11.181864412069881"><ele>158.0</ele><time>2026-04-25T10:02:48Z</time></trkpt><trkpt lat="42.37386924818186" lon="11.181879141708677"><ele>158.0</ele><time>2026-04-25T10:02:50Z</time></trkpt><trkpt lat="42.37388700404304" lon="11.182007842298216"><ele>158.0</ele><time>2026-04-25T10:02:51.999Z</time></trkpt><trkpt lat="42.37387573634263" lon="11.182115338414595"><ele>158.0</ele><time>2026-04-25T10:02:52.999Z</time></trkpt><trkpt lat="42.3738541426759" lon="11.182206323648499"><ele>158.0</ele><time>2026-04-25T10:02:53.999Z</time></trkpt><trkpt lat="42.37382158456067" lon="11.18233350902253"><ele>158.0</ele><time>2026-04-25T10:02:55.999Z</time></trkpt><trkpt lat="42.37375936694384" lon="11.182377007512708"><ele>158.0</ele><time>2026-04-25T10:02:56.999Z</time></trkpt><trkpt lat="42.37366667391404" lon="11.182359832777712"><ele>158.0</ele><time>2026-04-25T10:02:57.999Z</time></trkpt><trkpt lat="42.37359327486439" lon="11.182382329167133"><ele>158.0</ele><time>2026-04-25T10:02:58.999Z</time></trkpt><trkpt lat="42.373486254228666" lon="11.182453146737846"><ele>154.0</ele><time>2026-04-25T10:03:00.999Z</time></trkpt><trkpt lat="42.37345794038165" lon="11.182560151118397"><ele>150.0</ele><time>2026-04-25T10:03:01.999Z</time></trkpt><trkpt lat="42.37346732786312" lon="11.182677584200853"><ele>146.0</ele><time>2026-04-25T10:03:02.999Z</time></trkpt><trkpt lat="42.37350005955721" lon="11.18278953026141"><ele>142.0</ele><time>2026-04-25T10:03:03.999Z</time></trkpt><trkpt lat="42.373566068661006" lon="11.182922211094834"><ele>138.0</ele><time>2026-04-25T10:03:05.999Z</time></trkpt><trkpt lat="42.373650894863324" lon="11.182967185435611"><ele>138.0</ele><time>2026-04-25T10:03:06.999Z</time></trkpt><trkpt lat="42.37377313265519" lon="11.182916503535512"><ele>138.0</ele><time>2026-04-25T10:03:07.999Z</time></trkpt><trkpt lat="42.37386270824149" lon="11.182910452881716"><ele>138.0</ele><time>2026-04-25T10:03:08.999Z</time></trkpt><trkpt lat="42.37391305393968" lon="11.182969778552595"><ele>138.0</ele><time>2026-04-25T10:03:09.999Z</time></trkpt><trkpt lat="42.3739691797523" lon="11.183041997650577"><ele>138.0</ele><time>2026-04-25T10:03:10.999Z</time></trkpt><trkpt lat="42.374042604783476" lon="11.183129982738347"><ele>134.4</ele><time>2026-04-25T10:03:11.999Z</time></trkpt><trkpt lat="42.37411150428966" lon="11.183194012550942"><ele>130.8</ele><time>2026-04-25T10:03:12.999Z</time></trkpt><trkpt lat="42.374186904767456" lon="11.183312268707171"><ele>127.2</ele><time>2026-04-25T10:03:14.999Z</time></trkpt><trkpt lat="42.37421323734015" lon="11.183424436640099"><ele>123.6</ele><time>2026-04-25T10:03:16.999Z</time></trkpt><trkpt lat="42.3741765335343" lon="11.18349900592641"><ele>120.0</ele><time>2026-04-25T10:03:18.999Z</time></trkpt><trkpt lat="42.37406513676103" lon="11.183526799918477"><ele>120.0</ele><time>2026-04-25T10:03:20.999Z</time></trkpt><trkpt lat="42.37399304251585" lon="11.183535165936476"><ele>120.0</ele><time>2026-04-25T10:03:21.999Z</time></trkpt><trkpt lat="42.37389285238975" lon="11.183645779298132"><ele>120.0</ele><time>2026-04-25T10:03:23.999Z</time></trkpt><trkpt lat="42.37385351475591" lon="11.183733151961567"><ele>120.0</ele><time>2026-04-25T10:03:24.999Z</time></trkpt><trkpt lat="42.37380866081855" lon="11.18382161660248"><ele>120.0</ele><time>2026-04-25T10:03:25.999Z</time></trkpt><trkpt lat="42.37376495305629" lon="11.18390520418677"><ele>120.0</ele><time>2026-04-25T10:03:26.999Z</time></trkpt><trkpt lat="42.37371431435074" lon="11.183995925829914"><ele>117.2</ele><time>2026-04-25T10:03:28.999Z</time></trkpt><trkpt lat="42.37378850643287" lon="11.18414139577677"><ele>114.4</ele><time>2026-04-25T10:03:30.999Z</time></trkpt><trkpt lat="42.3738959249249" lon="11.184164241467702"><ele>111.6</ele><time>2026-04-25T10:03:31.999Z</time></trkpt><trkpt lat="42.37398162546631" lon="11.18421905159658"><ele>108.8</ele><time>2026-04-25T10:03:32.999Z</time></trkpt><trkpt lat="42.37406606274409" lon="11.184278259638392"><ele>106.0</ele><time>2026-04-25T10:03:33.999Z</time></trkpt><trkpt lat="42.374143911715436" lon="11.184327280594475"><ele>104.85714285714286</ele><time>2026-04-25T10:03:35Z</time></trkpt><trkpt lat="42.37419284545072" lon="11.184407885680683"><ele>103.71428571428571</ele><time>2026-04-25T10:03:36Z</time></trkpt><trkpt lat="42.37423879748461" lon="11.184476533899668"><ele>102.57142857142857</ele><time>2026-04-25T10:03:37Z</time></trkpt><trkpt lat="42.3742481872403" lon="11.184592840118647"><ele>101.42857142857143</ele><time>2026-04-25T10:03:38Z</time></trkpt><trkpt lat="42.37423762987448" lon="11.184687977140522"><ele>100.28571428571428</ele><time>2026-04-25T10:03:39Z</time></trkpt><trkpt lat="42.37422338296494" lon="11.184787459289348"><ele>99.14285714285714</ele><time>2026-04-25T10:03:40Z</time></trkpt><trkpt lat="42.37421724179984" lon="11.184878176258424"><ele>98.0</ele><time>2026-04-25T10:03:41Z</time></trkpt><trkpt lat="42.3742342705491" lon="11.184967148059815"><ele>93.80000000000001</ele><time>2026-04-25T10:03:42Z</time></trkpt><trkpt lat="42.37425597570171" lon="11.185074627815757"><ele>89.60000000000001</ele><time>2026-04-25T10:03:43Z</time></trkpt><trkpt lat="42.374282954571534" lon="11.185194179204146"><ele>85.4</ele><time>2026-04-25T10:03:44Z</time></trkpt><trkpt lat="42.374334578612526" lon="11.185303397656936"><ele>81.2</ele><time>2026-04-25T10:03:45Z</time></trkpt><trkpt lat="42.374386752034006" lon="11.185399580075421"><ele>77.0</ele><time>2026-04-25T10:03:46Z</time></trkpt><trkpt lat="42.37444879996282" lon="11.185502223830238"><ele>77.0</ele><time>2026-04-25T10:03:47Z</time></trkpt><trkpt lat="42.3745341745108" lon="11.185594984527231"><ele>77.0</ele><time>2026-04-25T10:03:48Z</time></trkpt><trkpt lat="42.37459013468329" lon="11.185699474345189"><ele>77.0</ele><time>2026-04-25T10:03:49Z</time></trkpt><trkpt lat="42.374662707771044" lon="11.185785970288126"><ele>77.0</ele><time>2026-04-25T10:03:50Z</time></trkpt><trkpt lat="42.37472744698499" lon="11.185897269473312"><ele>77.0</ele><time>2026-04-25T10:03:51Z</time></trkpt><trkpt lat="42.37479963210149" lon="11.186004084693653"><ele>76.0</ele><time>2026-04-25T10:03:52Z</time></trkpt><trkpt lat="42.37484175294361" lon="11.186081974281551"><ele>75.0</ele><time>2026-04-25T10:03:53Z</time></trkpt><trkpt lat="42.37487260985341" lon="11.186245240183206"><ele>74.0</ele><time>2026-04-25T10:03:55Z</time></trkpt><trkpt lat="42.37488849702293" lon="11.186368642994804"><ele>73.0</ele><time>2026-04-25T10:03:56Z</time></trkpt><trkpt lat="42.374899886904494" lon="11.186479123763704"><ele>72.0</ele><time>2026-04-25T10:03:57Z</time></trkpt><trkpt lat="42.374912730874414" lon="11.186579142491846"><ele>71.0</ele><time>2026-04-25T10:03:58Z</time></trkpt><trkpt lat="42.374938937763446" lon="11.18666693903921"><ele>69.66666666666667</ele><time>2026-04-25T10:03:59Z</time></trkpt><trkpt lat="42.37499061276619" lon="11.186748744140438"><ele>68.33333333333334</ele><time>2026-04-25T10:04:00Z</time></trkpt><trkpt lat="42.37503460010992" lon="11.186839502880954"><ele>67.0</ele><time>2026-04-25T10:04:01Z</time></trkpt><trkpt lat="42.375087210783214" lon="11.18695363421651"><ele>65.66666666666667</ele><time>2026-04-25T10:04:02Z</time></trkpt><trkpt lat="42.37512435419281" lon="11.187028284029598"><ele>64.33333333333333</ele><time>2026-04-25T10:04:03Z</time></trkpt><trkpt lat="42.37519850903137" lon="11.187056956462406"><ele>63.0</ele><time>2026-04-25T10:04:05Z</time></trkpt><trkpt lat="42.375298565481536" lon="11.187078787340884"><ele>63.0</ele><time>2026-04-25T10:04:07Z</time></trkpt><trkpt lat="42.37537435464874" lon="11.187012693790377"><ele>63.0</ele><time>2026-04-25T10:07:35.998Z</time></trkpt><trkpt lat="42.37546577570132" lon="11.186909799010468"><ele>63.0</ele><time>2026-04-25T10:07:37.998Z</time></trkpt><trkpt lat="42.37553323183709" lon="11.186878296531367"><ele>63.0</ele><time>2026-04-25T10:07:38.998Z</time></trkpt><trkpt lat="42.37562981035184" lon="11.186853103147572"><ele>63.0</ele><time>2026-04-25T10:07:39.998Z</time></trkpt><trkpt lat="42.37573260032309" lon="11.186823320334577"><ele>67.0</ele><time>2026-04-25T10:07:40.998Z</time></trkpt><trkpt lat="42.3758423850668" lon="11.186795350993865"><ele>71.0</ele><time>2026-04-25T10:07:41.998Z</time></trkpt><trkpt lat="42.37594647054716" lon="11.186768583029995"><ele>75.0</ele><time>2026-04-25T10:07:42.998Z</time></trkpt><trkpt lat="42.376038629106134" lon="11.186746223338849"><ele>79.0</ele><time>2026-04-25T10:07:43.998Z</time></trkpt><trkpt lat="42.3761217614017" lon="11.18671828204353"><ele>83.0</ele><time>2026-04-25T10:07:44.998Z</time></trkpt><trkpt lat="42.376193773346664" lon="11.186652246879984"><ele>83.0</ele><time>2026-04-25T10:07:45.998Z</time></trkpt><trkpt lat="42.376263725930116" lon="11.18657342573062"><ele>83.0</ele><time>2026-04-25T10:07:46.999Z</time></trkpt><trkpt lat="42.37631950577399" lon="11.186495048908844"><ele>83.0</ele><time>2026-04-25T10:07:47.999Z</time></trkpt><trkpt lat="42.37636898505012" lon="11.186424225625414"><ele>83.0</ele><time>2026-04-25T10:07:48.999Z</time></trkpt><trkpt lat="42.376363182713106" lon="11.186310910592455"><ele>83.0</ele><time>2026-04-25T10:07:49.999Z</time></trkpt><trkpt lat="42.37635317842964" lon="11.186196171500224"><ele>83.0</ele><time>2026-04-25T10:07:50.999Z</time></trkpt><trkpt lat="42.3763342620204" lon="11.186092960821174"><ele>83.33333333333334</ele><time>2026-04-25T10:07:51.999Z</time></trkpt><trkpt lat="42.3763452787713" lon="11.185986871944555"><ele>83.66666666666667</ele><time>2026-04-25T10:07:53.999Z</time></trkpt><trkpt lat="42.37641800881415" lon="11.185945642485004"><ele>84.0</ele><time>2026-04-25T10:07:55.999Z</time></trkpt><trkpt lat="42.3764718798423" lon="11.186092870746593"><ele>84.33333333333333</ele><time>2026-04-25T10:07:57.999Z</time></trkpt><trkpt lat="42.37651716383187" lon="11.186182006003126"><ele>84.66666666666666</ele><time>2026-04-25T10:07:58.999Z</time></trkpt><trkpt lat="42.37654837122853" lon="11.186295891550442"><ele>85.0</ele><time>2026-04-25T10:07:59.999Z</time></trkpt><trkpt lat="42.3765850918052" lon="11.186418068872833"><ele>88.83333333333333</ele><time>2026-04-25T10:08:00.999Z</time></trkpt><trkpt lat="42.3766423627089" lon="11.186512246400557"><ele>92.66666666666666</ele><time>2026-04-25T10:08:01.999Z</time></trkpt><trkpt lat="42.37670438182732" lon="11.18657978056923"><ele>96.5</ele><time>2026-04-25T10:08:02.999Z</time></trkpt><trkpt lat="42.37678633464283" lon="11.186525262702784"><ele>100.33333333333333</ele><time>2026-04-25T10:08:03.999Z</time></trkpt><trkpt lat="42.37684110923601" lon="11.18643658177174"><ele>104.16666666666667</ele><time>2026-04-25T10:08:04.999Z</time></trkpt><trkpt lat="42.37687355916009" lon="11.186308397162763"><ele>108.0</ele><time>2026-04-25T10:08:05.999Z</time></trkpt><trkpt lat="42.376918586101795" lon="11.186169630319826"><ele>109.80000000000001</ele><time>2026-04-25T10:08:06.999Z</time></trkpt><trkpt lat="42.37697100988545" lon="11.18602230341956"><ele>111.60000000000001</ele><time>2026-04-25T10:08:07.999Z</time></trkpt><trkpt lat="42.37703708624124" lon="11.185897748918265"><ele>113.39999999999999</ele><time>2026-04-25T10:08:08.999Z</time></trkpt><trkpt lat="42.37709712944608" lon="11.185821315477563"><ele>115.19999999999999</ele><time>2026-04-25T10:08:09.999Z</time></trkpt><trkpt lat="42.37719842038888" lon="11.185797460536147"><ele>117.0</ele><time>2026-04-25T10:08:10.999Z</time></trkpt><trkpt lat="42.37733819086612" lon="11.18578018919458"><ele>120.0</ele><time>2026-04-25T10:08:11.999Z</time></trkpt><trkpt lat="42.37747179960428" lon="11.18576963100313"><ele>123.0</ele><time>2026-04-25T10:08:12.999Z</time></trkpt><trkpt lat="42.3776092252086" lon="11.185759563414315"><ele>126.0</ele><time>2026-04-25T10:08:13.999Z</time></trkpt><trkpt lat="42.37773616424202" lon="11.185721741114333"><ele>129.0</ele><time>2026-04-25T10:08:14.999Z</time></trkpt><trkpt lat="42.37784725420705" lon="11.18569629797573"><ele>129.0</ele><time>2026-04-25T10:08:15.999Z</time></trkpt><trkpt lat="42.377951438018094" lon="11.185684822842749"><ele>129.0</ele><time>2026-04-25T10:08:16.999Z</time></trkpt><trkpt lat="42.37805618261022" lon="11.185683647694454"><ele>129.0</ele><time>2026-04-25T10:08:17.999Z</time></trkpt><trkpt lat="42.37816928218249" lon="11.185694424574317"><ele>129.0</ele><time>2026-04-25T10:08:18.999Z</time></trkpt><trkpt lat="42.37828660149732" lon="11.185702250914964"><ele>129.0</ele><time>2026-04-25T10:08:19.999Z</time></trkpt><trkpt lat="42.37840958601349" lon="11.185714557608893"><ele>130.25</ele><time>2026-04-25T10:08:20.999Z</time></trkpt><trkpt lat="42.3785289134353" lon="11.185728717645283"><ele>131.5</ele><time>2026-04-25T10:08:21.999Z</time></trkpt><trkpt lat="42.3786479525388" lon="11.185745548082865"><ele>132.75</ele><time>2026-04-25T10:08:22.999Z</time></trkpt><trkpt lat="42.378769336164275" lon="11.18576822626567"><ele>134.0</ele><time>2026-04-25T10:08:23.999Z</time></trkpt><trkpt lat="42.37889270014228" lon="11.18578744780075"><ele>134.0</ele><time>2026-04-25T10:08:24.999Z</time></trkpt><trkpt lat="42.37900755707942" lon="11.185804219481103"><ele>134.0</ele><time>2026-04-25T10:08:25.999Z</time></trkpt><trkpt lat="42.37911548543005" lon="11.185821538856628"><ele>134.0</ele><time>2026-04-25T10:08:26.999Z</time></trkpt><trkpt lat="42.37921834871035" lon="11.18582859980256"><ele>134.0</ele><time>2026-04-25T10:08:27.999Z</time></trkpt><trkpt lat="42.37932585547411" lon="11.185846270149774"><ele>134.0</ele><time>2026-04-25T10:08:28.999Z</time></trkpt><trkpt lat="42.3794374244791" lon="11.18587834602589"><ele>134.0</ele><time>2026-04-25T10:08:29.999Z</time></trkpt><trkpt lat="42.379549013299005" lon="11.185940809817511"><ele>134.0</ele><time>2026-04-25T10:08:30.999Z</time></trkpt><trkpt lat="42.379652122102605" lon="11.185988519304283"><ele>134.0</ele><time>2026-04-25T10:08:31.999Z</time></trkpt><trkpt lat="42.379775915730704" lon="11.186002496487816"><ele>134.0</ele><time>2026-04-25T10:08:32.999Z</time></trkpt><trkpt lat="42.379915018282325" lon="11.185981735201802"><ele>133.0</ele><time>2026-04-25T10:08:33.999Z</time></trkpt><trkpt lat="42.38008191587365" lon="11.18592680732353"><ele>132.0</ele><time>2026-04-25T10:08:34.999Z</time></trkpt><trkpt lat="42.38024303732191" lon="11.185889319165488"><ele>131.0</ele><time>2026-04-25T10:08:35.999Z</time></trkpt><trkpt lat="42.380383211325935" lon="11.185898459973181"><ele>132.66666666666666</ele><time>2026-04-25T10:08:36.999Z</time></trkpt><trkpt lat="42.38052488980208" lon="11.18595954252426"><ele>134.33333333333334</ele><time>2026-04-25T10:08:37.999Z</time></trkpt><trkpt lat="42.38065468216956" lon="11.186111470422455"><ele>136.0</ele><time>2026-04-25T10:08:38.999Z</time></trkpt><trkpt lat="42.380814229008095" lon="11.18624685887367"><ele>136.0</ele><time>2026-04-25T10:08:39.999Z</time></trkpt><trkpt lat="42.38096455177846" lon="11.186366611999588"><ele>136.0</ele><time>2026-04-25T10:08:40.999Z</time></trkpt><trkpt lat="42.38109993171206" lon="11.186483354256517"><ele>136.0</ele><time>2026-04-25T10:08:41.999Z</time></trkpt><trkpt lat="42.38123272540774" lon="11.186595428491804"><ele>132.0</ele><time>2026-04-25T10:08:42.999Z</time></trkpt><trkpt lat="42.38135676130646" lon="11.18670868836661"><ele>128.0</ele><time>2026-04-25T10:08:43.999Z</time></trkpt><trkpt lat="42.381481164828074" lon="11.186823964515604"><ele>124.0</ele><time>2026-04-25T10:08:44.999Z</time></trkpt><trkpt lat="42.38159480214145" lon="11.18695666917989"><ele>124.0</ele><time>2026-04-25T10:08:45.999Z</time></trkpt><trkpt lat="42.381691146853065" lon="11.187090738824205"><ele>124.0</ele><time>2026-04-25T10:08:46.999Z</time></trkpt><trkpt lat="42.381775467506294" lon="11.187218342663742"><ele>124.0</ele><time>2026-04-25T10:08:47.999Z</time></trkpt><trkpt lat="42.381841279337806" lon="11.187342482451637"><ele>124.0</ele><time>2026-04-25T10:08:48.999Z</time></trkpt><trkpt lat="42.38188448869011" lon="11.187477928677756"><ele>121.25</ele><time>2026-04-25T10:08:49.999Z</time></trkpt><trkpt lat="42.381890879702986" lon="11.187629413865421"><ele>118.5</ele><time>2026-04-25T10:08:50.999Z</time></trkpt><trkpt lat="42.38185167148836" lon="11.187787916125298"><ele>115.75</ele><time>2026-04-25T10:08:51.999Z</time></trkpt><trkpt lat="42.3817790467056" lon="11.187935680390739"><ele>113.0</ele><time>2026-04-25T10:08:52.999Z</time></trkpt><trkpt lat="42.3816858888862" lon="11.188075823400329"><ele>113.0</ele><time>2026-04-25T10:08:53.999Z</time></trkpt><trkpt lat="42.38158236386944" lon="11.188218124910398"><ele>113.0</ele><time>2026-04-25T10:08:54.999Z</time></trkpt><trkpt lat="42.38147816290744" lon="11.18837572562529"><ele>113.0</ele><time>2026-04-25T10:08:55.999Z</time></trkpt><trkpt lat="42.38139041769725" lon="11.18851681509601"><ele>113.0</ele><time>2026-04-25T10:08:56.999Z</time></trkpt><trkpt lat="42.38131579552213" lon="11.188636924842081"><ele>106.4</ele><time>2026-04-25T10:08:57.999Z</time></trkpt><trkpt lat="42.38124920509649" lon="11.188740168272965"><ele>99.80000000000001</ele><time>2026-04-25T10:08:58.999Z</time></trkpt><trkpt lat="42.38120004603763" lon="11.188852959710317"><ele>93.2</ele><time>2026-04-25T10:08:59.999Z</time></trkpt><trkpt lat="42.38118661557019" lon="11.188989828074826"><ele>86.6</ele><time>2026-04-25T10:09:00.999Z</time></trkpt><trkpt lat="42.381218913549745" lon="11.189138324337405"><ele>80.0</ele><time>2026-04-25T10:09:01.999Z</time></trkpt><trkpt lat="42.38128687522693" lon="11.18926028687401"><ele>86.2</ele><time>2026-04-25T10:09:02.999Z</time></trkpt><trkpt lat="42.38138141701271" lon="11.18934954650449"><ele>92.4</ele><time>2026-04-25T10:09:03.999Z</time></trkpt><trkpt lat="42.38147197956949" lon="11.189428312378766"><ele>98.6</ele><time>2026-04-25T10:09:04.999Z</time></trkpt><trkpt lat="42.381546809740406" lon="11.189518060745561"><ele>104.8</ele><time>2026-04-25T10:09:05.999Z</time></trkpt><trkpt lat="42.381583966972755" lon="11.189635763200066"><ele>111.0</ele><time>2026-04-25T10:09:06.999Z</time></trkpt><trkpt lat="42.381599525945504" lon="11.189769990966482"><ele>107.19999999999999</ele><time>2026-04-25T10:09:07.999Z</time></trkpt><trkpt lat="42.381633406788694" lon="11.189906374295854"><ele>103.39999999999999</ele><time>2026-04-25T10:09:08.999Z</time></trkpt><trkpt lat="42.381662279285074" lon="11.1900231640065"><ele>99.6</ele><time>2026-04-25T10:09:09.999Z</time></trkpt><trkpt lat="42.38173068278381" lon="11.190103565566654"><ele>95.8</ele><time>2026-04-25T10:09:10.999Z</time></trkpt><trkpt lat="42.38181728450341" lon="11.190155123416083"><ele>92.0</ele><time>2026-04-25T10:09:11.999Z</time></trkpt><trkpt lat="42.38191410297821" lon="11.190090240179385"><ele>92.0</ele><time>2026-04-25T10:09:12.999Z</time></trkpt><trkpt lat="42.381977387457695" lon="11.190033245538794"><ele>92.0</ele><time>2026-04-25T10:09:13.999Z</time></trkpt><trkpt lat="42.38205939832638" lon="11.18996030757188"><ele>92.0</ele><time>2026-04-25T10:09:15.999Z</time></trkpt><trkpt lat="42.38216200397473" lon="11.189918287527208"><ele>92.0</ele><time>2026-04-25T10:09:17.999Z</time></trkpt><trkpt lat="42.38226481914527" lon="11.189888653851131"><ele>92.0</ele><time>2026-04-25T10:09:19.999Z</time></trkpt><trkpt lat="42.382385879642136" lon="11.189932744348795"><ele>95.83333333333334</ele><time>2026-04-25T10:09:21.999Z</time></trkpt><trkpt lat="42.382468149247984" lon="11.190043482372356"><ele>99.66666666666667</ele><time>2026-04-25T10:09:23.999Z</time></trkpt><trkpt lat="42.38248527035037" lon="11.19013472174687"><ele>103.5</ele><time>2026-04-25T10:09:24.999Z</time></trkpt><trkpt lat="42.38246640949325" lon="11.190244407427038"><ele>107.33333333333334</ele><time>2026-04-25T10:09:25.999Z</time></trkpt><trkpt lat="42.382455859503224" lon="11.190364097428315"><ele>111.16666666666667</ele><time>2026-04-25T10:09:26.999Z</time></trkpt><trkpt lat="42.38244608223904" lon="11.190474831316077"><ele>115.0</ele><time>2026-04-25T10:09:27.999Z</time></trkpt><trkpt lat="42.382437848528824" lon="11.190568083414025"><ele>112.0</ele><time>2026-04-25T10:09:28.999Z</time></trkpt><trkpt lat="42.38243851025285" lon="11.190738377451689"><ele>109.0</ele><time>2026-04-25T10:09:30.999Z</time></trkpt><trkpt lat="42.38243953786067" lon="11.190850477856722"><ele>106.0</ele><time>2026-04-25T10:09:31.999Z</time></trkpt><trkpt lat="42.382426915347715" lon="11.190999913629652"><ele>103.0</ele><time>2026-04-25T10:09:32.999Z</time></trkpt><trkpt lat="42.38243975448549" lon="11.191176095721486"><ele>103.0</ele><time>2026-04-25T10:09:33.999Z</time></trkpt><trkpt lat="42.38245766136424" lon="11.191361331662808"><ele>103.0</ele><time>2026-04-25T10:09:34.999Z</time></trkpt><trkpt lat="42.38249321477319" lon="11.19155438363638"><ele>103.0</ele><time>2026-04-25T10:09:35.999Z</time></trkpt><trkpt lat="42.38251975899241" lon="11.191770190483798"><ele>103.0</ele><time>2026-04-25T10:09:36.999Z</time></trkpt><trkpt lat="42.38256414410512" lon="11.19200873458466"><ele>100.33333333333334</ele><time>2026-04-25T10:09:37.999Z</time></trkpt><trkpt lat="42.38262679645191" lon="11.192254344772069"><ele>97.66666666666667</ele><time>2026-04-25T10:09:38.999Z</time></trkpt><trkpt lat="42.38273060168116" lon="11.192496378373388"><ele>95.0</ele><time>2026-04-25T10:09:39.999Z</time></trkpt><trkpt lat="42.382833420422244" lon="11.192689848725069"><ele>96.0</ele><time>2026-04-25T10:09:40.999Z</time></trkpt><trkpt lat="42.382948126300654" lon="11.19285481647486"><ele>97.0</ele><time>2026-04-25T10:09:41.999Z</time></trkpt><trkpt lat="42.38306807960205" lon="11.193018566053556"><ele>98.0</ele><time>2026-04-25T10:09:42.999Z</time></trkpt><trkpt lat="42.38320132270523" lon="11.193183430995374"><ele>98.0</ele><time>2026-04-25T10:09:43.999Z</time></trkpt><trkpt lat="42.38334949944993" lon="11.193320259035149"><ele>98.0</ele><time>2026-04-25T10:09:44.999Z</time></trkpt><trkpt lat="42.38349857672014" lon="11.193410926146145"><ele>98.0</ele><time>2026-04-25T10:09:45.999Z</time></trkpt><trkpt lat="42.38363291041772" lon="11.193490648954056"><ele>98.0</ele><time>2026-04-25T10:09:46.999Z</time></trkpt><trkpt lat="42.38374915230184" lon="11.193577787749872"><ele>98.0</ele><time>2026-04-25T10:09:47.999Z</time></trkpt><trkpt lat="42.383822056339724" lon="11.193711987241663"><ele>98.0</ele><time>2026-04-25T10:09:48.999Z</time></trkpt><trkpt lat="42.38387372956344" lon="11.19385215034293"><ele>98.0</ele><time>2026-04-25T10:09:49.998Z</time></trkpt><trkpt lat="42.38389857958351" lon="11.194018475575056"><ele>98.66666666666666</ele><time>2026-04-25T10:09:50.998Z</time></trkpt><trkpt lat="42.3839169646455" lon="11.194209025447758"><ele>99.33333333333334</ele><time>2026-04-25T10:09:51.998Z</time></trkpt><trkpt lat="42.383950357898236" lon="11.19442436916024"><ele>100.0</ele><time>2026-04-25T10:09:53Z</time></trkpt><trkpt lat="42.38397452110933" lon="11.194647060310823"><ele>98.0</ele><time>2026-04-25T10:09:54Z</time></trkpt><trkpt lat="42.38403137897187" lon="11.194848414518745"><ele>96.0</ele><time>2026-04-25T10:09:55Z</time></trkpt><trkpt lat="42.38411053333478" lon="11.195023123359466"><ele>94.0</ele><time>2026-04-25T10:09:56Z</time></trkpt><trkpt lat="42.38419550267561" lon="11.19517385970584"><ele>94.0</ele><time>2026-04-25T10:09:57Z</time></trkpt><trkpt lat="42.384272355634906" lon="11.195318936333829"><ele>94.0</ele><time>2026-04-25T10:09:58Z</time></trkpt><trkpt lat="42.38433542753973" lon="11.195446591303808"><ele>94.0</ele><time>2026-04-25T10:09:59Z</time></trkpt><trkpt lat="42.38438870572252" lon="11.195548249967935"><ele>94.0</ele><time>2026-04-25T10:10:00Z</time></trkpt><trkpt lat="42.38442835289664" lon="11.195630384761271"><ele>94.0</ele><time>2026-04-25T10:10:01Z</time></trkpt><trkpt lat="42.384481939463214" lon="11.19576102516927"><ele>92.6</ele><time>2026-04-25T10:10:03Z</time></trkpt><trkpt lat="42.38450738151623" lon="11.19591518916018"><ele>91.2</ele><time>2026-04-25T10:10:05Z</time></trkpt><trkpt lat="42.384472673310654" lon="11.196065153930286"><ele>89.8</ele><time>2026-04-25T10:10:07Z</time></trkpt><trkpt lat="42.38444515808535" lon="11.196174878417697"><ele>88.39999999999999</ele><time>2026-04-25T10:10:08Z</time></trkpt><trkpt lat="42.38440531968478" lon="11.196293799784254"><ele>87.0</ele><time>2026-04-25T10:10:09Z</time></trkpt><trkpt lat="42.38433763479402" lon="11.196429877411212"><ele>87.25</ele><time>2026-04-25T10:10:10Z</time></trkpt><trkpt lat="42.38425206481988" lon="11.196596686933047"><ele>87.5</ele><time>2026-04-25T10:10:11Z</time></trkpt><trkpt lat="42.38417460177606" lon="11.196739806226901"><ele>87.75</ele><time>2026-04-25T10:10:12Z</time></trkpt><trkpt lat="42.38413746293211" lon="11.196831939490478"><ele>88.0</ele><time>2026-04-25T10:10:12.999Z</time></trkpt><trkpt lat="42.38408469278403" lon="11.196948972257857"><ele>88.0</ele><time>2026-04-25T10:10:14.999Z</time></trkpt><trkpt lat="42.384034620235056" lon="11.197052849892524"><ele>88.0</ele><time>2026-04-25T10:10:18.999Z</time></trkpt><trkpt lat="42.383974172802795" lon="11.197191854052411"><ele>88.0</ele><time>2026-04-25T10:10:20.999Z</time></trkpt><trkpt lat="42.38394563397727" lon="11.197284506510199"><ele>88.0</ele><time>2026-04-25T10:10:21.999Z</time></trkpt><trkpt lat="42.3839159737633" lon="11.197406423442674"><ele>88.0</ele><time>2026-04-25T10:10:22.999Z</time></trkpt><trkpt lat="42.38388148114774" lon="11.197539697815714"><ele>80.5</ele><time>2026-04-25T10:10:23.999Z</time></trkpt><trkpt lat="42.38383877921381" lon="11.197675351462804"><ele>73.0</ele><time>2026-04-25T10:10:24.999Z</time></trkpt><trkpt lat="42.38379606928607" lon="11.197808504814091"><ele>65.5</ele><time>2026-04-25T10:10:25.999Z</time></trkpt><trkpt lat="42.38374191440352" lon="11.197968074178712"><ele>58.0</ele><time>2026-04-25T10:10:26.999Z</time></trkpt><trkpt lat="42.38367470809002" lon="11.198119585782436"><ele>61.5</ele><time>2026-04-25T10:10:27.999Z</time></trkpt><trkpt lat="42.383586450055546" lon="11.198253383642976"><ele>65.0</ele><time>2026-04-25T10:10:28.999Z</time></trkpt><trkpt lat="42.38348235532065" lon="11.198379155160515"><ele>68.5</ele><time>2026-04-25T10:10:29.999Z</time></trkpt><trkpt lat="42.383370389214456" lon="11.19848133922211"><ele>72.0</ele><time>2026-04-25T10:10:30.999Z</time></trkpt><trkpt lat="42.38326411730252" lon="11.198561694156135"><ele>72.0</ele><time>2026-04-25T10:10:31.999Z</time></trkpt><trkpt lat="42.38317190473262" lon="11.198641329744346"><ele>72.0</ele><time>2026-04-25T10:10:32.999Z</time></trkpt><trkpt lat="42.38309395620155" lon="11.198740774085488"><ele>72.0</ele><time>2026-04-25T10:10:33.999Z</time></trkpt><trkpt lat="42.38302600376466" lon="11.198864524934383"><ele>72.0</ele><time>2026-04-25T10:10:34.999Z</time></trkpt><trkpt lat="42.38296823016112" lon="11.199011361308818"><ele>74.2</ele><time>2026-04-25T10:10:35.999Z</time></trkpt><trkpt lat="42.38293890521282" lon="11.19916083874646"><ele>76.4</ele><time>2026-04-25T10:10:36.999Z</time></trkpt><trkpt lat="42.382935064255165" lon="11.199284536801333"><ele>78.60000000000001</ele><time>2026-04-25T10:10:37.999Z</time></trkpt><trkpt lat="42.38295458637405" lon="11.199390872146656"><ele>80.80000000000001</ele><time>2026-04-25T10:10:38.999Z</time></trkpt><trkpt lat="42.38300327257319" lon="11.199487350078078"><ele>83.0</ele><time>2026-04-25T10:10:39.999Z</time></trkpt><trkpt lat="42.38309565175418" lon="11.19955765456409"><ele>83.0</ele><time>2026-04-25T10:10:40.999Z</time></trkpt><trkpt lat="42.383204829480285" lon="11.19961611328007"><ele>83.0</ele><time>2026-04-25T10:10:41.999Z</time></trkpt><trkpt lat="42.38330293968563" lon="11.199697790489266"><ele>83.0</ele><time>2026-04-25T10:10:42.999Z</time></trkpt><trkpt lat="42.38338438955586" lon="11.199762912779475"><ele>83.0</ele><time>2026-04-25T10:10:43.999Z</time></trkpt><trkpt lat="42.383435991973606" lon="11.199847876211326"><ele>83.0</ele><time>2026-04-25T10:10:44.999Z</time></trkpt><trkpt lat="42.3834773960846" lon="11.199973066609186"><ele>79.60000000000001</ele><time>2026-04-25T10:10:45.999Z</time></trkpt><trkpt lat="42.383527724993435" lon="11.200076472752476"><ele>76.2</ele><time>2026-04-25T10:10:46.999Z</time></trkpt><trkpt lat="42.3835631980827" lon="11.200206689000801"><ele>72.8</ele><time>2026-04-25T10:10:47.999Z</time></trkpt><trkpt lat="42.38360803549653" lon="11.200330941696645"><ele>69.4</ele><time>2026-04-25T10:10:48.999Z</time></trkpt><trkpt lat="42.38365456254192" lon="11.200454223221138"><ele>66.0</ele><time>2026-04-25T10:10:49.999Z</time></trkpt><trkpt lat="42.38371101352224" lon="11.200581540757407"><ele>61.8</ele><time>2026-04-25T10:10:50.999Z</time></trkpt><trkpt lat="42.38378179830801" lon="11.200705117380032"><ele>57.599999999999994</ele><time>2026-04-25T10:10:51.999Z</time></trkpt><trkpt lat="42.38386014263584" lon="11.200797949411202"><ele>53.4</ele><time>2026-04-25T10:10:52.999Z</time></trkpt><trkpt lat="42.38393672724654" lon="11.20089999347065"><ele>49.2</ele><time>2026-04-25T10:10:53.999Z</time></trkpt><trkpt lat="42.38401583714401" lon="11.201018227843777"><ele>45.0</ele><time>2026-04-25T10:10:54.999Z</time></trkpt><trkpt lat="42.38405493327505" lon="11.201174377268718"><ele>51.25</ele><time>2026-04-25T10:10:55.999Z</time></trkpt><trkpt lat="42.38406832078575" lon="11.201320834753954"><ele>57.5</ele><time>2026-04-25T10:10:56.999Z</time></trkpt><trkpt lat="42.38406007557975" lon="11.201485075461562"><ele>63.75</ele><time>2026-04-25T10:10:57.999Z</time></trkpt><trkpt lat="42.38405081143523" lon="11.201633301745124"><ele>70.0</ele><time>2026-04-25T10:10:58.999Z</time></trkpt><trkpt lat="42.38405271491274" lon="11.20178156477807"><ele>70.0</ele><time>2026-04-25T10:10:59.999Z</time></trkpt><trkpt lat="42.38404151826803" lon="11.20193887404544"><ele>70.0</ele><time>2026-04-25T10:11:00.999Z</time></trkpt><trkpt lat="42.38404201856261" lon="11.202086469684021"><ele>70.0</ele><time>2026-04-25T10:11:01.999Z</time></trkpt><trkpt lat="42.38406249571494" lon="11.20221544569509"><ele>70.0</ele><time>2026-04-25T10:11:02.999Z</time></trkpt><trkpt lat="42.384130461621886" lon="11.202322299069387"><ele>70.0</ele><time>2026-04-25T10:11:03.999Z</time></trkpt><trkpt lat="42.38423462702552" lon="11.202403669965058"><ele>63.33333333333333</ele><time>2026-04-25T10:11:04.999Z</time></trkpt><trkpt lat="42.38437188963293" lon="11.20246421230601"><ele>56.66666666666667</ele><time>2026-04-25T10:11:05.999Z</time></trkpt><trkpt lat="42.38452475112419" lon="11.202529586950305"><ele>50.0</ele><time>2026-04-25T10:11:06.999Z</time></trkpt><trkpt lat="42.38467781166824" lon="11.202604376108797"><ele>53.5</ele><time>2026-04-25T10:11:07.999Z</time></trkpt><trkpt lat="42.38481340745583" lon="11.2026783541323"><ele>57.0</ele><time>2026-04-25T10:11:08.999Z</time></trkpt><trkpt lat="42.38493909635702" lon="11.202739521576582"><ele>60.5</ele><time>2026-04-25T10:11:09.999Z</time></trkpt><trkpt lat="42.38506770486515" lon="11.202756464129147"><ele>64.0</ele><time>2026-04-25T10:11:10.999Z</time></trkpt><trkpt lat="42.38519877195046" lon="11.202725072981227"><ele>64.0</ele><time>2026-04-25T10:11:11.999Z</time></trkpt><trkpt lat="42.38532725249815" lon="11.202653994014113"><ele>64.0</ele><time>2026-04-25T10:11:12.999Z</time></trkpt><trkpt lat="42.385467309610306" lon="11.202561206597432"><ele>64.0</ele><time>2026-04-25T10:11:13.999Z</time></trkpt><trkpt lat="42.38562848524037" lon="11.202525443182633"><ele>63.666666666666664</ele><time>2026-04-25T10:11:14.999Z</time></trkpt><trkpt lat="42.38578934831575" lon="11.202508286629383"><ele>63.33333333333333</ele><time>2026-04-25T10:11:15.999Z</time></trkpt><trkpt lat="42.38595402458611" lon="11.202515986952536"><ele>63.0</ele><time>2026-04-25T10:11:16.999Z</time></trkpt><trkpt lat="42.3861227901942" lon="11.202536780568797"><ele>63.0</ele><time>2026-04-25T10:11:17.999Z</time></trkpt><trkpt lat="42.38627016825766" lon="11.202555644125912"><ele>63.0</ele><time>2026-04-25T10:11:18.999Z</time></trkpt><trkpt lat="42.38640512333169" lon="11.202572916042838"><ele>63.0</ele><time>2026-04-25T10:11:19.999Z</time></trkpt><trkpt lat="42.38653882267974" lon="11.202569059201469"><ele>63.0</ele><time>2026-04-25T10:11:20.999Z</time></trkpt><trkpt lat="42.38667466395831" lon="11.202594657841798"><ele>64.0</ele><time>2026-04-25T10:11:21.999Z</time></trkpt><trkpt lat="42.38680600074589" lon="11.202617139581303"><ele>65.0</ele><time>2026-04-25T10:11:22.999Z</time></trkpt><trkpt lat="42.38692219420563" lon="11.202631437688302"><ele>66.0</ele><time>2026-04-25T10:11:23.999Z</time></trkpt><trkpt lat="42.387020409428914" lon="11.20267958825279"><ele>67.0</ele><time>2026-04-25T10:11:24.999Z</time></trkpt><trkpt lat="42.38710537340993" lon="11.2027140675429"><ele>68.0</ele><time>2026-04-25T10:11:25.999Z</time></trkpt><trkpt lat="42.38717042942736" lon="11.202767318104362"><ele>68.0</ele><time>2026-04-25T10:11:26.999Z</time></trkpt><trkpt lat="42.38722498085963" lon="11.20283431102507"><ele>68.0</ele><time>2026-04-25T10:11:27.999Z</time></trkpt><trkpt lat="42.38721262774395" lon="11.202954540900352"><ele>68.0</ele><time>2026-04-25T10:11:28.999Z</time></trkpt><trkpt lat="42.38718522621856" lon="11.203056304255144"><ele>68.0</ele><time>2026-04-25T10:11:29.999Z</time></trkpt><trkpt lat="42.38711421123643" lon="11.203149747541271"><ele>68.0</ele><time>2026-04-25T10:11:30.999Z</time></trkpt><trkpt lat="42.38701617165989" lon="11.203258320123833"><ele>65.0</ele><time>2026-04-25T10:11:31.999Z</time></trkpt><trkpt lat="42.38692438613988" lon="11.203401593148131"><ele>62.0</ele><time>2026-04-25T10:11:32.999Z</time></trkpt><trkpt lat="42.38682769708596" lon="11.203524526813444"><ele>59.0</ele><time>2026-04-25T10:11:33.999Z</time></trkpt><trkpt lat="42.3867304391308" lon="11.2036499769001"><ele>56.0</ele><time>2026-04-25T10:11:34.999Z</time></trkpt><trkpt lat="42.38662881303549" lon="11.203781440586335"><ele>56.0</ele><time>2026-04-25T10:11:35.999Z</time></trkpt><trkpt lat="42.38653608085734" lon="11.203925204647962"><ele>56.0</ele><time>2026-04-25T10:11:36.999Z</time></trkpt><trkpt lat="42.3864580931537" lon="11.204100916111113"><ele>56.0</ele><time>2026-04-25T10:11:37.999Z</time></trkpt><trkpt lat="42.38638704895499" lon="11.204304493264974"><ele>53.25</ele><time>2026-04-25T10:11:38.999Z</time></trkpt><trkpt lat="42.386312139341335" lon="11.204507427854923"><ele>50.5</ele><time>2026-04-25T10:11:39.999Z</time></trkpt><trkpt lat="42.38624767746649" lon="11.204680415522393"><ele>47.75</ele><time>2026-04-25T10:11:40.999Z</time></trkpt><trkpt lat="42.38619136158971" lon="11.204823809421075"><ele>45.0</ele><time>2026-04-25T10:11:41.999Z</time></trkpt><trkpt lat="42.38614654587599" lon="11.204952921577293"><ele>45.0</ele><time>2026-04-25T10:11:42.999Z</time></trkpt><trkpt lat="42.38612294929834" lon="11.205087897033373"><ele>45.0</ele><time>2026-04-25T10:11:43.999Z</time></trkpt><trkpt lat="42.386144285635744" lon="11.20523751885623"><ele>45.0</ele><time>2026-04-25T10:11:44.999Z</time></trkpt><trkpt lat="42.38619285892745" lon="11.20538536379603"><ele>45.0</ele><time>2026-04-25T10:11:45.999Z</time></trkpt><trkpt lat="42.38625370561313" lon="11.205535768638255"><ele>44.2</ele><time>2026-04-25T10:11:46.999Z</time></trkpt><trkpt lat="42.38628987914843" lon="11.20567799154839"><ele>43.4</ele><time>2026-04-25T10:11:47.999Z</time></trkpt><trkpt lat="42.3863500407386" lon="11.205806759235845"><ele>42.599999999999994</ele><time>2026-04-25T10:11:48.999Z</time></trkpt><trkpt lat="42.386385397605956" lon="11.205928802590384"><ele>41.8</ele><time>2026-04-25T10:11:49.999Z</time></trkpt><trkpt lat="42.38643999317761" lon="11.206047602913284"><ele>41.0</ele><time>2026-04-25T10:11:50.999Z</time></trkpt><trkpt lat="42.386516040670045" lon="11.20614962358666"><ele>45.0</ele><time>2026-04-25T10:11:51.999Z</time></trkpt><trkpt lat="42.38661355358054" lon="11.206232811091251"><ele>49.0</ele><time>2026-04-25T10:11:52.999Z</time></trkpt><trkpt lat="42.38671654231531" lon="11.206305458323877"><ele>53.0</ele><time>2026-04-25T10:11:53.999Z</time></trkpt><trkpt lat="42.38681990289582" lon="11.206397652716998"><ele>57.0</ele><time>2026-04-25T10:11:54.999Z</time></trkpt><trkpt lat="42.386931389924726" lon="11.206461807459691"><ele>56.8</ele><time>2026-04-25T10:11:55.999Z</time></trkpt><trkpt lat="42.38702362808766" lon="11.206540755055444"><ele>56.6</ele><time>2026-04-25T10:11:56.999Z</time></trkpt><trkpt lat="42.38711706711225" lon="11.206625657321016"><ele>56.39999999999999</ele><time>2026-04-25T10:11:57.999Z</time></trkpt><trkpt lat="42.38721357395082" lon="11.206708922370439"><ele>56.199999999999996</ele><time>2026-04-25T10:11:59Z</time></trkpt><trkpt lat="42.3873062634109" lon="11.20678835838363"><ele>56.0</ele><time>2026-04-25T10:12:00Z</time></trkpt><trkpt lat="42.387396797406616" lon="11.206854288173377"><ele>56.0</ele><time>2026-04-25T10:12:01Z</time></trkpt><trkpt lat="42.387492245445074" lon="11.206917178227386"><ele>56.0</ele><time>2026-04-25T10:12:02Z</time></trkpt><trkpt lat="42.38758947608004" lon="11.207000073074267"><ele>56.0</ele><time>2026-04-25T10:12:03Z</time></trkpt><trkpt lat="42.387690686224744" lon="11.207086668370334"><ele>56.0</ele><time>2026-04-25T10:12:04Z</time></trkpt><trkpt lat="42.38778425881035" lon="11.207163592221919"><ele>56.00000000000001</ele><time>2026-04-25T10:12:05Z</time></trkpt><trkpt lat="42.387836487674434" lon="11.20722464797056"><ele>56.0</ele><time>2026-04-25T10:12:06Z</time></trkpt><trkpt lat="42.38793365576358" lon="11.207285221702127"><ele>56.0</ele><time>2026-04-25T10:12:08Z</time></trkpt><trkpt lat="42.38801289978034" lon="11.207358038681935"><ele>56.0</ele><time>2026-04-25T10:12:10Z</time></trkpt><trkpt lat="42.38806765710057" lon="11.20742512952705"><ele>56.00000000000001</ele><time>2026-04-25T10:12:12Z</time></trkpt><trkpt lat="42.38813630785464" lon="11.207495312452242"><ele>56.0</ele><time>2026-04-25T10:12:15Z</time></trkpt><trkpt lat="42.38817450084837" lon="11.207603410709641"><ele>55.16666666666667</ele><time>2026-04-25T10:12:17Z</time></trkpt><trkpt lat="42.388147568526975" lon="11.207714991243124"><ele>54.333333333333336</ele><time>2026-04-25T10:12:19Z</time></trkpt><trkpt lat="42.38811165856638" lon="11.207809653672355"><ele>53.5</ele><time>2026-04-25T10:12:22Z</time></trkpt><trkpt lat="42.388088340568245" lon="11.207889299231779"><ele>52.66666666666667</ele><time>2026-04-25T10:12:24Z</time></trkpt><trkpt lat="42.388059640409764" lon="11.207991131216172"><ele>51.833333333333336</ele><time>2026-04-25T10:12:26.999Z</time></trkpt><trkpt lat="42.388041145145664" lon="11.208094791738125"><ele>51.0</ele><time>2026-04-25T10:12:29.999Z</time></trkpt><trkpt lat="42.388024372506266" lon="11.208206419772315"><ele>50.666666666666664</ele><time>2026-04-25T10:12:31.999Z</time></trkpt><trkpt lat="42.3879955407132" lon="11.20829357330856"><ele>50.33333333333333</ele><time>2026-04-25T10:12:32.999Z</time></trkpt><trkpt lat="42.38802139971313" lon="11.208391970479667"><ele>50.0</ele><time>2026-04-25T10:12:33.999Z</time></trkpt><trkpt lat="42.38806355912747" lon="11.208487038553244"><ele>49.666666666666664</ele><time>2026-04-25T10:12:34.999Z</time></trkpt><trkpt lat="42.38810142763544" lon="11.208573868219172"><ele>49.33333333333333</ele><time>2026-04-25T10:12:35.999Z</time></trkpt><trkpt lat="42.38814211287187" lon="11.208664955373305"><ele>49.0</ele><time>2026-04-25T10:12:36.999Z</time></trkpt><trkpt lat="42.38818986283344" lon="11.208760602551417"><ele>48.99999999999999</ele><time>2026-04-25T10:12:37.999Z</time></trkpt><trkpt lat="42.388237435022454" lon="11.208836526216702"><ele>49.0</ele><time>2026-04-25T10:12:38.999Z</time></trkpt><trkpt lat="42.38828308488253" lon="11.208907225186637"><ele>49.0</ele><time>2026-04-25T10:12:39.999Z</time></trkpt><trkpt lat="42.388314027122384" lon="11.208988915737425"><ele>49.0</ele><time>2026-04-25T10:12:40.999Z</time></trkpt><trkpt lat="42.38834250459908" lon="11.209087751054785"><ele>48.99999999999999</ele><time>2026-04-25T10:12:41.999Z</time></trkpt><trkpt lat="42.388338397274325" lon="11.209215966840965"><ele>49.0</ele><time>2026-04-25T10:12:42.999Z</time></trkpt><trkpt lat="42.38831166940169" lon="11.209342975353987"><ele>50.0</ele><time>2026-04-25T10:12:43.999Z</time></trkpt><trkpt lat="42.38830635137801" lon="11.209506937923807"><ele>51.0</ele><time>2026-04-25T10:12:44.999Z</time></trkpt><trkpt lat="42.388280308374725" lon="11.209700532263103"><ele>52.0</ele><time>2026-04-25T10:12:45.999Z</time></trkpt><trkpt lat="42.38826235689135" lon="11.209918870766256"><ele>53.0</ele><time>2026-04-25T10:12:46.999Z</time></trkpt><trkpt lat="42.38824610898869" lon="11.210149730844124"><ele>54.333333333333336</ele><time>2026-04-25T10:12:47.999Z</time></trkpt><trkpt lat="42.38823643933134" lon="11.210395746946553"><ele>55.66666666666667</ele><time>2026-04-25T10:12:48.999Z</time></trkpt><trkpt lat="42.38823603136464" lon="11.210650143866037"><ele>57.0</ele><time>2026-04-25T10:12:49.999Z</time></trkpt><trkpt lat="42.38823961211428" lon="11.210880081548552"><ele>58.25</ele><time>2026-04-25T10:12:50.999Z</time></trkpt><trkpt lat="42.38823520123706" lon="11.211082992685247"><ele>59.5</ele><time>2026-04-25T10:12:51.999Z</time></trkpt><trkpt lat="42.38818915015499" lon="11.211272374124945"><ele>60.75</ele><time>2026-04-25T10:12:52.999Z</time></trkpt><trkpt lat="42.388154002619956" lon="11.211444741558111"><ele>62.0</ele><time>2026-04-25T10:12:53.999Z</time></trkpt><trkpt lat="42.3881219015531" lon="11.21159071186907"><ele>62.333333333333336</ele><time>2026-04-25T10:12:54.999Z</time></trkpt><trkpt lat="42.38810966242868" lon="11.21171998545321"><ele>62.66666666666667</ele><time>2026-04-25T10:12:55.999Z</time></trkpt><trkpt lat="42.38809010586812" lon="11.211806957063974"><ele>63.0</ele><time>2026-04-25T10:12:56.999Z</time></trkpt><trkpt lat="42.38805960678246" lon="11.211913274547209"><ele>63.33333333333333</ele><time>2026-04-25T10:12:58.999Z</time></trkpt><trkpt lat="42.38802099358869" lon="11.212008053048487"><ele>63.666666666666664</ele><time>2026-04-25T10:13:52.999Z</time></trkpt><trkpt lat="42.388017871619354" lon="11.211912159658265"><ele>64.0</ele><time>2026-04-25T10:17:19.999Z</time></trkpt><trkpt lat="42.388036060435" lon="11.212011517137281"><ele>64.0</ele><time>2026-04-25T10:19:00.999Z</time></trkpt><trkpt lat="42.388119345717385" lon="11.212057723688224"><ele>63.99999999999999</ele><time>2026-04-25T10:22:55.999Z</time></trkpt><trkpt lat="42.38818272185311" lon="11.212056241774246"><ele>64.0</ele><time>2026-04-25T10:22:56.999Z</time></trkpt><trkpt lat="42.38824721246745" lon="11.212065379820963"><ele>64.0</ele><time>2026-04-25T10:22:57.999Z</time></trkpt><trkpt lat="42.38831403652902" lon="11.212079179586986"><ele>63.99999999999999</ele><time>2026-04-25T10:22:58.999Z</time></trkpt><trkpt lat="42.38838202327243" lon="11.212115484774332"><ele>64.0</ele><time>2026-04-25T10:22:59.999Z</time></trkpt><trkpt lat="42.38844991442438" lon="11.21212541581371"><ele>64.0</ele><time>2026-04-25T10:23:00.999Z</time></trkpt><trkpt lat="42.388571251212774" lon="11.212143136344789"><ele>63.99999999999999</ele><time>2026-04-25T10:23:02.999Z</time></trkpt><trkpt lat="42.388697796854046" lon="11.21216323986411"><ele>64.0</ele><time>2026-04-25T10:23:04.999Z</time></trkpt><trkpt lat="42.388768052983615" lon="11.21217504331762"><ele>64.0</ele><time>2026-04-25T10:23:05.999Z</time></trkpt><trkpt lat="42.38883586345361" lon="11.212186746248197"><ele>64.0</ele><time>2026-04-25T10:23:06.999Z</time></trkpt><trkpt lat="42.38890933784456" lon="11.212199309975404"><ele>63.99999999999999</ele><time>2026-04-25T10:23:07.999Z</time></trkpt><trkpt lat="42.38899561983522" lon="11.212215493105028"><ele>64.0</ele><time>2026-04-25T10:23:08.999Z</time></trkpt><trkpt lat="42.38908138741373" lon="11.212232887382903"><ele>63.0</ele><time>2026-04-25T10:23:09.999Z</time></trkpt><trkpt lat="42.38915444419163" lon="11.212250402578974"><ele>62.00000000000001</ele><time>2026-04-25T10:23:10.999Z</time></trkpt><trkpt lat="42.389243322350765" lon="11.212315990541464"><ele>61.00000000000001</ele><time>2026-04-25T10:23:12.999Z</time></trkpt><trkpt lat="42.38934643001932" lon="11.212412718958024"><ele>60.0</ele><time>2026-04-25T10:23:14.999Z</time></trkpt><trkpt lat="42.38930770702539" lon="11.212314901564486"><ele>59.0</ele><time>2026-04-25T10:23:18.999Z</time></trkpt><trkpt lat="42.38927431318632" lon="11.212228984098223"><ele>59.833333333333336</ele><time>2026-04-25T10:23:19.999Z</time></trkpt><trkpt lat="42.38918675314493" lon="11.212210593521249"><ele>60.66666666666667</ele><time>2026-04-25T10:23:20.999Z</time></trkpt><trkpt lat="42.389104103249394" lon="11.212199806733903"><ele>61.5</ele><time>2026-04-25T10:23:21.999Z</time></trkpt><trkpt lat="42.38902629469091" lon="11.212181554759605"><ele>62.33333333333333</ele><time>2026-04-25T10:23:22.999Z</time></trkpt><trkpt lat="42.38894568792194" lon="11.212160142908722"><ele>63.166666666666664</ele><time>2026-04-25T10:23:23.999Z</time></trkpt><trkpt lat="42.38886309294223" lon="11.212147630302987"><ele>64.0</ele><time>2026-04-25T10:23:24.999Z</time></trkpt><trkpt lat="42.38878203154269" lon="11.212129367702829"><ele>64.0</ele><time>2026-04-25T10:23:25.999Z</time></trkpt><trkpt lat="42.38870368813773" lon="11.212010103333617"><ele>64.0</ele><time>2026-04-25T10:23:26.999Z</time></trkpt><trkpt lat="42.38862262613765" lon="11.211991635018203"><ele>64.0</ele><time>2026-04-25T10:23:27.999Z</time></trkpt><trkpt lat="42.38852970940116" lon="11.211966041181999"><ele>64.0</ele><time>2026-04-25T10:23:28.999Z</time></trkpt><trkpt lat="42.38844372336255" lon="11.211942356408313"><ele>64.0</ele><time>2026-04-25T10:23:29.999Z</time></trkpt><trkpt lat="42.3883600042521" lon="11.21191929617604"><ele>64.0</ele><time>2026-04-25T10:23:30.999Z</time></trkpt><trkpt lat="42.38823041268442" lon="11.211858055431197"><ele>64.0</ele><time>2026-04-25T10:23:32.999Z</time></trkpt><trkpt lat="42.38812035252711" lon="11.211811678333731"><ele>64.0</ele><time>2026-04-25T10:23:34.999Z</time></trkpt><trkpt lat="42.38804185057578" lon="11.21199501285211"><ele>64.0</ele><time>2026-04-25T10:23:35.999Z</time></trkpt><trkpt lat="42.38806423738983" lon="11.211883807297374"><ele>64.0</ele><time>2026-04-25T10:23:37.999Z</time></trkpt><trkpt lat="42.38810977777949" lon="11.211759439321554"><ele>64.0</ele><time>2026-04-25T10:23:38.999Z</time></trkpt><trkpt lat="42.38813611467942" lon="11.211644122296423"><ele>64.0</ele><time>2026-04-25T10:23:39.999Z</time></trkpt><trkpt lat="42.38816528048071" lon="11.211501854655488"><ele>64.0</ele><time>2026-04-25T10:23:40.999Z</time></trkpt><trkpt lat="42.388196060154776" lon="11.21134320787201"><ele>64.0</ele><time>2026-04-25T10:23:41.999Z</time></trkpt><trkpt lat="42.388231123903765" lon="11.211196460480773"><ele>63.5</ele><time>2026-04-25T10:23:42.999Z</time></trkpt><trkpt lat="42.38825103374312" lon="11.211035275170572"><ele>63.0</ele><time>2026-04-25T10:23:43.999Z</time></trkpt><trkpt lat="42.38826218935174" lon="11.21088313328356"><ele>62.5</ele><time>2026-04-25T10:23:44.999Z</time></trkpt><trkpt lat="42.38825811136944" lon="11.210712916702171"><ele>62.0</ele><time>2026-04-25T10:23:45.999Z</time></trkpt><trkpt lat="42.38825068900628" lon="11.21053686461253"><ele>60.75</ele><time>2026-04-25T10:23:46.999Z</time></trkpt><trkpt lat="42.38826381488206" lon="11.210358798182455"><ele>59.5</ele><time>2026-04-25T10:23:47.999Z</time></trkpt><trkpt lat="42.388273058253375" lon="11.210183530146876"><ele>58.25</ele><time>2026-04-25T10:23:48.999Z</time></trkpt><trkpt lat="42.3882701422091" lon="11.210000728722356"><ele>57.0</ele><time>2026-04-25T10:23:49.999Z</time></trkpt><trkpt lat="42.38828157367387" lon="11.209846623777356"><ele>56.2</ele><time>2026-04-25T10:23:50.999Z</time></trkpt><trkpt lat="42.38829201945865" lon="11.20973631241554"><ele>55.400000000000006</ele><time>2026-04-25T10:23:51.999Z</time></trkpt><trkpt lat="42.38831264378029" lon="11.209597452121603"><ele>54.599999999999994</ele><time>2026-04-25T10:23:53.999Z</time></trkpt><trkpt lat="42.388326147496684" lon="11.209461674979961"><ele>53.8</ele><time>2026-04-25T10:23:55.999Z</time></trkpt><trkpt lat="42.388344799356204" lon="11.20935054237257"><ele>53.0</ele><time>2026-04-25T10:23:57.999Z</time></trkpt><trkpt lat="42.38835951604195" lon="11.209158486199001"><ele>53.00000000000001</ele><time>2026-04-25T10:24:00.999Z</time></trkpt><trkpt lat="42.38836145440329" lon="11.209059844573499"><ele>53.0</ele><time>2026-04-25T10:24:01.999Z</time></trkpt><trkpt lat="42.388336064924964" lon="11.208968105240405"><ele>53.0</ele><time>2026-04-25T10:24:02.999Z</time></trkpt><trkpt lat="42.388269694823414" lon="11.208826955329274"><ele>53.0</ele><time>2026-04-25T10:24:04.999Z</time></trkpt><trkpt lat="42.38821631233408" lon="11.208767138330344"><ele>53.00000000000001</ele><time>2026-04-25T10:24:05.999Z</time></trkpt><trkpt lat="42.388183073519315" lon="11.208668976281595"><ele>53.0</ele><time>2026-04-25T10:24:06.999Z</time></trkpt><trkpt lat="42.38813471239796" lon="11.208590775671132"><ele>52.599999999999994</ele><time>2026-04-25T10:24:07.999Z</time></trkpt><trkpt lat="42.38809766833756" lon="11.208500572950449"><ele>52.199999999999996</ele><time>2026-04-25T10:24:08.999Z</time></trkpt><trkpt lat="42.38806335361981" lon="11.208425079565"><ele>51.8</ele><time>2026-04-25T10:24:09.999Z</time></trkpt><trkpt lat="42.38802433743973" lon="11.20828759502867"><ele>51.4</ele><time>2026-04-25T10:24:11.999Z</time></trkpt><trkpt lat="42.38804803827164" lon="11.208121583350467"><ele>51.0</ele><time>2026-04-25T10:24:13.999Z</time></trkpt><trkpt lat="42.38809034927518" lon="11.208034435011806"><ele>51.0</ele><time>2026-04-25T10:24:14.999Z</time></trkpt><trkpt lat="42.388123105938234" lon="11.207888923258777"><ele>51.0</ele><time>2026-04-25T10:24:15.999Z</time></trkpt><trkpt lat="42.388153069518424" lon="11.20778721731435"><ele>51.0</ele><time>2026-04-25T10:24:16.999Z</time></trkpt><trkpt lat="42.38819476901101" lon="11.207671627276731"><ele>51.0</ele><time>2026-04-25T10:24:18.999Z</time></trkpt><trkpt lat="42.3883070076284" lon="11.207660329745789"><ele>51.0</ele><time>2026-04-25T10:24:24.999Z</time></trkpt><trkpt lat="42.388368337300626" lon="11.207710864484335"><ele>51.0</ele><time>2026-04-25T10:24:25.999Z</time></trkpt><trkpt lat="42.38842171409326" lon="11.207766710029473"><ele>51.0</ele><time>2026-04-25T10:24:26.999Z</time></trkpt><trkpt lat="42.388492673576245" lon="11.207840577958462"><ele>51.0</ele><time>2026-04-25T10:24:27.999Z</time></trkpt><trkpt lat="42.38856112589639" lon="11.207914571162352"><ele>51.0</ele><time>2026-04-25T10:24:28.999Z</time></trkpt><trkpt lat="42.388646628143775" lon="11.208006158115902"><ele>51.0</ele><time>2026-04-25T10:24:29.999Z</time></trkpt><trkpt lat="42.38874071753286" lon="11.20809303149905"><ele>50.599999999999994</ele><time>2026-04-25T10:24:30.999Z</time></trkpt><trkpt lat="42.38882763997962" lon="11.20818244384361"><ele>50.2</ele><time>2026-04-25T10:24:31.999Z</time></trkpt><trkpt lat="42.38891628616239" lon="11.208249269476953"><ele>49.8</ele><time>2026-04-25T10:24:32.999Z</time></trkpt><trkpt lat="42.389001143621684" lon="11.208308172227724"><ele>49.400000000000006</ele><time>2026-04-25T10:24:33.999Z</time></trkpt><trkpt lat="42.389096966074646" lon="11.208369147755015"><ele>49.0</ele><time>2026-04-25T10:24:34.999Z</time></trkpt><trkpt lat="42.38918666719044" lon="11.208423191399241"><ele>47.800000000000004</ele><time>2026-04-25T10:24:35.999Z</time></trkpt><trkpt lat="42.38927236550478" lon="11.208479247721126"><ele>46.6</ele><time>2026-04-25T10:24:36.999Z</time></trkpt><trkpt lat="42.389358711277225" lon="11.208530751703124"><ele>45.4</ele><time>2026-04-25T10:24:37.999Z</time></trkpt><trkpt lat="42.38945227864482" lon="11.20857827995973"><ele>44.2</ele><time>2026-04-25T10:24:38.999Z</time></trkpt><trkpt lat="42.38953320115238" lon="11.208630902756532"><ele>43.0</ele><time>2026-04-25T10:24:39.999Z</time></trkpt><trkpt lat="42.389610810822" lon="11.208681940273038"><ele>41.333333333333336</ele><time>2026-04-25T10:24:40.999Z</time></trkpt><trkpt lat="42.38968829530578" lon="11.20874505185957"><ele>39.66666666666667</ele><time>2026-04-25T10:24:41.999Z</time></trkpt><trkpt lat="42.389751952950476" lon="11.208825351295685"><ele>38.0</ele><time>2026-04-25T10:24:42.999Z</time></trkpt><trkpt lat="42.389815705241425" lon="11.208897172662265"><ele>36.333333333333336</ele><time>2026-04-25T10:24:43.999Z</time></trkpt><trkpt lat="42.38987051969708" lon="11.208977606869263"><ele>34.666666666666664</ele><time>2026-04-25T10:24:44.999Z</time></trkpt><trkpt lat="42.38995067704603" lon="11.20901272288996"><ele>33.0</ele><time>2026-04-25T10:24:45.999Z</time></trkpt><trkpt lat="42.390025079084786" lon="11.20906828118711"><ele>33.0</ele><time>2026-04-25T10:24:46.999Z</time></trkpt><trkpt lat="42.39009108918795" lon="11.209137059016314"><ele>33.0</ele><time>2026-04-25T10:24:47.999Z</time></trkpt><trkpt lat="42.39016030301655" lon="11.209225869664188"><ele>33.0</ele><time>2026-04-25T10:24:48.999Z</time></trkpt><trkpt lat="42.39022061316594" lon="11.209307800348306"><ele>33.0</ele><time>2026-04-25T10:24:49.999Z</time></trkpt><trkpt lat="42.3902697222209" lon="11.209382524331312"><ele>33.0</ele><time>2026-04-25T10:24:50.999Z</time></trkpt><trkpt lat="42.39036084719148" lon="11.20947858247092"><ele>33.0</ele><time>2026-04-25T10:24:52.999Z</time></trkpt><trkpt lat="42.390441300334544" lon="11.20946026063228"><ele>33.0</ele><time>2026-04-25T10:24:54.999Z</time></trkpt><trkpt lat="42.390419961007176" lon="11.20934997989561"><ele>33.0</ele><time>2026-04-25T10:24:56.999Z</time></trkpt><trkpt lat="42.39036486118102" lon="11.209304291188184"><ele>33.0</ele><time>2026-04-25T10:24:57.999Z</time></trkpt><trkpt lat="42.39030019898724" lon="11.209246960994642"><ele>33.0</ele><time>2026-04-25T10:24:58.999Z</time></trkpt><trkpt lat="42.390248011731515" lon="11.209153297810797"><ele>33.0</ele><time>2026-04-25T10:24:59.999Z</time></trkpt><trkpt lat="42.3901746075823" lon="11.209073497763233"><ele>30.799999999999997</ele><time>2026-04-25T10:25:00.999Z</time></trkpt><trkpt lat="42.39011726459646" lon="11.208971435308758"><ele>28.599999999999998</ele><time>2026-04-25T10:25:01.999Z</time></trkpt><trkpt lat="42.390056253314896" lon="11.20887389346612"><ele>26.4</ele><time>2026-04-25T10:25:02.999Z</time></trkpt><trkpt lat="42.38998586928914" lon="11.208767878556698"><ele>24.200000000000003</ele><time>2026-04-25T10:25:03.999Z</time></trkpt><trkpt lat="42.389908801414414" lon="11.208660492047846"><ele>22.0</ele><time>2026-04-25T10:25:04.999Z</time></trkpt><trkpt lat="42.38985038993116" lon="11.208549276987757"><ele>22.0</ele><time>2026-04-25T10:25:05.999Z</time></trkpt><trkpt lat="42.38982917840391" lon="11.20843158238897"><ele>22.0</ele><time>2026-04-25T10:25:06.999Z</time></trkpt><trkpt lat="42.38985372175719" lon="11.20829417802531"><ele>22.0</ele><time>2026-04-25T10:25:07.999Z</time></trkpt><trkpt lat="42.38986978287228" lon="11.208157916116416"><ele>22.0</ele><time>2026-04-25T10:25:08.999Z</time></trkpt><trkpt lat="42.3899287901952" lon="11.208044754212219"><ele>22.0</ele><time>2026-04-25T10:25:09.999Z</time></trkpt><trkpt lat="42.39004289765866" lon="11.207980624910531"><ele>24.6</ele><time>2026-04-25T10:25:10.999Z</time></trkpt><trkpt lat="42.39012851963172" lon="11.20788962302522"><ele>27.200000000000003</ele><time>2026-04-25T10:25:11.999Z</time></trkpt><trkpt lat="42.39019527889516" lon="11.207799744849169"><ele>29.8</ele><time>2026-04-25T10:25:12.999Z</time></trkpt><trkpt lat="42.390271148664425" lon="11.207703112061255"><ele>32.4</ele><time>2026-04-25T10:25:13.999Z</time></trkpt><trkpt lat="42.3903544035888" lon="11.207595143245012"><ele>35.0</ele><time>2026-04-25T10:25:14.999Z</time></trkpt><trkpt lat="42.3904277277549" lon="11.207491775888561"><ele>35.0</ele><time>2026-04-25T10:25:15.999Z</time></trkpt><trkpt lat="42.39050160179488" lon="11.207397595266197"><ele>35.0</ele><time>2026-04-25T10:25:16.999Z</time></trkpt><trkpt lat="42.39057755805453" lon="11.207316540016812"><ele>35.0</ele><time>2026-04-25T10:25:17.999Z</time></trkpt><trkpt lat="42.390656557396376" lon="11.207230967792311"><ele>35.0</ele><time>2026-04-25T10:25:18.999Z</time></trkpt><trkpt lat="42.39073822075423" lon="11.207138349307987"><ele>35.0</ele><time>2026-04-25T10:25:19.999Z</time></trkpt><trkpt lat="42.39082442972956" lon="11.207035205785907"><ele>33.5</ele><time>2026-04-25T10:25:20.999Z</time></trkpt><trkpt lat="42.390908793882986" lon="11.20692577380648"><ele>32.0</ele><time>2026-04-25T10:25:21.999Z</time></trkpt><trkpt lat="42.39099247219034" lon="11.206809466899681"><ele>30.5</ele><time>2026-04-25T10:25:22.999Z</time></trkpt><trkpt lat="42.391078792036424" lon="11.206686013797741"><ele>29.0</ele><time>2026-04-25T10:25:23.999Z</time></trkpt><trkpt lat="42.39117185195183" lon="11.206560783587026"><ele>28.0</ele><time>2026-04-25T10:25:24.999Z</time></trkpt><trkpt lat="42.39125830808093" lon="11.206439153191921"><ele>27.0</ele><time>2026-04-25T10:25:25.999Z</time></trkpt><trkpt lat="42.39134429656564" lon="11.206328763087459"><ele>26.0</ele><time>2026-04-25T10:25:26.999Z</time></trkpt><trkpt lat="42.39143516611579" lon="11.206210229042032"><ele>25.0</ele><time>2026-04-25T10:25:27.999Z</time></trkpt><trkpt lat="42.39151783062636" lon="11.206110777347755"><ele>25.0</ele><time>2026-04-25T10:25:28.999Z</time></trkpt><trkpt lat="42.391603627013424" lon="11.206025249621467"><ele>25.0</ele><time>2026-04-25T10:25:29.999Z</time></trkpt><trkpt lat="42.39168973516434" lon="11.205957383499621"><ele>25.0</ele><time>2026-04-25T10:25:30.999Z</time></trkpt><trkpt lat="42.391783326090604" lon="11.205907631009156"><ele>25.0</ele><time>2026-04-25T10:25:31.999Z</time></trkpt><trkpt lat="42.391888863138135" lon="11.205868968585177"><ele>25.0</ele><time>2026-04-25T10:25:32.999Z</time></trkpt><trkpt lat="42.3919924617283" lon="11.205828205086979"><ele>25.0</ele><time>2026-04-25T10:25:33.999Z</time></trkpt><trkpt lat="42.39209310023167" lon="11.205781815613133"><ele>25.0</ele><time>2026-04-25T10:25:34.999Z</time></trkpt><trkpt lat="42.39219549018753" lon="11.205729548888904"><ele>25.0</ele><time>2026-04-25T10:25:35.999Z</time></trkpt><trkpt lat="42.392289707107906" lon="11.205681248805583"><ele>25.0</ele><time>2026-04-25T10:25:36.999Z</time></trkpt><trkpt lat="42.392376338414564" lon="11.205634668519798"><ele>25.0</ele><time>2026-04-25T10:25:37.999Z</time></trkpt><trkpt lat="42.39244999468962" lon="11.205574410703644"><ele>24.000000000000004</ele><time>2026-04-25T10:25:38.999Z</time></trkpt><trkpt lat="42.39250205780799" lon="11.205496991855759"><ele>23.0</ele><time>2026-04-25T10:25:39.999Z</time></trkpt><trkpt lat="42.39254626298353" lon="11.205410413058697"><ele>22.0</ele><time>2026-04-25T10:25:40.999Z</time></trkpt><trkpt lat="42.39258356315893" lon="11.205325208527947"><ele>21.0</ele><time>2026-04-25T10:25:41.999Z</time></trkpt><trkpt lat="42.392628919660716" lon="11.205231995193849"><ele>20.0</ele><time>2026-04-25T10:25:42.999Z</time></trkpt><trkpt lat="42.39267283441646" lon="11.205137574737956"><ele>19.0</ele><time>2026-04-25T10:25:43.999Z</time></trkpt><trkpt lat="42.39271935985709" lon="11.205042259478025"><ele>19.0</ele><time>2026-04-25T10:25:44.999Z</time></trkpt><trkpt lat="42.39277189366646" lon="11.204945251618163"><ele>19.0</ele><time>2026-04-25T10:25:45.999Z</time></trkpt><trkpt lat="42.39282521508844" lon="11.204865748718175"><ele>19.0</ele><time>2026-04-25T10:25:46.999Z</time></trkpt><trkpt lat="42.39288367809635" lon="11.204790559388005"><ele>19.0</ele><time>2026-04-25T10:25:47.999Z</time></trkpt><trkpt lat="42.39293002300358" lon="11.204712187840325"><ele>19.0</ele><time>2026-04-25T10:25:48.999Z</time></trkpt><trkpt lat="42.392977929581676" lon="11.204652212050942"><ele>19.0</ele><time>2026-04-25T10:25:49.999Z</time></trkpt><trkpt lat="42.39303000709466" lon="11.204593081228852"><ele>17.599999999999998</ele><time>2026-04-25T10:25:50.999Z</time></trkpt><trkpt lat="42.39310319617163" lon="11.204506587136898"><ele>16.2</ele><time>2026-04-25T10:25:52.999Z</time></trkpt><trkpt lat="42.393159234768945" lon="11.204437784805146"><ele>14.799999999999999</ele><time>2026-04-25T10:25:55.999Z</time></trkpt><trkpt lat="42.39321057910207" lon="11.204376222294002"><ele>13.399999999999999</ele><time>2026-04-25T10:25:59.999Z</time></trkpt><trkpt lat="42.39326643996857" lon="11.204322010047123"><ele>12.0</ele><time>2026-04-25T10:30:20Z</time></trkpt><trkpt lat="42.393393690169205" lon="11.20443550709421"><ele>12.0</ele><time>2026-04-25T10:40:41.026Z</time></trkpt><trkpt lat="42.393309596612546" lon="11.204354957644028"><ele>12.0</ele><time>2026-04-25T10:40:43.001Z</time></trkpt><trkpt lat="42.39324568921099" lon="11.204374578636079"><ele>12.0</ele><time>2026-04-25T10:40:50.001Z</time></trkpt><trkpt lat="42.39338891493486" lon="11.204218219377656"><ele>12.0</ele><time>2026-04-25T10:45:20Z</time></trkpt><trkpt lat="42.393474616448934" lon="11.204120780552396"><ele>12.0</ele><time>2026-04-25T10:45:22Z</time></trkpt><trkpt lat="42.39354363732565" lon="11.20407535216815"><ele>12.0</ele><time>2026-04-25T10:45:24Z</time></trkpt><trkpt lat="42.39361242433967" lon="11.20402370731399"><ele>12.0</ele><time>2026-04-25T10:45:28Z</time></trkpt><trkpt lat="42.39369038011179" lon="11.203985162086862"><ele>12.0</ele><time>2026-04-25T10:45:31Z</time></trkpt><trkpt lat="42.393755265710666" lon="11.203964696795692"><ele>12.0</ele><time>2026-04-25T10:45:33Z</time></trkpt><trkpt lat="42.39384362032914" lon="11.203952196896488"><ele>12.0</ele><time>2026-04-25T10:45:36Z</time></trkpt><trkpt lat="42.393936240464406" lon="11.203938525519579"><ele>12.6</ele><time>2026-04-25T10:45:38Z</time></trkpt><trkpt lat="42.394040865752984" lon="11.203915408730579"><ele>13.2</ele><time>2026-04-25T10:45:40Z</time></trkpt><trkpt lat="42.394147298557336" lon="11.203887682790576"><ele>13.8</ele><time>2026-04-25T10:45:42Z</time></trkpt><trkpt lat="42.39421007623971" lon="11.203874445924122"><ele>14.4</ele><time>2026-04-25T10:45:43Z</time></trkpt><trkpt lat="42.394291542923675" lon="11.203879451981377"><ele>15.0</ele><time>2026-04-25T10:45:44Z</time></trkpt><trkpt lat="42.394384613628844" lon="11.203880026554884"><ele>15.0</ele><time>2026-04-25T10:45:45Z</time></trkpt><trkpt lat="42.394429412751066" lon="11.203817122209546"><ele>15.0</ele><time>2026-04-25T10:45:47Z</time></trkpt><trkpt lat="42.394535191660864" lon="11.203808551522032"><ele>15.0</ele><time>2026-04-25T10:45:48Z</time></trkpt><trkpt lat="42.394628913283945" lon="11.203762414369626"><ele>15.0</ele><time>2026-04-25T10:45:49Z</time></trkpt><trkpt lat="42.39472177651944" lon="11.203750985352322"><ele>15.0</ele><time>2026-04-25T10:45:50Z</time></trkpt><trkpt lat="42.394812664770065" lon="11.203732369546033"><ele>16.2</ele><time>2026-04-25T10:45:51Z</time></trkpt><trkpt lat="42.39490351506705" lon="11.20370199985842"><ele>17.4</ele><time>2026-04-25T10:45:52Z</time></trkpt><trkpt lat="42.395012177825095" lon="11.20366542314035"><ele>18.6</ele><time>2026-04-25T10:45:53Z</time></trkpt><trkpt lat="42.395125065988914" lon="11.203622563975562"><ele>19.8</ele><time>2026-04-25T10:45:54Z</time></trkpt><trkpt lat="42.39523463254678" lon="11.203563892113527"><ele>21.0</ele><time>2026-04-25T10:45:55Z</time></trkpt><trkpt lat="42.39533468646502" lon="11.203486483393212"><ele>21.0</ele><time>2026-04-25T10:45:56Z</time></trkpt><trkpt lat="42.39543020319808" lon="11.203378341823637"><ele>21.0</ele><time>2026-04-25T10:45:57Z</time></trkpt><trkpt lat="42.395523102027816" lon="11.203254003707183"><ele>21.0</ele><time>2026-04-25T10:45:58Z</time></trkpt><trkpt lat="42.3956076120168" lon="11.203137562398945"><ele>21.0</ele><time>2026-04-25T10:45:59Z</time></trkpt><trkpt lat="42.39568764231624" lon="11.2030034434017"><ele>23.25</ele><time>2026-04-25T10:46:00Z</time></trkpt><trkpt lat="42.39577542029107" lon="11.20286768423841"><ele>25.5</ele><time>2026-04-25T10:46:01Z</time></trkpt><trkpt lat="42.39585274741238" lon="11.2027242002472"><ele>27.75</ele><time>2026-04-25T10:46:02Z</time></trkpt><trkpt lat="42.39592881264347" lon="11.202581414962816"><ele>30.0</ele><time>2026-04-25T10:46:03Z</time></trkpt><trkpt lat="42.39599114540085" lon="11.202442334351044"><ele>30.0</ele><time>2026-04-25T10:46:04Z</time></trkpt><trkpt lat="42.396066746902875" lon="11.202371320978957"><ele>30.0</ele><time>2026-04-25T10:46:05Z</time></trkpt><trkpt lat="42.39614048257559" lon="11.202303142783007"><ele>30.0</ele><time>2026-04-25T10:46:06Z</time></trkpt><trkpt lat="42.396211160797876" lon="11.202247495912687"><ele>30.0</ele><time>2026-04-25T10:46:07Z</time></trkpt><trkpt lat="42.39636890034568" lon="11.202136021377004"><ele>30.0</ele><time>2026-04-25T10:46:09Z</time></trkpt><trkpt lat="42.39646224671821" lon="11.202075046852467"><ele>28.4</ele><time>2026-04-25T10:46:10Z</time></trkpt><trkpt lat="42.3965509894278" lon="11.202015662954404"><ele>26.8</ele><time>2026-04-25T10:46:11Z</time></trkpt><trkpt lat="42.39663630330701" lon="11.201957925248832"><ele>25.200000000000003</ele><time>2026-04-25T10:46:12Z</time></trkpt><trkpt lat="42.39672720267663" lon="11.201902709740361"><ele>23.6</ele><time>2026-04-25T10:46:13Z</time></trkpt><trkpt lat="42.39682734085663" lon="11.20185865976386"><ele>22.0</ele><time>2026-04-25T10:46:14Z</time></trkpt><trkpt lat="42.3969291995682" lon="11.201834880631488"><ele>22.0</ele><time>2026-04-25T10:46:14.999Z</time></trkpt><trkpt lat="42.397039194920964" lon="11.20183134632165"><ele>22.0</ele><time>2026-04-25T10:46:15.999Z</time></trkpt><trkpt lat="42.39715502827825" lon="11.201828862547725"><ele>22.0</ele><time>2026-04-25T10:46:16.999Z</time></trkpt><trkpt lat="42.397275911184956" lon="11.201815100773187"><ele>22.0</ele><time>2026-04-25T10:46:17.999Z</time></trkpt><trkpt lat="42.39739515452456" lon="11.20181340937979"><ele>21.200000000000003</ele><time>2026-04-25T10:46:18.999Z</time></trkpt><trkpt lat="42.39750742421493" lon="11.201812136171021"><ele>20.400000000000002</ele><time>2026-04-25T10:46:19.999Z</time></trkpt><trkpt lat="42.39761266760661" lon="11.20181483733517"><ele>19.6</ele><time>2026-04-25T10:46:20.999Z</time></trkpt><trkpt lat="42.39771244208769" lon="11.201811490120756"><ele>18.8</ele><time>2026-04-25T10:46:21.999Z</time></trkpt><trkpt lat="42.397807690439" lon="11.201792546810644"><ele>18.0</ele><time>2026-04-25T10:46:22.999Z</time></trkpt><trkpt lat="42.39790478460015" lon="11.201752358523567"><ele>17.0</ele><time>2026-04-25T10:46:23.999Z</time></trkpt><trkpt lat="42.39800519082756" lon="11.201692362350533"><ele>16.0</ele><time>2026-04-25T10:46:24.999Z</time></trkpt><trkpt lat="42.39810781274923" lon="11.20162224608214"><ele>15.0</ele><time>2026-04-25T10:46:25.999Z</time></trkpt><trkpt lat="42.39821386433701" lon="11.201542649060778"><ele>14.0</ele><time>2026-04-25T10:46:26.999Z</time></trkpt><trkpt lat="42.39833422009695" lon="11.201485842941905"><ele>14.0</ele><time>2026-04-25T10:46:27.999Z</time></trkpt><trkpt lat="42.398455065552824" lon="11.201406257472232"><ele>14.0</ele><time>2026-04-25T10:46:28.999Z</time></trkpt><trkpt lat="42.3985745459634" lon="11.201327571026553"><ele>14.0</ele><time>2026-04-25T10:46:29.999Z</time></trkpt><trkpt lat="42.39868197922226" lon="11.201235304872641"><ele>14.0</ele><time>2026-04-25T10:46:30.999Z</time></trkpt><trkpt lat="42.398787730871256" lon="11.201167311793231"><ele>13.25</ele><time>2026-04-25T10:46:31.999Z</time></trkpt><trkpt lat="42.39888485227583" lon="11.201101497985539"><ele>12.5</ele><time>2026-04-25T10:46:32.999Z</time></trkpt><trkpt lat="42.398988073408226" lon="11.201029762599541"><ele>11.75</ele><time>2026-04-25T10:46:33.999Z</time></trkpt><trkpt lat="42.399099712550104" lon="11.200977084359025"><ele>11.0</ele><time>2026-04-25T10:46:34.999Z</time></trkpt><trkpt lat="42.39920240702946" lon="11.200906039572114"><ele>11.0</ele><time>2026-04-25T10:46:35.999Z</time></trkpt><trkpt lat="42.39932343073264" lon="11.20082132353869"><ele>11.0</ele><time>2026-04-25T10:46:36.999Z</time></trkpt><trkpt lat="42.399459746436754" lon="11.200722716216589"><ele>11.0</ele><time>2026-04-25T10:46:37.999Z</time></trkpt><trkpt lat="42.3995835410383" lon="11.20059169579985"><ele>11.0</ele><time>2026-04-25T10:46:38.999Z</time></trkpt><trkpt lat="42.399719939237436" lon="11.20050935989552"><ele>11.0</ele><time>2026-04-25T10:46:39.999Z</time></trkpt><trkpt lat="42.39985937394882" lon="11.200420259110734"><ele>11.0</ele><time>2026-04-25T10:46:40.999Z</time></trkpt><trkpt lat="42.40000568258023" lon="11.200317077513716"><ele>11.0</ele><time>2026-04-25T10:46:41.999Z</time></trkpt><trkpt lat="42.40016569056282" lon="11.200201446855955"><ele>11.0</ele><time>2026-04-25T10:46:42.999Z</time></trkpt><trkpt lat="42.400334926713406" lon="11.200076492860115"><ele>11.0</ele><time>2026-04-25T10:46:43.999Z</time></trkpt><trkpt lat="42.4004961739653" lon="11.199959967912422"><ele>11.0</ele><time>2026-04-25T10:46:44.999Z</time></trkpt><trkpt lat="42.40064049599358" lon="11.199860207884383"><ele>10.75</ele><time>2026-04-25T10:46:45.999Z</time></trkpt><trkpt lat="42.40077023793171" lon="11.199767442626978"><ele>10.5</ele><time>2026-04-25T10:46:46.999Z</time></trkpt><trkpt lat="42.40088405679806" lon="11.199677220590713"><ele>10.25</ele><time>2026-04-25T10:46:47.999Z</time></trkpt><trkpt lat="42.400988965925485" lon="11.199590247082527"><ele>10.0</ele><time>2026-04-25T10:46:48.999Z</time></trkpt><trkpt lat="42.40108572085445" lon="11.199513135407752"><ele>10.0</ele><time>2026-04-25T10:46:49.999Z</time></trkpt><trkpt lat="42.40117423741946" lon="11.199450861883534"><ele>10.0</ele><time>2026-04-25T10:46:50.999Z</time></trkpt><trkpt lat="42.401267365237786" lon="11.199416523695295"><ele>10.0</ele><time>2026-04-25T10:46:51.999Z</time></trkpt><trkpt lat="42.40137077236534" lon="11.19944106540097"><ele>10.0</ele><time>2026-04-25T10:46:52.999Z</time></trkpt><trkpt lat="42.401472867559335" lon="11.19941066476946"><ele>10.0</ele><time>2026-04-25T10:46:53.999Z</time></trkpt><trkpt lat="42.40156009637101" lon="11.199306574868086"><ele>9.5</ele><time>2026-04-25T10:46:54.999Z</time></trkpt><trkpt lat="42.401688125662034" lon="11.199318884228312"><ele>9.0</ele><time>2026-04-25T10:46:55.999Z</time></trkpt><trkpt lat="42.401807303796545" lon="11.199356429337675"><ele>8.5</ele><time>2026-04-25T10:46:56.999Z</time></trkpt><trkpt lat="42.401930578111816" lon="11.199408719331874"><ele>8.0</ele><time>2026-04-25T10:46:57.999Z</time></trkpt><trkpt lat="42.40206177261907" lon="11.199458185369396"><ele>7.666666666666666</ele><time>2026-04-25T10:46:58.999Z</time></trkpt><trkpt lat="42.40220606125808" lon="11.199518845780444"><ele>7.333333333333334</ele><time>2026-04-25T10:46:59.999Z</time></trkpt><trkpt lat="42.402350614141845" lon="11.199595651854958"><ele>7.0</ele><time>2026-04-25T10:47:00.999Z</time></trkpt><trkpt lat="42.40250050776546" lon="11.199681019727915"><ele>7.0</ele><time>2026-04-25T10:47:01.999Z</time></trkpt><trkpt lat="42.40265790784781" lon="11.199771958628023"><ele>7.0</ele><time>2026-04-25T10:47:02.999Z</time></trkpt><trkpt lat="42.40282133888069" lon="11.199861827774448"><ele>7.0</ele><time>2026-04-25T10:47:03.999Z</time></trkpt><trkpt lat="42.40296724074447" lon="11.199944080975515"><ele>7.0</ele><time>2026-04-25T10:47:04.999Z</time></trkpt><trkpt lat="42.403099743882656" lon="11.200013057266137"><ele>7.0</ele><time>2026-04-25T10:47:05.999Z</time></trkpt><trkpt lat="42.403222786348444" lon="11.200079999886565"><ele>7.0</ele><time>2026-04-25T10:47:06.999Z</time></trkpt><trkpt lat="42.40333568921422" lon="11.200140246310312"><ele>7.0</ele><time>2026-04-25T10:47:08Z</time></trkpt><trkpt lat="42.403436852752456" lon="11.200198726000982"><ele>7.0</ele><time>2026-04-25T10:47:09Z</time></trkpt><trkpt lat="42.40354311819638" lon="11.200273453802769"><ele>6.999999999999999</ele><time>2026-04-25T10:47:10Z</time></trkpt><trkpt lat="42.40363682909547" lon="11.20037144605485"><ele>6.999999999999999</ele><time>2026-04-25T10:47:11Z</time></trkpt><trkpt lat="42.40370902093724" lon="11.200482232327225"><ele>7.0</ele><time>2026-04-25T10:47:12Z</time></trkpt><trkpt lat="42.4037458613935" lon="11.200597995403628"><ele>7.0</ele><time>2026-04-25T10:47:13Z</time></trkpt><trkpt lat="42.403746681837355" lon="11.200722878980088"><ele>6.6</ele><time>2026-04-25T10:47:14Z</time></trkpt><trkpt lat="42.40377762683544" lon="11.200817180880726"><ele>6.199999999999999</ele><time>2026-04-25T10:47:15Z</time></trkpt><trkpt lat="42.40368036971265" lon="11.200953034577466"><ele>5.8</ele><time>2026-04-25T10:47:16Z</time></trkpt><trkpt lat="42.40361748448105" lon="11.201055315304961"><ele>5.4</ele><time>2026-04-25T10:47:17Z</time></trkpt><trkpt lat="42.40355325541328" lon="11.201174712093518"><ele>5.0</ele><time>2026-04-25T10:47:18Z</time></trkpt><trkpt lat="42.40347473688806" lon="11.201282363121317"><ele>5.0</ele><time>2026-04-25T10:47:19Z</time></trkpt><trkpt lat="42.40341248687411" lon="11.201385898362153"><ele>5.0</ele><time>2026-04-25T10:47:20Z</time></trkpt><trkpt lat="42.403351469333735" lon="11.201489385350428"><ele>5.0</ele><time>2026-04-25T10:47:21Z</time></trkpt><trkpt lat="42.4032972099635" lon="11.20159113089206"><ele>5.0</ele><time>2026-04-25T10:47:22Z</time></trkpt><trkpt lat="42.403244066137795" lon="11.201689654242955"><ele>5.0</ele><time>2026-04-25T10:47:23Z</time></trkpt><trkpt lat="42.40319376105944" lon="11.201785493266334"><ele>5.0</ele><time>2026-04-25T10:47:24Z</time></trkpt><trkpt lat="42.40315399415006" lon="11.201884322717024"><ele>5.0</ele><time>2026-04-25T10:47:25Z</time></trkpt><trkpt lat="42.40311996067157" lon="11.201995248359125"><ele>5.0</ele><time>2026-04-25T10:47:26Z</time></trkpt><trkpt lat="42.40309449566354" lon="11.202118749327424"><ele>5.0</ele><time>2026-04-25T10:47:27Z</time></trkpt><trkpt lat="42.403072449463465" lon="11.202244166329088"><ele>5.0</ele><time>2026-04-25T10:47:28Z</time></trkpt><trkpt lat="42.40305226178153" lon="11.202370738752327"><ele>4.833333333333334</ele><time>2026-04-25T10:47:29Z</time></trkpt><trkpt lat="42.403027717800995" lon="11.20249728546717"><ele>4.666666666666667</ele><time>2026-04-25T10:47:30Z</time></trkpt><trkpt lat="42.40300481893678" lon="11.202611129009117"><ele>4.5</ele><time>2026-04-25T10:47:31Z</time></trkpt><trkpt lat="42.4029852717493" lon="11.202724129666834"><ele>4.333333333333333</ele><time>2026-04-25T10:47:32Z</time></trkpt><trkpt lat="42.402962441928324" lon="11.202823402184563"><ele>4.166666666666666</ele><time>2026-04-25T10:47:33Z</time></trkpt><trkpt lat="42.4029445991247" lon="11.202918868953345"><ele>4.0</ele><time>2026-04-25T10:47:34Z</time></trkpt><trkpt lat="42.402911230921504" lon="11.202998234263983"><ele>3.9999999999999996</ele><time>2026-04-25T10:47:35Z</time></trkpt><trkpt lat="42.40289153994319" lon="11.203087976084023"><ele>4.0</ele><time>2026-04-25T10:47:36Z</time></trkpt><trkpt lat="42.40286701465982" lon="11.203199750211915"><ele>4.0</ele><time>2026-04-25T10:47:37Z</time></trkpt><trkpt lat="42.40284501528496" lon="11.203300012542885"><ele>4.0</ele><time>2026-04-25T10:47:38Z</time></trkpt><trkpt lat="42.402824367415015" lon="11.203394114021654"><ele>3.9999999999999996</ele><time>2026-04-25T10:47:39Z</time></trkpt><trkpt lat="42.402797091778766" lon="11.203514519946774"><ele>4.0</ele><time>2026-04-25T10:47:41Z</time></trkpt><trkpt lat="42.402968323309736" lon="11.203601242406076"><ele>3.8000000000000003</ele><time>2026-04-25T10:47:43Z</time></trkpt><trkpt lat="42.40305711108165" lon="11.203612440328742"><ele>3.6000000000000005</ele><time>2026-04-25T10:47:44Z</time></trkpt><trkpt lat="42.40315117611347" lon="11.20363156649133"><ele>3.4</ele><time>2026-04-25T10:47:45Z</time></trkpt><trkpt lat="42.40324054087138" lon="11.203679710581268"><ele>3.2</ele><time>2026-04-25T10:47:46Z</time></trkpt><trkpt lat="42.40333730549998" lon="11.203708680298583"><ele>3.0</ele><time>2026-04-25T10:47:47Z</time></trkpt><trkpt lat="42.4034405526231" lon="11.20371963547716"><ele>3.0</ele><time>2026-04-25T10:47:48Z</time></trkpt><trkpt lat="42.403546323863075" lon="11.203754556758918"><ele>3.0</ele><time>2026-04-25T10:47:49Z</time></trkpt><trkpt lat="42.40365015137202" lon="11.203786744743722"><ele>3.0</ele><time>2026-04-25T10:47:50Z</time></trkpt><trkpt lat="42.40373678573997" lon="11.203815086459754"><ele>3.0</ele><time>2026-04-25T10:47:51Z</time></trkpt><trkpt lat="42.40380096534705" lon="11.203852552716523"><ele>3.0</ele><time>2026-04-25T10:47:52Z</time></trkpt><trkpt lat="42.403867546292034" lon="11.203877067547527"><ele>3.0</ele><time>2026-04-25T10:47:54Z</time></trkpt><trkpt lat="42.403827461451236" lon="11.204076847625261"><ele>2.6</ele><time>2026-04-25T10:47:55Z</time></trkpt><trkpt lat="42.403802329154196" lon="11.204185949096276"><ele>2.1999999999999997</ele><time>2026-04-25T10:47:56Z</time></trkpt><trkpt lat="42.40378627990266" lon="11.204318712627126"><ele>1.8</ele><time>2026-04-25T10:47:57Z</time></trkpt><trkpt lat="42.40375590226753" lon="11.20444715144612"><ele>1.4</ele><time>2026-04-25T10:47:58Z</time></trkpt><trkpt lat="42.40373653123857" lon="11.204570136693304"><ele>1.0</ele><time>2026-04-25T10:47:59Z</time></trkpt><trkpt lat="42.40370008736259" lon="11.204683731109055"><ele>1.0</ele><time>2026-04-25T10:48:00Z</time></trkpt><trkpt lat="42.40368761586691" lon="11.204823532319702"><ele>1.0</ele><time>2026-04-25T10:48:01Z</time></trkpt><trkpt lat="42.403647361025904" lon="11.204971269876197"><ele>1.0</ele><time>2026-04-25T10:48:02Z</time></trkpt><trkpt lat="42.40363916330782" lon="11.20512089935764"><ele>1.0</ele><time>2026-04-25T10:48:03Z</time></trkpt><trkpt lat="42.40361644621619" lon="11.205249191857465"><ele>1.0</ele><time>2026-04-25T10:48:04Z</time></trkpt><trkpt lat="42.40359543338158" lon="11.205363494676147"><ele>1.0</ele><time>2026-04-25T10:48:05Z</time></trkpt><trkpt lat="42.403585349668575" lon="11.205471242463174"><ele>0.9999999999999999</ele><time>2026-04-25T10:48:06Z</time></trkpt><trkpt lat="42.403563819959004" lon="11.205567989792593"><ele>1.0</ele><time>2026-04-25T10:48:07Z</time></trkpt><trkpt lat="42.40353023645739" lon="11.205648080759497"><ele>1.0</ele><time>2026-04-25T10:48:08Z</time></trkpt><trkpt lat="42.403501024508465" lon="11.205726052510421"><ele>0.9999999999999999</ele><time>2026-04-25T10:48:09Z</time></trkpt><trkpt lat="42.40347515334525" lon="11.205809305890867"><ele>1.0</ele><time>2026-04-25T10:48:10Z</time></trkpt><trkpt lat="42.40346006752678" lon="11.205898729381026"><ele>1.0</ele><time>2026-04-25T10:48:11Z</time></trkpt><trkpt lat="42.40344996788894" lon="11.206019453471027"><ele>1.0</ele><time>2026-04-25T10:48:13Z</time></trkpt><trkpt lat="42.40345930300752" lon="11.206121052812849"><ele>1.0</ele><time>2026-04-25T10:48:15.999Z</time></trkpt><trkpt lat="42.40345496850625" lon="11.206245470826593"><ele>1.0</ele><time>2026-04-25T10:48:18.999Z</time></trkpt><trkpt lat="42.40346070283952" lon="11.206365734210856"><ele>1.0</ele><time>2026-04-25T10:48:20.999Z</time></trkpt><trkpt lat="42.40345505103977" lon="11.206527420270632"><ele>1.0</ele><time>2026-04-25T10:48:22.999Z</time></trkpt><trkpt lat="42.40345729749776" lon="11.206637579582312"><ele>0.0</ele><time>2026-04-25T10:48:24.999Z</time></trkpt><trkpt lat="42.40344345251504" lon="11.206799963673234"><ele>-1.0</ele><time>2026-04-25T10:48:26.999Z</time></trkpt><trkpt lat="42.40344479035514" lon="11.206950298733204"><ele>-2.0</ele><time>2026-04-25T10:48:28.999Z</time></trkpt><trkpt lat="42.40336458319777" lon="11.207020413949124"><ele>-3.0</ele><time>2026-04-25T10:48:29.999Z</time></trkpt><trkpt lat="42.40339713850747" lon="11.207199151160692"><ele>-3.0</ele><time>2026-04-25T10:48:31.999Z</time></trkpt><trkpt lat="42.40342343973611" lon="11.207293006968655"><ele>-3.0</ele><time>2026-04-25T10:48:32.999Z</time></trkpt><trkpt lat="42.403432689921495" lon="11.207401866132335"><ele>-3.0</ele><time>2026-04-25T10:48:33.999Z</time></trkpt><trkpt lat="42.40344832904808" lon="11.207485888274638"><ele>-3.0</ele><time>2026-04-25T10:48:34.999Z</time></trkpt><trkpt lat="42.40347356846269" lon="11.207582148180045"><ele>-3.0</ele><time>2026-04-25T10:48:35.999Z</time></trkpt><trkpt lat="42.40350822181377" lon="11.207685091641062"><ele>-3.0</ele><time>2026-04-25T10:48:37.999Z</time></trkpt><trkpt lat="42.40358306063743" lon="11.207715797457174"><ele>-2.5</ele><time>2026-04-25T10:48:40.999Z</time></trkpt><trkpt lat="42.4036467195969" lon="11.20765756783216"><ele>-2.0</ele><time>2026-04-25T10:48:45.999Z</time></trkpt><trkpt lat="42.4036150045952" lon="11.207567924091002"><ele>-1.5</ele><time>2026-04-25T10:48:48.999Z</time></trkpt><trkpt lat="42.40356534616407" lon="11.207628568390751"><ele>-1.0</ele><time>2026-04-25T10:48:51.999Z</time></trkpt><trkpt lat="42.40356123689708" lon="11.20772623625143"><ele>-0.5</ele><time>2026-04-25T10:48:53.999Z</time></trkpt><trkpt lat="42.40357282433561" lon="11.207883102594758"><ele>0.0</ele><time>2026-04-25T10:48:55.999Z</time></trkpt><trkpt lat="42.4035624273258" lon="11.20806162708715"><ele>0.0</ele><time>2026-04-25T10:48:57.999Z</time></trkpt><trkpt lat="42.40354336714224" lon="11.208164076010114"><ele>0.0</ele><time>2026-04-25T10:48:58.999Z</time></trkpt><trkpt lat="42.40353224430733" lon="11.208270638108727"><ele>0.0</ele><time>2026-04-25T10:48:59.999Z</time></trkpt><trkpt lat="42.40352767625911" lon="11.208391452334649"><ele>0.0</ele><time>2026-04-25T10:49:00.999Z</time></trkpt><trkpt lat="42.403564611823725" lon="11.20848080208807"><ele>0.0</ele><time>2026-04-25T10:49:02.999Z</time></trkpt><trkpt lat="42.4035974286614" lon="11.208600042442631"><ele>0.0</ele><time>2026-04-25T10:49:04.999Z</time></trkpt><trkpt lat="42.40362667142616" lon="11.208696767651142"><ele>0.0</ele><time>2026-04-25T10:49:06.999Z</time></trkpt><trkpt lat="42.403652261320886" lon="11.208777954111701"><ele>0.0</ele><time>2026-04-25T10:49:08.999Z</time></trkpt><trkpt lat="42.40366771293818" lon="11.20886490689303"><ele>0.0</ele><time>2026-04-25T10:49:11.999Z</time></trkpt><trkpt lat="42.40372991629766" lon="11.2088800629766"><ele>0.0</ele><time>2026-04-25T10:53:22.999Z</time></trkpt><trkpt lat="42.40379760295016" lon="11.208850966490497"><ele>0.0</ele><time>2026-04-25T10:53:30Z</time></trkpt><trkpt lat="42.40379271617512" lon="11.208758879559916"><ele>0.0</ele><time>2026-04-25T11:26:05Z</time></trkpt><trkpt lat="42.40378086328554" lon="11.208843392852"><ele>0.0</ele><time>2026-04-25T11:29:43Z</time></trkpt><trkpt lat="42.403715794375856" lon="11.208874733513829"><ele>0.0</ele><time>2026-04-25T11:29:51Z</time></trkpt><trkpt lat="42.40364138142038" lon="11.208781157538688"><ele>0.0</ele><time>2026-04-25T11:33:34Z</time></trkpt><trkpt lat="42.40360451918466" lon="11.208663202232065"><ele>0.0</ele><time>2026-04-25T11:33:36Z</time></trkpt><trkpt lat="42.40357761098684" lon="11.208549886389473"><ele>0.0</ele><time>2026-04-25T11:33:38Z</time></trkpt><trkpt lat="42.40355286322085" lon="11.208404199756954"><ele>0.0</ele><time>2026-04-25T11:33:40Z</time></trkpt><trkpt lat="42.403544176404715" lon="11.208312871678997"><ele>0.0</ele><time>2026-04-25T11:33:41Z</time></trkpt><trkpt lat="42.40353521816892" lon="11.208223868807165"><ele>0.0</ele><time>2026-04-25T11:33:42Z</time></trkpt><trkpt lat="42.40353466318249" lon="11.208122856413894"><ele>0.0</ele><time>2026-04-25T11:33:43Z</time></trkpt><trkpt lat="42.40354613635836" lon="11.208026951345877"><ele>0.0</ele><time>2026-04-25T11:33:44Z</time></trkpt><trkpt lat="42.40356136262932" lon="11.207929304309245"><ele>0.0</ele><time>2026-04-25T11:33:45Z</time></trkpt><trkpt lat="42.4035648151116" lon="11.207836015493951"><ele>0.0</ele><time>2026-04-25T11:33:46Z</time></trkpt><trkpt lat="42.403555563094756" lon="11.20775033408784"><ele>0.0</ele><time>2026-04-25T11:33:47Z</time></trkpt><trkpt lat="42.40349630258898" lon="11.207624831576263"><ele>0.0</ele><time>2026-04-25T11:33:49Z</time></trkpt><trkpt lat="42.40343689424295" lon="11.207490514439687"><ele>0.0</ele><time>2026-04-25T11:33:51Z</time></trkpt><trkpt lat="42.40347650880515" lon="11.20739988748227"><ele>0.0</ele><time>2026-04-25T11:33:54Z</time></trkpt><trkpt lat="42.403583429362136" lon="11.207417555047833"><ele>0.0</ele><time>2026-04-25T11:33:57Z</time></trkpt><trkpt lat="42.40363257971612" lon="11.207484813010554"><ele>0.0</ele><time>2026-04-25T11:33:58Z</time></trkpt><trkpt lat="42.40368126045987" lon="11.20755942974673"><ele>0.0</ele><time>2026-04-25T11:33:59Z</time></trkpt><trkpt lat="42.40374759437369" lon="11.207645557702673"><ele>0.0</ele><time>2026-04-25T11:34:00Z</time></trkpt><trkpt lat="42.403827637076006" lon="11.207724704757489"><ele>0.0</ele><time>2026-04-25T11:34:01Z</time></trkpt><trkpt lat="42.40391942785517" lon="11.207788529603054"><ele>0.0</ele><time>2026-04-25T11:34:02Z</time></trkpt><trkpt lat="42.40400523917516" lon="11.207834845282015"><ele>0.0</ele><time>2026-04-25T11:34:03Z</time></trkpt><trkpt lat="42.40408272651872" lon="11.207864899591295"><ele>0.0</ele><time>2026-04-25T11:34:04Z</time></trkpt><trkpt lat="42.40414791750827" lon="11.207875514879373"><ele>0.0</ele><time>2026-04-25T11:34:05Z</time></trkpt><trkpt lat="42.404218338431164" lon="11.20788030907487"><ele>0.2</ele><time>2026-04-25T11:34:06Z</time></trkpt><trkpt lat="42.40434085693302" lon="11.207837008388745"><ele>0.4</ele><time>2026-04-25T11:34:08Z</time></trkpt><trkpt lat="42.404434082814745" lon="11.207901587463203"><ele>0.6000000000000001</ele><time>2026-04-25T11:34:10Z</time></trkpt><trkpt lat="42.40451973797844" lon="11.207985253273892"><ele>0.8</ele><time>2026-04-25T11:34:12Z</time></trkpt><trkpt lat="42.40459980370014" lon="11.208027002474013"><ele>1.0</ele><time>2026-04-25T11:34:14Z</time></trkpt><trkpt lat="42.40469960793334" lon="11.208021621596341"><ele>3.666666666666667</ele><time>2026-04-25T11:34:16Z</time></trkpt><trkpt lat="42.4047623202575" lon="11.207988250821801"><ele>6.333333333333334</ele><time>2026-04-25T11:34:17Z</time></trkpt><trkpt lat="42.40480340687565" lon="11.207907746277273"><ele>9.0</ele><time>2026-04-25T11:34:18Z</time></trkpt><trkpt lat="42.4048449074669" lon="11.207836462359166"><ele>11.666666666666668</ele><time>2026-04-25T11:34:19Z</time></trkpt><trkpt lat="42.40487526879799" lon="11.207704031411758"><ele>14.333333333333334</ele><time>2026-04-25T11:34:20Z</time></trkpt><trkpt lat="42.40489901590761" lon="11.207571596917766"><ele>17.0</ele><time>2026-04-25T11:34:21Z</time></trkpt><trkpt lat="42.404945199821626" lon="11.207467371127718"><ele>17.0</ele><time>2026-04-25T11:34:22.999Z</time></trkpt><trkpt lat="42.40496059163882" lon="11.207379485706701"><ele>17.0</ele><time>2026-04-25T11:34:24.999Z</time></trkpt><trkpt lat="42.404991965179136" lon="11.20727633113331"><ele>17.0</ele><time>2026-04-25T11:34:26.999Z</time></trkpt><trkpt lat="42.404975828134965" lon="11.20711484519684"><ele>17.0</ele><time>2026-04-25T11:34:28.999Z</time></trkpt><trkpt lat="42.40491815103018" lon="11.2070131485852"><ele>17.0</ele><time>2026-04-25T11:34:29.999Z</time></trkpt><trkpt lat="42.40489475938515" lon="11.206892459097892"><ele>15.857142857142856</ele><time>2026-04-25T11:34:30.999Z</time></trkpt><trkpt lat="42.40487061858775" lon="11.206790044899478"><ele>14.714285714285714</ele><time>2026-04-25T11:34:31.999Z</time></trkpt><trkpt lat="42.404865679304486" lon="11.206700774881853"><ele>13.571428571428571</ele><time>2026-04-25T11:34:32.999Z</time></trkpt><trkpt lat="42.40491588123318" lon="11.20662307205345"><ele>12.428571428571427</ele><time>2026-04-25T11:34:33.999Z</time></trkpt><trkpt lat="42.404931427738646" lon="11.20653772673928"><ele>11.285714285714285</ele><time>2026-04-25T11:34:34.999Z</time></trkpt><trkpt lat="42.4049273220976" lon="11.20645147336631"><ele>10.142857142857144</ele><time>2026-04-25T11:34:35.999Z</time></trkpt><trkpt lat="42.40489142839207" lon="11.206357633706586"><ele>9.0</ele><time>2026-04-25T11:34:36.999Z</time></trkpt><trkpt lat="42.404813759314244" lon="11.206307875084319"><ele>8.4</ele><time>2026-04-25T11:34:37.999Z</time></trkpt><trkpt lat="42.404695725000956" lon="11.206227812314738"><ele>7.800000000000001</ele><time>2026-04-25T11:34:39.999Z</time></trkpt><trkpt lat="42.404606952653005" lon="11.206076786706484"><ele>7.199999999999999</ele><time>2026-04-25T11:34:41.999Z</time></trkpt><trkpt lat="42.40455189267049" lon="11.206035262063562"><ele>6.6</ele><time>2026-04-25T11:34:42.999Z</time></trkpt><trkpt lat="42.404474118631235" lon="11.206073366211145"><ele>6.0</ele><time>2026-04-25T11:34:43.999Z</time></trkpt><trkpt lat="42.40441009843294" lon="11.206073262761219"><ele>5.3999999999999995</ele><time>2026-04-25T11:34:44.999Z</time></trkpt><trkpt lat="42.404334178053965" lon="11.20614210183126"><ele>4.8</ele><time>2026-04-25T11:34:46.999Z</time></trkpt><trkpt lat="42.40426540756178" lon="11.206150280937681"><ele>4.199999999999999</ele><time>2026-04-25T11:34:48.999Z</time></trkpt><trkpt lat="42.404183339058136" lon="11.206181474123383"><ele>3.5999999999999996</ele><time>2026-04-25T11:34:50.999Z</time></trkpt><trkpt lat="42.40409797804392" lon="11.206217755807115"><ele>3.0</ele><time>2026-04-25T11:34:52.999Z</time></trkpt><trkpt lat="42.403997268268206" lon="11.206297068165481"><ele>3.0</ele><time>2026-04-25T11:34:54.999Z</time></trkpt><trkpt lat="42.40392993918073" lon="11.206330559468128"><ele>3.0</ele><time>2026-04-25T11:34:55.999Z</time></trkpt><trkpt lat="42.40384002454212" lon="11.206410937693912"><ele>3.0</ele><time>2026-04-25T11:34:57.999Z</time></trkpt><trkpt lat="42.40373156139434" lon="11.206440856918771"><ele>3.0</ele><time>2026-04-25T11:34:59.999Z</time></trkpt><trkpt lat="42.4036384627872" lon="11.206431195588046"><ele>3.0</ele><time>2026-04-25T11:35:01.999Z</time></trkpt><trkpt lat="42.40357299681298" lon="11.206404847547265"><ele>2.6666666666666665</ele><time>2026-04-25T11:35:03.999Z</time></trkpt><trkpt lat="42.40349954971414" lon="11.206368514015665"><ele>2.3333333333333335</ele><time>2026-04-25T11:35:05.999Z</time></trkpt><trkpt lat="42.40343659111798" lon="11.206329490645214"><ele>2.0</ele><time>2026-04-25T11:35:07.999Z</time></trkpt><trkpt lat="42.403480678311105" lon="11.206202075416225"><ele>1.6666666666666665</ele><time>2026-04-25T11:35:08.999Z</time></trkpt><trkpt lat="42.40348326590087" lon="11.206046678668386"><ele>1.3333333333333333</ele><time>2026-04-25T11:35:10.999Z</time></trkpt><trkpt lat="42.403490866070406" lon="11.205941748654737"><ele>1.0</ele><time>2026-04-25T11:35:11.999Z</time></trkpt><trkpt lat="42.403506723608835" lon="11.205822027548068"><ele>1.0</ele><time>2026-04-25T11:35:12.999Z</time></trkpt><trkpt lat="42.403548129232156" lon="11.205698822455206"><ele>1.0</ele><time>2026-04-25T11:35:13.999Z</time></trkpt><trkpt lat="42.40358494315128" lon="11.205588843810151"><ele>1.0</ele><time>2026-04-25T11:35:14.999Z</time></trkpt><trkpt lat="42.40359729475792" lon="11.205493966188723"><ele>1.0</ele><time>2026-04-25T11:35:15.999Z</time></trkpt><trkpt lat="42.403613017563785" lon="11.205356847575437"><ele>1.0</ele><time>2026-04-25T11:35:17.999Z</time></trkpt><trkpt lat="42.40364863788831" lon="11.205184763907214"><ele>0.9999999999999999</ele><time>2026-04-25T11:35:19.999Z</time></trkpt><trkpt lat="42.40366563153273" lon="11.205074457330591"><ele>1.0</ele><time>2026-04-25T11:35:20.999Z</time></trkpt><trkpt lat="42.40368442988503" lon="11.204955494528994"><ele>1.0</ele><time>2026-04-25T11:35:21.999Z</time></trkpt><trkpt lat="42.403692282125995" lon="11.204837837922605"><ele>1.0</ele><time>2026-04-25T11:35:23Z</time></trkpt><trkpt lat="42.403710951793144" lon="11.20473404939855"><ele>0.9999999999999999</ele><time>2026-04-25T11:35:24Z</time></trkpt><trkpt lat="42.4037442431488" lon="11.204636263370995"><ele>1.0</ele><time>2026-04-25T11:35:25Z</time></trkpt><trkpt lat="42.40376854437256" lon="11.20451589832203"><ele>1.0</ele><time>2026-04-25T11:35:26Z</time></trkpt><trkpt lat="42.40379595238158" lon="11.204379328233522"><ele>1.0</ele><time>2026-04-25T11:35:27Z</time></trkpt><trkpt lat="42.40382510060742" lon="11.204240306925595"><ele>1.0</ele><time>2026-04-25T11:35:28Z</time></trkpt><trkpt lat="42.40384468470133" lon="11.204098123944185"><ele>1.0</ele><time>2026-04-25T11:35:29Z</time></trkpt><trkpt lat="42.40387037460756" lon="11.203992565714508"><ele>1.0</ele><time>2026-04-25T11:35:30Z</time></trkpt><trkpt lat="42.40387650102047" lon="11.203906679466433"><ele>1.5</ele><time>2026-04-25T11:35:31Z</time></trkpt><trkpt lat="42.403722400050746" lon="11.203794388055801"><ele>2.0</ele><time>2026-04-25T11:35:33Z</time></trkpt><trkpt lat="42.40363125564347" lon="11.203773716352925"><ele>2.5</ele><time>2026-04-25T11:35:34Z</time></trkpt><trkpt lat="42.40353402675209" lon="11.203721873272906"><ele>3.0</ele><time>2026-04-25T11:35:35Z</time></trkpt><trkpt lat="42.40341595371862" lon="11.203686191477843"><ele>3.0</ele><time>2026-04-25T11:35:36Z</time></trkpt><trkpt lat="42.40328966604216" lon="11.203648383013453"><ele>3.0</ele><time>2026-04-25T11:35:37Z</time></trkpt><trkpt lat="42.40316442356702" lon="11.203625914647168"><ele>3.0</ele><time>2026-04-25T11:35:38Z</time></trkpt><trkpt lat="42.40306173249247" lon="11.20358596467098"><ele>3.0</ele><time>2026-04-25T11:35:39Z</time></trkpt><trkpt lat="42.402976785014566" lon="11.203564699097893"><ele>3.0</ele><time>2026-04-25T11:35:40Z</time></trkpt><trkpt lat="42.40290454196382" lon="11.203546613891504"><ele>3.0</ele><time>2026-04-25T11:35:41Z</time></trkpt><trkpt lat="42.402842314998296" lon="11.203521877023995"><ele>3.0</ele><time>2026-04-25T11:35:43Z</time></trkpt><trkpt lat="42.40283644641373" lon="11.20342884622755"><ele>3.0</ele><time>2026-04-25T11:35:45Z</time></trkpt><trkpt lat="42.402857932511026" lon="11.203327115046932"><ele>3.0</ele><time>2026-04-25T11:35:46Z</time></trkpt><trkpt lat="42.40288619338961" lon="11.203205995916456"><ele>3.0</ele><time>2026-04-25T11:35:47Z</time></trkpt><trkpt lat="42.40291457319318" lon="11.203078086919891"><ele>3.0</ele><time>2026-04-25T11:35:48Z</time></trkpt><trkpt lat="42.40294703616846" lon="11.20291698776931"><ele>3.25</ele><time>2026-04-25T11:35:49Z</time></trkpt><trkpt lat="42.40298966962811" lon="11.202744518456516"><ele>3.5</ele><time>2026-04-25T11:35:50Z</time></trkpt><trkpt lat="42.40302519161165" lon="11.202557781892635"><ele>3.75</ele><time>2026-04-25T11:35:51Z</time></trkpt><trkpt lat="42.40306639870511" lon="11.202373226714105"><ele>4.0</ele><time>2026-04-25T11:35:52Z</time></trkpt><trkpt lat="42.403102482208666" lon="11.20217949334373"><ele>4.333333333333333</ele><time>2026-04-25T11:35:53Z</time></trkpt><trkpt lat="42.4031507432832" lon="11.201992255758745"><ele>4.666666666666667</ele><time>2026-04-25T11:35:54Z</time></trkpt><trkpt lat="42.40323719378554" lon="11.201797673578259"><ele>5.0</ele><time>2026-04-25T11:35:55Z</time></trkpt><trkpt lat="42.40332605988981" lon="11.201604410409583"><ele>5.0</ele><time>2026-04-25T11:35:56Z</time></trkpt><trkpt lat="42.4034219574348" lon="11.201431427103524"><ele>5.0</ele><time>2026-04-25T11:35:57Z</time></trkpt><trkpt lat="42.40350963975436" lon="11.201262701783739"><ele>5.0</ele><time>2026-04-25T11:35:58Z</time></trkpt><trkpt lat="42.40360402249422" lon="11.201124408091278"><ele>5.0</ele><time>2026-04-25T11:35:59Z</time></trkpt><trkpt lat="42.40369210564684" lon="11.200991012012267"><ele>5.0</ele><time>2026-04-25T11:36:00Z</time></trkpt><trkpt lat="42.403766150998884" lon="11.20088541318023"><ele>5.0</ele><time>2026-04-25T11:36:01Z</time></trkpt><trkpt lat="42.40383866099599" lon="11.200791528496882"><ele>5.0</ele><time>2026-04-25T11:36:02Z</time></trkpt><trkpt lat="42.403891595774" lon="11.200680514594602"><ele>5.0</ele><time>2026-04-25T11:36:03Z</time></trkpt><trkpt lat="42.40393745238838" lon="11.200595913926273"><ele>5.4</ele><time>2026-04-25T11:36:04Z</time></trkpt><trkpt lat="42.40398050006903" lon="11.20050183756593"><ele>5.8</ele><time>2026-04-25T11:36:06Z</time></trkpt><trkpt lat="42.40390535434162" lon="11.200370174831829"><ele>6.199999999999999</ele><time>2026-04-25T11:36:09Z</time></trkpt><trkpt lat="42.403826163589706" lon="11.200325968657852"><ele>6.6</ele><time>2026-04-25T11:36:10Z</time></trkpt><trkpt lat="42.40372517895462" lon="11.200283003288403"><ele>7.0</ele><time>2026-04-25T11:36:11Z</time></trkpt><trkpt lat="42.403617043310696" lon="11.200237325009448"><ele>7.0</ele><time>2026-04-25T11:36:12Z</time></trkpt><trkpt lat="42.40349632818485" lon="11.20018105841747"><ele>7.0</ele><time>2026-04-25T11:36:13Z</time></trkpt><trkpt lat="42.403365220773225" lon="11.200108990208191"><ele>7.0</ele><time>2026-04-25T11:36:13.999Z</time></trkpt><trkpt lat="42.40323056601528" lon="11.200034168647376"><ele>7.0</ele><time>2026-04-25T11:36:14.999Z</time></trkpt><trkpt lat="42.40309313010963" lon="11.199959913201917"><ele>7.0</ele><time>2026-04-25T11:36:15.999Z</time></trkpt><trkpt lat="42.402955126968685" lon="11.199882487007562"><ele>7.0</ele><time>2026-04-25T11:36:16.999Z</time></trkpt><trkpt lat="42.40281592387929" lon="11.199806564097946"><ele>7.0</ele><time>2026-04-25T11:36:17.999Z</time></trkpt><trkpt lat="42.402680983440355" lon="11.19973284296259"><ele>7.0</ele><time>2026-04-25T11:36:18.999Z</time></trkpt><trkpt lat="42.40254006405021" lon="11.199652195303505"><ele>7.0</ele><time>2026-04-25T11:36:19.999Z</time></trkpt><trkpt lat="42.40242008968017" lon="11.199600254701174"><ele>7.0</ele><time>2026-04-25T11:36:20.999Z</time></trkpt><trkpt lat="42.40230188083141" lon="11.199534357922715"><ele>7.0</ele><time>2026-04-25T11:36:21.999Z</time></trkpt><trkpt lat="42.40218465080454" lon="11.199470159077148"><ele>7.0</ele><time>2026-04-25T11:36:22.999Z</time></trkpt><trkpt lat="42.40206918038064" lon="11.199403586662768"><ele>7.25</ele><time>2026-04-25T11:36:23.999Z</time></trkpt><trkpt lat="42.40194801584803" lon="11.199353246199196"><ele>7.5</ele><time>2026-04-25T11:36:24.999Z</time></trkpt><trkpt lat="42.401834435692855" lon="11.19932117111089"><ele>7.75</ele><time>2026-04-25T11:36:25.999Z</time></trkpt><trkpt lat="42.401727051248805" lon="11.199300509515165"><ele>8.0</ele><time>2026-04-25T11:36:26.999Z</time></trkpt><trkpt lat="42.40162727869132" lon="11.199285806918729"><ele>7.999999999999999</ele><time>2026-04-25T11:36:27.999Z</time></trkpt><trkpt lat="42.4015378824309" lon="11.199256639342948"><ele>8.0</ele><time>2026-04-25T11:36:28.999Z</time></trkpt><trkpt lat="42.401460410223756" lon="11.199205830675119"><ele>8.0</ele><time>2026-04-25T11:36:29.999Z</time></trkpt><trkpt lat="42.40140497641083" lon="11.199132618753055"><ele>8.0</ele><time>2026-04-25T11:36:30.999Z</time></trkpt><trkpt lat="42.401387000667306" lon="11.199040454643525"><ele>7.999999999999999</ele><time>2026-04-25T11:36:31.999Z</time></trkpt><trkpt lat="42.40139975476003" lon="11.198947181722026"><ele>8.0</ele><time>2026-04-25T11:36:32.999Z</time></trkpt><trkpt lat="42.40149936603367" lon="11.198909464316632"><ele>8.4</ele><time>2026-04-25T11:36:33.999Z</time></trkpt><trkpt lat="42.40154119517851" lon="11.198807097036527"><ele>8.8</ele><time>2026-04-25T11:36:34.999Z</time></trkpt><trkpt lat="42.401589773770404" lon="11.198675169123627"><ele>9.2</ele><time>2026-04-25T11:36:35.999Z</time></trkpt><trkpt lat="42.40163619559297" lon="11.198526263467404"><ele>9.6</ele><time>2026-04-25T11:36:36.999Z</time></trkpt><trkpt lat="42.401695347608054" lon="11.198387631359788"><ele>10.0</ele><time>2026-04-25T11:36:37.999Z</time></trkpt><trkpt lat="42.401755034993556" lon="11.198223093765254"><ele>11.0</ele><time>2026-04-25T11:36:38.999Z</time></trkpt><trkpt lat="42.40181058325451" lon="11.198028484461066"><ele>12.0</ele><time>2026-04-25T11:36:39.999Z</time></trkpt><trkpt lat="42.40187176053255" lon="11.197842465641829"><ele>13.0</ele><time>2026-04-25T11:36:40.999Z</time></trkpt><trkpt lat="42.40192972836427" lon="11.19762985783002"><ele>13.0</ele><time>2026-04-25T11:36:41.999Z</time></trkpt><trkpt lat="42.40200536931339" lon="11.197420101488584"><ele>13.0</ele><time>2026-04-25T11:36:42.999Z</time></trkpt><trkpt lat="42.40206068106853" lon="11.197214408806648"><ele>13.0</ele><time>2026-04-25T11:36:43.999Z</time></trkpt><trkpt lat="42.40212323201046" lon="11.19704384117243"><ele>13.25</ele><time>2026-04-25T11:36:44.999Z</time></trkpt><trkpt lat="42.40219122153632" lon="11.196910262577928"><ele>13.5</ele><time>2026-04-25T11:36:45.999Z</time></trkpt><trkpt lat="42.40226644843518" lon="11.196767857232437"><ele>13.75</ele><time>2026-04-25T11:36:46.999Z</time></trkpt><trkpt lat="42.40233610683647" lon="11.196638195768486"><ele>14.0</ele><time>2026-04-25T11:36:47.999Z</time></trkpt><trkpt lat="42.40242754051847" lon="11.196543165204874"><ele>15.0</ele><time>2026-04-25T11:36:48.999Z</time></trkpt><trkpt lat="42.40253006572" lon="11.196424015637762"><ele>16.0</ele><time>2026-04-25T11:36:49.999Z</time></trkpt><trkpt lat="42.40263780517351" lon="11.19629326959895"><ele>17.0</ele><time>2026-04-25T11:36:50.999Z</time></trkpt><trkpt lat="42.402739884704665" lon="11.196167451809382"><ele>18.0</ele><time>2026-04-25T11:36:51.999Z</time></trkpt><trkpt lat="42.40282599156306" lon="11.196045708903856"><ele>18.0</ele><time>2026-04-25T11:36:52.999Z</time></trkpt><trkpt lat="42.402919249413216" lon="11.195938782373085"><ele>18.0</ele><time>2026-04-25T11:36:53.999Z</time></trkpt><trkpt lat="42.40302589843489" lon="11.195855410069134"><ele>18.0</ele><time>2026-04-25T11:36:54.999Z</time></trkpt><trkpt lat="42.40313823116206" lon="11.195778304022673"><ele>18.0</ele><time>2026-04-25T11:36:55.999Z</time></trkpt><trkpt lat="42.403265257505545" lon="11.195712597774293"><ele>18.25</ele><time>2026-04-25T11:36:56.999Z</time></trkpt><trkpt lat="42.40349236474439" lon="11.195626125209191"><ele>18.5</ele><time>2026-04-25T11:36:58.999Z</time></trkpt><trkpt lat="42.403572232916346" lon="11.195585772839197"><ele>18.75</ele><time>2026-04-25T11:36:59.999Z</time></trkpt><trkpt lat="42.40362902158121" lon="11.19551181654673"><ele>19.0</ele><time>2026-04-25T11:37:00.999Z</time></trkpt><trkpt lat="42.40367893731348" lon="11.195407026656175"><ele>19.0</ele><time>2026-04-25T11:37:01.999Z</time></trkpt><trkpt lat="42.40368177639363" lon="11.195253913906372"><ele>19.0</ele><time>2026-04-25T11:37:02.999Z</time></trkpt><trkpt lat="42.403711012191394" lon="11.19508774908064"><ele>19.0</ele><time>2026-04-25T11:37:03.999Z</time></trkpt><trkpt lat="42.40373877478717" lon="11.194916174519914"><ele>19.0</ele><time>2026-04-25T11:37:04.999Z</time></trkpt><trkpt lat="42.40377916164716" lon="11.194791134239368"><ele>19.6</ele><time>2026-04-25T11:37:05.999Z</time></trkpt><trkpt lat="42.403845685724725" lon="11.194677240744086"><ele>20.2</ele><time>2026-04-25T11:37:06.999Z</time></trkpt><trkpt lat="42.40389769642697" lon="11.194556506657351"><ele>20.8</ele><time>2026-04-25T11:37:07.999Z</time></trkpt><trkpt lat="42.403921520891046" lon="11.194464451718181"><ele>21.400000000000002</ele><time>2026-04-25T11:37:08.999Z</time></trkpt><trkpt lat="42.404008476889025" lon="11.19438909254161"><ele>22.0</ele><time>2026-04-25T11:37:11.999Z</time></trkpt><trkpt lat="42.40409406244674" lon="11.194416169409081"><ele>22.0</ele><time>2026-04-25T11:37:13.999Z</time></trkpt><trkpt lat="42.404195611029735" lon="11.194299791056585"><ele>22.0</ele><time>2026-04-25T11:37:15.999Z</time></trkpt><trkpt lat="42.40422182548232" lon="11.194166826320412"><ele>22.0</ele><time>2026-04-25T11:37:16.999Z</time></trkpt><trkpt lat="42.404264799644146" lon="11.194036666195226"><ele>22.0</ele><time>2026-04-25T11:37:17.999Z</time></trkpt><trkpt lat="42.40432520884343" lon="11.193928841941782"><ele>22.0</ele><time>2026-04-25T11:37:18.999Z</time></trkpt><trkpt lat="42.404396941897744" lon="11.193815963084868"><ele>22.75</ele><time>2026-04-25T11:37:19.999Z</time></trkpt><trkpt lat="42.40448678031192" lon="11.193698370318911"><ele>23.5</ele><time>2026-04-25T11:37:20.999Z</time></trkpt><trkpt lat="42.404571381355815" lon="11.193588572748089"><ele>24.25</ele><time>2026-04-25T11:37:21.999Z</time></trkpt><trkpt lat="42.404662638512775" lon="11.193471505386908"><ele>25.0</ele><time>2026-04-25T11:37:22.999Z</time></trkpt><trkpt lat="42.404752046430424" lon="11.193361783227873"><ele>26.25</ele><time>2026-04-25T11:37:23.999Z</time></trkpt><trkpt lat="42.40484577406257" lon="11.193263590390481"><ele>27.5</ele><time>2026-04-25T11:37:24.999Z</time></trkpt><trkpt lat="42.404938874779695" lon="11.19316036891307"><ele>28.75</ele><time>2026-04-25T11:37:25.999Z</time></trkpt><trkpt lat="42.4050162008206" lon="11.19303571551956"><ele>30.0</ele><time>2026-04-25T11:37:26.999Z</time></trkpt><trkpt lat="42.40506955462785" lon="11.192928082883848"><ele>30.833333333333332</ele><time>2026-04-25T11:37:27.999Z</time></trkpt><trkpt lat="42.4051364376577" lon="11.19284733632699"><ele>31.666666666666664</ele><time>2026-04-25T11:37:28.999Z</time></trkpt><trkpt lat="42.40519459703217" lon="11.192793842680949"><ele>32.5</ele><time>2026-04-25T11:37:29.999Z</time></trkpt><trkpt lat="42.40528643159556" lon="11.192722227426573"><ele>33.33333333333333</ele><time>2026-04-25T11:37:31.999Z</time></trkpt><trkpt lat="42.40539751963457" lon="11.192713238245588"><ele>34.166666666666664</ele><time>2026-04-25T11:37:33.999Z</time></trkpt><trkpt lat="42.405450775272676" lon="11.192773566624323"><ele>35.0</ele><time>2026-04-25T11:37:34.999Z</time></trkpt><trkpt lat="42.40549793330249" lon="11.192872074842636"><ele>35.8</ele><time>2026-04-25T11:37:35.999Z</time></trkpt><trkpt lat="42.40554272652375" lon="11.192991115463673"><ele>36.6</ele><time>2026-04-25T11:37:36.999Z</time></trkpt><trkpt lat="42.405598976301114" lon="11.193121913297066"><ele>37.4</ele><time>2026-04-25T11:37:37.999Z</time></trkpt><trkpt lat="42.405642839902846" lon="11.193249321303783"><ele>38.2</ele><time>2026-04-25T11:37:38.999Z</time></trkpt><trkpt lat="42.405674638848744" lon="11.19336461959488"><ele>39.0</ele><time>2026-04-25T11:37:39.999Z</time></trkpt><trkpt lat="42.40571780945447" lon="11.193464011831514"><ele>39.0</ele><time>2026-04-25T11:37:40.999Z</time></trkpt><trkpt lat="42.40577168397233" lon="11.193535571508122"><ele>39.0</ele><time>2026-04-25T11:37:41.999Z</time></trkpt><trkpt lat="42.405824816954336" lon="11.193601688244033"><ele>39.0</ele><time>2026-04-25T11:37:42.999Z</time></trkpt><trkpt lat="42.40591255897959" lon="11.19360731289215"><ele>39.0</ele><time>2026-04-25T11:37:43.999Z</time></trkpt><trkpt lat="42.406014132781735" lon="11.193549428451618"><ele>39.0</ele><time>2026-04-25T11:37:45.999Z</time></trkpt><trkpt lat="42.40602276697916" lon="11.193427326187317"><ele>39.0</ele><time>2026-04-25T11:37:46.999Z</time></trkpt><trkpt lat="42.40606519454627" lon="11.193342568959952"><ele>39.0</ele><time>2026-04-25T11:37:47.999Z</time></trkpt><trkpt lat="42.40613021477507" lon="11.193253487362618"><ele>39.0</ele><time>2026-04-25T11:37:49Z</time></trkpt><trkpt lat="42.40619476189907" lon="11.193160414160728"><ele>39.0</ele><time>2026-04-25T11:37:50Z</time></trkpt><trkpt lat="42.406273369821726" lon="11.193045661038788"><ele>39.0</ele><time>2026-04-25T11:37:51Z</time></trkpt><trkpt lat="42.40636704354907" lon="11.192908914731188"><ele>39.0</ele><time>2026-04-25T11:37:52Z</time></trkpt><trkpt lat="42.406466000154" lon="11.192767905556094"><ele>43.75</ele><time>2026-04-25T11:37:53Z</time></trkpt><trkpt lat="42.40655238069541" lon="11.192645980096671"><ele>48.5</ele><time>2026-04-25T11:37:54Z</time></trkpt><trkpt lat="42.40662608414084" lon="11.192538325915308"><ele>53.25</ele><time>2026-04-25T11:37:55Z</time></trkpt><trkpt lat="42.406703959019296" lon="11.19241700787129"><ele>58.0</ele><time>2026-04-25T11:37:56Z</time></trkpt><trkpt lat="42.40676790173488" lon="11.192303472957956"><ele>59.5</ele><time>2026-04-25T11:37:57Z</time></trkpt><trkpt lat="42.40682661812061" lon="11.192164483693539"><ele>61.0</ele><time>2026-04-25T11:37:58Z</time></trkpt><trkpt lat="42.406870898936454" lon="11.192013955155371"><ele>62.5</ele><time>2026-04-25T11:37:59Z</time></trkpt><trkpt lat="42.40689878797561" lon="11.19184714342489"><ele>64.0</ele><time>2026-04-25T11:38:00Z</time></trkpt><trkpt lat="42.40693510448841" lon="11.19169707028174"><ele>64.0</ele><time>2026-04-25T11:38:01Z</time></trkpt><trkpt lat="42.406970607273394" lon="11.191569730348371"><ele>64.0</ele><time>2026-04-25T11:38:02Z</time></trkpt><trkpt lat="42.40700670601478" lon="11.191453481414156"><ele>64.0</ele><time>2026-04-25T11:38:03Z</time></trkpt><trkpt lat="42.407056889354294" lon="11.191314995645474"><ele>64.0</ele><time>2026-04-25T11:38:04Z</time></trkpt><trkpt lat="42.40711018156771" lon="11.191166332570765"><ele>64.0</ele><time>2026-04-25T11:38:05Z</time></trkpt><trkpt lat="42.407160784671575" lon="11.190989181271458"><ele>65.75</ele><time>2026-04-25T11:38:06Z</time></trkpt><trkpt lat="42.40715812201958" lon="11.190820190136737"><ele>67.5</ele><time>2026-04-25T11:38:07Z</time></trkpt><trkpt lat="42.40719472590229" lon="11.190631851536835"><ele>69.25</ele><time>2026-04-25T11:38:08Z</time></trkpt><trkpt lat="42.40723793930137" lon="11.190452774128957"><ele>71.0</ele><time>2026-04-25T11:38:09Z</time></trkpt><trkpt lat="42.40727438146789" lon="11.19028960086024"><ele>76.0</ele><time>2026-04-25T11:38:09.999Z</time></trkpt><trkpt lat="42.40734997747466" lon="11.19015387758683"><ele>81.0</ele><time>2026-04-25T11:38:10.999Z</time></trkpt><trkpt lat="42.407390212301976" lon="11.19003521939857"><ele>86.0</ele><time>2026-04-25T11:38:11.999Z</time></trkpt><trkpt lat="42.40744324916513" lon="11.18991588134563"><ele>91.0</ele><time>2026-04-25T11:38:12.999Z</time></trkpt><trkpt lat="42.40750269096787" lon="11.18982662805187"><ele>96.0</ele><time>2026-04-25T11:38:13.999Z</time></trkpt><trkpt lat="42.40757307683539" lon="11.189720911444637"><ele>97.25</ele><time>2026-04-25T11:38:14.999Z</time></trkpt><trkpt lat="42.40764091330535" lon="11.189610167682805"><ele>98.5</ele><time>2026-04-25T11:38:15.999Z</time></trkpt><trkpt lat="42.407708421253766" lon="11.189499960553826"><ele>99.75</ele><time>2026-04-25T11:38:16.999Z</time></trkpt><trkpt lat="42.4077591033219" lon="11.18941379079845"><ele>101.0</ele><time>2026-04-25T11:38:17.999Z</time></trkpt><trkpt lat="42.40785603773625" lon="11.189222621722468"><ele>101.0</ele><time>2026-04-25T11:38:18.999Z</time></trkpt><trkpt lat="42.407917295219875" lon="11.189101531569516"><ele>101.0</ele><time>2026-04-25T11:38:19.999Z</time></trkpt><trkpt lat="42.407910147879754" lon="11.188994004742243"><ele>101.0</ele><time>2026-04-25T11:38:20.999Z</time></trkpt><trkpt lat="42.407994176425184" lon="11.188913304728558"><ele>101.0</ele><time>2026-04-25T11:38:21.999Z</time></trkpt><trkpt lat="42.40808968169408" lon="11.188804939399585"><ele>101.0</ele><time>2026-04-25T11:38:22.999Z</time></trkpt><trkpt lat="42.40817687553756" lon="11.188699461797514"><ele>104.25</ele><time>2026-04-25T11:38:23.999Z</time></trkpt><trkpt lat="42.408260162443376" lon="11.188607686811073"><ele>107.5</ele><time>2026-04-25T11:38:24.999Z</time></trkpt><trkpt lat="42.408312130189486" lon="11.188476448096905"><ele>110.75</ele><time>2026-04-25T11:38:25.999Z</time></trkpt><trkpt lat="42.408396324749845" lon="11.1883178194057"><ele>114.0</ele><time>2026-04-25T11:38:26.999Z</time></trkpt><trkpt lat="42.40847236905133" lon="11.188159594198423"><ele>114.0</ele><time>2026-04-25T11:38:27.999Z</time></trkpt><trkpt lat="42.40855365888326" lon="11.188014514329208"><ele>114.0</ele><time>2026-04-25T11:38:28.999Z</time></trkpt><trkpt lat="42.40863197475267" lon="11.187885666246888"><ele>114.0</ele><time>2026-04-25T11:38:29.999Z</time></trkpt><trkpt lat="42.40871620880999" lon="11.187766479452486"><ele>114.0</ele><time>2026-04-25T11:38:30.999Z</time></trkpt><trkpt lat="42.408806920710894" lon="11.187670127007983"><ele>115.25</ele><time>2026-04-25T11:38:31.999Z</time></trkpt><trkpt lat="42.40890480493191" lon="11.187583442178997"><ele>116.5</ele><time>2026-04-25T11:38:32.999Z</time></trkpt><trkpt lat="42.40901028739864" lon="11.187491799740632"><ele>117.75</ele><time>2026-04-25T11:38:33.999Z</time></trkpt><trkpt lat="42.409125701942635" lon="11.187392873355913"><ele>119.0</ele><time>2026-04-25T11:38:34.999Z</time></trkpt><trkpt lat="42.409259691114954" lon="11.187282020945602"><ele>119.0</ele><time>2026-04-25T11:38:35.999Z</time></trkpt><trkpt lat="42.40939346451763" lon="11.187172255745686"><ele>119.0</ele><time>2026-04-25T11:38:36.999Z</time></trkpt><trkpt lat="42.40952996929096" lon="11.18706018767406"><ele>119.0</ele><time>2026-04-25T11:38:37.999Z</time></trkpt><trkpt lat="42.409669746742175" lon="11.186941310467914"><ele>121.25</ele><time>2026-04-25T11:38:38.999Z</time></trkpt><trkpt lat="42.40978563607616" lon="11.186838319450244"><ele>123.5</ele><time>2026-04-25T11:38:39.999Z</time></trkpt><trkpt lat="42.40988942091913" lon="11.186742392758715"><ele>125.75</ele><time>2026-04-25T11:38:40.999Z</time></trkpt><trkpt lat="42.409992521772054" lon="11.186643453698569"><ele>128.0</ele><time>2026-04-25T11:38:41.999Z</time></trkpt><trkpt lat="42.410083469473605" lon="11.186525372784894"><ele>128.8</ele><time>2026-04-25T11:38:42.999Z</time></trkpt><trkpt lat="42.410182000436556" lon="11.186410734593832"><ele>129.60000000000002</ele><time>2026-04-25T11:38:43.999Z</time></trkpt><trkpt lat="42.410288402037935" lon="11.186298379235172"><ele>130.39999999999998</ele><time>2026-04-25T11:38:44.999Z</time></trkpt><trkpt lat="42.410371492227746" lon="11.18622938590959"><ele>131.2</ele><time>2026-04-25T11:38:45.999Z</time></trkpt><trkpt lat="42.41043133226598" lon="11.186179727568563"><ele>132.0</ele><time>2026-04-25T11:38:46.999Z</time></trkpt><trkpt lat="42.41054453894681" lon="11.186071858956167"><ele>132.16666666666666</ele><time>2026-04-25T11:38:48.999Z</time></trkpt><trkpt lat="42.41061912275719" lon="11.18602240947643"><ele>132.33333333333334</ele><time>2026-04-25T11:38:49.999Z</time></trkpt><trkpt lat="42.41067938595793" lon="11.185973113299152"><ele>132.5</ele><time>2026-04-25T11:38:50.999Z</time></trkpt><trkpt lat="42.410749190688996" lon="11.185918793274569"><ele>132.66666666666669</ele><time>2026-04-25T11:38:51.999Z</time></trkpt><trkpt lat="42.410830691486744" lon="11.185862228867068"><ele>132.83333333333334</ele><time>2026-04-25T11:38:52.999Z</time></trkpt><trkpt lat="42.41091727626329" lon="11.185816062197786"><ele>133.0</ele><time>2026-04-25T11:38:53.999Z</time></trkpt><trkpt lat="42.41100264993568" lon="11.1857746134951"><ele>133.0</ele><time>2026-04-25T11:38:54.999Z</time></trkpt><trkpt lat="42.41107445509314" lon="11.185729690127461"><ele>133.0</ele><time>2026-04-25T11:38:55.999Z</time></trkpt><trkpt lat="42.41113822975404" lon="11.185670674652398"><ele>133.0</ele><time>2026-04-25T11:38:56.999Z</time></trkpt><trkpt lat="42.411194743238966" lon="11.185604592936649"><ele>133.0</ele><time>2026-04-25T11:38:57.999Z</time></trkpt><trkpt lat="42.411224687286364" lon="11.185520301183344"><ele>133.0</ele><time>2026-04-25T11:38:58.999Z</time></trkpt><trkpt lat="42.411283814109176" lon="11.185454302901531"><ele>133.0</ele><time>2026-04-25T11:38:59.999Z</time></trkpt><trkpt lat="42.41134754173804" lon="11.185339690327684"><ele>128.4</ele><time>2026-04-25T11:39:00.999Z</time></trkpt><trkpt lat="42.41142302133756" lon="11.185185782630512"><ele>123.80000000000001</ele><time>2026-04-25T11:39:01.999Z</time></trkpt><trkpt lat="42.41148017262598" lon="11.185042151188403"><ele>119.2</ele><time>2026-04-25T11:39:02.999Z</time></trkpt><trkpt lat="42.41151575538174" lon="11.184916888511191"><ele>114.6</ele><time>2026-04-25T11:39:03.999Z</time></trkpt><trkpt lat="42.41152861710884" lon="11.184795222939997"><ele>110.0</ele><time>2026-04-25T11:39:04.999Z</time></trkpt><trkpt lat="42.41154393219166" lon="11.184667743533623"><ele>109.75</ele><time>2026-04-25T11:39:05.999Z</time></trkpt><trkpt lat="42.41156725145823" lon="11.184490038745492"><ele>109.5</ele><time>2026-04-25T11:39:06.999Z</time></trkpt><trkpt lat="42.41156815419454" lon="11.184286172817693"><ele>109.25</ele><time>2026-04-25T11:39:07.999Z</time></trkpt><trkpt lat="42.41156962644184" lon="11.184107628314123"><ele>109.0</ele><time>2026-04-25T11:39:08.999Z</time></trkpt><trkpt lat="42.41157623978529" lon="11.183946604461044"><ele>109.0</ele><time>2026-04-25T11:39:09.999Z</time></trkpt><trkpt lat="42.41159255502493" lon="11.183815327918426"><ele>109.0</ele><time>2026-04-25T11:39:10.999Z</time></trkpt><trkpt lat="42.41162076176819" lon="11.183682944907472"><ele>109.0</ele><time>2026-04-25T11:39:11.999Z</time></trkpt><trkpt lat="42.411658437566196" lon="11.183536862024157"><ele>109.0</ele><time>2026-04-25T11:39:12.999Z</time></trkpt><trkpt lat="42.41170779914872" lon="11.183371286814353"><ele>109.0</ele><time>2026-04-25T11:39:13.999Z</time></trkpt><trkpt lat="42.41175601832807" lon="11.183228640697168"><ele>109.6</ele><time>2026-04-25T11:39:14.999Z</time></trkpt><trkpt lat="42.4118171149552" lon="11.183072532687197"><ele>110.2</ele><time>2026-04-25T11:39:15.999Z</time></trkpt><trkpt lat="42.41187226556286" lon="11.182949104704809"><ele>110.79999999999998</ele><time>2026-04-25T11:39:16.999Z</time></trkpt><trkpt lat="42.411922913529224" lon="11.18285249120444"><ele>111.39999999999999</ele><time>2026-04-25T11:39:17.999Z</time></trkpt><trkpt lat="42.41198324467934" lon="11.182769085284477"><ele>112.0</ele><time>2026-04-25T11:39:18.999Z</time></trkpt><trkpt lat="42.41204554319028" lon="11.182661178784905"><ele>112.0</ele><time>2026-04-25T11:39:19.999Z</time></trkpt><trkpt lat="42.41209194631624" lon="11.182508156731268"><ele>111.99999999999999</ele><time>2026-04-25T11:39:20.999Z</time></trkpt><trkpt lat="42.41212394031786" lon="11.182364288809577"><ele>111.99999999999999</ele><time>2026-04-25T11:39:21.999Z</time></trkpt><trkpt lat="42.41214978039609" lon="11.182228462029151"><ele>112.0</ele><time>2026-04-25T11:39:22.999Z</time></trkpt><trkpt lat="42.41217021513333" lon="11.182087895665568"><ele>112.0</ele><time>2026-04-25T11:39:23.999Z</time></trkpt><trkpt lat="42.41218930653158" lon="11.181948826153192"><ele>107.83333333333334</ele><time>2026-04-25T11:39:24.999Z</time></trkpt><trkpt lat="42.41220751215816" lon="11.181816208959328"><ele>103.66666666666667</ele><time>2026-04-25T11:39:25.999Z</time></trkpt><trkpt lat="42.412202441071074" lon="11.181704341574132"><ele>99.5</ele><time>2026-04-25T11:39:26.999Z</time></trkpt><trkpt lat="42.412210683383286" lon="11.18160503938821"><ele>95.33333333333334</ele><time>2026-04-25T11:39:27.999Z</time></trkpt><trkpt lat="42.41218957081356" lon="11.181483532499842"><ele>91.16666666666667</ele><time>2026-04-25T11:39:28.999Z</time></trkpt><trkpt lat="42.41217498571845" lon="11.181366700647247"><ele>87.0</ele><time>2026-04-25T11:39:29.999Z</time></trkpt><trkpt lat="42.41217724373266" lon="11.181256133740396"><ele>86.39999999999999</ele><time>2026-04-25T11:39:30.999Z</time></trkpt><trkpt lat="42.41217047152926" lon="11.181110539863726"><ele>85.8</ele><time>2026-04-25T11:39:31.999Z</time></trkpt><trkpt lat="42.41213946159728" lon="11.180983047185698"><ele>85.2</ele><time>2026-04-25T11:39:32.999Z</time></trkpt><trkpt lat="42.41212869484659" lon="11.18086873017073"><ele>84.6</ele><time>2026-04-25T11:39:33.999Z</time></trkpt><trkpt lat="42.41210826149492" lon="11.18075684318489"><ele>84.0</ele><time>2026-04-25T11:39:34.999Z</time></trkpt><trkpt lat="42.4120946919797" lon="11.1806030641807"><ele>83.75</ele><time>2026-04-25T11:39:36.999Z</time></trkpt><trkpt lat="42.41211295136826" lon="11.1804145928214"><ele>83.5</ele><time>2026-04-25T11:39:38.999Z</time></trkpt><trkpt lat="42.41212183201674" lon="11.18029950234076"><ele>83.25</ele><time>2026-04-25T11:39:39.999Z</time></trkpt><trkpt lat="42.4121711905563" lon="11.180163937883128"><ele>83.0</ele><time>2026-04-25T11:39:41.999Z</time></trkpt><trkpt lat="42.41222501317702" lon="11.180021216985045"><ele>83.0</ele><time>2026-04-25T11:39:43.999Z</time></trkpt><trkpt lat="42.41226564475161" lon="11.17995465931901"><ele>83.0</ele><time>2026-04-25T11:39:44.999Z</time></trkpt><trkpt lat="42.412321404132186" lon="11.179889356363283"><ele>83.0</ele><time>2026-04-25T11:39:45.999Z</time></trkpt><trkpt lat="42.41239716529344" lon="11.17983528557115"><ele>83.0</ele><time>2026-04-25T11:39:47.999Z</time></trkpt><trkpt lat="42.412461896353385" lon="11.179797406260402"><ele>83.0</ele><time>2026-04-25T11:39:49.999Z</time></trkpt><trkpt lat="42.412522959653266" lon="11.17976054989353"><ele>83.0</ele><time>2026-04-25T11:39:51.999Z</time></trkpt><trkpt lat="42.41252634080902" lon="11.179609747806966"><ele>82.60000000000001</ele><time>2026-04-25T11:39:52.999Z</time></trkpt><trkpt lat="42.41249295292066" lon="11.179432969622068"><ele>82.2</ele><time>2026-04-25T11:39:54.999Z</time></trkpt><trkpt lat="42.41242215836146" lon="11.17934949205211"><ele>81.8</ele><time>2026-04-25T11:39:55.999Z</time></trkpt><trkpt lat="42.412342694887144" lon="11.179306742300795"><ele>81.4</ele><time>2026-04-25T11:39:57Z</time></trkpt><trkpt lat="42.41225402344794" lon="11.179265382197432"><ele>81.0</ele><time>2026-04-25T11:39:58Z</time></trkpt><trkpt lat="42.4121439698823" lon="11.179246726792456"><ele>85.19999999999999</ele><time>2026-04-25T11:39:59Z</time></trkpt><trkpt lat="42.41202702480018" lon="11.179258808987015"><ele>89.39999999999999</ele><time>2026-04-25T11:40:00Z</time></trkpt><trkpt lat="42.41193791587528" lon="11.179262477639108"><ele>93.6</ele><time>2026-04-25T11:40:01Z</time></trkpt><trkpt lat="42.411863401171665" lon="11.179258965023006"><ele>97.8</ele><time>2026-04-25T11:40:02Z</time></trkpt><trkpt lat="42.411859836002726" lon="11.179159796187491"><ele>102.0</ele><time>2026-04-25T11:40:10Z</time></trkpt><trkpt lat="42.411934783065206" lon="11.178999940823395"><ele>103.66666666666667</ele><time>2026-04-25T11:40:12Z</time></trkpt><trkpt lat="42.4119962592143" lon="11.178909310096643"><ele>105.33333333333334</ele><time>2026-04-25T11:40:13Z</time></trkpt><trkpt lat="42.412056790291565" lon="11.178825420537777"><ele>107.0</ele><time>2026-04-25T11:40:14Z</time></trkpt><trkpt lat="42.41212623450065" lon="11.178722528804139"><ele>108.66666666666667</ele><time>2026-04-25T11:40:15Z</time></trkpt><trkpt lat="42.412182664656726" lon="11.178644919592616"><ele>110.33333333333334</ele><time>2026-04-25T11:40:16Z</time></trkpt><trkpt lat="42.41224462157104" lon="11.17856267132601"><ele>112.0</ele><time>2026-04-25T11:40:17Z</time></trkpt><trkpt lat="42.41232149188109" lon="11.178453022427666"><ele>110.0</ele><time>2026-04-25T11:40:18Z</time></trkpt><trkpt lat="42.41239852460387" lon="11.178367393475416"><ele>107.99999999999999</ele><time>2026-04-25T11:40:19Z</time></trkpt><trkpt lat="42.41244724913793" lon="11.1782714485974"><ele>106.0</ele><time>2026-04-25T11:40:20Z</time></trkpt><trkpt lat="42.412504815475366" lon="11.178209734131332"><ele>104.0</ele><time>2026-04-25T11:40:21Z</time></trkpt><trkpt lat="42.412583660095734" lon="11.178084206418976"><ele>102.0</ele><time>2026-04-25T11:40:23Z</time></trkpt><trkpt lat="42.41265503001315" lon="11.177972836783159"><ele>102.0</ele><time>2026-04-25T11:40:24.999Z</time></trkpt><trkpt lat="42.41270042994039" lon="11.177907481777599"><ele>102.0</ele><time>2026-04-25T11:40:25.999Z</time></trkpt><trkpt lat="42.41278420964963" lon="11.177808454456494"><ele>102.0</ele><time>2026-04-25T11:40:27.999Z</time></trkpt><trkpt lat="42.412849018047154" lon="11.177753662115977"><ele>102.0</ele><time>2026-04-25T11:40:28.999Z</time></trkpt><trkpt lat="42.41291864036996" lon="11.177703891008594"><ele>102.0</ele><time>2026-04-25T11:40:29.999Z</time></trkpt><trkpt lat="42.41298905449308" lon="11.177654113302946"><ele>102.0</ele><time>2026-04-25T11:40:30.999Z</time></trkpt><trkpt lat="42.41306598962274" lon="11.177589328033037"><ele>98.83333333333333</ele><time>2026-04-25T11:40:31.999Z</time></trkpt><trkpt lat="42.4131309465962" lon="11.177489695775105"><ele>95.66666666666667</ele><time>2026-04-25T11:40:32.999Z</time></trkpt><trkpt lat="42.41316594255613" lon="11.177393986955847"><ele>92.5</ele><time>2026-04-25T11:40:33.999Z</time></trkpt><trkpt lat="42.41315505635427" lon="11.177287994450756"><ele>89.33333333333334</ele><time>2026-04-25T11:40:34.999Z</time></trkpt><trkpt lat="42.41313080544279" lon="11.177184097227197"><ele>86.16666666666667</ele><time>2026-04-25T11:40:35.999Z</time></trkpt><trkpt lat="42.41309585554303" lon="11.177062388075262"><ele>83.0</ele><time>2026-04-25T11:40:36.999Z</time></trkpt><trkpt lat="42.413018504919535" lon="11.176958539712528"><ele>86.0</ele><time>2026-04-25T11:40:37.999Z</time></trkpt><trkpt lat="42.41291495807101" lon="11.176888426554529"><ele>89.0</ele><time>2026-04-25T11:40:38.999Z</time></trkpt><trkpt lat="42.412833219633704" lon="11.176803433027185"><ele>92.0</ele><time>2026-04-25T11:40:39.999Z</time></trkpt><trkpt lat="42.41272404737427" lon="11.176729822833545"><ele>95.0</ele><time>2026-04-25T11:40:40.999Z</time></trkpt><trkpt lat="42.412603881553686" lon="11.176657951757182"><ele>95.0</ele><time>2026-04-25T11:40:41.999Z</time></trkpt><trkpt lat="42.41248444122232" lon="11.176588456299505"><ele>95.0</ele><time>2026-04-25T11:40:42.999Z</time></trkpt><trkpt lat="42.41234358674014" lon="11.176505376500305"><ele>95.0</ele><time>2026-04-25T11:40:43.999Z</time></trkpt><trkpt lat="42.41220811322338" lon="11.176423198714218"><ele>95.0</ele><time>2026-04-25T11:40:44.999Z</time></trkpt><trkpt lat="42.412064745609506" lon="11.176337291593809"><ele>95.4</ele><time>2026-04-25T11:40:45.999Z</time></trkpt><trkpt lat="42.41195371310074" lon="11.176273844489671"><ele>95.8</ele><time>2026-04-25T11:40:46.999Z</time></trkpt><trkpt lat="42.411845318763014" lon="11.176218111481017"><ele>96.19999999999999</ele><time>2026-04-25T11:40:47.999Z</time></trkpt><trkpt lat="42.411747197590074" lon="11.176169346784315"><ele>96.6</ele><time>2026-04-25T11:40:48.999Z</time></trkpt><trkpt lat="42.411666757648696" lon="11.176134155481238"><ele>97.0</ele><time>2026-04-25T11:40:49.999Z</time></trkpt><trkpt lat="42.411565437099405" lon="11.1760847697757"><ele>97.0</ele><time>2026-04-25T11:40:50.999Z</time></trkpt><trkpt lat="42.411472186702156" lon="11.17604323870572"><ele>97.0</ele><time>2026-04-25T11:40:51.999Z</time></trkpt><trkpt lat="42.41138392747162" lon="11.176006896722095"><ele>97.0</ele><time>2026-04-25T11:40:52.999Z</time></trkpt><trkpt lat="42.411285557193665" lon="11.175966391317539"><ele>97.0</ele><time>2026-04-25T11:40:53.999Z</time></trkpt><trkpt lat="42.41118245543322" lon="11.17591488063087"><ele>97.0</ele><time>2026-04-25T11:40:54.999Z</time></trkpt><trkpt lat="42.4111140768709" lon="11.175864511049"><ele>99.66666666666667</ele><time>2026-04-25T11:40:55.999Z</time></trkpt><trkpt lat="42.411059600566865" lon="11.175819283338607"><ele>102.33333333333334</ele><time>2026-04-25T11:40:56.999Z</time></trkpt><trkpt lat="42.41103620804055" lon="11.17573255482999"><ele>105.0</ele><time>2026-04-25T11:40:58.999Z</time></trkpt><trkpt lat="42.411099749900984" lon="11.175665650859035"><ele>107.66666666666666</ele><time>2026-04-25T11:41:00.999Z</time></trkpt><trkpt lat="42.41114898103678" lon="11.175608122587999"><ele>110.33333333333333</ele><time>2026-04-25T11:41:01.999Z</time></trkpt><trkpt lat="42.411209034688426" lon="11.175530838086296"><ele>113.0</ele><time>2026-04-25T11:41:02.999Z</time></trkpt><trkpt lat="42.41127512966515" lon="11.17543085489025"><ele>112.80000000000001</ele><time>2026-04-25T11:41:03.999Z</time></trkpt><trkpt lat="42.41135375093199" lon="11.175308578494104"><ele>112.60000000000001</ele><time>2026-04-25T11:41:04.999Z</time></trkpt><trkpt lat="42.41143027213359" lon="11.17517430636705"><ele>112.39999999999999</ele><time>2026-04-25T11:41:05.999Z</time></trkpt><trkpt lat="42.41148314999707" lon="11.175051931557512"><ele>112.19999999999999</ele><time>2026-04-25T11:41:06.999Z</time></trkpt><trkpt lat="42.411503210546265" lon="11.174931988150792"><ele>112.0</ele><time>2026-04-25T11:41:07.999Z</time></trkpt><trkpt lat="42.411455457050245" lon="11.17482590123148"><ele>112.0</ele><time>2026-04-25T11:41:08.999Z</time></trkpt><trkpt lat="42.411427998437674" lon="11.174735312838173"><ele>111.99999999999999</ele><time>2026-04-25T11:41:09.999Z</time></trkpt><trkpt lat="42.4113861833018" lon="11.174616542610833"><ele>111.99999999999999</ele><time>2026-04-25T11:41:10.999Z</time></trkpt><trkpt lat="42.41136000564717" lon="11.17451877852652"><ele>112.0</ele><time>2026-04-25T11:41:11.999Z</time></trkpt><trkpt lat="42.41141176190215" lon="11.174464910537734"><ele>112.0</ele><time>2026-04-25T11:41:14.999Z</time></trkpt><trkpt lat="42.411559456348364" lon="11.174390316854355"><ele>112.0</ele><time>2026-04-25T11:41:16.999Z</time></trkpt><trkpt lat="42.41167638666196" lon="11.174333471461411"><ele>112.0</ele><time>2026-04-25T11:41:17.999Z</time></trkpt><trkpt lat="42.4118070195412" lon="11.174255460599696"><ele>112.0</ele><time>2026-04-25T11:41:18.999Z</time></trkpt><trkpt lat="42.41191585179659" lon="11.174201495712095"><ele>112.0</ele><time>2026-04-25T11:41:19.999Z</time></trkpt><trkpt lat="42.41201659030707" lon="11.174199613503042"><ele>112.0</ele><time>2026-04-25T11:41:20.998Z</time></trkpt><trkpt lat="42.41209980364614" lon="11.174237214514505"><ele>112.0</ele><time>2026-04-25T11:41:21.998Z</time></trkpt><trkpt lat="42.41219793849997" lon="11.174305354461804"><ele>112.0</ele><time>2026-04-25T11:41:22.998Z</time></trkpt><trkpt lat="42.412322896371734" lon="11.17438323367849"><ele>112.0</ele><time>2026-04-25T11:41:23.998Z</time></trkpt><trkpt lat="42.41245697535934" lon="11.174457246832572"><ele>113.0</ele><time>2026-04-25T11:41:24.998Z</time></trkpt><trkpt lat="42.4125613021832" lon="11.174548471603213"><ele>113.99999999999999</ele><time>2026-04-25T11:41:25.998Z</time></trkpt><trkpt lat="42.4126541169217" lon="11.174582243036776"><ele>114.99999999999999</ele><time>2026-04-25T11:41:26.998Z</time></trkpt><trkpt lat="42.412745084718246" lon="11.174617266564768"><ele>116.0</ele><time>2026-04-25T11:41:27.998Z</time></trkpt><trkpt lat="42.41282851413697" lon="11.174623692105106"><ele>117.0</ele><time>2026-04-25T11:41:28.998Z</time></trkpt><trkpt lat="42.41291687475514" lon="11.174608140563782"><ele>114.39999999999999</ele><time>2026-04-25T11:41:29.998Z</time></trkpt><trkpt lat="42.41302989281536" lon="11.174578889782007"><ele>111.79999999999998</ele><time>2026-04-25T11:41:30.998Z</time></trkpt><trkpt lat="42.41313952089158" lon="11.174535817765921"><ele>109.2</ele><time>2026-04-25T11:41:31.998Z</time></trkpt><trkpt lat="42.41323328089876" lon="11.174496088122112"><ele>106.6</ele><time>2026-04-25T11:41:32.998Z</time></trkpt><trkpt lat="42.41329492656565" lon="11.174461441197794"><ele>104.0</ele><time>2026-04-25T11:41:33.998Z</time></trkpt><trkpt lat="42.41335856094862" lon="11.174330317487875"><ele>104.0</ele><time>2026-04-25T11:41:35.998Z</time></trkpt><trkpt lat="42.41335386080694" lon="11.174220324085738"><ele>104.0</ele><time>2026-04-25T11:41:36.998Z</time></trkpt><trkpt lat="42.41333722905569" lon="11.174118912787984"><ele>104.0</ele><time>2026-04-25T11:41:37.998Z</time></trkpt><trkpt lat="42.41330993427084" lon="11.173999619192381"><ele>104.0</ele><time>2026-04-25T11:41:38.998Z</time></trkpt><trkpt lat="42.41325546051418" lon="11.173867925997472"><ele>104.0</ele><time>2026-04-25T11:41:39.998Z</time></trkpt><trkpt lat="42.413200859060595" lon="11.173733676587773"><ele>104.0</ele><time>2026-04-25T11:41:40.998Z</time></trkpt><trkpt lat="42.413157882174005" lon="11.173617465715097"><ele>104.0</ele><time>2026-04-25T11:41:41.998Z</time></trkpt><trkpt lat="42.413108097454334" lon="11.17347863604633"><ele>104.0</ele><time>2026-04-25T11:41:42.998Z</time></trkpt><trkpt lat="42.413045478193006" lon="11.17330311307065"><ele>104.0</ele><time>2026-04-25T11:41:43.998Z</time></trkpt><trkpt lat="42.412983879894135" lon="11.173122057274679"><ele>110.80000000000001</ele><time>2026-04-25T11:41:44.998Z</time></trkpt><trkpt lat="42.41293634726337" lon="11.172969985767466"><ele>117.60000000000001</ele><time>2026-04-25T11:41:45.998Z</time></trkpt><trkpt lat="42.4128970858559" lon="11.172828627806577"><ele>124.4</ele><time>2026-04-25T11:41:46.998Z</time></trkpt><trkpt lat="42.412867723302604" lon="11.17270950806803"><ele>131.20000000000002</ele><time>2026-04-25T11:41:47.998Z</time></trkpt><trkpt lat="42.412847367706945" lon="11.17257973076882"><ele>138.0</ele><time>2026-04-25T11:41:48.998Z</time></trkpt><trkpt lat="42.41284264199675" lon="11.172406935449073"><ele>136.8</ele><time>2026-04-25T11:41:49.998Z</time></trkpt><trkpt lat="42.412872054541836" lon="11.172253577983234"><ele>135.60000000000002</ele><time>2026-04-25T11:41:50.999Z</time></trkpt><trkpt lat="42.41290018349793" lon="11.172142903661536"><ele>134.39999999999998</ele><time>2026-04-25T11:41:51.999Z</time></trkpt><trkpt lat="42.41293194710931" lon="11.172046906085779"><ele>133.2</ele><time>2026-04-25T11:41:52.999Z</time></trkpt><trkpt lat="42.412973258542486" lon="11.171925722991976"><ele>132.0</ele><time>2026-04-25T11:41:53.999Z</time></trkpt><trkpt lat="42.41301937253545" lon="11.171802557601447"><ele>132.0</ele><time>2026-04-25T11:41:54.999Z</time></trkpt><trkpt lat="42.41305574253157" lon="11.171716139762827"><ele>132.0</ele><time>2026-04-25T11:41:55.999Z</time></trkpt><trkpt lat="42.4131270688181" lon="11.171600381463993"><ele>132.0</ele><time>2026-04-25T11:41:57.999Z</time></trkpt><trkpt lat="42.41322267128509" lon="11.171582986755217"><ele>132.0</ele><time>2026-04-25T11:42:00.999Z</time></trkpt><trkpt lat="42.41332258836513" lon="11.171647075138347"><ele>132.0</ele><time>2026-04-25T11:42:01.999Z</time></trkpt><trkpt lat="42.413428771627274" lon="11.171662558885567"><ele>132.0</ele><time>2026-04-25T11:42:02.999Z</time></trkpt><trkpt lat="42.41352623347134" lon="11.171668507103679"><ele>132.0</ele><time>2026-04-25T11:42:03.999Z</time></trkpt><trkpt lat="42.41363161982363" lon="11.171677920608957"><ele>132.0</ele><time>2026-04-25T11:42:04.999Z</time></trkpt><trkpt lat="42.41370007610296" lon="11.171662567384196"><ele>132.0</ele><time>2026-04-25T11:42:05.999Z</time></trkpt><trkpt lat="42.41380913562165" lon="11.171618408076135"><ele>132.0</ele><time>2026-04-25T11:42:07.999Z</time></trkpt><trkpt lat="42.41385620984255" lon="11.171553282270294"><ele>134.75</ele><time>2026-04-25T11:42:08.999Z</time></trkpt><trkpt lat="42.41392515556772" lon="11.171483374675455"><ele>137.5</ele><time>2026-04-25T11:42:09.999Z</time></trkpt><trkpt lat="42.41402521244559" lon="11.171378054281"><ele>140.25</ele><time>2026-04-25T11:42:10.999Z</time></trkpt><trkpt lat="42.41412088309666" lon="11.171272114135919"><ele>143.0</ele><time>2026-04-25T11:42:11.999Z</time></trkpt><trkpt lat="42.41421590881748" lon="11.171165687354375"><ele>143.0</ele><time>2026-04-25T11:42:12.999Z</time></trkpt><trkpt lat="42.41431788941624" lon="11.171054520041727"><ele>143.0</ele><time>2026-04-25T11:42:13.999Z</time></trkpt><trkpt lat="42.41440034667083" lon="11.17096534133037"><ele>143.0</ele><time>2026-04-25T11:42:14.999Z</time></trkpt><trkpt lat="42.414477948631905" lon="11.170882720000263"><ele>143.0</ele><time>2026-04-25T11:42:15.999Z</time></trkpt><trkpt lat="42.41455919345722" lon="11.170825464008804"><ele>143.0</ele><time>2026-04-25T11:42:16.999Z</time></trkpt><trkpt lat="42.414651320790455" lon="11.170792193874998"><ele>143.5</ele><time>2026-04-25T11:42:17.999Z</time></trkpt><trkpt lat="42.41477088087495" lon="11.170777108564922"><ele>144.0</ele><time>2026-04-25T11:42:18.999Z</time></trkpt><trkpt lat="42.414912630191345" lon="11.17073274205279"><ele>144.5</ele><time>2026-04-25T11:42:19.999Z</time></trkpt><trkpt lat="42.41500531076984" lon="11.170650506442856"><ele>145.0</ele><time>2026-04-25T11:42:20.999Z</time></trkpt><trkpt lat="42.41506764542046" lon="11.170565864796867"><ele>145.0</ele><time>2026-04-25T11:42:21.999Z</time></trkpt><trkpt lat="42.41512810067901" lon="11.170439614255415"><ele>145.0</ele><time>2026-04-25T11:42:22.999Z</time></trkpt><trkpt lat="42.41517258105962" lon="11.170324280741625"><ele>145.0</ele><time>2026-04-25T11:42:23.999Z</time></trkpt><trkpt lat="42.41517966154952" lon="11.170197891495278"><ele>145.0</ele><time>2026-04-25T11:42:24.999Z</time></trkpt><trkpt lat="42.41518745999255" lon="11.17006337314717"><ele>145.0</ele><time>2026-04-25T11:42:25.999Z</time></trkpt><trkpt lat="42.41519604683868" lon="11.169887848620057"><ele>146.2</ele><time>2026-04-25T11:42:26.999Z</time></trkpt><trkpt lat="42.41521079265399" lon="11.169736044397192"><ele>147.4</ele><time>2026-04-25T11:42:27.999Z</time></trkpt><trkpt lat="42.415237954530284" lon="11.169561783495658"><ele>148.6</ele><time>2026-04-25T11:42:28.999Z</time></trkpt><trkpt lat="42.415224170615645" lon="11.169409120977397"><ele>149.8</ele><time>2026-04-25T11:42:29.999Z</time></trkpt><trkpt lat="42.415220310680645" lon="11.169300961298847"><ele>151.0</ele><time>2026-04-25T11:42:30.999Z</time></trkpt><trkpt lat="42.415197804258874" lon="11.169188296530079"><ele>151.0</ele><time>2026-04-25T11:42:31.999Z</time></trkpt><trkpt lat="42.41518537591755" lon="11.169049987707927"><ele>151.0</ele><time>2026-04-25T11:42:32.999Z</time></trkpt><trkpt lat="42.41516658716773" lon="11.168868571035585"><ele>151.0</ele><time>2026-04-25T11:42:33.999Z</time></trkpt><trkpt lat="42.41515132124692" lon="11.16871270549001"><ele>151.0</ele><time>2026-04-25T11:42:34.999Z</time></trkpt><trkpt lat="42.41514938809637" lon="11.168605824190786"><ele>151.0</ele><time>2026-04-25T11:42:35.999Z</time></trkpt><trkpt lat="42.41518492525329" lon="11.16843269205205"><ele>152.4</ele><time>2026-04-25T11:42:37.999Z</time></trkpt><trkpt lat="42.41523060260556" lon="11.168288518001988"><ele>153.8</ele><time>2026-04-25T11:42:38.999Z</time></trkpt><trkpt lat="42.41527706158863" lon="11.168157660444272"><ele>155.20000000000002</ele><time>2026-04-25T11:42:39.999Z</time></trkpt><trkpt lat="42.41532035571859" lon="11.168041495044562"><ele>156.6</ele><time>2026-04-25T11:42:40.999Z</time></trkpt><trkpt lat="42.41536786350692" lon="11.167914023499247"><ele>158.0</ele><time>2026-04-25T11:42:41.999Z</time></trkpt><trkpt lat="42.41543419755676" lon="11.167777526361128"><ele>157.6</ele><time>2026-04-25T11:42:42.999Z</time></trkpt><trkpt lat="42.41547689889082" lon="11.167637002601262"><ele>157.20000000000002</ele><time>2026-04-25T11:42:43.999Z</time></trkpt><trkpt lat="42.4155276653279" lon="11.167542262032372"><ele>156.8</ele><time>2026-04-25T11:42:44.999Z</time></trkpt><trkpt lat="42.41555501608074" lon="11.167418868465644"><ele>156.4</ele><time>2026-04-25T11:42:45.999Z</time></trkpt><trkpt lat="42.41556914200444" lon="11.167316720101908"><ele>156.0</ele><time>2026-04-25T11:42:46.999Z</time></trkpt><trkpt lat="42.415578670477956" lon="11.167186665045023"><ele>156.0</ele><time>2026-04-25T11:42:47.999Z</time></trkpt><trkpt lat="42.415622733830354" lon="11.167053239938946"><ele>156.0</ele><time>2026-04-25T11:42:48.999Z</time></trkpt><trkpt lat="42.41571926409194" lon="11.166928579414874"><ele>156.0</ele><time>2026-04-25T11:42:49.999Z</time></trkpt><trkpt lat="42.41580553232106" lon="11.166797065738058"><ele>156.0</ele><time>2026-04-25T11:42:50.999Z</time></trkpt><trkpt lat="42.41586076020864" lon="11.166699749804746"><ele>156.0</ele><time>2026-04-25T11:42:51.999Z</time></trkpt><trkpt lat="42.415912407447195" lon="11.166615317090821"><ele>156.0</ele><time>2026-04-25T11:42:52.999Z</time></trkpt><trkpt lat="42.41595627572787" lon="11.166498160878065"><ele>156.0</ele><time>2026-04-25T11:42:53.999Z</time></trkpt><trkpt lat="42.415984559467084" lon="11.16636516223713"><ele>156.0</ele><time>2026-04-25T11:42:54.999Z</time></trkpt><trkpt lat="42.41598821568984" lon="11.166277289937545"><ele>156.0</ele><time>2026-04-25T11:42:55.999Z</time></trkpt><trkpt lat="42.415898279096695" lon="11.166145050898738"><ele>156.16666666666666</ele><time>2026-04-25T11:42:57.999Z</time></trkpt><trkpt lat="42.415828682524605" lon="11.166098251771535"><ele>156.33333333333334</ele><time>2026-04-25T11:42:58.999Z</time></trkpt><trkpt lat="42.415746821585344" lon="11.166049343132268"><ele>156.5</ele><time>2026-04-25T11:42:59.999Z</time></trkpt><trkpt lat="42.41566692859409" lon="11.166002412770894"><ele>156.66666666666669</ele><time>2026-04-25T11:43:00.999Z</time></trkpt><trkpt lat="42.41560583725861" lon="11.165965574492587"><ele>156.83333333333334</ele><time>2026-04-25T11:43:02.999Z</time></trkpt><trkpt lat="42.41553826165079" lon="11.165920625214602"><ele>157.0</ele><time>2026-04-25T11:43:05.998Z</time></trkpt><trkpt lat="42.4154785627579" lon="11.165861638860267"><ele>160.0</ele><time>2026-04-25T11:43:11.998Z</time></trkpt><trkpt lat="42.415396742687946" lon="11.165770434464454"><ele>163.0</ele><time>2026-04-25T11:43:13.998Z</time></trkpt><trkpt lat="42.41529020740427" lon="11.165645084282252"><ele>166.0</ele><time>2026-04-25T11:43:15.998Z</time></trkpt><trkpt lat="42.41521694361948" lon="11.165557967900565"><ele>169.0</ele><time>2026-04-25T11:43:16.998Z</time></trkpt><trkpt lat="42.41514869852309" lon="11.165479279803414"><ele>172.0</ele><time>2026-04-25T11:43:17.998Z</time></trkpt><trkpt lat="42.415074853039464" lon="11.165399444286694"><ele>172.0</ele><time>2026-04-25T11:43:18.998Z</time></trkpt><trkpt lat="42.414975626564924" lon="11.165304047003806"><ele>172.0</ele><time>2026-04-25T11:43:19.998Z</time></trkpt><trkpt lat="42.41487631976191" lon="11.165215365856252"><ele>172.0</ele><time>2026-04-25T11:43:20.998Z</time></trkpt><trkpt lat="42.41477851919097" lon="11.165118499171191"><ele>172.0</ele><time>2026-04-25T11:43:21.998Z</time></trkpt><trkpt lat="42.41469001844908" lon="11.165023044517579"><ele>178.2</ele><time>2026-04-25T11:43:22.998Z</time></trkpt><trkpt lat="42.41459613077991" lon="11.164914938572204"><ele>184.39999999999998</ele><time>2026-04-25T11:43:23.998Z</time></trkpt><trkpt lat="42.414520001668386" lon="11.164818727080934"><ele>190.60000000000002</ele><time>2026-04-25T11:43:24.998Z</time></trkpt><trkpt lat="42.41446446441818" lon="11.164735546873501"><ele>196.8</ele><time>2026-04-25T11:43:25.998Z</time></trkpt><trkpt lat="42.41441369575453" lon="11.164639649037298"><ele>203.0</ele><time>2026-04-25T11:43:26.998Z</time></trkpt><trkpt lat="42.41436404222682" lon="11.164530024582849"><ele>203.0</ele><time>2026-04-25T11:43:27.998Z</time></trkpt><trkpt lat="42.41430972330369" lon="11.164392420347339"><ele>203.0</ele><time>2026-04-25T11:43:28.998Z</time></trkpt><trkpt lat="42.41424013916688" lon="11.164243164414472"><ele>203.0</ele><time>2026-04-25T11:43:29.998Z</time></trkpt><trkpt lat="42.4141902765725" lon="11.164047184232619"><ele>203.0</ele><time>2026-04-25T11:43:30.998Z</time></trkpt><trkpt lat="42.414152424967334" lon="11.163916856458169"><ele>205.16666666666669</ele><time>2026-04-25T11:43:31.998Z</time></trkpt><trkpt lat="42.41413208363213" lon="11.163831355716152"><ele>207.33333333333334</ele><time>2026-04-25T11:43:32.998Z</time></trkpt><trkpt lat="42.414127727162644" lon="11.16371709431995"><ele>209.5</ele><time>2026-04-25T11:43:34.998Z</time></trkpt><trkpt lat="42.41419472957749" lon="11.163624767861744"><ele>211.66666666666669</ele><time>2026-04-25T11:43:36.998Z</time></trkpt><trkpt lat="42.414279541468446" lon="11.163628069933429"><ele>213.83333333333334</ele><time>2026-04-25T11:43:37.998Z</time></trkpt><trkpt lat="42.41434933265051" lon="11.163625848343507"><ele>216.0</ele><time>2026-04-25T11:43:38.998Z</time></trkpt><trkpt lat="42.41441824344483" lon="11.163649390933244"><ele>216.0</ele><time>2026-04-25T11:43:39.998Z</time></trkpt><trkpt lat="42.41448727094859" lon="11.163713823325994"><ele>216.0</ele><time>2026-04-25T11:43:40.998Z</time></trkpt><trkpt lat="42.414608479286755" lon="11.163769741450052"><ele>216.0</ele><time>2026-04-25T11:43:41.998Z</time></trkpt><trkpt lat="42.41473719789462" lon="11.163847786852168"><ele>216.0</ele><time>2026-04-25T11:43:42.998Z</time></trkpt><trkpt lat="42.41483680701214" lon="11.163902302467843"><ele>215.20000000000002</ele><time>2026-04-25T11:43:43.998Z</time></trkpt><trkpt lat="42.414905996750065" lon="11.163939609705794"><ele>214.40000000000003</ele><time>2026-04-25T11:43:44.998Z</time></trkpt><trkpt lat="42.41502685057406" lon="11.16387985373515"><ele>213.6</ele><time>2026-04-25T11:43:46.999Z</time></trkpt><trkpt lat="42.415126709996535" lon="11.163876178888799"><ele>212.8</ele><time>2026-04-25T11:43:47.999Z</time></trkpt><trkpt lat="42.415193703564164" lon="11.163832339100637"><ele>212.0</ele><time>2026-04-25T11:43:48.999Z</time></trkpt><trkpt lat="42.41528954856945" lon="11.163748661409574"><ele>212.0</ele><time>2026-04-25T11:43:50.999Z</time></trkpt><trkpt lat="42.415357913110306" lon="11.163682562837902"><ele>212.0</ele><time>2026-04-25T11:43:51.999Z</time></trkpt><trkpt lat="42.415431115347005" lon="11.163599370407244"><ele>212.0</ele><time>2026-04-25T11:43:52.999Z</time></trkpt><trkpt lat="42.41551515638029" lon="11.16350190383556"><ele>212.0</ele><time>2026-04-25T11:43:53.999Z</time></trkpt><trkpt lat="42.415571921569885" lon="11.163398091698511"><ele>212.0</ele><time>2026-04-25T11:43:54.999Z</time></trkpt><trkpt lat="42.415631533712784" lon="11.16332669267175"><ele>210.66666666666669</ele><time>2026-04-25T11:43:55.999Z</time></trkpt><trkpt lat="42.41568113132852" lon="11.163265404576064"><ele>209.33333333333334</ele><time>2026-04-25T11:43:56.999Z</time></trkpt><trkpt lat="42.415713099241614" lon="11.163170236209668"><ele>208.0</ele><time>2026-04-25T11:43:57.999Z</time></trkpt><trkpt lat="42.41570935425831" lon="11.163056800028958"><ele>206.66666666666669</ele><time>2026-04-25T11:43:58.999Z</time></trkpt><trkpt lat="42.415658216538134" lon="11.162965320282328"><ele>205.33333333333334</ele><time>2026-04-25T11:43:59.999Z</time></trkpt><trkpt lat="42.415619449489256" lon="11.162854317608248"><ele>204.0</ele><time>2026-04-25T11:44:00.999Z</time></trkpt><trkpt lat="42.41559774793429" lon="11.162742176426827"><ele>204.0</ele><time>2026-04-25T11:44:01.999Z</time></trkpt><trkpt lat="42.41559759628616" lon="11.162648619123184"><ele>204.0</ele><time>2026-04-25T11:44:02.999Z</time></trkpt><trkpt lat="42.415607930266454" lon="11.162530493844047"><ele>204.0</ele><time>2026-04-25T11:44:03.999Z</time></trkpt><trkpt lat="42.41560433295644" lon="11.162354707729273"><ele>204.0</ele><time>2026-04-25T11:44:04.999Z</time></trkpt><trkpt lat="42.415594131668165" lon="11.162216214019145"><ele>204.0</ele><time>2026-04-25T11:44:05.999Z</time></trkpt><trkpt lat="42.4155711278593" lon="11.16210662634188"><ele>204.39999999999998</ele><time>2026-04-25T11:44:06.999Z</time></trkpt><trkpt lat="42.415531576868204" lon="11.162018153802098"><ele>204.8</ele><time>2026-04-25T11:44:07.999Z</time></trkpt><trkpt lat="42.415464673621415" lon="11.161929245096557"><ele>205.2</ele><time>2026-04-25T11:44:08.999Z</time></trkpt><trkpt lat="42.41538809472545" lon="11.161835559866056"><ele>205.60000000000002</ele><time>2026-04-25T11:44:09.999Z</time></trkpt><trkpt lat="42.41530967728078" lon="11.16174236433071"><ele>206.0</ele><time>2026-04-25T11:44:10.999Z</time></trkpt><trkpt lat="42.41521638289689" lon="11.161667951021917"><ele>209.83333333333334</ele><time>2026-04-25T11:44:11.999Z</time></trkpt><trkpt lat="42.41513781060659" lon="11.161608865153461"><ele>213.66666666666669</ele><time>2026-04-25T11:44:12.999Z</time></trkpt><trkpt lat="42.415084903627395" lon="11.161552100513763"><ele>217.5</ele><time>2026-04-25T11:44:13.999Z</time></trkpt><trkpt lat="42.4150475621308" lon="11.161478636681297"><ele>221.33333333333331</ele><time>2026-04-25T11:44:14.999Z</time></trkpt><trkpt lat="42.41504984163829" lon="11.161358646221997"><ele>225.16666666666666</ele><time>2026-04-25T11:44:15.999Z</time></trkpt><trkpt lat="42.41507495635953" lon="11.161226557973606"><ele>229.0</ele><time>2026-04-25T11:44:16.999Z</time></trkpt><trkpt lat="42.415092999172096" lon="11.161110048685508"><ele>229.79999999999998</ele><time>2026-04-25T11:44:17.999Z</time></trkpt><trkpt lat="42.41511556614895" lon="11.160990114311952"><ele>230.59999999999997</ele><time>2026-04-25T11:44:18.999Z</time></trkpt><trkpt lat="42.415164399628324" lon="11.160841795222895"><ele>231.4</ele><time>2026-04-25T11:44:19.999Z</time></trkpt><trkpt lat="42.415218732257365" lon="11.160731675421337"><ele>232.2</ele><time>2026-04-25T11:44:20.999Z</time></trkpt><trkpt lat="42.41526883493672" lon="11.16056727359239"><ele>233.0</ele><time>2026-04-25T11:44:21.999Z</time></trkpt><trkpt lat="42.41530458233179" lon="11.160453834463352"><ele>233.60000000000002</ele><time>2026-04-25T11:44:22.999Z</time></trkpt><trkpt lat="42.415352811552225" lon="11.160352132872239"><ele>234.20000000000002</ele><time>2026-04-25T11:44:23.999Z</time></trkpt><trkpt lat="42.415398741303974" lon="11.160249073265144"><ele>234.8</ele><time>2026-04-25T11:44:24.999Z</time></trkpt><trkpt lat="42.415457373110684" lon="11.160127593610623"><ele>235.4</ele><time>2026-04-25T11:44:25.999Z</time></trkpt><trkpt lat="42.41551655065693" lon="11.160012615977841"><ele>236.0</ele><time>2026-04-25T11:44:26.999Z</time></trkpt><trkpt lat="42.41557922049166" lon="11.159903244575313"><ele>239.8</ele><time>2026-04-25T11:44:27.999Z</time></trkpt><trkpt lat="42.415660197428515" lon="11.159794474942094"><ele>243.60000000000002</ele><time>2026-04-25T11:44:28.999Z</time></trkpt><trkpt lat="42.41572688695892" lon="11.159715463988498"><ele>247.4</ele><time>2026-04-25T11:44:29.999Z</time></trkpt><trkpt lat="42.415781396095056" lon="11.159639969323475"><ele>251.2</ele><time>2026-04-25T11:44:40.999Z</time></trkpt><trkpt lat="42.415833461998105" lon="11.15951624139696"><ele>255.0</ele><time>2026-04-25T11:44:42.999Z</time></trkpt><trkpt lat="42.41586708374217" lon="11.159377236834642"><ele>255.0</ele><time>2026-04-25T11:44:44.999Z</time></trkpt><trkpt lat="42.41585193543257" lon="11.15926813472977"><ele>255.0</ele><time>2026-04-25T11:44:45.999Z</time></trkpt><trkpt lat="42.41575668352942" lon="11.159183983113973"><ele>255.0</ele><time>2026-04-25T11:44:46.999Z</time></trkpt><trkpt lat="42.41566018726931" lon="11.159163384905344"><ele>255.0</ele><time>2026-04-25T11:44:47.999Z</time></trkpt><trkpt lat="42.41556699070908" lon="11.159130744922981"><ele>255.0</ele><time>2026-04-25T11:44:48.999Z</time></trkpt><trkpt lat="42.41546135135287" lon="11.159099019851094"><ele>256.6</ele><time>2026-04-25T11:44:49.999Z</time></trkpt><trkpt lat="42.415352637450795" lon="11.159069062426958"><ele>258.2</ele><time>2026-04-25T11:44:50.999Z</time></trkpt><trkpt lat="42.41524295637547" lon="11.159023407936465"><ele>259.8</ele><time>2026-04-25T11:44:51.999Z</time></trkpt><trkpt lat="42.41516421093803" lon="11.1589903832227"><ele>261.4</ele><time>2026-04-25T11:44:52.999Z</time></trkpt><trkpt lat="42.41508821831295" lon="11.158956141932885"><ele>263.0</ele><time>2026-04-25T11:44:54.999Z</time></trkpt><trkpt lat="42.41502479636996" lon="11.158914913211488"><ele>268.0</ele><time>2026-04-25T11:44:57.999Z</time></trkpt><trkpt lat="42.41493911499747" lon="11.158902863410509"><ele>273.0</ele><time>2026-04-25T11:44:58.999Z</time></trkpt><trkpt lat="42.414864212950604" lon="11.15890201926143"><ele>278.0</ele><time>2026-04-25T11:44:59.999Z</time></trkpt><trkpt lat="42.41479918435695" lon="11.158902200297765"><ele>283.0</ele><time>2026-04-25T11:45:00.999Z</time></trkpt><trkpt lat="42.414662524443756" lon="11.158938055769095"><ele>288.0</ele><time>2026-04-25T11:45:02.999Z</time></trkpt><trkpt lat="42.41457995149163" lon="11.15899179985204"><ele>287.4</ele><time>2026-04-25T11:45:03.999Z</time></trkpt><trkpt lat="42.41450739961735" lon="11.159087536756854"><ele>286.8</ele><time>2026-04-25T11:45:04.999Z</time></trkpt><trkpt lat="42.41442687779949" lon="11.159151171291745"><ele>286.2</ele><time>2026-04-25T11:45:05.999Z</time></trkpt><trkpt lat="42.41434997019476" lon="11.159227896946657"><ele>285.6</ele><time>2026-04-25T11:45:06.999Z</time></trkpt><trkpt lat="42.41427434022538" lon="11.159301471079798"><ele>285.0</ele><time>2026-04-25T11:45:07.999Z</time></trkpt><trkpt lat="42.41420327724846" lon="11.159361322325543"><ele>285.0</ele><time>2026-04-25T11:45:08.999Z</time></trkpt><trkpt lat="42.41414539282109" lon="11.159417306998428"><ele>285.0</ele><time>2026-04-25T11:45:09.999Z</time></trkpt><trkpt lat="42.414089392997866" lon="11.159483077204126"><ele>285.0</ele><time>2026-04-25T11:45:10.999Z</time></trkpt><trkpt lat="42.414045665056555" lon="11.159574607771686"><ele>285.0</ele><time>2026-04-25T11:45:11.999Z</time></trkpt><trkpt lat="42.41400878108688" lon="11.15969367825798"><ele>285.0</ele><time>2026-04-25T11:45:12.999Z</time></trkpt><trkpt lat="42.413997496215075" lon="11.159829693007651"><ele>285.0</ele><time>2026-04-25T11:45:13.999Z</time></trkpt><trkpt lat="42.413988201086454" lon="11.159964907695505"><ele>282.1666666666667</ele><time>2026-04-25T11:45:14.999Z</time></trkpt><trkpt lat="42.41395930219316" lon="11.160086348972065"><ele>279.3333333333333</ele><time>2026-04-25T11:45:15.999Z</time></trkpt><trkpt lat="42.4139414674785" lon="11.16017417236285"><ele>276.5</ele><time>2026-04-25T11:45:16.999Z</time></trkpt><trkpt lat="42.41390827562891" lon="11.160319800299929"><ele>273.66666666666663</ele><time>2026-04-25T11:45:18.999Z</time></trkpt><trkpt lat="42.413887770298516" lon="11.16043346908328"><ele>270.8333333333333</ele><time>2026-04-25T11:45:20.999Z</time></trkpt><trkpt lat="42.41393493158493" lon="11.160510309526614"><ele>268.0</ele><time>2026-04-25T11:45:23.999Z</time></trkpt><trkpt lat="42.413831703154614" lon="11.160531190777295"><ele>272.8</ele><time>2026-04-25T11:54:18Z</time></trkpt><trkpt lat="42.413680495964364" lon="11.160577017538772"><ele>277.6</ele><time>2026-04-25T11:54:20Z</time></trkpt><trkpt lat="42.41360406962279" lon="11.160581803789379"><ele>282.4</ele><time>2026-04-25T11:54:21Z</time></trkpt><trkpt lat="42.41352901262596" lon="11.160525805231757"><ele>287.2</ele><time>2026-04-25T11:54:22Z</time></trkpt><trkpt lat="42.41349486168085" lon="11.160443555589902"><ele>292.0</ele><time>2026-04-25T11:54:23Z</time></trkpt><trkpt lat="42.41359858601218" lon="11.160277241489979"><ele>292.0</ele><time>2026-04-25T11:54:25Z</time></trkpt><trkpt lat="42.41366499663209" lon="11.16016054678161"><ele>292.0</ele><time>2026-04-25T11:54:26Z</time></trkpt><trkpt lat="42.413709233570664" lon="11.160076775681361"><ele>292.0</ele><time>2026-04-25T11:54:27Z</time></trkpt><trkpt lat="42.413750408863024" lon="11.159926752218393"><ele>292.0</ele><time>2026-04-25T11:54:28Z</time></trkpt><trkpt lat="42.413758170953365" lon="11.159739735523157"><ele>292.0</ele><time>2026-04-25T11:54:29Z</time></trkpt><trkpt lat="42.41369994476782" lon="11.159588199327143"><ele>295.25</ele><time>2026-04-25T11:54:30Z</time></trkpt><trkpt lat="42.413677670565306" lon="11.159469478452982"><ele>298.5</ele><time>2026-04-25T11:54:31Z</time></trkpt><trkpt lat="42.413652052194244" lon="11.159333559651285"><ele>301.75</ele><time>2026-04-25T11:54:32Z</time></trkpt><trkpt lat="42.41364458826135" lon="11.159146288586854"><ele>305.0</ele><time>2026-04-25T11:54:33Z</time></trkpt><trkpt lat="42.41370416338173" lon="11.15900358215521"><ele>304.0</ele><time>2026-04-25T11:54:34Z</time></trkpt><trkpt lat="42.41375757493758" lon="11.15886008655796"><ele>303.0</ele><time>2026-04-25T11:54:35Z</time></trkpt><trkpt lat="42.41382340879511" lon="11.158716263928344"><ele>302.0</ele><time>2026-04-25T11:54:36Z</time></trkpt><trkpt lat="42.41386709942084" lon="11.158558418962484"><ele>301.0</ele><time>2026-04-25T11:54:37Z</time></trkpt><trkpt lat="42.41392591525658" lon="11.158395086409913"><ele>301.0</ele><time>2026-04-25T11:54:38Z</time></trkpt><trkpt lat="42.41400997805613" lon="11.158241273470331"><ele>301.0</ele><time>2026-04-25T11:54:39Z</time></trkpt><trkpt lat="42.414096832212635" lon="11.158064640241816"><ele>301.0</ele><time>2026-04-25T11:54:40Z</time></trkpt><trkpt lat="42.41416072195076" lon="11.157926636617514"><ele>301.0</ele><time>2026-04-25T11:54:41Z</time></trkpt><trkpt lat="42.414232062526416" lon="11.157803062855757"><ele>304.0</ele><time>2026-04-25T11:54:42Z</time></trkpt><trkpt lat="42.4143202968465" lon="11.157705686958202"><ele>307.0</ele><time>2026-04-25T11:54:43Z</time></trkpt><trkpt lat="42.41443378470251" lon="11.157651415780078"><ele>310.0</ele><time>2026-04-25T11:54:44Z</time></trkpt><trkpt lat="42.414550058714944" lon="11.15762163008547"><ele>313.0</ele><time>2026-04-25T11:54:45Z</time></trkpt><trkpt lat="42.414661613416364" lon="11.157611542421222"><ele>313.0</ele><time>2026-04-25T11:54:46Z</time></trkpt><trkpt lat="42.4147725663691" lon="11.157623813546865"><ele>313.0</ele><time>2026-04-25T11:54:47Z</time></trkpt><trkpt lat="42.41484313551848" lon="11.157615684482794"><ele>313.0</ele><time>2026-04-25T11:54:48Z</time></trkpt><trkpt lat="42.41493874978032" lon="11.1576172536337"><ele>313.0</ele><time>2026-04-25T11:54:50Z</time></trkpt><trkpt lat="42.41502535199997" lon="11.157621495905882"><ele>313.0</ele><time>2026-04-25T11:54:51Z</time></trkpt><trkpt lat="42.415125595372395" lon="11.157633831573332"><ele>313.0</ele><time>2026-04-25T11:54:52Z</time></trkpt><trkpt lat="42.41522727112244" lon="11.157602749251934"><ele>313.0</ele><time>2026-04-25T11:54:53Z</time></trkpt><trkpt lat="42.41536419556273" lon="11.157559363645563"><ele>313.0</ele><time>2026-04-25T11:54:53.999Z</time></trkpt><trkpt lat="42.4154900672354" lon="11.157525450263797"><ele>313.0</ele><time>2026-04-25T11:54:54.999Z</time></trkpt><trkpt lat="42.41564831824938" lon="11.15748554819202"><ele>313.25</ele><time>2026-04-25T11:54:55.999Z</time></trkpt><trkpt lat="42.41580900826476" lon="11.15744686702321"><ele>313.5</ele><time>2026-04-25T11:54:56.999Z</time></trkpt><trkpt lat="42.41594394049726" lon="11.157389540922907"><ele>313.75</ele><time>2026-04-25T11:54:57.999Z</time></trkpt><trkpt lat="42.4160833885659" lon="11.157352571823383"><ele>314.0</ele><time>2026-04-25T11:54:58.999Z</time></trkpt><trkpt lat="42.41620616093656" lon="11.157272321617855"><ele>317.0</ele><time>2026-04-25T11:54:59.999Z</time></trkpt><trkpt lat="42.41630698095239" lon="11.157154818326603"><ele>320.0</ele><time>2026-04-25T11:55:00.999Z</time></trkpt><trkpt lat="42.4163976725593" lon="11.157000397316223"><ele>323.0</ele><time>2026-04-25T11:55:01.999Z</time></trkpt><trkpt lat="42.41649366380142" lon="11.156833856492137"><ele>326.0</ele><time>2026-04-25T11:55:02.999Z</time></trkpt><trkpt lat="42.41661774291513" lon="11.156680100584435"><ele>328.5</ele><time>2026-04-25T11:55:03.999Z</time></trkpt><trkpt lat="42.416708754091154" lon="11.156512092688535"><ele>331.0</ele><time>2026-04-25T11:55:04.999Z</time></trkpt><trkpt lat="42.41677133827677" lon="11.156377983594922"><ele>333.5</ele><time>2026-04-25T11:55:05.999Z</time></trkpt><trkpt lat="42.416826648281464" lon="11.15625512257648"><ele>336.0</ele><time>2026-04-25T11:55:06.999Z</time></trkpt><trkpt lat="42.41688186952247" lon="11.15606958241777"><ele>337.6666666666667</ele><time>2026-04-25T11:55:07.999Z</time></trkpt><trkpt lat="42.41687147631468" lon="11.155660291999443"><ele>339.33333333333337</ele><time>2026-04-25T11:55:09.999Z</time></trkpt><trkpt lat="42.41689829738472" lon="11.155472372556126"><ele>341.0</ele><time>2026-04-25T11:55:10.999Z</time></trkpt><trkpt lat="42.41692229267047" lon="11.15530263849889"><ele>341.0</ele><time>2026-04-25T11:55:11.999Z</time></trkpt><trkpt lat="42.41693390285904" lon="11.155206879064998"><ele>341.0</ele><time>2026-04-25T11:55:12.999Z</time></trkpt><trkpt lat="42.41694010606562" lon="11.155113604852124"><ele>341.0</ele><time>2026-04-25T11:55:13.999Z</time></trkpt><trkpt lat="42.41688577436589" lon="11.155023641858275"><ele>341.0</ele><time>2026-04-25T11:55:14.999Z</time></trkpt><trkpt lat="42.41678683566669" lon="11.155016201221256"><ele>341.0</ele><time>2026-04-25T11:55:16.999Z</time></trkpt><trkpt lat="42.416718579423204" lon="11.155094283312263"><ele>341.0</ele><time>2026-04-25T11:55:17.999Z</time></trkpt><trkpt lat="42.41665190991907" lon="11.155194994435474"><ele>341.0</ele><time>2026-04-25T11:55:18.999Z</time></trkpt><trkpt lat="42.4165873761746" lon="11.15528404073161"><ele>341.0</ele><time>2026-04-25T11:55:19.999Z</time></trkpt><trkpt lat="42.41653210348984" lon="11.155346286789666"><ele>341.0</ele><time>2026-04-25T11:55:20.999Z</time></trkpt><trkpt lat="42.41647997969263" lon="11.155405693289877"><ele>341.0</ele><time>2026-04-25T11:55:21.999Z</time></trkpt><trkpt lat="42.41640540878901" lon="11.15550863568103"><ele>341.0</ele><time>2026-04-25T11:55:23.999Z</time></trkpt><trkpt lat="42.41635705039381" lon="11.155563478652196"><ele>341.0</ele><time>2026-04-25T11:55:24.999Z</time></trkpt><trkpt lat="42.416281173564116" lon="11.155665246395563"><ele>343.0</ele><time>2026-04-25T11:55:26.999Z</time></trkpt><trkpt lat="42.416219997762845" lon="11.155727208413946"><ele>345.0</ele><time>2026-04-25T11:55:29.999Z</time></trkpt><trkpt lat="42.41610780010616" lon="11.155847614913409"><ele>347.0</ele><time>2026-04-25T11:55:31.999Z</time></trkpt><trkpt lat="42.41603857085747" lon="11.155927443352446"><ele>349.0</ele><time>2026-04-25T11:55:32.999Z</time></trkpt><trkpt lat="42.415964039506264" lon="11.156014918650675"><ele>351.0</ele><time>2026-04-25T11:55:33.999Z</time></trkpt><trkpt lat="42.415890986290606" lon="11.156099170560669"><ele>351.0</ele><time>2026-04-25T11:55:34.999Z</time></trkpt><trkpt lat="42.415809247597885" lon="11.156196677414806"><ele>351.0</ele><time>2026-04-25T11:55:35.999Z</time></trkpt><trkpt lat="42.41571530535186" lon="11.156305748694122"><ele>351.0</ele><time>2026-04-25T11:55:36.999Z</time></trkpt><trkpt lat="42.41562476561327" lon="11.156411272644354"><ele>351.0</ele><time>2026-04-25T11:55:37.999Z</time></trkpt><trkpt lat="42.415547624789895" lon="11.156507423892327"><ele>351.0</ele><time>2026-04-25T11:55:38.999Z</time></trkpt><trkpt lat="42.415486918422026" lon="11.156573156520324"><ele>351.0</ele><time>2026-04-25T11:55:39.999Z</time></trkpt><trkpt lat="42.41542250825649" lon="11.156588566996525"><ele>351.0</ele><time>2026-04-25T11:55:40.999Z</time></trkpt><trkpt lat="42.41536358873699" lon="11.156470979522544"><ele>351.0</ele><time>2026-04-25T11:55:42.999Z</time></trkpt><trkpt lat="42.4154128983937" lon="11.156382610872674"><ele>351.0</ele><time>2026-04-25T11:55:43.999Z</time></trkpt><trkpt lat="42.4154577020188" lon="11.156287689263404"><ele>351.0</ele><time>2026-04-25T11:55:44.999Z</time></trkpt><trkpt lat="42.41549365135275" lon="11.156165556220984"><ele>351.0</ele><time>2026-04-25T11:55:45.999Z</time></trkpt><trkpt lat="42.41551841697842" lon="11.15602286312941"><ele>351.0</ele><time>2026-04-25T11:55:46.999Z</time></trkpt><trkpt lat="42.41556108856654" lon="11.15585308116611"><ele>351.0</ele><time>2026-04-25T11:55:47.999Z</time></trkpt><trkpt lat="42.41562024298731" lon="11.155669938262518"><ele>351.0</ele><time>2026-04-25T11:55:48.999Z</time></trkpt><trkpt lat="42.41566742544109" lon="11.155453397987435"><ele>353.0</ele><time>2026-04-25T11:55:49.999Z</time></trkpt><trkpt lat="42.41572142714005" lon="11.155218368692774"><ele>355.0</ele><time>2026-04-25T11:55:50.999Z</time></trkpt><trkpt lat="42.4157646980381" lon="11.155031700604798"><ele>357.0</ele><time>2026-04-25T11:55:51.999Z</time></trkpt><trkpt lat="42.41578844931082" lon="11.154878366253111"><ele>359.0</ele><time>2026-04-25T11:55:52.999Z</time></trkpt><trkpt lat="42.41579782443352" lon="11.154704138622067"><ele>359.5</ele><time>2026-04-25T11:55:53.999Z</time></trkpt><trkpt lat="42.415782294706084" lon="11.15453962351218"><ele>360.0</ele><time>2026-04-25T11:55:54.999Z</time></trkpt><trkpt lat="42.4157482816931" lon="11.154382319687995"><ele>360.5</ele><time>2026-04-25T11:55:55.999Z</time></trkpt><trkpt lat="42.41567984758983" lon="11.154243675198709"><ele>361.0</ele><time>2026-04-25T11:55:56.999Z</time></trkpt><trkpt lat="42.41563261079879" lon="11.154095483224966"><ele>358.6</ele><time>2026-04-25T11:55:57.999Z</time></trkpt><trkpt lat="42.41554888208618" lon="11.153960492731468"><ele>356.20000000000005</ele><time>2026-04-25T11:55:58.999Z</time></trkpt><trkpt lat="42.41549022367936" lon="11.153817305480542"><ele>353.79999999999995</ele><time>2026-04-25T11:55:59.999Z</time></trkpt><trkpt lat="42.4154336900223" lon="11.15370064951555"><ele>351.4</ele><time>2026-04-25T11:56:00.999Z</time></trkpt><trkpt lat="42.41539649812263" lon="11.1535973546341"><ele>349.0</ele><time>2026-04-25T11:56:01.999Z</time></trkpt><trkpt lat="42.4153617655865" lon="11.153519434884936"><ele>354.2</ele><time>2026-04-25T11:56:02.999Z</time></trkpt><trkpt lat="42.4152562145122" lon="11.153492155299295"><ele>359.4</ele><time>2026-04-25T11:56:04.999Z</time></trkpt><trkpt lat="42.41521818792615" lon="11.15358615402453"><ele>364.6</ele><time>2026-04-25T11:56:05.999Z</time></trkpt><trkpt lat="42.41526169814349" lon="11.153722942246041"><ele>369.8</ele><time>2026-04-25T11:56:06.999Z</time></trkpt><trkpt lat="42.41531552450851" lon="11.153839907828852"><ele>375.0</ele><time>2026-04-25T11:56:07.999Z</time></trkpt><trkpt lat="42.41536276294514" lon="11.153985994649428"><ele>377.25</ele><time>2026-04-25T11:56:08.999Z</time></trkpt><trkpt lat="42.41538463152869" lon="11.154097303709298"><ele>379.5</ele><time>2026-04-25T11:56:09.999Z</time></trkpt><trkpt lat="42.41537821885576" lon="11.154229419645464"><ele>381.75</ele><time>2026-04-25T11:56:10.999Z</time></trkpt><trkpt lat="42.415363499672154" lon="11.154438711001369"><ele>384.0</ele><time>2026-04-25T11:56:11.999Z</time></trkpt><trkpt lat="42.4152598194561" lon="11.15456359726264"><ele>384.0</ele><time>2026-04-25T11:56:12.999Z</time></trkpt><trkpt lat="42.415162903475164" lon="11.154690765361625"><ele>384.0</ele><time>2026-04-25T11:56:13.999Z</time></trkpt><trkpt lat="42.41506443591089" lon="11.154818482875132"><ele>384.0</ele><time>2026-04-25T11:56:14.999Z</time></trkpt><trkpt lat="42.41499337578657" lon="11.154958819406714"><ele>384.0</ele><time>2026-04-25T11:56:15.999Z</time></trkpt><trkpt lat="42.41492972703689" lon="11.155056612490027"><ele>384.0</ele><time>2026-04-25T11:56:16.999Z</time></trkpt><trkpt lat="42.414836615186225" lon="11.155118550175589"><ele>384.0</ele><time>2026-04-25T11:56:18.999Z</time></trkpt><trkpt lat="42.414794128512874" lon="11.15498226388705"><ele>384.0</ele><time>2026-04-25T11:56:20.999Z</time></trkpt><trkpt lat="42.414875302399345" lon="11.154778347153798"><ele>384.0</ele><time>2026-04-25T11:56:22.999Z</time></trkpt><trkpt lat="42.4148694939252" lon="11.154621181448208"><ele>384.0</ele><time>2026-04-25T11:56:23.999Z</time></trkpt><trkpt lat="42.41484835356915" lon="11.154473106962572"><ele>384.0</ele><time>2026-04-25T11:56:24.999Z</time></trkpt><trkpt lat="42.41478780664328" lon="11.154321884873292"><ele>384.0</ele><time>2026-04-25T11:56:25.999Z</time></trkpt><trkpt lat="42.41470777277084" lon="11.15415985193222"><ele>384.0</ele><time>2026-04-25T11:56:26.999Z</time></trkpt><trkpt lat="42.41465737131959" lon="11.153971114107874"><ele>387.25</ele><time>2026-04-25T11:56:27.999Z</time></trkpt><trkpt lat="42.41462184862295" lon="11.153790744581244"><ele>390.5</ele><time>2026-04-25T11:56:28.999Z</time></trkpt><trkpt lat="42.414570686314" lon="11.153646610875704"><ele>393.75</ele><time>2026-04-25T11:56:29.999Z</time></trkpt><trkpt lat="42.41451372146446" lon="11.153540585447024"><ele>397.0</ele><time>2026-04-25T11:56:30.999Z</time></trkpt><trkpt lat="42.414406684745515" lon="11.153483176386564"><ele>397.0</ele><time>2026-04-25T11:56:31.999Z</time></trkpt><trkpt lat="42.41429273655356" lon="11.153416636617495"><ele>397.0</ele><time>2026-04-25T11:56:32.999Z</time></trkpt><trkpt lat="42.41415629695546" lon="11.15334883445118"><ele>397.0</ele><time>2026-04-25T11:56:33.999Z</time></trkpt><trkpt lat="42.414004603038045" lon="11.153294834315037"><ele>397.0</ele><time>2026-04-25T11:56:34.999Z</time></trkpt><trkpt lat="42.413880241329004" lon="11.153169224762133"><ele>399.75</ele><time>2026-04-25T11:56:35.999Z</time></trkpt><trkpt lat="42.41378468089165" lon="11.15304882459118"><ele>402.5</ele><time>2026-04-25T11:56:36.999Z</time></trkpt><trkpt lat="42.41369492118776" lon="11.152915169179579"><ele>405.25</ele><time>2026-04-25T11:56:37.999Z</time></trkpt><trkpt lat="42.413585972474976" lon="11.152807092378794"><ele>408.0</ele><time>2026-04-25T11:56:38.999Z</time></trkpt><trkpt lat="42.41348990391906" lon="11.152714023203997"><ele>408.0</ele><time>2026-04-25T11:56:39.999Z</time></trkpt><trkpt lat="42.413418327665454" lon="11.152648646782602"><ele>408.0</ele><time>2026-04-25T11:56:40.999Z</time></trkpt><trkpt lat="42.41336091886803" lon="11.15260107883367"><ele>408.0</ele><time>2026-04-25T11:56:41.999Z</time></trkpt><trkpt lat="42.41327241612781" lon="11.152559532165023"><ele>408.0</ele><time>2026-04-25T11:56:43.999Z</time></trkpt><trkpt lat="42.41323519570166" lon="11.152786594848756"><ele>408.0</ele><time>2026-04-25T11:56:44.999Z</time></trkpt><trkpt lat="42.41327190675048" lon="11.152923856438141"><ele>408.0</ele><time>2026-04-25T11:56:45.999Z</time></trkpt><trkpt lat="42.413299895930216" lon="11.153069051657425"><ele>408.0</ele><time>2026-04-25T11:56:46.999Z</time></trkpt><trkpt lat="42.413288097064374" lon="11.153233043284658"><ele>408.0</ele><time>2026-04-25T11:56:47.999Z</time></trkpt><trkpt lat="42.41322472388227" lon="11.153410803814598"><ele>408.0</ele><time>2026-04-25T11:56:48.999Z</time></trkpt><trkpt lat="42.41313051362521" lon="11.153590554732896"><ele>410.0</ele><time>2026-04-25T11:56:49.999Z</time></trkpt><trkpt lat="42.413046674172726" lon="11.153769707070502"><ele>412.0</ele><time>2026-04-25T11:56:50.999Z</time></trkpt><trkpt lat="42.41293565009171" lon="11.153935302313577"><ele>414.0</ele><time>2026-04-25T11:56:51.999Z</time></trkpt><trkpt lat="42.412837330638304" lon="11.154118706617211"><ele>420.0</ele><time>2026-04-25T11:56:52.999Z</time></trkpt><trkpt lat="42.412778530583275" lon="11.154324315076538"><ele>426.0</ele><time>2026-04-25T11:56:53.999Z</time></trkpt><trkpt lat="42.412749932130545" lon="11.154554630237651"><ele>432.0</ele><time>2026-04-25T11:56:54.999Z</time></trkpt><trkpt lat="42.41266389352945" lon="11.154673445158"><ele>432.0</ele><time>2026-04-25T11:56:55.999Z</time></trkpt><trkpt lat="42.41260654959342" lon="11.154744064195219"><ele>432.0</ele><time>2026-04-25T11:56:56.999Z</time></trkpt><trkpt lat="42.412541283845144" lon="11.154749714103522"><ele>432.0</ele><time>2026-04-25T11:56:57.999Z</time></trkpt><trkpt lat="42.41248867265708" lon="11.154642559131211"><ele>432.0</ele><time>2026-04-25T11:56:59.999Z</time></trkpt><trkpt lat="42.41252865333313" lon="11.154551161026815"><ele>432.0</ele><time>2026-04-25T11:57:00.999Z</time></trkpt><trkpt lat="42.41257378937315" lon="11.154468497162718"><ele>432.0</ele><time>2026-04-25T11:57:01.999Z</time></trkpt><trkpt lat="42.412579991805146" lon="11.154352383543381"><ele>432.0</ele><time>2026-04-25T11:57:02.999Z</time></trkpt><trkpt lat="42.41257891212243" lon="11.154192209450457"><ele>432.0</ele><time>2026-04-25T11:57:03.999Z</time></trkpt><trkpt lat="42.41253314619345" lon="11.15404115526524"><ele>432.0</ele><time>2026-04-25T11:57:04.999Z</time></trkpt><trkpt lat="42.4124580527706" lon="11.153838606107614"><ele>432.0</ele><time>2026-04-25T11:57:05.999Z</time></trkpt><trkpt lat="42.4123524335798" lon="11.153642200776456"><ele>431.33333333333337</ele><time>2026-04-25T11:57:06.999Z</time></trkpt><trkpt lat="42.41226844826193" lon="11.153434599201828"><ele>430.6666666666667</ele><time>2026-04-25T11:57:07.999Z</time></trkpt><trkpt lat="42.41220823534559" lon="11.153230969985097"><ele>430.0</ele><time>2026-04-25T11:57:08.999Z</time></trkpt><trkpt lat="42.412150836788264" lon="11.153032269481972"><ele>432.2</ele><time>2026-04-25T11:57:09.999Z</time></trkpt><trkpt lat="42.412092497331585" lon="11.152848733613611"><ele>434.4</ele><time>2026-04-25T11:57:10.999Z</time></trkpt><trkpt lat="42.412072473411165" lon="11.152722184546667"><ele>436.6</ele><time>2026-04-25T11:57:11.999Z</time></trkpt><trkpt lat="42.41202095948241" lon="11.1525930234392"><ele>438.8</ele><time>2026-04-25T11:57:12.999Z</time></trkpt><trkpt lat="42.41196547953121" lon="11.152506198406506"><ele>441.0</ele><time>2026-04-25T11:57:13.999Z</time></trkpt><trkpt lat="42.4118698405315" lon="11.152453242420323"><ele>441.0</ele><time>2026-04-25T11:57:14.999Z</time></trkpt><trkpt lat="42.411754533752635" lon="11.152448131142966"><ele>441.0</ele><time>2026-04-25T11:57:15.999Z</time></trkpt><trkpt lat="42.41163247943934" lon="11.152503188517908"><ele>441.0</ele><time>2026-04-25T11:57:16.999Z</time></trkpt><trkpt lat="42.41151700961736" lon="11.15257016126166"><ele>441.0</ele><time>2026-04-25T11:57:17.999Z</time></trkpt><trkpt lat="42.411395197827105" lon="11.152632685158732"><ele>444.0</ele><time>2026-04-25T11:57:18.999Z</time></trkpt><trkpt lat="42.4112515618233" lon="11.152687038646095"><ele>447.0</ele><time>2026-04-25T11:57:19.999Z</time></trkpt><trkpt lat="42.411106585456814" lon="11.152733976655846"><ele>450.0</ele><time>2026-04-25T11:57:20.999Z</time></trkpt><trkpt lat="42.41097690482209" lon="11.152776023209865"><ele>453.0</ele><time>2026-04-25T11:57:21.999Z</time></trkpt><trkpt lat="42.41086034350377" lon="11.152800097781373"><ele>453.0</ele><time>2026-04-25T11:57:22.999Z</time></trkpt><trkpt lat="42.41076811069343" lon="11.152773853006153"><ele>452.99999999999994</ele><time>2026-04-25T11:57:23.999Z</time></trkpt><trkpt lat="42.41072905331077" lon="11.152655724084813"><ele>452.99999999999994</ele><time>2026-04-25T11:57:24.999Z</time></trkpt><trkpt lat="42.41068425055847" lon="11.152545920925332"><ele>453.0</ele><time>2026-04-25T11:57:25.999Z</time></trkpt><trkpt lat="42.41062751535847" lon="11.152413708816082"><ele>453.0</ele><time>2026-04-25T11:57:26.999Z</time></trkpt><trkpt lat="42.41056301182216" lon="11.15226351359979"><ele>451.75</ele><time>2026-04-25T11:57:27.999Z</time></trkpt><trkpt lat="42.410479918247816" lon="11.152156313902866"><ele>450.5</ele><time>2026-04-25T11:57:28.999Z</time></trkpt><trkpt lat="42.41040004803558" lon="11.152061296767616"><ele>449.25</ele><time>2026-04-25T11:57:29.999Z</time></trkpt><trkpt lat="42.41029169936639" lon="11.152026065159713"><ele>448.0</ele><time>2026-04-25T11:57:30.999Z</time></trkpt><trkpt lat="42.41017112530398" lon="11.15203398675517"><ele>448.0</ele><time>2026-04-25T11:57:31.999Z</time></trkpt><trkpt lat="42.41003668176023" lon="11.152069403828206"><ele>448.0</ele><time>2026-04-25T11:57:32.999Z</time></trkpt><trkpt lat="42.409898164195006" lon="11.152115552846599"><ele>448.0</ele><time>2026-04-25T11:57:33.999Z</time></trkpt><trkpt lat="42.409752182104256" lon="11.152157987169272"><ele>448.0</ele><time>2026-04-25T11:57:34.999Z</time></trkpt><trkpt lat="42.4095916040208" lon="11.152215257916135"><ele>447.0</ele><time>2026-04-25T11:57:35.999Z</time></trkpt><trkpt lat="42.409445969863526" lon="11.152263073774366"><ele>446.0</ele><time>2026-04-25T11:57:36.999Z</time></trkpt><trkpt lat="42.40932486980639" lon="11.152315004540565"><ele>445.0</ele><time>2026-04-25T11:57:37.999Z</time></trkpt><trkpt lat="42.40920168018923" lon="11.15239529057146"><ele>444.0</ele><time>2026-04-25T11:57:38.999Z</time></trkpt><trkpt lat="42.409108767665124" lon="11.152508453192862"><ele>449.5</ele><time>2026-04-25T11:57:39.999Z</time></trkpt><trkpt lat="42.40900532616907" lon="11.152643396931799"><ele>455.0</ele><time>2026-04-25T11:57:40.999Z</time></trkpt><trkpt lat="42.40888035609271" lon="11.152730507224069"><ele>460.5</ele><time>2026-04-25T11:57:41.999Z</time></trkpt><trkpt lat="42.40874824923664" lon="11.152788457092461"><ele>466.0</ele><time>2026-04-25T11:57:42.999Z</time></trkpt><trkpt lat="42.40860177582259" lon="11.152840072422988"><ele>466.0</ele><time>2026-04-25T11:57:43.999Z</time></trkpt><trkpt lat="42.40845457859159" lon="11.152874918403091"><ele>466.0</ele><time>2026-04-25T11:57:44.999Z</time></trkpt><trkpt lat="42.40831189035452" lon="11.152915223865982"><ele>466.0</ele><time>2026-04-25T11:57:45.999Z</time></trkpt><trkpt lat="42.40817031108878" lon="11.152928416544166"><ele>466.0</ele><time>2026-04-25T11:57:46.999Z</time></trkpt><trkpt lat="42.40803706555005" lon="11.152957808911662"><ele>468.0</ele><time>2026-04-25T11:57:47.999Z</time></trkpt><trkpt lat="42.40790126959707" lon="11.153008768215587"><ele>470.0</ele><time>2026-04-25T11:57:48.999Z</time></trkpt><trkpt lat="42.407779152940414" lon="11.15305215774034"><ele>472.0</ele><time>2026-04-25T11:57:49.999Z</time></trkpt><trkpt lat="42.40767935572765" lon="11.153067929715691"><ele>474.0</ele><time>2026-04-25T11:57:50.999Z</time></trkpt><trkpt lat="42.40759260341737" lon="11.15303424462244"><ele>474.0</ele><time>2026-04-25T11:57:51.999Z</time></trkpt><trkpt lat="42.407509426153915" lon="11.15303107011035"><ele>474.0</ele><time>2026-04-25T11:57:52.999Z</time></trkpt><trkpt lat="42.40743296341387" lon="11.153004920869835"><ele>474.0</ele><time>2026-04-25T11:57:53.999Z</time></trkpt><trkpt lat="42.40736542495626" lon="11.152999775331422"><ele>474.0</ele><time>2026-04-25T11:57:54.999Z</time></trkpt><trkpt lat="42.40729979751606" lon="11.153038494694467"><ele>474.0</ele><time>2026-04-25T11:57:55.999Z</time></trkpt><trkpt lat="42.407248828588756" lon="11.15313005454097"><ele>474.0</ele><time>2026-04-25T11:57:56.999Z</time></trkpt><trkpt lat="42.407239256651444" lon="11.153253559594035"><ele>476.79999999999995</ele><time>2026-04-25T11:57:57.999Z</time></trkpt><trkpt lat="42.40726354017339" lon="11.153378283855421"><ele>479.59999999999997</ele><time>2026-04-25T11:57:58.999Z</time></trkpt><trkpt lat="42.40727003706007" lon="11.153517710318999"><ele>482.4</ele><time>2026-04-25T11:57:59.999Z</time></trkpt><trkpt lat="42.40729476030758" lon="11.153651354582859"><ele>485.2</ele><time>2026-04-25T11:58:00.999Z</time></trkpt><trkpt lat="42.4073156674911" lon="11.153801113376414"><ele>488.0</ele><time>2026-04-25T11:58:01.999Z</time></trkpt><trkpt lat="42.40735590937421" lon="11.153964499294295"><ele>489.0</ele><time>2026-04-25T11:58:02.999Z</time></trkpt><trkpt lat="42.407425789875724" lon="11.154123520419422"><ele>490.0</ele><time>2026-04-25T11:58:03.999Z</time></trkpt><trkpt lat="42.40749789138744" lon="11.154267719388477"><ele>491.0</ele><time>2026-04-25T11:58:04.999Z</time></trkpt><trkpt lat="42.407511047631864" lon="11.154426093728185"><ele>492.0</ele><time>2026-04-25T11:58:05.999Z</time></trkpt><trkpt lat="42.407494742879514" lon="11.154599842201938"><ele>492.0</ele><time>2026-04-25T11:58:06.999Z</time></trkpt><trkpt lat="42.407464282026154" lon="11.154797162987599"><ele>492.0</ele><time>2026-04-25T11:58:07.999Z</time></trkpt><trkpt lat="42.407445822766995" lon="11.155000355285328"><ele>492.0</ele><time>2026-04-25T11:58:08.999Z</time></trkpt><trkpt lat="42.407414164041334" lon="11.15517548926985"><ele>492.0</ele><time>2026-04-25T11:58:09.999Z</time></trkpt><trkpt lat="42.40737820970863" lon="11.155342223465551"><ele>491.25</ele><time>2026-04-25T11:58:10.999Z</time></trkpt><trkpt lat="42.40733272712858" lon="11.155495700547599"><ele>490.5</ele><time>2026-04-25T11:58:11.999Z</time></trkpt><trkpt lat="42.4072648629212" lon="11.15564724271775"><ele>489.75</ele><time>2026-04-25T11:58:12.999Z</time></trkpt><trkpt lat="42.40718845090427" lon="11.155790037161303"><ele>489.0</ele><time>2026-04-25T11:58:13.999Z</time></trkpt><trkpt lat="42.40711087546233" lon="11.155936741605064"><ele>488.75</ele><time>2026-04-25T11:58:14.999Z</time></trkpt><trkpt lat="42.40703354617488" lon="11.156090624923438"><ele>488.5</ele><time>2026-04-25T11:58:15.999Z</time></trkpt><trkpt lat="42.40695256767181" lon="11.156251137904276"><ele>488.25</ele><time>2026-04-25T11:58:16.999Z</time></trkpt><trkpt lat="42.40687366319046" lon="11.156414827998894"><ele>488.0</ele><time>2026-04-25T11:58:17.999Z</time></trkpt><trkpt lat="42.40679489193695" lon="11.156574707806064"><ele>488.5</ele><time>2026-04-25T11:58:18.999Z</time></trkpt><trkpt lat="42.40671519819477" lon="11.156715677530743"><ele>489.0</ele><time>2026-04-25T11:58:19.999Z</time></trkpt><trkpt lat="42.40661615557924" lon="11.156831803040403"><ele>489.5</ele><time>2026-04-25T11:58:20.999Z</time></trkpt><trkpt lat="42.40649567503309" lon="11.156884927124434"><ele>490.0</ele><time>2026-04-25T11:58:21.999Z</time></trkpt><trkpt lat="42.406385134249696" lon="11.156969741969437"><ele>492.25</ele><time>2026-04-25T11:58:22.999Z</time></trkpt><trkpt lat="42.40626379127338" lon="11.157027904000753"><ele>494.5</ele><time>2026-04-25T11:58:23.999Z</time></trkpt><trkpt lat="42.40613382919704" lon="11.157097619344649"><ele>496.75</ele><time>2026-04-25T11:58:24.999Z</time></trkpt><trkpt lat="42.40600916650816" lon="11.15717184135518"><ele>499.0</ele><time>2026-04-25T11:58:25.999Z</time></trkpt><trkpt lat="42.40588328277568" lon="11.157256903405978"><ele>496.6666666666667</ele><time>2026-04-25T11:58:26.999Z</time></trkpt><trkpt lat="42.40574921081889" lon="11.157374205418183"><ele>494.33333333333337</ele><time>2026-04-25T11:58:27.999Z</time></trkpt><trkpt lat="42.40562292207942" lon="11.157518005159641"><ele>492.0</ele><time>2026-04-25T11:58:28.999Z</time></trkpt><trkpt lat="42.405512207347726" lon="11.157656376842606"><ele>495.20000000000005</ele><time>2026-04-25T11:58:29.999Z</time></trkpt><trkpt lat="42.405415581507114" lon="11.157766806638417"><ele>498.40000000000003</ele><time>2026-04-25T11:58:30.999Z</time></trkpt><trkpt lat="42.4053299199116" lon="11.157869717484195"><ele>501.59999999999997</ele><time>2026-04-25T11:58:31.999Z</time></trkpt><trkpt lat="42.405254570456584" lon="11.157955643569002"><ele>504.79999999999995</ele><time>2026-04-25T11:58:32.999Z</time></trkpt><trkpt lat="42.40519388487966" lon="11.158023462406478"><ele>508.0</ele><time>2026-04-25T11:58:33.999Z</time></trkpt><trkpt lat="42.40513383217511" lon="11.158095128968728"><ele>508.0</ele><time>2026-04-25T11:58:34.999Z</time></trkpt><trkpt lat="42.40506993419921" lon="11.158176511620782"><ele>507.99999999999994</ele><time>2026-04-25T11:58:35.999Z</time></trkpt><trkpt lat="42.40500893766582" lon="11.158270279818987"><ele>507.99999999999994</ele><time>2026-04-25T11:58:36.999Z</time></trkpt><trkpt lat="42.40494904191585" lon="11.158377609608264"><ele>508.0</ele><time>2026-04-25T11:58:37.999Z</time></trkpt><trkpt lat="42.40488373147109" lon="11.158488930838045"><ele>508.0</ele><time>2026-04-25T11:58:38.999Z</time></trkpt><trkpt lat="42.40481349529729" lon="11.158613870525155"><ele>506.79999999999995</ele><time>2026-04-25T11:58:39.999Z</time></trkpt><trkpt lat="42.40474488143374" lon="11.158747971046868"><ele>505.59999999999997</ele><time>2026-04-25T11:58:40.999Z</time></trkpt><trkpt lat="42.40467416840013" lon="11.1588675531608"><ele>504.40000000000003</ele><time>2026-04-25T11:58:41.999Z</time></trkpt><trkpt lat="42.40460809379539" lon="11.158959965588"><ele>503.20000000000005</ele><time>2026-04-25T11:58:42.999Z</time></trkpt><trkpt lat="42.4045316159821" lon="11.159056802678105"><ele>502.0</ele><time>2026-04-25T11:58:43.999Z</time></trkpt><trkpt lat="42.40446517029943" lon="11.15916042257039"><ele>505.20000000000005</ele><time>2026-04-25T11:58:44.999Z</time></trkpt><trkpt lat="42.40441683636796" lon="11.159288493615705"><ele>508.40000000000003</ele><time>2026-04-25T11:58:45.999Z</time></trkpt><trkpt lat="42.40440810709448" lon="11.159428038984647"><ele>511.59999999999997</ele><time>2026-04-25T11:58:46.999Z</time></trkpt><trkpt lat="42.4044447720141" lon="11.159575399965703"><ele>514.8</ele><time>2026-04-25T11:58:47.999Z</time></trkpt><trkpt lat="42.404499811146714" lon="11.15970407690605"><ele>518.0</ele><time>2026-04-25T11:58:48.999Z</time></trkpt><trkpt lat="42.40454900914468" lon="11.159810363920984"><ele>517.0</ele><time>2026-04-25T11:58:49.999Z</time></trkpt><trkpt lat="42.404578370965986" lon="11.159910869934942"><ele>516.0</ele><time>2026-04-25T11:58:50.999Z</time></trkpt><trkpt lat="42.40459275977784" lon="11.160002353731596"><ele>515.0</ele><time>2026-04-25T11:58:51.999Z</time></trkpt><trkpt lat="42.404582483252334" lon="11.160097172626989"><ele>514.0</ele><time>2026-04-25T11:58:52.999Z</time></trkpt><trkpt lat="42.40455036823209" lon="11.16020683394115"><ele>513.0</ele><time>2026-04-25T11:58:53.999Z</time></trkpt><trkpt lat="42.40449901338706" lon="11.16030105844508"><ele>512.0</ele><time>2026-04-25T11:58:54.999Z</time></trkpt><trkpt lat="42.40443195496366" lon="11.160372049475667"><ele>512.0</ele><time>2026-04-25T11:58:55.999Z</time></trkpt><trkpt lat="42.40435270717685" lon="11.160413862553858"><ele>512.0</ele><time>2026-04-25T11:58:56.999Z</time></trkpt><trkpt lat="42.40425573292617" lon="11.16041111606754"><ele>512.0</ele><time>2026-04-25T11:58:57.999Z</time></trkpt><trkpt lat="42.404151892161615" lon="11.160439769600128"><ele>512.0</ele><time>2026-04-25T11:58:58.999Z</time></trkpt><trkpt lat="42.40402207770999" lon="11.160426477251638"><ele>512.0</ele><time>2026-04-25T11:58:59.999Z</time></trkpt><trkpt lat="42.403887491717406" lon="11.160390016838043"><ele>512.75</ele><time>2026-04-25T11:59:00.999Z</time></trkpt><trkpt lat="42.40375315978001" lon="11.160415069289224"><ele>513.5</ele><time>2026-04-25T11:59:01.999Z</time></trkpt><trkpt lat="42.40361406144279" lon="11.160457338379967"><ele>514.25</ele><time>2026-04-25T11:59:02.999Z</time></trkpt><trkpt lat="42.4034914826784" lon="11.160511150586302"><ele>515.0</ele><time>2026-04-25T11:59:03.999Z</time></trkpt><trkpt lat="42.40336899001998" lon="11.160505922119428"><ele>515.0</ele><time>2026-04-25T11:59:04.999Z</time></trkpt><trkpt lat="42.403237704038425" lon="11.160481342428614"><ele>515.0</ele><time>2026-04-25T11:59:05.999Z</time></trkpt><trkpt lat="42.40310930340774" lon="11.160445611277328"><ele>515.0</ele><time>2026-04-25T11:59:06.999Z</time></trkpt><trkpt lat="42.40299690703158" lon="11.160412109596416"><ele>515.0</ele><time>2026-04-25T11:59:07.999Z</time></trkpt><trkpt lat="42.40288419738761" lon="11.160381466067056"><ele>513.1666666666666</ele><time>2026-04-25T11:59:08.999Z</time></trkpt><trkpt lat="42.40278091355177" lon="11.160356125095074"><ele>511.3333333333333</ele><time>2026-04-25T11:59:09.999Z</time></trkpt><trkpt lat="42.402688582965105" lon="11.160346639862125"><ele>509.5</ele><time>2026-04-25T11:59:10.999Z</time></trkpt><trkpt lat="42.40260573139531" lon="11.160363528200124"><ele>507.66666666666663</ele><time>2026-04-25T11:59:12.999Z</time></trkpt><trkpt lat="42.402673967186026" lon="11.160327585453139"><ele>505.8333333333333</ele><time>2026-04-25T12:00:24.999Z</time></trkpt><trkpt lat="42.402750481339396" lon="11.160322248474532"><ele>504.0</ele><time>2026-04-25T12:00:26.999Z</time></trkpt><trkpt lat="42.40280129557126" lon="11.160085000059052"><ele>504.0</ele><time>2026-04-25T12:00:27.999Z</time></trkpt><trkpt lat="42.40285778383909" lon="11.16001334196059"><ele>504.0</ele><time>2026-04-25T12:00:28.999Z</time></trkpt><trkpt lat="42.40291691196231" lon="11.159937681480196"><ele>504.0</ele><time>2026-04-25T12:00:29.999Z</time></trkpt><trkpt lat="42.402966595355736" lon="11.15987622598127"><ele>504.0</ele><time>2026-04-25T12:00:30.999Z</time></trkpt><trkpt lat="42.403019458995956" lon="11.159827251726163"><ele>504.0</ele><time>2026-04-25T12:00:31.999Z</time></trkpt><trkpt lat="42.403123584817735" lon="11.159761143092695"><ele>504.0</ele><time>2026-04-25T12:00:33.999Z</time></trkpt><trkpt lat="42.403148377096294" lon="11.159663141888366"><ele>507.3333333333333</ele><time>2026-04-25T12:00:35.999Z</time></trkpt><trkpt lat="42.40317044987964" lon="11.159581364615581"><ele>510.66666666666663</ele><time>2026-04-25T12:00:36.999Z</time></trkpt><trkpt lat="42.40321630603305" lon="11.15951941255526"><ele>514.0</ele><time>2026-04-25T12:00:38.999Z</time></trkpt><trkpt lat="42.40327330585534" lon="11.15943782291395"><ele>517.3333333333333</ele><time>2026-04-25T12:00:40.999Z</time></trkpt><trkpt lat="42.403346689922536" lon="11.159353515214734"><ele>520.6666666666666</ele><time>2026-04-25T12:00:42.999Z</time></trkpt><trkpt lat="42.40339375183843" lon="11.159270131913974"><ele>524.0</ele><time>2026-04-25T12:00:43.999Z</time></trkpt><trkpt lat="42.40341248985728" lon="11.159163686613166"><ele>524.0</ele><time>2026-04-25T12:00:45.999Z</time></trkpt><trkpt lat="42.403408567278376" lon="11.159071274317093"><ele>524.0</ele><time>2026-04-25T12:00:46.999Z</time></trkpt><trkpt lat="42.40339352777644" lon="11.15891344649067"><ele>524.0</ele><time>2026-04-25T12:00:48.999Z</time></trkpt><trkpt lat="42.40338609095375" lon="11.158792913752617"><ele>524.0</ele><time>2026-04-25T12:00:50.999Z</time></trkpt><trkpt lat="42.40337704160464" lon="11.158670692370155"><ele>524.0</ele><time>2026-04-25T12:01:06.999Z</time></trkpt><trkpt lat="42.40335807936658" lon="11.158585975572478"><ele>524.0</ele><time>2026-04-25T12:01:08.999Z</time></trkpt><trkpt lat="42.40335181237518" lon="11.158498211682613"><ele>524.0</ele><time>2026-04-25T12:01:10.999Z</time></trkpt><trkpt lat="42.403336167660584" lon="11.158391943738822"><ele>524.0</ele><time>2026-04-25T12:01:12.999Z</time></trkpt><trkpt lat="42.40332697149686" lon="11.15826055483513"><ele>524.0</ele><time>2026-04-25T12:01:15.999Z</time></trkpt><trkpt lat="42.40328338953266" lon="11.158132976977722"><ele>524.0</ele><time>2026-04-25T12:01:18.999Z</time></trkpt><trkpt lat="42.40323470269805" lon="11.1580127345878"><ele>524.0</ele><time>2026-04-25T12:01:20.999Z</time></trkpt><trkpt lat="42.403215033917085" lon="11.157869459727014"><ele>524.0</ele><time>2026-04-25T12:01:22.999Z</time></trkpt><trkpt lat="42.40319549797432" lon="11.15778261260238"><ele>524.0</ele><time>2026-04-25T12:01:23.999Z</time></trkpt><trkpt lat="42.4031685462041" lon="11.157658554588048"><ele>524.0</ele><time>2026-04-25T12:01:25.999Z</time></trkpt><trkpt lat="42.40312172985106" lon="11.157540552450666"><ele>524.0</ele><time>2026-04-25T12:01:27.999Z</time></trkpt><trkpt lat="42.40308221724809" lon="11.157429210726875"><ele>524.0</ele><time>2026-04-25T12:01:29.999Z</time></trkpt><trkpt lat="42.40304123147857" lon="11.157315907683463"><ele>524.0</ele><time>2026-04-25T12:01:31.999Z</time></trkpt><trkpt lat="42.4030009571113" lon="11.157187993035695"><ele>520.6666666666666</ele><time>2026-04-25T12:01:33.999Z</time></trkpt><trkpt lat="42.40298331170898" lon="11.157069800274774"><ele>517.3333333333333</ele><time>2026-04-25T12:01:35.999Z</time></trkpt><trkpt lat="42.402941044168635" lon="11.15699329068628"><ele>514.0</ele><time>2026-04-25T12:01:37.999Z</time></trkpt><trkpt lat="42.402917554742544" lon="11.156893528581586"><ele>510.66666666666663</ele><time>2026-04-25T12:01:39.999Z</time></trkpt><trkpt lat="42.402872299491754" lon="11.156791453074549"><ele>507.3333333333333</ele><time>2026-04-25T12:01:41.999Z</time></trkpt><trkpt lat="42.4028304500557" lon="11.15671712106879"><ele>504.0</ele><time>2026-04-25T12:01:43.999Z</time></trkpt><trkpt lat="42.402782885955794" lon="11.15664932265485"><ele>504.0</ele><time>2026-04-25T12:01:45.999Z</time></trkpt><trkpt lat="42.40273044289459" lon="11.156565889018147"><ele>504.0</ele><time>2026-04-25T12:01:47.999Z</time></trkpt><trkpt lat="42.40267884269152" lon="11.156505720068198"><ele>504.0</ele><time>2026-04-25T12:01:49.999Z</time></trkpt><trkpt lat="42.402640302638645" lon="11.156352315010277"><ele>504.0</ele><time>2026-04-25T12:01:51.999Z</time></trkpt><trkpt lat="42.402586711702895" lon="11.156254195511751"><ele>504.0</ele><time>2026-04-25T12:01:53.999Z</time></trkpt><trkpt lat="42.402531013003006" lon="11.156174641174477"><ele>504.0</ele><time>2026-04-25T12:01:55.999Z</time></trkpt><trkpt lat="42.402478895831564" lon="11.156066492369867"><ele>503.6666666666667</ele><time>2026-04-25T12:01:57.999Z</time></trkpt><trkpt lat="42.402418111555264" lon="11.155946334757212"><ele>503.33333333333337</ele><time>2026-04-25T12:01:59.999Z</time></trkpt><trkpt lat="42.402400812742" lon="11.155827989747456"><ele>503.0</ele><time>2026-04-25T12:02:02.999Z</time></trkpt><trkpt lat="42.40235773637639" lon="11.155724656753593"><ele>502.6666666666667</ele><time>2026-04-25T12:02:04.999Z</time></trkpt><trkpt lat="42.4022842332783" lon="11.155663298886696"><ele>502.33333333333337</ele><time>2026-04-25T12:02:07.999Z</time></trkpt><trkpt lat="42.40227584187159" lon="11.155561645388111"><ele>502.0</ele><time>2026-04-25T12:02:10.999Z</time></trkpt><trkpt lat="42.402193374024755" lon="11.155514833894392"><ele>497.40000000000003</ele><time>2026-04-25T12:02:13.999Z</time></trkpt><trkpt lat="42.40212119062231" lon="11.155424787211164"><ele>492.80000000000007</ele><time>2026-04-25T12:02:16.999Z</time></trkpt><trkpt lat="42.402095241613004" lon="11.155309545340677"><ele>488.2</ele><time>2026-04-25T12:02:18.999Z</time></trkpt><trkpt lat="42.40203852680886" lon="11.155164545831996"><ele>483.6</ele><time>2026-04-25T12:02:20.999Z</time></trkpt><trkpt lat="42.402009401927074" lon="11.155022588341334"><ele>479.0</ele><time>2026-04-25T12:02:22.999Z</time></trkpt><trkpt lat="42.40197148550156" lon="11.154901148490588"><ele>478.16666666666663</ele><time>2026-04-25T12:02:24.999Z</time></trkpt><trkpt lat="42.40193928555031" lon="11.15482281996139"><ele>477.3333333333333</ele><time>2026-04-25T12:02:25.999Z</time></trkpt><trkpt lat="42.401896738202055" lon="11.154748558469716"><ele>476.5</ele><time>2026-04-25T12:02:27.999Z</time></trkpt><trkpt lat="42.40189741827837" lon="11.154660055192638"><ele>475.66666666666663</ele><time>2026-04-25T12:02:29.999Z</time></trkpt><trkpt lat="42.40185585862774" lon="11.154541452938078"><ele>474.8333333333333</ele><time>2026-04-25T12:02:31.999Z</time></trkpt><trkpt lat="42.40187156189004" lon="11.154449149287034"><ele>474.0</ele><time>2026-04-25T12:02:33.999Z</time></trkpt><trkpt lat="42.401884564027306" lon="11.154300043684662"><ele>474.0</ele><time>2026-04-25T12:02:35.999Z</time></trkpt><trkpt lat="42.40189327673242" lon="11.154177294991317"><ele>474.0</ele><time>2026-04-25T12:02:37.999Z</time></trkpt><trkpt lat="42.401901626635585" lon="11.154069146626387"><ele>474.0</ele><time>2026-04-25T12:02:39.999Z</time></trkpt><trkpt lat="42.40189313552532" lon="11.153959991986289"><ele>474.0</ele><time>2026-04-25T12:02:41.999Z</time></trkpt><trkpt lat="42.40191698018046" lon="11.153826282536972"><ele>474.0</ele><time>2026-04-25T12:02:43.999Z</time></trkpt><trkpt lat="42.40187767709656" lon="11.153717210973598"><ele>474.0</ele><time>2026-04-25T12:02:46.999Z</time></trkpt><trkpt lat="42.401893939004545" lon="11.15362785479762"><ele>472.71428571428567</ele><time>2026-04-25T12:02:49.999Z</time></trkpt><trkpt lat="42.40189482123135" lon="11.153540112687475"><ele>471.42857142857144</ele><time>2026-04-25T12:02:51.999Z</time></trkpt><trkpt lat="42.401824736891214" lon="11.15352774927101"><ele>470.1428571428571</ele><time>2026-04-25T12:02:54.999Z</time></trkpt><trkpt lat="42.40174919554568" lon="11.153495998874414"><ele>468.85714285714283</ele><time>2026-04-25T12:03:25.999Z</time></trkpt><trkpt lat="42.40166724728289" lon="11.153495378517485"><ele>467.57142857142856</ele><time>2026-04-25T12:03:28.999Z</time></trkpt><trkpt lat="42.40170473106329" lon="11.153423022828266"><ele>466.2857142857143</ele><time>2026-04-25T12:03:29.999Z</time></trkpt><trkpt lat="42.401739586068125" lon="11.153339405317958"><ele>465.0</ele><time>2026-04-25T12:03:32.999Z</time></trkpt><trkpt lat="42.40176395072795" lon="11.153250768211173"><ele>462.3333333333333</ele><time>2026-04-25T12:03:36.999Z</time></trkpt><trkpt lat="42.401709215834956" lon="11.15317737641515"><ele>459.66666666666663</ele><time>2026-04-25T12:03:39.999Z</time></trkpt><trkpt lat="42.401621977261094" lon="11.153134726250945"><ele>457.0</ele><time>2026-04-25T12:03:42.999Z</time></trkpt><trkpt lat="42.40158558478782" lon="11.153063337025868"><ele>454.3333333333333</ele><time>2026-04-25T12:03:45.999Z</time></trkpt><trkpt lat="42.40162325550188" lon="11.15298312051594"><ele>451.66666666666663</ele><time>2026-04-25T12:03:48.999Z</time></trkpt><trkpt lat="42.40159793829409" lon="11.152893065698203"><ele>449.0</ele><time>2026-04-25T12:03:53.999Z</time></trkpt><trkpt lat="42.40151292816791" lon="11.152868492939694"><ele>449.0</ele><time>2026-04-25T12:03:57.999Z</time></trkpt><trkpt lat="42.40146137533216" lon="11.152800059161644"><ele>448.99999999999994</ele><time>2026-04-25T12:04:00.999Z</time></trkpt><trkpt lat="42.40147140074537" lon="11.152696991644705"><ele>449.0</ele><time>2026-04-25T12:04:03.999Z</time></trkpt><trkpt lat="42.40143323627517" lon="11.152604988535797"><ele>449.0</ele><time>2026-04-25T12:04:06.999Z</time></trkpt><trkpt lat="42.40137995876772" lon="11.152530495980175"><ele>448.99999999999994</ele><time>2026-04-25T12:04:08.999Z</time></trkpt><trkpt lat="42.401301222322935" lon="11.15250339124942"><ele>449.0</ele><time>2026-04-25T12:04:11.999Z</time></trkpt><trkpt lat="42.40127080768262" lon="11.15242833900491"><ele>449.0</ele><time>2026-04-25T12:04:13.999Z</time></trkpt><trkpt lat="42.401232826362644" lon="11.152328274631941"><ele>447.85714285714283</ele><time>2026-04-25T12:04:15.999Z</time></trkpt><trkpt lat="42.40118971804283" lon="11.15223275847099"><ele>446.71428571428567</ele><time>2026-04-25T12:04:17.999Z</time></trkpt><trkpt lat="42.401165457601046" lon="11.152150180894784"><ele>445.57142857142856</ele><time>2026-04-25T12:04:19.999Z</time></trkpt><trkpt lat="42.40111532996269" lon="11.152064287632712"><ele>444.42857142857144</ele><time>2026-04-25T12:04:22.999Z</time></trkpt><trkpt lat="42.40108275154207" lon="11.151983348712307"><ele>443.2857142857143</ele><time>2026-04-25T12:04:24.999Z</time></trkpt><trkpt lat="42.401034914348216" lon="11.151917780225865"><ele>442.1428571428571</ele><time>2026-04-25T12:04:36.999Z</time></trkpt><trkpt lat="42.401057920101785" lon="11.151809852459142"><ele>441.0</ele><time>2026-04-25T12:04:45Z</time></trkpt><trkpt lat="42.40110519246913" lon="11.151746988982373"><ele>441.0</ele><time>2026-04-25T12:04:51Z</time></trkpt><trkpt lat="42.401169832627374" lon="11.15175154510091"><ele>441.0</ele><time>2026-04-25T12:05:03Z</time></trkpt><trkpt lat="42.40123377669701" lon="11.151715756062591"><ele>441.0</ele><time>2026-04-25T12:05:14Z</time></trkpt><trkpt lat="42.401297637745024" lon="11.151670059038398"><ele>441.0</ele><time>2026-04-25T12:05:20Z</time></trkpt><trkpt lat="42.40136088623342" lon="11.151662152758247"><ele>441.0</ele><time>2026-04-25T12:05:26Z</time></trkpt><trkpt lat="42.40141488120199" lon="11.15160285326919"><ele>441.0</ele><time>2026-04-25T12:05:30Z</time></trkpt><trkpt lat="42.40141655130425" lon="11.151504082564248"><ele>441.0</ele><time>2026-04-25T12:05:34Z</time></trkpt><trkpt lat="42.40148083583281" lon="11.15146927732104"><ele>439.42857142857144</ele><time>2026-04-25T12:05:40Z</time></trkpt><trkpt lat="42.401534298973566" lon="11.15152368082991"><ele>437.8571428571429</ele><time>2026-04-25T12:05:43Z</time></trkpt><trkpt lat="42.40160584060914" lon="11.15157303284859"><ele>436.2857142857143</ele><time>2026-04-25T12:05:55Z</time></trkpt><trkpt lat="42.40167198487072" lon="11.151585588530766"><ele>434.7142857142857</ele><time>2026-04-25T12:06:12Z</time></trkpt><trkpt lat="42.40170924303593" lon="11.151501143497086"><ele>433.14285714285717</ele><time>2026-04-25T12:07:07Z</time></trkpt><trkpt lat="42.40172566706011" lon="11.151396628856842"><ele>431.57142857142856</ele><time>2026-04-25T12:07:13Z</time></trkpt><trkpt lat="42.401783968525606" lon="11.1513431990824"><ele>430.0</ele><time>2026-04-25T12:07:22Z</time></trkpt><trkpt lat="42.4018643654721" lon="11.151366623604119"><ele>428.50000000000006</ele><time>2026-04-25T12:07:25Z</time></trkpt><trkpt lat="42.401950773655564" lon="11.151381230577663"><ele>427.0</ele><time>2026-04-25T12:07:27Z</time></trkpt><trkpt lat="42.40202467004453" lon="11.151397157998352"><ele>425.5</ele><time>2026-04-25T12:07:30Z</time></trkpt><trkpt lat="42.402089828115045" lon="11.151384725153758"><ele>424.0</ele><time>2026-04-25T12:07:33Z</time></trkpt><trkpt lat="42.40216198149747" lon="11.151407779025384"><ele>422.50000000000006</ele><time>2026-04-25T12:07:36Z</time></trkpt><trkpt lat="42.40223582739465" lon="11.151448709001471"><ele>421.0</ele><time>2026-04-25T12:07:38Z</time></trkpt><trkpt lat="42.40229400023237" lon="11.151396312318786"><ele>416.1666666666667</ele><time>2026-04-25T12:07:50Z</time></trkpt><trkpt lat="42.40237509774614" lon="11.151340667485824"><ele>411.33333333333337</ele><time>2026-04-25T12:07:53Z</time></trkpt><trkpt lat="42.40245703552201" lon="11.151262026055457"><ele>406.5</ele><time>2026-04-25T12:07:56Z</time></trkpt><trkpt lat="42.40252931872297" lon="11.151204211878708"><ele>401.66666666666663</ele><time>2026-04-25T12:07:58Z</time></trkpt><trkpt lat="42.40260582145438" lon="11.151179154262172"><ele>396.8333333333333</ele><time>2026-04-25T12:08:01Z</time></trkpt><trkpt lat="42.40266346923212" lon="11.151137467580376"><ele>392.0</ele><time>2026-04-25T12:08:03Z</time></trkpt><trkpt lat="42.40272559257352" lon="11.151115726401661"><ele>391.99999999999994</ele><time>2026-04-25T12:08:06Z</time></trkpt><trkpt lat="42.402801386868454" lon="11.151082561593268"><ele>392.0</ele><time>2026-04-25T12:08:08Z</time></trkpt><trkpt lat="42.40286498453089" lon="11.151023489927939"><ele>392.0</ele><time>2026-04-25T12:08:10Z</time></trkpt><trkpt lat="42.402934388374" lon="11.151003643505426"><ele>392.0</ele><time>2026-04-25T12:08:12Z</time></trkpt><trkpt lat="42.40300065039078" lon="11.15096999131615"><ele>391.99999999999994</ele><time>2026-04-25T12:08:15Z</time></trkpt><trkpt lat="42.403094215388194" lon="11.150991260370741"><ele>392.0</ele><time>2026-04-25T12:08:17Z</time></trkpt><trkpt lat="42.40316844374892" lon="11.15108253370741"><ele>390.16666666666663</ele><time>2026-04-25T12:08:20Z</time></trkpt><trkpt lat="42.40320940698291" lon="11.151149054647268"><ele>388.3333333333333</ele><time>2026-04-25T12:08:22Z</time></trkpt><trkpt lat="42.40327101873054" lon="11.15117904693077"><ele>386.5</ele><time>2026-04-25T12:08:25Z</time></trkpt><trkpt lat="42.40333055911625" lon="11.151235949283558"><ele>384.66666666666663</ele><time>2026-04-25T12:08:28Z</time></trkpt><trkpt lat="42.403392780102905" lon="11.151329631406444"><ele>382.8333333333333</ele><time>2026-04-25T12:08:31Z</time></trkpt><trkpt lat="42.403441971536736" lon="11.151423630264793"><ele>381.0</ele><time>2026-04-25T12:08:34Z</time></trkpt><trkpt lat="42.40350552776365" lon="11.151510226709833"><ele>384.6666666666667</ele><time>2026-04-25T12:08:37Z</time></trkpt><trkpt lat="42.40352333242636" lon="11.151638119018347"><ele>388.33333333333337</ele><time>2026-04-25T12:08:40Z</time></trkpt><trkpt lat="42.403567462920705" lon="11.151753397736066"><ele>392.0</ele><time>2026-04-25T12:08:43Z</time></trkpt><trkpt lat="42.40360293108218" lon="11.151847052980642"><ele>395.6666666666667</ele><time>2026-04-25T12:08:46Z</time></trkpt><trkpt lat="42.40362577065227" lon="11.151954545136139"><ele>399.33333333333337</ele><time>2026-04-25T12:08:50Z</time></trkpt><trkpt lat="42.403677936506924" lon="11.152030938152034"><ele>403.0</ele><time>2026-04-25T12:08:53Z</time></trkpt><trkpt lat="42.403754468526614" lon="11.152061786363399"><ele>403.00000000000006</ele><time>2026-04-25T12:08:56.001Z</time></trkpt><trkpt lat="42.403821934644064" lon="11.152092427095479"><ele>403.0</ele><time>2026-04-25T12:08:58.001Z</time></trkpt><trkpt lat="42.40389402776267" lon="11.152113072909408"><ele>403.0</ele><time>2026-04-25T12:09:01.001Z</time></trkpt><trkpt lat="42.40397672211361" lon="11.15208179022722"><ele>403.0</ele><time>2026-04-25T12:09:03.001Z</time></trkpt><trkpt lat="42.404060312082734" lon="11.152052127492167"><ele>403.00000000000006</ele><time>2026-04-25T12:09:06.001Z</time></trkpt><trkpt lat="42.40404918276522" lon="11.151915741615886"><ele>403.0</ele><time>2026-04-25T12:09:09.001Z</time></trkpt><trkpt lat="42.404086007886164" lon="11.151771174851012"><ele>402.50000000000006</ele><time>2026-04-25T12:09:12.001Z</time></trkpt><trkpt lat="42.40410978647591" lon="11.151657426908647"><ele>402.0</ele><time>2026-04-25T12:09:14Z</time></trkpt><trkpt lat="42.40415237010931" lon="11.151572526192282"><ele>401.5</ele><time>2026-04-25T12:09:16Z</time></trkpt><trkpt lat="42.40417633541251" lon="11.151454497427675"><ele>401.0</ele><time>2026-04-25T12:09:18Z</time></trkpt><trkpt lat="42.404181183097606" lon="11.151365784996948"><ele>400.50000000000006</ele><time>2026-04-25T12:09:20Z</time></trkpt><trkpt lat="42.40420669358411" lon="11.15125844298756"><ele>400.0</ele><time>2026-04-25T12:09:22Z</time></trkpt><trkpt lat="42.404241016606285" lon="11.151186473381227"><ele>397.33333333333337</ele><time>2026-04-25T12:09:27Z</time></trkpt><trkpt lat="42.40426121505742" lon="11.151089404991302"><ele>394.6666666666667</ele><time>2026-04-25T12:09:30Z</time></trkpt><trkpt lat="42.40432576181327" lon="11.151032823506585"><ele>392.0</ele><time>2026-04-25T12:09:38Z</time></trkpt><trkpt lat="42.404341766024615" lon="11.150944877818228"><ele>389.33333333333337</ele><time>2026-04-25T12:09:40Z</time></trkpt><trkpt lat="42.40440436643482" lon="11.15084819541456"><ele>386.6666666666667</ele><time>2026-04-25T12:09:43Z</time></trkpt><trkpt lat="42.404468268649765" lon="11.15078073540095"><ele>384.0</ele><time>2026-04-25T12:12:28Z</time></trkpt><trkpt lat="42.404520727306355" lon="11.150733211269042"><ele>385.4</ele><time>2026-04-25T12:12:38Z</time></trkpt><trkpt lat="42.404599464417394" lon="11.15065886044338"><ele>386.79999999999995</ele><time>2026-04-25T12:12:40Z</time></trkpt><trkpt lat="42.40466553353162" lon="11.150590296477398"><ele>388.20000000000005</ele><time>2026-04-25T12:12:41Z</time></trkpt><trkpt lat="42.404761771764576" lon="11.150554370449493"><ele>389.6</ele><time>2026-04-25T12:12:42Z</time></trkpt><trkpt lat="42.4048544956165" lon="11.15051636344796"><ele>391.0</ele><time>2026-04-25T12:12:44Z</time></trkpt><trkpt lat="42.404934801679644" lon="11.150488773498044"><ele>391.0</ele><time>2026-04-25T12:12:45Z</time></trkpt><trkpt lat="42.40502470063383" lon="11.150468190725118"><ele>391.0</ele><time>2026-04-25T12:12:46Z</time></trkpt><trkpt lat="42.40511725414552" lon="11.150448164231674"><ele>391.0</ele><time>2026-04-25T12:12:47Z</time></trkpt><trkpt lat="42.40521226892576" lon="11.15040327820419"><ele>391.0</ele><time>2026-04-25T12:12:48Z</time></trkpt><trkpt lat="42.40530600558593" lon="11.15038556278589"><ele>391.0</ele><time>2026-04-25T12:12:49Z</time></trkpt><trkpt lat="42.40538337178215" lon="11.150366673132574"><ele>391.00000000000006</ele><time>2026-04-25T12:12:50Z</time></trkpt><trkpt lat="42.40544226527259" lon="11.150288569844925"><ele>391.0</ele><time>2026-04-25T12:12:52Z</time></trkpt><trkpt lat="42.40547867295877" lon="11.150178281818311"><ele>391.0</ele><time>2026-04-25T12:12:54Z</time></trkpt><trkpt lat="42.405496736328004" lon="11.150093008131165"><ele>391.0</ele><time>2026-04-25T12:12:55Z</time></trkpt><trkpt lat="42.40551563997569" lon="11.149997671864066"><ele>391.00000000000006</ele><time>2026-04-25T12:12:56Z</time></trkpt><trkpt lat="42.40553913834177" lon="11.149879163405819"><ele>391.0</ele><time>2026-04-25T12:12:57Z</time></trkpt><trkpt lat="42.40556362240349" lon="11.149755683704141"><ele>393.83333333333337</ele><time>2026-04-25T12:12:58Z</time></trkpt><trkpt lat="42.40558937047049" lon="11.14962582858037"><ele>396.6666666666667</ele><time>2026-04-25T12:12:59Z</time></trkpt><trkpt lat="42.40561858312364" lon="11.149505672228726"><ele>399.5</ele><time>2026-04-25T12:13:00Z</time></trkpt><trkpt lat="42.40565158333916" lon="11.149417344372948"><ele>402.33333333333337</ele><time>2026-04-25T12:13:01Z</time></trkpt><trkpt lat="42.40568667602006" lon="11.149338713452007"><ele>405.1666666666667</ele><time>2026-04-25T12:13:02Z</time></trkpt><trkpt lat="42.405726761539846" lon="11.149272795029185"><ele>408.0</ele><time>2026-04-25T12:13:03Z</time></trkpt><trkpt lat="42.4056730789652" lon="11.149392533345384"><ele>408.0</ele><time>2026-04-25T12:13:11Z</time></trkpt><trkpt lat="42.40563703539189" lon="11.149466408168164"><ele>408.0</ele><time>2026-04-25T12:13:12Z</time></trkpt><trkpt lat="42.40567455735913" lon="11.149633755830942"><ele>408.0</ele><time>2026-04-25T12:13:13Z</time></trkpt><trkpt lat="42.405670461834184" lon="11.1497519971542"><ele>408.0</ele><time>2026-04-25T12:13:14Z</time></trkpt><trkpt lat="42.40567480284915" lon="11.149873344382142"><ele>408.0</ele><time>2026-04-25T12:13:15Z</time></trkpt><trkpt lat="42.40568912538532" lon="11.150003467451528"><ele>410.4</ele><time>2026-04-25T12:13:16Z</time></trkpt><trkpt lat="42.40570110147386" lon="11.150139655934531"><ele>412.79999999999995</ele><time>2026-04-25T12:13:17Z</time></trkpt><trkpt lat="42.405705639256716" lon="11.15027286908837"><ele>415.2</ele><time>2026-04-25T12:13:18Z</time></trkpt><trkpt lat="42.405707930343326" lon="11.150403180053994"><ele>417.6</ele><time>2026-04-25T12:13:19Z</time></trkpt><trkpt lat="42.405712007099" lon="11.150512047009158"><ele>420.0</ele><time>2026-04-25T12:13:20Z</time></trkpt><trkpt lat="42.40572103330426" lon="11.150614109281712"><ele>417.5</ele><time>2026-04-25T12:13:21Z</time></trkpt><trkpt lat="42.40572222376973" lon="11.150709435189107"><ele>415.0</ele><time>2026-04-25T12:13:22Z</time></trkpt><trkpt lat="42.40561962718512" lon="11.15081596163733"><ele>412.5</ele><time>2026-04-25T12:13:24Z</time></trkpt><trkpt lat="42.405480845041836" lon="11.150900011263642"><ele>410.0</ele><time>2026-04-25T12:13:26Z</time></trkpt><trkpt lat="42.40538964964356" lon="11.15098888057209"><ele>410.0</ele><time>2026-04-25T12:13:27Z</time></trkpt><trkpt lat="42.40529780183697" lon="11.151055985231329"><ele>410.0</ele><time>2026-04-25T12:13:28Z</time></trkpt><trkpt lat="42.40521040871742" lon="11.151126337589142"><ele>410.0</ele><time>2026-04-25T12:13:29Z</time></trkpt><trkpt lat="42.405123416097254" lon="11.151216658663483"><ele>410.0</ele><time>2026-04-25T12:13:30Z</time></trkpt><trkpt lat="42.40504188647623" lon="11.151276744121022"><ele>410.0</ele><time>2026-04-25T12:13:31Z</time></trkpt><trkpt lat="42.40497530224796" lon="11.151361241277966"><ele>410.0</ele><time>2026-04-25T12:13:32Z</time></trkpt><trkpt lat="42.404915153851036" lon="11.151454986568291"><ele>410.0</ele><time>2026-04-25T12:13:33Z</time></trkpt><trkpt lat="42.404888785006236" lon="11.151561741497108"><ele>410.0</ele><time>2026-04-25T12:13:34Z</time></trkpt><trkpt lat="42.404861924737034" lon="11.151651855621846"><ele>410.0</ele><time>2026-04-25T12:13:35Z</time></trkpt><trkpt lat="42.40486431141923" lon="11.151852715868616"><ele>410.0</ele><time>2026-04-25T12:13:37Z</time></trkpt><trkpt lat="42.4048525484859" lon="11.151997645823778"><ele>414.8</ele><time>2026-04-25T12:13:38Z</time></trkpt><trkpt lat="42.40483751703248" lon="11.152154578007114"><ele>419.6</ele><time>2026-04-25T12:13:39Z</time></trkpt><trkpt lat="42.40479241845695" lon="11.152303318291645"><ele>424.4</ele><time>2026-04-25T12:13:40Z</time></trkpt><trkpt lat="42.40479250408453" lon="11.152412250476969"><ele>429.2</ele><time>2026-04-25T12:13:41Z</time></trkpt><trkpt lat="42.404820160388425" lon="11.15255746699051"><ele>434.0</ele><time>2026-04-25T12:13:43Z</time></trkpt><trkpt lat="42.40484994356572" lon="11.152641076577448"><ele>436.0</ele><time>2026-04-25T12:13:44Z</time></trkpt><trkpt lat="42.40489508705273" lon="11.152712186534675"><ele>438.0</ele><time>2026-04-25T12:13:45Z</time></trkpt><trkpt lat="42.405018540666696" lon="11.152778938502545"><ele>440.0</ele><time>2026-04-25T12:13:47Z</time></trkpt><trkpt lat="42.405107148818786" lon="11.152818258176469"><ele>442.0</ele><time>2026-04-25T12:13:48Z</time></trkpt><trkpt lat="42.405203497764475" lon="11.152858754359162"><ele>444.0</ele><time>2026-04-25T12:13:49Z</time></trkpt><trkpt lat="42.405295474514354" lon="11.152918348052102"><ele>444.0</ele><time>2026-04-25T12:13:50Z</time></trkpt><trkpt lat="42.4053968812053" lon="11.152996631597151"><ele>444.0</ele><time>2026-04-25T12:13:51Z</time></trkpt><trkpt lat="42.40549250439733" lon="11.153068655852014"><ele>444.0</ele><time>2026-04-25T12:13:52Z</time></trkpt><trkpt lat="42.40558339056848" lon="11.15311520128916"><ele>444.0</ele><time>2026-04-25T12:13:53Z</time></trkpt><trkpt lat="42.405779428897716" lon="11.153190125565159"><ele>447.2</ele><time>2026-04-25T12:13:55Z</time></trkpt><trkpt lat="42.405887415686735" lon="11.15323814726052"><ele>450.4</ele><time>2026-04-25T12:13:56Z</time></trkpt><trkpt lat="42.4059833374698" lon="11.153288535861416"><ele>453.6</ele><time>2026-04-25T12:13:57Z</time></trkpt><trkpt lat="42.406063301464805" lon="11.153349214696517"><ele>456.8</ele><time>2026-04-25T12:13:58Z</time></trkpt><trkpt lat="42.406131251083046" lon="11.153435665332427"><ele>460.0</ele><time>2026-04-25T12:13:59Z</time></trkpt><trkpt lat="42.4061631201029" lon="11.153565403781226"><ele>460.00000000000006</ele><time>2026-04-25T12:14:00Z</time></trkpt><trkpt lat="42.406186787570896" lon="11.153675796708722"><ele>460.0</ele><time>2026-04-25T12:14:01Z</time></trkpt><trkpt lat="42.406247826504966" lon="11.153787374206829"><ele>460.0</ele><time>2026-04-25T12:14:03Z</time></trkpt><trkpt lat="42.406318695325986" lon="11.153747600597807"><ele>460.0</ele><time>2026-04-25T12:14:05Z</time></trkpt><trkpt lat="42.40631128150784" lon="11.153624675988567"><ele>460.00000000000006</ele><time>2026-04-25T12:14:07Z</time></trkpt><trkpt lat="42.40627393255152" lon="11.153529713220902"><ele>460.0</ele><time>2026-04-25T12:14:08Z</time></trkpt><trkpt lat="42.406234240862624" lon="11.153443045853905"><ele>460.0</ele><time>2026-04-25T12:14:09Z</time></trkpt><trkpt lat="42.406213149316216" lon="11.153358859203657"><ele>460.0</ele><time>2026-04-25T12:14:10Z</time></trkpt><trkpt lat="42.406186280445205" lon="11.153259368604576"><ele>460.0</ele><time>2026-04-25T12:14:12Z</time></trkpt><trkpt lat="42.40627654301803" lon="11.153337514534437"><ele>460.0</ele><time>2026-04-25T12:14:21Z</time></trkpt><trkpt lat="42.40635151011775" lon="11.153470606622955"><ele>460.0</ele><time>2026-04-25T12:14:23Z</time></trkpt><trkpt lat="42.406420256086115" lon="11.153568702316656"><ele>463.2</ele><time>2026-04-25T12:14:24Z</time></trkpt><trkpt lat="42.406479214399035" lon="11.153662053334338"><ele>466.4</ele><time>2026-04-25T12:14:25Z</time></trkpt><trkpt lat="42.40654789065774" lon="11.153766271363395"><ele>469.6</ele><time>2026-04-25T12:14:26Z</time></trkpt><trkpt lat="42.406620886505394" lon="11.153866003447753"><ele>472.8</ele><time>2026-04-25T12:14:27Z</time></trkpt><trkpt lat="42.40670792775259" lon="11.153982689006385"><ele>476.0</ele><time>2026-04-25T12:14:28Z</time></trkpt><trkpt lat="42.40677414387827" lon="11.154115574557192"><ele>476.0</ele><time>2026-04-25T12:14:29Z</time></trkpt><trkpt lat="42.406851119143425" lon="11.154281051933093"><ele>476.0</ele><time>2026-04-25T12:14:30Z</time></trkpt><trkpt lat="42.40691881028972" lon="11.154452873940192"><ele>476.0</ele><time>2026-04-25T12:14:31Z</time></trkpt><trkpt lat="42.40700067479308" lon="11.154749359294856"><ele>477.20000000000005</ele><time>2026-04-25T12:14:33Z</time></trkpt><trkpt lat="42.40703785800214" lon="11.154879352780274"><ele>478.40000000000003</ele><time>2026-04-25T12:14:34Z</time></trkpt><trkpt lat="42.40707121909648" lon="11.154981871087362"><ele>479.6</ele><time>2026-04-25T12:14:35Z</time></trkpt><trkpt lat="42.40710404262902" lon="11.155101876872013"><ele>480.8</ele><time>2026-04-25T12:14:36Z</time></trkpt><trkpt lat="42.40713021146144" lon="11.155222063453511"><ele>482.0</ele><time>2026-04-25T12:14:37Z</time></trkpt><trkpt lat="42.407173700887256" lon="11.155337949570901"><ele>482.49999999999994</ele><time>2026-04-25T12:14:38Z</time></trkpt><trkpt lat="42.40721239659529" lon="11.155451557549377"><ele>483.0</ele><time>2026-04-25T12:14:39Z</time></trkpt><trkpt lat="42.4072478844476" lon="11.15553746870454"><ele>483.5</ele><time>2026-04-25T12:14:40Z</time></trkpt><trkpt lat="42.407292926766104" lon="11.155612646415113"><ele>484.0</ele><time>2026-04-25T12:14:42Z</time></trkpt><trkpt lat="42.40721311619098" lon="11.155712757402975"><ele>484.49999999999994</ele><time>2026-04-25T12:14:44Z</time></trkpt><trkpt lat="42.407176860672465" lon="11.15581988433997"><ele>485.0</ele><time>2026-04-25T12:14:45Z</time></trkpt><trkpt lat="42.40711655458389" lon="11.155920194433"><ele>485.75</ele><time>2026-04-25T12:14:46Z</time></trkpt><trkpt lat="42.40705658934115" lon="11.156039896296386"><ele>486.5</ele><time>2026-04-25T12:14:47Z</time></trkpt><trkpt lat="42.40699128469392" lon="11.15616615246568"><ele>487.25</ele><time>2026-04-25T12:14:48Z</time></trkpt><trkpt lat="42.40692578590055" lon="11.156295363583222"><ele>488.0</ele><time>2026-04-25T12:14:49Z</time></trkpt><trkpt lat="42.406864872324114" lon="11.156431233661626"><ele>488.4</ele><time>2026-04-25T12:14:50Z</time></trkpt><trkpt lat="42.40679943975251" lon="11.15656336476114"><ele>488.79999999999995</ele><time>2026-04-25T12:14:51Z</time></trkpt><trkpt lat="42.406742698689584" lon="11.156666765911835"><ele>489.2</ele><time>2026-04-25T12:14:52Z</time></trkpt><trkpt lat="42.406668761134476" lon="11.156760511364588"><ele>489.6</ele><time>2026-04-25T12:14:53Z</time></trkpt><trkpt lat="42.40657646061613" lon="11.156848895106048"><ele>490.0</ele><time>2026-04-25T12:14:54Z</time></trkpt><trkpt lat="42.406458870601064" lon="11.156924186750647"><ele>490.0</ele><time>2026-04-25T12:14:55Z</time></trkpt><trkpt lat="42.406334710806526" lon="11.156972148891148"><ele>490.0</ele><time>2026-04-25T12:14:56Z</time></trkpt><trkpt lat="42.406219413994926" lon="11.157038813399947"><ele>490.0</ele><time>2026-04-25T12:14:57Z</time></trkpt><trkpt lat="42.40608870632327" lon="11.157115329190145"><ele>490.0</ele><time>2026-04-25T12:14:58Z</time></trkpt><trkpt lat="42.40595925942798" lon="11.157197163723945"><ele>490.6666666666667</ele><time>2026-04-25T12:14:59Z</time></trkpt><trkpt lat="42.405828775478135" lon="11.157296397262908"><ele>491.33333333333337</ele><time>2026-04-25T12:15:00Z</time></trkpt><trkpt lat="42.405689610612576" lon="11.15742493642919"><ele>492.0</ele><time>2026-04-25T12:15:01Z</time></trkpt><trkpt lat="42.40555041516106" lon="11.157582003106704"><ele>497.33333333333337</ele><time>2026-04-25T12:15:02Z</time></trkpt><trkpt lat="42.40542034136322" lon="11.157743789944506"><ele>502.6666666666667</ele><time>2026-04-25T12:15:03Z</time></trkpt><trkpt lat="42.40527806238664" lon="11.157911357936326"><ele>508.0</ele><time>2026-04-25T12:15:04Z</time></trkpt><trkpt lat="42.40514300877936" lon="11.158074290482865"><ele>506.5</ele><time>2026-04-25T12:15:05Z</time></trkpt><trkpt lat="42.40503334283971" lon="11.158220653646577"><ele>505.0</ele><time>2026-04-25T12:15:06Z</time></trkpt><trkpt lat="42.404937532143606" lon="11.158366813369382"><ele>503.5</ele><time>2026-04-25T12:15:07Z</time></trkpt><trkpt lat="42.404857043495866" lon="11.158504730995348"><ele>502.0</ele><time>2026-04-25T12:15:08Z</time></trkpt><trkpt lat="42.404783027114114" lon="11.158650814569556"><ele>502.0</ele><time>2026-04-25T12:15:09Z</time></trkpt><trkpt lat="42.404708792333075" lon="11.158791268209985"><ele>502.0</ele><time>2026-04-25T12:15:10Z</time></trkpt><trkpt lat="42.40462848024955" lon="11.158929180594598"><ele>502.0</ele><time>2026-04-25T12:15:11Z</time></trkpt><trkpt lat="42.404539003062446" lon="11.159047915947994"><ele>502.0</ele><time>2026-04-25T12:15:11.999Z</time></trkpt><trkpt lat="42.40445525751784" lon="11.159158494437662"><ele>506.0</ele><time>2026-04-25T12:15:12.999Z</time></trkpt><trkpt lat="42.4044072507714" lon="11.15929718246519"><ele>510.0</ele><time>2026-04-25T12:15:13.999Z</time></trkpt><trkpt lat="42.40440642538329" lon="11.159448902212532"><ele>514.0</ele><time>2026-04-25T12:15:14.999Z</time></trkpt><trkpt lat="42.40444853689967" lon="11.159608137638362"><ele>518.0</ele><time>2026-04-25T12:15:15.999Z</time></trkpt><trkpt lat="42.40451003627537" lon="11.159743021650945"><ele>518.0</ele><time>2026-04-25T12:15:16.999Z</time></trkpt><trkpt lat="42.40456238565793" lon="11.159853588900964"><ele>518.0</ele><time>2026-04-25T12:15:17.999Z</time></trkpt><trkpt lat="42.40458939079727" lon="11.159956203901709"><ele>518.0</ele><time>2026-04-25T12:15:18.999Z</time></trkpt><trkpt lat="42.40458822221537" lon="11.16006587670083"><ele>518.0</ele><time>2026-04-25T12:15:19.999Z</time></trkpt><trkpt lat="42.40455972306443" lon="11.160195887983653"><ele>518.0</ele><time>2026-04-25T12:15:20.999Z</time></trkpt><trkpt lat="42.40450140890052" lon="11.160300788962044"><ele>516.8</ele><time>2026-04-25T12:15:21.999Z</time></trkpt><trkpt lat="42.404425983958056" lon="11.160376790937065"><ele>515.5999999999999</ele><time>2026-04-25T12:15:22.999Z</time></trkpt><trkpt lat="42.40433755847672" lon="11.160417385545943"><ele>514.4000000000001</ele><time>2026-04-25T12:15:23.999Z</time></trkpt><trkpt lat="42.40423679542357" lon="11.160432159894752"><ele>513.2</ele><time>2026-04-25T12:15:24.999Z</time></trkpt><trkpt lat="42.40412892644468" lon="11.16043131445636"><ele>512.0</ele><time>2026-04-25T12:15:25.999Z</time></trkpt><trkpt lat="42.40401192901542" lon="11.160419840049974"><ele>512.0</ele><time>2026-04-25T12:15:26.999Z</time></trkpt><trkpt lat="42.40388806048835" lon="11.160398290887398"><ele>512.0</ele><time>2026-04-25T12:15:27.999Z</time></trkpt><trkpt lat="42.40376830553355" lon="11.16039077620982"><ele>512.0</ele><time>2026-04-25T12:15:28.999Z</time></trkpt><trkpt lat="42.403648802758475" lon="11.160422341422006"><ele>512.0</ele><time>2026-04-25T12:15:29.999Z</time></trkpt><trkpt lat="42.403525334536496" lon="11.160477067247358"><ele>512.75</ele><time>2026-04-25T12:15:30.999Z</time></trkpt><trkpt lat="42.40339743550741" lon="11.160523629824745"><ele>513.5</ele><time>2026-04-25T12:15:31.999Z</time></trkpt><trkpt lat="42.40327454270761" lon="11.160488192737414"><ele>514.25</ele><time>2026-04-25T12:15:32.999Z</time></trkpt><trkpt lat="42.403149903766334" lon="11.16045771291482"><ele>515.0</ele><time>2026-04-25T12:15:33.999Z</time></trkpt><trkpt lat="42.403030476794385" lon="11.160439514443482"><ele>512.25</ele><time>2026-04-25T12:15:34.999Z</time></trkpt><trkpt lat="42.40291807021006" lon="11.160404659305717"><ele>509.5</ele><time>2026-04-25T12:15:35.999Z</time></trkpt><trkpt lat="42.40279879069005" lon="11.16037527787297"><ele>506.75</ele><time>2026-04-25T12:15:36.999Z</time></trkpt><trkpt lat="42.40269319281064" lon="11.160353374952066"><ele>504.0</ele><time>2026-04-25T12:15:37.999Z</time></trkpt><trkpt lat="42.40258643567242" lon="11.160370562428353"><ele>504.0</ele><time>2026-04-25T12:15:38.999Z</time></trkpt><trkpt lat="42.40248331191011" lon="11.160426015615899"><ele>504.0</ele><time>2026-04-25T12:15:39.999Z</time></trkpt><trkpt lat="42.40239586854878" lon="11.1605271570029"><ele>504.0</ele><time>2026-04-25T12:15:40.999Z</time></trkpt><trkpt lat="42.40232198067899" lon="11.160668272827298"><ele>504.0</ele><time>2026-04-25T12:15:41.999Z</time></trkpt><trkpt lat="42.402243855794424" lon="11.160825944344095"><ele>502.75</ele><time>2026-04-25T12:15:42.999Z</time></trkpt><trkpt lat="42.4021573488691" lon="11.16099011208462"><ele>501.5</ele><time>2026-04-25T12:15:43.999Z</time></trkpt><trkpt lat="42.40205426165392" lon="11.161143970688396"><ele>500.25</ele><time>2026-04-25T12:15:44.999Z</time></trkpt><trkpt lat="42.4019308140069" lon="11.161232815911301"><ele>499.0</ele><time>2026-04-25T12:15:45.999Z</time></trkpt><trkpt lat="42.401819524960075" lon="11.161244124302758"><ele>499.00000000000006</ele><time>2026-04-25T12:15:46.999Z</time></trkpt><trkpt lat="42.40172290125921" lon="11.161226058430273"><ele>499.0</ele><time>2026-04-25T12:15:47.999Z</time></trkpt><trkpt lat="42.401637457563595" lon="11.16121348179524"><ele>499.0</ele><time>2026-04-25T12:15:48.999Z</time></trkpt><trkpt lat="42.40154570173046" lon="11.161256947976169"><ele>499.0</ele><time>2026-04-25T12:15:50.999Z</time></trkpt><trkpt lat="42.40154286929747" lon="11.161345271819542"><ele>499.00000000000006</ele><time>2026-04-25T12:15:51.999Z</time></trkpt><trkpt lat="42.4016004662433" lon="11.161426969496373"><ele>499.0</ele><time>2026-04-25T12:15:52.999Z</time></trkpt><trkpt lat="42.40169395917508" lon="11.161472106995985"><ele>499.0</ele><time>2026-04-25T12:15:53.999Z</time></trkpt><trkpt lat="42.40180092524335" lon="11.161527034974592"><ele>499.0</ele><time>2026-04-25T12:15:54.999Z</time></trkpt><trkpt lat="42.40189915521312" lon="11.161656373250946"><ele>499.0</ele><time>2026-04-25T12:15:55.999Z</time></trkpt><trkpt lat="42.40199424325189" lon="11.161803420646411"><ele>499.0</ele><time>2026-04-25T12:15:56.999Z</time></trkpt><trkpt lat="42.40212162248126" lon="11.162174175791556"><ele>504.0</ele><time>2026-04-25T12:15:58.999Z</time></trkpt><trkpt lat="42.40219468261704" lon="11.162390529696053"><ele>509.0</ele><time>2026-04-25T12:15:59.999Z</time></trkpt><trkpt lat="42.40226108235182" lon="11.162586576744637"><ele>514.0</ele><time>2026-04-25T12:16:00.999Z</time></trkpt><trkpt lat="42.40233636786327" lon="11.162732012485733"><ele>514.0</ele><time>2026-04-25T12:16:01.999Z</time></trkpt><trkpt lat="42.40240882235584" lon="11.162832895781444"><ele>514.0</ele><time>2026-04-25T12:16:02.999Z</time></trkpt><trkpt lat="42.402448057803824" lon="11.16293365899651"><ele>514.0</ele><time>2026-04-25T12:16:03.999Z</time></trkpt><trkpt lat="42.402390873798026" lon="11.163041140212487"><ele>514.0</ele><time>2026-04-25T12:16:05.999Z</time></trkpt><trkpt lat="42.40231798649256" lon="11.16302561024212"><ele>514.0</ele><time>2026-04-25T12:16:06.999Z</time></trkpt><trkpt lat="42.40224211270149" lon="11.16296455302265"><ele>514.0</ele><time>2026-04-25T12:16:07.999Z</time></trkpt><trkpt lat="42.40218320438829" lon="11.162834138910704"><ele>518.6666666666667</ele><time>2026-04-25T12:16:08.999Z</time></trkpt><trkpt lat="42.40207163872622" lon="11.162714008680869"><ele>523.3333333333334</ele><time>2026-04-25T12:16:09.999Z</time></trkpt><trkpt lat="42.40195879942006" lon="11.162561274484194"><ele>528.0</ele><time>2026-04-25T12:16:10.999Z</time></trkpt><trkpt lat="42.40183002439155" lon="11.1624494234469"><ele>528.0</ele><time>2026-04-25T12:16:11.999Z</time></trkpt><trkpt lat="42.40169562880776" lon="11.162398097525056"><ele>528.0</ele><time>2026-04-25T12:16:12.999Z</time></trkpt><trkpt lat="42.40156262129219" lon="11.162408071528423"><ele>528.0</ele><time>2026-04-25T12:16:13.999Z</time></trkpt><trkpt lat="42.401432109587475" lon="11.162466825392974"><ele>528.0</ele><time>2026-04-25T12:16:14.999Z</time></trkpt><trkpt lat="42.40129212122942" lon="11.162568455743909"><ele>528.25</ele><time>2026-04-25T12:16:15.999Z</time></trkpt><trkpt lat="42.40112253889416" lon="11.162635518144903"><ele>528.5</ele><time>2026-04-25T12:16:16.999Z</time></trkpt><trkpt lat="42.40101308924431" lon="11.162686801412873"><ele>528.75</ele><time>2026-04-25T12:16:17.999Z</time></trkpt><trkpt lat="42.40089940499523" lon="11.1627595880188"><ele>529.0</ele><time>2026-04-25T12:16:18.999Z</time></trkpt><trkpt lat="42.40078711611766" lon="11.162891315280236"><ele>529.0</ele><time>2026-04-25T12:16:19.999Z</time></trkpt><trkpt lat="42.40064224813868" lon="11.163049166426756"><ele>529.0</ele><time>2026-04-25T12:16:20.999Z</time></trkpt><trkpt lat="42.40048822793991" lon="11.163143425318761"><ele>529.0</ele><time>2026-04-25T12:16:21.999Z</time></trkpt><trkpt lat="42.400388914797354" lon="11.163249405810872"><ele>531.6666666666667</ele><time>2026-04-25T12:16:22.999Z</time></trkpt><trkpt lat="42.4002692446515" lon="11.163324892191648"><ele>534.3333333333334</ele><time>2026-04-25T12:16:23.999Z</time></trkpt><trkpt lat="42.40011792975906" lon="11.163300332860638"><ele>537.0</ele><time>2026-04-25T12:16:24.999Z</time></trkpt><trkpt lat="42.39995452077232" lon="11.163351887901614"><ele>537.0</ele><time>2026-04-25T12:16:25.999Z</time></trkpt><trkpt lat="42.39977568916559" lon="11.163395203064448"><ele>537.0</ele><time>2026-04-25T12:16:26.999Z</time></trkpt><trkpt lat="42.39961758216376" lon="11.163391344092405"><ele>537.0</ele><time>2026-04-25T12:16:27.999Z</time></trkpt><trkpt lat="42.399495788389885" lon="11.163421303408759"><ele>537.5</ele><time>2026-04-25T12:16:28.999Z</time></trkpt><trkpt lat="42.39938013344001" lon="11.163473968716993"><ele>538.0</ele><time>2026-04-25T12:16:29.999Z</time></trkpt><trkpt lat="42.399257408962924" lon="11.163585129013862"><ele>538.5</ele><time>2026-04-25T12:16:30.999Z</time></trkpt><trkpt lat="42.399120832935154" lon="11.16367229496546"><ele>539.0</ele><time>2026-04-25T12:16:31.999Z</time></trkpt><trkpt lat="42.398973650069344" lon="11.163661086936282"><ele>540.3333333333333</ele><time>2026-04-25T12:16:32.999Z</time></trkpt><trkpt lat="42.3988148508602" lon="11.163624274400124"><ele>541.6666666666666</ele><time>2026-04-25T12:16:33.999Z</time></trkpt><trkpt lat="42.398656375187194" lon="11.1635856025368"><ele>543.0</ele><time>2026-04-25T12:16:34.999Z</time></trkpt><trkpt lat="42.39852519788432" lon="11.163570198763669"><ele>543.0</ele><time>2026-04-25T12:16:35.999Z</time></trkpt><trkpt lat="42.398421376372205" lon="11.16358797979981"><ele>543.0</ele><time>2026-04-25T12:16:36.999Z</time></trkpt><trkpt lat="42.39828695987349" lon="11.163641099635827"><ele>543.0</ele><time>2026-04-25T12:16:37.999Z</time></trkpt><trkpt lat="42.39812949793478" lon="11.163735523721812"><ele>543.0</ele><time>2026-04-25T12:16:38.999Z</time></trkpt><trkpt lat="42.39797740278155" lon="11.163828245306284"><ele>544.0</ele><time>2026-04-25T12:16:39.999Z</time></trkpt><trkpt lat="42.39786428295489" lon="11.1638607039183"><ele>545.0</ele><time>2026-04-25T12:16:40.999Z</time></trkpt><trkpt lat="42.3977833357579" lon="11.163900276577566"><ele>546.0</ele><time>2026-04-25T12:16:41.999Z</time></trkpt><trkpt lat="42.39770011063542" lon="11.16383132652629"><ele>547.0</ele><time>2026-04-25T12:16:42.999Z</time></trkpt><trkpt lat="42.397618600717024" lon="11.163711712365968"><ele>548.0</ele><time>2026-04-25T12:16:43.999Z</time></trkpt><trkpt lat="42.397500968871924" lon="11.163589229549723"><ele>548.0</ele><time>2026-04-25T12:16:44.999Z</time></trkpt><trkpt lat="42.39736654936267" lon="11.163459983180493"><ele>548.0</ele><time>2026-04-25T12:16:45.999Z</time></trkpt><trkpt lat="42.39721145155514" lon="11.163301031395859"><ele>548.0</ele><time>2026-04-25T12:16:46.999Z</time></trkpt><trkpt lat="42.39703755598465" lon="11.163118412734978"><ele>545.75</ele><time>2026-04-25T12:16:47.999Z</time></trkpt><trkpt lat="42.39692572103366" lon="11.163017336249766"><ele>543.5</ele><time>2026-04-25T12:16:48.999Z</time></trkpt><trkpt lat="42.396797536929874" lon="11.162915944251214"><ele>541.25</ele><time>2026-04-25T12:16:49.999Z</time></trkpt><trkpt lat="42.39669878738922" lon="11.162858302468399"><ele>539.0</ele><time>2026-04-25T12:16:50.999Z</time></trkpt><trkpt lat="42.39659519629248" lon="11.162861760417103"><ele>539.0</ele><time>2026-04-25T12:16:51.999Z</time></trkpt><trkpt lat="42.39649297869047" lon="11.162946311439885"><ele>539.0</ele><time>2026-04-25T12:16:52.999Z</time></trkpt><trkpt lat="42.39637253164331" lon="11.163029007419274"><ele>539.0</ele><time>2026-04-25T12:16:53.999Z</time></trkpt><trkpt lat="42.39624148416822" lon="11.163140071996803"><ele>539.0</ele><time>2026-04-25T12:16:54.999Z</time></trkpt><trkpt lat="42.396090687147165" lon="11.163245072873217"><ele>544.0</ele><time>2026-04-25T12:16:55.999Z</time></trkpt><trkpt lat="42.39593265255577" lon="11.163357861293962"><ele>549.0</ele><time>2026-04-25T12:16:56.999Z</time></trkpt><trkpt lat="42.39577527943198" lon="11.163473022488686"><ele>554.0</ele><time>2026-04-25T12:16:57.999Z</time></trkpt><trkpt lat="42.39563791938828" lon="11.16357187400632"><ele>552.6666666666666</ele><time>2026-04-25T12:16:58.999Z</time></trkpt><trkpt lat="42.395491479433716" lon="11.16359625710011"><ele>551.3333333333334</ele><time>2026-04-25T12:16:59.999Z</time></trkpt><trkpt lat="42.39533533963455" lon="11.163583972354274"><ele>550.0</ele><time>2026-04-25T12:17:00.999Z</time></trkpt><trkpt lat="42.395166076654476" lon="11.16352955850081"><ele>550.0</ele><time>2026-04-25T12:17:01.999Z</time></trkpt><trkpt lat="42.39497224575946" lon="11.163462591051674"><ele>550.0</ele><time>2026-04-25T12:17:02.999Z</time></trkpt><trkpt lat="42.394756122955364" lon="11.16339429048716"><ele>550.0</ele><time>2026-04-25T12:17:03.999Z</time></trkpt><trkpt lat="42.39455066791013" lon="11.163381528005443"><ele>551.6666666666667</ele><time>2026-04-25T12:17:04.999Z</time></trkpt><trkpt lat="42.3943645939732" lon="11.16337003468456"><ele>553.3333333333334</ele><time>2026-04-25T12:17:05.999Z</time></trkpt><trkpt lat="42.39419197436634" lon="11.163367732085732"><ele>555.0</ele><time>2026-04-25T12:17:06.999Z</time></trkpt><trkpt lat="42.39404805019336" lon="11.163363284758443"><ele>555.0</ele><time>2026-04-25T12:17:07.999Z</time></trkpt><trkpt lat="42.393918021028654" lon="11.163349128555183"><ele>555.0</ele><time>2026-04-25T12:17:08.999Z</time></trkpt><trkpt lat="42.39380057838369" lon="11.163337777192867"><ele>555.0</ele><time>2026-04-25T12:17:09.999Z</time></trkpt><trkpt lat="42.39369055314032" lon="11.163358941322945"><ele>555.0</ele><time>2026-04-25T12:17:10.999Z</time></trkpt><trkpt lat="42.393590986224666" lon="11.163432205258555"><ele>554.6666666666666</ele><time>2026-04-25T12:17:11.999Z</time></trkpt><trkpt lat="42.39353145512541" lon="11.163516445249568"><ele>554.3333333333334</ele><time>2026-04-25T12:17:12.999Z</time></trkpt><trkpt lat="42.393469235759085" lon="11.163596112184214"><ele>554.0</ele><time>2026-04-25T12:17:14.999Z</time></trkpt><trkpt lat="42.393421876496504" lon="11.163675853085955"><ele>553.6666666666667</ele><time>2026-04-25T12:17:17.999Z</time></trkpt><trkpt lat="42.39335629150399" lon="11.163588253201766"><ele>553.3333333333334</ele><time>2026-04-25T12:18:13Z</time></trkpt><trkpt lat="42.393422837058786" lon="11.163617605319116"><ele>553.0</ele><time>2026-04-25T12:42:12.999Z</time></trkpt><trkpt lat="42.39340906330169" lon="11.163720087640577"><ele>553.0</ele><time>2026-04-25T12:42:17.999Z</time></trkpt><trkpt lat="42.39334112663649" lon="11.163850590387224"><ele>553.0</ele><time>2026-04-25T12:42:20.999Z</time></trkpt><trkpt lat="42.393292926234054" lon="11.163906130855743"><ele>553.0</ele><time>2026-04-25T12:42:21.999Z</time></trkpt><trkpt lat="42.39324163370114" lon="11.16397776359165"><ele>553.0</ele><time>2026-04-25T12:42:22.999Z</time></trkpt><trkpt lat="42.39316838253936" lon="11.164041255311549"><ele>553.0</ele><time>2026-04-25T12:42:23.999Z</time></trkpt><trkpt lat="42.39310029015186" lon="11.16413226990175"><ele>553.0</ele><time>2026-04-25T12:42:25Z</time></trkpt><trkpt lat="42.39303904577941" lon="11.164241392168675"><ele>552.5</ele><time>2026-04-25T12:42:26Z</time></trkpt><trkpt lat="42.39295802527692" lon="11.164340347944126"><ele>552.0</ele><time>2026-04-25T12:42:27Z</time></trkpt><trkpt lat="42.39287476781199" lon="11.164453659887364"><ele>551.5</ele><time>2026-04-25T12:42:28Z</time></trkpt><trkpt lat="42.392793985666415" lon="11.16457969210119"><ele>551.0</ele><time>2026-04-25T12:42:29Z</time></trkpt><trkpt lat="42.39272294598337" lon="11.164674830617686"><ele>551.0</ele><time>2026-04-25T12:42:30Z</time></trkpt><trkpt lat="42.39266286074102" lon="11.16474814437104"><ele>551.0</ele><time>2026-04-25T12:42:31Z</time></trkpt><trkpt lat="42.39261744671289" lon="11.16480730976945"><ele>551.0</ele><time>2026-04-25T12:42:32Z</time></trkpt><trkpt lat="42.39257215642708" lon="11.164870054397802"><ele>551.0</ele><time>2026-04-25T12:42:33Z</time></trkpt><trkpt lat="42.39249857503966" lon="11.16497959037048"><ele>551.0</ele><time>2026-04-25T12:42:35Z</time></trkpt><trkpt lat="42.39244719373147" lon="11.16508561488177"><ele>551.0</ele><time>2026-04-25T12:42:37Z</time></trkpt><trkpt lat="42.39240687041827" lon="11.165180992336149"><ele>553.2</ele><time>2026-04-25T12:42:39Z</time></trkpt><trkpt lat="42.39238273190449" lon="11.165294726810487"><ele>555.4000000000001</ele><time>2026-04-25T12:42:42Z</time></trkpt><trkpt lat="42.39237273245365" lon="11.165448789232682"><ele>557.6</ele><time>2026-04-25T12:42:44Z</time></trkpt><trkpt lat="42.39236132220944" lon="11.165554293216022"><ele>559.8000000000001</ele><time>2026-04-25T12:42:45Z</time></trkpt><trkpt lat="42.392335714086045" lon="11.165671060981724"><ele>562.0</ele><time>2026-04-25T12:42:46Z</time></trkpt><trkpt lat="42.39233011717512" lon="11.165806450803993"><ele>562.0</ele><time>2026-04-25T12:42:47Z</time></trkpt><trkpt lat="42.392333697349464" lon="11.165930207436759"><ele>562.0</ele><time>2026-04-25T12:42:48Z</time></trkpt><trkpt lat="42.39236529070067" lon="11.16606695066893"><ele>562.0</ele><time>2026-04-25T12:42:49Z</time></trkpt><trkpt lat="42.392420574789156" lon="11.166167008966056"><ele>562.0</ele><time>2026-04-25T12:42:50Z</time></trkpt><trkpt lat="42.39244948136652" lon="11.166264190209217"><ele>562.0</ele><time>2026-04-25T12:42:51Z</time></trkpt><trkpt lat="42.39246960756392" lon="11.166433108555962"><ele>562.0</ele><time>2026-04-25T12:42:53Z</time></trkpt><trkpt lat="42.392393662697586" lon="11.166501495311747"><ele>562.0</ele><time>2026-04-25T12:42:54Z</time></trkpt><trkpt lat="42.392322411388506" lon="11.16660023800982"><ele>562.0</ele><time>2026-04-25T12:42:55Z</time></trkpt><trkpt lat="42.39222181585419" lon="11.166685658127411"><ele>562.0</ele><time>2026-04-25T12:42:56Z</time></trkpt><trkpt lat="42.39211321567939" lon="11.16679487825937"><ele>562.0</ele><time>2026-04-25T12:42:57Z</time></trkpt><trkpt lat="42.391998157258705" lon="11.166903349154419"><ele>556.0</ele><time>2026-04-25T12:42:58Z</time></trkpt><trkpt lat="42.39188085722968" lon="11.167046535337736"><ele>550.0</ele><time>2026-04-25T12:42:59Z</time></trkpt><trkpt lat="42.3917524863094" lon="11.167193998855542"><ele>544.0</ele><time>2026-04-25T12:43:00Z</time></trkpt><trkpt lat="42.39161733879933" lon="11.167316664641094"><ele>545.0</ele><time>2026-04-25T12:43:01Z</time></trkpt><trkpt lat="42.391482166830436" lon="11.167439333542692"><ele>546.0</ele><time>2026-04-25T12:43:02Z</time></trkpt><trkpt lat="42.39134120146012" lon="11.167548110563011"><ele>547.0</ele><time>2026-04-25T12:43:03Z</time></trkpt><trkpt lat="42.39119410883733" lon="11.167654772413874"><ele>545.0</ele><time>2026-04-25T12:43:04Z</time></trkpt><trkpt lat="42.39102937082335" lon="11.167741229512957"><ele>543.0</ele><time>2026-04-25T12:43:05Z</time></trkpt><trkpt lat="42.390855383655726" lon="11.167830807313019"><ele>541.0</ele><time>2026-04-25T12:43:06Z</time></trkpt><trkpt lat="42.3906867098679" lon="11.167945957134263"><ele>541.0</ele><time>2026-04-25T12:43:07Z</time></trkpt><trkpt lat="42.39051071592007" lon="11.168033721720153"><ele>541.0</ele><time>2026-04-25T12:43:08Z</time></trkpt><trkpt lat="42.39034249710888" lon="11.168121445401024"><ele>541.0</ele><time>2026-04-25T12:43:09Z</time></trkpt><trkpt lat="42.390179710898686" lon="11.168200873539835"><ele>544.25</ele><time>2026-04-25T12:43:10Z</time></trkpt><trkpt lat="42.39003889378472" lon="11.168273302992013"><ele>547.5</ele><time>2026-04-25T12:43:11Z</time></trkpt><trkpt lat="42.389921156412" lon="11.168336929328003"><ele>550.75</ele><time>2026-04-25T12:43:12Z</time></trkpt><trkpt lat="42.38981971357225" lon="11.168359834028156"><ele>554.0</ele><time>2026-04-25T12:43:13Z</time></trkpt><trkpt lat="42.38974074984987" lon="11.168369731310708"><ele>554.4</ele><time>2026-04-25T12:43:14Z</time></trkpt><trkpt lat="42.38966302266783" lon="11.16833094047111"><ele>554.8</ele><time>2026-04-25T12:43:15Z</time></trkpt><trkpt lat="42.38958676279087" lon="11.168251083327018"><ele>555.2</ele><time>2026-04-25T12:43:16Z</time></trkpt><trkpt lat="42.38949233099352" lon="11.168171563772063"><ele>555.6</ele><time>2026-04-25T12:43:17Z</time></trkpt><trkpt lat="42.3893770854282" lon="11.168099551247165"><ele>556.0</ele><time>2026-04-25T12:43:18Z</time></trkpt><trkpt lat="42.38926941919555" lon="11.168042084719008"><ele>556.0</ele><time>2026-04-25T12:43:19Z</time></trkpt><trkpt lat="42.38918591929004" lon="11.167943268801867"><ele>556.0</ele><time>2026-04-25T12:43:20Z</time></trkpt><trkpt lat="42.389089534449816" lon="11.16787460852912"><ele>556.0</ele><time>2026-04-25T12:43:21Z</time></trkpt><trkpt lat="42.38897961924125" lon="11.167837038785088"><ele>556.0</ele><time>2026-04-25T12:43:22Z</time></trkpt><trkpt lat="42.38888642850486" lon="11.167820603901479"><ele>556.0</ele><time>2026-04-25T12:43:23Z</time></trkpt><trkpt lat="42.38879176660898" lon="11.167821241706594"><ele>558.6</ele><time>2026-04-25T12:43:24Z</time></trkpt><trkpt lat="42.388708522419485" lon="11.167779249998238"><ele>561.2</ele><time>2026-04-25T12:43:25Z</time></trkpt><trkpt lat="42.38871486461761" lon="11.167693376544875"><ele>563.8</ele><time>2026-04-25T12:43:26Z</time></trkpt><trkpt lat="42.38872775844387" lon="11.167541133582475"><ele>566.4</ele><time>2026-04-25T12:43:28Z</time></trkpt><trkpt lat="42.38873022871208" lon="11.167433202160364"><ele>569.0</ele><time>2026-04-25T12:43:29Z</time></trkpt><trkpt lat="42.38868957603038" lon="11.16727721261598"><ele>569.0</ele><time>2026-04-25T12:43:31Z</time></trkpt><trkpt lat="42.38858449692265" lon="11.167287333406705"><ele>569.0</ele><time>2026-04-25T12:43:32Z</time></trkpt><trkpt lat="42.388546525116745" lon="11.167416968107897"><ele>569.0</ele><time>2026-04-25T12:43:33Z</time></trkpt><trkpt lat="42.38852935399343" lon="11.167534510692958"><ele>569.0</ele><time>2026-04-25T12:43:34Z</time></trkpt><trkpt lat="42.388494203843216" lon="11.167647055016923"><ele>569.0</ele><time>2026-04-25T12:43:35Z</time></trkpt><trkpt lat="42.38841144406144" lon="11.167706769336473"><ele>571.0</ele><time>2026-04-25T12:43:36Z</time></trkpt><trkpt lat="42.388368055602115" lon="11.16781450838581"><ele>573.0</ele><time>2026-04-25T12:43:37Z</time></trkpt><trkpt lat="42.38830705369156" lon="11.16794672788666"><ele>575.0</ele><time>2026-04-25T12:43:38.999Z</time></trkpt><trkpt lat="42.38830496175794" lon="11.168069272784221"><ele>577.0</ele><time>2026-04-25T12:43:39.999Z</time></trkpt><trkpt lat="42.388350069027055" lon="11.168184348424779"><ele>579.0</ele><time>2026-04-25T12:43:40.999Z</time></trkpt><trkpt lat="42.38839620453213" lon="11.168283659316298"><ele>580.5</ele><time>2026-04-25T12:43:41.999Z</time></trkpt><trkpt lat="42.38847128125198" lon="11.168412315202628"><ele>582.0</ele><time>2026-04-25T12:43:42.999Z</time></trkpt><trkpt lat="42.388541302940915" lon="11.168558523028588"><ele>583.5</ele><time>2026-04-25T12:43:43.999Z</time></trkpt><trkpt lat="42.38860654926815" lon="11.168702262949685"><ele>585.0</ele><time>2026-04-25T12:43:44.999Z</time></trkpt><trkpt lat="42.388667799456655" lon="11.168844203653444"><ele>585.0</ele><time>2026-04-25T12:43:45.999Z</time></trkpt><trkpt lat="42.388699134462335" lon="11.168964655078241"><ele>585.0</ele><time>2026-04-25T12:43:46.999Z</time></trkpt><trkpt lat="42.38870362859848" lon="11.16906427638602"><ele>585.0</ele><time>2026-04-25T12:43:47.999Z</time></trkpt><trkpt lat="42.388662749019865" lon="11.169229812671741"><ele>585.0</ele><time>2026-04-25T12:43:49.999Z</time></trkpt><trkpt lat="42.38859758692435" lon="11.169272794659062"><ele>585.0</ele><time>2026-04-25T12:43:50.999Z</time></trkpt><trkpt lat="42.388523347294985" lon="11.169289856619944"><ele>585.0</ele><time>2026-04-25T12:44:02.999Z</time></trkpt><trkpt lat="42.38848591338985" lon="11.169363140193383"><ele>585.4</ele><time>2026-04-25T12:44:04.999Z</time></trkpt><trkpt lat="42.388410816257505" lon="11.169293572694263"><ele>585.8</ele><time>2026-04-25T12:44:06.999Z</time></trkpt><trkpt lat="42.388344124918476" lon="11.169314487553748"><ele>586.2</ele><time>2026-04-25T12:44:07.999Z</time></trkpt><trkpt lat="42.388276277094086" lon="11.16933576512126"><ele>586.6</ele><time>2026-04-25T12:44:08.999Z</time></trkpt><trkpt lat="42.3883774363606" lon="11.169127835912162"><ele>587.0</ele><time>2026-04-25T12:44:09.999Z</time></trkpt><trkpt lat="42.38801814904623" lon="11.169733816513927"><ele>587.4</ele><time>2026-04-25T12:44:12.999Z</time></trkpt><trkpt lat="42.3879918841119" lon="11.169851458556813"><ele>587.8000000000001</ele><time>2026-04-25T12:44:13.999Z</time></trkpt><trkpt lat="42.38796970069263" lon="11.16997558248077"><ele>588.2</ele><time>2026-04-25T12:44:14.999Z</time></trkpt><trkpt lat="42.387821144152895" lon="11.169936283566654"><ele>588.6</ele><time>2026-04-25T12:44:15.999Z</time></trkpt><trkpt lat="42.38774823873681" lon="11.170016284067833"><ele>589.0</ele><time>2026-04-25T12:44:16.999Z</time></trkpt><trkpt lat="42.38766434556327" lon="11.17010907617358"><ele>589.0</ele><time>2026-04-25T12:44:17.999Z</time></trkpt><trkpt lat="42.387583316354224" lon="11.170196174397848"><ele>589.0</ele><time>2026-04-25T12:44:18.999Z</time></trkpt><trkpt lat="42.38751117924431" lon="11.170293120553787"><ele>589.0</ele><time>2026-04-25T12:44:19.999Z</time></trkpt><trkpt lat="42.387442201720205" lon="11.170380090665954"><ele>589.0</ele><time>2026-04-25T12:44:20.999Z</time></trkpt><trkpt lat="42.38738229017002" lon="11.170465753665901"><ele>589.0</ele><time>2026-04-25T12:44:21.999Z</time></trkpt><trkpt lat="42.38732231543122" lon="11.170540680645749"><ele>589.0</ele><time>2026-04-25T12:44:22.999Z</time></trkpt><trkpt lat="42.387273424675975" lon="11.170609725239785"><ele>589.0</ele><time>2026-04-25T12:44:23.999Z</time></trkpt><trkpt lat="42.387227070169985" lon="11.170684949274744"><ele>589.0</ele><time>2026-04-25T12:44:24.999Z</time></trkpt><trkpt lat="42.38718368125033" lon="11.17074737216792"><ele>589.0</ele><time>2026-04-25T12:44:25.999Z</time></trkpt><trkpt lat="42.38710389877057" lon="11.170860310161471"><ele>589.0</ele><time>2026-04-25T12:44:27.999Z</time></trkpt><trkpt lat="42.38700319223882" lon="11.17093978619056"><ele>589.0</ele><time>2026-04-25T12:44:30Z</time></trkpt><trkpt lat="42.38690220452782" lon="11.171042938758369"><ele>585.8333333333334</ele><time>2026-04-25T12:44:32Z</time></trkpt><trkpt lat="42.38683073587333" lon="11.171084495231641"><ele>582.6666666666667</ele><time>2026-04-25T12:44:33Z</time></trkpt><trkpt lat="42.38676382969976" lon="11.171120885744243"><ele>579.5</ele><time>2026-04-25T12:44:34Z</time></trkpt><trkpt lat="42.38668425934436" lon="11.17116254468419"><ele>576.3333333333334</ele><time>2026-04-25T12:44:35Z</time></trkpt><trkpt lat="42.38660070333382" lon="11.171203457465637"><ele>573.1666666666666</ele><time>2026-04-25T12:44:36Z</time></trkpt><trkpt lat="42.38653188560385" lon="11.171226868682405"><ele>570.0</ele><time>2026-04-25T12:44:37Z</time></trkpt><trkpt lat="42.38645735644542" lon="11.171323171051771"><ele>570.0</ele><time>2026-04-25T12:44:39Z</time></trkpt><trkpt lat="42.38641281892744" lon="11.171391847095876"><ele>570.0</ele><time>2026-04-25T12:44:40Z</time></trkpt><trkpt lat="42.38635111785625" lon="11.171455122421145"><ele>570.0</ele><time>2026-04-25T12:44:41Z</time></trkpt><trkpt lat="42.38629045504626" lon="11.171528327700134"><ele>570.0</ele><time>2026-04-25T12:44:42Z</time></trkpt><trkpt lat="42.3861962869819" lon="11.171586266695458"><ele>570.0</ele><time>2026-04-25T12:44:44Z</time></trkpt><trkpt lat="42.38612292506347" lon="11.171676756378982"><ele>570.0</ele><time>2026-04-25T12:44:46Z</time></trkpt><trkpt lat="42.38607019716207" lon="11.171764230853174"><ele>566.3333333333334</ele><time>2026-04-25T12:44:48Z</time></trkpt><trkpt lat="42.386031577051526" lon="11.171861644568692"><ele>562.6666666666666</ele><time>2026-04-25T12:44:50Z</time></trkpt><trkpt lat="42.38603429184703" lon="11.17195617902446"><ele>559.0</ele><time>2026-04-25T12:44:52Z</time></trkpt><trkpt lat="42.38609630206843" lon="11.171979584860477"><ele>555.3333333333333</ele><time>2026-04-25T12:44:57Z</time></trkpt><trkpt lat="42.38617431784354" lon="11.171970811842398"><ele>551.6666666666666</ele><time>2026-04-25T12:45:27.999Z</time></trkpt><trkpt lat="42.386290871959204" lon="11.17199241614096"><ele>548.0</ele><time>2026-04-25T12:45:29.999Z</time></trkpt><trkpt lat="42.38637889713459" lon="11.172008139946202"><ele>546.1999999999999</ele><time>2026-04-25T12:45:31.999Z</time></trkpt><trkpt lat="42.386481960505776" lon="11.172015007002019"><ele>544.4</ele><time>2026-04-25T12:45:33.999Z</time></trkpt><trkpt lat="42.38659963028307" lon="11.172026662524894"><ele>542.5999999999999</ele><time>2026-04-25T12:45:35.999Z</time></trkpt><trkpt lat="42.3866838440581" lon="11.172050715164504"><ele>540.8</ele><time>2026-04-25T12:45:36.999Z</time></trkpt><trkpt lat="42.38675319255856" lon="11.17203790775195"><ele>539.0</ele><time>2026-04-25T12:45:37.999Z</time></trkpt><trkpt lat="42.38682555078355" lon="11.17202138683508"><ele>539.0</ele><time>2026-04-25T12:45:38.999Z</time></trkpt><trkpt lat="42.386899554781905" lon="11.172012613408596"><ele>539.0</ele><time>2026-04-25T12:45:39.999Z</time></trkpt><trkpt lat="42.386987731219165" lon="11.17201515720616"><ele>539.0</ele><time>2026-04-25T12:45:40.999Z</time></trkpt><trkpt lat="42.38707800114902" lon="11.172030125346536"><ele>539.0</ele><time>2026-04-25T12:45:41.999Z</time></trkpt><trkpt lat="42.38716594532552" lon="11.172046685178925"><ele>539.0</ele><time>2026-04-25T12:45:42.999Z</time></trkpt><trkpt lat="42.38725073278064" lon="11.172042782275982"><ele>539.0</ele><time>2026-04-25T12:45:43.999Z</time></trkpt><trkpt lat="42.387338719144964" lon="11.172034572002625"><ele>536.3333333333333</ele><time>2026-04-25T12:45:44.999Z</time></trkpt><trkpt lat="42.38742467933141" lon="11.172033331499298"><ele>533.6666666666666</ele><time>2026-04-25T12:45:45.999Z</time></trkpt><trkpt lat="42.38751184303108" lon="11.17202968744058"><ele>531.0</ele><time>2026-04-25T12:45:46.999Z</time></trkpt><trkpt lat="42.387588337434735" lon="11.172021805931841"><ele>528.3333333333334</ele><time>2026-04-25T12:45:47.999Z</time></trkpt><trkpt lat="42.387654626573884" lon="11.172001634756436"><ele>525.6666666666667</ele><time>2026-04-25T12:45:48.999Z</time></trkpt><trkpt lat="42.387732973580476" lon="11.171981776311197"><ele>523.0</ele><time>2026-04-25T12:45:49.999Z</time></trkpt><trkpt lat="42.38780126537635" lon="11.171953702512178"><ele>523.0</ele><time>2026-04-25T12:45:50.999Z</time></trkpt><trkpt lat="42.387862220369904" lon="11.171925403566375"><ele>523.0</ele><time>2026-04-25T12:45:51.999Z</time></trkpt><trkpt lat="42.38802643356311" lon="11.171901191977305"><ele>523.0</ele><time>2026-04-25T12:45:52.999Z</time></trkpt><trkpt lat="42.388129568223185" lon="11.171852996732433"><ele>523.0</ele><time>2026-04-25T12:45:53.999Z</time></trkpt><trkpt lat="42.38821293960402" lon="11.17181631222367"><ele>523.0</ele><time>2026-04-25T12:45:54.999Z</time></trkpt><trkpt lat="42.38829679630966" lon="11.171781443343557"><ele>519.1666666666667</ele><time>2026-04-25T12:45:55.999Z</time></trkpt><trkpt lat="42.388392487625026" lon="11.171746599442914"><ele>515.3333333333334</ele><time>2026-04-25T12:45:56.999Z</time></trkpt><trkpt lat="42.388483328642884" lon="11.171730750525978"><ele>511.5</ele><time>2026-04-25T12:45:57.999Z</time></trkpt><trkpt lat="42.38857124236474" lon="11.171711556969983"><ele>507.66666666666663</ele><time>2026-04-25T12:45:58.999Z</time></trkpt><trkpt lat="42.38865810102268" lon="11.171692302916775"><ele>503.8333333333333</ele><time>2026-04-25T12:45:59.999Z</time></trkpt><trkpt lat="42.38873079332418" lon="11.171666455999"><ele>500.0</ele><time>2026-04-25T12:46:00.999Z</time></trkpt><trkpt lat="42.38881147270163" lon="11.171639189998793"><ele>496.8333333333333</ele><time>2026-04-25T12:46:01.999Z</time></trkpt><trkpt lat="42.38888155926615" lon="11.17161318372783"><ele>493.66666666666663</ele><time>2026-04-25T12:46:02.999Z</time></trkpt><trkpt lat="42.38900520044067" lon="11.171584180425889"><ele>490.5</ele><time>2026-04-25T12:46:04.999Z</time></trkpt><trkpt lat="42.38907738734849" lon="11.171577696984132"><ele>487.33333333333337</ele><time>2026-04-25T12:46:05.999Z</time></trkpt><trkpt lat="42.38916051313704" lon="11.171595641084714"><ele>484.1666666666667</ele><time>2026-04-25T12:46:06.999Z</time></trkpt><trkpt lat="42.38924094936301" lon="11.171616729832127"><ele>481.0</ele><time>2026-04-25T12:46:07.999Z</time></trkpt><trkpt lat="42.389327518947155" lon="11.171604016908214"><ele>481.0</ele><time>2026-04-25T12:46:08.999Z</time></trkpt><trkpt lat="42.38939378632026" lon="11.171578857095168"><ele>481.0</ele><time>2026-04-25T12:46:09.999Z</time></trkpt><trkpt lat="42.38948199955846" lon="11.171540185123693"><ele>481.0</ele><time>2026-04-25T12:46:10.999Z</time></trkpt><trkpt lat="42.38958436295908" lon="11.171499226878202"><ele>481.0</ele><time>2026-04-25T12:46:11.999Z</time></trkpt><trkpt lat="42.38968608889923" lon="11.171455815652998"><ele>481.0</ele><time>2026-04-25T12:46:12.999Z</time></trkpt><trkpt lat="42.389765421361965" lon="11.171408989837628"><ele>482.1666666666667</ele><time>2026-04-25T12:46:13.999Z</time></trkpt><trkpt lat="42.3898311854307" lon="11.171359568523359"><ele>483.33333333333337</ele><time>2026-04-25T12:46:14.999Z</time></trkpt><trkpt lat="42.389902985584875" lon="11.171328280255105"><ele>484.5</ele><time>2026-04-25T12:46:15.999Z</time></trkpt><trkpt lat="42.389968399649554" lon="11.17131360993482"><ele>485.66666666666663</ele><time>2026-04-25T12:46:16.999Z</time></trkpt><trkpt lat="42.390057802816806" lon="11.17125112963393"><ele>486.8333333333333</ele><time>2026-04-25T12:46:24.999Z</time></trkpt><trkpt lat="42.39011379492829" lon="11.171191959504677"><ele>488.0</ele><time>2026-04-25T12:46:25.999Z</time></trkpt><trkpt lat="42.3901871939999" lon="11.171137213135525"><ele>488.0</ele><time>2026-04-25T12:46:26.999Z</time></trkpt><trkpt lat="42.3902658760837" lon="11.17108426665595"><ele>487.99999999999994</ele><time>2026-04-25T12:46:27.999Z</time></trkpt><trkpt lat="42.39036397322966" lon="11.171036803794529"><ele>487.99999999999994</ele><time>2026-04-25T12:46:28.999Z</time></trkpt><trkpt lat="42.39047460476047" lon="11.170998442209035"><ele>488.0</ele><time>2026-04-25T12:46:29.999Z</time></trkpt><trkpt lat="42.39056142923604" lon="11.170981150651544"><ele>488.0</ele><time>2026-04-25T12:46:30.999Z</time></trkpt><trkpt lat="42.39064538462407" lon="11.170967210805928"><ele>485.99999999999994</ele><time>2026-04-25T12:46:31.999Z</time></trkpt><trkpt lat="42.390731102520945" lon="11.170968350638635"><ele>484.0</ele><time>2026-04-25T12:46:32.999Z</time></trkpt><trkpt lat="42.39080927950841" lon="11.170974570942601"><ele>482.0</ele><time>2026-04-25T12:46:33.999Z</time></trkpt><trkpt lat="42.39088628240284" lon="11.170960909753427"><ele>480.0</ele><time>2026-04-25T12:46:34.999Z</time></trkpt><trkpt lat="42.39097860106865" lon="11.17091049955757"><ele>477.99999999999994</ele><time>2026-04-25T12:46:35.999Z</time></trkpt><trkpt lat="42.39107235372995" lon="11.17084070669016"><ele>476.0</ele><time>2026-04-25T12:46:36.999Z</time></trkpt><trkpt lat="42.39116983892944" lon="11.170770469497853"><ele>476.0</ele><time>2026-04-25T12:46:37.999Z</time></trkpt><trkpt lat="42.39126342159558" lon="11.170694655021407"><ele>476.0</ele><time>2026-04-25T12:46:38.999Z</time></trkpt><trkpt lat="42.39135612580801" lon="11.170630626643371"><ele>476.0</ele><time>2026-04-25T12:46:39.999Z</time></trkpt><trkpt lat="42.39144661115605" lon="11.1705653572015"><ele>476.0</ele><time>2026-04-25T12:46:40.999Z</time></trkpt><trkpt lat="42.39153492725596" lon="11.170513588930906"><ele>476.0</ele><time>2026-04-25T12:46:41.999Z</time></trkpt><trkpt lat="42.391639108632695" lon="11.170493341888454"><ele>477.0</ele><time>2026-04-25T12:46:42.999Z</time></trkpt><trkpt lat="42.391749848046864" lon="11.170500517612295"><ele>478.0</ele><time>2026-04-25T12:46:43.999Z</time></trkpt><trkpt lat="42.39185877804515" lon="11.170524732264907"><ele>479.0</ele><time>2026-04-25T12:46:44.999Z</time></trkpt><trkpt lat="42.39196600253454" lon="11.170576365648888"><ele>480.0</ele><time>2026-04-25T12:46:45.999Z</time></trkpt><trkpt lat="42.39207012255767" lon="11.170630847636861"><ele>481.0</ele><time>2026-04-25T12:46:46.999Z</time></trkpt><trkpt lat="42.39217175213021" lon="11.17064757170441"><ele>479.20000000000005</ele><time>2026-04-25T12:46:47.999Z</time></trkpt><trkpt lat="42.39225773276532" lon="11.170649032253518"><ele>477.40000000000003</ele><time>2026-04-25T12:46:48.999Z</time></trkpt><trkpt lat="42.392347254915954" lon="11.170647097513521"><ele>475.6</ele><time>2026-04-25T12:46:49.999Z</time></trkpt><trkpt lat="42.39242811374909" lon="11.170660427976951"><ele>473.8</ele><time>2026-04-25T12:46:50.999Z</time></trkpt><trkpt lat="42.39255860919403" lon="11.170614556073279"><ele>472.0</ele><time>2026-04-25T12:46:52.999Z</time></trkpt><trkpt lat="42.39264566654356" lon="11.170624588535516"><ele>472.0</ele><time>2026-04-25T12:46:53.999Z</time></trkpt><trkpt lat="42.39275640634614" lon="11.170629621625515"><ele>472.00000000000006</ele><time>2026-04-25T12:46:54.999Z</time></trkpt><trkpt lat="42.392851897139785" lon="11.170601719034178"><ele>472.00000000000006</ele><time>2026-04-25T12:46:55.999Z</time></trkpt><trkpt lat="42.39295118641357" lon="11.170564283327444"><ele>472.0</ele><time>2026-04-25T12:46:56.999Z</time></trkpt><trkpt lat="42.393062389680175" lon="11.170555791431283"><ele>472.0</ele><time>2026-04-25T12:46:57.999Z</time></trkpt><trkpt lat="42.39315087004808" lon="11.170539000307997"><ele>471.6</ele><time>2026-04-25T12:46:58.999Z</time></trkpt><trkpt lat="42.39322827031338" lon="11.170493370027796"><ele>471.20000000000005</ele><time>2026-04-25T12:46:59.999Z</time></trkpt><trkpt lat="42.393317210451656" lon="11.17043402611524"><ele>470.8</ele><time>2026-04-25T12:47:00.999Z</time></trkpt><trkpt lat="42.393398510651686" lon="11.170365835701242"><ele>470.4</ele><time>2026-04-25T12:47:01.999Z</time></trkpt><trkpt lat="42.393477759977614" lon="11.170300139346676"><ele>470.0</ele><time>2026-04-25T12:47:02.999Z</time></trkpt><trkpt lat="42.39356227913899" lon="11.170248841518001"><ele>470.0</ele><time>2026-04-25T12:47:03.999Z</time></trkpt><trkpt lat="42.39366092299734" lon="11.170201933003261"><ele>470.0</ele><time>2026-04-25T12:47:04.999Z</time></trkpt><trkpt lat="42.39373561830223" lon="11.170133312046808"><ele>470.0</ele><time>2026-04-25T12:47:05.999Z</time></trkpt><trkpt lat="42.39382222804924" lon="11.170081103406272"><ele>470.0</ele><time>2026-04-25T12:47:06.999Z</time></trkpt><trkpt lat="42.39394425384801" lon="11.170050451777325"><ele>470.0</ele><time>2026-04-25T12:47:07.999Z</time></trkpt><trkpt lat="42.3940550044403" lon="11.170051246492955"><ele>467.8</ele><time>2026-04-25T12:47:08.999Z</time></trkpt><trkpt lat="42.39416767720431" lon="11.170062676586209"><ele>465.6</ele><time>2026-04-25T12:47:09.999Z</time></trkpt><trkpt lat="42.394257619061726" lon="11.170061471114662"><ele>463.4</ele><time>2026-04-25T12:47:10.999Z</time></trkpt><trkpt lat="42.394356156478125" lon="11.170034642488297"><ele>461.2</ele><time>2026-04-25T12:47:11.999Z</time></trkpt><trkpt lat="42.39444299441936" lon="11.169992422888173"><ele>459.0</ele><time>2026-04-25T12:47:12.999Z</time></trkpt><trkpt lat="42.39455304390525" lon="11.169941418551346"><ele>459.0</ele><time>2026-04-25T12:47:13.999Z</time></trkpt><trkpt lat="42.394660669792216" lon="11.169932951114587"><ele>459.0</ele><time>2026-04-25T12:47:14.999Z</time></trkpt><trkpt lat="42.39476358077153" lon="11.169957278344956"><ele>459.0</ele><time>2026-04-25T12:47:15.999Z</time></trkpt><trkpt lat="42.39487754382298" lon="11.169999223694386"><ele>459.0</ele><time>2026-04-25T12:47:16.999Z</time></trkpt><trkpt lat="42.394971994115195" lon="11.170030496218693"><ele>459.0</ele><time>2026-04-25T12:47:17.999Z</time></trkpt><trkpt lat="42.395065553907294" lon="11.170067781384931"><ele>457.8333333333333</ele><time>2026-04-25T12:47:18.999Z</time></trkpt><trkpt lat="42.395154478266285" lon="11.17010030044327"><ele>456.66666666666663</ele><time>2026-04-25T12:47:19.999Z</time></trkpt><trkpt lat="42.395244804965266" lon="11.170120434008131"><ele>455.5</ele><time>2026-04-25T12:47:20.999Z</time></trkpt><trkpt lat="42.39533854928085" lon="11.170140565325719"><ele>454.3333333333333</ele><time>2026-04-25T12:47:21.999Z</time></trkpt><trkpt lat="42.39542485052169" lon="11.170150261388647"><ele>453.16666666666663</ele><time>2026-04-25T12:47:22.999Z</time></trkpt><trkpt lat="42.395507767306626" lon="11.170164680873885"><ele>452.0</ele><time>2026-04-25T12:47:23.999Z</time></trkpt><trkpt lat="42.395593746299184" lon="11.170193710185504"><ele>450.99999999999994</ele><time>2026-04-25T12:47:24.999Z</time></trkpt><trkpt lat="42.39567112734986" lon="11.170241346534953"><ele>450.0</ele><time>2026-04-25T12:47:25.999Z</time></trkpt><trkpt lat="42.39574164111606" lon="11.170273212033376"><ele>449.0</ele><time>2026-04-25T12:47:26.999Z</time></trkpt><trkpt lat="42.39582128521179" lon="11.170269753753196"><ele>448.0</ele><time>2026-04-25T12:47:27.999Z</time></trkpt><trkpt lat="42.395896012564656" lon="11.170272800410286"><ele>446.99999999999994</ele><time>2026-04-25T12:47:28.999Z</time></trkpt><trkpt lat="42.39595910825092" lon="11.170263339345015"><ele>446.0</ele><time>2026-04-25T12:47:29.999Z</time></trkpt><trkpt lat="42.39603078522225" lon="11.1702485986757"><ele>445.99999999999994</ele><time>2026-04-25T12:47:31.999Z</time></trkpt><trkpt lat="42.39609926351434" lon="11.17022298775019"><ele>446.0</ele><time>2026-04-25T12:47:34.999Z</time></trkpt><trkpt lat="42.396168568710415" lon="11.170145130034337"><ele>446.0</ele><time>2026-04-25T12:47:36.999Z</time></trkpt><trkpt lat="42.39621585444937" lon="11.170053384876631"><ele>446.0</ele><time>2026-04-25T12:47:38.999Z</time></trkpt><trkpt lat="42.39629596668703" lon="11.169986903980027"><ele>445.99999999999994</ele><time>2026-04-25T12:47:40.999Z</time></trkpt><trkpt lat="42.396375900916475" lon="11.169914693683223"><ele>446.0</ele><time>2026-04-25T12:47:42.999Z</time></trkpt><trkpt lat="42.3964246735651" lon="11.169811903714212"><ele>442.6</ele><time>2026-04-25T12:47:45.999Z</time></trkpt><trkpt lat="42.39650933067917" lon="11.169846596603394"><ele>439.20000000000005</ele><time>2026-04-25T12:47:47.999Z</time></trkpt><trkpt lat="42.39654030191442" lon="11.169973466824638"><ele>435.79999999999995</ele><time>2026-04-25T12:47:49.999Z</time></trkpt><trkpt lat="42.39655814801305" lon="11.170056997891411"><ele>432.4</ele><time>2026-04-25T12:47:51.999Z</time></trkpt><trkpt lat="42.39657834196417" lon="11.170170067535297"><ele>429.0</ele><time>2026-04-25T12:48:59.999Z</time></trkpt><trkpt lat="42.396585488723254" lon="11.170017970637037"><ele>428.25</ele><time>2026-04-25T12:49:05.999Z</time></trkpt><trkpt lat="42.39655902773319" lon="11.16987429044209"><ele>427.5</ele><time>2026-04-25T12:49:07.999Z</time></trkpt><trkpt lat="42.39642211692213" lon="11.169946912403843"><ele>426.75</ele><time>2026-04-25T12:49:16.999Z</time></trkpt><trkpt lat="42.39631952160001" lon="11.170017301231058"><ele>426.0</ele><time>2026-04-25T12:49:19.999Z</time></trkpt><trkpt lat="42.39624482782365" lon="11.170092128149994"><ele>429.3333333333333</ele><time>2026-04-25T12:49:21.999Z</time></trkpt><trkpt lat="42.39618467265917" lon="11.170206180375024"><ele>432.66666666666663</ele><time>2026-04-25T12:49:23.999Z</time></trkpt><trkpt lat="42.39610685313461" lon="11.170264966883385"><ele>436.0</ele><time>2026-04-25T12:49:25.999Z</time></trkpt><trkpt lat="42.39603222784219" lon="11.170283491786295"><ele>439.3333333333333</ele><time>2026-04-25T12:49:27.999Z</time></trkpt><trkpt lat="42.39593182252868" lon="11.170287493587711"><ele>442.66666666666663</ele><time>2026-04-25T12:49:29.999Z</time></trkpt><trkpt lat="42.395855508043056" lon="11.170282662403219"><ele>446.0</ele><time>2026-04-25T12:49:30.999Z</time></trkpt><trkpt lat="42.395782430334926" lon="11.17027830634618"><ele>446.0</ele><time>2026-04-25T12:49:31.999Z</time></trkpt><trkpt lat="42.395713741598875" lon="11.170280664252223"><ele>446.0</ele><time>2026-04-25T12:49:32.999Z</time></trkpt><trkpt lat="42.39564808325217" lon="11.170253630633855"><ele>446.0</ele><time>2026-04-25T12:49:33.999Z</time></trkpt><trkpt lat="42.395561996379364" lon="11.170209323714301"><ele>446.0</ele><time>2026-04-25T12:49:35.999Z</time></trkpt><trkpt lat="42.395469855708306" lon="11.170193097694291"><ele>446.0</ele><time>2026-04-25T12:49:37.999Z</time></trkpt><trkpt lat="42.39534201541778" lon="11.170209571346474"><ele>447.20000000000005</ele><time>2026-04-25T12:49:39.999Z</time></trkpt><trkpt lat="42.39526861977891" lon="11.17018018264335"><ele>448.40000000000003</ele><time>2026-04-25T12:49:40.999Z</time></trkpt><trkpt lat="42.395190560174385" lon="11.170153979048699"><ele>449.6</ele><time>2026-04-25T12:49:41.999Z</time></trkpt><trkpt lat="42.39511753610817" lon="11.170129003438001"><ele>450.8</ele><time>2026-04-25T12:49:42.999Z</time></trkpt><trkpt lat="42.395020352989484" lon="11.170108164736991"><ele>452.0</ele><time>2026-04-25T12:49:44.999Z</time></trkpt><trkpt lat="42.39487008206352" lon="11.170065213217049"><ele>451.99999999999994</ele><time>2026-04-25T12:49:46.999Z</time></trkpt><trkpt lat="42.39480078927758" lon="11.170039075479108"><ele>452.0</ele><time>2026-04-25T12:49:47.999Z</time></trkpt><trkpt lat="42.3946978435235" lon="11.170040239210019"><ele>452.0</ele><time>2026-04-25T12:49:49.999Z</time></trkpt><trkpt lat="42.39462753233113" lon="11.170024895739116"><ele>452.0</ele><time>2026-04-25T12:49:50.999Z</time></trkpt><trkpt lat="42.39454796723567" lon="11.170036264184686"><ele>451.99999999999994</ele><time>2026-04-25T12:49:51.999Z</time></trkpt><trkpt lat="42.39448605841929" lon="11.170055418942736"><ele>452.0</ele><time>2026-04-25T12:49:52.999Z</time></trkpt><trkpt lat="42.39442350304006" lon="11.170075146974922"><ele>453.16666666666663</ele><time>2026-04-25T12:49:54.999Z</time></trkpt><trkpt lat="42.394337059813886" lon="11.170059552627448"><ele>454.3333333333333</ele><time>2026-04-25T12:50:21.999Z</time></trkpt><trkpt lat="42.394248993465105" lon="11.170085663523965"><ele>455.5</ele><time>2026-04-25T12:50:24.999Z</time></trkpt><trkpt lat="42.394157944238344" lon="11.170092752855515"><ele>456.66666666666663</ele><time>2026-04-25T12:50:27.999Z</time></trkpt><trkpt lat="42.39408093980338" lon="11.17012304428792"><ele>457.8333333333333</ele><time>2026-04-25T12:50:29.999Z</time></trkpt><trkpt lat="42.39399176903246" lon="11.170134171271426"><ele>459.0</ele><time>2026-04-25T12:50:32.999Z</time></trkpt><trkpt lat="42.393906846966814" lon="11.170134781502401"><ele>459.0</ele><time>2026-04-25T12:50:35.999Z</time></trkpt><trkpt lat="42.39384257584583" lon="11.170154128783919"><ele>459.0</ele><time>2026-04-25T12:50:37.999Z</time></trkpt><trkpt lat="42.39377701608754" lon="11.170168638238016"><ele>459.0</ele><time>2026-04-25T12:50:39.999Z</time></trkpt><trkpt lat="42.39369309475027" lon="11.170211122591976"><ele>459.0</ele><time>2026-04-25T12:50:41.999Z</time></trkpt><trkpt lat="42.393607305174996" lon="11.17027284953862"><ele>459.0</ele><time>2026-04-25T12:50:43.999Z</time></trkpt><trkpt lat="42.39352093606417" lon="11.170324075052168"><ele>459.0</ele><time>2026-04-25T12:50:45.999Z</time></trkpt><trkpt lat="42.39345770816552" lon="11.170355239272793"><ele>459.0</ele><time>2026-04-25T12:50:47.999Z</time></trkpt><trkpt lat="42.39353425135668" lon="11.170324920487902"><ele>459.0</ele><time>2026-04-25T12:54:36Z</time></trkpt><trkpt lat="42.3936109928546" lon="11.170253138666444"><ele>459.0</ele><time>2026-04-25T12:54:38Z</time></trkpt><trkpt lat="42.393680820536694" lon="11.170184084352737"><ele>459.0</ele><time>2026-04-25T12:54:40Z</time></trkpt><trkpt lat="42.39375232220305" lon="11.170143822432122"><ele>459.0</ele><time>2026-04-25T12:54:42Z</time></trkpt><trkpt lat="42.393833692441554" lon="11.170106664990666"><ele>459.0</ele><time>2026-04-25T12:54:44Z</time></trkpt><trkpt lat="42.393912311702294" lon="11.170092546940769"><ele>459.0</ele><time>2026-04-25T12:54:46Z</time></trkpt><trkpt lat="42.39400034713014" lon="11.170093105725172"><ele>459.0</ele><time>2026-04-25T12:54:48Z</time></trkpt><trkpt lat="42.39410589627796" lon="11.17007001400163"><ele>459.0</ele><time>2026-04-25T12:54:50Z</time></trkpt><trkpt lat="42.3942098841192" lon="11.170061501060795"><ele>459.0</ele><time>2026-04-25T12:54:52Z</time></trkpt><trkpt lat="42.394302059563415" lon="11.170043348240625"><ele>459.0</ele><time>2026-04-25T12:54:54Z</time></trkpt><trkpt lat="42.39440611603077" lon="11.169999329687716"><ele>459.0</ele><time>2026-04-25T12:54:56Z</time></trkpt><trkpt lat="42.39446897828873" lon="11.169973178960669"><ele>459.0</ele><time>2026-04-25T12:54:57Z</time></trkpt><trkpt lat="42.39453850426105" lon="11.169969179423367"><ele>459.0</ele><time>2026-04-25T12:54:58Z</time></trkpt><trkpt lat="42.39464891378568" lon="11.16996210563763"><ele>459.0</ele><time>2026-04-25T12:55:00.001Z</time></trkpt><trkpt lat="42.394754248943094" lon="11.169966525046043"><ele>459.0</ele><time>2026-04-25T12:55:02.001Z</time></trkpt><trkpt lat="42.39482494018738" lon="11.169965766517247"><ele>459.0</ele><time>2026-04-25T12:55:04.001Z</time></trkpt><trkpt lat="42.39493760849318" lon="11.170020590428035"><ele>457.6</ele><time>2026-04-25T12:55:06.001Z</time></trkpt><trkpt lat="42.395023264670165" lon="11.170050583256227"><ele>456.2</ele><time>2026-04-25T12:55:08.001Z</time></trkpt><trkpt lat="42.39513315131094" lon="11.170093834019656"><ele>454.80000000000007</ele><time>2026-04-25T12:55:10.001Z</time></trkpt><trkpt lat="42.395239151680016" lon="11.170140102517644"><ele>453.40000000000003</ele><time>2026-04-25T12:55:12.001Z</time></trkpt><trkpt lat="42.395331135450306" lon="11.170162840296783"><ele>452.0</ele><time>2026-04-25T12:55:14.001Z</time></trkpt><trkpt lat="42.395444710008064" lon="11.17016787670569"><ele>450.8</ele><time>2026-04-25T12:55:16.001Z</time></trkpt><trkpt lat="42.39554423167166" lon="11.170178966555007"><ele>449.6</ele><time>2026-04-25T12:55:18.001Z</time></trkpt><trkpt lat="42.395633168988006" lon="11.170240842966551"><ele>448.40000000000003</ele><time>2026-04-25T12:55:20.001Z</time></trkpt><trkpt lat="42.395740394578056" lon="11.170276516880529"><ele>447.20000000000005</ele><time>2026-04-25T12:55:22.001Z</time></trkpt><trkpt lat="42.39583550627993" lon="11.1702629840315"><ele>446.0</ele><time>2026-04-25T12:55:24.001Z</time></trkpt><trkpt lat="42.39589972083671" lon="11.170273630149088"><ele>445.99999999999994</ele><time>2026-04-25T12:55:25.001Z</time></trkpt><trkpt lat="42.39597202254279" lon="11.170245032247044"><ele>446.0</ele><time>2026-04-25T12:55:27.001Z</time></trkpt><trkpt lat="42.39604212847281" lon="11.17024735180059"><ele>446.0</ele><time>2026-04-25T12:55:29.001Z</time></trkpt><trkpt lat="42.396114786884326" lon="11.170199811694145"><ele>446.0</ele><time>2026-04-25T12:55:32.001Z</time></trkpt><trkpt lat="42.39619596507867" lon="11.17011366593696"><ele>445.99999999999994</ele><time>2026-04-25T12:55:35Z</time></trkpt><trkpt lat="42.39624805326508" lon="11.170047097697989"><ele>446.0</ele><time>2026-04-25T12:55:38Z</time></trkpt><trkpt lat="42.396320084332345" lon="11.170021340579986"><ele>443.16666666666663</ele><time>2026-04-25T12:56:02Z</time></trkpt><trkpt lat="42.39638238381981" lon="11.170049321426177"><ele>440.3333333333333</ele><time>2026-04-25T12:56:06Z</time></trkpt><trkpt lat="42.39643328262098" lon="11.169967730923064"><ele>437.5</ele><time>2026-04-25T12:58:48Z</time></trkpt><trkpt lat="42.39644805993157" lon="11.169858817160959"><ele>434.66666666666663</ele><time>2026-04-25T12:58:51Z</time></trkpt><trkpt lat="42.396506971857875" lon="11.169810472849841"><ele>431.8333333333333</ele><time>2026-04-25T12:58:54Z</time></trkpt><trkpt lat="42.39655646345716" lon="11.169880375667534"><ele>429.0</ele><time>2026-04-25T12:58:56Z</time></trkpt><trkpt lat="42.39657702136528" lon="11.170059005893627"><ele>428.4</ele><time>2026-04-25T12:58:58Z</time></trkpt><trkpt lat="42.39656657587999" lon="11.1701735607431"><ele>427.79999999999995</ele><time>2026-04-25T12:58:59Z</time></trkpt><trkpt lat="42.3965346638151" lon="11.170300161606557"><ele>427.20000000000005</ele><time>2026-04-25T12:59:00Z</time></trkpt><trkpt lat="42.39650133603271" lon="11.170429074343541"><ele>426.6</ele><time>2026-04-25T12:59:01Z</time></trkpt><trkpt lat="42.396473210534914" lon="11.170554889126509"><ele>426.0</ele><time>2026-04-25T12:59:02Z</time></trkpt><trkpt lat="42.3964147026219" lon="11.170646015316542"><ele>426.1666666666667</ele><time>2026-04-25T12:59:03Z</time></trkpt><trkpt lat="42.39637864971077" lon="11.170737100592264"><ele>426.33333333333337</ele><time>2026-04-25T12:59:04Z</time></trkpt><trkpt lat="42.3963373441194" lon="11.170817089833733"><ele>426.5</ele><time>2026-04-25T12:59:05Z</time></trkpt><trkpt lat="42.39628333313093" lon="11.170895133340133"><ele>426.6666666666667</ele><time>2026-04-25T12:59:06Z</time></trkpt><trkpt lat="42.396230659642114" lon="11.17095175657777"><ele>426.83333333333337</ele><time>2026-04-25T12:59:07Z</time></trkpt><trkpt lat="42.39616552974739" lon="11.171007126981195"><ele>427.0</ele><time>2026-04-25T12:59:08Z</time></trkpt><trkpt lat="42.39608130068733" lon="11.171037114717272"><ele>427.0</ele><time>2026-04-25T12:59:09Z</time></trkpt><trkpt lat="42.39597984766074" lon="11.171062258136557"><ele>427.00000000000006</ele><time>2026-04-25T12:59:10Z</time></trkpt><trkpt lat="42.39588207317992" lon="11.171123778657432"><ele>427.00000000000006</ele><time>2026-04-25T12:59:11Z</time></trkpt><trkpt lat="42.395810652263236" lon="11.171197410369325"><ele>427.0</ele><time>2026-04-25T12:59:12.001Z</time></trkpt><trkpt lat="42.39573399644645" lon="11.171285549185512"><ele>427.0</ele><time>2026-04-25T12:59:13.001Z</time></trkpt><trkpt lat="42.39567200064287" lon="11.171354163673703"><ele>427.00000000000006</ele><time>2026-04-25T12:59:14.001Z</time></trkpt><trkpt lat="42.39561340454779" lon="11.171419549116836"><ele>427.0</ele><time>2026-04-25T12:59:16.001Z</time></trkpt><trkpt lat="42.39555162226442" lon="11.1714446413822"><ele>427.0</ele><time>2026-04-25T12:59:17.001Z</time></trkpt><trkpt lat="42.39548191748657" lon="11.171464191844796"><ele>427.0</ele><time>2026-04-25T12:59:18.001Z</time></trkpt><trkpt lat="42.395387145783786" lon="11.171495231960336"><ele>427.00000000000006</ele><time>2026-04-25T12:59:20.001Z</time></trkpt><trkpt lat="42.39530559882919" lon="11.171571077618216"><ele>427.0</ele><time>2026-04-25T12:59:22.001Z</time></trkpt><trkpt lat="42.39531399200514" lon="11.17173477683251"><ele>426.20000000000005</ele><time>2026-04-25T12:59:23.001Z</time></trkpt><trkpt lat="42.39536701454675" lon="11.17184834268106"><ele>425.40000000000003</ele><time>2026-04-25T12:59:24.001Z</time></trkpt><trkpt lat="42.395430539773066" lon="11.171922284491338"><ele>424.6</ele><time>2026-04-25T12:59:25.001Z</time></trkpt><trkpt lat="42.39550408599594" lon="11.172004485758142"><ele>423.79999999999995</ele><time>2026-04-25T12:59:26.001Z</time></trkpt><trkpt lat="42.395587626632796" lon="11.172094419404642"><ele>423.0</ele><time>2026-04-25T12:59:27.001Z</time></trkpt><trkpt lat="42.39569048014644" lon="11.172205143847403"><ele>421.2</ele><time>2026-04-25T12:59:28.001Z</time></trkpt><trkpt lat="42.39576138681306" lon="11.172286220762004"><ele>419.4</ele><time>2026-04-25T12:59:29.001Z</time></trkpt><trkpt lat="42.39581566685083" lon="11.172349888737893"><ele>417.59999999999997</ele><time>2026-04-25T12:59:30.001Z</time></trkpt><trkpt lat="42.395916281394825" lon="11.172458660440647"><ele>415.79999999999995</ele><time>2026-04-25T12:59:32.001Z</time></trkpt><trkpt lat="42.39596861440219" lon="11.172575810085439"><ele>414.0</ele><time>2026-04-25T12:59:33.001Z</time></trkpt><trkpt lat="42.3959903707935" lon="11.172691451930733"><ele>413.0</ele><time>2026-04-25T12:59:34.001Z</time></trkpt><trkpt lat="42.39597901390422" lon="11.172830292749243"><ele>412.0</ele><time>2026-04-25T12:59:35.001Z</time></trkpt><trkpt lat="42.3959767284014" lon="11.172985431958898"><ele>411.0</ele><time>2026-04-25T12:59:36.001Z</time></trkpt><trkpt lat="42.39596964368341" lon="11.173110365011794"><ele>410.0</ele><time>2026-04-25T12:59:37.001Z</time></trkpt><trkpt lat="42.39595935466822" lon="11.173233560804386"><ele>409.0</ele><time>2026-04-25T12:59:38.001Z</time></trkpt><trkpt lat="42.395951509041936" lon="11.173405333189432"><ele>407.75</ele><time>2026-04-25T12:59:39.001Z</time></trkpt><trkpt lat="42.39591780692097" lon="11.173592833715375"><ele>406.5</ele><time>2026-04-25T12:59:40.001Z</time></trkpt><trkpt lat="42.39589199482049" lon="11.173786433161226"><ele>405.25</ele><time>2026-04-25T12:59:41.001Z</time></trkpt><trkpt lat="42.39588787053473" lon="11.17395343526929"><ele>404.0</ele><time>2026-04-25T12:59:42.001Z</time></trkpt><trkpt lat="42.39589612054007" lon="11.17410605191284"><ele>401.25</ele><time>2026-04-25T12:59:43.001Z</time></trkpt><trkpt lat="42.39589973495814" lon="11.174252234756159"><ele>398.5</ele><time>2026-04-25T12:59:44.001Z</time></trkpt><trkpt lat="42.39588480495837" lon="11.174404522684238"><ele>395.75</ele><time>2026-04-25T12:59:45.001Z</time></trkpt><trkpt lat="42.39586033816988" lon="11.17455425101079"><ele>393.0</ele><time>2026-04-25T12:59:46.001Z</time></trkpt><trkpt lat="42.39582509348953" lon="11.174709753355815"><ele>390.2</ele><time>2026-04-25T12:59:47.001Z</time></trkpt><trkpt lat="42.3957966690276" lon="11.174855383866939"><ele>387.4</ele><time>2026-04-25T12:59:48.001Z</time></trkpt><trkpt lat="42.395778144345634" lon="11.174974884918656"><ele>384.59999999999997</ele><time>2026-04-25T12:59:49.001Z</time></trkpt><trkpt lat="42.3957493593981" lon="11.175080741104024"><ele>381.79999999999995</ele><time>2026-04-25T12:59:50.001Z</time></trkpt><trkpt lat="42.395740862340915" lon="11.175189774014235"><ele>379.0</ele><time>2026-04-25T12:59:51.001Z</time></trkpt><trkpt lat="42.39574318090267" lon="11.175317706740897"><ele>379.0</ele><time>2026-04-25T12:59:52.001Z</time></trkpt><trkpt lat="42.39576715998489" lon="11.175471859732879"><ele>379.0</ele><time>2026-04-25T12:59:53.001Z</time></trkpt><trkpt lat="42.39577288828966" lon="11.175604433345745"><ele>379.0</ele><time>2026-04-25T12:59:54.001Z</time></trkpt><trkpt lat="42.395769327191694" lon="11.17570199358213"><ele>379.0</ele><time>2026-04-25T12:59:55.001Z</time></trkpt><trkpt lat="42.3957539354954" lon="11.175876146005267"><ele>379.0</ele><time>2026-04-25T12:59:57.001Z</time></trkpt><trkpt lat="42.39571174097477" lon="11.17595403044441"><ele>377.0</ele><time>2026-04-25T12:59:58.001Z</time></trkpt><trkpt lat="42.395636457286365" lon="11.17607784031778"><ele>375.0</ele><time>2026-04-25T13:00:00.001Z</time></trkpt><trkpt lat="42.39553446448241" lon="11.17619651817444"><ele>373.0</ele><time>2026-04-25T13:00:02.001Z</time></trkpt><trkpt lat="42.395463929479035" lon="11.176250765261631"><ele>371.0</ele><time>2026-04-25T13:00:03.001Z</time></trkpt><trkpt lat="42.395396089459744" lon="11.176282837384923"><ele>369.0</ele><time>2026-04-25T13:00:04Z</time></trkpt><trkpt lat="42.39529980249702" lon="11.176279659124724"><ele>368.0</ele><time>2026-04-25T13:00:06Z</time></trkpt><trkpt lat="42.39516097921406" lon="11.176211042767434"><ele>367.0</ele><time>2026-04-25T13:00:08Z</time></trkpt><trkpt lat="42.39504451265301" lon="11.176153708349323"><ele>366.0</ele><time>2026-04-25T13:00:09Z</time></trkpt><trkpt lat="42.39492889947568" lon="11.176093296412057"><ele>365.0</ele><time>2026-04-25T13:00:10Z</time></trkpt><trkpt lat="42.39483554355515" lon="11.176043186495166"><ele>365.0</ele><time>2026-04-25T13:00:11Z</time></trkpt><trkpt lat="42.394751982913895" lon="11.175998334318347"><ele>365.0</ele><time>2026-04-25T13:00:12Z</time></trkpt><trkpt lat="42.394652085969646" lon="11.175947028178344"><ele>365.0</ele><time>2026-04-25T13:00:13Z</time></trkpt><trkpt lat="42.39455985391444" lon="11.175903147479804"><ele>365.0</ele><time>2026-04-25T13:00:14Z</time></trkpt><trkpt lat="42.394484017735884" lon="11.175868093292753"><ele>365.0</ele><time>2026-04-25T13:00:15Z</time></trkpt><trkpt lat="42.39439506834521" lon="11.175829588133771"><ele>362.4</ele><time>2026-04-25T13:00:16Z</time></trkpt><trkpt lat="42.3943007560991" lon="11.175790493982271"><ele>359.8</ele><time>2026-04-25T13:00:17Z</time></trkpt><trkpt lat="42.394216187614504" lon="11.17575795477961"><ele>357.20000000000005</ele><time>2026-04-25T13:00:18Z</time></trkpt><trkpt lat="42.394139590443416" lon="11.175746891158175"><ele>354.6</ele><time>2026-04-25T13:00:19Z</time></trkpt><trkpt lat="42.393996522103706" lon="11.175742725761067"><ele>352.0</ele><time>2026-04-25T13:00:21Z</time></trkpt><trkpt lat="42.393899081293476" lon="11.17576595529777"><ele>352.5</ele><time>2026-04-25T13:00:22Z</time></trkpt><trkpt lat="42.39380273209139" lon="11.175797752066286"><ele>353.0</ele><time>2026-04-25T13:00:23Z</time></trkpt><trkpt lat="42.39373924832945" lon="11.17581557038398"><ele>353.5</ele><time>2026-04-25T13:00:24Z</time></trkpt><trkpt lat="42.3936741786139" lon="11.175828482384912"><ele>354.0</ele><time>2026-04-25T13:00:25Z</time></trkpt><trkpt lat="42.393595659175396" lon="11.175850076857879"><ele>354.5</ele><time>2026-04-25T13:00:26Z</time></trkpt><trkpt lat="42.39350077597271" lon="11.17594907551016"><ele>355.0</ele><time>2026-04-25T13:00:28Z</time></trkpt><trkpt lat="42.39350747706442" lon="11.176074009015375"><ele>355.0</ele><time>2026-04-25T13:00:29Z</time></trkpt><trkpt lat="42.39349066633239" lon="11.176198099713686"><ele>355.0</ele><time>2026-04-25T13:00:30Z</time></trkpt><trkpt lat="42.39345382701061" lon="11.176333981080864"><ele>355.0</ele><time>2026-04-25T13:00:31Z</time></trkpt><trkpt lat="42.39342028295401" lon="11.17645492189137"><ele>355.0</ele><time>2026-04-25T13:00:32Z</time></trkpt><trkpt lat="42.39338554006602" lon="11.176579034598692"><ele>355.0</ele><time>2026-04-25T13:00:33Z</time></trkpt><trkpt lat="42.393341555132096" lon="11.176735274309982"><ele>351.0</ele><time>2026-04-25T13:00:34Z</time></trkpt><trkpt lat="42.393300260310994" lon="11.176879756525103"><ele>347.0</ele><time>2026-04-25T13:00:35Z</time></trkpt><trkpt lat="42.3932669207547" lon="11.176996136844554"><ele>343.0</ele><time>2026-04-25T13:00:36Z</time></trkpt><trkpt lat="42.39322910554026" lon="11.177125599570337"><ele>339.0</ele><time>2026-04-25T13:00:37Z</time></trkpt><trkpt lat="42.393192098378556" lon="11.177251570104502"><ele>335.0</ele><time>2026-04-25T13:00:38Z</time></trkpt><trkpt lat="42.393148748473614" lon="11.177395810491058"><ele>336.5</ele><time>2026-04-25T13:00:39Z</time></trkpt><trkpt lat="42.393091367280256" lon="11.177579430216964"><ele>338.0</ele><time>2026-04-25T13:00:40Z</time></trkpt><trkpt lat="42.393025307991806" lon="11.17777426527954"><ele>339.5</ele><time>2026-04-25T13:00:41Z</time></trkpt><trkpt lat="42.39296753175744" lon="11.177931632248715"><ele>341.0</ele><time>2026-04-25T13:00:42Z</time></trkpt><trkpt lat="42.39290030149297" lon="11.178109474926188"><ele>335.2</ele><time>2026-04-25T13:00:43Z</time></trkpt><trkpt lat="42.392840949849976" lon="11.178267663332885"><ele>329.40000000000003</ele><time>2026-04-25T13:00:44Z</time></trkpt><trkpt lat="42.39279677018025" lon="11.178418366644742"><ele>323.6</ele><time>2026-04-25T13:00:45Z</time></trkpt><trkpt lat="42.39273655705373" lon="11.178519635456132"><ele>317.8</ele><time>2026-04-25T13:00:46Z</time></trkpt><trkpt lat="42.39268987241674" lon="11.178600307066837"><ele>312.0</ele><time>2026-04-25T13:00:47Z</time></trkpt><trkpt lat="42.39264264251884" lon="11.178658392294768"><ele>312.0</ele><time>2026-04-25T13:00:48Z</time></trkpt><trkpt lat="42.39250696759422" lon="11.178731970982998"><ele>312.0</ele><time>2026-04-25T13:00:50Z</time></trkpt><trkpt lat="42.3923897808317" lon="11.178785127760237"><ele>312.0</ele><time>2026-04-25T13:00:51Z</time></trkpt><trkpt lat="42.39226571312745" lon="11.178826298267856"><ele>312.0</ele><time>2026-04-25T13:00:52Z</time></trkpt><trkpt lat="42.39214052821273" lon="11.178870944730706"><ele>311.1666666666667</ele><time>2026-04-25T13:00:53Z</time></trkpt><trkpt lat="42.3920360670985" lon="11.17890667721374"><ele>310.3333333333333</ele><time>2026-04-25T13:00:54Z</time></trkpt><trkpt lat="42.391964826208046" lon="11.178935479811202"><ele>309.5</ele><time>2026-04-25T13:00:55Z</time></trkpt><trkpt lat="42.39190907663775" lon="11.178985405894343"><ele>308.66666666666663</ele><time>2026-04-25T13:00:56Z</time></trkpt><trkpt lat="42.39191504160289" lon="11.179150061002831"><ele>307.8333333333333</ele><time>2026-04-25T13:00:58Z</time></trkpt><trkpt lat="42.39193689321015" lon="11.179230245106785"><ele>307.0</ele><time>2026-04-25T13:00:59Z</time></trkpt><trkpt lat="42.39194969483279" lon="11.179347945679512"><ele>307.0</ele><time>2026-04-25T13:01:00Z</time></trkpt><trkpt lat="42.39196117972465" lon="11.179504286198949"><ele>307.0</ele><time>2026-04-25T13:01:01Z</time></trkpt><trkpt lat="42.39199114814093" lon="11.179660601929637"><ele>307.0</ele><time>2026-04-25T13:01:02Z</time></trkpt><trkpt lat="42.39201786455416" lon="11.179810775727239"><ele>307.0</ele><time>2026-04-25T13:01:03Z</time></trkpt><trkpt lat="42.39202843497063" lon="11.17992872969754"><ele>307.0</ele><time>2026-04-25T13:01:04Z</time></trkpt><trkpt lat="42.39203501642627" lon="11.180060616082017"><ele>305.3333333333333</ele><time>2026-04-25T13:01:05Z</time></trkpt><trkpt lat="42.39203537635184" lon="11.180207552637505"><ele>303.66666666666663</ele><time>2026-04-25T13:01:06Z</time></trkpt><trkpt lat="42.39203237956432" lon="11.180322686849697"><ele>302.0</ele><time>2026-04-25T13:01:07Z</time></trkpt><trkpt lat="42.3920249029331" lon="11.18042429051479"><ele>300.3333333333333</ele><time>2026-04-25T13:01:08Z</time></trkpt><trkpt lat="42.392033401205474" lon="11.180515309361068"><ele>298.6666666666667</ele><time>2026-04-25T13:01:09Z</time></trkpt><trkpt lat="42.39198463763045" lon="11.18060476193388"><ele>297.0</ele><time>2026-04-25T13:01:10Z</time></trkpt><trkpt lat="42.39192605355044" lon="11.18069922888024"><ele>294.3333333333333</ele><time>2026-04-25T13:01:11Z</time></trkpt><trkpt lat="42.39186836542076" lon="11.180813143087931"><ele>291.6666666666667</ele><time>2026-04-25T13:01:12Z</time></trkpt><trkpt lat="42.391830683126024" lon="11.180901443186002"><ele>289.0</ele><time>2026-04-25T13:01:13Z</time></trkpt><trkpt lat="42.391806493179075" lon="11.180990591383344"><ele>286.33333333333337</ele><time>2026-04-25T13:01:14Z</time></trkpt><trkpt lat="42.391788365534104" lon="11.181091072158187"><ele>283.6666666666667</ele><time>2026-04-25T13:01:15Z</time></trkpt><trkpt lat="42.391816765154005" lon="11.181209435026638"><ele>281.0</ele><time>2026-04-25T13:01:16Z</time></trkpt><trkpt lat="42.39188549058263" lon="11.181318439168434"><ele>281.0</ele><time>2026-04-25T13:01:17Z</time></trkpt><trkpt lat="42.39197612875498" lon="11.181424234694425"><ele>281.0</ele><time>2026-04-25T13:01:18.001Z</time></trkpt><trkpt lat="42.392068422130365" lon="11.181543019345519"><ele>281.0</ele><time>2026-04-25T13:01:19.001Z</time></trkpt><trkpt lat="42.392136938417586" lon="11.181647319600664"><ele>281.0</ele><time>2026-04-25T13:01:20.001Z</time></trkpt><trkpt lat="42.39218168850381" lon="11.181714130985183"><ele>281.0</ele><time>2026-04-25T13:01:21.001Z</time></trkpt><trkpt lat="42.39220766037385" lon="11.181820304387879"><ele>278.33333333333337</ele><time>2026-04-25T13:01:23.001Z</time></trkpt><trkpt lat="42.392157682447305" lon="11.181934082985782"><ele>275.6666666666667</ele><time>2026-04-25T13:01:25.001Z</time></trkpt><trkpt lat="42.39211511814419" lon="11.182007129549989"><ele>273.0</ele><time>2026-04-25T13:01:26.001Z</time></trkpt><trkpt lat="42.39205306458462" lon="11.18206577334368"><ele>270.3333333333333</ele><time>2026-04-25T13:01:27.001Z</time></trkpt><trkpt lat="42.39197435843547" lon="11.182110399145472"><ele>267.66666666666663</ele><time>2026-04-25T13:01:28.001Z</time></trkpt><trkpt lat="42.39187945080819" lon="11.18215296553681"><ele>265.0</ele><time>2026-04-25T13:01:29.001Z</time></trkpt><trkpt lat="42.391769964617055" lon="11.182167306567042"><ele>265.0</ele><time>2026-04-25T13:01:30.001Z</time></trkpt><trkpt lat="42.39164162178222" lon="11.182181931550307"><ele>265.0</ele><time>2026-04-25T13:01:31.001Z</time></trkpt><trkpt lat="42.39154740593834" lon="11.1821987531723"><ele>265.0</ele><time>2026-04-25T13:01:32.001Z</time></trkpt><trkpt lat="42.391460661897575" lon="11.182218455746465"><ele>265.0</ele><time>2026-04-25T13:01:33.001Z</time></trkpt><trkpt lat="42.39137405153272" lon="11.182266555962656"><ele>265.0</ele><time>2026-04-25T13:01:34.001Z</time></trkpt><trkpt lat="42.39132884591412" lon="11.18235665739933"><ele>264.0</ele><time>2026-04-25T13:01:35.001Z</time></trkpt><trkpt lat="42.39128183408605" lon="11.182431850890396"><ele>263.0</ele><time>2026-04-25T13:01:36.001Z</time></trkpt><trkpt lat="42.39125610824598" lon="11.182534745364963"><ele>262.0</ele><time>2026-04-25T13:01:37.001Z</time></trkpt><trkpt lat="42.39124484433297" lon="11.182672890856283"><ele>261.0</ele><time>2026-04-25T13:01:38.001Z</time></trkpt><trkpt lat="42.39119091233684" lon="11.182812154092723"><ele>260.0</ele><time>2026-04-25T13:01:39.001Z</time></trkpt><trkpt lat="42.39115668956703" lon="11.182971739269545"><ele>260.0</ele><time>2026-04-25T13:01:40.001Z</time></trkpt><trkpt lat="42.391129710591684" lon="11.183133809898308"><ele>260.0</ele><time>2026-04-25T13:01:41.001Z</time></trkpt><trkpt lat="42.3911007847148" lon="11.183270905562866"><ele>260.0</ele><time>2026-04-25T13:01:42.001Z</time></trkpt><trkpt lat="42.391075130237105" lon="11.183389459544069"><ele>260.0</ele><time>2026-04-25T13:01:43.001Z</time></trkpt><trkpt lat="42.39103258166581" lon="11.183499618749394"><ele>260.0</ele><time>2026-04-25T13:01:44.001Z</time></trkpt><trkpt lat="42.391001466525445" lon="11.18359360161625"><ele>257.00000000000006</ele><time>2026-04-25T13:01:45.001Z</time></trkpt><trkpt lat="42.39096945153234" lon="11.183669961562874"><ele>254.0</ele><time>2026-04-25T13:01:46.001Z</time></trkpt><trkpt lat="42.39092548237054" lon="11.183743182980022"><ele>251.00000000000003</ele><time>2026-04-25T13:01:47.001Z</time></trkpt><trkpt lat="42.3908725123416" lon="11.183812062902446"><ele>248.00000000000003</ele><time>2026-04-25T13:01:48.001Z</time></trkpt><trkpt lat="42.39080817285488" lon="11.183872550101926"><ele>245.0</ele><time>2026-04-25T13:01:49.001Z</time></trkpt><trkpt lat="42.390745571648395" lon="11.183923509857365"><ele>242.00000000000003</ele><time>2026-04-25T13:01:50.001Z</time></trkpt><trkpt lat="42.39068761875855" lon="11.183966775406647"><ele>239.00000000000003</ele><time>2026-04-25T13:01:51.001Z</time></trkpt><trkpt lat="42.3905997984041" lon="11.184032019310457"><ele>238.39999999999998</ele><time>2026-04-25T13:01:52.001Z</time></trkpt><trkpt lat="42.390505696709695" lon="11.184104520130617"><ele>237.79999999999998</ele><time>2026-04-25T13:01:53.001Z</time></trkpt><trkpt lat="42.39042323985631" lon="11.184172289603863"><ele>237.20000000000002</ele><time>2026-04-25T13:01:54.001Z</time></trkpt><trkpt lat="42.39035187974471" lon="11.18423856260359"><ele>236.60000000000002</ele><time>2026-04-25T13:01:55.001Z</time></trkpt><trkpt lat="42.390295491239684" lon="11.184321784996333"><ele>236.0</ele><time>2026-04-25T13:01:56.001Z</time></trkpt><trkpt lat="42.3902458234401" lon="11.184434407837598"><ele>236.0</ele><time>2026-04-25T13:01:57Z</time></trkpt><trkpt lat="42.390221327032485" lon="11.184584568065143"><ele>236.00000000000003</ele><time>2026-04-25T13:01:58Z</time></trkpt><trkpt lat="42.390234091766544" lon="11.184722488773856"><ele>236.00000000000003</ele><time>2026-04-25T13:01:59Z</time></trkpt><trkpt lat="42.390258981328614" lon="11.184838835845532"><ele>236.0</ele><time>2026-04-25T13:02:00Z</time></trkpt><trkpt lat="42.390291133202695" lon="11.184966095357769"><ele>236.0</ele><time>2026-04-25T13:02:01Z</time></trkpt><trkpt lat="42.39034926819059" lon="11.185139948583549"><ele>232.25</ele><time>2026-04-25T13:02:02Z</time></trkpt><trkpt lat="42.39041108990959" lon="11.185312139744067"><ele>228.5</ele><time>2026-04-25T13:02:03Z</time></trkpt><trkpt lat="42.39046554392075" lon="11.185451353112969"><ele>224.75</ele><time>2026-04-25T13:02:04Z</time></trkpt><trkpt lat="42.390470113597736" lon="11.185584895354115"><ele>221.0</ele><time>2026-04-25T13:02:05Z</time></trkpt><trkpt lat="42.39051986332261" lon="11.18572686887327"><ele>215.83333333333334</ele><time>2026-04-25T13:02:06Z</time></trkpt><trkpt lat="42.39053652470501" lon="11.185867442498775"><ele>210.66666666666669</ele><time>2026-04-25T13:02:07Z</time></trkpt><trkpt lat="42.390552940917175" lon="11.185975369764986"><ele>205.5</ele><time>2026-04-25T13:02:08Z</time></trkpt><trkpt lat="42.390574137532816" lon="11.186084563550777"><ele>200.33333333333334</ele><time>2026-04-25T13:02:09Z</time></trkpt><trkpt lat="42.390593706647465" lon="11.186178247720829"><ele>195.16666666666669</ele><time>2026-04-25T13:02:10Z</time></trkpt><trkpt lat="42.390630039221406" lon="11.186269929035491"><ele>190.0</ele><time>2026-04-25T13:02:11Z</time></trkpt><trkpt lat="42.390683410440126" lon="11.186344425786446"><ele>190.0</ele><time>2026-04-25T13:02:12Z</time></trkpt><trkpt lat="42.39073492890923" lon="11.186401115597649"><ele>190.0</ele><time>2026-04-25T13:02:13Z</time></trkpt><trkpt lat="42.390749393385775" lon="11.186525225881985"><ele>190.0</ele><time>2026-04-25T13:02:15Z</time></trkpt><trkpt lat="42.39070940194122" lon="11.186591247020436"><ele>190.0</ele><time>2026-04-25T13:02:16Z</time></trkpt><trkpt lat="42.390627820529005" lon="11.186641504521155"><ele>190.0</ele><time>2026-04-25T13:02:17Z</time></trkpt><trkpt lat="42.390556014140785" lon="11.186743219520341"><ele>190.0</ele><time>2026-04-25T13:02:18Z</time></trkpt><trkpt lat="42.390481540733035" lon="11.186800120600893"><ele>188.83333333333334</ele><time>2026-04-25T13:02:19Z</time></trkpt><trkpt lat="42.390390743062035" lon="11.186795726966045"><ele>187.66666666666669</ele><time>2026-04-25T13:02:20Z</time></trkpt><trkpt lat="42.390318222035845" lon="11.1868399281364"><ele>186.5</ele><time>2026-04-25T13:02:21Z</time></trkpt><trkpt lat="42.390240813335424" lon="11.186864066039952"><ele>185.33333333333334</ele><time>2026-04-25T13:02:22Z</time></trkpt><trkpt lat="42.390173214379374" lon="11.186939196925326"><ele>184.16666666666666</ele><time>2026-04-25T13:02:23Z</time></trkpt><trkpt lat="42.390087524962745" lon="11.187030332044094"><ele>183.0</ele><time>2026-04-25T13:02:24Z</time></trkpt><trkpt lat="42.3899992396803" lon="11.187061478163354"><ele>183.0</ele><time>2026-04-25T13:02:25Z</time></trkpt><trkpt lat="42.38991691289311" lon="11.187085479817682"><ele>183.0</ele><time>2026-04-25T13:02:26Z</time></trkpt><trkpt lat="42.389846409922264" lon="11.187061333273926"><ele>183.0</ele><time>2026-04-25T13:02:27Z</time></trkpt><trkpt lat="42.38974973432372" lon="11.187068779153549"><ele>183.0</ele><time>2026-04-25T13:02:29Z</time></trkpt><trkpt lat="42.38973358271972" lon="11.18722122374052"><ele>183.0</ele><time>2026-04-25T13:02:31Z</time></trkpt><trkpt lat="42.38984810986021" lon="11.187263485718333"><ele>183.0</ele><time>2026-04-25T13:02:33Z</time></trkpt><trkpt lat="42.38992940275964" lon="11.187280179474646"><ele>183.0</ele><time>2026-04-25T13:02:34Z</time></trkpt><trkpt lat="42.390038843642635" lon="11.18728310157332"><ele>183.0</ele><time>2026-04-25T13:02:35Z</time></trkpt><trkpt lat="42.3901498806767" lon="11.18730102634304"><ele>183.0</ele><time>2026-04-25T13:02:36Z</time></trkpt><trkpt lat="42.39026016973893" lon="11.187298406821652"><ele>183.0</ele><time>2026-04-25T13:02:37Z</time></trkpt><trkpt lat="42.39038869792028" lon="11.187315458120139"><ele>178.4</ele><time>2026-04-25T13:02:38Z</time></trkpt><trkpt lat="42.39048441432431" lon="11.187351963871597"><ele>173.8</ele><time>2026-04-25T13:02:39Z</time></trkpt><trkpt lat="42.39058045507164" lon="11.187409282826184"><ele>169.2</ele><time>2026-04-25T13:02:40Z</time></trkpt><trkpt lat="42.39066378553642" lon="11.187482429545053"><ele>164.6</ele><time>2026-04-25T13:02:41Z</time></trkpt><trkpt lat="42.390726760569976" lon="11.187534489610206"><ele>160.0</ele><time>2026-04-25T13:02:42Z</time></trkpt><trkpt lat="42.3908023925091" lon="11.18759934518805"><ele>160.0</ele><time>2026-04-25T13:02:44Z</time></trkpt><trkpt lat="42.39090078252842" lon="11.18758184400912"><ele>160.0</ele><time>2026-04-25T13:02:46Z</time></trkpt><trkpt lat="42.39095619378511" lon="11.18750995172715"><ele>160.0</ele><time>2026-04-25T13:02:47Z</time></trkpt><trkpt lat="42.390977019662294" lon="11.187376962115561"><ele>160.0</ele><time>2026-04-25T13:02:48Z</time></trkpt><trkpt lat="42.39101146921841" lon="11.187261685762346"><ele>160.0</ele><time>2026-04-25T13:02:49Z</time></trkpt><trkpt lat="42.39104317093219" lon="11.187120170695406"><ele>158.66666666666669</ele><time>2026-04-25T13:02:50Z</time></trkpt><trkpt lat="42.39107962603708" lon="11.186989562215041"><ele>157.33333333333334</ele><time>2026-04-25T13:02:51Z</time></trkpt><trkpt lat="42.391124565169534" lon="11.1868949161194"><ele>156.0</ele><time>2026-04-25T13:02:52Z</time></trkpt><trkpt lat="42.39117017291223" lon="11.186811662871577"><ele>154.66666666666666</ele><time>2026-04-25T13:02:53Z</time></trkpt><trkpt lat="42.391227342751016" lon="11.18671504085718"><ele>153.33333333333331</ele><time>2026-04-25T13:02:54Z</time></trkpt><trkpt lat="42.39128760579403" lon="11.1866160126245"><ele>152.0</ele><time>2026-04-25T13:02:55Z</time></trkpt><trkpt lat="42.39134918296558" lon="11.18651410990681"><ele>155.2</ele><time>2026-04-25T13:02:56Z</time></trkpt><trkpt lat="42.391391144002306" lon="11.186416223387107"><ele>158.39999999999998</ele><time>2026-04-25T13:02:57Z</time></trkpt><trkpt lat="42.39144925321886" lon="11.186336456532274"><ele>161.60000000000002</ele><time>2026-04-25T13:02:58Z</time></trkpt><trkpt lat="42.39150193075213" lon="11.186228144735674"><ele>164.8</ele><time>2026-04-25T13:02:59Z</time></trkpt><trkpt lat="42.39157024620142" lon="11.186091736179437"><ele>168.0</ele><time>2026-04-25T13:03:00Z</time></trkpt><trkpt lat="42.39163853947895" lon="11.186004231011335"><ele>168.0</ele><time>2026-04-25T13:03:01Z</time></trkpt><trkpt lat="42.39169064614167" lon="11.185945922409042"><ele>168.0</ele><time>2026-04-25T13:03:02Z</time></trkpt><trkpt lat="42.39175701809391" lon="11.185897239126737"><ele>168.0</ele><time>2026-04-25T13:03:03Z</time></trkpt><trkpt lat="42.39184042597874" lon="11.185842262605682"><ele>168.0</ele><time>2026-04-25T13:03:04Z</time></trkpt><trkpt lat="42.39194548695255" lon="11.185796649381036"><ele>168.0</ele><time>2026-04-25T13:03:05Z</time></trkpt><trkpt lat="42.392043201063515" lon="11.185720847519868"><ele>166.5</ele><time>2026-04-25T13:03:06Z</time></trkpt><trkpt lat="42.39212095788337" lon="11.185635086208723"><ele>165.0</ele><time>2026-04-25T13:03:07Z</time></trkpt><trkpt lat="42.39217818256308" lon="11.18552689950669"><ele>163.5</ele><time>2026-04-25T13:03:08Z</time></trkpt><trkpt lat="42.3922431489312" lon="11.18544042332775"><ele>162.0</ele><time>2026-04-25T13:03:09Z</time></trkpt><trkpt lat="42.39228612885643" lon="11.185375474645399"><ele>160.5</ele><time>2026-04-25T13:03:10Z</time></trkpt><trkpt lat="42.39235193197908" lon="11.185285930775178"><ele>159.0</ele><time>2026-04-25T13:03:12Z</time></trkpt><trkpt lat="42.39235737972127" lon="11.185450686636107"><ele>159.0</ele><time>2026-04-25T13:03:16Z</time></trkpt><trkpt lat="42.39232313203888" lon="11.185565255798435"><ele>159.0</ele><time>2026-04-25T13:03:17Z</time></trkpt><trkpt lat="42.39230471628572" lon="11.185685262228011"><ele>159.0</ele><time>2026-04-25T13:03:18Z</time></trkpt><trkpt lat="42.392282395507685" lon="11.185793643700565"><ele>159.0</ele><time>2026-04-25T13:03:19Z</time></trkpt><trkpt lat="42.39223594110642" lon="11.185924077084826"><ele>159.0</ele><time>2026-04-25T13:03:20Z</time></trkpt><trkpt lat="42.3921925497118" lon="11.186072873025589"><ele>157.25</ele><time>2026-04-25T13:03:21Z</time></trkpt><trkpt lat="42.39215124253668" lon="11.18623336458944"><ele>155.5</ele><time>2026-04-25T13:03:22Z</time></trkpt><trkpt lat="42.39210997039463" lon="11.186392522129909"><ele>153.75</ele><time>2026-04-25T13:03:23.001Z</time></trkpt><trkpt lat="42.392069928135584" lon="11.18656634636793"><ele>152.0</ele><time>2026-04-25T13:03:24.001Z</time></trkpt><trkpt lat="42.39202066206479" lon="11.18675636853481"><ele>152.0</ele><time>2026-04-25T13:03:25.001Z</time></trkpt><trkpt lat="42.39196410732637" lon="11.186937108890273"><ele>152.0</ele><time>2026-04-25T13:03:26.001Z</time></trkpt><trkpt lat="42.39190526746883" lon="11.187111867554057"><ele>152.0</ele><time>2026-04-25T13:03:27.001Z</time></trkpt><trkpt lat="42.3918700056604" lon="11.18728576423222"><ele>152.0</ele><time>2026-04-25T13:03:28.001Z</time></trkpt><trkpt lat="42.39181257204423" lon="11.187448072633568"><ele>149.79999999999998</ele><time>2026-04-25T13:03:29Z</time></trkpt><trkpt lat="42.39177588969139" lon="11.18760471041315"><ele>147.6</ele><time>2026-04-25T13:03:30Z</time></trkpt><trkpt lat="42.391756794459575" lon="11.18774711908752"><ele>145.39999999999998</ele><time>2026-04-25T13:03:31Z</time></trkpt><trkpt lat="42.391750583428696" lon="11.187863940903545"><ele>143.2</ele><time>2026-04-25T13:03:32Z</time></trkpt><trkpt lat="42.39178487877828" lon="11.187976001383934"><ele>141.0</ele><time>2026-04-25T13:03:33Z</time></trkpt><trkpt lat="42.39183811311742" lon="11.188094417085004"><ele>140.5</ele><time>2026-04-25T13:03:34Z</time></trkpt><trkpt lat="42.391892560210714" lon="11.188249826022425"><ele>140.0</ele><time>2026-04-25T13:03:35Z</time></trkpt><trkpt lat="42.39198207365937" lon="11.18840367155749"><ele>139.5</ele><time>2026-04-25T13:03:36Z</time></trkpt><trkpt lat="42.39205603306595" lon="11.188559794498772"><ele>139.0</ele><time>2026-04-25T13:03:37Z</time></trkpt><trkpt lat="42.392132860915446" lon="11.188722296334792"><ele>133.25</ele><time>2026-04-25T13:03:38Z</time></trkpt><trkpt lat="42.39220925010913" lon="11.188885300724792"><ele>127.5</ele><time>2026-04-25T13:03:39Z</time></trkpt><trkpt lat="42.39227988866288" lon="11.189053266657716"><ele>121.75</ele><time>2026-04-25T13:03:40Z</time></trkpt><trkpt lat="42.39235967959942" lon="11.189213166328548"><ele>116.0</ele><time>2026-04-25T13:03:41Z</time></trkpt><trkpt lat="42.392420960149046" lon="11.189363524031322"><ele>115.5</ele><time>2026-04-25T13:03:42Z</time></trkpt><trkpt lat="42.392490405348696" lon="11.189522024051087"><ele>115.0</ele><time>2026-04-25T13:03:43Z</time></trkpt><trkpt lat="42.392550962009274" lon="11.189662821564855"><ele>114.5</ele><time>2026-04-25T13:03:44Z</time></trkpt><trkpt lat="42.392609231773825" lon="11.18979361444578"><ele>114.0</ele><time>2026-04-25T13:03:45Z</time></trkpt><trkpt lat="42.39265967259061" lon="11.189914295625629"><ele>114.0</ele><time>2026-04-25T13:03:46Z</time></trkpt><trkpt lat="42.39271085445254" lon="11.19002012248027"><ele>114.0</ele><time>2026-04-25T13:03:47Z</time></trkpt><trkpt lat="42.392781472507444" lon="11.190128588416643"><ele>114.0</ele><time>2026-04-25T13:03:48Z</time></trkpt><trkpt lat="42.39283733804061" lon="11.190211239388695"><ele>114.0</ele><time>2026-04-25T13:03:49Z</time></trkpt><trkpt lat="42.392933413672516" lon="11.190309510675604"><ele>114.0</ele><time>2026-04-25T13:03:50Z</time></trkpt><trkpt lat="42.39298223233239" lon="11.190434612889945"><ele>109.6</ele><time>2026-04-25T13:03:51Z</time></trkpt><trkpt lat="42.393049813498315" lon="11.190577567089191"><ele>105.2</ele><time>2026-04-25T13:03:52Z</time></trkpt><trkpt lat="42.39309268141559" lon="11.190726341450565"><ele>100.8</ele><time>2026-04-25T13:03:53Z</time></trkpt><trkpt lat="42.393124231713706" lon="11.190851806430079"><ele>96.39999999999999</ele><time>2026-04-25T13:03:54Z</time></trkpt><trkpt lat="42.39316859900387" lon="11.190971181277597"><ele>92.0</ele><time>2026-04-25T13:03:55Z</time></trkpt><trkpt lat="42.393220018440346" lon="11.191076709150671"><ele>91.66666666666667</ele><time>2026-04-25T13:03:56Z</time></trkpt><trkpt lat="42.39325010421385" lon="11.19116896696127"><ele>91.33333333333334</ele><time>2026-04-25T13:03:57Z</time></trkpt><trkpt lat="42.39332421714743" lon="11.191283224729082"><ele>91.0</ele><time>2026-04-25T13:03:59Z</time></trkpt><trkpt lat="42.3933860910072" lon="11.191342635773946"><ele>90.66666666666667</ele><time>2026-04-25T13:04:00Z</time></trkpt><trkpt lat="42.39342819866562" lon="11.191443836285654"><ele>90.33333333333333</ele><time>2026-04-25T13:04:01Z</time></trkpt><trkpt lat="42.39347764274472" lon="11.191535715418405"><ele>90.0</ele><time>2026-04-25T13:04:02Z</time></trkpt><trkpt lat="42.39352826851096" lon="11.1916257379952"><ele>89.33333333333333</ele><time>2026-04-25T13:04:03Z</time></trkpt><trkpt lat="42.39355868135922" lon="11.191747846854234"><ele>88.66666666666667</ele><time>2026-04-25T13:04:04Z</time></trkpt><trkpt lat="42.39358449480687" lon="11.191872148197106"><ele>88.0</ele><time>2026-04-25T13:04:05Z</time></trkpt><trkpt lat="42.393601224477266" lon="11.191957647567467"><ele>87.33333333333334</ele><time>2026-04-25T13:04:06Z</time></trkpt><trkpt lat="42.39355723067173" lon="11.192117002386354"><ele>86.66666666666667</ele><time>2026-04-25T13:04:08Z</time></trkpt><trkpt lat="42.3935028046098" lon="11.192162110259932"><ele>86.0</ele><time>2026-04-25T13:04:09Z</time></trkpt><trkpt lat="42.39337347023763" lon="11.192202907616306"><ele>86.0</ele><time>2026-04-25T13:04:11Z</time></trkpt><trkpt lat="42.39330390990312" lon="11.192224343819145"><ele>86.0</ele><time>2026-04-25T13:04:12Z</time></trkpt><trkpt lat="42.39320713743385" lon="11.192290716772119"><ele>86.0</ele><time>2026-04-25T13:04:14Z</time></trkpt><trkpt lat="42.39316914868336" lon="11.19235903961561"><ele>86.0</ele><time>2026-04-25T13:04:15Z</time></trkpt><trkpt lat="42.39315725873883" lon="11.19250075627731"><ele>86.0</ele><time>2026-04-25T13:04:16Z</time></trkpt><trkpt lat="42.39314977473266" lon="11.192642328065629"><ele>84.16666666666667</ele><time>2026-04-25T13:04:17Z</time></trkpt><trkpt lat="42.39312967693452" lon="11.192784325999606"><ele>82.33333333333334</ele><time>2026-04-25T13:04:18Z</time></trkpt><trkpt lat="42.39310401525943" lon="11.192901747601722"><ele>80.5</ele><time>2026-04-25T13:04:19Z</time></trkpt><trkpt lat="42.39309099230078" lon="11.193012032400619"><ele>78.66666666666667</ele><time>2026-04-25T13:04:20Z</time></trkpt><trkpt lat="42.39307396710394" lon="11.193113383922649"><ele>76.83333333333333</ele><time>2026-04-25T13:04:21Z</time></trkpt><trkpt lat="42.39304510599546" lon="11.193193108892727"><ele>75.0</ele><time>2026-04-25T13:04:22Z</time></trkpt><trkpt lat="42.39297758975795" lon="11.193204548206996"><ele>75.2</ele><time>2026-04-25T13:04:23Z</time></trkpt><trkpt lat="42.392858584870545" lon="11.19314809075784"><ele>75.4</ele><time>2026-04-25T13:04:25Z</time></trkpt><trkpt lat="42.39279480256334" lon="11.19307098987222"><ele>75.6</ele><time>2026-04-25T13:04:26Z</time></trkpt><trkpt lat="42.392725631111055" lon="11.19303252323119"><ele>75.8</ele><time>2026-04-25T13:04:27Z</time></trkpt><trkpt lat="42.392668882789536" lon="11.192988392574069"><ele>76.0</ele><time>2026-04-25T13:04:28Z</time></trkpt><trkpt lat="42.39256524546634" lon="11.193001004333528"><ele>72.5</ele><time>2026-04-25T13:04:30Z</time></trkpt><trkpt lat="42.39260306200279" lon="11.193175081340659"><ele>69.0</ele><time>2026-04-25T13:04:32Z</time></trkpt><trkpt lat="42.39267446178227" lon="11.19328223890822"><ele>65.5</ele><time>2026-04-25T13:04:33Z</time></trkpt><trkpt lat="42.39272956000245" lon="11.19341974456155"><ele>62.0</ele><time>2026-04-25T13:04:34Z</time></trkpt><trkpt lat="42.39280084012272" lon="11.193556208182791"><ele>62.0</ele><time>2026-04-25T13:04:35Z</time></trkpt><trkpt lat="42.39288450360246" lon="11.193713101037353"><ele>62.0</ele><time>2026-04-25T13:04:36Z</time></trkpt><trkpt lat="42.39297188984824" lon="11.193875175939876"><ele>62.0</ele><time>2026-04-25T13:04:37Z</time></trkpt><trkpt lat="42.39305573376965" lon="11.194011982812578"><ele>62.0</ele><time>2026-04-25T13:04:38Z</time></trkpt><trkpt lat="42.39313560570188" lon="11.194151518550244"><ele>59.833333333333336</ele><time>2026-04-25T13:04:39Z</time></trkpt><trkpt lat="42.39319530790846" lon="11.194272761658297"><ele>57.66666666666667</ele><time>2026-04-25T13:04:40Z</time></trkpt><trkpt lat="42.39324274766742" lon="11.194370522808025"><ele>55.5</ele><time>2026-04-25T13:04:41Z</time></trkpt><trkpt lat="42.39327799915837" lon="11.19444830069224"><ele>53.33333333333333</ele><time>2026-04-25T13:04:42Z</time></trkpt><trkpt lat="42.39328762044477" lon="11.194594713457516"><ele>51.166666666666664</ele><time>2026-04-25T13:04:44Z</time></trkpt><trkpt lat="42.3932310889752" lon="11.19465843260183"><ele>49.0</ele><time>2026-04-25T13:04:45Z</time></trkpt><trkpt lat="42.393138942818496" lon="11.194703830691811"><ele>49.0</ele><time>2026-04-25T13:04:46Z</time></trkpt><trkpt lat="42.39305168041887" lon="11.194791073462108"><ele>49.0</ele><time>2026-04-25T13:04:47Z</time></trkpt><trkpt lat="42.39295935777269" lon="11.194863096083626"><ele>49.0</ele><time>2026-04-25T13:04:48Z</time></trkpt><trkpt lat="42.39286165264621" lon="11.194952971507227"><ele>49.0</ele><time>2026-04-25T13:04:49Z</time></trkpt><trkpt lat="42.3927717779087" lon="11.195037928155697"><ele>49.0</ele><time>2026-04-25T13:04:50Z</time></trkpt><trkpt lat="42.392684708077816" lon="11.195121479182527"><ele>48.0</ele><time>2026-04-25T13:04:51Z</time></trkpt><trkpt lat="42.392605196650486" lon="11.195194110117237"><ele>47.0</ele><time>2026-04-25T13:04:52Z</time></trkpt><trkpt lat="42.39253213743573" lon="11.195260403227092"><ele>46.0</ele><time>2026-04-25T13:04:53Z</time></trkpt><trkpt lat="42.39245410088286" lon="11.195333550167696"><ele>45.0</ele><time>2026-04-25T13:04:54Z</time></trkpt><trkpt lat="42.392391109093516" lon="11.19541930064113"><ele>44.0</ele><time>2026-04-25T13:04:55Z</time></trkpt><trkpt lat="42.39234053961881" lon="11.195528061304017"><ele>44.0</ele><time>2026-04-25T13:04:56Z</time></trkpt><trkpt lat="42.39228907229849" lon="11.195659411121122"><ele>44.0</ele><time>2026-04-25T13:04:57Z</time></trkpt><trkpt lat="42.392214457201575" lon="11.19575964338706"><ele>44.0</ele><time>2026-04-25T13:04:58Z</time></trkpt><trkpt lat="42.39217012752654" lon="11.195864882259047"><ele>44.0</ele><time>2026-04-25T13:04:59Z</time></trkpt><trkpt lat="42.392134654028304" lon="11.195954510566422"><ele>44.0</ele><time>2026-04-25T13:04:59.999Z</time></trkpt><trkpt lat="42.39209650267156" lon="11.196072228100952"><ele>44.2</ele><time>2026-04-25T13:05:01.999Z</time></trkpt><trkpt lat="42.392043083908284" lon="11.196149508170956"><ele>44.400000000000006</ele><time>2026-04-25T13:05:08.999Z</time></trkpt><trkpt lat="42.39191920634676" lon="11.196056385531923"><ele>44.6</ele><time>2026-04-25T13:05:09.999Z</time></trkpt><trkpt lat="42.39183039863935" lon="11.196044918143802"><ele>44.8</ele><time>2026-04-25T13:05:10.999Z</time></trkpt><trkpt lat="42.39172334224948" lon="11.196004812157371"><ele>45.0</ele><time>2026-04-25T13:05:11.999Z</time></trkpt><trkpt lat="42.39161040916" lon="11.195947583937182"><ele>45.0</ele><time>2026-04-25T13:05:12.999Z</time></trkpt><trkpt lat="42.39148740897964" lon="11.195866196212203"><ele>45.0</ele><time>2026-04-25T13:05:13.999Z</time></trkpt><trkpt lat="42.39137290220567" lon="11.195762970596736"><ele>45.0</ele><time>2026-04-25T13:05:14.999Z</time></trkpt><trkpt lat="42.3912612611201" lon="11.195636039463231"><ele>45.0</ele><time>2026-04-25T13:05:15.999Z</time></trkpt><trkpt lat="42.39114500659678" lon="11.195490989260579"><ele>46.5</ele><time>2026-04-25T13:05:16.999Z</time></trkpt><trkpt lat="42.391055727917774" lon="11.195337990303692"><ele>48.0</ele><time>2026-04-25T13:05:17.999Z</time></trkpt><trkpt lat="42.39096004851176" lon="11.195203366403877"><ele>49.5</ele><time>2026-04-25T13:05:18.999Z</time></trkpt><trkpt lat="42.39087167062932" lon="11.195075522728386"><ele>51.0</ele><time>2026-04-25T13:05:19.999Z</time></trkpt><trkpt lat="42.39078459409584" lon="11.19494681374598"><ele>51.0</ele><time>2026-04-25T13:05:20.999Z</time></trkpt><trkpt lat="42.390614028583684" lon="11.194727748456712"><ele>51.0</ele><time>2026-04-25T13:05:21.999Z</time></trkpt><trkpt lat="42.39051502335238" lon="11.194574876394583"><ele>51.0</ele><time>2026-04-25T13:05:22.999Z</time></trkpt><trkpt lat="42.390408292361634" lon="11.194436479122082"><ele>53.66666666666667</ele><time>2026-04-25T13:05:23.999Z</time></trkpt><trkpt lat="42.390283184164176" lon="11.19432553271026"><ele>56.333333333333336</ele><time>2026-04-25T13:05:24.999Z</time></trkpt><trkpt lat="42.39013796584418" lon="11.194272368793358"><ele>59.0</ele><time>2026-04-25T13:05:25.999Z</time></trkpt><trkpt lat="42.389979846181156" lon="11.194245795239082"><ele>59.0</ele><time>2026-04-25T13:05:26.999Z</time></trkpt><trkpt lat="42.38981538964159" lon="11.194235030802131"><ele>59.0</ele><time>2026-04-25T13:05:27.999Z</time></trkpt><trkpt lat="42.38964295943726" lon="11.194205259244368"><ele>59.0</ele><time>2026-04-25T13:05:28.999Z</time></trkpt><trkpt lat="42.38947778877636" lon="11.194164630156402"><ele>61.0</ele><time>2026-04-25T13:05:29.999Z</time></trkpt><trkpt lat="42.38934060647569" lon="11.194153501063505"><ele>63.0</ele><time>2026-04-25T13:05:30.999Z</time></trkpt><trkpt lat="42.38920164637706" lon="11.194129464476074"><ele>65.0</ele><time>2026-04-25T13:05:31.999Z</time></trkpt><trkpt lat="42.38905531720479" lon="11.194091192333403"><ele>67.0</ele><time>2026-04-25T13:05:32.999Z</time></trkpt><trkpt lat="42.388914261217664" lon="11.194057934977865"><ele>68.75</ele><time>2026-04-25T13:05:33.999Z</time></trkpt><trkpt lat="42.38876871329145" lon="11.194022614810867"><ele>70.5</ele><time>2026-04-25T13:05:34.999Z</time></trkpt><trkpt lat="42.388620792237845" lon="11.19400074464622"><ele>72.25</ele><time>2026-04-25T13:05:35.999Z</time></trkpt><trkpt lat="42.3884787323795" lon="11.193987018701383"><ele>74.0</ele><time>2026-04-25T13:05:36.999Z</time></trkpt><trkpt lat="42.38834077416628" lon="11.193978415882976"><ele>76.75</ele><time>2026-04-25T13:05:37.999Z</time></trkpt><trkpt lat="42.38821493369475" lon="11.193974311419966"><ele>79.5</ele><time>2026-04-25T13:05:38.999Z</time></trkpt><trkpt lat="42.38809185188397" lon="11.193970979185062"><ele>82.25</ele><time>2026-04-25T13:05:39.999Z</time></trkpt><trkpt lat="42.387972902752566" lon="11.193973125334985"><ele>85.0</ele><time>2026-04-25T13:05:40.999Z</time></trkpt><trkpt lat="42.387850446972756" lon="11.193977925162883"><ele>86.25</ele><time>2026-04-25T13:05:41.999Z</time></trkpt><trkpt lat="42.38773268205783" lon="11.193925218073694"><ele>87.5</ele><time>2026-04-25T13:05:42.999Z</time></trkpt><trkpt lat="42.38762061492117" lon="11.193849421919898"><ele>88.75</ele><time>2026-04-25T13:05:43.999Z</time></trkpt><trkpt lat="42.387517907252544" lon="11.19373796366623"><ele>90.0</ele><time>2026-04-25T13:05:44.999Z</time></trkpt><trkpt lat="42.387409234721176" lon="11.193626376587854"><ele>90.0</ele><time>2026-04-25T13:05:45.999Z</time></trkpt><trkpt lat="42.38729393257345" lon="11.193538037554795"><ele>90.0</ele><time>2026-04-25T13:05:46.999Z</time></trkpt><trkpt lat="42.38719871252383" lon="11.193437565036684"><ele>90.0</ele><time>2026-04-25T13:05:47.999Z</time></trkpt><trkpt lat="42.387105027206744" lon="11.193351137103122"><ele>90.0</ele><time>2026-04-25T13:05:48.999Z</time></trkpt><trkpt lat="42.38701986968498" lon="11.193297587447644"><ele>90.8</ele><time>2026-04-25T13:05:49.999Z</time></trkpt><trkpt lat="42.386930536257374" lon="11.193305963950227"><ele>91.6</ele><time>2026-04-25T13:05:50.999Z</time></trkpt><trkpt lat="42.38685195118712" lon="11.193380090214841"><ele>92.4</ele><time>2026-04-25T13:05:51.999Z</time></trkpt><trkpt lat="42.3867745512898" lon="11.193508530342735"><ele>93.2</ele><time>2026-04-25T13:05:52.999Z</time></trkpt><trkpt lat="42.38668312718935" lon="11.193596413780655"><ele>94.0</ele><time>2026-04-25T13:05:53.999Z</time></trkpt><trkpt lat="42.38656890146531" lon="11.19361589099056"><ele>94.0</ele><time>2026-04-25T13:05:54.999Z</time></trkpt><trkpt lat="42.386436180500006" lon="11.193645056014399"><ele>94.0</ele><time>2026-04-25T13:05:55.999Z</time></trkpt><trkpt lat="42.38629226144166" lon="11.193684697106994"><ele>94.0</ele><time>2026-04-25T13:05:56.999Z</time></trkpt><trkpt lat="42.38614993590922" lon="11.193708336783985"><ele>94.0</ele><time>2026-04-25T13:05:57.999Z</time></trkpt><trkpt lat="42.38601153241045" lon="11.193738168507343"><ele>97.0</ele><time>2026-04-25T13:05:58.999Z</time></trkpt><trkpt lat="42.38587205886083" lon="11.19376458806611"><ele>100.0</ele><time>2026-04-25T13:05:59.999Z</time></trkpt><trkpt lat="42.385731263976474" lon="11.193781468517635"><ele>103.0</ele><time>2026-04-25T13:06:00.999Z</time></trkpt><trkpt lat="42.38558620909882" lon="11.193734385110174"><ele>106.0</ele><time>2026-04-25T13:06:01.999Z</time></trkpt><trkpt lat="42.3854409928493" lon="11.193709033037948"><ele>107.0</ele><time>2026-04-25T13:06:02.999Z</time></trkpt><trkpt lat="42.38528611678774" lon="11.193648211169597"><ele>108.0</ele><time>2026-04-25T13:06:03.999Z</time></trkpt><trkpt lat="42.385135022713314" lon="11.193585887352475"><ele>109.0</ele><time>2026-04-25T13:06:04.999Z</time></trkpt><trkpt lat="42.38500531346292" lon="11.193521962685988"><ele>109.0</ele><time>2026-04-25T13:06:05.999Z</time></trkpt><trkpt lat="42.384899338775824" lon="11.193474845568431"><ele>109.0</ele><time>2026-04-25T13:06:06.999Z</time></trkpt><trkpt lat="42.384799918669174" lon="11.193464018542741"><ele>109.0</ele><time>2026-04-25T13:06:07.999Z</time></trkpt><trkpt lat="42.384717788058026" lon="11.193495345296437"><ele>109.0</ele><time>2026-04-25T13:06:08.999Z</time></trkpt><trkpt lat="42.38465732237064" lon="11.193572273362651"><ele>109.0</ele><time>2026-04-25T13:06:09.999Z</time></trkpt><trkpt lat="42.38461346781802" lon="11.193690643509923"><ele>109.80000000000001</ele><time>2026-04-25T13:06:10.999Z</time></trkpt><trkpt lat="42.38459358356333" lon="11.19382016780085"><ele>110.60000000000001</ele><time>2026-04-25T13:06:11.999Z</time></trkpt><trkpt lat="42.384581968140104" lon="11.193957805404253"><ele>111.4</ele><time>2026-04-25T13:06:12.999Z</time></trkpt><trkpt lat="42.38457916722804" lon="11.194096770515324"><ele>112.2</ele><time>2026-04-25T13:06:13.999Z</time></trkpt><trkpt lat="42.38458906173861" lon="11.194208551257994"><ele>113.0</ele><time>2026-04-25T13:06:14.999Z</time></trkpt><trkpt lat="42.38460517568123" lon="11.194292299832764"><ele>110.4</ele><time>2026-04-25T13:06:15.999Z</time></trkpt><trkpt lat="42.384614831772744" lon="11.19440181338008"><ele>107.80000000000001</ele><time>2026-04-25T13:06:17.999Z</time></trkpt><trkpt lat="42.38463535324989" lon="11.194487161071727"><ele>105.2</ele><time>2026-04-25T13:06:42.999Z</time></trkpt><trkpt lat="42.38460790965811" lon="11.194314753351978"><ele>102.6</ele><time>2026-04-25T13:06:45.999Z</time></trkpt><trkpt lat="42.384524798107115" lon="11.194232637668165"><ele>100.0</ele><time>2026-04-25T13:06:47.999Z</time></trkpt><trkpt lat="42.384271264109486" lon="11.194074471043498"><ele>102.25</ele><time>2026-04-25T13:06:48.999Z</time></trkpt><trkpt lat="42.3842163842249" lon="11.19386019649801"><ele>104.5</ele><time>2026-04-25T13:06:49.999Z</time></trkpt><trkpt lat="42.38419898783158" lon="11.193733120445755"><ele>106.75</ele><time>2026-04-25T13:06:50.999Z</time></trkpt><trkpt lat="42.38420906268511" lon="11.193622643465751"><ele>109.0</ele><time>2026-04-25T13:06:51.999Z</time></trkpt><trkpt lat="42.38486527799155" lon="11.19347890547397"><ele>109.0</ele><time>2026-04-25T13:06:53.999Z</time></trkpt><trkpt lat="42.38497456626749" lon="11.193512375352345"><ele>109.0</ele><time>2026-04-25T13:06:54.999Z</time></trkpt><trkpt lat="42.385100992554705" lon="11.193572883881723"><ele>109.0</ele><time>2026-04-25T13:06:55.999Z</time></trkpt><trkpt lat="42.385233737806004" lon="11.193627637399777"><ele>109.0</ele><time>2026-04-25T13:06:56.999Z</time></trkpt><trkpt lat="42.38537109991662" lon="11.193687201120797"><ele>109.0</ele><time>2026-04-25T13:06:57.999Z</time></trkpt><trkpt lat="42.385507546963595" lon="11.193753498879827"><ele>109.0</ele><time>2026-04-25T13:06:58.999Z</time></trkpt><trkpt lat="42.385655067200275" lon="11.193794442294047"><ele>109.0</ele><time>2026-04-25T13:06:59.999Z</time></trkpt><trkpt lat="42.385817213879875" lon="11.193807431125014"><ele>108.0</ele><time>2026-04-25T13:07:00.999Z</time></trkpt><trkpt lat="42.38597361902846" lon="11.193775088609144"><ele>107.0</ele><time>2026-04-25T13:07:01.999Z</time></trkpt><trkpt lat="42.38612955641536" lon="11.193735663317328"><ele>106.0</ele><time>2026-04-25T13:07:02.999Z</time></trkpt><trkpt lat="42.38629028010786" lon="11.193708988571757"><ele>103.0</ele><time>2026-04-25T13:07:03.999Z</time></trkpt><trkpt lat="42.38643994577397" lon="11.193676506128574"><ele>100.0</ele><time>2026-04-25T13:07:04.999Z</time></trkpt><trkpt lat="42.38657679429521" lon="11.193648303120074"><ele>97.0</ele><time>2026-04-25T13:07:05.999Z</time></trkpt><trkpt lat="42.3867031148219" lon="11.193611024456397"><ele>94.0</ele><time>2026-04-25T13:07:06.999Z</time></trkpt><trkpt lat="42.38681864577659" lon="11.193536053151373"><ele>94.0</ele><time>2026-04-25T13:07:07.999Z</time></trkpt><trkpt lat="42.38691405010168" lon="11.193430804612504"><ele>94.0</ele><time>2026-04-25T13:07:08.999Z</time></trkpt><trkpt lat="42.38699509713185" lon="11.193355904217004"><ele>94.0</ele><time>2026-04-25T13:07:09.999Z</time></trkpt><trkpt lat="42.387075887883" lon="11.193348310819209"><ele>94.0</ele><time>2026-04-25T13:07:10.999Z</time></trkpt><trkpt lat="42.387155260637556" lon="11.193395370533331"><ele>94.0</ele><time>2026-04-25T13:07:11.999Z</time></trkpt><trkpt lat="42.38723737361745" lon="11.193485587718772"><ele>93.0</ele><time>2026-04-25T13:07:12.999Z</time></trkpt><trkpt lat="42.3873203405616" lon="11.1935909002576"><ele>92.0</ele><time>2026-04-25T13:07:13.999Z</time></trkpt><trkpt lat="42.387421337456665" lon="11.19369715985101"><ele>91.0</ele><time>2026-04-25T13:07:14.999Z</time></trkpt><trkpt lat="42.38752906326741" lon="11.193803767625987"><ele>90.0</ele><time>2026-04-25T13:07:15.999Z</time></trkpt><trkpt lat="42.387638102456634" lon="11.19390770905624"><ele>90.0</ele><time>2026-04-25T13:07:16.999Z</time></trkpt><trkpt lat="42.3877569879311" lon="11.193982323416213"><ele>90.0</ele><time>2026-04-25T13:07:17.999Z</time></trkpt><trkpt lat="42.38789450035026" lon="11.194016733588587"><ele>90.0</ele><time>2026-04-25T13:07:18.999Z</time></trkpt><trkpt lat="42.38804701512911" lon="11.194019527395142"><ele>90.0</ele><time>2026-04-25T13:07:19.999Z</time></trkpt><trkpt lat="42.388206816311126" lon="11.194003257157634"><ele>88.33333333333333</ele><time>2026-04-25T13:07:20.999Z</time></trkpt><trkpt lat="42.38837266663271" lon="11.194000175665021"><ele>86.66666666666666</ele><time>2026-04-25T13:07:21.999Z</time></trkpt><trkpt lat="42.388550879480825" lon="11.194021027995301"><ele>85.0</ele><time>2026-04-25T13:07:22.999Z</time></trkpt><trkpt lat="42.38873104653748" lon="11.194050047438436"><ele>79.0</ele><time>2026-04-25T13:07:23.999Z</time></trkpt><trkpt lat="42.388900462562795" lon="11.1940824789676"><ele>73.0</ele><time>2026-04-25T13:07:24.999Z</time></trkpt><trkpt lat="42.38906779903695" lon="11.194111771350327"><ele>67.0</ele><time>2026-04-25T13:07:25.999Z</time></trkpt><trkpt lat="42.38922168830769" lon="11.194151677042925"><ele>67.0</ele><time>2026-04-25T13:07:26.999Z</time></trkpt><trkpt lat="42.38938190690388" lon="11.194184590269948"><ele>67.0</ele><time>2026-04-25T13:07:27.999Z</time></trkpt><trkpt lat="42.3895311068987" lon="11.194215231316594"><ele>67.0</ele><time>2026-04-25T13:07:28.998Z</time></trkpt><trkpt lat="42.389670726575886" lon="11.194242107458305"><ele>65.0</ele><time>2026-04-25T13:07:29.998Z</time></trkpt><trkpt lat="42.389811237336176" lon="11.194269921092689"><ele>63.0</ele><time>2026-04-25T13:07:30.998Z</time></trkpt><trkpt lat="42.38994679596716" lon="11.194298299406633"><ele>61.0</ele><time>2026-04-25T13:07:31.998Z</time></trkpt><trkpt lat="42.3900793309526" lon="11.19432856394443"><ele>59.0</ele><time>2026-04-25T13:07:32.998Z</time></trkpt><trkpt lat="42.39020167859992" lon="11.19436088264284"><ele>59.0</ele><time>2026-04-25T13:07:33.998Z</time></trkpt><trkpt lat="42.39033522565884" lon="11.194410955446168"><ele>59.0</ele><time>2026-04-25T13:07:34.998Z</time></trkpt><trkpt lat="42.39045124591635" lon="11.194549236537876"><ele>59.0</ele><time>2026-04-25T13:07:35.998Z</time></trkpt><trkpt lat="42.390567407113124" lon="11.1946847723722"><ele>59.0</ele><time>2026-04-25T13:07:36.998Z</time></trkpt><trkpt lat="42.39066506551803" lon="11.194862802285554"><ele>56.333333333333336</ele><time>2026-04-25T13:07:37.998Z</time></trkpt><trkpt lat="42.39078610180951" lon="11.195021313740925"><ele>53.66666666666667</ele><time>2026-04-25T13:07:38.998Z</time></trkpt><trkpt lat="42.39091812193712" lon="11.195190580174632"><ele>51.0</ele><time>2026-04-25T13:07:39.998Z</time></trkpt><trkpt lat="42.391043630825365" lon="11.19537645008923"><ele>51.0</ele><time>2026-04-25T13:07:40.998Z</time></trkpt><trkpt lat="42.39116533931922" lon="11.195551214890603"><ele>51.0</ele><time>2026-04-25T13:07:41.998Z</time></trkpt><trkpt lat="42.39128871002285" lon="11.195707153113883"><ele>51.0</ele><time>2026-04-25T13:07:42.998Z</time></trkpt><trkpt lat="42.391414787579485" lon="11.195843720909405"><ele>49.0</ele><time>2026-04-25T13:07:43.998Z</time></trkpt><trkpt lat="42.3915534772247" lon="11.195956532519837"><ele>47.0</ele><time>2026-04-25T13:07:44.998Z</time></trkpt><trkpt lat="42.39169649180063" lon="11.196021715090057"><ele>45.0</ele><time>2026-04-25T13:07:45.998Z</time></trkpt><trkpt lat="42.391846683557496" lon="11.196063281619715"><ele>45.0</ele><time>2026-04-25T13:07:46.998Z</time></trkpt><trkpt lat="42.39200516361751" lon="11.196110355230834"><ele>45.0</ele><time>2026-04-25T13:07:47.998Z</time></trkpt><trkpt lat="42.39216355278053" lon="11.196166612503632"><ele>45.0</ele><time>2026-04-25T13:07:48.998Z</time></trkpt><trkpt lat="42.39230810936332" lon="11.196220592937415"><ele>45.0</ele><time>2026-04-25T13:07:49.998Z</time></trkpt><trkpt lat="42.392446687467846" lon="11.19628988726628"><ele>45.0</ele><time>2026-04-25T13:07:50.998Z</time></trkpt><trkpt lat="42.39257645923267" lon="11.196363966584432"><ele>45.0</ele><time>2026-04-25T13:07:51.998Z</time></trkpt><trkpt lat="42.39270945119711" lon="11.196452157765204"><ele>45.0</ele><time>2026-04-25T13:07:52.998Z</time></trkpt><trkpt lat="42.39283230617874" lon="11.196551394380252"><ele>45.0</ele><time>2026-04-25T13:07:53.998Z</time></trkpt><trkpt lat="42.39295807679656" lon="11.196658871775577"><ele>45.0</ele><time>2026-04-25T13:07:54.999Z</time></trkpt><trkpt lat="42.393072166663366" lon="11.196769377245802"><ele>45.0</ele><time>2026-04-25T13:07:55.999Z</time></trkpt><trkpt lat="42.393182788141196" lon="11.19688721848955"><ele>45.0</ele><time>2026-04-25T13:07:56.999Z</time></trkpt><trkpt lat="42.393279369917984" lon="11.197019405236752"><ele>44.75</ele><time>2026-04-25T13:07:57.999Z</time></trkpt><trkpt lat="42.39337690824312" lon="11.197161730241735"><ele>44.5</ele><time>2026-04-25T13:07:58.999Z</time></trkpt><trkpt lat="42.39347300227333" lon="11.197317720239798"><ele>44.25</ele><time>2026-04-25T13:07:59.999Z</time></trkpt><trkpt lat="42.39357323398948" lon="11.19747635323389"><ele>44.0</ele><time>2026-04-25T13:08:00.999Z</time></trkpt><trkpt lat="42.39368487995607" lon="11.197643740829015"><ele>44.0</ele><time>2026-04-25T13:08:01.999Z</time></trkpt><trkpt lat="42.39379575149023" lon="11.197805512656473"><ele>44.0</ele><time>2026-04-25T13:08:02.999Z</time></trkpt><trkpt lat="42.39391494834776" lon="11.19794141388682"><ele>44.0</ele><time>2026-04-25T13:08:03.999Z</time></trkpt><trkpt lat="42.39404287185308" lon="11.198047740769287"><ele>43.0</ele><time>2026-04-25T13:08:04.999Z</time></trkpt><trkpt lat="42.39418328654276" lon="11.198109531834056"><ele>42.0</ele><time>2026-04-25T13:08:05.999Z</time></trkpt><trkpt lat="42.3943371946002" lon="11.198156544080172"><ele>41.0</ele><time>2026-04-25T13:08:06.999Z</time></trkpt><trkpt lat="42.39449953107856" lon="11.19819699897669"><ele>41.0</ele><time>2026-04-25T13:08:07.999Z</time></trkpt><trkpt lat="42.39465823814527" lon="11.19821280210336"><ele>41.0</ele><time>2026-04-25T13:08:08.999Z</time></trkpt><trkpt lat="42.394804114915566" lon="11.198204535410037"><ele>41.0</ele><time>2026-04-25T13:08:09.999Z</time></trkpt><trkpt lat="42.39493807219182" lon="11.198210246243402"><ele>41.0</ele><time>2026-04-25T13:08:10.999Z</time></trkpt><trkpt lat="42.395065540425755" lon="11.198259166321638"><ele>39.75</ele><time>2026-04-25T13:08:11.999Z</time></trkpt><trkpt lat="42.3951918243601" lon="11.19833771238519"><ele>38.5</ele><time>2026-04-25T13:08:12.999Z</time></trkpt><trkpt lat="42.39531808512045" lon="11.198449173035623"><ele>37.25</ele><time>2026-04-25T13:08:13.999Z</time></trkpt><trkpt lat="42.395424048453265" lon="11.198580449499431"><ele>36.0</ele><time>2026-04-25T13:08:14.999Z</time></trkpt><trkpt lat="42.39551076505794" lon="11.198731115152453"><ele>34.0</ele><time>2026-04-25T13:08:15.999Z</time></trkpt><trkpt lat="42.39558493191195" lon="11.198914516485852"><ele>32.0</ele><time>2026-04-25T13:08:16.999Z</time></trkpt><trkpt lat="42.39563342893946" lon="11.199104550392022"><ele>30.0</ele><time>2026-04-25T13:08:17.999Z</time></trkpt><trkpt lat="42.395677324609345" lon="11.199276482948576"><ele>28.0</ele><time>2026-04-25T13:08:18.999Z</time></trkpt><trkpt lat="42.39572666824543" lon="11.199418979425639"><ele>28.0</ele><time>2026-04-25T13:08:19.999Z</time></trkpt><trkpt lat="42.39573162297571" lon="11.199599902971302"><ele>28.0</ele><time>2026-04-25T13:08:20.999Z</time></trkpt><trkpt lat="42.3958913610924" lon="11.199654794671039"><ele>28.0</ele><time>2026-04-25T13:08:21.999Z</time></trkpt><trkpt lat="42.396001802649046" lon="11.199757854859243"><ele>28.0</ele><time>2026-04-25T13:08:22.999Z</time></trkpt><trkpt lat="42.39610914692781" lon="11.199879704767875"><ele>29.0</ele><time>2026-04-25T13:08:23.999Z</time></trkpt><trkpt lat="42.39619207377982" lon="11.199993116326874"><ele>29.999999999999996</ele><time>2026-04-25T13:08:24.999Z</time></trkpt><trkpt lat="42.396268919181175" lon="11.200104568884518"><ele>30.999999999999996</ele><time>2026-04-25T13:08:25.999Z</time></trkpt><trkpt lat="42.3963267474506" lon="11.200197016833972"><ele>32.0</ele><time>2026-04-25T13:08:26.999Z</time></trkpt><trkpt lat="42.39637605381608" lon="11.200297554743887"><ele>33.0</ele><time>2026-04-25T13:08:27.999Z</time></trkpt><trkpt lat="42.396418462616424" lon="11.200391979607783"><ele>30.666666666666668</ele><time>2026-04-25T13:08:28.999Z</time></trkpt><trkpt lat="42.39645325443338" lon="11.200476231553063"><ele>28.333333333333332</ele><time>2026-04-25T13:08:29.999Z</time></trkpt><trkpt lat="42.39649848007214" lon="11.200578093790362"><ele>26.0</ele><time>2026-04-25T13:08:31.999Z</time></trkpt><trkpt lat="42.3965610704691" lon="11.200589797479594"><ele>23.666666666666664</ele><time>2026-04-25T13:08:32.999Z</time></trkpt><trkpt lat="42.39665205158843" lon="11.200531981642685"><ele>21.333333333333332</ele><time>2026-04-25T13:08:33.999Z</time></trkpt><trkpt lat="42.39675329776684" lon="11.200506487505754"><ele>19.0</ele><time>2026-04-25T13:08:34.999Z</time></trkpt><trkpt lat="42.396860792411644" lon="11.200469357200543"><ele>19.0</ele><time>2026-04-25T13:08:35.999Z</time></trkpt><trkpt lat="42.39697748439949" lon="11.20041111327718"><ele>19.0</ele><time>2026-04-25T13:08:36.999Z</time></trkpt><trkpt lat="42.39712762955268" lon="11.200369321870715"><ele>19.0</ele><time>2026-04-25T13:08:37.999Z</time></trkpt><trkpt lat="42.39728093320447" lon="11.200328577201462"><ele>19.0</ele><time>2026-04-25T13:08:38.999Z</time></trkpt><trkpt lat="42.39736702565485" lon="11.200282528833851"><ele>18.0</ele><time>2026-04-25T13:08:39.999Z</time></trkpt><trkpt lat="42.39749945108479" lon="11.20023877122299"><ele>17.0</ele><time>2026-04-25T13:08:40.999Z</time></trkpt><trkpt lat="42.39763006940634" lon="11.200196849853116"><ele>16.0</ele><time>2026-04-25T13:08:41.999Z</time></trkpt><trkpt lat="42.39777022069496" lon="11.200149431320648"><ele>15.0</ele><time>2026-04-25T13:08:42.999Z</time></trkpt><trkpt lat="42.39790961428109" lon="11.200097198836124"><ele>15.0</ele><time>2026-04-25T13:08:43.999Z</time></trkpt><trkpt lat="42.398016845029154" lon="11.20005680737523"><ele>15.0</ele><time>2026-04-25T13:08:44.999Z</time></trkpt><trkpt lat="42.39808167503338" lon="11.200033513897203"><ele>15.0</ele><time>2026-04-25T13:08:45.999Z</time></trkpt><trkpt lat="42.39816319426408" lon="11.200018185307234"><ele>15.0</ele><time>2026-04-25T13:10:36.999Z</time></trkpt><trkpt lat="42.398284344938105" lon="11.199955740421345"><ele>15.0</ele><time>2026-04-25T13:10:38.999Z</time></trkpt><trkpt lat="42.3983629866627" lon="11.199931581942888"><ele>15.0</ele><time>2026-04-25T13:10:39.999Z</time></trkpt><trkpt lat="42.39844643907815" lon="11.199911171990315"><ele>15.0</ele><time>2026-04-25T13:10:40.999Z</time></trkpt><trkpt lat="42.39851150679137" lon="11.1998899116552"><ele>15.0</ele><time>2026-04-25T13:10:41.999Z</time></trkpt><trkpt lat="42.39862420986145" lon="11.1998507882631"><ele>15.0</ele><time>2026-04-25T13:10:43.999Z</time></trkpt><trkpt lat="42.398697585343015" lon="11.199823160792683"><ele>15.0</ele><time>2026-04-25T13:10:44.999Z</time></trkpt><trkpt lat="42.398772662496064" lon="11.199792434834524"><ele>15.0</ele><time>2026-04-25T13:10:45.999Z</time></trkpt><trkpt lat="42.398852378554466" lon="11.199784822095829"><ele>15.2</ele><time>2026-04-25T13:10:46.999Z</time></trkpt><trkpt lat="42.39891690384613" lon="11.1997630953031"><ele>15.4</ele><time>2026-04-25T13:10:47.999Z</time></trkpt><trkpt lat="42.39900514146231" lon="11.199733326488117"><ele>15.600000000000001</ele><time>2026-04-25T13:10:48.999Z</time></trkpt><trkpt lat="42.399085617361266" lon="11.199705036682017"><ele>15.8</ele><time>2026-04-25T13:10:49.999Z</time></trkpt><trkpt lat="42.39921734793352" lon="11.199688690457707"><ele>16.0</ele><time>2026-04-25T13:10:51.999Z</time></trkpt><trkpt lat="42.39929038131892" lon="11.199650980602735"><ele>16.0</ele><time>2026-04-25T13:10:52.999Z</time></trkpt><trkpt lat="42.39941111114385" lon="11.199628408358025"><ele>16.0</ele><time>2026-04-25T13:10:53.999Z</time></trkpt><trkpt lat="42.399550002326734" lon="11.199204101925048"><ele>16.0</ele><time>2026-04-25T13:10:56.999Z</time></trkpt><trkpt lat="42.39963096689182" lon="11.199116534283206"><ele>16.0</ele><time>2026-04-25T13:10:57.999Z</time></trkpt><trkpt lat="42.399708769197204" lon="11.199032387491938"><ele>16.0</ele><time>2026-04-25T13:10:58.999Z</time></trkpt><trkpt lat="42.3997548971896" lon="11.198935473657064"><ele>16.0</ele><time>2026-04-25T13:10:59.999Z</time></trkpt><trkpt lat="42.399810344931545" lon="11.198827095184033"><ele>16.0</ele><time>2026-04-25T13:11:00.999Z</time></trkpt><trkpt lat="42.39987617922274" lon="11.198740403288163"><ele>15.75</ele><time>2026-04-25T13:11:01.999Z</time></trkpt><trkpt lat="42.399977758531584" lon="11.198667982827704"><ele>15.5</ele><time>2026-04-25T13:11:03.999Z</time></trkpt><trkpt lat="42.40005721001659" lon="11.198620399244161"><ele>15.25</ele><time>2026-04-25T13:11:05.999Z</time></trkpt><trkpt lat="42.40016377641373" lon="11.19878458462074"><ele>15.0</ele><time>2026-04-25T13:11:07.999Z</time></trkpt><trkpt lat="42.40022672847633" lon="11.198885749955265"><ele>14.0</ele><time>2026-04-25T13:11:08.999Z</time></trkpt><trkpt lat="42.40031412647168" lon="11.199022353489223"><ele>13.0</ele><time>2026-04-25T13:11:09.999Z</time></trkpt><trkpt lat="42.40042627762888" lon="11.199165253585981"><ele>12.0</ele><time>2026-04-25T13:11:10.999Z</time></trkpt><trkpt lat="42.40054367646686" lon="11.199352683429796"><ele>11.6</ele><time>2026-04-25T13:11:11.999Z</time></trkpt><trkpt lat="42.40063723935083" lon="11.199505865940866"><ele>11.2</ele><time>2026-04-25T13:11:12.999Z</time></trkpt><trkpt lat="42.40070209963102" lon="11.19960544825964"><ele>10.8</ele><time>2026-04-25T13:11:13.999Z</time></trkpt><trkpt lat="42.40074685433288" lon="11.199679858953532"><ele>10.4</ele><time>2026-04-25T13:11:14.999Z</time></trkpt><trkpt lat="42.400811420144414" lon="11.199757606139782"><ele>10.0</ele><time>2026-04-25T13:11:19.999Z</time></trkpt><trkpt lat="42.40093508764948" lon="11.199631137059898"><ele>10.0</ele><time>2026-04-25T13:11:20.999Z</time></trkpt><trkpt lat="42.40100854347735" lon="11.199562276059769"><ele>10.0</ele><time>2026-04-25T13:11:21.999Z</time></trkpt><trkpt lat="42.40109201001469" lon="11.199496799491863"><ele>10.0</ele><time>2026-04-25T13:11:22.999Z</time></trkpt><trkpt lat="42.401186177768935" lon="11.199446522395471"><ele>10.0</ele><time>2026-04-25T13:11:23.999Z</time></trkpt><trkpt lat="42.401294097637354" lon="11.199436000807786"><ele>10.0</ele><time>2026-04-25T13:11:24.999Z</time></trkpt><trkpt lat="42.401406365865455" lon="11.199413407950882"><ele>9.5</ele><time>2026-04-25T13:11:25.999Z</time></trkpt><trkpt lat="42.40151692573816" lon="11.199357766560311"><ele>9.0</ele><time>2026-04-25T13:11:26.999Z</time></trkpt><trkpt lat="42.40162662837579" lon="11.199320952661248"><ele>8.5</ele><time>2026-04-25T13:11:27.999Z</time></trkpt><trkpt lat="42.40174028323449" lon="11.199343110915345"><ele>8.0</ele><time>2026-04-25T13:11:28.999Z</time></trkpt><trkpt lat="42.40186796427141" lon="11.199395770285253"><ele>8.0</ele><time>2026-04-25T13:11:29.999Z</time></trkpt><trkpt lat="42.40200739748492" lon="11.199450845383733"><ele>8.0</ele><time>2026-04-25T13:11:30.999Z</time></trkpt><trkpt lat="42.40214714913111" lon="11.19950993609309"><ele>8.0</ele><time>2026-04-25T13:11:31.999Z</time></trkpt><trkpt lat="42.40227467219871" lon="11.199576948304678"><ele>8.0</ele><time>2026-04-25T13:11:32.999Z</time></trkpt><trkpt lat="42.402401802784716" lon="11.19965359746314"><ele>7.75</ele><time>2026-04-25T13:11:33.999Z</time></trkpt><trkpt lat="42.40253730200062" lon="11.199734449392626"><ele>7.5</ele><time>2026-04-25T13:11:34.999Z</time></trkpt><trkpt lat="42.40267376494313" lon="11.199802898390194"><ele>7.25</ele><time>2026-04-25T13:11:35.999Z</time></trkpt><trkpt lat="42.4028123489365" lon="11.199874921146037"><ele>7.0</ele><time>2026-04-25T13:11:36.999Z</time></trkpt><trkpt lat="42.40295270172594" lon="11.199954946098504"><ele>7.0</ele><time>2026-04-25T13:11:37.999Z</time></trkpt><trkpt lat="42.40309543438436" lon="11.200034669306564"><ele>7.0</ele><time>2026-04-25T13:11:38.999Z</time></trkpt><trkpt lat="42.40324561873457" lon="11.200111229345335"><ele>7.0</ele><time>2026-04-25T13:11:39.999Z</time></trkpt><trkpt lat="42.403397297578614" lon="11.2001877034519"><ele>7.0</ele><time>2026-04-25T13:11:40.999Z</time></trkpt><trkpt lat="42.40354661174199" lon="11.200264129674022"><ele>7.0</ele><time>2026-04-25T13:11:41.999Z</time></trkpt><trkpt lat="42.40370536109059" lon="11.200344167145532"><ele>7.0</ele><time>2026-04-25T13:11:42.999Z</time></trkpt><trkpt lat="42.403866647813494" lon="11.200415917964714"><ele>7.333333333333334</ele><time>2026-04-25T13:11:43.999Z</time></trkpt><trkpt lat="42.40404281873342" lon="11.200464228259202"><ele>7.666666666666666</ele><time>2026-04-25T13:11:44.999Z</time></trkpt><trkpt lat="42.40423375992612" lon="11.200495724733644"><ele>8.0</ele><time>2026-04-25T13:11:45.999Z</time></trkpt><trkpt lat="42.40441667578227" lon="11.200509040917941"><ele>8.0</ele><time>2026-04-25T13:11:46.999Z</time></trkpt><trkpt lat="42.40459586350476" lon="11.20050242632947"><ele>8.0</ele><time>2026-04-25T13:11:47.999Z</time></trkpt><trkpt lat="42.40477787990663" lon="11.200483997734727"><ele>8.0</ele><time>2026-04-25T13:11:48.999Z</time></trkpt><trkpt lat="42.4049529162507" lon="11.20047174487776"><ele>10.0</ele><time>2026-04-25T13:11:49.999Z</time></trkpt><trkpt lat="42.40513243966719" lon="11.200468824750544"><ele>12.0</ele><time>2026-04-25T13:11:50.999Z</time></trkpt><trkpt lat="42.40530320782803" lon="11.200463588191893"><ele>14.0</ele><time>2026-04-25T13:11:51.999Z</time></trkpt><trkpt lat="42.405474039662174" lon="11.200464980894612"><ele>15.0</ele><time>2026-04-25T13:11:52.999Z</time></trkpt><trkpt lat="42.4056408185122" lon="11.200465942830117"><ele>16.0</ele><time>2026-04-25T13:11:53.999Z</time></trkpt><trkpt lat="42.405802475837206" lon="11.200462563655845"><ele>17.0</ele><time>2026-04-25T13:11:54.999Z</time></trkpt><trkpt lat="42.4059656165952" lon="11.200458459559059"><ele>17.0</ele><time>2026-04-25T13:11:55.999Z</time></trkpt><trkpt lat="42.40612960030769" lon="11.200455467393397"><ele>17.0</ele><time>2026-04-25T13:11:56.999Z</time></trkpt><trkpt lat="42.40629009328471" lon="11.200449408789842"><ele>17.0</ele><time>2026-04-25T13:11:57.999Z</time></trkpt><trkpt lat="42.406456494037734" lon="11.200449838642298"><ele>19.333333333333336</ele><time>2026-04-25T13:11:58.999Z</time></trkpt><trkpt lat="42.40661779926897" lon="11.200447644045695"><ele>21.666666666666668</ele><time>2026-04-25T13:11:59.999Z</time></trkpt><trkpt lat="42.40678707098141" lon="11.200448311526163"><ele>24.0</ele><time>2026-04-25T13:12:00.999Z</time></trkpt><trkpt lat="42.406948860438625" lon="11.200450447429715"><ele>24.0</ele><time>2026-04-25T13:12:01.999Z</time></trkpt><trkpt lat="42.407118522796466" lon="11.200452855038774"><ele>24.0</ele><time>2026-04-25T13:12:02.999Z</time></trkpt><trkpt lat="42.407279296982516" lon="11.200454886745362"><ele>24.0</ele><time>2026-04-25T13:12:03.999Z</time></trkpt><trkpt lat="42.407444546117944" lon="11.20045193921685"><ele>25.0</ele><time>2026-04-25T13:12:04.999Z</time></trkpt><trkpt lat="42.40760225168292" lon="11.200450226698102"><ele>26.0</ele><time>2026-04-25T13:12:05.999Z</time></trkpt><trkpt lat="42.40775690300967" lon="11.200438291102301"><ele>27.0</ele><time>2026-04-25T13:12:06.999Z</time></trkpt><trkpt lat="42.407891619515375" lon="11.200430915293358"><ele>28.0</ele><time>2026-04-25T13:12:07.999Z</time></trkpt><trkpt lat="42.40802764323344" lon="11.200433214819025"><ele>28.0</ele><time>2026-04-25T13:12:08.999Z</time></trkpt><trkpt lat="42.40815592125625" lon="11.200433373835818"><ele>28.0</ele><time>2026-04-25T13:12:09.999Z</time></trkpt><trkpt lat="42.40828262209282" lon="11.20044534901485"><ele>28.0</ele><time>2026-04-25T13:12:10.999Z</time></trkpt><trkpt lat="42.40841249916095" lon="11.200468950292882"><ele>28.0</ele><time>2026-04-25T13:12:11.999Z</time></trkpt><trkpt lat="42.40853413681085" lon="11.200501963320665"><ele>28.0</ele><time>2026-04-25T13:12:12.999Z</time></trkpt><trkpt lat="42.40863766842224" lon="11.200543394184413"><ele>27.999999999999996</ele><time>2026-04-25T13:12:13.999Z</time></trkpt><trkpt lat="42.40873834891243" lon="11.200592914887524"><ele>27.999999999999996</ele><time>2026-04-25T13:12:14.999Z</time></trkpt><trkpt lat="42.40882326888758" lon="11.200657623363805"><ele>28.0</ele><time>2026-04-25T13:12:15.999Z</time></trkpt><trkpt lat="42.40891565237239" lon="11.200735905855963"><ele>28.0</ele><time>2026-04-25T13:12:16.999Z</time></trkpt><trkpt lat="42.40900918377513" lon="11.200824721571527"><ele>26.75</ele><time>2026-04-25T13:12:17.999Z</time></trkpt><trkpt lat="42.40910393905767" lon="11.200928551627639"><ele>25.5</ele><time>2026-04-25T13:12:18.999Z</time></trkpt><trkpt lat="42.409199782227184" lon="11.20102758768738"><ele>24.25</ele><time>2026-04-25T13:12:19.999Z</time></trkpt><trkpt lat="42.40928899579967" lon="11.201138099441284"><ele>23.0</ele><time>2026-04-25T13:12:20.999Z</time></trkpt><trkpt lat="42.40938213014725" lon="11.201243209393324"><ele>23.0</ele><time>2026-04-25T13:12:21.999Z</time></trkpt><trkpt lat="42.40948664059934" lon="11.201350419211119"><ele>23.0</ele><time>2026-04-25T13:12:22.999Z</time></trkpt><trkpt lat="42.409596056139485" lon="11.201456692858788"><ele>23.0</ele><time>2026-04-25T13:12:23.999Z</time></trkpt><trkpt lat="42.409713722838" lon="11.201572960655138"><ele>23.0</ele><time>2026-04-25T13:12:24.999Z</time></trkpt><trkpt lat="42.40981942926633" lon="11.201689026799333"><ele>21.666666666666668</ele><time>2026-04-25T13:12:25.999Z</time></trkpt><trkpt lat="42.40994881143276" lon="11.201823736080541"><ele>20.333333333333332</ele><time>2026-04-25T13:12:26.999Z</time></trkpt><trkpt lat="42.410057701194525" lon="11.201947338494833"><ele>19.0</ele><time>2026-04-25T13:12:27.999Z</time></trkpt><trkpt lat="42.41017603878234" lon="11.202091359760045"><ele>19.0</ele><time>2026-04-25T13:12:28.999Z</time></trkpt><trkpt lat="42.41029157688601" lon="11.202236382278457"><ele>19.0</ele><time>2026-04-25T13:12:29.999Z</time></trkpt><trkpt lat="42.41041267836067" lon="11.202382838696392"><ele>19.0</ele><time>2026-04-25T13:12:30.999Z</time></trkpt><trkpt lat="42.41054070828927" lon="11.202529146000733"><ele>18.666666666666664</ele><time>2026-04-25T13:12:31.999Z</time></trkpt><trkpt lat="42.41066134632374" lon="11.2026626115617"><ele>18.333333333333332</ele><time>2026-04-25T13:12:32.999Z</time></trkpt><trkpt lat="42.41080256331174" lon="11.202804891697747"><ele>18.0</ele><time>2026-04-25T13:12:33.999Z</time></trkpt><trkpt lat="42.41094753558962" lon="11.202947392983836"><ele>18.0</ele><time>2026-04-25T13:12:34.999Z</time></trkpt><trkpt lat="42.41109046971965" lon="11.203071537215022"><ele>18.0</ele><time>2026-04-25T13:12:35.999Z</time></trkpt><trkpt lat="42.41123173169488" lon="11.20318922246359"><ele>18.0</ele><time>2026-04-25T13:12:36.999Z</time></trkpt><trkpt lat="42.411377440813794" lon="11.203303226106637"><ele>17.0</ele><time>2026-04-25T13:12:37.999Z</time></trkpt><trkpt lat="42.41152845376887" lon="11.203412180911293"><ele>16.0</ele><time>2026-04-25T13:12:38.999Z</time></trkpt><trkpt lat="42.41167575028702" lon="11.203524301897929"><ele>15.0</ele><time>2026-04-25T13:12:39.999Z</time></trkpt><trkpt lat="42.41181374400242" lon="11.203634917660867"><ele>15.0</ele><time>2026-04-25T13:12:40.999Z</time></trkpt><trkpt lat="42.411950701044795" lon="11.203745836763753"><ele>15.0</ele><time>2026-04-25T13:12:41.999Z</time></trkpt><trkpt lat="42.41209318727269" lon="11.20385673351358"><ele>15.0</ele><time>2026-04-25T13:12:42.999Z</time></trkpt><trkpt lat="42.4122272612013" lon="11.20396351132659"><ele>13.333333333333334</ele><time>2026-04-25T13:12:43.999Z</time></trkpt><trkpt lat="42.41236821653855" lon="11.204067006867351"><ele>11.666666666666668</ele><time>2026-04-25T13:12:44.999Z</time></trkpt><trkpt lat="42.41250586830764" lon="11.204173382211861"><ele>10.0</ele><time>2026-04-25T13:12:45.999Z</time></trkpt><trkpt lat="42.41264077448076" lon="11.204280790054614"><ele>10.0</ele><time>2026-04-25T13:12:46.999Z</time></trkpt><trkpt lat="42.412776768796924" lon="11.204386205162047"><ele>10.0</ele><time>2026-04-25T13:12:47.999Z</time></trkpt><trkpt lat="42.41292536468032" lon="11.204485844956196"><ele>10.0</ele><time>2026-04-25T13:12:48.999Z</time></trkpt><trkpt lat="42.41307298233128" lon="11.204574638228358"><ele>11.666666666666668</ele><time>2026-04-25T13:12:49.999Z</time></trkpt><trkpt lat="42.41322766355821" lon="11.204645197641684"><ele>13.333333333333334</ele><time>2026-04-25T13:12:50.999Z</time></trkpt><trkpt lat="42.413381290806704" lon="11.20470044126516"><ele>15.0</ele><time>2026-04-25T13:12:51.999Z</time></trkpt><trkpt lat="42.41354352041542" lon="11.204746365317042"><ele>15.0</ele><time>2026-04-25T13:12:52.999Z</time></trkpt><trkpt lat="42.4137064682298" lon="11.204775406018898"><ele>15.0</ele><time>2026-04-25T13:12:53.999Z</time></trkpt><trkpt lat="42.41387673293979" lon="11.204786665681766"><ele>15.0</ele><time>2026-04-25T13:12:54.999Z</time></trkpt><trkpt lat="42.41404511168933" lon="11.204787320526545"><ele>16.333333333333332</ele><time>2026-04-25T13:12:55.999Z</time></trkpt><trkpt lat="42.41420993399507" lon="11.204787429435411"><ele>17.666666666666664</ele><time>2026-04-25T13:12:56.999Z</time></trkpt><trkpt lat="42.41438172208737" lon="11.204783246580032"><ele>19.0</ele><time>2026-04-25T13:12:57.999Z</time></trkpt><trkpt lat="42.41455470185829" lon="11.204772429321665"><ele>19.666666666666664</ele><time>2026-04-25T13:12:58.999Z</time></trkpt><trkpt lat="42.414724579599415" lon="11.204767442918971"><ele>20.333333333333332</ele><time>2026-04-25T13:12:59.999Z</time></trkpt><trkpt lat="42.41489534538666" lon="11.204771495109734"><ele>21.0</ele><time>2026-04-25T13:13:00.999Z</time></trkpt><trkpt lat="42.415067344503356" lon="11.204780017923806"><ele>21.0</ele><time>2026-04-25T13:13:01.999Z</time></trkpt><trkpt lat="42.41524200960185" lon="11.204782289457247"><ele>21.0</ele><time>2026-04-25T13:13:02.999Z</time></trkpt><trkpt lat="42.41541098249458" lon="11.204772347965292"><ele>21.0</ele><time>2026-04-25T13:13:03.999Z</time></trkpt><trkpt lat="42.41558147292293" lon="11.204749770431942"><ele>19.0</ele><time>2026-04-25T13:13:04.999Z</time></trkpt><trkpt lat="42.41573828880556" lon="11.204702581692418"><ele>17.0</ele><time>2026-04-25T13:13:05.999Z</time></trkpt><trkpt lat="42.41589461354846" lon="11.204630934138892"><ele>15.0</ele><time>2026-04-25T13:13:06.999Z</time></trkpt><trkpt lat="42.416047803745236" lon="11.20455693667754"><ele>15.0</ele><time>2026-04-25T13:13:07.999Z</time></trkpt><trkpt lat="42.41620134962437" lon="11.204483142353816"><ele>15.0</ele><time>2026-04-25T13:13:08.999Z</time></trkpt><trkpt lat="42.41635762462993" lon="11.204414517686859"><ele>15.0</ele><time>2026-04-25T13:13:09.999Z</time></trkpt><trkpt lat="42.41650547065713" lon="11.204344264872198"><ele>11.666666666666666</ele><time>2026-04-25T13:13:10.999Z</time></trkpt><trkpt lat="42.41665419114421" lon="11.20426873060511"><ele>8.333333333333334</ele><time>2026-04-25T13:13:11.999Z</time></trkpt><trkpt lat="42.41680577842491" lon="11.204181397045868"><ele>5.0</ele><time>2026-04-25T13:13:12.999Z</time></trkpt><trkpt lat="42.41695205022906" lon="11.204097043474736"><ele>5.0</ele><time>2026-04-25T13:13:13.999Z</time></trkpt><trkpt lat="42.417101035749525" lon="11.20401561964079"><ele>5.0</ele><time>2026-04-25T13:13:14.999Z</time></trkpt><trkpt lat="42.41725149168871" lon="11.203934365691474"><ele>5.0</ele><time>2026-04-25T13:13:15.999Z</time></trkpt><trkpt lat="42.41740312190581" lon="11.203854609544218"><ele>3.3333333333333335</ele><time>2026-04-25T13:13:16.999Z</time></trkpt><trkpt lat="42.41756062894871" lon="11.203772996254866"><ele>1.6666666666666667</ele><time>2026-04-25T13:13:17.999Z</time></trkpt><trkpt lat="42.41771113380693" lon="11.2036990754049"><ele>0.0</ele><time>2026-04-25T13:13:18.999Z</time></trkpt><trkpt lat="42.417866268876224" lon="11.203628009091487"><ele>0.0</ele><time>2026-04-25T13:13:19.999Z</time></trkpt><trkpt lat="42.418020898948456" lon="11.203572751011286"><ele>0.0</ele><time>2026-04-25T13:13:20.999Z</time></trkpt><trkpt lat="42.41818596721516" lon="11.203522638656864"><ele>0.0</ele><time>2026-04-25T13:13:21.999Z</time></trkpt><trkpt lat="42.41834489530162" lon="11.203478742988358"><ele>0.0</ele><time>2026-04-25T13:13:22.999Z</time></trkpt><trkpt lat="42.41850892859306" lon="11.203426445357607"><ele>0.0</ele><time>2026-04-25T13:13:23.999Z</time></trkpt><trkpt lat="42.418673407106276" lon="11.203371404760208"><ele>0.0</ele><time>2026-04-25T13:13:24.999Z</time></trkpt><trkpt lat="42.41882865070007" lon="11.203318524734375"><ele>-0.3333333333333333</ele><time>2026-04-25T13:13:25.999Z</time></trkpt><trkpt lat="42.41898473456963" lon="11.203265316291372"><ele>-0.6666666666666666</ele><time>2026-04-25T13:13:26.999Z</time></trkpt><trkpt lat="42.41914046725337" lon="11.203213648670504"><ele>-1.0</ele><time>2026-04-25T13:13:27.999Z</time></trkpt><trkpt lat="42.419295540751" lon="11.203156676847863"><ele>-1.0</ele><time>2026-04-25T13:13:28.999Z</time></trkpt><trkpt lat="42.41944636052074" lon="11.203106566177691"><ele>-1.0</ele><time>2026-04-25T13:13:29.999Z</time></trkpt><trkpt lat="42.41959988157321" lon="11.203056977068757"><ele>-1.0</ele><time>2026-04-25T13:13:30.999Z</time></trkpt><trkpt lat="42.41975189424769" lon="11.20301586005317"><ele>-1.0</ele><time>2026-04-25T13:13:31.999Z</time></trkpt><trkpt lat="42.419909017217456" lon="11.202988208826419"><ele>-1.0</ele><time>2026-04-25T13:13:32.999Z</time></trkpt><trkpt lat="42.42006120834337" lon="11.202969962435906"><ele>-1.0</ele><time>2026-04-25T13:13:33.999Z</time></trkpt><trkpt lat="42.42022030528786" lon="11.20294730231266"><ele>-1.0</ele><time>2026-04-25T13:13:34.999Z</time></trkpt><trkpt lat="42.42038568747587" lon="11.20292193980019"><ele>-1.0</ele><time>2026-04-25T13:13:35.999Z</time></trkpt><trkpt lat="42.420542293123184" lon="11.20289183302086"><ele>-1.0</ele><time>2026-04-25T13:13:36.999Z</time></trkpt><trkpt lat="42.42069225509641" lon="11.202865964779239"><ele>-0.3333333333333333</ele><time>2026-04-25T13:13:37.999Z</time></trkpt><trkpt lat="42.42086438526621" lon="11.202836236359975"><ele>0.3333333333333333</ele><time>2026-04-25T13:13:38.999Z</time></trkpt><trkpt lat="42.42101690512892" lon="11.202807615873697"><ele>1.0</ele><time>2026-04-25T13:13:39.999Z</time></trkpt><trkpt lat="42.42118024537196" lon="11.202779798034447"><ele>2.0</ele><time>2026-04-25T13:13:40.999Z</time></trkpt><trkpt lat="42.421338242881596" lon="11.20275434988628"><ele>3.0</ele><time>2026-04-25T13:13:41.999Z</time></trkpt><trkpt lat="42.42150425043093" lon="11.202720003729663"><ele>4.0</ele><time>2026-04-25T13:13:42.999Z</time></trkpt><trkpt lat="42.42166133016214" lon="11.202693112314908"><ele>4.0</ele><time>2026-04-25T13:13:43.999Z</time></trkpt><trkpt lat="42.42182238573868" lon="11.202665023570097"><ele>4.0</ele><time>2026-04-25T13:13:44.999Z</time></trkpt><trkpt lat="42.42198216555259" lon="11.202625160357213"><ele>4.0</ele><time>2026-04-25T13:13:45.999Z</time></trkpt><trkpt lat="42.42214377969327" lon="11.202567066123642"><ele>2.333333333333333</ele><time>2026-04-25T13:13:46.999Z</time></trkpt><trkpt lat="42.42229774095098" lon="11.202494028990486"><ele>0.6666666666666666</ele><time>2026-04-25T13:13:47.999Z</time></trkpt><trkpt lat="42.42245544016772" lon="11.2024142555201"><ele>-1.0</ele><time>2026-04-25T13:13:48.999Z</time></trkpt><trkpt lat="42.42261008503737" lon="11.202338362798574"><ele>1.0</ele><time>2026-04-25T13:13:49.999Z</time></trkpt><trkpt lat="42.42276258513692" lon="11.202258009209736"><ele>3.0</ele><time>2026-04-25T13:13:50.999Z</time></trkpt><trkpt lat="42.4229123631207" lon="11.202180827916507"><ele>5.0</ele><time>2026-04-25T13:13:51.999Z</time></trkpt><trkpt lat="42.42306015154754" lon="11.202100320108796"><ele>5.0</ele><time>2026-04-25T13:13:52.999Z</time></trkpt><trkpt lat="42.42320674887782" lon="11.202022905370585"><ele>5.0</ele><time>2026-04-25T13:13:53.998Z</time></trkpt><trkpt lat="42.423352278277335" lon="11.201945154460738"><ele>5.0</ele><time>2026-04-25T13:13:54.999Z</time></trkpt><trkpt lat="42.42349851499816" lon="11.201864043179063"><ele>5.0</ele><time>2026-04-25T13:13:55.999Z</time></trkpt><trkpt lat="42.42363668264626" lon="11.201774063070712"><ele>5.0</ele><time>2026-04-25T13:13:56.999Z</time></trkpt><trkpt lat="42.42376630911245" lon="11.201648677856076"><ele>5.0</ele><time>2026-04-25T13:13:57.999Z</time></trkpt><trkpt lat="42.42388909202244" lon="11.201488944700504"><ele>4.333333333333334</ele><time>2026-04-25T13:13:58.999Z</time></trkpt><trkpt lat="42.42399160120681" lon="11.201326627334348"><ele>3.666666666666667</ele><time>2026-04-25T13:13:59.999Z</time></trkpt><trkpt lat="42.424089024357386" lon="11.201149322108567"><ele>3.0</ele><time>2026-04-25T13:14:00.999Z</time></trkpt><trkpt lat="42.42417346984427" lon="11.20096359995754"><ele>3.0</ele><time>2026-04-25T13:14:01.999Z</time></trkpt><trkpt lat="42.42425160941054" lon="11.200760591155426"><ele>3.0</ele><time>2026-04-25T13:14:02.999Z</time></trkpt><trkpt lat="42.42432457680261" lon="11.200566700930871"><ele>3.0</ele><time>2026-04-25T13:14:03.999Z</time></trkpt><trkpt lat="42.424403978155354" lon="11.200368596164157"><ele>3.0</ele><time>2026-04-25T13:14:04.999Z</time></trkpt><trkpt lat="42.424476079086894" lon="11.200182652367191"><ele>3.0</ele><time>2026-04-25T13:14:05.999Z</time></trkpt><trkpt lat="42.42455145573942" lon="11.19999540325795"><ele>3.0</ele><time>2026-04-25T13:14:06.999Z</time></trkpt><trkpt lat="42.42463921908518" lon="11.19980160704445"><ele>2.0</ele><time>2026-04-25T13:14:07.999Z</time></trkpt><trkpt lat="42.42472737655995" lon="11.199610901021575"><ele>1.0</ele><time>2026-04-25T13:14:08.999Z</time></trkpt><trkpt lat="42.4248134956352" lon="11.199408667327"><ele>0.0</ele><time>2026-04-25T13:14:09.999Z</time></trkpt><trkpt lat="42.42490145698328" lon="11.199222706719734"><ele>0.0</ele><time>2026-04-25T13:14:10.999Z</time></trkpt><trkpt lat="42.42499938296706" lon="11.199044197690492"><ele>0.0</ele><time>2026-04-25T13:14:11.999Z</time></trkpt><trkpt lat="42.42510564925584" lon="11.198879056531496"><ele>0.0</ele><time>2026-04-25T13:14:12.999Z</time></trkpt><trkpt lat="42.425212654362596" lon="11.198711163326653"><ele>0.0</ele><time>2026-04-25T13:14:13.999Z</time></trkpt><trkpt lat="42.425318113864094" lon="11.198541665980752"><ele>0.0</ele><time>2026-04-25T13:14:14.999Z</time></trkpt><trkpt lat="42.42542665211731" lon="11.198373547909258"><ele>0.0</ele><time>2026-04-25T13:14:15.999Z</time></trkpt><trkpt lat="42.425530378242414" lon="11.198206833266212"><ele>0.3333333333333333</ele><time>2026-04-25T13:14:16.999Z</time></trkpt><trkpt lat="42.42562994732625" lon="11.198043675302241"><ele>0.6666666666666666</ele><time>2026-04-25T13:14:17.999Z</time></trkpt><trkpt lat="42.42573082650569" lon="11.19788496817499"><ele>1.0</ele><time>2026-04-25T13:14:18.999Z</time></trkpt><trkpt lat="42.42583215579273" lon="11.197720174091021"><ele>1.0</ele><time>2026-04-25T13:14:19.999Z</time></trkpt><trkpt lat="42.42593040757764" lon="11.197558964364658"><ele>1.0</ele><time>2026-04-25T13:14:20.999Z</time></trkpt><trkpt lat="42.42603064746613" lon="11.197416040894657"><ele>1.0</ele><time>2026-04-25T13:14:21.999Z</time></trkpt><trkpt lat="42.4261477546694" lon="11.197285738321996"><ele>1.0</ele><time>2026-04-25T13:14:22.999Z</time></trkpt><trkpt lat="42.42626890583292" lon="11.197185433991159"><ele>1.0</ele><time>2026-04-25T13:14:23.999Z</time></trkpt><trkpt lat="42.42639642152889" lon="11.197102068888832"><ele>1.0</ele><time>2026-04-25T13:14:24.999Z</time></trkpt><trkpt lat="42.426510129471545" lon="11.197036470920839"><ele>1.0</ele><time>2026-04-25T13:14:25.999Z</time></trkpt><trkpt lat="42.42661782268061" lon="11.19698598203798"><ele>1.0</ele><time>2026-04-25T13:14:26.999Z</time></trkpt><trkpt lat="42.4267290297237" lon="11.196955148095379"><ele>1.0</ele><time>2026-04-25T13:14:27.999Z</time></trkpt><trkpt lat="42.42683477672474" lon="11.196939225608837"><ele>1.0</ele><time>2026-04-25T13:14:28.999Z</time></trkpt><trkpt lat="42.42693745183051" lon="11.19691292114404"><ele>1.0</ele><time>2026-04-25T13:14:29.999Z</time></trkpt><trkpt lat="42.42704173928538" lon="11.196875498209385"><ele>1.0</ele><time>2026-04-25T13:14:30.999Z</time></trkpt><trkpt lat="42.42714115355304" lon="11.196840431607777"><ele>0.6666666666666666</ele><time>2026-04-25T13:14:31.999Z</time></trkpt><trkpt lat="42.427237545150035" lon="11.196819233510979"><ele>0.3333333333333333</ele><time>2026-04-25T13:14:32.999Z</time></trkpt><trkpt lat="42.42732692637342" lon="11.196809883803443"><ele>0.0</ele><time>2026-04-25T13:14:33.999Z</time></trkpt><trkpt lat="42.427411336603434" lon="11.196811899253106"><ele>-0.3333333333333333</ele><time>2026-04-25T13:14:34.999Z</time></trkpt><trkpt lat="42.42748399210471" lon="11.196835856067748"><ele>-0.6666666666666666</ele><time>2026-04-25T13:14:35.999Z</time></trkpt><trkpt lat="42.4275581036112" lon="11.196830400516955"><ele>-1.0</ele><time>2026-04-25T13:14:36.999Z</time></trkpt><trkpt lat="42.427669911713615" lon="11.196831761323516"><ele>-1.0</ele><time>2026-04-25T13:14:38.999Z</time></trkpt><trkpt lat="42.427741948012674" lon="11.19683380781146"><ele>-1.0</ele><time>2026-04-25T13:14:40.999Z</time></trkpt><trkpt lat="42.42780257587775" lon="11.19678326280625"><ele>-1.0</ele><time>2026-04-25T13:14:42.999Z</time></trkpt><trkpt lat="42.42779672452103" lon="11.196492500186896"><ele>-1.0</ele><time>2026-04-25T13:14:44.999Z</time></trkpt><trkpt lat="42.42780175569189" lon="11.196359104171762"><ele>-0.5</ele><time>2026-04-25T13:14:45.999Z</time></trkpt><trkpt lat="42.42779382554656" lon="11.196194483375454"><ele>0.0</ele><time>2026-04-25T13:14:46.999Z</time></trkpt><trkpt lat="42.427791311316" lon="11.195967867193806"><ele>0.5</ele><time>2026-04-25T13:14:47.999Z</time></trkpt><trkpt lat="42.42779442873076" lon="11.195751911009216"><ele>1.0</ele><time>2026-04-25T13:14:48.999Z</time></trkpt><trkpt lat="42.42780123315916" lon="11.195550089955074"><ele>1.0</ele><time>2026-04-25T13:14:49.999Z</time></trkpt><trkpt lat="42.427799833023286" lon="11.195352720335961"><ele>1.0</ele><time>2026-04-25T13:14:50.999Z</time></trkpt><trkpt lat="42.427825356774115" lon="11.195179432832303"><ele>1.0</ele><time>2026-04-25T13:14:51.999Z</time></trkpt><trkpt lat="42.427843977714886" lon="11.195012852858511"><ele>1.0</ele><time>2026-04-25T13:14:52.999Z</time></trkpt><trkpt lat="42.42786931009315" lon="11.194840595220276"><ele>1.0</ele><time>2026-04-25T13:14:53.999Z</time></trkpt><trkpt lat="42.42789863482455" lon="11.19467280138423"><ele>1.0</ele><time>2026-04-25T13:14:54.999Z</time></trkpt><trkpt lat="42.42793812206759" lon="11.19448676710877"><ele>1.0</ele><time>2026-04-25T13:14:55.999Z</time></trkpt><trkpt lat="42.42799107198455" lon="11.194266904498729"><ele>1.0</ele><time>2026-04-25T13:14:56.999Z</time></trkpt><trkpt lat="42.42805426346944" lon="11.194033837084534"><ele>0.3333333333333333</ele><time>2026-04-25T13:14:57.999Z</time></trkpt><trkpt lat="42.428132945861144" lon="11.193793639720424"><ele>-0.3333333333333333</ele><time>2026-04-25T13:14:58.999Z</time></trkpt><trkpt lat="42.42822780869307" lon="11.193557672565522"><ele>-1.0</ele><time>2026-04-25T13:14:59.999Z</time></trkpt><trkpt lat="42.42833029426185" lon="11.193339753488853"><ele>-0.3333333333333333</ele><time>2026-04-25T13:15:00.999Z</time></trkpt><trkpt lat="42.42844422373228" lon="11.193123862340222"><ele>0.3333333333333333</ele><time>2026-04-25T13:15:01.999Z</time></trkpt><trkpt lat="42.42854794832744" lon="11.192896082286545"><ele>1.0</ele><time>2026-04-25T13:15:02.999Z</time></trkpt><trkpt lat="42.428669013603646" lon="11.192686889644106"><ele>1.0</ele><time>2026-04-25T13:15:03.999Z</time></trkpt><trkpt lat="42.428783047120156" lon="11.192474981443608"><ele>1.0</ele><time>2026-04-25T13:15:04.999Z</time></trkpt><trkpt lat="42.42889467037576" lon="11.192261435203866"><ele>1.0</ele><time>2026-04-25T13:15:05.999Z</time></trkpt><trkpt lat="42.429001714830164" lon="11.192053117951962"><ele>0.3333333333333333</ele><time>2026-04-25T13:15:06.999Z</time></trkpt><trkpt lat="42.42911214121099" lon="11.19183909868617"><ele>-0.3333333333333333</ele><time>2026-04-25T13:15:07.999Z</time></trkpt><trkpt lat="42.42922072659819" lon="11.191631014900365"><ele>-1.0</ele><time>2026-04-25T13:15:08.999Z</time></trkpt><trkpt lat="42.42932698266945" lon="11.191416999360545"><ele>0.6666666666666666</ele><time>2026-04-25T13:15:09.999Z</time></trkpt><trkpt lat="42.429432227241946" lon="11.191214920499245"><ele>2.333333333333333</ele><time>2026-04-25T13:15:10.999Z</time></trkpt><trkpt lat="42.429527580471195" lon="11.191015813841066"><ele>4.0</ele><time>2026-04-25T13:15:11.999Z</time></trkpt><trkpt lat="42.42961652873849" lon="11.190801559393623"><ele>2.6666666666666665</ele><time>2026-04-25T13:15:12.999Z</time></trkpt><trkpt lat="42.42969219699976" lon="11.190586034836711"><ele>1.3333333333333333</ele><time>2026-04-25T13:15:13.999Z</time></trkpt><trkpt lat="42.42975917418233" lon="11.190368961098024"><ele>0.0</ele><time>2026-04-25T13:15:14.999Z</time></trkpt><trkpt lat="42.42982165017296" lon="11.190145653583764"><ele>0.0</ele><time>2026-04-25T13:15:15.999Z</time></trkpt><trkpt lat="42.429874538698314" lon="11.189900963257395"><ele>0.0</ele><time>2026-04-25T13:15:16.999Z</time></trkpt><trkpt lat="42.429917216346524" lon="11.189651942034896"><ele>0.0</ele><time>2026-04-25T13:15:17.999Z</time></trkpt><trkpt lat="42.4299467778556" lon="11.189408729423954"><ele>0.3333333333333333</ele><time>2026-04-25T13:15:18.999Z</time></trkpt><trkpt lat="42.42996507369662" lon="11.189170274332671"><ele>0.6666666666666666</ele><time>2026-04-25T13:15:19.999Z</time></trkpt><trkpt lat="42.42997653354093" lon="11.18894122243935"><ele>1.0</ele><time>2026-04-25T13:15:20.999Z</time></trkpt><trkpt lat="42.429986208870154" lon="11.188708682839906"><ele>1.0</ele><time>2026-04-25T13:15:21.999Z</time></trkpt><trkpt lat="42.429996273806026" lon="11.188481091013085"><ele>1.0</ele><time>2026-04-25T13:15:22.999Z</time></trkpt><trkpt lat="42.43001017317469" lon="11.188224872474448"><ele>1.0</ele><time>2026-04-25T13:15:23.999Z</time></trkpt><trkpt lat="42.43002318569923" lon="11.187978456421199"><ele>1.0</ele><time>2026-04-25T13:15:24.999Z</time></trkpt><trkpt lat="42.43003738814173" lon="11.187725216622656"><ele>1.0</ele><time>2026-04-25T13:15:25.999Z</time></trkpt><trkpt lat="42.43005671566854" lon="11.187461762309363"><ele>1.0</ele><time>2026-04-25T13:15:26.999Z</time></trkpt><trkpt lat="42.430069943366476" lon="11.18719605899691"><ele>0.6666666666666666</ele><time>2026-04-25T13:15:27.999Z</time></trkpt><trkpt lat="42.4300864654968" lon="11.186934000008174"><ele>0.3333333333333333</ele><time>2026-04-25T13:15:28.999Z</time></trkpt><trkpt lat="42.43009238919975" lon="11.186668588417385"><ele>0.0</ele><time>2026-04-25T13:15:29.999Z</time></trkpt><trkpt lat="42.43010991048009" lon="11.186404435534202"><ele>0.0</ele><time>2026-04-25T13:15:30.999Z</time></trkpt><trkpt lat="42.43012856497443" lon="11.186144524799596"><ele>0.0</ele><time>2026-04-25T13:15:31.999Z</time></trkpt><trkpt lat="42.430150012118844" lon="11.185890104044779"><ele>0.0</ele><time>2026-04-25T13:15:32.999Z</time></trkpt><trkpt lat="42.430177273378014" lon="11.18563498300895"><ele>0.0</ele><time>2026-04-25T13:15:33.999Z</time></trkpt><trkpt lat="42.430206351670634" lon="11.18538016028706"><ele>0.0</ele><time>2026-04-25T13:15:34.999Z</time></trkpt><trkpt lat="42.43023954575344" lon="11.185133818499747"><ele>0.0</ele><time>2026-04-25T13:15:35.999Z</time></trkpt><trkpt lat="42.43027486253368" lon="11.184887349919995"><ele>0.3333333333333333</ele><time>2026-04-25T13:15:36.999Z</time></trkpt><trkpt lat="42.430312809423775" lon="11.184651234703168"><ele>0.6666666666666666</ele><time>2026-04-25T13:15:37.999Z</time></trkpt><trkpt lat="42.430352210919494" lon="11.184415058709744"><ele>1.0</ele><time>2026-04-25T13:15:38.999Z</time></trkpt><trkpt lat="42.4303801042777" lon="11.184208672907486"><ele>1.0</ele><time>2026-04-25T13:15:39.999Z</time></trkpt><trkpt lat="42.43040873590693" lon="11.184013403867242"><ele>1.0</ele><time>2026-04-25T13:15:40.999Z</time></trkpt><trkpt lat="42.430439813312375" lon="11.183826140667875"><ele>1.0</ele><time>2026-04-25T13:15:41.999Z</time></trkpt><trkpt lat="42.43046275183443" lon="11.183653220845871"><ele>1.0</ele><time>2026-04-25T13:15:42.999Z</time></trkpt><trkpt lat="42.430491625870935" lon="11.18347781492112"><ele>1.0</ele><time>2026-04-25T13:15:43.999Z</time></trkpt><trkpt lat="42.43051830634013" lon="11.18332701809168"><ele>1.0</ele><time>2026-04-25T13:15:44.999Z</time></trkpt><trkpt lat="42.430552870161826" lon="11.183185260633497"><ele>1.0</ele><time>2026-04-25T13:15:45.999Z</time></trkpt><trkpt lat="42.43059947451736" lon="11.183033162981975"><ele>1.0</ele><time>2026-04-25T13:15:46.999Z</time></trkpt><trkpt lat="42.430618957901004" lon="11.182887422911962"><ele>1.0</ele><time>2026-04-25T13:15:47.999Z</time></trkpt><trkpt lat="42.430626751415296" lon="11.182720527887994"><ele>1.0</ele><time>2026-04-25T13:15:48.999Z</time></trkpt><trkpt lat="42.43065714315855" lon="11.182552471943936"><ele>1.0</ele><time>2026-04-25T13:15:49.999Z</time></trkpt><trkpt lat="42.43068655040875" lon="11.182372368385485"><ele>1.0</ele><time>2026-04-25T13:15:50.999Z</time></trkpt><trkpt lat="42.43069991151822" lon="11.182186306234966"><ele>0.3333333333333333</ele><time>2026-04-25T13:15:51.999Z</time></trkpt><trkpt lat="42.430733474418105" lon="11.181987284115186"><ele>-0.3333333333333333</ele><time>2026-04-25T13:15:52.999Z</time></trkpt><trkpt lat="42.43078280759163" lon="11.181782960762128"><ele>-1.0</ele><time>2026-04-25T13:15:53.999Z</time></trkpt><trkpt lat="42.43081680273474" lon="11.181578346379162"><ele>-1.3333333333333333</ele><time>2026-04-25T13:15:54.999Z</time></trkpt><trkpt lat="42.430851662139986" lon="11.18136853030884"><ele>-1.6666666666666665</ele><time>2026-04-25T13:15:55.999Z</time></trkpt><trkpt lat="42.430871536282446" lon="11.181153711121766"><ele>-2.0</ele><time>2026-04-25T13:15:56.999Z</time></trkpt><trkpt lat="42.43090900444151" lon="11.180936299567833"><ele>-2.0</ele><time>2026-04-25T13:15:57.999Z</time></trkpt><trkpt lat="42.430941999361664" lon="11.18071372550171"><ele>-2.0</ele><time>2026-04-25T13:15:58.999Z</time></trkpt><trkpt lat="42.430977133561235" lon="11.180493012139703"><ele>-2.0</ele><time>2026-04-25T13:15:59.999Z</time></trkpt><trkpt lat="42.43100648943993" lon="11.180262134786073"><ele>-1.3333333333333333</ele><time>2026-04-25T13:16:00.999Z</time></trkpt><trkpt lat="42.43102752373765" lon="11.180035890752352"><ele>-0.6666666666666666</ele><time>2026-04-25T13:16:01.999Z</time></trkpt><trkpt lat="42.43103951747767" lon="11.179804262242804"><ele>0.0</ele><time>2026-04-25T13:16:02.999Z</time></trkpt><trkpt lat="42.4310389446494" lon="11.179576791397677"><ele>0.0</ele><time>2026-04-25T13:16:03.999Z</time></trkpt><trkpt lat="42.43104198852532" lon="11.179345705509672"><ele>0.0</ele><time>2026-04-25T13:16:04.999Z</time></trkpt><trkpt lat="42.4310489909284" lon="11.179113270599828"><ele>0.0</ele><time>2026-04-25T13:16:05.999Z</time></trkpt><trkpt lat="42.431056318760895" lon="11.178875960852539"><ele>0.0</ele><time>2026-04-25T13:16:06.999Z</time></trkpt><trkpt lat="42.43106230652958" lon="11.178643436042988"><ele>0.0</ele><time>2026-04-25T13:16:07.999Z</time></trkpt><trkpt lat="42.431067924365784" lon="11.17841096051449"><ele>0.0</ele><time>2026-04-25T13:16:08.999Z</time></trkpt><trkpt lat="42.43107588542664" lon="11.178176153404396"><ele>0.0</ele><time>2026-04-25T13:16:09.999Z</time></trkpt><trkpt lat="42.4310862254657" lon="11.17795175209474"><ele>0.0</ele><time>2026-04-25T13:16:10.999Z</time></trkpt><trkpt lat="42.43109594521705" lon="11.177723426499298"><ele>0.0</ele><time>2026-04-25T13:16:11.999Z</time></trkpt><trkpt lat="42.4311110172193" lon="11.177488346219189"><ele>4.333333333333333</ele><time>2026-04-25T13:16:12.999Z</time></trkpt><trkpt lat="42.431138264000026" lon="11.177263426661437"><ele>8.666666666666666</ele><time>2026-04-25T13:16:13.999Z</time></trkpt><trkpt lat="42.431187033445966" lon="11.177042002324463"><ele>13.0</ele><time>2026-04-25T13:16:14.999Z</time></trkpt><trkpt lat="42.43125730539121" lon="11.176826539486049"><ele>11.0</ele><time>2026-04-25T13:16:15.999Z</time></trkpt><trkpt lat="42.43133958281963" lon="11.176617869105176"><ele>9.0</ele><time>2026-04-25T13:16:16.999Z</time></trkpt><trkpt lat="42.43143305893482" lon="11.17641468043804"><ele>7.0</ele><time>2026-04-25T13:16:17.999Z</time></trkpt><trkpt lat="42.431529811417754" lon="11.176214117694071"><ele>7.0</ele><time>2026-04-25T13:16:18.999Z</time></trkpt><trkpt lat="42.431620238933654" lon="11.176019426657083"><ele>7.0</ele><time>2026-04-25T13:16:19.999Z</time></trkpt><trkpt lat="42.43170828351112" lon="11.175820188948554"><ele>7.0</ele><time>2026-04-25T13:16:20.999Z</time></trkpt><trkpt lat="42.431794579489036" lon="11.17561680963968"><ele>9.0</ele><time>2026-04-25T13:16:21.999Z</time></trkpt><trkpt lat="42.43187966996214" lon="11.175420862728933"><ele>11.0</ele><time>2026-04-25T13:16:22.999Z</time></trkpt><trkpt lat="42.43196293303119" lon="11.175219557377227"><ele>13.0</ele><time>2026-04-25T13:16:23.999Z</time></trkpt><trkpt lat="42.43205154967777" lon="11.175020093864328"><ele>9.0</ele><time>2026-04-25T13:16:24.999Z</time></trkpt><trkpt lat="42.43214044418298" lon="11.174822663372877"><ele>5.0</ele><time>2026-04-25T13:16:25.999Z</time></trkpt><trkpt lat="42.4322316831554" lon="11.174617541195834"><ele>1.0</ele><time>2026-04-25T13:16:26.999Z</time></trkpt><trkpt lat="42.43232152630749" lon="11.174409423699272"><ele>1.0</ele><time>2026-04-25T13:16:27.999Z</time></trkpt><trkpt lat="42.432413188940906" lon="11.174196941893557"><ele>1.0</ele><time>2026-04-25T13:16:28.999Z</time></trkpt><trkpt lat="42.43249822556287" lon="11.173997690622057"><ele>1.0</ele><time>2026-04-25T13:16:29.999Z</time></trkpt><trkpt lat="42.4325756643739" lon="11.17379295769383"><ele>3.0</ele><time>2026-04-25T13:16:30.999Z</time></trkpt><trkpt lat="42.432634936263305" lon="11.173581605354736"><ele>5.0</ele><time>2026-04-25T13:16:31.999Z</time></trkpt><trkpt lat="42.43267888410657" lon="11.17336093047237"><ele>7.0</ele><time>2026-04-25T13:16:32.999Z</time></trkpt><trkpt lat="42.43271173805491" lon="11.17313949797925"><ele>7.333333333333334</ele><time>2026-04-25T13:16:33.999Z</time></trkpt><trkpt lat="42.43273268123539" lon="11.17290677515617"><ele>7.666666666666666</ele><time>2026-04-25T13:16:34.999Z</time></trkpt><trkpt lat="42.432729221836354" lon="11.172677088162612"><ele>8.0</ele><time>2026-04-25T13:16:35.999Z</time></trkpt><trkpt lat="42.432699200729516" lon="11.172447808235649"><ele>6.333333333333333</ele><time>2026-04-25T13:16:36.999Z</time></trkpt><trkpt lat="42.4326550709301" lon="11.172224987036563"><ele>4.666666666666666</ele><time>2026-04-25T13:16:37.999Z</time></trkpt><trkpt lat="42.432596754256764" lon="11.1720044441873"><ele>3.0</ele><time>2026-04-25T13:16:38.999Z</time></trkpt><trkpt lat="42.43252413481033" lon="11.171794165150704"><ele>3.0</ele><time>2026-04-25T13:16:39.999Z</time></trkpt><trkpt lat="42.43243074281031" lon="11.171589075880467"><ele>3.0</ele><time>2026-04-25T13:16:40.999Z</time></trkpt><trkpt lat="42.432319436101835" lon="11.171401500340108"><ele>3.0</ele><time>2026-04-25T13:16:41.999Z</time></trkpt><trkpt lat="42.43219268338826" lon="11.171231661190248"><ele>3.0</ele><time>2026-04-25T13:16:42.999Z</time></trkpt><trkpt lat="42.432053087941476" lon="11.171076604740776"><ele>3.0</ele><time>2026-04-25T13:16:43.999Z</time></trkpt><trkpt lat="42.43190217240846" lon="11.17094714216978"><ele>3.0</ele><time>2026-04-25T13:16:44.999Z</time></trkpt><trkpt lat="42.43174384796161" lon="11.170839469022434"><ele>3.0</ele><time>2026-04-25T13:16:45.999Z</time></trkpt><trkpt lat="42.431579227251746" lon="11.170737179382344"><ele>3.0</ele><time>2026-04-25T13:16:46.999Z</time></trkpt><trkpt lat="42.4314299195942" lon="11.170602427767955"><ele>3.0</ele><time>2026-04-25T13:16:47.999Z</time></trkpt><trkpt lat="42.43126891530623" lon="11.170481897212664"><ele>4.0</ele><time>2026-04-25T13:16:48.999Z</time></trkpt><trkpt lat="42.43110168144129" lon="11.17035658850146"><ele>5.0</ele><time>2026-04-25T13:16:49.999Z</time></trkpt><trkpt lat="42.43093684347946" lon="11.170252518592644"><ele>6.0</ele><time>2026-04-25T13:16:50.999Z</time></trkpt><trkpt lat="42.43078799127925" lon="11.170123510614122"><ele>6.0</ele><time>2026-04-25T13:16:51.999Z</time></trkpt><trkpt lat="42.43064029275963" lon="11.169978346940034"><ele>6.0</ele><time>2026-04-25T13:16:52.999Z</time></trkpt><trkpt lat="42.43049641955207" lon="11.169825676569598"><ele>6.0</ele><time>2026-04-25T13:16:53.999Z</time></trkpt><trkpt lat="42.430356394664166" lon="11.16966203647986"><ele>4.0</ele><time>2026-04-25T13:16:54.999Z</time></trkpt><trkpt lat="42.4302359686237" lon="11.169469161906756"><ele>2.0</ele><time>2026-04-25T13:16:55.999Z</time></trkpt><trkpt lat="42.430112728905556" lon="11.169271271899913"><ele>0.0</ele><time>2026-04-25T13:16:56.999Z</time></trkpt><trkpt lat="42.43000396784311" lon="11.16906516351897"><ele>-0.6666666666666666</ele><time>2026-04-25T13:16:57.999Z</time></trkpt><trkpt lat="42.4299131358605" lon="11.16885500831561"><ele>-1.3333333333333333</ele><time>2026-04-25T13:16:58.999Z</time></trkpt><trkpt lat="42.42982953497959" lon="11.16863166767789"><ele>-2.0</ele><time>2026-04-25T13:17:00Z</time></trkpt><trkpt lat="42.42974031575336" lon="11.168402210709147"><ele>-1.3333333333333333</ele><time>2026-04-25T13:17:01Z</time></trkpt><trkpt lat="42.42967573298561" lon="11.168154239997534"><ele>-0.6666666666666666</ele><time>2026-04-25T13:17:02Z</time></trkpt><trkpt lat="42.429640794884406" lon="11.167903514590273"><ele>0.0</ele><time>2026-04-25T13:17:03Z</time></trkpt><trkpt lat="42.42960844016095" lon="11.167660314421228"><ele>0.6666666666666666</ele><time>2026-04-25T13:17:04Z</time></trkpt><trkpt lat="42.429583051483945" lon="11.167410789574053"><ele>1.3333333333333333</ele><time>2026-04-25T13:17:05Z</time></trkpt><trkpt lat="42.42957376752205" lon="11.167163697469395"><ele>2.0</ele><time>2026-04-25T13:17:06Z</time></trkpt><trkpt lat="42.429580477496955" lon="11.166912532534543"><ele>4.0</ele><time>2026-04-25T13:17:07Z</time></trkpt><trkpt lat="42.42958083023236" lon="11.166658244067635"><ele>6.0</ele><time>2026-04-25T13:17:08Z</time></trkpt><trkpt lat="42.42960590557624" lon="11.166412802039567"><ele>8.0</ele><time>2026-04-25T13:17:09Z</time></trkpt><trkpt lat="42.42963454971632" lon="11.166164701890223"><ele>5.666666666666666</ele><time>2026-04-25T13:17:10Z</time></trkpt><trkpt lat="42.42966400679511" lon="11.165930073501787"><ele>3.333333333333333</ele><time>2026-04-25T13:17:11Z</time></trkpt><trkpt lat="42.429691195099466" lon="11.165696334462456"><ele>1.0</ele><time>2026-04-25T13:17:12Z</time></trkpt><trkpt lat="42.42971688376782" lon="11.165453582131674"><ele>1.0</ele><time>2026-04-25T13:17:13Z</time></trkpt><trkpt lat="42.42974299276032" lon="11.165196465627327"><ele>1.0</ele><time>2026-04-25T13:17:14Z</time></trkpt><trkpt lat="42.429769417259536" lon="11.164944175714298"><ele>1.0</ele><time>2026-04-25T13:17:15Z</time></trkpt><trkpt lat="42.4297953725313" lon="11.164686598795056"><ele>1.0</ele><time>2026-04-25T13:17:16Z</time></trkpt><trkpt lat="42.42981913058408" lon="11.16444822806044"><ele>1.0</ele><time>2026-04-25T13:17:17Z</time></trkpt><trkpt lat="42.429846593607536" lon="11.164203326206913"><ele>1.0</ele><time>2026-04-25T13:17:18Z</time></trkpt><trkpt lat="42.42987095348524" lon="11.16396378679241"><ele>1.0</ele><time>2026-04-25T13:17:19Z</time></trkpt><trkpt lat="42.429896263835026" lon="11.163730215307957"><ele>1.0</ele><time>2026-04-25T13:17:20Z</time></trkpt><trkpt lat="42.42992808962733" lon="11.163506864613376"><ele>1.0</ele><time>2026-04-25T13:17:21Z</time></trkpt><trkpt lat="42.42995772852191" lon="11.16328618644508"><ele>1.6666666666666665</ele><time>2026-04-25T13:17:22Z</time></trkpt><trkpt lat="42.429982534477205" lon="11.163062039848155"><ele>2.3333333333333335</ele><time>2026-04-25T13:17:23Z</time></trkpt><trkpt lat="42.429996080994904" lon="11.162853203960992"><ele>3.0</ele><time>2026-04-25T13:17:24Z</time></trkpt><trkpt lat="42.430014473261814" lon="11.162630961093804"><ele>3.0</ele><time>2026-04-25T13:17:25Z</time></trkpt><trkpt lat="42.43003995752268" lon="11.162409119392143"><ele>3.0</ele><time>2026-04-25T13:17:26Z</time></trkpt><trkpt lat="42.43006375411483" lon="11.162180888009757"><ele>3.0</ele><time>2026-04-25T13:17:27Z</time></trkpt><trkpt lat="42.4300913062099" lon="11.161959165651758"><ele>4.333333333333334</ele><time>2026-04-25T13:17:28Z</time></trkpt><trkpt lat="42.43011915252563" lon="11.161740712253156"><ele>5.666666666666667</ele><time>2026-04-25T13:17:29Z</time></trkpt><trkpt lat="42.43015492641723" lon="11.16151543475188"><ele>7.0</ele><time>2026-04-25T13:17:30Z</time></trkpt><trkpt lat="42.43019969656303" lon="11.161301971592074"><ele>7.333333333333334</ele><time>2026-04-25T13:17:31Z</time></trkpt><trkpt lat="42.43025226283221" lon="11.161094713532213"><ele>7.666666666666666</ele><time>2026-04-25T13:17:32Z</time></trkpt><trkpt lat="42.4303107812215" lon="11.160876000034264"><ele>8.0</ele><time>2026-04-25T13:17:33Z</time></trkpt><trkpt lat="42.43036931546613" lon="11.160672016286139"><ele>9.0</ele><time>2026-04-25T13:17:34Z</time></trkpt><trkpt lat="42.430433515235386" lon="11.160466458984194"><ele>10.0</ele><time>2026-04-25T13:17:35Z</time></trkpt><trkpt lat="42.43050408951031" lon="11.160252227932261"><ele>11.0</ele><time>2026-04-25T13:17:36Z</time></trkpt><trkpt lat="42.43058170636962" lon="11.160049524794596"><ele>8.666666666666666</ele><time>2026-04-25T13:17:37Z</time></trkpt><trkpt lat="42.43066909508989" lon="11.159854995371997"><ele>6.333333333333333</ele><time>2026-04-25T13:17:38Z</time></trkpt><trkpt lat="42.43076087909555" lon="11.159650690947204"><ele>4.0</ele><time>2026-04-25T13:17:39Z</time></trkpt><trkpt lat="42.43085982791273" lon="11.159454196444065"><ele>4.0</ele><time>2026-04-25T13:17:40Z</time></trkpt><trkpt lat="42.43096531844146" lon="11.159250743545803"><ele>4.0</ele><time>2026-04-25T13:17:41Z</time></trkpt><trkpt lat="42.43117838627594" lon="11.158863124438618"><ele>3.6666666666666665</ele><time>2026-04-25T13:17:43Z</time></trkpt><trkpt lat="42.43127923058825" lon="11.158660236358537"><ele>3.333333333333333</ele><time>2026-04-25T13:17:44Z</time></trkpt><trkpt lat="42.431370934647155" lon="11.158474577080074"><ele>3.0</ele><time>2026-04-25T13:17:45Z</time></trkpt><trkpt lat="42.431457296234925" lon="11.158300733898496"><ele>3.333333333333333</ele><time>2026-04-25T13:17:46Z</time></trkpt><trkpt lat="42.43154259178305" lon="11.158140365340374"><ele>3.6666666666666665</ele><time>2026-04-25T13:17:47Z</time></trkpt><trkpt lat="42.431639797745675" lon="11.157980501723749"><ele>4.0</ele><time>2026-04-25T13:17:48Z</time></trkpt><trkpt lat="42.43175759714799" lon="11.157836085374226"><ele>4.0</ele><time>2026-04-25T13:17:49Z</time></trkpt><trkpt lat="42.43188567233647" lon="11.15772092380925"><ele>4.0</ele><time>2026-04-25T13:17:50Z</time></trkpt><trkpt lat="42.432032443384564" lon="11.15762475376015"><ele>4.0</ele><time>2026-04-25T13:17:51Z</time></trkpt><trkpt lat="42.43218455576785" lon="11.157559607293694"><ele>4.0</ele><time>2026-04-25T13:17:52Z</time></trkpt><trkpt lat="42.432339660248644" lon="11.157527770948631"><ele>4.0</ele><time>2026-04-25T13:17:53Z</time></trkpt><trkpt lat="42.43249409353626" lon="11.157546480862226"><ele>4.0</ele><time>2026-04-25T13:17:54Z</time></trkpt><trkpt lat="42.43264433990251" lon="11.157552237524815"><ele>4.0</ele><time>2026-04-25T13:17:55Z</time></trkpt><trkpt lat="42.432784074185804" lon="11.157599179275289"><ele>4.0</ele><time>2026-04-25T13:17:56Z</time></trkpt><trkpt lat="42.432914873283615" lon="11.157642030645405"><ele>4.0</ele><time>2026-04-25T13:17:57Z</time></trkpt><trkpt lat="42.433024155463094" lon="11.157667045374318"><ele>4.0</ele><time>2026-04-25T13:17:58Z</time></trkpt><trkpt lat="42.43313736652957" lon="11.157687889382924"><ele>4.2</ele><time>2026-04-25T13:17:59Z</time></trkpt><trkpt lat="42.433238783130534" lon="11.157692036466655"><ele>4.4</ele><time>2026-04-25T13:18:00Z</time></trkpt><trkpt lat="42.43332654354901" lon="11.15767321905482"><ele>4.6</ele><time>2026-04-25T13:18:01Z</time></trkpt><trkpt lat="42.433417050651855" lon="11.157626370381571"><ele>4.8</ele><time>2026-04-25T13:18:02Z</time></trkpt><trkpt lat="42.433501726590194" lon="11.157540660109133"><ele>5.0</ele><time>2026-04-25T13:18:03Z</time></trkpt><trkpt lat="42.433569718290045" lon="11.157432913241738"><ele>4.8</ele><time>2026-04-25T13:18:04Z</time></trkpt><trkpt lat="42.43363521982245" lon="11.15731215844442"><ele>4.6</ele><time>2026-04-25T13:18:04.999Z</time></trkpt><trkpt lat="42.43369536686409" lon="11.157184450670616"><ele>4.4</ele><time>2026-04-25T13:18:05.999Z</time></trkpt><trkpt lat="42.43375281785266" lon="11.157052255794712"><ele>4.2</ele><time>2026-04-25T13:18:06.999Z</time></trkpt><trkpt lat="42.433809240420835" lon="11.156922217837046"><ele>4.0</ele><time>2026-04-25T13:18:07.999Z</time></trkpt><trkpt lat="42.433860279826625" lon="11.156799427943069"><ele>4.0</ele><time>2026-04-25T13:18:08.999Z</time></trkpt><trkpt lat="42.43390865933528" lon="11.156681037928003"><ele>4.0</ele><time>2026-04-25T13:18:09.999Z</time></trkpt><trkpt lat="42.43396011165639" lon="11.156549896454713"><ele>4.0</ele><time>2026-04-25T13:18:10.999Z</time></trkpt><trkpt lat="42.43401012053962" lon="11.156411457399567"><ele>4.0</ele><time>2026-04-25T13:18:11.999Z</time></trkpt><trkpt lat="42.43406397964513" lon="11.156262815718966"><ele>4.0</ele><time>2026-04-25T13:18:12.999Z</time></trkpt><trkpt lat="42.43412383556377" lon="11.156107832378845"><ele>5.75</ele><time>2026-04-25T13:18:13.999Z</time></trkpt><trkpt lat="42.434183597669616" lon="11.155940671558392"><ele>7.5</ele><time>2026-04-25T13:18:14.999Z</time></trkpt><trkpt lat="42.43423603645032" lon="11.15575379793228"><ele>9.25</ele><time>2026-04-25T13:18:16Z</time></trkpt><trkpt lat="42.434290906310835" lon="11.155598387961918"><ele>11.0</ele><time>2026-04-25T13:18:17Z</time></trkpt><trkpt lat="42.43433533218761" lon="11.155442663218139"><ele>12.75</ele><time>2026-04-25T13:18:18Z</time></trkpt><trkpt lat="42.43440309251338" lon="11.15531000019666"><ele>14.5</ele><time>2026-04-25T13:18:19Z</time></trkpt><trkpt lat="42.43446915259041" lon="11.155159193367869"><ele>16.25</ele><time>2026-04-25T13:18:20Z</time></trkpt><trkpt lat="42.434519273640475" lon="11.15500446074573"><ele>18.0</ele><time>2026-04-25T13:18:21Z</time></trkpt><trkpt lat="42.43458285294837" lon="11.154860255767606"><ele>18.5</ele><time>2026-04-25T13:18:22Z</time></trkpt><trkpt lat="42.434629490824186" lon="11.15471900225688"><ele>19.0</ele><time>2026-04-25T13:18:23Z</time></trkpt><trkpt lat="42.43465356679011" lon="11.15457498420088"><ele>19.5</ele><time>2026-04-25T13:18:24Z</time></trkpt><trkpt lat="42.434652796998314" lon="11.154414366598925"><ele>20.0</ele><time>2026-04-25T13:18:25Z</time></trkpt><trkpt lat="42.434676274485724" lon="11.154219927052894"><ele>15.666666666666668</ele><time>2026-04-25T13:18:26Z</time></trkpt><trkpt lat="42.434695787968295" lon="11.153965017585387"><ele>11.333333333333334</ele><time>2026-04-25T13:18:27Z</time></trkpt><trkpt lat="42.434718361017" lon="11.153681720261869"><ele>7.0</ele><time>2026-04-25T13:18:28Z</time></trkpt><trkpt lat="42.43473709902757" lon="11.153367890748841"><ele>8.0</ele><time>2026-04-25T13:18:29Z</time></trkpt><trkpt lat="42.43473884819018" lon="11.153051316329721"><ele>9.0</ele><time>2026-04-25T13:18:30Z</time></trkpt><trkpt lat="42.434744405912454" lon="11.152757056166996"><ele>9.0</ele><time>2026-04-25T13:18:31Z</time></trkpt><trkpt lat="42.434741146747655" lon="11.152505354323816"><ele>9.0</ele><time>2026-04-25T13:18:32Z</time></trkpt><trkpt lat="42.43474018462396" lon="11.15226813960567"><ele>9.0</ele><time>2026-04-25T13:18:33Z</time></trkpt><trkpt lat="42.43478035565599" lon="11.152048553673673"><ele>10.5</ele><time>2026-04-25T13:18:34Z</time></trkpt><trkpt lat="42.434844152598075" lon="11.151858141031818"><ele>12.0</ele><time>2026-04-25T13:18:35Z</time></trkpt><trkpt lat="42.43493522915931" lon="11.151726005353"><ele>13.5</ele><time>2026-04-25T13:18:36Z</time></trkpt><trkpt lat="42.4350401436295" lon="11.151613757295657"><ele>15.0</ele><time>2026-04-25T13:18:37Z</time></trkpt><trkpt lat="42.43516750044431" lon="11.151535694515307"><ele>15.333333333333332</ele><time>2026-04-25T13:18:38Z</time></trkpt><trkpt lat="42.43530605797743" lon="11.151427279390699"><ele>15.666666666666666</ele><time>2026-04-25T13:18:39Z</time></trkpt><trkpt lat="42.43545092791457" lon="11.15131209830335"><ele>16.0</ele><time>2026-04-25T13:18:40Z</time></trkpt><trkpt lat="42.4355735576446" lon="11.151141992671905"><ele>16.0</ele><time>2026-04-25T13:18:41Z</time></trkpt><trkpt lat="42.43567230088706" lon="11.150909353098793"><ele>16.0</ele><time>2026-04-25T13:18:42Z</time></trkpt><trkpt lat="42.43576582005921" lon="11.150673894885397"><ele>16.0</ele><time>2026-04-25T13:18:43Z</time></trkpt><trkpt lat="42.435874451993065" lon="11.15043361823455"><ele>19.0</ele><time>2026-04-25T13:18:44Z</time></trkpt><trkpt lat="42.43599273903475" lon="11.150202887558912"><ele>22.0</ele><time>2026-04-25T13:18:45Z</time></trkpt><trkpt lat="42.43610946569842" lon="11.149981377227904"><ele>25.0</ele><time>2026-04-25T13:18:46Z</time></trkpt><trkpt lat="42.43621065535411" lon="11.149782733466965"><ele>21.75</ele><time>2026-04-25T13:18:47Z</time></trkpt><trkpt lat="42.43630875214161" lon="11.149602386286377"><ele>18.5</ele><time>2026-04-25T13:18:48Z</time></trkpt><trkpt lat="42.43640144093377" lon="11.149430270131154"><ele>15.25</ele><time>2026-04-25T13:18:49Z</time></trkpt><trkpt lat="42.436471003139005" lon="11.149288839351396"><ele>12.0</ele><time>2026-04-25T13:18:50Z</time></trkpt><trkpt lat="42.436527461923575" lon="11.149162580647282"><ele>11.0</ele><time>2026-04-25T13:18:51Z</time></trkpt><trkpt lat="42.43651444667458" lon="11.149000313120233"><ele>10.0</ele><time>2026-04-25T13:18:52Z</time></trkpt><trkpt lat="42.436479545750025" lon="11.1488424673522"><ele>9.0</ele><time>2026-04-25T13:18:53Z</time></trkpt><trkpt lat="42.43637514930953" lon="11.148681502983377"><ele>8.0</ele><time>2026-04-25T13:18:54Z</time></trkpt><trkpt lat="42.43624585456795" lon="11.148529229680689"><ele>11.0</ele><time>2026-04-25T13:18:55Z</time></trkpt><trkpt lat="42.43609111548912" lon="11.148407431377358"><ele>14.0</ele><time>2026-04-25T13:18:56Z</time></trkpt><trkpt lat="42.435918698699595" lon="11.148312646285694"><ele>17.0</ele><time>2026-04-25T13:18:57Z</time></trkpt><trkpt lat="42.43574474584385" lon="11.148218357009368"><ele>13.75</ele><time>2026-04-25T13:18:58Z</time></trkpt><trkpt lat="42.435581494016375" lon="11.148115974514289"><ele>10.5</ele><time>2026-04-25T13:18:59Z</time></trkpt><trkpt lat="42.43546639092359" lon="11.148072642140852"><ele>7.25</ele><time>2026-04-25T13:19:00Z</time></trkpt><trkpt lat="42.435323195672694" lon="11.148023723232283"><ele>4.0</ele><time>2026-04-25T13:19:01Z</time></trkpt><trkpt lat="42.43518088132802" lon="11.147985194740633"><ele>4.0</ele><time>2026-04-25T13:19:02Z</time></trkpt><trkpt lat="42.43504994703092" lon="11.147969210598779"><ele>4.0</ele><time>2026-04-25T13:19:03Z</time></trkpt><trkpt lat="42.43491724557187" lon="11.148006065049072"><ele>4.0</ele><time>2026-04-25T13:19:04Z</time></trkpt><trkpt lat="42.43478900076432" lon="11.148070951851464"><ele>4.0</ele><time>2026-04-25T13:19:05Z</time></trkpt><trkpt lat="42.434668867050455" lon="11.148115288230132"><ele>4.25</ele><time>2026-04-25T13:19:06Z</time></trkpt><trkpt lat="42.43455071457651" lon="11.1481548154444"><ele>4.5</ele><time>2026-04-25T13:19:07Z</time></trkpt><trkpt lat="42.43444432771149" lon="11.148178666303535"><ele>4.75</ele><time>2026-04-25T13:19:08Z</time></trkpt><trkpt lat="42.434337903427306" lon="11.148151177398189"><ele>5.0</ele><time>2026-04-25T13:19:09Z</time></trkpt><trkpt lat="42.434262041246086" lon="11.148032401877591"><ele>5.0</ele><time>2026-04-25T13:19:10Z</time></trkpt><trkpt lat="42.434202425805836" lon="11.14790369151761"><ele>5.0</ele><time>2026-04-25T13:19:11Z</time></trkpt><trkpt lat="42.43413761824232" lon="11.147759352295285"><ele>5.0</ele><time>2026-04-25T13:19:12Z</time></trkpt><trkpt lat="42.43406635060523" lon="11.147612972939953"><ele>5.0</ele><time>2026-04-25T13:19:13Z</time></trkpt><trkpt lat="42.43401606468457" lon="11.147504494970159"><ele>5.0</ele><time>2026-04-25T13:19:14Z</time></trkpt><trkpt lat="42.433971751781975" lon="11.147399647987275"><ele>5.0</ele><time>2026-04-25T13:19:16Z</time></trkpt><trkpt lat="42.433920914512356" lon="11.147232598637137"><ele>5.0</ele><time>2026-04-25T13:19:18Z</time></trkpt><trkpt lat="42.43390319834722" lon="11.147139513605348"><ele>5.0</ele><time>2026-04-25T13:19:19Z</time></trkpt><trkpt lat="42.43388448063967" lon="11.147021151974954"><ele>5.0</ele><time>2026-04-25T13:19:20Z</time></trkpt><trkpt lat="42.43386131934103" lon="11.146892668205867"><ele>4.6</ele><time>2026-04-25T13:19:21Z</time></trkpt><trkpt lat="42.43384739183326" lon="11.14674001539061"><ele>4.2</ele><time>2026-04-25T13:19:22Z</time></trkpt><trkpt lat="42.43383664482626" lon="11.146600910598186"><ele>3.8</ele><time>2026-04-25T13:19:23Z</time></trkpt><trkpt lat="42.433842245406545" lon="11.14645982237936"><ele>3.4</ele><time>2026-04-25T13:19:24Z</time></trkpt><trkpt lat="42.43383170294875" lon="11.146304408212758"><ele>3.0</ele><time>2026-04-25T13:19:25Z</time></trkpt><trkpt lat="42.433822645180285" lon="11.146170880916328"><ele>3.0</ele><time>2026-04-25T13:19:26Z</time></trkpt><trkpt lat="42.433813584660825" lon="11.146037311485125"><ele>3.0</ele><time>2026-04-25T13:19:27Z</time></trkpt><trkpt lat="42.43380472400833" lon="11.145903415740877"><ele>3.0</ele><time>2026-04-25T13:19:28Z</time></trkpt><trkpt lat="42.43379542216138" lon="11.14576353553179"><ele>3.0</ele><time>2026-04-25T13:19:29Z</time></trkpt><trkpt lat="42.43378658210238" lon="11.145630599873172"><ele>3.0</ele><time>2026-04-25T13:19:30Z</time></trkpt><trkpt lat="42.43377816422774" lon="11.145504012875046"><ele>3.2</ele><time>2026-04-25T13:19:31Z</time></trkpt><trkpt lat="42.4337720064458" lon="11.145387213468357"><ele>3.4</ele><time>2026-04-25T13:19:32Z</time></trkpt><trkpt lat="42.43377225438738" lon="11.145270585627026"><ele>3.6000000000000005</ele><time>2026-04-25T13:19:33Z</time></trkpt><trkpt lat="42.433791659281795" lon="11.145148687734924"><ele>3.8000000000000003</ele><time>2026-04-25T13:19:34Z</time></trkpt><trkpt lat="42.43383867256184" lon="11.145022835555931"><ele>4.0</ele><time>2026-04-25T13:19:35Z</time></trkpt><trkpt lat="42.43390648436003" lon="11.1448913409147"><ele>6.0</ele><time>2026-04-25T13:19:36Z</time></trkpt><trkpt lat="42.43398996191519" lon="11.144789112265803"><ele>8.0</ele><time>2026-04-25T13:19:37Z</time></trkpt><trkpt lat="42.43404075109221" lon="11.144663662677054"><ele>9.999999999999998</ele><time>2026-04-25T13:19:38Z</time></trkpt><trkpt lat="42.4341261800304" lon="11.144560102682066"><ele>12.0</ele><time>2026-04-25T13:19:39Z</time></trkpt><trkpt lat="42.43420038615151" lon="11.144463180385845"><ele>14.0</ele><time>2026-04-25T13:19:40Z</time></trkpt><trkpt lat="42.43427846846227" lon="11.144356671047893"><ele>14.0</ele><time>2026-04-25T13:19:41Z</time></trkpt><trkpt lat="42.434365332513124" lon="11.144266647118267"><ele>13.999999999999998</ele><time>2026-04-25T13:19:42Z</time></trkpt><trkpt lat="42.43441872132026" lon="11.144158726404784"><ele>13.999999999999998</ele><time>2026-04-25T13:19:43Z</time></trkpt><trkpt lat="42.4344865067834" lon="11.144073552904153"><ele>14.0</ele><time>2026-04-25T13:19:44Z</time></trkpt><trkpt lat="42.43452868936279" lon="11.143974975844111"><ele>14.0</ele><time>2026-04-25T13:19:45Z</time></trkpt><trkpt lat="42.43454673940406" lon="11.143878982588163"><ele>12.799999999999999</ele><time>2026-04-25T13:19:46Z</time></trkpt><trkpt lat="42.43453678930048" lon="11.143764565789382"><ele>11.599999999999998</ele><time>2026-04-25T13:19:47Z</time></trkpt><trkpt lat="42.43451099533183" lon="11.14365889260893"><ele>10.4</ele><time>2026-04-25T13:19:48Z</time></trkpt><trkpt lat="42.43445160608121" lon="11.14355365808041"><ele>9.2</ele><time>2026-04-25T13:19:49Z</time></trkpt><trkpt lat="42.43437730879271" lon="11.143474965015765"><ele>8.0</ele><time>2026-04-25T13:19:50Z</time></trkpt><trkpt lat="42.434287368186375" lon="11.143409083425416"><ele>8.0</ele><time>2026-04-25T13:19:51Z</time></trkpt><trkpt lat="42.43419990996113" lon="11.143342084309456"><ele>8.0</ele><time>2026-04-25T13:19:52Z</time></trkpt><trkpt lat="42.43409556731059" lon="11.143263965033881"><ele>8.0</ele><time>2026-04-25T13:19:53Z</time></trkpt><trkpt lat="42.43399241054265" lon="11.143199871602896"><ele>8.0</ele><time>2026-04-25T13:19:54Z</time></trkpt><trkpt lat="42.43392199309249" lon="11.14310487070031"><ele>8.0</ele><time>2026-04-25T13:19:55Z</time></trkpt><trkpt lat="42.43384069675484" lon="11.143037042253283"><ele>8.833333333333332</ele><time>2026-04-25T13:19:56Z</time></trkpt><trkpt lat="42.43378285719262" lon="11.14294759575667"><ele>9.666666666666666</ele><time>2026-04-25T13:19:57Z</time></trkpt><trkpt lat="42.433736895516226" lon="11.142866365696856"><ele>10.5</ele><time>2026-04-25T13:19:58Z</time></trkpt><trkpt lat="42.43370751003051" lon="11.142762775906787"><ele>11.333333333333332</ele><time>2026-04-25T13:19:59Z</time></trkpt><trkpt lat="42.433687139828464" lon="11.142646016082939"><ele>12.166666666666666</ele><time>2026-04-25T13:20:00Z</time></trkpt><trkpt lat="42.433677683174146" lon="11.142526697509055"><ele>13.0</ele><time>2026-04-25T13:20:01Z</time></trkpt><trkpt lat="42.43368422124515" lon="11.142396361899518"><ele>11.999999999999998</ele><time>2026-04-25T13:20:02Z</time></trkpt><trkpt lat="42.43368767357113" lon="11.142279111373522"><ele>11.0</ele><time>2026-04-25T13:20:03Z</time></trkpt><trkpt lat="42.43369593536526" lon="11.1421764330671"><ele>10.0</ele><time>2026-04-25T13:20:04Z</time></trkpt><trkpt lat="42.433705141981605" lon="11.142089775187088"><ele>9.0</ele><time>2026-04-25T13:20:05Z</time></trkpt><trkpt lat="42.433730137029976" lon="11.141988609866669"><ele>8.0</ele><time>2026-04-25T13:20:07Z</time></trkpt><trkpt lat="42.433728402891084" lon="11.141889274488497"><ele>7.0</ele><time>2026-04-25T13:25:12.001Z</time></trkpt><trkpt lat="42.43372794683978" lon="11.141729076527396"><ele>7.0</ele><time>2026-04-25T13:25:14Z</time></trkpt><trkpt lat="42.43373302038183" lon="11.141616512057098"><ele>6.999999999999999</ele><time>2026-04-25T13:25:15Z</time></trkpt><trkpt lat="42.43374432736803" lon="11.141476156452095"><ele>6.999999999999999</ele><time>2026-04-25T13:25:16Z</time></trkpt><trkpt lat="42.433757634830684" lon="11.141319448332846"><ele>7.0</ele><time>2026-04-25T13:25:17Z</time></trkpt><trkpt lat="42.43376109916922" lon="11.141152844471414"><ele>7.0</ele><time>2026-04-25T13:25:18Z</time></trkpt><trkpt lat="42.433773277310166" lon="11.140988191341517"><ele>6.8</ele><time>2026-04-25T13:25:19Z</time></trkpt><trkpt lat="42.43378826622944" lon="11.140840638511984"><ele>6.6</ele><time>2026-04-25T13:25:20Z</time></trkpt><trkpt lat="42.433793906621275" lon="11.140708462003667"><ele>6.3999999999999995</ele><time>2026-04-25T13:25:21Z</time></trkpt><trkpt lat="42.43379468376939" lon="11.140604859037174"><ele>6.199999999999999</ele><time>2026-04-25T13:25:22Z</time></trkpt><trkpt lat="42.43380173873625" lon="11.140481288608587"><ele>6.0</ele><time>2026-04-25T13:25:23Z</time></trkpt><trkpt lat="42.43381439756265" lon="11.140363884703248"><ele>5.166666666666667</ele><time>2026-04-25T13:25:24Z</time></trkpt><trkpt lat="42.43382619605011" lon="11.140254139533738"><ele>4.333333333333333</ele><time>2026-04-25T13:25:25Z</time></trkpt><trkpt lat="42.433838790113" lon="11.140145812142437"><ele>3.5</ele><time>2026-04-25T13:25:26Z</time></trkpt><trkpt lat="42.43385348856689" lon="11.140042274037345"><ele>2.6666666666666665</ele><time>2026-04-25T13:25:27Z</time></trkpt><trkpt lat="42.43386802629321" lon="11.139918459701848"><ele>1.8333333333333333</ele><time>2026-04-25T13:25:28Z</time></trkpt><trkpt lat="42.43388369712211" lon="11.139786276951693"><ele>1.0</ele><time>2026-04-25T13:25:29Z</time></trkpt><trkpt lat="42.43392762757852" lon="11.139677507640615"><ele>1.0</ele><time>2026-04-25T13:25:30Z</time></trkpt><trkpt lat="42.43396401532356" lon="11.139555449127515"><ele>1.0</ele><time>2026-04-25T13:25:31Z</time></trkpt><trkpt lat="42.43400336543585" lon="11.139432679435645"><ele>1.0</ele><time>2026-04-25T13:25:32Z</time></trkpt><trkpt lat="42.43404818843563" lon="11.13929814957504"><ele>1.0</ele><time>2026-04-25T13:25:33Z</time></trkpt><trkpt lat="42.43408749824448" lon="11.139170765844197"><ele>1.0</ele><time>2026-04-25T13:25:34Z</time></trkpt><trkpt lat="42.43412364228704" lon="11.139039311987327"><ele>1.6</ele><time>2026-04-25T13:25:35Z</time></trkpt><trkpt lat="42.43416079555646" lon="11.138904187622169"><ele>2.2</ele><time>2026-04-25T13:25:36Z</time></trkpt><trkpt lat="42.434200572849875" lon="11.138761416201959"><ele>2.8000000000000003</ele><time>2026-04-25T13:25:37Z</time></trkpt><trkpt lat="42.4342405894231" lon="11.138623031292628"><ele>3.4000000000000004</ele><time>2026-04-25T13:25:38Z</time></trkpt><trkpt lat="42.43428323538526" lon="11.138493706885544"><ele>4.0</ele><time>2026-04-25T13:25:39Z</time></trkpt><trkpt lat="42.43433321216716" lon="11.138358148279956"><ele>6.25</ele><time>2026-04-25T13:25:40Z</time></trkpt><trkpt lat="42.43437008656909" lon="11.13821310862777"><ele>8.5</ele><time>2026-04-25T13:25:41Z</time></trkpt><trkpt lat="42.434429148104435" lon="11.138074176993934"><ele>10.75</ele><time>2026-04-25T13:25:42Z</time></trkpt><trkpt lat="42.43449112819563" lon="11.137937055887512"><ele>13.0</ele><time>2026-04-25T13:25:43Z</time></trkpt><trkpt lat="42.434541326393926" lon="11.13780971924819"><ele>12.999999999999998</ele><time>2026-04-25T13:25:44Z</time></trkpt><trkpt lat="42.43458446269358" lon="11.13769326670688"><ele>13.0</ele><time>2026-04-25T13:25:45Z</time></trkpt><trkpt lat="42.4346179992298" lon="11.137592699559658"><ele>13.0</ele><time>2026-04-25T13:25:46Z</time></trkpt><trkpt lat="42.43466640596592" lon="11.13751375662525"><ele>13.0</ele><time>2026-04-25T13:25:47Z</time></trkpt><trkpt lat="42.43470791005809" lon="11.137416338715932"><ele>12.999999999999998</ele><time>2026-04-25T13:25:48Z</time></trkpt><trkpt lat="42.434778756680174" lon="11.13733160620085"><ele>13.0</ele><time>2026-04-25T13:25:49Z</time></trkpt><trkpt lat="42.434867109627746" lon="11.137271977171869"><ele>14.0</ele><time>2026-04-25T13:25:50Z</time></trkpt><trkpt lat="42.43496274606157" lon="11.13722307117604"><ele>15.0</ele><time>2026-04-25T13:25:51Z</time></trkpt><trkpt lat="42.435060143211075" lon="11.137200458761837"><ele>16.0</ele><time>2026-04-25T13:25:52Z</time></trkpt><trkpt lat="42.43516401664594" lon="11.137171354625865"><ele>17.0</ele><time>2026-04-25T13:25:53Z</time></trkpt><trkpt lat="42.435260512291855" lon="11.137134848148742"><ele>18.0</ele><time>2026-04-25T13:25:54Z</time></trkpt><trkpt lat="42.435348347060824" lon="11.137085818042287"><ele>18.0</ele><time>2026-04-25T13:25:55Z</time></trkpt><trkpt lat="42.435429907984904" lon="11.137028332862775"><ele>18.0</ele><time>2026-04-25T13:25:56Z</time></trkpt><trkpt lat="42.43549314567471" lon="11.136975798044713"><ele>18.0</ele><time>2026-04-25T13:25:57Z</time></trkpt><trkpt lat="42.435574466547585" lon="11.136903388543432"><ele>18.0</ele><time>2026-04-25T13:25:59Z</time></trkpt><trkpt lat="42.43550763409534" lon="11.13684497551424"><ele>18.0</ele><time>2026-04-25T13:26:06Z</time></trkpt><trkpt lat="42.43542283543671" lon="11.136872103836767"><ele>18.0</ele><time>2026-04-25T13:26:07Z</time></trkpt><trkpt lat="42.43534319646385" lon="11.136905413157091"><ele>18.0</ele><time>2026-04-25T13:26:08Z</time></trkpt><trkpt lat="42.435246840623016" lon="11.136918827302816"><ele>18.0</ele><time>2026-04-25T13:26:09Z</time></trkpt><trkpt lat="42.435141678966055" lon="11.136932520269502"><ele>18.0</ele><time>2026-04-25T13:26:10Z</time></trkpt><trkpt lat="42.43503247667684" lon="11.136939650818293"><ele>18.0</ele><time>2026-04-25T13:26:11Z</time></trkpt><trkpt lat="42.43492689046279" lon="11.136947196573482"><ele>18.0</ele><time>2026-04-25T13:26:12Z</time></trkpt><trkpt lat="42.434822423386635" lon="11.136966353487034"><ele>18.0</ele><time>2026-04-25T13:26:13Z</time></trkpt><trkpt lat="42.434718116761616" lon="11.136993419646604"><ele>18.0</ele><time>2026-04-25T13:26:14Z</time></trkpt><trkpt lat="42.434617483037435" lon="11.137048361070084"><ele>18.0</ele><time>2026-04-25T13:26:15Z</time></trkpt><trkpt lat="42.434508652625986" lon="11.137123768442015"><ele>18.0</ele><time>2026-04-25T13:26:16Z</time></trkpt><trkpt lat="42.434391305613964" lon="11.13720999981056"><ele>16.75</ele><time>2026-04-25T13:26:17Z</time></trkpt><trkpt lat="42.434265959654915" lon="11.137292271970036"><ele>15.5</ele><time>2026-04-25T13:26:18Z</time></trkpt><trkpt lat="42.43413452121858" lon="11.137357853049943"><ele>14.25</ele><time>2026-04-25T13:26:19Z</time></trkpt><trkpt lat="42.43399212837389" lon="11.137400922238033"><ele>13.0</ele><time>2026-04-25T13:26:20Z</time></trkpt><trkpt lat="42.43385763418441" lon="11.137450800294774"><ele>15.25</ele><time>2026-04-25T13:26:21Z</time></trkpt><trkpt lat="42.43372582082069" lon="11.137509651278537"><ele>17.5</ele><time>2026-04-25T13:26:22Z</time></trkpt><trkpt lat="42.43360728998282" lon="11.137581429571503"><ele>19.75</ele><time>2026-04-25T13:26:23Z</time></trkpt><trkpt lat="42.43350884868737" lon="11.137650562479253"><ele>22.0</ele><time>2026-04-25T13:26:24Z</time></trkpt><trkpt lat="42.43340812241467" lon="11.137721840037251"><ele>22.0</ele><time>2026-04-25T13:26:25Z</time></trkpt><trkpt lat="42.43332656514661" lon="11.137786041283428"><ele>22.0</ele><time>2026-04-25T13:26:26Z</time></trkpt><trkpt lat="42.433244091576285" lon="11.137852094688656"><ele>22.0</ele><time>2026-04-25T13:26:27Z</time></trkpt><trkpt lat="42.43315996280449" lon="11.137914702750965"><ele>22.0</ele><time>2026-04-25T13:26:28Z</time></trkpt><trkpt lat="42.43307905912557" lon="11.137964068022262"><ele>22.0</ele><time>2026-04-25T13:26:29.001Z</time></trkpt><trkpt lat="42.433002414327746" lon="11.138000648780803"><ele>24.0</ele><time>2026-04-25T13:26:30.001Z</time></trkpt><trkpt lat="42.43294749227262" lon="11.13805617234395"><ele>26.0</ele><time>2026-04-25T13:26:31.001Z</time></trkpt><trkpt lat="42.43288392981397" lon="11.138087221956855"><ele>28.0</ele><time>2026-04-25T13:26:34.001Z</time></trkpt><trkpt lat="42.432819093546" lon="11.138034548054684"><ele>30.0</ele><time>2026-04-25T13:26:35.001Z</time></trkpt><trkpt lat="42.43275242956121" lon="11.138039083285838"><ele>32.0</ele><time>2026-04-25T13:26:37.001Z</time></trkpt><trkpt lat="42.432643144951136" lon="11.138034907961394"><ele>34.0</ele><time>2026-04-25T13:26:39.001Z</time></trkpt><trkpt lat="42.43255897511762" lon="11.138013694625068"><ele>34.0</ele><time>2026-04-25T13:26:41.001Z</time></trkpt><trkpt lat="42.43249208436786" lon="11.138009643114614"><ele>34.0</ele><time>2026-04-25T13:26:42.001Z</time></trkpt><trkpt lat="42.4324249209473" lon="11.137999033938513"><ele>34.0</ele><time>2026-04-25T13:26:43.001Z</time></trkpt><trkpt lat="42.43236074841526" lon="11.137983488048436"><ele>34.0</ele><time>2026-04-25T13:26:44.001Z</time></trkpt><trkpt lat="42.43228890844292" lon="11.137960363360731"><ele>34.0</ele><time>2026-04-25T13:26:45Z</time></trkpt><trkpt lat="42.43219537634045" lon="11.137944666458418"><ele>34.0</ele><time>2026-04-25T13:26:46Z</time></trkpt><trkpt lat="42.432097073835706" lon="11.13789271262144"><ele>34.25</ele><time>2026-04-25T13:26:47Z</time></trkpt><trkpt lat="42.432017701538726" lon="11.137932094487015"><ele>34.5</ele><time>2026-04-25T13:26:48Z</time></trkpt><trkpt lat="42.431930843079506" lon="11.138001741971156"><ele>34.75</ele><time>2026-04-25T13:26:49Z</time></trkpt><trkpt lat="42.43184496280836" lon="11.13808184013335"><ele>35.0</ele><time>2026-04-25T13:26:50Z</time></trkpt><trkpt lat="42.431753623345706" lon="11.137899409340637"><ele>35.0</ele><time>2026-04-25T13:26:51Z</time></trkpt><trkpt lat="42.431693073030594" lon="11.137867474798838"><ele>35.0</ele><time>2026-04-25T13:26:52Z</time></trkpt><trkpt lat="42.431575099987214" lon="11.13781716943562"><ele>35.0</ele><time>2026-04-25T13:26:54Z</time></trkpt><trkpt lat="42.43150120997917" lon="11.137787988628297"><ele>35.0</ele><time>2026-04-25T13:26:55Z</time></trkpt><trkpt lat="42.43142279069419" lon="11.137764325855205"><ele>35.0</ele><time>2026-04-25T13:26:56Z</time></trkpt><trkpt lat="42.43135029908785" lon="11.13772778146165"><ele>35.0</ele><time>2026-04-25T13:26:57Z</time></trkpt><trkpt lat="42.43127979440132" lon="11.137688943889993"><ele>34.285714285714285</ele><time>2026-04-25T13:26:58Z</time></trkpt><trkpt lat="42.43121459776203" lon="11.137648151571222"><ele>33.57142857142857</ele><time>2026-04-25T13:26:59Z</time></trkpt><trkpt lat="42.43117288979769" lon="11.137574247057017"><ele>32.85714285714286</ele><time>2026-04-25T13:27:00Z</time></trkpt><trkpt lat="42.43111143973224" lon="11.137526404627996"><ele>32.14285714285714</ele><time>2026-04-25T13:27:01Z</time></trkpt><trkpt lat="42.43105110940133" lon="11.137478222009923"><ele>31.428571428571427</ele><time>2026-04-25T13:27:02Z</time></trkpt><trkpt lat="42.43098799186852" lon="11.13742516380447"><ele>30.714285714285715</ele><time>2026-04-25T13:27:03Z</time></trkpt><trkpt lat="42.430915553428825" lon="11.137364270103035"><ele>30.0</ele><time>2026-04-25T13:27:04Z</time></trkpt><trkpt lat="42.43084549268259" lon="11.137304909302902"><ele>31.333333333333332</ele><time>2026-04-25T13:27:05Z</time></trkpt><trkpt lat="42.43077417874153" lon="11.13724404483889"><ele>32.666666666666664</ele><time>2026-04-25T13:27:06Z</time></trkpt><trkpt lat="42.430711484333266" lon="11.137190536525194"><ele>34.0</ele><time>2026-04-25T13:27:07Z</time></trkpt><trkpt lat="42.43065882719205" lon="11.137143791634212"><ele>35.33333333333333</ele><time>2026-04-25T13:27:08Z</time></trkpt><trkpt lat="42.430588850156326" lon="11.137081631474512"><ele>36.666666666666664</ele><time>2026-04-25T13:27:09Z</time></trkpt><trkpt lat="42.43051205722409" lon="11.137011583612958"><ele>38.0</ele><time>2026-04-25T13:27:10Z</time></trkpt><trkpt lat="42.430437417905104" lon="11.136942509291371"><ele>38.0</ele><time>2026-04-25T13:27:11Z</time></trkpt><trkpt lat="42.43035713611874" lon="11.136893034735257"><ele>38.0</ele><time>2026-04-25T13:27:12Z</time></trkpt><trkpt lat="42.430291449590285" lon="11.136826863912377"><ele>38.0</ele><time>2026-04-25T13:27:13Z</time></trkpt><trkpt lat="42.430222374767425" lon="11.136765976826618"><ele>38.0</ele><time>2026-04-25T13:27:14Z</time></trkpt><trkpt lat="42.43015556102429" lon="11.136699627385"><ele>38.0</ele><time>2026-04-25T13:27:15Z</time></trkpt><trkpt lat="42.43009074571979" lon="11.136637567658685"><ele>38.0</ele><time>2026-04-25T13:27:16Z</time></trkpt><trkpt lat="42.43001588947056" lon="11.136571780473375"><ele>39.5</ele><time>2026-04-25T13:27:17Z</time></trkpt><trkpt lat="42.429944764305105" lon="11.136505584734875"><ele>41.0</ele><time>2026-04-25T13:27:18Z</time></trkpt><trkpt lat="42.42988358497433" lon="11.136425549348449"><ele>42.5</ele><time>2026-04-25T13:27:19Z</time></trkpt><trkpt lat="42.42982449270073" lon="11.136370481539842"><ele>44.0</ele><time>2026-04-25T13:27:20Z</time></trkpt><trkpt lat="42.42976176773923" lon="11.136312936997037"><ele>45.5</ele><time>2026-04-25T13:27:21Z</time></trkpt><trkpt lat="42.4296890198255" lon="11.136246197131413"><ele>47.0</ele><time>2026-04-25T13:27:22Z</time></trkpt><trkpt lat="42.42962205875488" lon="11.136185759449958"><ele>47.0</ele><time>2026-04-25T13:27:23Z</time></trkpt><trkpt lat="42.429559839656214" lon="11.13613084876944"><ele>47.0</ele><time>2026-04-25T13:27:24Z</time></trkpt><trkpt lat="42.42949809275832" lon="11.136077185350548"><ele>47.0</ele><time>2026-04-25T13:27:25Z</time></trkpt><trkpt lat="42.429426851229394" lon="11.136016727681577"><ele>47.0</ele><time>2026-04-25T13:27:26Z</time></trkpt><trkpt lat="42.42935429131204" lon="11.135955151083278"><ele>47.0</ele><time>2026-04-25T13:27:27Z</time></trkpt><trkpt lat="42.429260397113076" lon="11.135875469675852"><ele>47.0</ele><time>2026-04-25T13:27:28Z</time></trkpt><trkpt lat="42.42915515233954" lon="11.135787018954964"><ele>48.666666666666664</ele><time>2026-04-25T13:27:30Z</time></trkpt><trkpt lat="42.42907368294474" lon="11.135709413149598"><ele>50.33333333333333</ele><time>2026-04-25T13:27:31Z</time></trkpt><trkpt lat="42.429014070814674" lon="11.135651944510027"><ele>52.0</ele><time>2026-04-25T13:27:32Z</time></trkpt><trkpt lat="42.42893974772987" lon="11.135574981280492"><ele>53.666666666666664</ele><time>2026-04-25T13:27:33Z</time></trkpt><trkpt lat="42.42887026885327" lon="11.135497788073197"><ele>55.333333333333336</ele><time>2026-04-25T13:27:34Z</time></trkpt><trkpt lat="42.42880281500995" lon="11.135418604861682"><ele>57.0</ele><time>2026-04-25T13:27:35Z</time></trkpt><trkpt lat="42.42874051897297" lon="11.135342492700222"><ele>57.0</ele><time>2026-04-25T13:27:36Z</time></trkpt><trkpt lat="42.428687839894216" lon="11.13527338437823"><ele>57.0</ele><time>2026-04-25T13:27:37Z</time></trkpt><trkpt lat="42.428634701079794" lon="11.135202879834823"><ele>57.0</ele><time>2026-04-25T13:27:38Z</time></trkpt><trkpt lat="42.42857314399568" lon="11.135114772905286"><ele>57.0</ele><time>2026-04-25T13:27:39Z</time></trkpt><trkpt lat="42.42850672517815" lon="11.135052140115272"><ele>57.0</ele><time>2026-04-25T13:27:40Z</time></trkpt><trkpt lat="42.42844665178617" lon="11.134931038844964"><ele>57.0</ele><time>2026-04-25T13:27:42Z</time></trkpt><trkpt lat="42.42838959843087" lon="11.134846752105584"><ele>61.6</ele><time>2026-04-25T13:27:43Z</time></trkpt><trkpt lat="42.42832095457196" lon="11.1347436802484"><ele>66.2</ele><time>2026-04-25T13:27:44Z</time></trkpt><trkpt lat="42.42824917941951" lon="11.134657937217638"><ele>70.8</ele><time>2026-04-25T13:27:45Z</time></trkpt><trkpt lat="42.42819874862357" lon="11.134549564310904"><ele>75.4</ele><time>2026-04-25T13:27:46Z</time></trkpt><trkpt lat="42.42814496191441" lon="11.134462725361063"><ele>80.0</ele><time>2026-04-25T13:27:47Z</time></trkpt><trkpt lat="42.428079384802146" lon="11.134356850856976"><ele>80.0</ele><time>2026-04-25T13:27:49Z</time></trkpt><trkpt lat="42.427989457699404" lon="11.134211663192005"><ele>80.0</ele><time>2026-04-25T13:27:51Z</time></trkpt><trkpt lat="42.427931580736114" lon="11.134118869368288"><ele>80.0</ele><time>2026-04-25T13:27:52Z</time></trkpt><trkpt lat="42.427872129638764" lon="11.134025919186621"><ele>80.0</ele><time>2026-04-25T13:27:53Z</time></trkpt><trkpt lat="42.42780303073864" lon="11.133954750389991"><ele>80.0</ele><time>2026-04-25T13:27:54Z</time></trkpt><trkpt lat="42.42775117847017" lon="11.13387540765483"><ele>79.0</ele><time>2026-04-25T13:27:55Z</time></trkpt><trkpt lat="42.427692275891374" lon="11.133790605604714"><ele>78.0</ele><time>2026-04-25T13:27:56Z</time></trkpt><trkpt lat="42.42764257922022" lon="11.133715996436534"><ele>77.0</ele><time>2026-04-25T13:27:57Z</time></trkpt><trkpt lat="42.427594454560506" lon="11.133648927363204"><ele>76.0</ele><time>2026-04-25T13:27:58Z</time></trkpt><trkpt lat="42.42753498201913" lon="11.133565454364309"><ele>75.0</ele><time>2026-04-25T13:27:59Z</time></trkpt><trkpt lat="42.427466682489914" lon="11.133469526607698"><ele>74.0</ele><time>2026-04-25T13:28:00Z</time></trkpt><trkpt lat="42.427401343160064" lon="11.133384139657084"><ele>74.0</ele><time>2026-04-25T13:28:01Z</time></trkpt><trkpt lat="42.42734016828701" lon="11.133326546223092"><ele>74.0</ele><time>2026-04-25T13:28:02Z</time></trkpt><trkpt lat="42.427282141816654" lon="11.133266055369544"><ele>74.0</ele><time>2026-04-25T13:28:03Z</time></trkpt><trkpt lat="42.42721946192631" lon="11.1332099308598"><ele>74.0</ele><time>2026-04-25T13:28:04Z</time></trkpt><trkpt lat="42.427156015171185" lon="11.13316361564122"><ele>74.0</ele><time>2026-04-25T13:28:05Z</time></trkpt><trkpt lat="42.42710412806462" lon="11.133112422855424"><ele>74.0</ele><time>2026-04-25T13:28:06Z</time></trkpt><trkpt lat="42.42705170033943" lon="11.13305879302117"><ele>74.0</ele><time>2026-04-25T13:28:07Z</time></trkpt><trkpt lat="42.42699257721118" lon="11.133009531723367"><ele>75.5</ele><time>2026-04-25T13:28:08Z</time></trkpt><trkpt lat="42.42694133575032" lon="11.132943098907928"><ele>77.0</ele><time>2026-04-25T13:28:09Z</time></trkpt><trkpt lat="42.42688170470967" lon="11.13288421558483"><ele>78.5</ele><time>2026-04-25T13:28:10Z</time></trkpt><trkpt lat="42.426820820191196" lon="11.132825410079038"><ele>80.0</ele><time>2026-04-25T13:28:11Z</time></trkpt><trkpt lat="42.42675648361711" lon="11.132763270144986"><ele>81.5</ele><time>2026-04-25T13:28:12Z</time></trkpt><trkpt lat="42.426682228105896" lon="11.132691797250299"><ele>83.0</ele><time>2026-04-25T13:28:13Z</time></trkpt><trkpt lat="42.426603445048634" lon="11.132617976923454"><ele>83.0</ele><time>2026-04-25T13:28:14Z</time></trkpt><trkpt lat="42.426529259394556" lon="11.132548464587206"><ele>83.0</ele><time>2026-04-25T13:28:15Z</time></trkpt><trkpt lat="42.426458118919996" lon="11.132481805641598"><ele>83.0</ele><time>2026-04-25T13:28:16Z</time></trkpt><trkpt lat="42.42638896241344" lon="11.132417005567248"><ele>83.0</ele><time>2026-04-25T13:28:17Z</time></trkpt><trkpt lat="42.42631587001294" lon="11.132348517542551"><ele>83.0</ele><time>2026-04-25T13:28:18Z</time></trkpt><trkpt lat="42.42623572509641" lon="11.132273421482966"><ele>83.0</ele><time>2026-04-25T13:28:19Z</time></trkpt><trkpt lat="42.42615486396811" lon="11.132197654269266"><ele>85.0</ele><time>2026-04-25T13:28:20Z</time></trkpt><trkpt lat="42.42608470682116" lon="11.13213139252235"><ele>87.0</ele><time>2026-04-25T13:28:21Z</time></trkpt><trkpt lat="42.42602450137859" lon="11.132074143798336"><ele>89.0</ele><time>2026-04-25T13:28:22Z</time></trkpt><trkpt lat="42.42596204111401" lon="11.132014751115703"><ele>91.0</ele><time>2026-04-25T13:28:23Z</time></trkpt><trkpt lat="42.425885837692434" lon="11.131942289834873"><ele>93.0</ele><time>2026-04-25T13:28:24Z</time></trkpt><trkpt lat="42.425800533837325" lon="11.13186412478702"><ele>95.0</ele><time>2026-04-25T13:28:25Z</time></trkpt><trkpt lat="42.42571992147721" lon="11.131792146686976"><ele>95.0</ele><time>2026-04-25T13:28:26Z</time></trkpt><trkpt lat="42.42564579621019" lon="11.13172653482226"><ele>95.0</ele><time>2026-04-25T13:28:27Z</time></trkpt><trkpt lat="42.425573566454666" lon="11.131657351950755"><ele>95.0</ele><time>2026-04-25T13:28:28Z</time></trkpt><trkpt lat="42.42551122336496" lon="11.131585773803247"><ele>95.0</ele><time>2026-04-25T13:28:29Z</time></trkpt><trkpt lat="42.42545718615731" lon="11.131503823427044"><ele>95.0</ele><time>2026-04-25T13:28:30Z</time></trkpt><trkpt lat="42.42542332702316" lon="11.131428297525737"><ele>95.0</ele><time>2026-04-25T13:28:31Z</time></trkpt><trkpt lat="42.42539805070489" lon="11.131337734620113"><ele>93.0</ele><time>2026-04-25T13:28:32Z</time></trkpt><trkpt lat="42.42538391739765" lon="11.131230643769287"><ele>91.0</ele><time>2026-04-25T13:28:33Z</time></trkpt><trkpt lat="42.42537198924544" lon="11.131111941947893"><ele>89.0</ele><time>2026-04-25T13:28:34Z</time></trkpt><trkpt lat="42.4253399809343" lon="11.130973270627658"><ele>87.0</ele><time>2026-04-25T13:28:34.999Z</time></trkpt><trkpt lat="42.425340726357575" lon="11.130805662484669"><ele>85.0</ele><time>2026-04-25T13:28:36.999Z</time></trkpt><trkpt lat="42.425331256190006" lon="11.130693391306487"><ele>89.66666666666666</ele><time>2026-04-25T13:28:37.999Z</time></trkpt><trkpt lat="42.42530302441742" lon="11.130537317287928"><ele>94.33333333333333</ele><time>2026-04-25T13:28:39.999Z</time></trkpt><trkpt lat="42.42526139148517" lon="11.130462194777907"><ele>99.0</ele><time>2026-04-25T13:28:40.999Z</time></trkpt><trkpt lat="42.425185996193434" lon="11.130421635860323"><ele>103.66666666666666</ele><time>2026-04-25T13:28:41.999Z</time></trkpt><trkpt lat="42.42511349745354" lon="11.130397368669142"><ele>108.33333333333333</ele><time>2026-04-25T13:28:42.999Z</time></trkpt><trkpt lat="42.42503090411795" lon="11.130387008894711"><ele>113.0</ele><time>2026-04-25T13:28:43.999Z</time></trkpt><trkpt lat="42.42494066197763" lon="11.130342571970273"><ele>112.99999999999999</ele><time>2026-04-25T13:28:44.999Z</time></trkpt><trkpt lat="42.42485065273346" lon="11.13029514502993"><ele>113.0</ele><time>2026-04-25T13:28:45.999Z</time></trkpt><trkpt lat="42.42476294208493" lon="11.13024335130877"><ele>113.0</ele><time>2026-04-25T13:28:46.999Z</time></trkpt><trkpt lat="42.42469188657719" lon="11.130199060959837"><ele>113.0</ele><time>2026-04-25T13:28:47.999Z</time></trkpt><trkpt lat="42.424622705107254" lon="11.130152480575028"><ele>112.99999999999999</ele><time>2026-04-25T13:28:48.999Z</time></trkpt><trkpt lat="42.424544992920545" lon="11.130095543066377"><ele>113.0</ele><time>2026-04-25T13:28:49.999Z</time></trkpt><trkpt lat="42.42446471337151" lon="11.130032245185694"><ele>110.2</ele><time>2026-04-25T13:28:50.999Z</time></trkpt><trkpt lat="42.42438686691647" lon="11.129971237375829"><ele>107.4</ele><time>2026-04-25T13:28:51.999Z</time></trkpt><trkpt lat="42.42430435204653" lon="11.129880835420485"><ele>104.60000000000001</ele><time>2026-04-25T13:28:52.999Z</time></trkpt><trkpt lat="42.424221735706695" lon="11.129786187749993"><ele>101.80000000000001</ele><time>2026-04-25T13:28:53.999Z</time></trkpt><trkpt lat="42.42415378938018" lon="11.129706976852678"><ele>99.0</ele><time>2026-04-25T13:28:54.999Z</time></trkpt><trkpt lat="42.42404476485656" lon="11.129655454658742"><ele>106.25</ele><time>2026-04-25T13:28:56.999Z</time></trkpt><trkpt lat="42.42391505612846" lon="11.129696310699677"><ele>113.5</ele><time>2026-04-25T13:28:58.999Z</time></trkpt><trkpt lat="42.42384247795686" lon="11.129715172422344"><ele>120.75</ele><time>2026-04-25T13:28:59.999Z</time></trkpt><trkpt lat="42.42371669882147" lon="11.12972517775621"><ele>128.0</ele><time>2026-04-25T13:29:00.999Z</time></trkpt><trkpt lat="42.423595158822174" lon="11.129731958146337"><ele>128.0</ele><time>2026-04-25T13:29:01.999Z</time></trkpt><trkpt lat="42.42348891723905" lon="11.129734706774663"><ele>128.0</ele><time>2026-04-25T13:29:02.999Z</time></trkpt><trkpt lat="42.42340056060673" lon="11.129729677371904"><ele>128.0</ele><time>2026-04-25T13:29:03.999Z</time></trkpt><trkpt lat="42.42331587441345" lon="11.129713920811557"><ele>128.0</ele><time>2026-04-25T13:29:04.999Z</time></trkpt><trkpt lat="42.42323591046481" lon="11.129693324109278"><ele>128.0</ele><time>2026-04-25T13:29:05.999Z</time></trkpt><trkpt lat="42.4231495813708" lon="11.129666290787215"><ele>128.0</ele><time>2026-04-25T13:29:06.999Z</time></trkpt><trkpt lat="42.423063193575" lon="11.12963119669186"><ele>128.0</ele><time>2026-04-25T13:29:07.999Z</time></trkpt><trkpt lat="42.42297054303827" lon="11.129586886797993"><ele>128.0</ele><time>2026-04-25T13:29:08.999Z</time></trkpt><trkpt lat="42.42288808951562" lon="11.129538205354411"><ele>128.0</ele><time>2026-04-25T13:29:09.999Z</time></trkpt><trkpt lat="42.42280069884715" lon="11.129494653211355"><ele>128.0</ele><time>2026-04-25T13:29:10.999Z</time></trkpt><trkpt lat="42.42271830331302" lon="11.129394890668584"><ele>131.0</ele><time>2026-04-25T13:29:11.999Z</time></trkpt><trkpt lat="42.422651914852956" lon="11.129254014012352"><ele>134.0</ele><time>2026-04-25T13:29:12.999Z</time></trkpt><trkpt lat="42.42256224004548" lon="11.129095149189762"><ele>137.0</ele><time>2026-04-25T13:29:14.999Z</time></trkpt><trkpt lat="42.42248959606354" lon="11.128982159172907"><ele>140.0</ele><time>2026-04-25T13:29:15.999Z</time></trkpt><trkpt lat="42.42240570257883" lon="11.128879230252261"><ele>140.0</ele><time>2026-04-25T13:29:16.999Z</time></trkpt><trkpt lat="42.42232820588924" lon="11.128807479369675"><ele>140.0</ele><time>2026-04-25T13:29:17.999Z</time></trkpt><trkpt lat="42.42227720011621" lon="11.128737932004539"><ele>140.0</ele><time>2026-04-25T13:29:18.999Z</time></trkpt><trkpt lat="42.42222539040516" lon="11.12868027188176"><ele>140.0</ele><time>2026-04-25T13:29:19.999Z</time></trkpt><trkpt lat="42.42216053109341" lon="11.128596552008439"><ele>140.0</ele><time>2026-04-25T13:29:20.999Z</time></trkpt><trkpt lat="42.42211821387323" lon="11.128531248767764"><ele>140.0</ele><time>2026-04-25T13:29:21.999Z</time></trkpt><trkpt lat="42.42208849264496" lon="11.128431268558712"><ele>140.0</ele><time>2026-04-25T13:29:23.999Z</time></trkpt><trkpt lat="42.42215013627361" lon="11.128385176884168"><ele>140.0</ele><time>2026-04-25T13:30:22.999Z</time></trkpt><trkpt lat="42.42225587809206" lon="11.12845116895792"><ele>140.0</ele><time>2026-04-25T13:30:24.999Z</time></trkpt><trkpt lat="42.42232995163542" lon="11.128518839179572"><ele>140.0</ele><time>2026-04-25T13:30:26.999Z</time></trkpt><trkpt lat="42.422420396216786" lon="11.128619376069372"><ele>140.0</ele><time>2026-04-25T13:30:27.999Z</time></trkpt><trkpt lat="42.422489345993085" lon="11.128739334123384"><ele>140.0</ele><time>2026-04-25T13:30:28.999Z</time></trkpt><trkpt lat="42.42254932895566" lon="11.128836691669067"><ele>140.0</ele><time>2026-04-25T13:30:29.999Z</time></trkpt><trkpt lat="42.42260754579276" lon="11.128905017670792"><ele>140.0</ele><time>2026-04-25T13:30:30.999Z</time></trkpt><trkpt lat="42.422671702637" lon="11.128975101053333"><ele>140.0</ele><time>2026-04-25T13:30:31.999Z</time></trkpt><trkpt lat="42.42274661007488" lon="11.12906699596768"><ele>140.0</ele><time>2026-04-25T13:30:32.999Z</time></trkpt><trkpt lat="42.422831508245764" lon="11.129150065763083"><ele>137.6</ele><time>2026-04-25T13:30:33.999Z</time></trkpt><trkpt lat="42.422909622403274" lon="11.129217983191271"><ele>135.2</ele><time>2026-04-25T13:30:34.999Z</time></trkpt><trkpt lat="42.42299857449708" lon="11.129253096464222"><ele>132.8</ele><time>2026-04-25T13:30:35.999Z</time></trkpt><trkpt lat="42.423103785573225" lon="11.12926580054232"><ele>130.4</ele><time>2026-04-25T13:30:36.999Z</time></trkpt><trkpt lat="42.42321664758169" lon="11.129254061883453"><ele>128.0</ele><time>2026-04-25T13:30:37.999Z</time></trkpt><trkpt lat="42.42332129061799" lon="11.129243021417928"><ele>127.99999999999999</ele><time>2026-04-25T13:30:38.999Z</time></trkpt><trkpt lat="42.42340563265459" lon="11.129231463251225"><ele>128.0</ele><time>2026-04-25T13:30:39.999Z</time></trkpt><trkpt lat="42.4234820023792" lon="11.129186132490307"><ele>128.0</ele><time>2026-04-25T13:30:40.999Z</time></trkpt><trkpt lat="42.42356394791095" lon="11.129153788057806"><ele>128.0</ele><time>2026-04-25T13:30:41.999Z</time></trkpt><trkpt lat="42.42363788706717" lon="11.129085379986625"><ele>127.99999999999999</ele><time>2026-04-25T13:30:42.999Z</time></trkpt><trkpt lat="42.42370902617455" lon="11.129011278352518"><ele>128.0</ele><time>2026-04-25T13:30:43.999Z</time></trkpt><trkpt lat="42.42378872531751" lon="11.128971011142243"><ele>134.0</ele><time>2026-04-25T13:30:44.999Z</time></trkpt><trkpt lat="42.42387912882921" lon="11.128911775484863"><ele>140.0</ele><time>2026-04-25T13:30:45.999Z</time></trkpt><trkpt lat="42.42396662448466" lon="11.128872807107273"><ele>146.0</ele><time>2026-04-25T13:30:46.999Z</time></trkpt><trkpt lat="42.4240535678905" lon="11.128856690886577"><ele>152.0</ele><time>2026-04-25T13:30:47.999Z</time></trkpt><trkpt lat="42.424142885724436" lon="11.128848633903525"><ele>158.0</ele><time>2026-04-25T13:30:48.999Z</time></trkpt><trkpt lat="42.424238484036586" lon="11.128849549217406"><ele>158.0</ele><time>2026-04-25T13:30:49.999Z</time></trkpt><trkpt lat="42.42432936619865" lon="11.12885858609941"><ele>158.0</ele><time>2026-04-25T13:30:50.999Z</time></trkpt><trkpt lat="42.42442135422178" lon="11.128872366970818"><ele>158.0</ele><time>2026-04-25T13:30:51.999Z</time></trkpt><trkpt lat="42.424497611391445" lon="11.12888747429508"><ele>158.0</ele><time>2026-04-25T13:30:52.999Z</time></trkpt><trkpt lat="42.424573464345684" lon="11.128912335123983"><ele>158.0</ele><time>2026-04-25T13:30:53.999Z</time></trkpt><trkpt lat="42.42466364181517" lon="11.128940061167519"><ele>158.0</ele><time>2026-04-25T13:30:54.999Z</time></trkpt><trkpt lat="42.424761095319674" lon="11.128986398493245"><ele>160.4</ele><time>2026-04-25T13:30:55.999Z</time></trkpt><trkpt lat="42.424870296952875" lon="11.129042850092173"><ele>162.8</ele><time>2026-04-25T13:30:56.999Z</time></trkpt><trkpt lat="42.4249684502083" lon="11.12907582307738"><ele>165.2</ele><time>2026-04-25T13:30:57.999Z</time></trkpt><trkpt lat="42.42507786787881" lon="11.129083778574687"><ele>167.6</ele><time>2026-04-25T13:30:58.999Z</time></trkpt><trkpt lat="42.42517431457695" lon="11.12906349818576"><ele>170.0</ele><time>2026-04-25T13:30:59.999Z</time></trkpt><trkpt lat="42.42526389801057" lon="11.12904931549422"><ele>170.0</ele><time>2026-04-25T13:31:00.999Z</time></trkpt><trkpt lat="42.42534347304892" lon="11.129027609162211"><ele>170.0</ele><time>2026-04-25T13:31:01.999Z</time></trkpt><trkpt lat="42.42542224319822" lon="11.129002185902209"><ele>170.0</ele><time>2026-04-25T13:31:02.999Z</time></trkpt><trkpt lat="42.42556414710633" lon="11.128942391825076"><ele>170.0</ele><time>2026-04-25T13:31:03.999Z</time></trkpt><trkpt lat="42.42566801216133" lon="11.128882041206781"><ele>170.0</ele><time>2026-04-25T13:31:04.999Z</time></trkpt><trkpt lat="42.425780515253265" lon="11.128860645179353"><ele>169.2</ele><time>2026-04-25T13:31:05.999Z</time></trkpt><trkpt lat="42.42586743790287" lon="11.128847908471707"><ele>168.4</ele><time>2026-04-25T13:31:06.999Z</time></trkpt><trkpt lat="42.426042967005934" lon="11.128870579329517"><ele>167.60000000000002</ele><time>2026-04-25T13:31:08.999Z</time></trkpt><trkpt lat="42.426124622609095" lon="11.128880312049143"><ele>166.8</ele><time>2026-04-25T13:31:09.999Z</time></trkpt><trkpt lat="42.426186427777424" lon="11.12891102175847"><ele>166.0</ele><time>2026-04-25T13:31:10.999Z</time></trkpt><trkpt lat="42.42642007772766" lon="11.129084978283451"><ele>164.16666666666669</ele><time>2026-04-25T13:31:12.999Z</time></trkpt><trkpt lat="42.42649608219194" lon="11.12911444017729"><ele>162.33333333333334</ele><time>2026-04-25T13:31:13.999Z</time></trkpt><trkpt lat="42.42657521494498" lon="11.129197905989349"><ele>160.5</ele><time>2026-04-25T13:31:15.999Z</time></trkpt><trkpt lat="42.42657322357666" lon="11.129284223084019"><ele>158.66666666666666</ele><time>2026-04-25T13:31:17.999Z</time></trkpt><trkpt lat="42.426571521070386" lon="11.129443143655001"><ele>156.83333333333331</ele><time>2026-04-25T13:31:20.999Z</time></trkpt><trkpt lat="42.42657131704663" lon="11.129549063159809"><ele>155.0</ele><time>2026-04-25T13:31:21.999Z</time></trkpt><trkpt lat="42.42656933208356" lon="11.129651249081231"><ele>155.0</ele><time>2026-04-25T13:31:22.999Z</time></trkpt><trkpt lat="42.42656635900993" lon="11.129756524591437"><ele>155.0</ele><time>2026-04-25T13:31:23.999Z</time></trkpt><trkpt lat="42.426573043817214" lon="11.129881860387147"><ele>155.0</ele><time>2026-04-25T13:31:24.999Z</time></trkpt><trkpt lat="42.42657667493673" lon="11.130009202661753"><ele>155.0</ele><time>2026-04-25T13:31:25.999Z</time></trkpt><trkpt lat="42.426582991777195" lon="11.130130035935052"><ele>155.0</ele><time>2026-04-25T13:31:26.999Z</time></trkpt><trkpt lat="42.42660109522846" lon="11.13023780049373"><ele>155.0</ele><time>2026-04-25T13:31:27.999Z</time></trkpt><trkpt lat="42.4266548798633" lon="11.130315170781405"><ele>155.2</ele><time>2026-04-25T13:31:28.999Z</time></trkpt><trkpt lat="42.426716749128616" lon="11.130370345090295"><ele>155.4</ele><time>2026-04-25T13:31:29.999Z</time></trkpt><trkpt lat="42.426788961902105" lon="11.130442354477387"><ele>155.6</ele><time>2026-04-25T13:31:30.999Z</time></trkpt><trkpt lat="42.42686921107718" lon="11.130531943843822"><ele>155.8</ele><time>2026-04-25T13:31:31.999Z</time></trkpt><trkpt lat="42.426967517542714" lon="11.130601928654432"><ele>156.0</ele><time>2026-04-25T13:31:32.999Z</time></trkpt><trkpt lat="42.42707275822799" lon="11.130669386983305"><ele>158.75</ele><time>2026-04-25T13:31:33.999Z</time></trkpt><trkpt lat="42.42718204516461" lon="11.130706348897055"><ele>161.5</ele><time>2026-04-25T13:31:34.999Z</time></trkpt><trkpt lat="42.42729249064639" lon="11.130729818839328"><ele>164.25</ele><time>2026-04-25T13:31:35.999Z</time></trkpt><trkpt lat="42.42740078774964" lon="11.130769905639458"><ele>167.0</ele><time>2026-04-25T13:31:36.999Z</time></trkpt><trkpt lat="42.427524618245435" lon="11.130813135239432"><ele>167.0</ele><time>2026-04-25T13:31:37.999Z</time></trkpt><trkpt lat="42.42764768640778" lon="11.130860415139615"><ele>167.0</ele><time>2026-04-25T13:31:38.999Z</time></trkpt><trkpt lat="42.42776950743175" lon="11.13091935900219"><ele>167.0</ele><time>2026-04-25T13:31:39.999Z</time></trkpt><trkpt lat="42.42789540145557" lon="11.130968607028711"><ele>167.0</ele><time>2026-04-25T13:31:40.999Z</time></trkpt><trkpt lat="42.42800333850747" lon="11.131002237817944"><ele>167.5</ele><time>2026-04-25T13:31:41.999Z</time></trkpt><trkpt lat="42.42808938062857" lon="11.131037039008019"><ele>168.0</ele><time>2026-04-25T13:31:42.999Z</time></trkpt><trkpt lat="42.42816902310141" lon="11.131053342199252"><ele>168.5</ele><time>2026-04-25T13:31:43.999Z</time></trkpt><trkpt lat="42.42825353624052" lon="11.131052759243625"><ele>169.0</ele><time>2026-04-25T13:31:44.999Z</time></trkpt><trkpt lat="42.42835128389125" lon="11.131039621903035"><ele>169.5</ele><time>2026-04-25T13:31:45.999Z</time></trkpt><trkpt lat="42.42843885950438" lon="11.130999163676545"><ele>170.0</ele><time>2026-04-25T13:31:46.999Z</time></trkpt><trkpt lat="42.42850455581074" lon="11.130994044576306"><ele>170.0</ele><time>2026-04-25T13:31:47.999Z</time></trkpt><trkpt lat="42.4286525950715" lon="11.13097053723788"><ele>170.0</ele><time>2026-04-25T13:31:49.999Z</time></trkpt><trkpt lat="42.4287395894745" lon="11.13115913608715"><ele>170.0</ele><time>2026-04-25T13:31:50.999Z</time></trkpt><trkpt lat="42.428815498862114" lon="11.13129844644298"><ele>170.0</ele><time>2026-04-25T13:31:51.999Z</time></trkpt><trkpt lat="42.42891137692092" lon="11.13142317406524"><ele>169.6</ele><time>2026-04-25T13:31:52.999Z</time></trkpt><trkpt lat="42.42898779634398" lon="11.131523896568819"><ele>169.2</ele><time>2026-04-25T13:31:53.999Z</time></trkpt><trkpt lat="42.42904853645122" lon="11.13160851715661"><ele>168.8</ele><time>2026-04-25T13:31:54.999Z</time></trkpt><trkpt lat="42.429122768033764" lon="11.131693748437106"><ele>168.4</ele><time>2026-04-25T13:31:55.999Z</time></trkpt><trkpt lat="42.42919936029717" lon="11.131784064555163"><ele>168.0</ele><time>2026-04-25T13:31:56.999Z</time></trkpt><trkpt lat="42.42928412155614" lon="11.131880364851122"><ele>169.2</ele><time>2026-04-25T13:31:57.999Z</time></trkpt><trkpt lat="42.42937387527408" lon="11.131983891997596"><ele>170.4</ele><time>2026-04-25T13:31:58.999Z</time></trkpt><trkpt lat="42.42946552481413" lon="11.132092293467"><ele>171.6</ele><time>2026-04-25T13:31:59.999Z</time></trkpt><trkpt lat="42.42954068451486" lon="11.132193799224083"><ele>172.79999999999998</ele><time>2026-04-25T13:32:00.999Z</time></trkpt><trkpt lat="42.429608815878154" lon="11.132278816703321"><ele>174.0</ele><time>2026-04-25T13:32:01.999Z</time></trkpt><trkpt lat="42.4296771767123" lon="11.132362526896584"><ele>175.14285714285714</ele><time>2026-04-25T13:32:02.999Z</time></trkpt><trkpt lat="42.42973768355431" lon="11.132433467885132"><ele>176.28571428571428</ele><time>2026-04-25T13:32:03.999Z</time></trkpt><trkpt lat="42.429786395291536" lon="11.132497417924265"><ele>177.42857142857144</ele><time>2026-04-25T13:32:04.999Z</time></trkpt><trkpt lat="42.429867825971854" lon="11.132582657015211"><ele>178.57142857142856</ele><time>2026-04-25T13:32:06.999Z</time></trkpt><trkpt lat="42.42992490853284" lon="11.13262936504698"><ele>179.71428571428572</ele><time>2026-04-25T13:32:09.999Z</time></trkpt><trkpt lat="42.42996718175555" lon="11.132693864205347"><ele>180.85714285714286</ele><time>2026-04-25T13:42:58Z</time></trkpt><trkpt lat="42.43003165090161" lon="11.132707700677802"><ele>182.0</ele><time>2026-04-25T13:43:05Z</time></trkpt><trkpt lat="42.43010230123562" lon="11.132716202082594"><ele>182.0</ele><time>2026-04-25T13:43:12Z</time></trkpt><trkpt lat="42.43017024228228" lon="11.132646765061631"><ele>182.0</ele><time>2026-04-25T13:43:26.001Z</time></trkpt><trkpt lat="42.43037024731807" lon="11.132726843919967"><ele>182.0</ele><time>2026-04-25T13:43:50.001Z</time></trkpt><trkpt lat="42.43045250614409" lon="11.132727264972024"><ele>182.0</ele><time>2026-04-25T13:44:45Z</time></trkpt><trkpt lat="42.43049012637401" lon="11.132594677416005"><ele>182.0</ele><time>2026-04-25T13:44:51Z</time></trkpt><trkpt lat="42.43047336087589" lon="11.132487053849834"><ele>182.0</ele><time>2026-04-25T13:44:52Z</time></trkpt><trkpt lat="42.430496966459025" lon="11.132614491091548"><ele>182.0</ele><time>2026-04-25T13:45:00Z</time></trkpt><trkpt lat="42.43048233342037" lon="11.132704723757005"><ele>182.0</ele><time>2026-04-25T13:45:02Z</time></trkpt><trkpt lat="42.43046699254249" lon="11.132791121487264"><ele>182.0</ele><time>2026-04-25T13:45:08Z</time></trkpt><trkpt lat="42.43048339368047" lon="11.132882874394543"><ele>182.0</ele><time>2026-04-25T13:46:07Z</time></trkpt><trkpt lat="42.430486467791944" lon="11.132993713466048"><ele>181.5</ele><time>2026-04-25T13:48:49.999Z</time></trkpt><trkpt lat="42.43058007161614" lon="11.132988908237484"><ele>181.0</ele><time>2026-04-25T13:48:54.999Z</time></trkpt><trkpt lat="42.43059616855534" lon="11.133075494803768"><ele>180.5</ele><time>2026-04-25T13:49:00.999Z</time></trkpt><trkpt lat="42.43049288181123" lon="11.133023713203746"><ele>180.0</ele><time>2026-04-25T13:49:06.999Z</time></trkpt><trkpt lat="42.43037851224465" lon="11.132120720650216"><ele>180.0</ele><time>2026-04-25T13:57:17.995Z</time></trkpt><trkpt lat="42.430387482291984" lon="11.132237441063447"><ele>180.0</ele><time>2026-04-25T13:57:20.995Z</time></trkpt><trkpt lat="42.430329557789506" lon="11.132286820193682"><ele>180.0</ele><time>2026-04-25T13:57:30Z</time></trkpt><trkpt lat="42.43036732052037" lon="11.13236156782992"><ele>180.0</ele><time>2026-04-25T13:57:57Z</time></trkpt><trkpt lat="42.43044272768461" lon="11.132362468041967"><ele>180.0</ele><time>2026-04-25T13:58:06Z</time></trkpt><trkpt lat="42.430476946568206" lon="11.132445817510266"><ele>180.0</ele><time>2026-04-25T13:58:13Z</time></trkpt><trkpt lat="42.4304854548427" lon="11.132531371585662"><ele>180.0</ele><time>2026-04-25T13:58:20Z</time></trkpt><trkpt lat="42.430474189363636" lon="11.132617123045163"><ele>180.0</ele><time>2026-04-25T13:58:26Z</time></trkpt><trkpt lat="42.43047376993488" lon="11.132706213664548"><ele>180.0</ele><time>2026-04-25T13:58:33Z</time></trkpt><trkpt lat="42.43047402888575" lon="11.132793003381598"><ele>180.0</ele><time>2026-04-25T13:58:41Z</time></trkpt><trkpt lat="42.43049318687672" lon="11.132876880586082"><ele>180.0</ele><time>2026-04-25T13:58:56Z</time></trkpt><trkpt lat="42.430486090030335" lon="11.132975784862785"><ele>180.0</ele><time>2026-04-25T13:59:03Z</time></trkpt><trkpt lat="42.43048052183776" lon="11.13306694253931"><ele>180.0</ele><time>2026-04-25T13:59:10Z</time></trkpt><trkpt lat="42.43046965730826" lon="11.133173364002277"><ele>180.0</ele><time>2026-04-25T13:59:17Z</time></trkpt><trkpt lat="42.4304656750023" lon="11.133081068981461"><ele>180.0</ele><time>2026-04-25T14:02:23Z</time></trkpt><trkpt lat="42.43046306396806" lon="11.132994474601425"><ele>180.0</ele><time>2026-04-25T14:02:30Z</time></trkpt><trkpt lat="42.43047864117606" lon="11.132903734865573"><ele>180.0</ele><time>2026-04-25T14:02:39Z</time></trkpt><trkpt lat="42.43047397227251" lon="11.132817274729698"><ele>180.0</ele><time>2026-04-25T14:03:54.001Z</time></trkpt><trkpt lat="42.43048369820041" lon="11.132726148403158"><ele>180.0</ele><time>2026-04-25T14:04:14.001Z</time></trkpt><trkpt lat="42.430500990032456" lon="11.132618017630715"><ele>180.0</ele><time>2026-04-25T14:04:16.001Z</time></trkpt><trkpt lat="42.43050979975855" lon="11.132524990123525"><ele>180.0</ele><time>2026-04-25T14:04:18.001Z</time></trkpt><trkpt lat="42.43048860944517" lon="11.13242796520158"><ele>180.33333333333334</ele><time>2026-04-25T14:04:21Z</time></trkpt><trkpt lat="42.430440847572385" lon="11.132498954698955"><ele>180.66666666666666</ele><time>2026-04-25T14:04:24Z</time></trkpt><trkpt lat="42.430446661260206" lon="11.132603479499739"><ele>181.0</ele><time>2026-04-25T14:04:26Z</time></trkpt><trkpt lat="42.43044609313341" lon="11.132710244012273"><ele>181.33333333333331</ele><time>2026-04-25T14:04:29Z</time></trkpt><trkpt lat="42.430424293405025" lon="11.132809165907954"><ele>181.66666666666666</ele><time>2026-04-25T14:04:32Z</time></trkpt><trkpt lat="42.43038573989738" lon="11.132728960747105"><ele>182.0</ele><time>2026-04-25T14:07:33.999Z</time></trkpt><trkpt lat="42.43039498578963" lon="11.132597603431194"><ele>182.0</ele><time>2026-04-25T14:08:08.376Z</time></trkpt><trkpt lat="42.42999979534408" lon="11.132786023421158"><ele>182.0</ele><time>2026-04-25T14:08:12Z</time></trkpt><trkpt lat="42.43008744125964" lon="11.13272037665373"><ele>182.0</ele><time>2026-04-25T14:08:13Z</time></trkpt><trkpt lat="42.43001692689355" lon="11.132689147995439"><ele>182.0</ele><time>2026-04-25T14:08:25Z</time></trkpt><trkpt lat="42.42994534064779" lon="11.132671936653665"><ele>182.0</ele><time>2026-04-25T14:08:32Z</time></trkpt><trkpt lat="42.42989778399608" lon="11.13260611993388"><ele>182.0</ele><time>2026-04-25T14:08:47Z</time></trkpt><trkpt lat="42.42982606464629" lon="11.132516191374277"><ele>182.0</ele><time>2026-04-25T14:08:49Z</time></trkpt><trkpt lat="42.429739539199566" lon="11.13241859560634"><ele>182.0</ele><time>2026-04-25T14:08:51Z</time></trkpt><trkpt lat="42.42969000569564" lon="11.132339472536245"><ele>180.8</ele><time>2026-04-25T14:08:53Z</time></trkpt><trkpt lat="42.429574317519595" lon="11.1322229113345"><ele>179.6</ele><time>2026-04-25T14:08:54Z</time></trkpt><trkpt lat="42.429523402220674" lon="11.132159677933151"><ele>178.4</ele><time>2026-04-25T14:08:55Z</time></trkpt><trkpt lat="42.42947044790062" lon="11.132089847049064"><ele>177.20000000000002</ele><time>2026-04-25T14:08:56Z</time></trkpt><trkpt lat="42.42940640401884" lon="11.132015540599372"><ele>176.0</ele><time>2026-04-25T14:08:57Z</time></trkpt><trkpt lat="42.429340676140576" lon="11.131928717991954"><ele>176.0</ele><time>2026-04-25T14:08:58Z</time></trkpt><trkpt lat="42.429274378852796" lon="11.13185485649543"><ele>176.0</ele><time>2026-04-25T14:08:59Z</time></trkpt><trkpt lat="42.429202688218005" lon="11.131771329599614"><ele>176.0</ele><time>2026-04-25T14:09:00Z</time></trkpt><trkpt lat="42.42913193784282" lon="11.131683289925386"><ele>176.0</ele><time>2026-04-25T14:09:01Z</time></trkpt><trkpt lat="42.429062007240475" lon="11.131589221832758"><ele>176.0</ele><time>2026-04-25T14:09:02Z</time></trkpt><trkpt lat="42.42899317130131" lon="11.131511232530295"><ele>175.14285714285714</ele><time>2026-04-25T14:09:03Z</time></trkpt><trkpt lat="42.42893495403013" lon="11.131445608752006"><ele>174.28571428571428</ele><time>2026-04-25T14:09:04Z</time></trkpt><trkpt lat="42.42888485727783" lon="11.131378268952327"><ele>173.42857142857144</ele><time>2026-04-25T14:09:05Z</time></trkpt><trkpt lat="42.42883597331837" lon="11.13131315205907"><ele>172.57142857142856</ele><time>2026-04-25T14:09:06Z</time></trkpt><trkpt lat="42.42878183674125" lon="11.131249369451483"><ele>171.7142857142857</ele><time>2026-04-25T14:09:07Z</time></trkpt><trkpt lat="42.42872867727277" lon="11.131180810325285"><ele>170.85714285714286</ele><time>2026-04-25T14:09:08Z</time></trkpt><trkpt lat="42.428662303937564" lon="11.131111335895872"><ele>170.0</ele><time>2026-04-25T14:09:09Z</time></trkpt><trkpt lat="42.42859856061168" lon="11.131044386372364"><ele>170.0</ele><time>2026-04-25T14:09:10Z</time></trkpt><trkpt lat="42.42853352757066" lon="11.131003813141687"><ele>170.0</ele><time>2026-04-25T14:09:11Z</time></trkpt><trkpt lat="42.42846292222274" lon="11.130981508479294"><ele>170.0</ele><time>2026-04-25T14:09:12Z</time></trkpt><trkpt lat="42.428339212289075" lon="11.13100378066996"><ele>170.0</ele><time>2026-04-25T14:09:14Z</time></trkpt><trkpt lat="42.42826816881717" lon="11.131019848240731"><ele>170.0</ele><time>2026-04-25T14:09:14.999Z</time></trkpt><trkpt lat="42.42817975517249" lon="11.131034521012017"><ele>170.0</ele><time>2026-04-25T14:09:15.999Z</time></trkpt><trkpt lat="42.428099255813535" lon="11.130993000934701"><ele>170.0</ele><time>2026-04-25T14:09:16.999Z</time></trkpt><trkpt lat="42.428024701540835" lon="11.130970460416563"><ele>170.0</ele><time>2026-04-25T14:09:17.999Z</time></trkpt><trkpt lat="42.42796066326942" lon="11.130947326719422"><ele>170.0</ele><time>2026-04-25T14:09:18.999Z</time></trkpt><trkpt lat="42.427889715466506" lon="11.130919572905311"><ele>170.0</ele><time>2026-04-25T14:09:19.999Z</time></trkpt><trkpt lat="42.427799106703795" lon="11.1309069634996"><ele>170.0</ele><time>2026-04-25T14:09:20.999Z</time></trkpt><trkpt lat="42.42771090394878" lon="11.13084962425985"><ele>170.0</ele><time>2026-04-25T14:09:21.999Z</time></trkpt><trkpt lat="42.427615166107216" lon="11.130827423480712"><ele>170.4</ele><time>2026-04-25T14:09:22.999Z</time></trkpt><trkpt lat="42.42751413628012" lon="11.130799796884487"><ele>170.8</ele><time>2026-04-25T14:09:23.999Z</time></trkpt><trkpt lat="42.42741420317976" lon="11.13074406551502"><ele>171.2</ele><time>2026-04-25T14:09:24.999Z</time></trkpt><trkpt lat="42.42731877507837" lon="11.130726637433794"><ele>171.6</ele><time>2026-04-25T14:09:25.999Z</time></trkpt><trkpt lat="42.427231251184935" lon="11.130690982615233"><ele>172.0</ele><time>2026-04-25T14:09:26.999Z</time></trkpt><trkpt lat="42.42714534251597" lon="11.130659538861197"><ele>169.33333333333334</ele><time>2026-04-25T14:09:27.999Z</time></trkpt><trkpt lat="42.427054248062724" lon="11.130598261944753"><ele>166.66666666666669</ele><time>2026-04-25T14:09:28.999Z</time></trkpt><trkpt lat="42.42696776955633" lon="11.130543253388556"><ele>164.0</ele><time>2026-04-25T14:09:29.999Z</time></trkpt><trkpt lat="42.42689964677117" lon="11.130487049162678"><ele>161.33333333333334</ele><time>2026-04-25T14:09:30.999Z</time></trkpt><trkpt lat="42.426832580759275" lon="11.130450734125983"><ele>158.66666666666666</ele><time>2026-04-25T14:09:31.999Z</time></trkpt><trkpt lat="42.42677362292671" lon="11.130392750315766"><ele>156.0</ele><time>2026-04-25T14:09:32.999Z</time></trkpt><trkpt lat="42.426711095831024" lon="11.130330867443341"><ele>156.0</ele><time>2026-04-25T14:09:33.999Z</time></trkpt><trkpt lat="42.426626549995945" lon="11.130210455634078"><ele>156.0</ele><time>2026-04-25T14:09:35.999Z</time></trkpt><trkpt lat="42.42661237695783" lon="11.130112816116588"><ele>156.0</ele><time>2026-04-25T14:09:36.999Z</time></trkpt><trkpt lat="42.42660260789704" lon="11.130001932555016"><ele>156.0</ele><time>2026-04-25T14:09:37.999Z</time></trkpt><trkpt lat="42.42660504716646" lon="11.129913815818345"><ele>156.0</ele><time>2026-04-25T14:09:38.999Z</time></trkpt><trkpt lat="42.42660560716807" lon="11.12979890363608"><ele>156.0</ele><time>2026-04-25T14:09:39.999Z</time></trkpt><trkpt lat="42.42660626441948" lon="11.129664035984392"><ele>155.83333333333334</ele><time>2026-04-25T14:09:40.999Z</time></trkpt><trkpt lat="42.42659478850041" lon="11.129552111152632"><ele>155.66666666666666</ele><time>2026-04-25T14:09:41.999Z</time></trkpt><trkpt lat="42.42658894482262" lon="11.129446272110059"><ele>155.5</ele><time>2026-04-25T14:09:42.999Z</time></trkpt><trkpt lat="42.42659949259631" lon="11.12929724134966"><ele>155.33333333333331</ele><time>2026-04-25T14:09:44.999Z</time></trkpt><trkpt lat="42.426577319927375" lon="11.12919399962864"><ele>155.16666666666666</ele><time>2026-04-25T14:09:47.999Z</time></trkpt><trkpt lat="42.42664286590564" lon="11.129170945468966"><ele>155.0</ele><time>2026-04-25T14:09:49.999Z</time></trkpt><trkpt lat="42.42671950738584" lon="11.129247841407867"><ele>155.0</ele><time>2026-04-25T14:09:51.999Z</time></trkpt><trkpt lat="42.42681624686169" lon="11.129283423594748"><ele>155.0</ele><time>2026-04-25T14:09:53.999Z</time></trkpt><trkpt lat="42.4269108644033" lon="11.129316836107325"><ele>155.0</ele><time>2026-04-25T14:09:56Z</time></trkpt><trkpt lat="42.42697921565961" lon="11.12932792345857"><ele>155.0</ele><time>2026-04-25T14:09:57Z</time></trkpt><trkpt lat="42.4270440854624" lon="11.129338445998284"><ele>155.0</ele><time>2026-04-25T14:09:58Z</time></trkpt><trkpt lat="42.4271642911482" lon="11.129351557104233"><ele>155.0</ele><time>2026-04-25T14:10:00Z</time></trkpt><trkpt lat="42.42724556745274" lon="11.129356434152712"><ele>155.0</ele><time>2026-04-25T14:10:01Z</time></trkpt><trkpt lat="42.42732940188022" lon="11.129355848750468"><ele>155.0</ele><time>2026-04-25T14:10:02Z</time></trkpt><trkpt lat="42.427419405165054" lon="11.129329651732222"><ele>155.0</ele><time>2026-04-25T14:10:03Z</time></trkpt><trkpt lat="42.42749934470111" lon="11.12932002334458"><ele>155.0</ele><time>2026-04-25T14:10:04Z</time></trkpt><trkpt lat="42.427577669638985" lon="11.129294596377903"><ele>155.0</ele><time>2026-04-25T14:10:05Z</time></trkpt><trkpt lat="42.427651941109836" lon="11.12928048446086"><ele>155.0</ele><time>2026-04-25T14:10:06Z</time></trkpt><trkpt lat="42.42771201530341" lon="11.129243880849282"><ele>155.0</ele><time>2026-04-25T14:10:07Z</time></trkpt><trkpt lat="42.42776346486906" lon="11.12918961304045"><ele>155.0</ele><time>2026-04-25T14:10:08Z</time></trkpt><trkpt lat="42.42781082119356" lon="11.129091513585413"><ele>155.0</ele><time>2026-04-25T14:10:09Z</time></trkpt><trkpt lat="42.42785886470298" lon="11.128997996859827"><ele>155.0</ele><time>2026-04-25T14:10:10Z</time></trkpt><trkpt lat="42.4278861003971" lon="11.128884520436458"><ele>155.0</ele><time>2026-04-25T14:10:11Z</time></trkpt><trkpt lat="42.42791873398492" lon="11.128773545766435"><ele>152.6</ele><time>2026-04-25T14:10:12Z</time></trkpt><trkpt lat="42.42794690453769" lon="11.128665788731"><ele>150.2</ele><time>2026-04-25T14:10:13Z</time></trkpt><trkpt lat="42.427976824520194" lon="11.12853845792761"><ele>147.8</ele><time>2026-04-25T14:10:14Z</time></trkpt><trkpt lat="42.427999888042436" lon="11.128420552429652"><ele>145.4</ele><time>2026-04-25T14:10:15Z</time></trkpt><trkpt lat="42.428018036158704" lon="11.128297913100019"><ele>143.0</ele><time>2026-04-25T14:10:16Z</time></trkpt><trkpt lat="42.42802894185858" lon="11.128179590423265"><ele>140.83333333333331</ele><time>2026-04-25T14:10:17Z</time></trkpt><trkpt lat="42.42803367724993" lon="11.128078850615514"><ele>138.66666666666666</ele><time>2026-04-25T14:10:18Z</time></trkpt><trkpt lat="42.428033354044956" lon="11.127987911400483"><ele>136.5</ele><time>2026-04-25T14:10:19Z</time></trkpt><trkpt lat="42.428020452144224" lon="11.127874465256658"><ele>134.33333333333334</ele><time>2026-04-25T14:10:21Z</time></trkpt><trkpt lat="42.427974133289005" lon="11.127768701807708"><ele>132.16666666666669</ele><time>2026-04-25T14:10:23Z</time></trkpt><trkpt lat="42.42798793732604" lon="11.127642684839154"><ele>130.0</ele><time>2026-04-25T14:10:25Z</time></trkpt><trkpt lat="42.42805036525661" lon="11.127484028562908"><ele>129.83333333333334</ele><time>2026-04-25T14:10:27Z</time></trkpt><trkpt lat="42.4281042488835" lon="11.127400196957979"><ele>129.66666666666669</ele><time>2026-04-25T14:10:28Z</time></trkpt><trkpt lat="42.42817008960225" lon="11.127333903801468"><ele>129.5</ele><time>2026-04-25T14:10:29Z</time></trkpt><trkpt lat="42.42824605328224" lon="11.12730260385244"><ele>129.33333333333334</ele><time>2026-04-25T14:10:30Z</time></trkpt><trkpt lat="42.42830728908117" lon="11.12723930533354"><ele>129.16666666666666</ele><time>2026-04-25T14:10:31Z</time></trkpt><trkpt lat="42.428384461397556" lon="11.127205396282895"><ele>129.0</ele><time>2026-04-25T14:10:32Z</time></trkpt><trkpt lat="42.428459318117675" lon="11.127173865374925"><ele>127.16666666666667</ele><time>2026-04-25T14:10:33Z</time></trkpt><trkpt lat="42.42853457981837" lon="11.127164380309857"><ele>125.33333333333334</ele><time>2026-04-25T14:10:34Z</time></trkpt><trkpt lat="42.42861652062472" lon="11.127136723177474"><ele>123.5</ele><time>2026-04-25T14:10:35Z</time></trkpt><trkpt lat="42.42870600015151" lon="11.127106521637515"><ele>121.66666666666667</ele><time>2026-04-25T14:10:36Z</time></trkpt><trkpt lat="42.42879720861049" lon="11.127073484838144"><ele>119.83333333333334</ele><time>2026-04-25T14:10:37Z</time></trkpt><trkpt lat="42.428881186734486" lon="11.127022948134519"><ele>118.0</ele><time>2026-04-25T14:10:38Z</time></trkpt><trkpt lat="42.428963116055435" lon="11.126988315553993"><ele>115.80000000000001</ele><time>2026-04-25T14:10:39Z</time></trkpt><trkpt lat="42.42903517365757" lon="11.126959977066843"><ele>113.60000000000001</ele><time>2026-04-25T14:10:40Z</time></trkpt><trkpt lat="42.429101915909555" lon="11.126972512334488"><ele>111.39999999999999</ele><time>2026-04-25T14:10:41Z</time></trkpt><trkpt lat="42.42918430470837" lon="11.12701082708445"><ele>109.19999999999999</ele><time>2026-04-25T14:10:43Z</time></trkpt><trkpt lat="42.429263680569974" lon="11.126956361485625"><ele>107.0</ele><time>2026-04-25T14:10:45Z</time></trkpt><trkpt lat="42.42916968300005" lon="11.126826547429078"><ele>106.99999999999999</ele><time>2026-04-25T14:10:47Z</time></trkpt><trkpt lat="42.42911998290236" lon="11.126751705190493"><ele>107.0</ele><time>2026-04-25T14:10:49Z</time></trkpt><trkpt lat="42.42919619890936" lon="11.126692920952257"><ele>107.0</ele><time>2026-04-25T14:10:52Z</time></trkpt><trkpt lat="42.42928740188885" lon="11.126658343837265"><ele>107.0</ele><time>2026-04-25T14:10:53Z</time></trkpt><trkpt lat="42.42936463076878" lon="11.126578366080906"><ele>106.99999999999999</ele><time>2026-04-25T14:10:54Z</time></trkpt><trkpt lat="42.42940706006039" lon="11.126505243537817"><ele>107.0</ele><time>2026-04-25T14:10:55Z</time></trkpt><trkpt lat="42.42946076842503" lon="11.126439033153822"><ele>107.19999999999999</ele><time>2026-04-25T14:10:56Z</time></trkpt><trkpt lat="42.42951062949937" lon="11.126367869436317"><ele>107.39999999999999</ele><time>2026-04-25T14:10:57Z</time></trkpt><trkpt lat="42.4295663267454" lon="11.126304697520498"><ele>107.60000000000001</ele><time>2026-04-25T14:10:58Z</time></trkpt><trkpt lat="42.429654733929546" lon="11.12621506907817"><ele>107.80000000000001</ele><time>2026-04-25T14:11:00Z</time></trkpt><trkpt lat="42.42975600574636" lon="11.126117976256149"><ele>108.0</ele><time>2026-04-25T14:11:02Z</time></trkpt><trkpt lat="42.429816936550786" lon="11.12605989426793"><ele>103.83333333333333</ele><time>2026-04-25T14:11:03Z</time></trkpt><trkpt lat="42.42988065710398" lon="11.125998209023741"><ele>99.66666666666667</ele><time>2026-04-25T14:11:04Z</time></trkpt><trkpt lat="42.42994694261199" lon="11.12592776220917"><ele>95.5</ele><time>2026-04-25T14:11:05Z</time></trkpt><trkpt lat="42.430007289882305" lon="11.125865024436326"><ele>91.33333333333334</ele><time>2026-04-25T14:11:06Z</time></trkpt><trkpt lat="42.43006339539448" lon="11.125797492033373"><ele>87.16666666666667</ele><time>2026-04-25T14:11:07Z</time></trkpt><trkpt lat="42.430142712816135" lon="11.125778070612954"><ele>83.0</ele><time>2026-04-25T14:11:08Z</time></trkpt><trkpt lat="42.430226711538225" lon="11.125731101272399"><ele>80.2</ele><time>2026-04-25T14:11:09Z</time></trkpt><trkpt lat="42.4303242292618" lon="11.125645368084864"><ele>77.4</ele><time>2026-04-25T14:11:10Z</time></trkpt><trkpt lat="42.430421047589746" lon="11.125578927147531"><ele>74.60000000000001</ele><time>2026-04-25T14:11:11Z</time></trkpt><trkpt lat="42.43052265972636" lon="11.12551231989925"><ele>71.80000000000001</ele><time>2026-04-25T14:11:12Z</time></trkpt><trkpt lat="42.43060784800994" lon="11.125414821465109"><ele>69.0</ele><time>2026-04-25T14:11:13Z</time></trkpt><trkpt lat="42.43070052852222" lon="11.125328302279774"><ele>66.5</ele><time>2026-04-25T14:11:14Z</time></trkpt><trkpt lat="42.43079853332284" lon="11.125213568301605"><ele>64.0</ele><time>2026-04-25T14:11:15Z</time></trkpt><trkpt lat="42.43089277894266" lon="11.125066295687471"><ele>61.5</ele><time>2026-04-25T14:11:16Z</time></trkpt><trkpt lat="42.43096804283874" lon="11.124943900018495"><ele>59.0</ele><time>2026-04-25T14:11:17Z</time></trkpt><trkpt lat="42.43103240669547" lon="11.124835447543411"><ele>54.16666666666667</ele><time>2026-04-25T14:11:17.999Z</time></trkpt><trkpt lat="42.43110720337747" lon="11.124751469642826"><ele>49.333333333333336</ele><time>2026-04-25T14:11:18.999Z</time></trkpt><trkpt lat="42.43116221955884" lon="11.124674067328417"><ele>44.5</ele><time>2026-04-25T14:11:19.999Z</time></trkpt><trkpt lat="42.43121137506235" lon="11.12459658148887"><ele>39.66666666666667</ele><time>2026-04-25T14:11:20.999Z</time></trkpt><trkpt lat="42.431284986988445" lon="11.124588518354924"><ele>34.833333333333336</ele><time>2026-04-25T14:11:21.999Z</time></trkpt><trkpt lat="42.43135958671038" lon="11.124593667485291"><ele>30.0</ele><time>2026-04-25T14:11:22.999Z</time></trkpt><trkpt lat="42.4314505793106" lon="11.124609478951779"><ele>29.0</ele><time>2026-04-25T14:11:23.999Z</time></trkpt><trkpt lat="42.43154646404017" lon="11.12463013621388"><ele>28.0</ele><time>2026-04-25T14:11:24.999Z</time></trkpt><trkpt lat="42.4316359483598" lon="11.12462992603839"><ele>27.0</ele><time>2026-04-25T14:11:25.999Z</time></trkpt><trkpt lat="42.43171774520472" lon="11.124656110751793"><ele>26.0</ele><time>2026-04-25T14:11:26.999Z</time></trkpt><trkpt lat="42.43179073802052" lon="11.124710393917018"><ele>25.0</ele><time>2026-04-25T14:11:27.999Z</time></trkpt><trkpt lat="42.43185745868049" lon="11.12475020369073"><ele>24.0</ele><time>2026-04-25T14:11:28.999Z</time></trkpt><trkpt lat="42.43192176192596" lon="11.124803481831668"><ele>24.0</ele><time>2026-04-25T14:11:29.999Z</time></trkpt><trkpt lat="42.43198994687654" lon="11.124868790322127"><ele>24.0</ele><time>2026-04-25T14:11:30.999Z</time></trkpt><trkpt lat="42.4320500666344" lon="11.124941948304679"><ele>24.0</ele><time>2026-04-25T14:11:31.999Z</time></trkpt><trkpt lat="42.43210503672991" lon="11.125015775513273"><ele>24.0</ele><time>2026-04-25T14:11:32.999Z</time></trkpt><trkpt lat="42.432166106593556" lon="11.125072216331223"><ele>24.0</ele><time>2026-04-25T14:11:33.999Z</time></trkpt><trkpt lat="42.432206592107825" lon="11.125161954727124"><ele>24.0</ele><time>2026-04-25T14:11:34.999Z</time></trkpt><trkpt lat="42.43226394245592" lon="11.125225987352838"><ele>25.833333333333332</ele><time>2026-04-25T14:11:35.999Z</time></trkpt><trkpt lat="42.43231537300526" lon="11.125315086946047"><ele>27.666666666666664</ele><time>2026-04-25T14:11:36.999Z</time></trkpt><trkpt lat="42.432371825431225" lon="11.125415213971788"><ele>29.5</ele><time>2026-04-25T14:11:37.999Z</time></trkpt><trkpt lat="42.43241815362426" lon="11.125502678386335"><ele>31.333333333333332</ele><time>2026-04-25T14:11:38.999Z</time></trkpt><trkpt lat="42.43245835184974" lon="11.125592226476128"><ele>33.166666666666664</ele><time>2026-04-25T14:11:39.999Z</time></trkpt><trkpt lat="42.43251183692545" lon="11.125697520546575"><ele>35.0</ele><time>2026-04-25T14:11:41.999Z</time></trkpt><trkpt lat="42.432598269880415" lon="11.125707385290438"><ele>35.0</ele><time>2026-04-25T14:11:43.999Z</time></trkpt><trkpt lat="42.432649267498704" lon="11.12563905547295"><ele>35.0</ele><time>2026-04-25T14:11:44.999Z</time></trkpt><trkpt lat="42.432697756425625" lon="11.125530577694251"><ele>35.0</ele><time>2026-04-25T14:11:45.999Z</time></trkpt><trkpt lat="42.43275506895282" lon="11.125431020820681"><ele>35.0</ele><time>2026-04-25T14:11:46.999Z</time></trkpt><trkpt lat="42.43283444628674" lon="11.125360100262672"><ele>35.0</ele><time>2026-04-25T14:11:47.999Z</time></trkpt><trkpt lat="42.43293547098831" lon="11.125284376781595"><ele>33.6</ele><time>2026-04-25T14:11:48.999Z</time></trkpt><trkpt lat="42.43304931287918" lon="11.12520456803953"><ele>32.2</ele><time>2026-04-25T14:11:49.999Z</time></trkpt><trkpt lat="42.43314039444841" lon="11.125144093366627"><ele>30.799999999999997</ele><time>2026-04-25T14:11:50.999Z</time></trkpt><trkpt lat="42.433223731421016" lon="11.125090572189103"><ele>29.4</ele><time>2026-04-25T14:11:51.999Z</time></trkpt><trkpt lat="42.433306871257884" lon="11.12503857308203"><ele>28.0</ele><time>2026-04-25T14:11:52.999Z</time></trkpt><trkpt lat="42.43339290546917" lon="11.1249831498459"><ele>28.0</ele><time>2026-04-25T14:11:53.999Z</time></trkpt><trkpt lat="42.4334720935293" lon="11.124929876651676"><ele>27.999999999999996</ele><time>2026-04-25T14:11:54.999Z</time></trkpt><trkpt lat="42.43356324522217" lon="11.124867850362344"><ele>27.999999999999996</ele><time>2026-04-25T14:11:55.999Z</time></trkpt><trkpt lat="42.43364919213076" lon="11.124809407019113"><ele>28.0</ele><time>2026-04-25T14:11:56.999Z</time></trkpt><trkpt lat="42.433745162426504" lon="11.124750149535947"><ele>28.0</ele><time>2026-04-25T14:11:57.999Z</time></trkpt><trkpt lat="42.43383848504098" lon="11.124705031020783"><ele>24.333333333333336</ele><time>2026-04-25T14:11:58.999Z</time></trkpt><trkpt lat="42.43392158504415" lon="11.124668171802622"><ele>20.666666666666668</ele><time>2026-04-25T14:11:59.999Z</time></trkpt><trkpt lat="42.433998718144885" lon="11.124633482107392"><ele>17.0</ele><time>2026-04-25T14:12:00.999Z</time></trkpt><trkpt lat="42.43406506506892" lon="11.124596936659726"><ele>13.333333333333334</ele><time>2026-04-25T14:12:02Z</time></trkpt><trkpt lat="42.434135698623656" lon="11.124561701982472"><ele>9.666666666666668</ele><time>2026-04-25T14:12:03Z</time></trkpt><trkpt lat="42.43421189010257" lon="11.124550211567719"><ele>6.0</ele><time>2026-04-25T14:12:04Z</time></trkpt><trkpt lat="42.43428646691003" lon="11.124548181565038"><ele>6.0</ele><time>2026-04-25T14:12:05Z</time></trkpt><trkpt lat="42.434356683108334" lon="11.12454392469703"><ele>6.0</ele><time>2026-04-25T14:12:06Z</time></trkpt><trkpt lat="42.434404424097316" lon="11.124603410976972"><ele>6.0</ele><time>2026-04-25T14:12:07Z</time></trkpt><trkpt lat="42.4345139528189" lon="11.124642556767292"><ele>6.0</ele><time>2026-04-25T14:12:09Z</time></trkpt><trkpt lat="42.434602423749084" lon="11.12468751634649"><ele>6.0</ele><time>2026-04-25T14:12:11Z</time></trkpt><trkpt lat="42.43467931167273" lon="11.124740680781958"><ele>6.0</ele><time>2026-04-25T14:12:15Z</time></trkpt><trkpt lat="42.43457463648861" lon="11.124439045022992"><ele>6.0</ele><time>2026-04-25T14:12:46Z</time></trkpt><trkpt lat="42.43449938877044" lon="11.1243486075935"><ele>6.0</ele><time>2026-04-25T14:12:47Z</time></trkpt><trkpt lat="42.43445441588538" lon="11.124257235253204"><ele>6.0</ele><time>2026-04-25T14:12:48Z</time></trkpt><trkpt lat="42.43440237332441" lon="11.124187614932028"><ele>6.0</ele><time>2026-04-25T14:12:49Z</time></trkpt><trkpt lat="42.43434233582348" lon="11.124138456356192"><ele>6.0</ele><time>2026-04-25T14:12:50Z</time></trkpt><trkpt lat="42.434300602720334" lon="11.12406538296522"><ele>6.0</ele><time>2026-04-25T14:12:51Z</time></trkpt><trkpt lat="42.43426139030064" lon="11.123988908710922"><ele>5.0</ele><time>2026-04-25T14:12:52Z</time></trkpt><trkpt lat="42.434231836560386" lon="11.123909151644055"><ele>3.9999999999999996</ele><time>2026-04-25T14:12:53Z</time></trkpt><trkpt lat="42.434225180919384" lon="11.12373916909233"><ele>3.0</ele><time>2026-04-25T14:12:55Z</time></trkpt><trkpt lat="42.4342407792189" lon="11.123643750335479"><ele>2.0</ele><time>2026-04-25T14:12:56Z</time></trkpt><trkpt lat="42.43424735337983" lon="11.12345137657411"><ele>1.0</ele><time>2026-04-25T14:12:57Z</time></trkpt><trkpt lat="42.434270193374104" lon="11.12329572167024"><ele>2.0</ele><time>2026-04-25T14:12:58Z</time></trkpt><trkpt lat="42.434293257023015" lon="11.123144082536317"><ele>3.0</ele><time>2026-04-25T14:12:59Z</time></trkpt><trkpt lat="42.434316537587584" lon="11.12300488619323"><ele>3.9999999999999996</ele><time>2026-04-25T14:13:00Z</time></trkpt><trkpt lat="42.43434406866045" lon="11.122887383548555"><ele>5.0</ele><time>2026-04-25T14:13:01Z</time></trkpt><trkpt lat="42.43437333621239" lon="11.122778189147553"><ele>6.0</ele><time>2026-04-25T14:13:02Z</time></trkpt><trkpt lat="42.434404986988156" lon="11.12266502774885"><ele>6.0</ele><time>2026-04-25T14:13:03Z</time></trkpt><trkpt lat="42.434441807619045" lon="11.122555517403217"><ele>6.0</ele><time>2026-04-25T14:13:04Z</time></trkpt><trkpt lat="42.43449889074414" lon="11.12244505038911"><ele>6.0</ele><time>2026-04-25T14:13:05Z</time></trkpt><trkpt lat="42.43457239415388" lon="11.122350681660416"><ele>6.0</ele><time>2026-04-25T14:13:06Z</time></trkpt><trkpt lat="42.434664348843924" lon="11.122245903366904"><ele>6.0</ele><time>2026-04-25T14:13:07Z</time></trkpt><trkpt lat="42.434750038156615" lon="11.122163208206835"><ele>5.333333333333333</ele><time>2026-04-25T14:13:08Z</time></trkpt><trkpt lat="42.43483013087969" lon="11.122098082545135"><ele>4.666666666666667</ele><time>2026-04-25T14:13:09Z</time></trkpt><trkpt lat="42.43489937696875" lon="11.122033943962704"><ele>4.0</ele><time>2026-04-25T14:13:10Z</time></trkpt><trkpt lat="42.43496583433376" lon="11.121978384507672"><ele>3.333333333333333</ele><time>2026-04-25T14:13:11Z</time></trkpt><trkpt lat="42.43501862859962" lon="11.121894503281103"><ele>2.6666666666666665</ele><time>2026-04-25T14:13:12Z</time></trkpt><trkpt lat="42.435046128506826" lon="11.121797318130849"><ele>2.0</ele><time>2026-04-25T14:13:12.999Z</time></trkpt><trkpt lat="42.43506720486141" lon="11.12166365795217"><ele>3.25</ele><time>2026-04-25T14:13:13.999Z</time></trkpt><trkpt lat="42.435115346699405" lon="11.121506352404444"><ele>4.5</ele><time>2026-04-25T14:13:14.999Z</time></trkpt><trkpt lat="42.435182466193936" lon="11.12132674842312"><ele>5.75</ele><time>2026-04-25T14:13:15.999Z</time></trkpt><trkpt lat="42.43524736732673" lon="11.121168214587831"><ele>7.0</ele><time>2026-04-25T14:13:16.999Z</time></trkpt><trkpt lat="42.43528433801224" lon="11.121091896767272"><ele>7.0</ele><time>2026-04-25T14:13:17.999Z</time></trkpt><trkpt lat="42.43531813770337" lon="11.120981813899759"><ele>7.0</ele><time>2026-04-25T14:13:19.999Z</time></trkpt><trkpt lat="42.435227120659114" lon="11.1208802639341"><ele>7.0</ele><time>2026-04-25T14:13:21.999Z</time></trkpt><trkpt lat="42.435134075244136" lon="11.120839862879524"><ele>7.0</ele><time>2026-04-25T14:13:23.999Z</time></trkpt><trkpt lat="42.43503195187465" lon="11.120997493084156"><ele>7.0</ele><time>2026-04-25T14:13:28.999Z</time></trkpt><trkpt lat="42.4350146402248" lon="11.121084308111673"><ele>7.0</ele><time>2026-04-25T14:13:31.999Z</time></trkpt><trkpt lat="42.43508340185114" lon="11.121064027691316"><ele>7.0</ele><time>2026-04-25T14:15:53.999Z</time></trkpt><trkpt lat="42.435130292619114" lon="11.121122808180518"><ele>7.0</ele><time>2026-04-25T14:15:58.999Z</time></trkpt><trkpt lat="42.435142642929954" lon="11.121234782707177"><ele>7.0</ele><time>2026-04-25T14:17:48.999Z</time></trkpt><trkpt lat="42.43517149878275" lon="11.121143752970315"><ele>7.0</ele><time>2026-04-25T15:02:20.998Z</time></trkpt><trkpt lat="42.43512680556676" lon="11.121077485847243"><ele>7.0</ele><time>2026-04-25T15:02:27Z</time></trkpt><trkpt lat="42.43505481831496" lon="11.121060065113587"><ele>7.000000000000001</ele><time>2026-04-25T15:02:33Z</time></trkpt><trkpt lat="42.43507259523951" lon="11.120955330378228"><ele>7.0</ele><time>2026-04-25T15:05:06Z</time></trkpt><trkpt lat="42.43510506207922" lon="11.120862822245744"><ele>7.0</ele><time>2026-04-25T15:05:08Z</time></trkpt><trkpt lat="42.43504495970324" lon="11.120763269589375"><ele>7.0</ele><time>2026-04-25T15:05:10.999Z</time></trkpt><trkpt lat="42.43491903152412" lon="11.120708297082315"><ele>7.000000000000001</ele><time>2026-04-25T15:05:12.999Z</time></trkpt><trkpt lat="42.434858105457316" lon="11.120670430610142"><ele>7.0</ele><time>2026-04-25T15:05:13.999Z</time></trkpt><trkpt lat="42.434788668289656" lon="11.120624153256758"><ele>9.2</ele><time>2026-04-25T15:05:14.999Z</time></trkpt><trkpt lat="42.43473203972234" lon="11.120586566986828"><ele>11.399999999999999</ele><time>2026-04-25T15:05:15.999Z</time></trkpt><trkpt lat="42.43463238102278" lon="11.120534989170018"><ele>13.600000000000001</ele><time>2026-04-25T15:05:17.999Z</time></trkpt><trkpt lat="42.434548237650134" lon="11.120474486310869"><ele>15.8</ele><time>2026-04-25T15:05:19.999Z</time></trkpt><trkpt lat="42.434473955200744" lon="11.120470125830668"><ele>18.0</ele><time>2026-04-25T15:05:21.999Z</time></trkpt><trkpt lat="42.4343645178252" lon="11.120577175446396"><ele>18.0</ele><time>2026-04-25T15:05:25.999Z</time></trkpt><trkpt lat="42.434326990604966" lon="11.120675585139463"><ele>18.0</ele><time>2026-04-25T15:05:27.999Z</time></trkpt><trkpt lat="42.43428006350187" lon="11.120798644766174"><ele>18.0</ele><time>2026-04-25T15:05:30.999Z</time></trkpt><trkpt lat="42.43424631364647" lon="11.120887148890604"><ele>18.0</ele><time>2026-04-25T15:05:32.999Z</time></trkpt><trkpt lat="42.43419296946486" lon="11.121027036367765"><ele>18.0</ele><time>2026-04-25T15:05:34.999Z</time></trkpt><trkpt lat="42.434136392975" lon="11.121175088116713"><ele>17.2</ele><time>2026-04-25T15:05:36.999Z</time></trkpt><trkpt lat="42.434105387802624" lon="11.121255507101361"><ele>16.4</ele><time>2026-04-25T15:05:37.999Z</time></trkpt><trkpt lat="42.43407491825966" lon="11.121382502044147"><ele>15.599999999999998</ele><time>2026-04-25T15:05:39.999Z</time></trkpt><trkpt lat="42.43403430764955" lon="11.121488126530364"><ele>14.799999999999999</ele><time>2026-04-25T15:05:41.999Z</time></trkpt><trkpt lat="42.43397495765572" lon="11.121593807477515"><ele>14.0</ele><time>2026-04-25T15:05:43.999Z</time></trkpt><trkpt lat="42.43394435714222" lon="11.121721379316405"><ele>14.0</ele><time>2026-04-25T15:05:45.999Z</time></trkpt><trkpt lat="42.43391129455412" lon="11.121799705438269"><ele>13.999999999999998</ele><time>2026-04-25T15:05:46.999Z</time></trkpt><trkpt lat="42.433875724253994" lon="11.121877881891258"><ele>13.999999999999998</ele><time>2026-04-25T15:05:47.999Z</time></trkpt><trkpt lat="42.43384306238504" lon="11.121956309070391"><ele>14.0</ele><time>2026-04-25T15:05:48.999Z</time></trkpt><trkpt lat="42.433761492744104" lon="11.12208727595011"><ele>14.0</ele><time>2026-04-25T15:05:50.999Z</time></trkpt><trkpt lat="42.433692886790496" lon="11.122238202326406"><ele>13.500000000000002</ele><time>2026-04-25T15:05:52.999Z</time></trkpt><trkpt lat="42.43364079772345" lon="11.122375681963156"><ele>13.0</ele><time>2026-04-25T15:05:54.999Z</time></trkpt><trkpt lat="42.4336215958706" lon="11.122473198686619"><ele>12.5</ele><time>2026-04-25T15:05:55.999Z</time></trkpt><trkpt lat="42.433588974532036" lon="11.12256783152812"><ele>12.0</ele><time>2026-04-25T15:05:56.999Z</time></trkpt><trkpt lat="42.43354977516618" lon="11.12266361731851"><ele>11.5</ele><time>2026-04-25T15:05:57.999Z</time></trkpt><trkpt lat="42.43352350173887" lon="11.122746485123013"><ele>11.0</ele><time>2026-04-25T15:05:58.999Z</time></trkpt><trkpt lat="42.43347814043683" lon="11.122809554385753"><ele>11.0</ele><time>2026-04-25T15:06:00.999Z</time></trkpt><trkpt lat="42.433430369639424" lon="11.122922209671525"><ele>11.0</ele><time>2026-04-25T15:06:03.999Z</time></trkpt><trkpt lat="42.43334513170863" lon="11.122989252569981"><ele>11.0</ele><time>2026-04-25T15:06:06.999Z</time></trkpt><trkpt lat="42.43325675396829" lon="11.123039552220964"><ele>11.0</ele><time>2026-04-25T15:06:08.999Z</time></trkpt><trkpt lat="42.43323696396177" lon="11.123149746129146"><ele>11.0</ele><time>2026-04-25T15:06:09.999Z</time></trkpt><trkpt lat="42.43326755188642" lon="11.12323981930441"><ele>11.0</ele><time>2026-04-25T15:06:10.999Z</time></trkpt><trkpt lat="42.43335177773734" lon="11.123269941671023"><ele>10.0</ele><time>2026-04-25T15:06:11.999Z</time></trkpt><trkpt lat="42.43341733686391" lon="11.123299529502791"><ele>9.0</ele><time>2026-04-25T15:06:12.999Z</time></trkpt><trkpt lat="42.43348233691944" lon="11.123307722666903"><ele>8.0</ele><time>2026-04-25T15:06:13.999Z</time></trkpt><trkpt lat="42.43356514363008" lon="11.123348729032458"><ele>7.0</ele><time>2026-04-25T15:06:14.999Z</time></trkpt><trkpt lat="42.433642028803675" lon="11.123413228348738"><ele>6.0</ele><time>2026-04-25T15:06:15.999Z</time></trkpt><trkpt lat="42.43370165066023" lon="11.123468265454143"><ele>5.0</ele><time>2026-04-25T15:06:16.999Z</time></trkpt><trkpt lat="42.43376095655275" lon="11.123508458350159"><ele>4.2</ele><time>2026-04-25T15:06:17.999Z</time></trkpt><trkpt lat="42.433857653970975" lon="11.123584896624823"><ele>3.4</ele><time>2026-04-25T15:06:19.999Z</time></trkpt><trkpt lat="42.433931658471096" lon="11.123657774877698"><ele>2.6</ele><time>2026-04-25T15:06:21.999Z</time></trkpt><trkpt lat="42.4339872901442" lon="11.123732192309767"><ele>1.8</ele><time>2026-04-25T15:06:23.999Z</time></trkpt><trkpt lat="42.43403907527725" lon="11.123832909980765"><ele>1.0</ele><time>2026-04-25T15:06:25.999Z</time></trkpt><trkpt lat="42.43413775628858" lon="11.12392434013075"><ele>1.0</ele><time>2026-04-25T15:06:27.998Z</time></trkpt><trkpt lat="42.43419974860148" lon="11.123951053988073"><ele>0.9999999999999999</ele><time>2026-04-25T15:06:28.998Z</time></trkpt><trkpt lat="42.4342537355889" lon="11.12400576651038"><ele>1.0</ele><time>2026-04-25T15:06:29.998Z</time></trkpt><trkpt lat="42.43430158781269" lon="11.124074188018556"><ele>1.0</ele><time>2026-04-25T15:06:30.998Z</time></trkpt><trkpt lat="42.43434619970085" lon="11.124145023069499"><ele>0.9999999999999999</ele><time>2026-04-25T15:06:31.998Z</time></trkpt><trkpt lat="42.43439776902351" lon="11.124219017272887"><ele>1.0</ele><time>2026-04-25T15:06:32.998Z</time></trkpt><trkpt lat="42.434447561667405" lon="11.12428682793651"><ele>1.0</ele><time>2026-04-25T15:06:34Z</time></trkpt><trkpt lat="42.43449671810967" lon="11.124350001514168"><ele>0.9999999999999999</ele><time>2026-04-25T15:06:35Z</time></trkpt><trkpt lat="42.43454619255605" lon="11.124423435104344"><ele>1.0</ele><time>2026-04-25T15:06:36Z</time></trkpt><trkpt lat="42.43460590440076" lon="11.12449867438309"><ele>1.0</ele><time>2026-04-25T15:06:37Z</time></trkpt><trkpt lat="42.43466228355962" lon="11.124567852347154"><ele>1.0</ele><time>2026-04-25T15:06:38Z</time></trkpt><trkpt lat="42.43470826345331" lon="11.124660546488737"><ele>0.9999999999999999</ele><time>2026-04-25T15:06:39Z</time></trkpt><trkpt lat="42.43478064050231" lon="11.124728188850005"><ele>1.0</ele><time>2026-04-25T15:06:40Z</time></trkpt><trkpt lat="42.43484170248662" lon="11.124814667970128"><ele>0.9999999999999999</ele><time>2026-04-25T15:06:41Z</time></trkpt><trkpt lat="42.43490595741997" lon="11.124894699094424"><ele>1.0</ele><time>2026-04-25T15:06:42Z</time></trkpt><trkpt lat="42.43495472054207" lon="11.124987454283236"><ele>1.0</ele><time>2026-04-25T15:06:43Z</time></trkpt><trkpt lat="42.435017114598026" lon="11.125078711503173"><ele>1.0</ele><time>2026-04-25T15:06:44Z</time></trkpt><trkpt lat="42.43507288085015" lon="11.125163009344856"><ele>0.9999999999999999</ele><time>2026-04-25T15:06:45Z</time></trkpt><trkpt lat="42.43513304698558" lon="11.125257618302864"><ele>1.0</ele><time>2026-04-25T15:06:46Z</time></trkpt><trkpt lat="42.43520728353321" lon="11.12534652885368"><ele>3.2</ele><time>2026-04-25T15:06:47Z</time></trkpt><trkpt lat="42.43526075029779" lon="11.125439612296725"><ele>5.4</ele><time>2026-04-25T15:06:48Z</time></trkpt><trkpt lat="42.435302801772394" lon="11.125543787420268"><ele>7.6</ele><time>2026-04-25T15:06:49Z</time></trkpt><trkpt lat="42.43535886298416" lon="11.125647605088314"><ele>9.799999999999999</ele><time>2026-04-25T15:06:50Z</time></trkpt><trkpt lat="42.43541527225442" lon="11.125748695584694"><ele>12.0</ele><time>2026-04-25T15:06:51Z</time></trkpt><trkpt lat="42.4354814800165" lon="11.12584031227149"><ele>12.0</ele><time>2026-04-25T15:06:52Z</time></trkpt><trkpt lat="42.43555910838067" lon="11.125923800436121"><ele>12.0</ele><time>2026-04-25T15:06:53Z</time></trkpt><trkpt lat="42.43565961735515" lon="11.125996602019084"><ele>12.0</ele><time>2026-04-25T15:06:54Z</time></trkpt><trkpt lat="42.43576747519235" lon="11.126034704341695"><ele>12.0</ele><time>2026-04-25T15:06:55Z</time></trkpt><trkpt lat="42.43585386512139" lon="11.126092522118592"><ele>12.0</ele><time>2026-04-25T15:06:56Z</time></trkpt><trkpt lat="42.43594646042724" lon="11.126138705861404"><ele>12.0</ele><time>2026-04-25T15:06:57Z</time></trkpt><trkpt lat="42.43603647214701" lon="11.126183767713773"><ele>12.0</ele><time>2026-04-25T15:06:58Z</time></trkpt><trkpt lat="42.436128762472855" lon="11.126229970250183"><ele>12.0</ele><time>2026-04-25T15:06:59Z</time></trkpt><trkpt lat="42.43621576703182" lon="11.126273526669893"><ele>12.0</ele><time>2026-04-25T15:07:00Z</time></trkpt><trkpt lat="42.43630024903269" lon="11.126314640539128"><ele>12.0</ele><time>2026-04-25T15:07:01Z</time></trkpt><trkpt lat="42.43638862731474" lon="11.126355611223675"><ele>11.666666666666666</ele><time>2026-04-25T15:07:02Z</time></trkpt><trkpt lat="42.43647262660932" lon="11.126395536091113"><ele>11.333333333333334</ele><time>2026-04-25T15:07:03Z</time></trkpt><trkpt lat="42.436542948416644" lon="11.126437314870492"><ele>11.0</ele><time>2026-04-25T15:07:04Z</time></trkpt><trkpt lat="42.43661331441617" lon="11.126461807855627"><ele>10.666666666666668</ele><time>2026-04-25T15:07:05Z</time></trkpt><trkpt lat="42.43666697278933" lon="11.126531375194258"><ele>10.333333333333334</ele><time>2026-04-25T15:07:06Z</time></trkpt><trkpt lat="42.43668625616497" lon="11.126642180846854"><ele>10.0</ele><time>2026-04-25T15:07:07Z</time></trkpt><trkpt lat="42.43669869740125" lon="11.126747039805965"><ele>13.166666666666668</ele><time>2026-04-25T15:07:08Z</time></trkpt><trkpt lat="42.436702154508104" lon="11.126848803217655"><ele>16.333333333333332</ele><time>2026-04-25T15:07:09Z</time></trkpt><trkpt lat="42.43672009814802" lon="11.12695473045014"><ele>19.5</ele><time>2026-04-25T15:07:10Z</time></trkpt><trkpt lat="42.43672347076803" lon="11.127065831628473"><ele>22.666666666666664</ele><time>2026-04-25T15:07:11Z</time></trkpt><trkpt lat="42.436730209697814" lon="11.127183865069844"><ele>25.833333333333332</ele><time>2026-04-25T15:07:12Z</time></trkpt><trkpt lat="42.43675741769436" lon="11.127289141716615"><ele>29.0</ele><time>2026-04-25T15:07:13Z</time></trkpt><trkpt lat="42.43678007201794" lon="11.127394239823275"><ele>30.666666666666664</ele><time>2026-04-25T15:07:14Z</time></trkpt><trkpt lat="42.43680117049022" lon="11.127501912160138"><ele>32.33333333333333</ele><time>2026-04-25T15:07:15Z</time></trkpt><trkpt lat="42.436800745688444" lon="11.127606392053387"><ele>34.0</ele><time>2026-04-25T15:07:15.999Z</time></trkpt><trkpt lat="42.43679207575289" lon="11.127712692764534"><ele>35.666666666666664</ele><time>2026-04-25T15:07:16.999Z</time></trkpt><trkpt lat="42.4367803478494" lon="11.127815167727475"><ele>37.333333333333336</ele><time>2026-04-25T15:07:17.999Z</time></trkpt><trkpt lat="42.43677469517209" lon="11.127933804096584"><ele>39.0</ele><time>2026-04-25T15:07:18.999Z</time></trkpt><trkpt lat="42.43674094637805" lon="11.128059788397549"><ele>39.0</ele><time>2026-04-25T15:07:19.999Z</time></trkpt><trkpt lat="42.43670055786978" lon="11.128179275133485"><ele>39.0</ele><time>2026-04-25T15:07:20.999Z</time></trkpt><trkpt lat="42.43665731222712" lon="11.128285945127601"><ele>39.0</ele><time>2026-04-25T15:07:21.999Z</time></trkpt><trkpt lat="42.43660017045464" lon="11.128404579094495"><ele>39.0</ele><time>2026-04-25T15:07:22.999Z</time></trkpt><trkpt lat="42.43657767348099" lon="11.128545561628922"><ele>39.0</ele><time>2026-04-25T15:07:23.999Z</time></trkpt><trkpt lat="42.43659015565667" lon="11.128713332534607"><ele>39.666666666666664</ele><time>2026-04-25T15:07:24.999Z</time></trkpt><trkpt lat="42.4366064876956" lon="11.128906045032268"><ele>40.33333333333333</ele><time>2026-04-25T15:07:25.999Z</time></trkpt><trkpt lat="42.436624367493046" lon="11.129096624298953"><ele>41.0</ele><time>2026-04-25T15:07:26.999Z</time></trkpt><trkpt lat="42.43664577992297" lon="11.129320754306988"><ele>38.666666666666664</ele><time>2026-04-25T15:07:27.999Z</time></trkpt><trkpt lat="42.43666867463552" lon="11.129558951828002"><ele>36.333333333333336</ele><time>2026-04-25T15:07:28.999Z</time></trkpt><trkpt lat="42.436693639373" lon="11.129801704299362"><ele>34.0</ele><time>2026-04-25T15:07:29.999Z</time></trkpt><trkpt lat="42.43672115518871" lon="11.130043810042814"><ele>34.0</ele><time>2026-04-25T15:07:30.999Z</time></trkpt><trkpt lat="42.43674211824057" lon="11.130265084757173"><ele>34.0</ele><time>2026-04-25T15:07:31.999Z</time></trkpt><trkpt lat="42.43673507564312" lon="11.130497151788672"><ele>34.0</ele><time>2026-04-25T15:07:32.999Z</time></trkpt><trkpt lat="42.43672792599493" lon="11.130744979205332"><ele>34.0</ele><time>2026-04-25T15:07:33.999Z</time></trkpt><trkpt lat="42.43672585885787" lon="11.130991952909847"><ele>34.0</ele><time>2026-04-25T15:07:34.999Z</time></trkpt><trkpt lat="42.436738592019324" lon="11.131231831130892"><ele>34.0</ele><time>2026-04-25T15:07:35.999Z</time></trkpt><trkpt lat="42.43678820118336" lon="11.1314806346361"><ele>34.66666666666667</ele><time>2026-04-25T15:07:36.999Z</time></trkpt><trkpt lat="42.43686680325117" lon="11.131704352338152"><ele>35.333333333333336</ele><time>2026-04-25T15:07:37.999Z</time></trkpt><trkpt lat="42.4369710690994" lon="11.131910133201261"><ele>36.0</ele><time>2026-04-25T15:07:38.999Z</time></trkpt><trkpt lat="42.437106133653295" lon="11.132115396493203"><ele>33.0</ele><time>2026-04-25T15:07:39.999Z</time></trkpt><trkpt lat="42.43723841398772" lon="11.132299424280877"><ele>30.0</ele><time>2026-04-25T15:07:40.999Z</time></trkpt><trkpt lat="42.43735284306876" lon="11.132453454723914"><ele>27.0</ele><time>2026-04-25T15:07:41.999Z</time></trkpt><trkpt lat="42.437454470303614" lon="11.132601285905775"><ele>24.333333333333332</ele><time>2026-04-25T15:07:42.999Z</time></trkpt><trkpt lat="42.43755063825002" lon="11.132760421311401"><ele>21.666666666666664</ele><time>2026-04-25T15:07:43.999Z</time></trkpt><trkpt lat="42.43763086315956" lon="11.13292356744945"><ele>19.0</ele><time>2026-04-25T15:07:44.999Z</time></trkpt><trkpt lat="42.43770736705374" lon="11.133103260334044"><ele>19.25</ele><time>2026-04-25T15:07:45.999Z</time></trkpt><trkpt lat="42.43777124379313" lon="11.133276672387439"><ele>19.5</ele><time>2026-04-25T15:07:46.999Z</time></trkpt><trkpt lat="42.437809614782566" lon="11.133443241886923"><ele>19.75</ele><time>2026-04-25T15:07:47.999Z</time></trkpt><trkpt lat="42.437816500334925" lon="11.133584643647593"><ele>20.0</ele><time>2026-04-25T15:07:48.999Z</time></trkpt><trkpt lat="42.43778006485575" lon="11.133718163549915"><ele>20.0</ele><time>2026-04-25T15:07:49.999Z</time></trkpt><trkpt lat="42.43770703983835" lon="11.133845438543199"><ele>20.0</ele><time>2026-04-25T15:07:50.999Z</time></trkpt><trkpt lat="42.437623759449075" lon="11.13398900439422"><ele>20.0</ele><time>2026-04-25T15:07:51.999Z</time></trkpt><trkpt lat="42.43751083266639" lon="11.134112242368515"><ele>20.0</ele><time>2026-04-25T15:07:52.999Z</time></trkpt><trkpt lat="42.437377781630225" lon="11.1342156162528"><ele>21.0</ele><time>2026-04-25T15:07:53.999Z</time></trkpt><trkpt lat="42.4372449994048" lon="11.13428066589307"><ele>22.0</ele><time>2026-04-25T15:07:54.999Z</time></trkpt><trkpt lat="42.437131082164235" lon="11.134333453985683"><ele>23.0</ele><time>2026-04-25T15:07:55.999Z</time></trkpt><trkpt lat="42.43702495448984" lon="11.134391346276354"><ele>24.0</ele><time>2026-04-25T15:07:56.999Z</time></trkpt><trkpt lat="42.43692694068608" lon="11.134450266068121"><ele>24.0</ele><time>2026-04-25T15:07:57.999Z</time></trkpt><trkpt lat="42.43684003759538" lon="11.13450854657051"><ele>24.0</ele><time>2026-04-25T15:07:58.999Z</time></trkpt><trkpt lat="42.43675573772575" lon="11.134581799221593"><ele>24.0</ele><time>2026-04-25T15:07:59.999Z</time></trkpt><trkpt lat="42.43667497480231" lon="11.134678559079177"><ele>24.0</ele><time>2026-04-25T15:08:00.999Z</time></trkpt><trkpt lat="42.43660567523128" lon="11.134802056850374"><ele>24.0</ele><time>2026-04-25T15:08:01.999Z</time></trkpt><trkpt lat="42.436547392439834" lon="11.134926662840803"><ele>25.799999999999997</ele><time>2026-04-25T15:08:02.999Z</time></trkpt><trkpt lat="42.43649487006892" lon="11.13503442431212"><ele>27.599999999999998</ele><time>2026-04-25T15:08:03.999Z</time></trkpt><trkpt lat="42.43644138641309" lon="11.135144165676975"><ele>29.4</ele><time>2026-04-25T15:08:04.999Z</time></trkpt><trkpt lat="42.43638525237096" lon="11.135267566637017"><ele>31.2</ele><time>2026-04-25T15:08:05.999Z</time></trkpt><trkpt lat="42.43630710915849" lon="11.135388229917838"><ele>33.0</ele><time>2026-04-25T15:08:06.999Z</time></trkpt><trkpt lat="42.4362298197808" lon="11.135542983544484"><ele>28.333333333333332</ele><time>2026-04-25T15:08:07.999Z</time></trkpt><trkpt lat="42.43613815540667" lon="11.135726519573925"><ele>23.666666666666664</ele><time>2026-04-25T15:08:08.999Z</time></trkpt><trkpt lat="42.43603792707022" lon="11.135930050911805"><ele>19.0</ele><time>2026-04-25T15:08:09.999Z</time></trkpt><trkpt lat="42.435932178788555" lon="11.136157434293514"><ele>19.0</ele><time>2026-04-25T15:08:10.999Z</time></trkpt><trkpt lat="42.435820619131334" lon="11.136397640026344"><ele>19.0</ele><time>2026-04-25T15:08:11.999Z</time></trkpt><trkpt lat="42.43571886827363" lon="11.136606480670162"><ele>19.0</ele><time>2026-04-25T15:08:12.999Z</time></trkpt><trkpt lat="42.43563450972627" lon="11.136789363527207"><ele>18.666666666666664</ele><time>2026-04-25T15:08:13.999Z</time></trkpt><trkpt lat="42.43552271200613" lon="11.136930567707536"><ele>18.333333333333332</ele><time>2026-04-25T15:08:14.999Z</time></trkpt><trkpt lat="42.435390636146636" lon="11.137034058505046"><ele>18.0</ele><time>2026-04-25T15:08:15.999Z</time></trkpt><trkpt lat="42.435250432652765" lon="11.137104204325864"><ele>18.0</ele><time>2026-04-25T15:08:16.999Z</time></trkpt><trkpt lat="42.435090283760886" lon="11.137160210127382"><ele>18.0</ele><time>2026-04-25T15:08:17.999Z</time></trkpt><trkpt lat="42.43494499018133" lon="11.137194233443239"><ele>18.0</ele><time>2026-04-25T15:08:18.999Z</time></trkpt><trkpt lat="42.43482318357461" lon="11.137243245322491"><ele>18.0</ele><time>2026-04-25T15:08:19.999Z</time></trkpt><trkpt lat="42.43472391749172" lon="11.137338597273281"><ele>16.75</ele><time>2026-04-25T15:08:20.999Z</time></trkpt><trkpt lat="42.43464068744923" lon="11.137478946223105"><ele>15.5</ele><time>2026-04-25T15:08:21.999Z</time></trkpt><trkpt lat="42.43457658032335" lon="11.13765330997589"><ele>14.25</ele><time>2026-04-25T15:08:22.999Z</time></trkpt><trkpt lat="42.43451366977926" lon="11.137845365511302"><ele>13.0</ele><time>2026-04-25T15:08:23.999Z</time></trkpt><trkpt lat="42.43442410933274" lon="11.138037114638836"><ele>10.0</ele><time>2026-04-25T15:08:24.999Z</time></trkpt><trkpt lat="42.43433403755029" lon="11.138254780343123"><ele>7.0</ele><time>2026-04-25T15:08:25.999Z</time></trkpt><trkpt lat="42.434256727548856" lon="11.138507564033308"><ele>4.0</ele><time>2026-04-25T15:08:26.999Z</time></trkpt><trkpt lat="42.43417904371828" lon="11.138744603330379"><ele>4.0</ele><time>2026-04-25T15:08:27.999Z</time></trkpt><trkpt lat="42.43411500171006" lon="11.138980378193096"><ele>4.0</ele><time>2026-04-25T15:08:28.999Z</time></trkpt><trkpt lat="42.43405719686141" lon="11.13920879603856"><ele>4.0</ele><time>2026-04-25T15:08:29.999Z</time></trkpt><trkpt lat="42.43397414449417" lon="11.13941075995077"><ele>3.0</ele><time>2026-04-25T15:08:30.999Z</time></trkpt><trkpt lat="42.433903062377134" lon="11.13964043093021"><ele>2.0</ele><time>2026-04-25T15:08:31.998Z</time></trkpt><trkpt lat="42.43385312753382" lon="11.139848036921315"><ele>1.0</ele><time>2026-04-25T15:08:32.998Z</time></trkpt><trkpt lat="42.433840689995534" lon="11.14008438860636"><ele>2.3333333333333335</ele><time>2026-04-25T15:08:33.998Z</time></trkpt><trkpt lat="42.43380377001231" lon="11.140322560104332"><ele>3.666666666666667</ele><time>2026-04-25T15:08:34.998Z</time></trkpt><trkpt lat="42.43377508040056" lon="11.140583944729018"><ele>5.0</ele><time>2026-04-25T15:08:35.998Z</time></trkpt><trkpt lat="42.43375835053914" lon="11.140841422671016"><ele>5.333333333333334</ele><time>2026-04-25T15:08:36.998Z</time></trkpt><trkpt lat="42.433758293327216" lon="11.141122138060231"><ele>5.666666666666667</ele><time>2026-04-25T15:08:37.998Z</time></trkpt><trkpt lat="42.433736106247515" lon="11.14140794022446"><ele>6.0</ele><time>2026-04-25T15:08:38.998Z</time></trkpt><trkpt lat="42.433716467169816" lon="11.141691746976912"><ele>6.333333333333334</ele><time>2026-04-25T15:08:40Z</time></trkpt><trkpt lat="42.43367805008593" lon="11.141970883288085"><ele>6.666666666666667</ele><time>2026-04-25T15:08:41Z</time></trkpt><trkpt lat="42.43365889543891" lon="11.142227294425556"><ele>7.0</ele><time>2026-04-25T15:08:42Z</time></trkpt><trkpt lat="42.43365173938711" lon="11.142440607527412"><ele>9.0</ele><time>2026-04-25T15:08:43Z</time></trkpt><trkpt lat="42.433679031774304" lon="11.142649541249188"><ele>11.0</ele><time>2026-04-25T15:08:44Z</time></trkpt><trkpt lat="42.43370981955788" lon="11.142858283927836"><ele>13.0</ele><time>2026-04-25T15:08:45Z</time></trkpt><trkpt lat="42.43379360000799" lon="11.143035687854526"><ele>11.333333333333332</ele><time>2026-04-25T15:08:46Z</time></trkpt><trkpt lat="42.43392477500156" lon="11.143159457993605"><ele>9.666666666666666</ele><time>2026-04-25T15:08:47Z</time></trkpt><trkpt lat="42.434064022428544" lon="11.14327144143748"><ele>8.0</ele><time>2026-04-25T15:08:48Z</time></trkpt><trkpt lat="42.43420436820745" lon="11.143396840259005"><ele>8.0</ele><time>2026-04-25T15:08:49Z</time></trkpt><trkpt lat="42.43434809916545" lon="11.143509448726158"><ele>8.0</ele><time>2026-04-25T15:08:50Z</time></trkpt><trkpt lat="42.434454687041026" lon="11.143612475378093"><ele>8.0</ele><time>2026-04-25T15:08:51Z</time></trkpt><trkpt lat="42.434509902829014" lon="11.14372591034857"><ele>8.0</ele><time>2026-04-25T15:08:52Z</time></trkpt><trkpt lat="42.43452029187318" lon="11.143840493879662"><ele>8.0</ele><time>2026-04-25T15:08:53Z</time></trkpt><trkpt lat="42.434521868253874" lon="11.143962714831975"><ele>8.0</ele><time>2026-04-25T15:08:54Z</time></trkpt><trkpt lat="42.434443653326746" lon="11.14408300418714"><ele>8.0</ele><time>2026-04-25T15:08:55Z</time></trkpt><trkpt lat="42.434360851917866" lon="11.144228057894857"><ele>8.0</ele><time>2026-04-25T15:08:56Z</time></trkpt><trkpt lat="42.43425636328558" lon="11.14436956618271"><ele>10.0</ele><time>2026-04-25T15:08:57Z</time></trkpt><trkpt lat="42.43414556999999" lon="11.144521212624717"><ele>12.0</ele><time>2026-04-25T15:08:58Z</time></trkpt><trkpt lat="42.43403421953159" lon="11.144667524975246"><ele>14.0</ele><time>2026-04-25T15:08:59Z</time></trkpt><trkpt lat="42.433923651455025" lon="11.14481557571448"><ele>16.666666666666668</ele><time>2026-04-25T15:09:00Z</time></trkpt><trkpt lat="42.43383142705125" lon="11.144974890651959"><ele>19.333333333333332</ele><time>2026-04-25T15:09:01Z</time></trkpt><trkpt lat="42.43374334923747" lon="11.145139112341901"><ele>22.0</ele><time>2026-04-25T15:09:02Z</time></trkpt><trkpt lat="42.433743620575534" lon="11.14535927743368"><ele>22.0</ele><time>2026-04-25T15:09:03Z</time></trkpt><trkpt lat="42.4337528780275" lon="11.145570872013842"><ele>22.0</ele><time>2026-04-25T15:09:04Z</time></trkpt><trkpt lat="42.43377840065043" lon="11.145768272476895"><ele>22.0</ele><time>2026-04-25T15:09:05Z</time></trkpt><trkpt lat="42.43377381444597" lon="11.145941508906859"><ele>22.0</ele><time>2026-04-25T15:09:06Z</time></trkpt><trkpt lat="42.43378384524592" lon="11.146092350493035"><ele>20.333333333333332</ele><time>2026-04-25T15:09:07Z</time></trkpt><trkpt lat="42.433791807193565" lon="11.146209359095932"><ele>18.666666666666664</ele><time>2026-04-25T15:09:08Z</time></trkpt><trkpt lat="42.4337993326729" lon="11.146320297941678"><ele>17.0</ele><time>2026-04-25T15:09:09Z</time></trkpt><trkpt lat="42.43380697398014" lon="11.146432944107831"><ele>15.333333333333332</ele><time>2026-04-25T15:09:10Z</time></trkpt><trkpt lat="42.433814144709906" lon="11.146538653192534"><ele>13.666666666666666</ele><time>2026-04-25T15:09:11Z</time></trkpt><trkpt lat="42.43382121048896" lon="11.14664281510592"><ele>12.0</ele><time>2026-04-25T15:09:12Z</time></trkpt><trkpt lat="42.43382841848503" lon="11.146749073592467"><ele>10.2</ele><time>2026-04-25T15:09:13Z</time></trkpt><trkpt lat="42.43383714167364" lon="11.146867250399195"><ele>8.399999999999999</ele><time>2026-04-25T15:09:14Z</time></trkpt><trkpt lat="42.43384840385023" lon="11.146994235380593"><ele>6.6</ele><time>2026-04-25T15:09:15Z</time></trkpt><trkpt lat="42.43386345440654" lon="11.147116913858927"><ele>4.8</ele><time>2026-04-25T15:09:15.999Z</time></trkpt><trkpt lat="42.433888504476535" lon="11.147235209417437"><ele>3.0</ele><time>2026-04-25T15:09:16.999Z</time></trkpt><trkpt lat="42.43391988150297" lon="11.147349475590982"><ele>3.4</ele><time>2026-04-25T15:09:17.999Z</time></trkpt><trkpt lat="42.43395861822603" lon="11.147460785639394"><ele>3.8</ele><time>2026-04-25T15:09:18.999Z</time></trkpt><trkpt lat="42.4340092719738" lon="11.147574830525649"><ele>4.2</ele><time>2026-04-25T15:09:19.999Z</time></trkpt><trkpt lat="42.43405754831523" lon="11.147679477125896"><ele>4.6</ele><time>2026-04-25T15:09:20.999Z</time></trkpt><trkpt lat="42.434110175198555" lon="11.14778485449828"><ele>5.0</ele><time>2026-04-25T15:09:21.999Z</time></trkpt><trkpt lat="42.434156059682415" lon="11.14787909834049"><ele>5.0</ele><time>2026-04-25T15:09:22.999Z</time></trkpt><trkpt lat="42.43419557695586" lon="11.147960210289588"><ele>5.0</ele><time>2026-04-25T15:09:23.999Z</time></trkpt><trkpt lat="42.43423621765218" lon="11.148032582469252"><ele>5.0</ele><time>2026-04-25T15:09:24.999Z</time></trkpt><trkpt lat="42.434291507164716" lon="11.148108741092"><ele>5.0</ele><time>2026-04-25T15:09:25.999Z</time></trkpt><trkpt lat="42.4343561602787" lon="11.148167684989218"><ele>5.0</ele><time>2026-04-25T15:09:26.999Z</time></trkpt><trkpt lat="42.43442878184779" lon="11.148201078771727"><ele>5.0</ele><time>2026-04-25T15:09:27.999Z</time></trkpt><trkpt lat="42.43451903769442" lon="11.148226361068508"><ele>5.0</ele><time>2026-04-25T15:09:28.999Z</time></trkpt><trkpt lat="42.43461922113228" lon="11.148171260609983"><ele>5.0</ele><time>2026-04-25T15:09:29.999Z</time></trkpt><trkpt lat="42.434700564985285" lon="11.1481367291124"><ele>5.0</ele><time>2026-04-25T15:09:30.999Z</time></trkpt><trkpt lat="42.43477126537094" lon="11.148102648741846"><ele>5.0</ele><time>2026-04-25T15:09:31.999Z</time></trkpt><trkpt lat="42.43483740388977" lon="11.148104267078145"><ele>5.0</ele><time>2026-04-25T15:09:32.999Z</time></trkpt><trkpt lat="42.4349160979611" lon="11.148080664057463"><ele>5.0</ele><time>2026-04-25T15:09:33.999Z</time></trkpt><trkpt lat="42.435000958931845" lon="11.148057382328254"><ele>4.833333333333334</ele><time>2026-04-25T15:09:34.999Z</time></trkpt><trkpt lat="42.435093042469475" lon="11.148037961914172"><ele>4.666666666666667</ele><time>2026-04-25T15:09:35.999Z</time></trkpt><trkpt lat="42.43518677931868" lon="11.148031083283717"><ele>4.5</ele><time>2026-04-25T15:09:36.999Z</time></trkpt><trkpt lat="42.43527596392658" lon="11.148045625918261"><ele>4.333333333333333</ele><time>2026-04-25T15:09:37.999Z</time></trkpt><trkpt lat="42.43535950556741" lon="11.148078136860756"><ele>4.166666666666666</ele><time>2026-04-25T15:09:38.999Z</time></trkpt><trkpt lat="42.435439001714656" lon="11.148112092781806"><ele>4.0</ele><time>2026-04-25T15:09:39.999Z</time></trkpt><trkpt lat="42.4355214476754" lon="11.148147741566714"><ele>3.4000000000000004</ele><time>2026-04-25T15:09:40.999Z</time></trkpt><trkpt lat="42.43560977783225" lon="11.148185934619356"><ele>2.8000000000000003</ele><time>2026-04-25T15:09:41.999Z</time></trkpt><trkpt lat="42.435703650910426" lon="11.14823151975096"><ele>2.2</ele><time>2026-04-25T15:09:42.999Z</time></trkpt><trkpt lat="42.43580189804043" lon="11.148282180341633"><ele>1.6</ele><time>2026-04-25T15:09:43.999Z</time></trkpt><trkpt lat="42.4358937426479" lon="11.148333877333577"><ele>1.0</ele><time>2026-04-25T15:09:44.999Z</time></trkpt><trkpt lat="42.43598606804083" lon="11.148389542887928"><ele>2.4000000000000004</ele><time>2026-04-25T15:09:45.999Z</time></trkpt><trkpt lat="42.43607008095869" lon="11.14844217918319"><ele>3.8000000000000003</ele><time>2026-04-25T15:09:46.999Z</time></trkpt><trkpt lat="42.43616099703249" lon="11.148505380781504"><ele>5.200000000000001</ele><time>2026-04-25T15:09:47.999Z</time></trkpt><trkpt lat="42.4362490667151" lon="11.148576049875743"><ele>6.6000000000000005</ele><time>2026-04-25T15:09:48.999Z</time></trkpt><trkpt lat="42.43632024984961" lon="11.148665136660357"><ele>8.0</ele><time>2026-04-25T15:09:49.999Z</time></trkpt><trkpt lat="42.43638605650936" lon="11.148769642666"><ele>8.0</ele><time>2026-04-25T15:09:50.999Z</time></trkpt><trkpt lat="42.436451320134" lon="11.14888697270402"><ele>8.0</ele><time>2026-04-25T15:09:51.999Z</time></trkpt><trkpt lat="42.436490042657034" lon="11.149018020013687"><ele>8.0</ele><time>2026-04-25T15:09:52.999Z</time></trkpt><trkpt lat="42.43649194565208" lon="11.149140944624786"><ele>8.0</ele><time>2026-04-25T15:09:53.999Z</time></trkpt><trkpt lat="42.43648667872541" lon="11.149255948961956"><ele>8.0</ele><time>2026-04-25T15:09:54.999Z</time></trkpt><trkpt lat="42.43641329791414" lon="11.1493438646742"><ele>9.0</ele><time>2026-04-25T15:09:55.999Z</time></trkpt><trkpt lat="42.43636100880924" lon="11.149471477025713"><ele>10.0</ele><time>2026-04-25T15:09:56.999Z</time></trkpt><trkpt lat="42.43629337569286" lon="11.149592492588367"><ele>11.0</ele><time>2026-04-25T15:09:57.999Z</time></trkpt><trkpt lat="42.43622508548693" lon="11.149724632320739"><ele>12.0</ele><time>2026-04-25T15:09:58.999Z</time></trkpt><trkpt lat="42.436162471773535" lon="11.14985471411431"><ele>15.25</ele><time>2026-04-25T15:09:59.999Z</time></trkpt><trkpt lat="42.43609761092056" lon="11.149982787363976"><ele>18.5</ele><time>2026-04-25T15:10:00.999Z</time></trkpt><trkpt lat="42.43603968694938" lon="11.150106929205366"><ele>21.75</ele><time>2026-04-25T15:10:01.999Z</time></trkpt><trkpt lat="42.43597010876483" lon="11.150244515904246"><ele>25.0</ele><time>2026-04-25T15:10:02.999Z</time></trkpt><trkpt lat="42.435898607478364" lon="11.15038690579553"><ele>25.0</ele><time>2026-04-25T15:10:03.999Z</time></trkpt><trkpt lat="42.435827794697765" lon="11.150533738807928"><ele>25.0</ele><time>2026-04-25T15:10:04.999Z</time></trkpt><trkpt lat="42.43575242557349" lon="11.150695512421162"><ele>25.0</ele><time>2026-04-25T15:10:05.999Z</time></trkpt><trkpt lat="42.43568514278211" lon="11.150836791000666"><ele>25.0</ele><time>2026-04-25T15:10:06.999Z</time></trkpt><trkpt lat="42.43562364730424" lon="11.150969639286359"><ele>26.0</ele><time>2026-04-25T15:10:07.999Z</time></trkpt><trkpt lat="42.435559009613876" lon="11.151097325845084"><ele>27.0</ele><time>2026-04-25T15:10:08.999Z</time></trkpt><trkpt lat="42.43548300533175" lon="11.151218416878775"><ele>28.0</ele><time>2026-04-25T15:10:09.999Z</time></trkpt><trkpt lat="42.43538823180394" lon="11.151330291565792"><ele>29.0</ele><time>2026-04-25T15:10:10.999Z</time></trkpt><trkpt lat="42.435282170609646" lon="11.151425697358105"><ele>29.0</ele><time>2026-04-25T15:10:11.999Z</time></trkpt><trkpt lat="42.43517824099742" lon="11.151491324740663"><ele>29.0</ele><time>2026-04-25T15:10:12.999Z</time></trkpt><trkpt lat="42.43507833501579" lon="11.151543106617003"><ele>29.0</ele><time>2026-04-25T15:10:13.999Z</time></trkpt><trkpt lat="42.43499726934368" lon="11.151607467537096"><ele>29.0</ele><time>2026-04-25T15:10:14.999Z</time></trkpt><trkpt lat="42.43493130571633" lon="11.151684001487833"><ele>29.0</ele><time>2026-04-25T15:10:15.999Z</time></trkpt><trkpt lat="42.434877068195284" lon="11.151770343614123"><ele>26.2</ele><time>2026-04-25T15:10:16.999Z</time></trkpt><trkpt lat="42.43481713842298" lon="11.151844850207716"><ele>23.4</ele><time>2026-04-25T15:10:17.999Z</time></trkpt><trkpt lat="42.434780663334564" lon="11.151936701544152"><ele>20.6</ele><time>2026-04-25T15:10:18.999Z</time></trkpt><trkpt lat="42.434741870626596" lon="11.152077336059667"><ele>17.8</ele><time>2026-04-25T15:10:19.999Z</time></trkpt><trkpt lat="42.43473045219014" lon="11.152209006246764"><ele>15.0</ele><time>2026-04-25T15:10:20.999Z</time></trkpt><trkpt lat="42.43471940453561" lon="11.152360003039623"><ele>13.8</ele><time>2026-04-25T15:10:21.999Z</time></trkpt><trkpt lat="42.434718987615" lon="11.152501035225134"><ele>12.6</ele><time>2026-04-25T15:10:22.999Z</time></trkpt><trkpt lat="42.434725455888525" lon="11.152627049619726"><ele>11.4</ele><time>2026-04-25T15:10:23.999Z</time></trkpt><trkpt lat="42.434726144603104" lon="11.15271823312967"><ele>10.2</ele><time>2026-04-25T15:10:24.999Z</time></trkpt><trkpt lat="42.434727060159744" lon="11.152826719984265"><ele>9.0</ele><time>2026-04-25T15:10:26.999Z</time></trkpt><trkpt lat="42.43471241220892" lon="11.152986773157682"><ele>9.0</ele><time>2026-04-25T15:10:29.998Z</time></trkpt><trkpt lat="42.43471175699052" lon="11.153095271896914"><ele>9.0</ele><time>2026-04-25T15:10:30.998Z</time></trkpt><trkpt lat="42.43470968670996" lon="11.153233689338512"><ele>9.0</ele><time>2026-04-25T15:10:31.998Z</time></trkpt><trkpt lat="42.43470279773971" lon="11.153386266434893"><ele>9.0</ele><time>2026-04-25T15:10:32.998Z</time></trkpt><trkpt lat="42.434693261981586" lon="11.153559457459643"><ele>9.0</ele><time>2026-04-25T15:10:33.998Z</time></trkpt><trkpt lat="42.4346806419902" lon="11.153734035939085"><ele>8.6</ele><time>2026-04-25T15:10:34.998Z</time></trkpt><trkpt lat="42.434668213268566" lon="11.153888336669963"><ele>8.2</ele><time>2026-04-25T15:10:35.998Z</time></trkpt><trkpt lat="42.43465788397082" lon="11.154021463431413"><ele>7.799999999999999</ele><time>2026-04-25T15:10:36.998Z</time></trkpt><trkpt lat="42.43464777591596" lon="11.15415178698705"><ele>7.3999999999999995</ele><time>2026-04-25T15:10:37.998Z</time></trkpt><trkpt lat="42.434640186305906" lon="11.154255814930808"><ele>7.0</ele><time>2026-04-25T15:10:38.998Z</time></trkpt><trkpt lat="42.43463326975426" lon="11.154350617433227"><ele>8.833333333333334</ele><time>2026-04-25T15:10:39.998Z</time></trkpt><trkpt lat="42.434626552140486" lon="11.154442693386466"><ele>10.666666666666668</ele><time>2026-04-25T15:10:40.998Z</time></trkpt><trkpt lat="42.434619900538564" lon="11.154533864387057"><ele>12.5</ele><time>2026-04-25T15:10:41.998Z</time></trkpt><trkpt lat="42.43460993415176" lon="11.154629108175364"><ele>14.333333333333334</ele><time>2026-04-25T15:10:42.998Z</time></trkpt><trkpt lat="42.434590612828536" lon="11.154728716196386"><ele>16.166666666666668</ele><time>2026-04-25T15:10:43.998Z</time></trkpt><trkpt lat="42.43455902552675" lon="11.154834893576393"><ele>18.0</ele><time>2026-04-25T15:10:44.998Z</time></trkpt><trkpt lat="42.43451654393193" lon="11.154949856854918"><ele>18.0</ele><time>2026-04-25T15:10:46Z</time></trkpt><trkpt lat="42.434473561659" lon="11.15505973203439"><ele>18.0</ele><time>2026-04-25T15:10:47Z</time></trkpt><trkpt lat="42.434422388973864" lon="11.155177332673238"><ele>18.0</ele><time>2026-04-25T15:10:48Z</time></trkpt><trkpt lat="42.43437209469481" lon="11.155292439477911"><ele>18.0</ele><time>2026-04-25T15:10:49Z</time></trkpt><trkpt lat="42.43432643073478" lon="11.155409246568379"><ele>18.0</ele><time>2026-04-25T15:10:50Z</time></trkpt><trkpt lat="42.43428515803001" lon="11.155526688893596"><ele>18.0</ele><time>2026-04-25T15:10:51Z</time></trkpt><trkpt lat="42.43424191874455" lon="11.155654357290963"><ele>18.0</ele><time>2026-04-25T15:10:52Z</time></trkpt><trkpt lat="42.43419917796803" lon="11.155786751837171"><ele>18.0</ele><time>2026-04-25T15:10:53Z</time></trkpt><trkpt lat="42.434159069699874" lon="11.155912444692964"><ele>18.0</ele><time>2026-04-25T15:10:54Z</time></trkpt><trkpt lat="42.434115745109416" lon="11.156042627354122"><ele>18.0</ele><time>2026-04-25T15:10:55Z</time></trkpt><trkpt lat="42.43407519949545" lon="11.15616366639278"><ele>16.6</ele><time>2026-04-25T15:10:56Z</time></trkpt><trkpt lat="42.43403440023172" lon="11.156282832503722"><ele>15.200000000000001</ele><time>2026-04-25T15:10:57Z</time></trkpt><trkpt lat="42.433985978863255" lon="11.15641573788018"><ele>13.8</ele><time>2026-04-25T15:10:58Z</time></trkpt><trkpt lat="42.43393816145078" lon="11.156537137165282"><ele>12.4</ele><time>2026-04-25T15:10:59Z</time></trkpt><trkpt lat="42.43388488512079" lon="11.156663545660566"><ele>11.0</ele><time>2026-04-25T15:11:00Z</time></trkpt><trkpt lat="42.4338326520305" lon="11.156785291187626"><ele>11.600000000000001</ele><time>2026-04-25T15:11:01Z</time></trkpt><trkpt lat="42.433777742291454" lon="11.156899044575548"><ele>12.2</ele><time>2026-04-25T15:11:02Z</time></trkpt><trkpt lat="42.433731231741824" lon="11.157006793908637"><ele>12.799999999999999</ele><time>2026-04-25T15:11:03Z</time></trkpt><trkpt lat="42.433679159864965" lon="11.157116761131855"><ele>13.399999999999999</ele><time>2026-04-25T15:11:04Z</time></trkpt><trkpt lat="42.43362760389478" lon="11.15722367968615"><ele>14.0</ele><time>2026-04-25T15:11:05Z</time></trkpt><trkpt lat="42.43358688011785" lon="11.157305497001243"><ele>12.500000000000002</ele><time>2026-04-25T15:11:06Z</time></trkpt><trkpt lat="42.433544917386456" lon="11.157387460999047"><ele>11.0</ele><time>2026-04-25T15:11:07Z</time></trkpt><trkpt lat="42.433504028174184" lon="11.15745811048249"><ele>9.5</ele><time>2026-04-25T15:11:08Z</time></trkpt><trkpt lat="42.43345662283589" lon="11.157519098630457"><ele>8.0</ele><time>2026-04-25T15:11:09Z</time></trkpt><trkpt lat="42.433366094723134" lon="11.157590634281673"><ele>6.5</ele><time>2026-04-25T15:11:11Z</time></trkpt><trkpt lat="42.43327216956399" lon="11.157632570067905"><ele>5.0</ele><time>2026-04-25T15:11:13Z</time></trkpt><trkpt lat="42.433222589017916" lon="11.157817294675963"><ele>5.0</ele><time>2026-04-25T15:11:15Z</time></trkpt><trkpt lat="42.433238223539554" lon="11.15791524601207"><ele>5.0</ele><time>2026-04-25T15:11:16Z</time></trkpt><trkpt lat="42.43327286696021" lon="11.158032761267789"><ele>5.0</ele><time>2026-04-25T15:11:17Z</time></trkpt><trkpt lat="42.433318296376584" lon="11.158166160021432"><ele>5.0</ele><time>2026-04-25T15:11:18Z</time></trkpt><trkpt lat="42.433358241365646" lon="11.158307758830242"><ele>5.0</ele><time>2026-04-25T15:11:19Z</time></trkpt><trkpt lat="42.43339345141691" lon="11.158455908540873"><ele>4.25</ele><time>2026-04-25T15:11:20Z</time></trkpt><trkpt lat="42.433394738796295" lon="11.158630893489498"><ele>3.5</ele><time>2026-04-25T15:11:21Z</time></trkpt><trkpt lat="42.433412133403245" lon="11.158799790368198"><ele>2.75</ele><time>2026-04-25T15:11:21.999Z</time></trkpt><trkpt lat="42.43342577607707" lon="11.15897453919358"><ele>2.0</ele><time>2026-04-25T15:11:22.999Z</time></trkpt><trkpt lat="42.43343692148244" lon="11.159147924807543"><ele>2.0</ele><time>2026-04-25T15:11:23.999Z</time></trkpt><trkpt lat="42.433448427839416" lon="11.15933162859682"><ele>2.0</ele><time>2026-04-25T15:11:24.999Z</time></trkpt><trkpt lat="42.43346029777965" lon="11.15952113717997"><ele>2.0</ele><time>2026-04-25T15:11:25.999Z</time></trkpt><trkpt lat="42.43347240385281" lon="11.159716691812916"><ele>2.0</ele><time>2026-04-25T15:11:26.999Z</time></trkpt><trkpt lat="42.43348462914314" lon="11.159914523649626"><ele>2.0</ele><time>2026-04-25T15:11:27.999Z</time></trkpt><trkpt lat="42.433500002742186" lon="11.160112315876905"><ele>2.0</ele><time>2026-04-25T15:11:28.999Z</time></trkpt><trkpt lat="42.433540214982344" lon="11.160314871005996"><ele>2.0</ele><time>2026-04-25T15:11:29.999Z</time></trkpt><trkpt lat="42.43356739782308" lon="11.160521736212862"><ele>2.0</ele><time>2026-04-25T15:11:30.999Z</time></trkpt><trkpt lat="42.43360884741069" lon="11.160735855939826"><ele>2.0</ele><time>2026-04-25T15:11:31.999Z</time></trkpt><trkpt lat="42.433654692562435" lon="11.160955443020097"><ele>2.0</ele><time>2026-04-25T15:11:32.999Z</time></trkpt><trkpt lat="42.43368288319494" lon="11.161172854969562"><ele>2.0</ele><time>2026-04-25T15:11:33.999Z</time></trkpt><trkpt lat="42.433726427869104" lon="11.161390710323296"><ele>2.0</ele><time>2026-04-25T15:11:34.999Z</time></trkpt><trkpt lat="42.4337832963949" lon="11.161610635838695"><ele>2.0</ele><time>2026-04-25T15:11:35.999Z</time></trkpt><trkpt lat="42.4338685919148" lon="11.161824964735546"><ele>1.6666666666666665</ele><time>2026-04-25T15:11:36.999Z</time></trkpt><trkpt lat="42.43398562239964" lon="11.162012114680072"><ele>1.3333333333333333</ele><time>2026-04-25T15:11:37.999Z</time></trkpt><trkpt lat="42.4341092705193" lon="11.162201772372473"><ele>1.0</ele><time>2026-04-25T15:11:38.999Z</time></trkpt><trkpt lat="42.43422796536845" lon="11.16239530146594"><ele>1.0</ele><time>2026-04-25T15:11:39.999Z</time></trkpt><trkpt lat="42.43435563975057" lon="11.162584688872634"><ele>1.0</ele><time>2026-04-25T15:11:40.999Z</time></trkpt><trkpt lat="42.43447719231057" lon="11.162764067954289"><ele>1.0</ele><time>2026-04-25T15:11:41.999Z</time></trkpt><trkpt lat="42.43459579659553" lon="11.162939096158956"><ele>1.6666666666666665</ele><time>2026-04-25T15:11:42.999Z</time></trkpt><trkpt lat="42.43470715201043" lon="11.163103845296275"><ele>2.3333333333333335</ele><time>2026-04-25T15:11:43.999Z</time></trkpt><trkpt lat="42.434819011822405" lon="11.163269500038668"><ele>3.0</ele><time>2026-04-25T15:11:44.999Z</time></trkpt><trkpt lat="42.434928583115436" lon="11.163431765678352"><ele>3.0</ele><time>2026-04-25T15:11:45.999Z</time></trkpt><trkpt lat="42.43503766859079" lon="11.163593312027297"><ele>3.0</ele><time>2026-04-25T15:11:46.999Z</time></trkpt><trkpt lat="42.4351508401643" lon="11.16376126633928"><ele>3.0</ele><time>2026-04-25T15:11:47.999Z</time></trkpt><trkpt lat="42.43526264101729" lon="11.16392729290078"><ele>3.333333333333333</ele><time>2026-04-25T15:11:48.999Z</time></trkpt><trkpt lat="42.43537049155514" lon="11.164087453115352"><ele>3.6666666666666665</ele><time>2026-04-25T15:11:49.999Z</time></trkpt><trkpt lat="42.435498822323304" lon="11.164278026990944"><ele>4.0</ele><time>2026-04-25T15:11:50.999Z</time></trkpt><trkpt lat="42.43561700385392" lon="11.16445324112322"><ele>4.0</ele><time>2026-04-25T15:11:51.999Z</time></trkpt><trkpt lat="42.435741170308155" lon="11.164637026456479"><ele>4.0</ele><time>2026-04-25T15:11:52.999Z</time></trkpt><trkpt lat="42.43586247382194" lon="11.164816574239225"><ele>4.0</ele><time>2026-04-25T15:11:53.999Z</time></trkpt><trkpt lat="42.43598616446755" lon="11.164999655337482"><ele>3.333333333333333</ele><time>2026-04-25T15:11:54.999Z</time></trkpt><trkpt lat="42.43611297576613" lon="11.165187355451662"><ele>2.6666666666666665</ele><time>2026-04-25T15:11:55.999Z</time></trkpt><trkpt lat="42.43624002975103" lon="11.165375414789537"><ele>2.0</ele><time>2026-04-25T15:11:56.999Z</time></trkpt><trkpt lat="42.436365076539126" lon="11.165560503203302"><ele>2.0</ele><time>2026-04-25T15:11:57.999Z</time></trkpt><trkpt lat="42.43650522249487" lon="11.165736526832623"><ele>2.0</ele><time>2026-04-25T15:11:58.999Z</time></trkpt><trkpt lat="42.43663531579683" lon="11.165936590014264"><ele>2.0</ele><time>2026-04-25T15:11:59.999Z</time></trkpt><trkpt lat="42.43674668287197" lon="11.166127134161828"><ele>2.0</ele><time>2026-04-25T15:12:00.999Z</time></trkpt><trkpt lat="42.43687281505813" lon="11.166308139183291"><ele>2.0</ele><time>2026-04-25T15:12:01.999Z</time></trkpt><trkpt lat="42.43699765867439" lon="11.166487293677108"><ele>2.0</ele><time>2026-04-25T15:12:02.999Z</time></trkpt><trkpt lat="42.43713285863727" lon="11.166666857959118"><ele>2.0</ele><time>2026-04-25T15:12:03.999Z</time></trkpt><trkpt lat="42.437278887755646" lon="11.166851304046729"><ele>2.0</ele><time>2026-04-25T15:12:04.999Z</time></trkpt><trkpt lat="42.43743753411866" lon="11.167021126706318"><ele>2.0</ele><time>2026-04-25T15:12:05.999Z</time></trkpt><trkpt lat="42.43758374047937" lon="11.167210846685478"><ele>2.0</ele><time>2026-04-25T15:12:06.999Z</time></trkpt><trkpt lat="42.437718219443035" lon="11.167403306871032"><ele>2.0</ele><time>2026-04-25T15:12:07.999Z</time></trkpt><trkpt lat="42.43783962412998" lon="11.167556182209642"><ele>2.0</ele><time>2026-04-25T15:12:08.999Z</time></trkpt><trkpt lat="42.43795252479195" lon="11.167700779023738"><ele>2.6666666666666665</ele><time>2026-04-25T15:12:09.999Z</time></trkpt><trkpt lat="42.43807345558328" lon="11.167847019843727"><ele>3.333333333333333</ele><time>2026-04-25T15:12:10.999Z</time></trkpt><trkpt lat="42.43820741934196" lon="11.167993235786303"><ele>4.0</ele><time>2026-04-25T15:12:11.999Z</time></trkpt><trkpt lat="42.438342433085054" lon="11.168132395582616"><ele>4.0</ele><time>2026-04-25T15:12:12.999Z</time></trkpt><trkpt lat="42.438483057636425" lon="11.16827493011261"><ele>4.0</ele><time>2026-04-25T15:12:13.999Z</time></trkpt><trkpt lat="42.43862327720268" lon="11.168414923000746"><ele>4.0</ele><time>2026-04-25T15:12:14.999Z</time></trkpt><trkpt lat="42.43876824105037" lon="11.168556699592749"><ele>3.6666666666666665</ele><time>2026-04-25T15:12:15.999Z</time></trkpt><trkpt lat="42.438911494845634" lon="11.168695711771885"><ele>3.333333333333333</ele><time>2026-04-25T15:12:16.999Z</time></trkpt><trkpt lat="42.43906112268079" lon="11.168839877613374"><ele>3.0</ele><time>2026-04-25T15:12:17.999Z</time></trkpt><trkpt lat="42.439209332849394" lon="11.16898130255885"><ele>3.0</ele><time>2026-04-25T15:12:18.999Z</time></trkpt><trkpt lat="42.43937047900417" lon="11.169134945583535"><ele>3.0</ele><time>2026-04-25T15:12:19.999Z</time></trkpt><trkpt lat="42.4395241048109" lon="11.169284120118979"><ele>3.0</ele><time>2026-04-25T15:12:20.999Z</time></trkpt><trkpt lat="42.439672944537364" lon="11.169429761464292"><ele>2.6666666666666665</ele><time>2026-04-25T15:12:21.999Z</time></trkpt><trkpt lat="42.439826629123516" lon="11.169580534107286"><ele>2.333333333333333</ele><time>2026-04-25T15:12:22.999Z</time></trkpt><trkpt lat="42.43997188860275" lon="11.169720998065912"><ele>2.0</ele><time>2026-04-25T15:12:23.999Z</time></trkpt><trkpt lat="42.44010226765467" lon="11.169846638111201"><ele>1.6666666666666665</ele><time>2026-04-25T15:12:24.999Z</time></trkpt><trkpt lat="42.44023191806911" lon="11.169971577450955"><ele>1.3333333333333333</ele><time>2026-04-25T15:12:25.999Z</time></trkpt><trkpt lat="42.44036388031203" lon="11.170098743030177"><ele>1.0</ele><time>2026-04-25T15:12:26.999Z</time></trkpt><trkpt lat="42.440491865790435" lon="11.170222076524562"><ele>1.0</ele><time>2026-04-25T15:12:27.999Z</time></trkpt><trkpt lat="42.4406053926418" lon="11.170331476812608"><ele>1.0</ele><time>2026-04-25T15:12:28.999Z</time></trkpt><trkpt lat="42.44071383205209" lon="11.17043597450005"><ele>1.0</ele><time>2026-04-25T15:12:29.999Z</time></trkpt><trkpt lat="42.44082895365973" lon="11.170546884979393"><ele>1.0</ele><time>2026-04-25T15:12:30.999Z</time></trkpt><trkpt lat="42.44095403709217" lon="11.170667911547726"><ele>1.0</ele><time>2026-04-25T15:12:31.999Z</time></trkpt><trkpt lat="42.44108646114509" lon="11.1707964477482"><ele>1.0</ele><time>2026-04-25T15:12:32.999Z</time></trkpt><trkpt lat="42.44122434690989" lon="11.170930284881619"><ele>1.0</ele><time>2026-04-25T15:12:33.999Z</time></trkpt><trkpt lat="42.44137479733934" lon="11.171076317911517"><ele>1.0</ele><time>2026-04-25T15:12:34.999Z</time></trkpt><trkpt lat="42.441514642129" lon="11.171211987494727"><ele>1.0</ele><time>2026-04-25T15:12:35.999Z</time></trkpt><trkpt lat="42.441659489694835" lon="11.171353315886343"><ele>1.0</ele><time>2026-04-25T15:12:36.999Z</time></trkpt><trkpt lat="42.44179862923041" lon="11.171489174475608"><ele>1.3333333333333333</ele><time>2026-04-25T15:12:37.999Z</time></trkpt><trkpt lat="42.44194338380151" lon="11.171629825250431"><ele>1.6666666666666665</ele><time>2026-04-25T15:12:38.999Z</time></trkpt><trkpt lat="42.442090666263276" lon="11.171772932294834"><ele>2.0</ele><time>2026-04-25T15:12:39.999Z</time></trkpt><trkpt lat="42.442242275351944" lon="11.171920139501076"><ele>2.0</ele><time>2026-04-25T15:12:40.998Z</time></trkpt><trkpt lat="42.44239940728844" lon="11.172072616755717"><ele>2.0</ele><time>2026-04-25T15:12:41.998Z</time></trkpt><trkpt lat="42.442554491690935" lon="11.172223107182043"><ele>2.0</ele><time>2026-04-25T15:12:42.998Z</time></trkpt><trkpt lat="42.44270676294479" lon="11.172370867764466"><ele>2.0</ele><time>2026-04-25T15:12:43.998Z</time></trkpt><trkpt lat="42.44286125724896" lon="11.172521298862819"><ele>2.0</ele><time>2026-04-25T15:12:44.998Z</time></trkpt><trkpt lat="42.44300932888263" lon="11.172666270268993"><ele>2.0</ele><time>2026-04-25T15:12:45.998Z</time></trkpt><trkpt lat="42.44315564184148" lon="11.17280951986038"><ele>2.6666666666666665</ele><time>2026-04-25T15:12:46.998Z</time></trkpt><trkpt lat="42.44330221575832" lon="11.172953024871342"><ele>3.333333333333333</ele><time>2026-04-25T15:12:47.998Z</time></trkpt><trkpt lat="42.443445230072015" lon="11.173093304845304"><ele>4.0</ele><time>2026-04-25T15:12:48.998Z</time></trkpt><trkpt lat="42.443591307065475" lon="11.17323601417598"><ele>4.333333333333333</ele><time>2026-04-25T15:12:49.998Z</time></trkpt><trkpt lat="42.443733425191766" lon="11.17337475482775"><ele>4.666666666666667</ele><time>2026-04-25T15:12:50.998Z</time></trkpt><trkpt lat="42.44387588225288" lon="11.173513254857895"><ele>5.0</ele><time>2026-04-25T15:12:52Z</time></trkpt><trkpt lat="42.444020493038" lon="11.173653840014861"><ele>5.0</ele><time>2026-04-25T15:12:53Z</time></trkpt><trkpt lat="42.44416214206478" lon="11.1737914785927"><ele>5.0</ele><time>2026-04-25T15:12:54Z</time></trkpt><trkpt lat="42.44430420938944" lon="11.173928621135365"><ele>5.0</ele><time>2026-04-25T15:12:55Z</time></trkpt><trkpt lat="42.444430916025425" lon="11.174050935500489"><ele>5.333333333333334</ele><time>2026-04-25T15:12:56Z</time></trkpt><trkpt lat="42.44456177886693" lon="11.17417480289329"><ele>5.666666666666667</ele><time>2026-04-25T15:12:57Z</time></trkpt><trkpt lat="42.444691636216234" lon="11.174295738332292"><ele>6.0</ele><time>2026-04-25T15:12:58Z</time></trkpt><trkpt lat="42.4448222367166" lon="11.174409121252308"><ele>4.666666666666667</ele><time>2026-04-25T15:12:59Z</time></trkpt><trkpt lat="42.444956528766866" lon="11.1745196092063"><ele>3.333333333333333</ele><time>2026-04-25T15:13:00Z</time></trkpt><trkpt lat="42.445089998878316" lon="11.1746277483549"><ele>2.0</ele><time>2026-04-25T15:13:01Z</time></trkpt><trkpt lat="42.44523078877029" lon="11.17473844642519"><ele>2.333333333333333</ele><time>2026-04-25T15:13:02Z</time></trkpt><trkpt lat="42.445378517586974" lon="11.17485460024066"><ele>2.6666666666666665</ele><time>2026-04-25T15:13:03Z</time></trkpt><trkpt lat="42.44552672751069" lon="11.174971947246302"><ele>3.0</ele><time>2026-04-25T15:13:04Z</time></trkpt><trkpt lat="42.44568602834933" lon="11.175099000409341"><ele>3.333333333333333</ele><time>2026-04-25T15:13:05Z</time></trkpt><trkpt lat="42.445846826126555" lon="11.175226704927123"><ele>3.6666666666666665</ele><time>2026-04-25T15:13:06Z</time></trkpt><trkpt lat="42.44602380775683" lon="11.175366686216098"><ele>4.0</ele><time>2026-04-25T15:13:07Z</time></trkpt><trkpt lat="42.44620372913857" lon="11.175508422479915"><ele>3.6666666666666665</ele><time>2026-04-25T15:13:08Z</time></trkpt><trkpt lat="42.44638661819859" lon="11.175652956819254"><ele>3.333333333333333</ele><time>2026-04-25T15:13:09Z</time></trkpt><trkpt lat="42.44658032944865" lon="11.175785241266059"><ele>3.0</ele><time>2026-04-25T15:13:10Z</time></trkpt><trkpt lat="42.44676939061684" lon="11.175959314713895"><ele>3.5</ele><time>2026-04-25T15:13:11Z</time></trkpt><trkpt lat="42.44696694866103" lon="11.176118172848682"><ele>4.0</ele><time>2026-04-25T15:13:12Z</time></trkpt><trkpt lat="42.447168430481376" lon="11.176279662427573"><ele>4.0</ele><time>2026-04-25T15:13:13Z</time></trkpt><trkpt lat="42.44736915443502" lon="11.176439315216253"><ele>4.0</ele><time>2026-04-25T15:13:14Z</time></trkpt><trkpt lat="42.447569469956164" lon="11.176597594118409"><ele>3.0</ele><time>2026-04-25T15:13:15Z</time></trkpt><trkpt lat="42.44777282863531" lon="11.176761880316331"><ele>2.0</ele><time>2026-04-25T15:13:16Z</time></trkpt><trkpt lat="42.44798160192924" lon="11.176905358225731"><ele>2.0</ele><time>2026-04-25T15:13:17Z</time></trkpt><trkpt lat="42.44817686080058" lon="11.177064537590596"><ele>2.0</ele><time>2026-04-25T15:13:18Z</time></trkpt><trkpt lat="42.448367537941685" lon="11.177218390695394"><ele>2.0</ele><time>2026-04-25T15:13:19Z</time></trkpt><trkpt lat="42.44855283077044" lon="11.177364285142588"><ele>2.0</ele><time>2026-04-25T15:13:20Z</time></trkpt><trkpt lat="42.44874038849822" lon="11.177514605199342"><ele>2.0</ele><time>2026-04-25T15:13:21Z</time></trkpt><trkpt lat="42.44892879969914" lon="11.177668075156475"><ele>2.0</ele><time>2026-04-25T15:13:22Z</time></trkpt><trkpt lat="42.44911584892395" lon="11.177818384731346"><ele>2.0</ele><time>2026-04-25T15:13:23Z</time></trkpt><trkpt lat="42.44930396168355" lon="11.177968460456514"><ele>2.0</ele><time>2026-04-25T15:13:24Z</time></trkpt><trkpt lat="42.44949186544463" lon="11.178117563791696"><ele>1.6666666666666665</ele><time>2026-04-25T15:13:25Z</time></trkpt><trkpt lat="42.44968114104609" lon="11.178268902069481"><ele>1.3333333333333333</ele><time>2026-04-25T15:13:26Z</time></trkpt><trkpt lat="42.44987168936159" lon="11.178422436743196"><ele>1.0</ele><time>2026-04-25T15:13:27Z</time></trkpt><trkpt lat="42.450059112444194" lon="11.178570210041695"><ele>1.0</ele><time>2026-04-25T15:13:28Z</time></trkpt><trkpt lat="42.45024463239744" lon="11.178718953938228"><ele>1.0</ele><time>2026-04-25T15:13:29Z</time></trkpt><trkpt lat="42.45043012127167" lon="11.178867765905927"><ele>1.0</ele><time>2026-04-25T15:13:30Z</time></trkpt><trkpt lat="42.450615382885054" lon="11.179009322488211"><ele>0.6666666666666666</ele><time>2026-04-25T15:13:31Z</time></trkpt><trkpt lat="42.45080310655629" lon="11.179143416216647"><ele>0.3333333333333333</ele><time>2026-04-25T15:13:32Z</time></trkpt><trkpt lat="42.45099529770852" lon="11.17927498290781"><ele>0.0</ele><time>2026-04-25T15:13:32.999Z</time></trkpt><trkpt lat="42.45118822710589" lon="11.179408931172276"><ele>1.0</ele><time>2026-04-25T15:13:33.999Z</time></trkpt><trkpt lat="42.45138071797654" lon="11.179543981111031"><ele>2.0</ele><time>2026-04-25T15:13:34.999Z</time></trkpt><trkpt lat="42.45157637426244" lon="11.179680371585064"><ele>3.0</ele><time>2026-04-25T15:13:35.999Z</time></trkpt><trkpt lat="42.451770598107004" lon="11.179817774383181"><ele>2.3333333333333335</ele><time>2026-04-25T15:13:36.999Z</time></trkpt><trkpt lat="42.45196666521439" lon="11.17995415201612"><ele>1.6666666666666665</ele><time>2026-04-25T15:13:37.999Z</time></trkpt><trkpt lat="42.45216128731365" lon="11.180091759975632"><ele>1.0</ele><time>2026-04-25T15:13:38.999Z</time></trkpt><trkpt lat="42.4523579695862" lon="11.18022721358168"><ele>1.0</ele><time>2026-04-25T15:13:39.999Z</time></trkpt><trkpt lat="42.45254519306804" lon="11.180381036185704"><ele>1.0</ele><time>2026-04-25T15:13:40.999Z</time></trkpt><trkpt lat="42.45273721307518" lon="11.18051578611726"><ele>1.0</ele><time>2026-04-25T15:13:41.999Z</time></trkpt><trkpt lat="42.45292755469014" lon="11.180649358172062"><ele>1.0</ele><time>2026-04-25T15:13:42.999Z</time></trkpt><trkpt lat="42.45311820300189" lon="11.180779825340203"><ele>1.0</ele><time>2026-04-25T15:13:43.999Z</time></trkpt><trkpt lat="42.45330702494313" lon="11.180905699719222"><ele>1.0</ele><time>2026-04-25T15:13:44.999Z</time></trkpt><trkpt lat="42.4535007770548" lon="11.181004214059534"><ele>1.0</ele><time>2026-04-25T15:13:45.999Z</time></trkpt><trkpt lat="42.453680743229945" lon="11.181137440279699"><ele>1.0</ele><time>2026-04-25T15:13:46.999Z</time></trkpt><trkpt lat="42.45386691900018" lon="11.181252574280467"><ele>1.0</ele><time>2026-04-25T15:13:47.999Z</time></trkpt><trkpt lat="42.454062037663135" lon="11.181370118210227"><ele>0.6666666666666666</ele><time>2026-04-25T15:13:48.999Z</time></trkpt><trkpt lat="42.45426822798461" lon="11.181424656260154"><ele>0.3333333333333333</ele><time>2026-04-25T15:13:49.999Z</time></trkpt><trkpt lat="42.45445474778184" lon="11.181523973819896"><ele>0.0</ele><time>2026-04-25T15:13:50.999Z</time></trkpt><trkpt lat="42.454642017888325" lon="11.18162447592081"><ele>0.0</ele><time>2026-04-25T15:13:51.999Z</time></trkpt><trkpt lat="42.45482851072424" lon="11.181727590571612"><ele>0.0</ele><time>2026-04-25T15:13:52.999Z</time></trkpt><trkpt lat="42.455018464417726" lon="11.181829545518452"><ele>0.0</ele><time>2026-04-25T15:13:53.999Z</time></trkpt><trkpt lat="42.45520227764026" lon="11.181928885803586"><ele>0.0</ele><time>2026-04-25T15:13:54.999Z</time></trkpt><trkpt lat="42.45537211403039" lon="11.18201350697157"><ele>0.0</ele><time>2026-04-25T15:13:55.999Z</time></trkpt><trkpt lat="42.45552917661459" lon="11.182100906697501"><ele>0.0</ele><time>2026-04-25T15:13:56.999Z</time></trkpt><trkpt lat="42.455695203094415" lon="11.182192052854417"><ele>1.0</ele><time>2026-04-25T15:13:57.999Z</time></trkpt><trkpt lat="42.45586332369982" lon="11.182285754205607"><ele>2.0</ele><time>2026-04-25T15:13:58.999Z</time></trkpt><trkpt lat="42.45602551431099" lon="11.182371730169983"><ele>3.0</ele><time>2026-04-25T15:13:59.999Z</time></trkpt><trkpt lat="42.4561973129161" lon="11.182466237518618"><ele>3.666666666666667</ele><time>2026-04-25T15:14:00.999Z</time></trkpt><trkpt lat="42.45636669415408" lon="11.182557749399042"><ele>4.333333333333334</ele><time>2026-04-25T15:14:01.999Z</time></trkpt><trkpt lat="42.45654895266135" lon="11.182654821249349"><ele>5.0</ele><time>2026-04-25T15:14:02.999Z</time></trkpt><trkpt lat="42.45673754066161" lon="11.182759737157225"><ele>5.0</ele><time>2026-04-25T15:14:03.999Z</time></trkpt><trkpt lat="42.45692735208548" lon="11.182865913607126"><ele>5.0</ele><time>2026-04-25T15:14:04.999Z</time></trkpt><trkpt lat="42.4571247714097" lon="11.182969157830216"><ele>5.0</ele><time>2026-04-25T15:14:05.999Z</time></trkpt><trkpt lat="42.457321193250664" lon="11.183063186520874"><ele>5.0</ele><time>2026-04-25T15:14:06.999Z</time></trkpt><trkpt lat="42.457512993387496" lon="11.183150969071809"><ele>5.0</ele><time>2026-04-25T15:14:07.999Z</time></trkpt><trkpt lat="42.45770982667382" lon="11.183243054411681"><ele>5.0</ele><time>2026-04-25T15:14:08.999Z</time></trkpt><trkpt lat="42.457915261465544" lon="11.18333527752732"><ele>4.666666666666667</ele><time>2026-04-25T15:14:09.999Z</time></trkpt><trkpt lat="42.45811919604519" lon="11.183423299717472"><ele>4.333333333333333</ele><time>2026-04-25T15:14:10.999Z</time></trkpt><trkpt lat="42.4583358081064" lon="11.18350778058486"><ele>4.0</ele><time>2026-04-25T15:14:11.999Z</time></trkpt><trkpt lat="42.458541068309856" lon="11.183596726840333"><ele>4.0</ele><time>2026-04-25T15:14:12.999Z</time></trkpt><trkpt lat="42.45874394251204" lon="11.183681783922177"><ele>4.0</ele><time>2026-04-25T15:14:13.999Z</time></trkpt><trkpt lat="42.45895010997478" lon="11.183774180357767"><ele>4.0</ele><time>2026-04-25T15:14:14.999Z</time></trkpt><trkpt lat="42.459153455648575" lon="11.183864940248997"><ele>4.0</ele><time>2026-04-25T15:14:15.999Z</time></trkpt><trkpt lat="42.459367203937255" lon="11.183960919157979"><ele>4.0</ele><time>2026-04-25T15:14:16.999Z</time></trkpt><trkpt lat="42.459586827210224" lon="11.184057970204142"><ele>2.6666666666666665</ele><time>2026-04-25T15:14:17.999Z</time></trkpt><trkpt lat="42.45980838820318" lon="11.1841553567994"><ele>1.3333333333333333</ele><time>2026-04-25T15:14:18.999Z</time></trkpt><trkpt lat="42.45999529250635" lon="11.184248702432082"><ele>0.0</ele><time>2026-04-25T15:14:19.999Z</time></trkpt><trkpt lat="42.46018852783001" lon="11.184333311875742"><ele>0.0</ele><time>2026-04-25T15:14:20.999Z</time></trkpt><trkpt lat="42.46037405688555" lon="11.184411717087517"><ele>0.0</ele><time>2026-04-25T15:14:21.999Z</time></trkpt><trkpt lat="42.46055756072979" lon="11.184495834388427"><ele>0.0</ele><time>2026-04-25T15:14:22.999Z</time></trkpt><trkpt lat="42.46074021078837" lon="11.184579335036059"><ele>0.3333333333333333</ele><time>2026-04-25T15:14:23.999Z</time></trkpt><trkpt lat="42.46092437100027" lon="11.184659468754923"><ele>0.6666666666666666</ele><time>2026-04-25T15:14:24.999Z</time></trkpt><trkpt lat="42.46110897005871" lon="11.184739575707173"><ele>1.0</ele><time>2026-04-25T15:14:25.999Z</time></trkpt><trkpt lat="42.461287959420204" lon="11.184817718136564"><ele>1.0</ele><time>2026-04-25T15:14:26.999Z</time></trkpt><trkpt lat="42.46145860989523" lon="11.184890583262876"><ele>1.0</ele><time>2026-04-25T15:14:27.999Z</time></trkpt><trkpt lat="42.46162255412942" lon="11.184960796171351"><ele>1.0</ele><time>2026-04-25T15:14:28.999Z</time></trkpt><trkpt lat="42.46178558831635" lon="11.185023881233784"><ele>1.0</ele><time>2026-04-25T15:14:29.999Z</time></trkpt><trkpt lat="42.46194501115796" lon="11.185100259368431"><ele>1.0</ele><time>2026-04-25T15:14:30.999Z</time></trkpt><trkpt lat="42.462102786088735" lon="11.185175243233605"><ele>1.0</ele><time>2026-04-25T15:14:31.999Z</time></trkpt><trkpt lat="42.46224030618901" lon="11.185239955222931"><ele>1.0</ele><time>2026-04-25T15:14:32.999Z</time></trkpt><trkpt lat="42.46237837523084" lon="11.185307665116419"><ele>1.0</ele><time>2026-04-25T15:14:33.999Z</time></trkpt><trkpt lat="42.462532197767274" lon="11.185386262609926"><ele>1.0</ele><time>2026-04-25T15:14:34.999Z</time></trkpt><trkpt lat="42.462662003326336" lon="11.185443052712444"><ele>1.0</ele><time>2026-04-25T15:14:35.999Z</time></trkpt><trkpt lat="42.462779834989426" lon="11.185502658627225"><ele>1.0</ele><time>2026-04-25T15:14:36.999Z</time></trkpt><trkpt lat="42.462887116905065" lon="11.185544888826717"><ele>1.0</ele><time>2026-04-25T15:14:37.999Z</time></trkpt><trkpt lat="42.462997815145464" lon="11.185606788033745"><ele>1.0</ele><time>2026-04-25T15:14:38.999Z</time></trkpt><trkpt lat="42.46310720465786" lon="11.185664977257039"><ele>1.0</ele><time>2026-04-25T15:14:39.999Z</time></trkpt><trkpt lat="42.463223115832434" lon="11.185725231654821"><ele>1.0</ele><time>2026-04-25T15:14:40.999Z</time></trkpt><trkpt lat="42.463331697936745" lon="11.185789719384566"><ele>1.0</ele><time>2026-04-25T15:14:41.999Z</time></trkpt><trkpt lat="42.46342940408139" lon="11.185863882236577"><ele>1.0</ele><time>2026-04-25T15:14:42.999Z</time></trkpt><trkpt lat="42.46354894953034" lon="11.185928733001075"><ele>1.0</ele><time>2026-04-25T15:14:43.999Z</time></trkpt><trkpt lat="42.46366779848771" lon="11.185989331619023"><ele>1.0</ele><time>2026-04-25T15:14:44.999Z</time></trkpt><trkpt lat="42.46377515446018" lon="11.18604357679547"><ele>1.0</ele><time>2026-04-25T15:14:45.999Z</time></trkpt><trkpt lat="42.463875423917244" lon="11.186100839102174"><ele>1.0</ele><time>2026-04-25T15:14:46.999Z</time></trkpt><trkpt lat="42.463982486984676" lon="11.186157660158443"><ele>1.0</ele><time>2026-04-25T15:14:47.999Z</time></trkpt><trkpt lat="42.46409902172658" lon="11.186214003012152"><ele>1.25</ele><time>2026-04-25T15:14:48.999Z</time></trkpt><trkpt lat="42.46422030929062" lon="11.18627154930149"><ele>1.5</ele><time>2026-04-25T15:14:49.999Z</time></trkpt><trkpt lat="42.46434238327349" lon="11.186333487466515"><ele>1.75</ele><time>2026-04-25T15:14:50.999Z</time></trkpt><trkpt lat="42.46447192449574" lon="11.186400970265698"><ele>2.0</ele><time>2026-04-25T15:14:51.999Z</time></trkpt><trkpt lat="42.46459816223035" lon="11.186468340331434"><ele>1.75</ele><time>2026-04-25T15:14:52.999Z</time></trkpt><trkpt lat="42.464728722727706" lon="11.186539771051528"><ele>1.5</ele><time>2026-04-25T15:14:53.998Z</time></trkpt><trkpt lat="42.46486898471141" lon="11.186610848360216"><ele>1.25</ele><time>2026-04-25T15:14:54.998Z</time></trkpt><trkpt lat="42.4650197502325" lon="11.186675880585607"><ele>1.0</ele><time>2026-04-25T15:14:55.998Z</time></trkpt><trkpt lat="42.465181728836754" lon="11.186747462819"><ele>1.0</ele><time>2026-04-25T15:14:57Z</time></trkpt><trkpt lat="42.46536528038359" lon="11.186829801993051"><ele>1.0</ele><time>2026-04-25T15:14:58Z</time></trkpt><trkpt lat="42.46555823071687" lon="11.186963616205084"><ele>1.0</ele><time>2026-04-25T15:14:59Z</time></trkpt><trkpt lat="42.46576678009741" lon="11.187068760221747"><ele>1.3333333333333333</ele><time>2026-04-25T15:15:00Z</time></trkpt><trkpt lat="42.465969598138614" lon="11.187151693831538"><ele>1.6666666666666665</ele><time>2026-04-25T15:15:01Z</time></trkpt><trkpt lat="42.466177561260956" lon="11.187256834369345"><ele>2.0</ele><time>2026-04-25T15:15:02Z</time></trkpt><trkpt lat="42.46638386302153" lon="11.187356446685548"><ele>2.333333333333333</ele><time>2026-04-25T15:15:03Z</time></trkpt><trkpt lat="42.46659390035041" lon="11.18745151044688"><ele>2.6666666666666665</ele><time>2026-04-25T15:15:04Z</time></trkpt><trkpt lat="42.46679819825116" lon="11.187541652609166"><ele>3.0</ele><time>2026-04-25T15:15:05Z</time></trkpt><trkpt lat="42.467002832122354" lon="11.18763229883416"><ele>3.333333333333333</ele><time>2026-04-25T15:15:06Z</time></trkpt><trkpt lat="42.467211344155984" lon="11.187721700727161"><ele>3.6666666666666665</ele><time>2026-04-25T15:15:07Z</time></trkpt><trkpt lat="42.46741766802301" lon="11.187798913763187"><ele>4.0</ele><time>2026-04-25T15:15:08Z</time></trkpt><trkpt lat="42.467621491961225" lon="11.1878664082342"><ele>4.0</ele><time>2026-04-25T15:15:09Z</time></trkpt><trkpt lat="42.46782754043056" lon="11.18792367522898"><ele>4.0</ele><time>2026-04-25T15:15:10Z</time></trkpt><trkpt lat="42.46803333959486" lon="11.187977384281044"><ele>4.0</ele><time>2026-04-25T15:15:11Z</time></trkpt><trkpt lat="42.468242158606344" lon="11.188041704148384"><ele>3.6666666666666665</ele><time>2026-04-25T15:15:12Z</time></trkpt><trkpt lat="42.46845469092351" lon="11.188103950643415"><ele>3.333333333333333</ele><time>2026-04-25T15:15:13Z</time></trkpt><trkpt lat="42.468658179087676" lon="11.18816942640065"><ele>3.0</ele><time>2026-04-25T15:15:14Z</time></trkpt><trkpt lat="42.46885604429772" lon="11.188235349330341"><ele>3.0</ele><time>2026-04-25T15:15:15Z</time></trkpt><trkpt lat="42.46905909047988" lon="11.188303821022807"><ele>3.0</ele><time>2026-04-25T15:15:16Z</time></trkpt><trkpt lat="42.46927128582118" lon="11.188362919754507"><ele>3.0</ele><time>2026-04-25T15:15:17Z</time></trkpt><trkpt lat="42.46948268933063" lon="11.18842900689722"><ele>3.0</ele><time>2026-04-25T15:15:18Z</time></trkpt><trkpt lat="42.46968542594286" lon="11.188511069500725"><ele>3.0</ele><time>2026-04-25T15:15:19Z</time></trkpt><trkpt lat="42.46988325789216" lon="11.188573463279472"><ele>3.0</ele><time>2026-04-25T15:15:20Z</time></trkpt><trkpt lat="42.47005985362671" lon="11.188631776044922"><ele>3.0</ele><time>2026-04-25T15:15:21Z</time></trkpt><trkpt lat="42.47022418391838" lon="11.188687858577834"><ele>3.0</ele><time>2026-04-25T15:15:22Z</time></trkpt><trkpt lat="42.47039463259471" lon="11.188747051845192"><ele>3.0</ele><time>2026-04-25T15:15:23Z</time></trkpt><trkpt lat="42.47056461856873" lon="11.18880608442473"><ele>3.0</ele><time>2026-04-25T15:15:24Z</time></trkpt><trkpt lat="42.47072574686023" lon="11.188862040915415"><ele>3.0</ele><time>2026-04-25T15:15:25Z</time></trkpt><trkpt lat="42.47088400550697" lon="11.188894560199843"><ele>3.0</ele><time>2026-04-25T15:15:26Z</time></trkpt><trkpt lat="42.471032469394785" lon="11.188969846881898"><ele>3.0</ele><time>2026-04-25T15:15:27Z</time></trkpt><trkpt lat="42.47118922497056" lon="11.18902520250573"><ele>3.0</ele><time>2026-04-25T15:15:28Z</time></trkpt><trkpt lat="42.47134541077905" lon="11.18908035692201"><ele>3.0</ele><time>2026-04-25T15:15:29Z</time></trkpt><trkpt lat="42.47150488906521" lon="11.1891366740266"><ele>3.25</ele><time>2026-04-25T15:15:30Z</time></trkpt><trkpt lat="42.47165302152325" lon="11.18918898454035"><ele>3.5</ele><time>2026-04-25T15:15:31Z</time></trkpt><trkpt lat="42.47179316785984" lon="11.189238474886745"><ele>3.75</ele><time>2026-04-25T15:15:32Z</time></trkpt><trkpt lat="42.47192736834057" lon="11.189286338430684"><ele>4.0</ele><time>2026-04-25T15:15:33Z</time></trkpt><trkpt lat="42.47206268970503" lon="11.18933473548677"><ele>4.333333333333333</ele><time>2026-04-25T15:15:33.999Z</time></trkpt><trkpt lat="42.472208649484735" lon="11.189386255767563"><ele>4.666666666666667</ele><time>2026-04-25T15:15:34.999Z</time></trkpt><trkpt lat="42.47235984209506" lon="11.1894394406156"><ele>5.0</ele><time>2026-04-25T15:15:35.999Z</time></trkpt><trkpt lat="42.47250927415411" lon="11.189492006161856"><ele>5.0</ele><time>2026-04-25T15:15:36.999Z</time></trkpt><trkpt lat="42.472655799366976" lon="11.189543549173477"><ele>5.0</ele><time>2026-04-25T15:15:37.999Z</time></trkpt><trkpt lat="42.47279205279949" lon="11.189591478880832"><ele>5.0</ele><time>2026-04-25T15:15:38.999Z</time></trkpt><trkpt lat="42.472937001219144" lon="11.189642467220219"><ele>5.0</ele><time>2026-04-25T15:15:39.999Z</time></trkpt><trkpt lat="42.47308416513877" lon="11.189694234897763"><ele>5.0</ele><time>2026-04-25T15:15:40.999Z</time></trkpt><trkpt lat="42.47323253770188" lon="11.18974523484793"><ele>5.0</ele><time>2026-04-25T15:15:41.999Z</time></trkpt><trkpt lat="42.473386309953" lon="11.189794095162563"><ele>5.0</ele><time>2026-04-25T15:15:42.999Z</time></trkpt><trkpt lat="42.47354501030271" lon="11.189841498303217"><ele>4.0</ele><time>2026-04-25T15:15:43.999Z</time></trkpt><trkpt lat="42.47370555717736" lon="11.189886894918054"><ele>3.0</ele><time>2026-04-25T15:15:44.999Z</time></trkpt><trkpt lat="42.47387337159588" lon="11.189931951274806"><ele>2.0</ele><time>2026-04-25T15:15:45.999Z</time></trkpt><trkpt lat="42.4740592289415" lon="11.189978080128594"><ele>2.0</ele><time>2026-04-25T15:15:46.999Z</time></trkpt><trkpt lat="42.47425247062341" lon="11.190025264206957"><ele>2.0</ele><time>2026-04-25T15:15:47.999Z</time></trkpt><trkpt lat="42.47446162875643" lon="11.190077748645992"><ele>2.0</ele><time>2026-04-25T15:15:48.999Z</time></trkpt><trkpt lat="42.474671924325534" lon="11.19013077654341"><ele>2.333333333333333</ele><time>2026-04-25T15:15:49.999Z</time></trkpt><trkpt lat="42.4748808944088" lon="11.190183470209252"><ele>2.6666666666666665</ele><time>2026-04-25T15:15:50.999Z</time></trkpt><trkpt lat="42.475101530972545" lon="11.190239105680613"><ele>3.0</ele><time>2026-04-25T15:15:51.999Z</time></trkpt><trkpt lat="42.475322303318734" lon="11.190294775425588"><ele>3.0</ele><time>2026-04-25T15:15:52.999Z</time></trkpt><trkpt lat="42.47554612123955" lon="11.190332502789373"><ele>3.0</ele><time>2026-04-25T15:15:53.999Z</time></trkpt><trkpt lat="42.475749914791415" lon="11.19040034147391"><ele>3.0</ele><time>2026-04-25T15:15:54.999Z</time></trkpt><trkpt lat="42.47595213407554" lon="11.190450458165065"><ele>3.0</ele><time>2026-04-25T15:15:55.999Z</time></trkpt><trkpt lat="42.47616196447441" lon="11.190502852109722"><ele>3.0</ele><time>2026-04-25T15:15:56.999Z</time></trkpt><trkpt lat="42.47637155707032" lon="11.190538930617162"><ele>3.0</ele><time>2026-04-25T15:15:57.999Z</time></trkpt><trkpt lat="42.47658128229156" lon="11.190597417839774"><ele>3.0</ele><time>2026-04-25T15:15:58.999Z</time></trkpt><trkpt lat="42.47679739004174" lon="11.190648732968931"><ele>3.0</ele><time>2026-04-25T15:15:59.999Z</time></trkpt><trkpt lat="42.47700695184635" lon="11.190703378325878"><ele>3.0</ele><time>2026-04-25T15:16:00.999Z</time></trkpt><trkpt lat="42.47721874829879" lon="11.190755369003854"><ele>3.333333333333333</ele><time>2026-04-25T15:16:01.999Z</time></trkpt><trkpt lat="42.477432543989515" lon="11.19081632009514"><ele>3.6666666666666665</ele><time>2026-04-25T15:16:02.999Z</time></trkpt><trkpt lat="42.47765007672085" lon="11.190874451148353"><ele>4.0</ele><time>2026-04-25T15:16:03.999Z</time></trkpt><trkpt lat="42.47786903827433" lon="11.190924489888856"><ele>4.666666666666666</ele><time>2026-04-25T15:16:04.999Z</time></trkpt><trkpt lat="42.47808467981362" lon="11.190977352985687"><ele>5.333333333333333</ele><time>2026-04-25T15:16:05.999Z</time></trkpt><trkpt lat="42.47829629314391" lon="11.191028810446914"><ele>6.0</ele><time>2026-04-25T15:16:06.999Z</time></trkpt><trkpt lat="42.47850952896028" lon="11.191080593448943"><ele>6.0</ele><time>2026-04-25T15:16:07.999Z</time></trkpt><trkpt lat="42.47872181503323" lon="11.191132506684307"><ele>6.0</ele><time>2026-04-25T15:16:08.999Z</time></trkpt><trkpt lat="42.47893720618376" lon="11.191184593702175"><ele>6.0</ele><time>2026-04-25T15:16:09.999Z</time></trkpt><trkpt lat="42.47915084298583" lon="11.191241165117269"><ele>6.0</ele><time>2026-04-25T15:16:10.999Z</time></trkpt><trkpt lat="42.47936691607293" lon="11.191294176253482"><ele>6.0</ele><time>2026-04-25T15:16:11.999Z</time></trkpt><trkpt lat="42.47958839469341" lon="11.191353266845436"><ele>6.0</ele><time>2026-04-25T15:16:12.999Z</time></trkpt><trkpt lat="42.47981246110702" lon="11.191410831595576"><ele>6.0</ele><time>2026-04-25T15:16:13.999Z</time></trkpt><trkpt lat="42.48003424831928" lon="11.191456560147419"><ele>6.0</ele><time>2026-04-25T15:16:14.999Z</time></trkpt><trkpt lat="42.48025680058319" lon="11.191511800885158"><ele>5.5</ele><time>2026-04-25T15:16:15.999Z</time></trkpt><trkpt lat="42.48048289647493" lon="11.19157457742627"><ele>5.0</ele><time>2026-04-25T15:16:16.999Z</time></trkpt><trkpt lat="42.48070407020255" lon="11.191630696076665"><ele>5.0</ele><time>2026-04-25T15:16:17.999Z</time></trkpt><trkpt lat="42.48093309907877" lon="11.191695116735433"><ele>5.0</ele><time>2026-04-25T15:16:18.999Z</time></trkpt><trkpt lat="42.48116577156383" lon="11.191756943374168"><ele>5.0</ele><time>2026-04-25T15:16:19.999Z</time></trkpt><trkpt lat="42.48137183309295" lon="11.191809269260846"><ele>5.0</ele><time>2026-04-25T15:16:20.999Z</time></trkpt><trkpt lat="42.48159223892305" lon="11.191864053360836"><ele>5.0</ele><time>2026-04-25T15:16:21.999Z</time></trkpt><trkpt lat="42.48180906068121" lon="11.191919720619575"><ele>5.0</ele><time>2026-04-25T15:16:22.999Z</time></trkpt><trkpt lat="42.482028080836464" lon="11.191975560981394"><ele>5.0</ele><time>2026-04-25T15:16:23.999Z</time></trkpt><trkpt lat="42.48223987625416" lon="11.192028398591283"><ele>5.0</ele><time>2026-04-25T15:16:24.999Z</time></trkpt><trkpt lat="42.48245428425346" lon="11.192082701656014"><ele>5.666666666666667</ele><time>2026-04-25T15:16:25.999Z</time></trkpt><trkpt lat="42.48267167816059" lon="11.192138439328708"><ele>6.333333333333334</ele><time>2026-04-25T15:16:26.999Z</time></trkpt><trkpt lat="42.482881018714544" lon="11.192190923944874"><ele>7.0</ele><time>2026-04-25T15:16:27.999Z</time></trkpt><trkpt lat="42.48310222685311" lon="11.192248878413025"><ele>7.0</ele><time>2026-04-25T15:16:28.999Z</time></trkpt><trkpt lat="42.483317047086025" lon="11.192304157360153"><ele>7.0</ele><time>2026-04-25T15:16:29.999Z</time></trkpt><trkpt lat="42.483521916983854" lon="11.192353784196163"><ele>7.0</ele><time>2026-04-25T15:16:30.999Z</time></trkpt><trkpt lat="42.48372991725726" lon="11.19240927491817"><ele>6.0</ele><time>2026-04-25T15:16:31.999Z</time></trkpt><trkpt lat="42.483929655525415" lon="11.192462771741887"><ele>5.0</ele><time>2026-04-25T15:16:32.999Z</time></trkpt><trkpt lat="42.484125227984734" lon="11.192516251658466"><ele>4.0</ele><time>2026-04-25T15:16:33.999Z</time></trkpt><trkpt lat="42.48432597342719" lon="11.192572429746994"><ele>4.0</ele><time>2026-04-25T15:16:34.999Z</time></trkpt><trkpt lat="42.48452862637785" lon="11.192627673127863"><ele>4.0</ele><time>2026-04-25T15:16:35.999Z</time></trkpt><trkpt lat="42.4847280940065" lon="11.192688769223397"><ele>4.0</ele><time>2026-04-25T15:16:36.999Z</time></trkpt><trkpt lat="42.48491528099028" lon="11.192755264475913"><ele>4.333333333333333</ele><time>2026-04-25T15:16:37.999Z</time></trkpt><trkpt lat="42.48510084116808" lon="11.192823215666943"><ele>4.666666666666667</ele><time>2026-04-25T15:16:38.999Z</time></trkpt><trkpt lat="42.48527861201009" lon="11.19288540114444"><ele>5.0</ele><time>2026-04-25T15:16:39.999Z</time></trkpt><trkpt lat="42.48545554319489" lon="11.192943574600964"><ele>6.0</ele><time>2026-04-25T15:16:40.999Z</time></trkpt><trkpt lat="42.485630824934624" lon="11.192992463402826"><ele>7.0</ele><time>2026-04-25T15:16:41.999Z</time></trkpt><trkpt lat="42.48583293423746" lon="11.193030644090463"><ele>8.0</ele><time>2026-04-25T15:16:42.999Z</time></trkpt><trkpt lat="42.48604741068931" lon="11.193063767151017"><ele>6.5</ele><time>2026-04-25T15:16:43.999Z</time></trkpt><trkpt lat="42.48627520073894" lon="11.193101025886667"><ele>5.0</ele><time>2026-04-25T15:16:44.999Z</time></trkpt><trkpt lat="42.486519216740376" lon="11.193140655624072"><ele>3.0</ele><time>2026-04-25T15:16:45.999Z</time></trkpt><trkpt lat="42.48676898991032" lon="11.193181856761356"><ele>1.0</ele><time>2026-04-25T15:16:46.999Z</time></trkpt><trkpt lat="42.48702488791327" lon="11.193224110704113"><ele>1.5</ele><time>2026-04-25T15:16:47.999Z</time></trkpt><trkpt lat="42.487280151336904" lon="11.19324953674909"><ele>2.0</ele><time>2026-04-25T15:16:48.999Z</time></trkpt><trkpt lat="42.48753614059561" lon="11.193306611300462"><ele>2.0</ele><time>2026-04-25T15:16:49.999Z</time></trkpt><trkpt lat="42.487789884808116" lon="11.193354902726306"><ele>2.0</ele><time>2026-04-25T15:16:50.999Z</time></trkpt><trkpt lat="42.48804341958762" lon="11.19338921237491"><ele>3.5</ele><time>2026-04-25T15:16:51.999Z</time></trkpt><trkpt lat="42.48828991010081" lon="11.193434448077731"><ele>5.0</ele><time>2026-04-25T15:16:52.999Z</time></trkpt><trkpt lat="42.48853782236436" lon="11.193475090613099"><ele>5.0</ele><time>2026-04-25T15:16:53.999Z</time></trkpt><trkpt lat="42.48879103277539" lon="11.19351494444842"><ele>5.0</ele><time>2026-04-25T15:16:54.999Z</time></trkpt><trkpt lat="42.4890400071762" lon="11.193554212114632"><ele>5.0</ele><time>2026-04-25T15:16:55.999Z</time></trkpt><trkpt lat="42.489288432111756" lon="11.193604005748897"><ele>5.0</ele><time>2026-04-25T15:16:56.999Z</time></trkpt><trkpt lat="42.48952936693225" lon="11.193645101613495"><ele>5.5</ele><time>2026-04-25T15:16:57.999Z</time></trkpt><trkpt lat="42.48977410720388" lon="11.193684891984763"><ele>6.0</ele><time>2026-04-25T15:16:58.998Z</time></trkpt><trkpt lat="42.490013787751515" lon="11.193736447222092"><ele>6.0</ele><time>2026-04-25T15:16:59.998Z</time></trkpt><trkpt lat="42.490252294215374" lon="11.193787758495137"><ele>6.0</ele><time>2026-04-25T15:17:00.998Z</time></trkpt><trkpt lat="42.490488922368385" lon="11.193828673107909"><ele>6.0</ele><time>2026-04-25T15:17:01.998Z</time></trkpt><trkpt lat="42.49072367757006" lon="11.193867568518357"><ele>6.0</ele><time>2026-04-25T15:17:03Z</time></trkpt><trkpt lat="42.490958906314816" lon="11.193916741487055"><ele>6.0</ele><time>2026-04-25T15:17:04Z</time></trkpt><trkpt lat="42.49119081841604" lon="11.193950672317975"><ele>6.0</ele><time>2026-04-25T15:17:05Z</time></trkpt><trkpt lat="42.491421356081254" lon="11.193989952650895"><ele>5.0</ele><time>2026-04-25T15:17:06Z</time></trkpt><trkpt lat="42.49165424222458" lon="11.194035328526933"><ele>4.0</ele><time>2026-04-25T15:17:07Z</time></trkpt><trkpt lat="42.49188690100314" lon="11.19407859291774"><ele>3.5</ele><time>2026-04-25T15:17:08Z</time></trkpt><trkpt lat="42.49211771416863" lon="11.194116020716859"><ele>3.0</ele><time>2026-04-25T15:17:09Z</time></trkpt><trkpt lat="42.49234826089936" lon="11.194162770305189"><ele>3.0</ele><time>2026-04-25T15:17:10Z</time></trkpt><trkpt lat="42.49257788867448" lon="11.194206225320448"><ele>3.0</ele><time>2026-04-25T15:17:11Z</time></trkpt><trkpt lat="42.49280676634294" lon="11.194245672796267"><ele>3.5</ele><time>2026-04-25T15:17:12Z</time></trkpt><trkpt lat="42.49304219916046" lon="11.194284999178674"><ele>4.0</ele><time>2026-04-25T15:17:13Z</time></trkpt><trkpt lat="42.493276603033564" lon="11.194324979870041"><ele>4.0</ele><time>2026-04-25T15:17:14Z</time></trkpt><trkpt lat="42.49351118002927" lon="11.194358769559976"><ele>4.0</ele><time>2026-04-25T15:17:15Z</time></trkpt><trkpt lat="42.49374565176093" lon="11.194381804259145"><ele>4.0</ele><time>2026-04-25T15:17:16Z</time></trkpt><trkpt lat="42.49397986940465" lon="11.194395199803063"><ele>4.0</ele><time>2026-04-25T15:17:17Z</time></trkpt><trkpt lat="42.49421258588828" lon="11.194412293066877"><ele>4.0</ele><time>2026-04-25T15:17:18Z</time></trkpt><trkpt lat="42.49444453600048" lon="11.194427217308895"><ele>4.0</ele><time>2026-04-25T15:17:19Z</time></trkpt><trkpt lat="42.49468356504531" lon="11.194442099566494"><ele>3.5</ele><time>2026-04-25T15:17:20Z</time></trkpt><trkpt lat="42.494911556553916" lon="11.194464399055535"><ele>3.0</ele><time>2026-04-25T15:17:21Z</time></trkpt><trkpt lat="42.49514835507848" lon="11.194485245902397"><ele>3.0</ele><time>2026-04-25T15:17:22Z</time></trkpt><trkpt lat="42.49538159032454" lon="11.19450143530618"><ele>3.0</ele><time>2026-04-25T15:17:23Z</time></trkpt><trkpt lat="42.49560881237726" lon="11.19452224571234"><ele>3.5</ele><time>2026-04-25T15:17:24Z</time></trkpt><trkpt lat="42.495837430307795" lon="11.194533759044965"><ele>4.0</ele><time>2026-04-25T15:17:25Z</time></trkpt><trkpt lat="42.49606408972314" lon="11.194539898296416"><ele>3.5</ele><time>2026-04-25T15:17:26Z</time></trkpt><trkpt lat="42.496286177368525" lon="11.194540445615871"><ele>3.0</ele><time>2026-04-25T15:17:27Z</time></trkpt><trkpt lat="42.49651359677143" lon="11.194534204999021"><ele>3.0</ele><time>2026-04-25T15:17:28Z</time></trkpt><trkpt lat="42.4967363270903" lon="11.194527544133337"><ele>3.0</ele><time>2026-04-25T15:17:29Z</time></trkpt><trkpt lat="42.49695433189381" lon="11.194517474037069"><ele>3.0</ele><time>2026-04-25T15:17:30Z</time></trkpt><trkpt lat="42.49717396089509" lon="11.194505586049429"><ele>2.5</ele><time>2026-04-25T15:17:31Z</time></trkpt><trkpt lat="42.497399752232745" lon="11.194489695087471"><ele>2.0</ele><time>2026-04-25T15:17:32Z</time></trkpt><trkpt lat="42.49763296744244" lon="11.194466389858338"><ele>2.0</ele><time>2026-04-25T15:17:33Z</time></trkpt><trkpt lat="42.497870467915725" lon="11.194452070598912"><ele>2.0</ele><time>2026-04-25T15:17:34Z</time></trkpt><trkpt lat="42.498110705203" lon="11.194452390575691"><ele>2.0</ele><time>2026-04-25T15:17:35Z</time></trkpt><trkpt lat="42.49834391509111" lon="11.194456584094972"><ele>2.0</ele><time>2026-04-25T15:17:36Z</time></trkpt><trkpt lat="42.49857302391742" lon="11.194459737424955"><ele>3.0</ele><time>2026-04-25T15:17:37Z</time></trkpt><trkpt lat="42.49879544762844" lon="11.194476335972187"><ele>4.0</ele><time>2026-04-25T15:17:38Z</time></trkpt><trkpt lat="42.499033841345685" lon="11.194501721832031"><ele>4.0</ele><time>2026-04-25T15:17:39Z</time></trkpt><trkpt lat="42.49927222545493" lon="11.19454778593852"><ele>4.0</ele><time>2026-04-25T15:17:40Z</time></trkpt><trkpt lat="42.49951045842566" lon="11.194618054559328"><ele>4.0</ele><time>2026-04-25T15:17:41Z</time></trkpt><trkpt lat="42.49973138584584" lon="11.194712081549303"><ele>4.0</ele><time>2026-04-25T15:17:42Z</time></trkpt><trkpt lat="42.49994998491547" lon="11.19482283987924"><ele>2.5</ele><time>2026-04-25T15:17:43Z</time></trkpt><trkpt lat="42.50016286184608" lon="11.194942095220902"><ele>1.0</ele><time>2026-04-25T15:17:44Z</time></trkpt><trkpt lat="42.50037334081075" lon="11.195077583935568"><ele>1.5</ele><time>2026-04-25T15:17:45Z</time></trkpt><trkpt lat="42.50057541585957" lon="11.195231470775077"><ele>2.0</ele><time>2026-04-25T15:17:45.999Z</time></trkpt><trkpt lat="42.5007708680249" lon="11.195397277221604"><ele>2.0</ele><time>2026-04-25T15:17:46.999Z</time></trkpt><trkpt lat="42.50095799185637" lon="11.195571589093486"><ele>2.0</ele><time>2026-04-25T15:17:47.999Z</time></trkpt><trkpt lat="42.50114361032807" lon="11.195769211995147"><ele>1.0</ele><time>2026-04-25T15:17:48.999Z</time></trkpt><trkpt lat="42.5013245852147" lon="11.19598684623197"><ele>0.0</ele><time>2026-04-25T15:17:49.999Z</time></trkpt><trkpt lat="42.50150474426806" lon="11.196227030655916"><ele>0.0</ele><time>2026-04-25T15:17:50.999Z</time></trkpt><trkpt lat="42.50166546934587" lon="11.196457514249554"><ele>0.0</ele><time>2026-04-25T15:17:51.999Z</time></trkpt><trkpt lat="42.5018106584192" lon="11.196667716985075"><ele>0.0</ele><time>2026-04-25T15:17:52.999Z</time></trkpt><trkpt lat="42.50194986019452" lon="11.19686229124167"><ele>-0.3333333333333333</ele><time>2026-04-25T15:17:53.999Z</time></trkpt><trkpt lat="42.502077846905586" lon="11.197037632095437"><ele>-0.6666666666666666</ele><time>2026-04-25T15:17:54.999Z</time></trkpt><trkpt lat="42.50220385156762" lon="11.197208919020042"><ele>-1.0</ele><time>2026-04-25T15:17:55.999Z</time></trkpt><trkpt lat="42.502315538978536" lon="11.197359106674474"><ele>-0.5</ele><time>2026-04-25T15:17:56.999Z</time></trkpt><trkpt lat="42.502421124571995" lon="11.19751242511051"><ele>0.0</ele><time>2026-04-25T15:17:57.999Z</time></trkpt><trkpt lat="42.50250592598888" lon="11.197669018439269"><ele>0.5</ele><time>2026-04-25T15:17:58.999Z</time></trkpt><trkpt lat="42.50256922078794" lon="11.197845446412632"><ele>1.0</ele><time>2026-04-25T15:17:59.999Z</time></trkpt><trkpt lat="42.50257466266841" lon="11.198046192806581"><ele>0.75</ele><time>2026-04-25T15:18:00.999Z</time></trkpt><trkpt lat="42.50260694412736" lon="11.198227345947052"><ele>0.5</ele><time>2026-04-25T15:18:01.999Z</time></trkpt><trkpt lat="42.50259658728459" lon="11.198392972279422"><ele>0.25</ele><time>2026-04-25T15:18:02.999Z</time></trkpt><trkpt lat="42.50257689930974" lon="11.198537190931884"><ele>0.0</ele><time>2026-04-25T15:18:03.999Z</time></trkpt><trkpt lat="42.502547849932185" lon="11.198670321369574"><ele>0.0</ele><time>2026-04-25T15:18:04.999Z</time></trkpt><trkpt lat="42.50250729252283" lon="11.198819388280908"><ele>0.0</ele><time>2026-04-25T15:18:05.999Z</time></trkpt><trkpt lat="42.50245692645566" lon="11.198976781514508"><ele>0.0</ele><time>2026-04-25T15:18:06.999Z</time></trkpt><trkpt lat="42.50239898884969" lon="11.199143182151667"><ele>0.0</ele><time>2026-04-25T15:18:07.999Z</time></trkpt><trkpt lat="42.502345859879036" lon="11.199282417002465"><ele>0.16666666666666666</ele><time>2026-04-25T15:18:08.999Z</time></trkpt><trkpt lat="42.50230315585751" lon="11.199400491241494"><ele>0.3333333333333333</ele><time>2026-04-25T15:18:09.999Z</time></trkpt><trkpt lat="42.502266580682864" lon="11.199509774513633"><ele>0.5</ele><time>2026-04-25T15:18:10.999Z</time></trkpt><trkpt lat="42.502233970630364" lon="11.199618277095352"><ele>0.6666666666666666</ele><time>2026-04-25T15:18:11.999Z</time></trkpt><trkpt lat="42.502202156058324" lon="11.199717320753997"><ele>0.8333333333333333</ele><time>2026-04-25T15:18:12.999Z</time></trkpt><trkpt lat="42.50217109334309" lon="11.199822419448747"><ele>1.0</ele><time>2026-04-25T15:18:13.999Z</time></trkpt><trkpt lat="42.50213702109084" lon="11.199933149034834"><ele>1.0</ele><time>2026-04-25T15:18:14.999Z</time></trkpt><trkpt lat="42.50210059104965" lon="11.200049411845166"><ele>1.0</ele><time>2026-04-25T15:18:15.999Z</time></trkpt><trkpt lat="42.50205682741283" lon="11.200182156873089"><ele>1.0</ele><time>2026-04-25T15:18:16.999Z</time></trkpt><trkpt lat="42.502032873046225" lon="11.200308609755739"><ele>1.0</ele><time>2026-04-25T15:18:17.999Z</time></trkpt><trkpt lat="42.5020128619771" lon="11.200418621937535"><ele>1.0</ele><time>2026-04-25T15:18:18.999Z</time></trkpt><trkpt lat="42.50192551707496" lon="11.200516594695664"><ele>1.0</ele><time>2026-04-25T15:18:19.999Z</time></trkpt><trkpt lat="42.50187809784602" lon="11.200644231122569"><ele>1.0</ele><time>2026-04-25T15:18:20.999Z</time></trkpt><trkpt lat="42.50183781316968" lon="11.200781770673643"><ele>1.0</ele><time>2026-04-25T15:18:21.999Z</time></trkpt><trkpt lat="42.50180634751977" lon="11.20092566320059"><ele>1.0</ele><time>2026-04-25T15:18:22.999Z</time></trkpt><trkpt lat="42.50180038215904" lon="11.201064423594127"><ele>1.0</ele><time>2026-04-25T15:18:23.999Z</time></trkpt><trkpt lat="42.501807308085105" lon="11.201200278583615"><ele>1.0</ele><time>2026-04-25T15:18:24.999Z</time></trkpt><trkpt lat="42.50183039342751" lon="11.201326728623142"><ele>1.0</ele><time>2026-04-25T15:18:25.999Z</time></trkpt><trkpt lat="42.50186526920409" lon="11.201433143631501"><ele>1.0</ele><time>2026-04-25T15:18:26.999Z</time></trkpt><trkpt lat="42.5019101227495" lon="11.201533649132978"><ele>1.0</ele><time>2026-04-25T15:18:27.999Z</time></trkpt><trkpt lat="42.50196200004941" lon="11.20164321526629"><ele>1.0</ele><time>2026-04-25T15:18:28.999Z</time></trkpt><trkpt lat="42.502018574885156" lon="11.201762337068965"><ele>0.8</ele><time>2026-04-25T15:18:29.999Z</time></trkpt><trkpt lat="42.50207495041327" lon="11.201878086584472"><ele>0.6000000000000001</ele><time>2026-04-25T15:18:30.999Z</time></trkpt><trkpt lat="42.50213705364697" lon="11.202004383256318"><ele>0.4</ele><time>2026-04-25T15:18:31.999Z</time></trkpt><trkpt lat="42.50219116281332" lon="11.202124363206645"><ele>0.2</ele><time>2026-04-25T15:18:32.999Z</time></trkpt><trkpt lat="42.502244338659004" lon="11.202236070854497"><ele>0.0</ele><time>2026-04-25T15:18:33.999Z</time></trkpt><trkpt lat="42.502297683851545" lon="11.202346324261166"><ele>0.4</ele><time>2026-04-25T15:18:34.999Z</time></trkpt><trkpt lat="42.50234139370924" lon="11.202432964639254"><ele>0.8</ele><time>2026-04-25T15:18:35.999Z</time></trkpt><trkpt lat="42.502390463372706" lon="11.202545465130369"><ele>1.2000000000000002</ele><time>2026-04-25T15:18:36.999Z</time></trkpt><trkpt lat="42.50243983150722" lon="11.202661210609909"><ele>1.6</ele><time>2026-04-25T15:18:37.999Z</time></trkpt><trkpt lat="42.502488841632896" lon="11.202786680209067"><ele>2.0</ele><time>2026-04-25T15:18:38.999Z</time></trkpt><trkpt lat="42.50254644317662" lon="11.202920194748101"><ele>2.0</ele><time>2026-04-25T15:18:39.999Z</time></trkpt><trkpt lat="42.50260997747357" lon="11.203056776543042"><ele>2.0</ele><time>2026-04-25T15:18:40.999Z</time></trkpt><trkpt lat="42.50267049070157" lon="11.203186472308467"><ele>2.0</ele><time>2026-04-25T15:18:41.999Z</time></trkpt><trkpt lat="42.50272493021976" lon="11.203302595675776"><ele>2.0</ele><time>2026-04-25T15:18:42.999Z</time></trkpt><trkpt lat="42.50275222263456" lon="11.203439390084016"><ele>2.0</ele><time>2026-04-25T15:18:43.999Z</time></trkpt><trkpt lat="42.50276196848054" lon="11.203581267947438"><ele>1.8</ele><time>2026-04-25T15:18:44.999Z</time></trkpt><trkpt lat="42.502760885316064" lon="11.203725388506504"><ele>1.6</ele><time>2026-04-25T15:18:45.999Z</time></trkpt><trkpt lat="42.50272220295737" lon="11.20385831389725"><ele>1.4000000000000001</ele><time>2026-04-25T15:18:46.999Z</time></trkpt><trkpt lat="42.50267131340148" lon="11.203973216147206"><ele>1.2000000000000002</ele><time>2026-04-25T15:18:47.999Z</time></trkpt><trkpt lat="42.5026094431069" lon="11.20407702530276"><ele>1.0</ele><time>2026-04-25T15:18:48.999Z</time></trkpt><trkpt lat="42.502531077388475" lon="11.204159853529058"><ele>0.8</ele><time>2026-04-25T15:18:49.999Z</time></trkpt><trkpt lat="42.50244077025777" lon="11.204215905726876"><ele>0.6000000000000001</ele><time>2026-04-25T15:18:50.999Z</time></trkpt><trkpt lat="42.50234402669849" lon="11.20425036813599"><ele>0.4</ele><time>2026-04-25T15:18:51.999Z</time></trkpt><trkpt lat="42.50224408773511" lon="11.204262789869286"><ele>0.2</ele><time>2026-04-25T15:18:52.999Z</time></trkpt><trkpt lat="42.50215213852863" lon="11.204248737017798"><ele>0.0</ele><time>2026-04-25T15:18:53.999Z</time></trkpt><trkpt lat="42.50205103064331" lon="11.204203329008774"><ele>-0.2</ele><time>2026-04-25T15:18:54.999Z</time></trkpt><trkpt lat="42.5019585715908" lon="11.204130647972049"><ele>-0.4</ele><time>2026-04-25T15:18:55.999Z</time></trkpt><trkpt lat="42.50186081566241" lon="11.204057642496554"><ele>-0.6000000000000001</ele><time>2026-04-25T15:18:56.999Z</time></trkpt><trkpt lat="42.50181758532237" lon="11.203915477904841"><ele>-0.8</ele><time>2026-04-25T15:18:57.999Z</time></trkpt><trkpt lat="42.50177743275928" lon="11.203796800174096"><ele>-1.0</ele><time>2026-04-25T15:18:58.999Z</time></trkpt><trkpt lat="42.50175921789096" lon="11.203671001471376"><ele>-0.9999999999999999</ele><time>2026-04-25T15:18:59.999Z</time></trkpt><trkpt lat="42.50175476184543" lon="11.203546408289883"><ele>-1.0</ele><time>2026-04-25T15:19:00.999Z</time></trkpt><trkpt lat="42.501765312465864" lon="11.203430566700485"><ele>-1.0</ele><time>2026-04-25T15:19:01.999Z</time></trkpt><trkpt lat="42.50179082470076" lon="11.20333086037189"><ele>-1.0</ele><time>2026-04-25T15:19:02.999Z</time></trkpt><trkpt lat="42.50182779880431" lon="11.203209965744275"><ele>-0.9999999999999999</ele><time>2026-04-25T15:19:03.999Z</time></trkpt><trkpt lat="42.50188058426204" lon="11.203103340133614"><ele>-1.0</ele><time>2026-04-25T15:19:04.999Z</time></trkpt><trkpt lat="42.501949242200816" lon="11.203014273529465"><ele>-0.75</ele><time>2026-04-25T15:19:05.999Z</time></trkpt><trkpt lat="42.50203483906767" lon="11.20293445654635"><ele>-0.5</ele><time>2026-04-25T15:19:06.999Z</time></trkpt><trkpt lat="42.50212560050341" lon="11.202859860721272"><ele>-0.25</ele><time>2026-04-25T15:19:07.999Z</time></trkpt><trkpt lat="42.50222623175261" lon="11.202780068266884"><ele>0.0</ele><time>2026-04-25T15:19:09Z</time></trkpt><trkpt lat="42.50233400548744" lon="11.202684810356718"><ele>0.6666666666666666</ele><time>2026-04-25T15:19:10Z</time></trkpt><trkpt lat="42.50244654801835" lon="11.202580697898343"><ele>1.3333333333333333</ele><time>2026-04-25T15:19:11Z</time></trkpt><trkpt lat="42.502567794633656" lon="11.202472372902426"><ele>2.0</ele><time>2026-04-25T15:19:12Z</time></trkpt><trkpt lat="42.50270973756743" lon="11.202349640855747"><ele>2.0</ele><time>2026-04-25T15:19:13Z</time></trkpt><trkpt lat="42.50285246620936" lon="11.202216128989786"><ele>2.0</ele><time>2026-04-25T15:19:14Z</time></trkpt><trkpt lat="42.50299064911248" lon="11.202097793427724"><ele>2.0</ele><time>2026-04-25T15:19:15Z</time></trkpt><trkpt lat="42.50312648802634" lon="11.2019885437759"><ele>1.6666666666666665</ele><time>2026-04-25T15:19:16Z</time></trkpt><trkpt lat="42.503263208983334" lon="11.201874789406068"><ele>1.3333333333333333</ele><time>2026-04-25T15:19:17Z</time></trkpt><trkpt lat="42.50340971762732" lon="11.201754497712225"><ele>1.0</ele><time>2026-04-25T15:19:18Z</time></trkpt><trkpt lat="42.50356142178495" lon="11.201631050626302"><ele>1.0</ele><time>2026-04-25T15:19:19Z</time></trkpt><trkpt lat="42.50371249364681" lon="11.201511572691317"><ele>1.0</ele><time>2026-04-25T15:19:20Z</time></trkpt><trkpt lat="42.50385795074407" lon="11.201397714672607"><ele>1.0</ele><time>2026-04-25T15:19:21Z</time></trkpt><trkpt lat="42.50399572115845" lon="11.201287874796147"><ele>0.3333333333333333</ele><time>2026-04-25T15:19:22Z</time></trkpt><trkpt lat="42.50413226074452" lon="11.201182834445918"><ele>-0.3333333333333333</ele><time>2026-04-25T15:19:23Z</time></trkpt><trkpt lat="42.50426823615258" lon="11.201084781608484"><ele>-1.0</ele><time>2026-04-25T15:19:24Z</time></trkpt><trkpt lat="42.50440200127888" lon="11.200984991692495"><ele>-1.0</ele><time>2026-04-25T15:19:25Z</time></trkpt><trkpt lat="42.504531995243724" lon="11.200884983497723"><ele>-1.0</ele><time>2026-04-25T15:19:26Z</time></trkpt><trkpt lat="42.50467400194174" lon="11.200774371213047"><ele>-1.0</ele><time>2026-04-25T15:19:27Z</time></trkpt><trkpt lat="42.50480621161413" lon="11.200679533996004"><ele>-0.6666666666666666</ele><time>2026-04-25T15:19:28Z</time></trkpt><trkpt lat="42.50493979453691" lon="11.200583739457851"><ele>-0.3333333333333333</ele><time>2026-04-25T15:19:29Z</time></trkpt><trkpt lat="42.50507942646771" lon="11.200478262028275"><ele>0.0</ele><time>2026-04-25T15:19:30Z</time></trkpt><trkpt lat="42.505206286211454" lon="11.200382109865984"><ele>0.0</ele><time>2026-04-25T15:19:31Z</time></trkpt><trkpt lat="42.50533823413754" lon="11.200285354640993"><ele>0.0</ele><time>2026-04-25T15:19:32Z</time></trkpt><trkpt lat="42.50547249837182" lon="11.20018703856375"><ele>0.0</ele><time>2026-04-25T15:19:33Z</time></trkpt><trkpt lat="42.50560847540359" lon="11.200086066851496"><ele>0.0</ele><time>2026-04-25T15:19:34Z</time></trkpt><trkpt lat="42.50574329472504" lon="11.199985403447124"><ele>0.0</ele><time>2026-04-25T15:19:35Z</time></trkpt><trkpt lat="42.5058776248165" lon="11.199886388637111"><ele>0.0</ele><time>2026-04-25T15:19:36Z</time></trkpt><trkpt lat="42.506005196119304" lon="11.199787241698811"><ele>0.0</ele><time>2026-04-25T15:19:37Z</time></trkpt><trkpt lat="42.50612489717367" lon="11.199691024062817"><ele>0.0</ele><time>2026-04-25T15:19:38Z</time></trkpt><trkpt lat="42.50624687442599" lon="11.199593264779818"><ele>0.0</ele><time>2026-04-25T15:19:39Z</time></trkpt><trkpt lat="42.506366052743864" lon="11.199502237485415"><ele>0.0</ele><time>2026-04-25T15:19:40Z</time></trkpt><trkpt lat="42.506480347097636" lon="11.199413711135826"><ele>0.0</ele><time>2026-04-25T15:19:41Z</time></trkpt><trkpt lat="42.5065985138507" lon="11.19932546182169"><ele>0.0</ele><time>2026-04-25T15:19:42Z</time></trkpt><trkpt lat="42.50671590597386" lon="11.199238632980173"><ele>0.0</ele><time>2026-04-25T15:19:43Z</time></trkpt><trkpt lat="42.50684072853515" lon="11.199149579073545"><ele>0.0</ele><time>2026-04-25T15:19:44Z</time></trkpt><trkpt lat="42.50696313328604" lon="11.19906797036393"><ele>-0.25</ele><time>2026-04-25T15:19:45Z</time></trkpt><trkpt lat="42.507085747552026" lon="11.19897753089171"><ele>-0.5</ele><time>2026-04-25T15:19:46Z</time></trkpt><trkpt lat="42.50720251029313" lon="11.198890668550149"><ele>-0.75</ele><time>2026-04-25T15:19:47Z</time></trkpt><trkpt lat="42.50732486541008" lon="11.198798513197042"><ele>-1.0</ele><time>2026-04-25T15:19:48Z</time></trkpt><trkpt lat="42.50744446056235" lon="11.198708110729722"><ele>-1.0</ele><time>2026-04-25T15:19:49Z</time></trkpt><trkpt lat="42.50757374711545" lon="11.198611574719795"><ele>-1.0</ele><time>2026-04-25T15:19:50Z</time></trkpt><trkpt lat="42.50770155514278" lon="11.198514108977744"><ele>-1.0</ele><time>2026-04-25T15:19:51Z</time></trkpt><trkpt lat="42.507820281838725" lon="11.19842774622071"><ele>-1.0</ele><time>2026-04-25T15:19:52Z</time></trkpt><trkpt lat="42.5079330402074" lon="11.19834792262066"><ele>-0.75</ele><time>2026-04-25T15:19:53Z</time></trkpt><trkpt lat="42.508052074525466" lon="11.198260596957947"><ele>-0.5</ele><time>2026-04-25T15:19:54Z</time></trkpt><trkpt lat="42.50817197153168" lon="11.198169363466471"><ele>-0.25</ele><time>2026-04-25T15:19:55Z</time></trkpt><trkpt lat="42.508285734443525" lon="11.198082785635277"><ele>0.0</ele><time>2026-04-25T15:19:56Z</time></trkpt><trkpt lat="42.508394007661245" lon="11.198003262860391"><ele>0.0</ele><time>2026-04-25T15:19:56.999Z</time></trkpt><trkpt lat="42.508495999776216" lon="11.197930531355555"><ele>0.0</ele><time>2026-04-25T15:19:57.999Z</time></trkpt><trkpt lat="42.508592286580445" lon="11.19786130436495"><ele>0.0</ele><time>2026-04-25T15:19:58.999Z</time></trkpt><trkpt lat="42.508680844280946" lon="11.197793502670782"><ele>0.0</ele><time>2026-04-25T15:19:59.999Z</time></trkpt><trkpt lat="42.5087699849038" lon="11.19773835104306"><ele>0.0</ele><time>2026-04-25T15:20:00.999Z</time></trkpt><trkpt lat="42.50886603693373" lon="11.197703927524108"><ele>0.2</ele><time>2026-04-25T15:20:01.999Z</time></trkpt><trkpt lat="42.50897056517034" lon="11.197702402577926"><ele>0.4</ele><time>2026-04-25T15:20:02.999Z</time></trkpt><trkpt lat="42.509075383105056" lon="11.197742712598874"><ele>0.6000000000000001</ele><time>2026-04-25T15:20:03.999Z</time></trkpt><trkpt lat="42.50917471848488" lon="11.197801345124352"><ele>0.8</ele><time>2026-04-25T15:20:04.999Z</time></trkpt><trkpt lat="42.50927945996426" lon="11.197865782278617"><ele>1.0</ele><time>2026-04-25T15:20:05.999Z</time></trkpt><trkpt lat="42.50938986546115" lon="11.197933013192648"><ele>1.0</ele><time>2026-04-25T15:20:06.999Z</time></trkpt><trkpt lat="42.50949936799033" lon="11.198000202658514"><ele>1.0</ele><time>2026-04-25T15:20:07.999Z</time></trkpt><trkpt lat="42.509611381600656" lon="11.198066296313886"><ele>1.0</ele><time>2026-04-25T15:20:08.999Z</time></trkpt><trkpt lat="42.50972282376549" lon="11.198110010465403"><ele>1.0</ele><time>2026-04-25T15:20:09.999Z</time></trkpt><trkpt lat="42.50983242956129" lon="11.19811734659637"><ele>1.0</ele><time>2026-04-25T15:20:10.999Z</time></trkpt><trkpt lat="42.50994125129508" lon="11.198093587116668"><ele>1.0</ele><time>2026-04-25T15:20:11.999Z</time></trkpt><trkpt lat="42.5100497463155" lon="11.198043329443939"><ele>1.0</ele><time>2026-04-25T15:20:12.999Z</time></trkpt><trkpt lat="42.51015747136264" lon="11.197985917011206"><ele>1.0</ele><time>2026-04-25T15:20:13.999Z</time></trkpt><trkpt lat="42.510266394169896" lon="11.197927930825987"><ele>1.0</ele><time>2026-04-25T15:20:14.999Z</time></trkpt><trkpt lat="42.51035978293479" lon="11.197870182242076"><ele>1.0</ele><time>2026-04-25T15:20:15.999Z</time></trkpt><trkpt lat="42.51043505781055" lon="11.197760704743628"><ele>1.0</ele><time>2026-04-25T15:20:16.999Z</time></trkpt><trkpt lat="42.5104992486075" lon="11.197646672624696"><ele>1.0</ele><time>2026-04-25T15:20:17.999Z</time></trkpt><trkpt lat="42.51055158714368" lon="11.197524193433471"><ele>1.0</ele><time>2026-04-25T15:20:18.999Z</time></trkpt><trkpt lat="42.51060163180219" lon="11.197403043748892"><ele>0.8</ele><time>2026-04-25T15:20:19.999Z</time></trkpt><trkpt lat="42.510659385365585" lon="11.197276299065711"><ele>0.6000000000000001</ele><time>2026-04-25T15:20:20.999Z</time></trkpt><trkpt lat="42.51071749664931" lon="11.197145701934675"><ele>0.4</ele><time>2026-04-25T15:20:21.999Z</time></trkpt><trkpt lat="42.51075509163401" lon="11.197013699999045"><ele>0.2</ele><time>2026-04-25T15:20:22.999Z</time></trkpt><trkpt lat="42.51077613187637" lon="11.196881530345742"><ele>0.0</ele><time>2026-04-25T15:20:23.999Z</time></trkpt><trkpt lat="42.51078712905477" lon="11.196755901344138"><ele>0.0</ele><time>2026-04-25T15:20:24.999Z</time></trkpt><trkpt lat="42.51080150552352" lon="11.19662916083982"><ele>0.0</ele><time>2026-04-25T15:20:25.999Z</time></trkpt><trkpt lat="42.51082713218751" lon="11.196500966447019"><ele>0.0</ele><time>2026-04-25T15:20:26.999Z</time></trkpt><trkpt lat="42.51085505531552" lon="11.19637499540142"><ele>0.0</ele><time>2026-04-25T15:20:27.999Z</time></trkpt><trkpt lat="42.510884141725505" lon="11.196260646477791"><ele>0.0</ele><time>2026-04-25T15:20:28.999Z</time></trkpt><trkpt lat="42.51093186706731" lon="11.19615246659587"><ele>0.2</ele><time>2026-04-25T15:20:29.999Z</time></trkpt><trkpt lat="42.510979681577616" lon="11.196051071414596"><ele>0.4</ele><time>2026-04-25T15:20:30.999Z</time></trkpt><trkpt lat="42.51106925700195" lon="11.195996903290204"><ele>0.6000000000000001</ele><time>2026-04-25T15:20:31.999Z</time></trkpt><trkpt lat="42.51117065545701" lon="11.195953621501218"><ele>0.8</ele><time>2026-04-25T15:20:32.999Z</time></trkpt><trkpt lat="42.51128782502503" lon="11.195890758781895"><ele>1.0</ele><time>2026-04-25T15:20:33.999Z</time></trkpt><trkpt lat="42.51141731363565" lon="11.195806929586867"><ele>1.0</ele><time>2026-04-25T15:20:34.999Z</time></trkpt><trkpt lat="42.51157052673614" lon="11.19570081516788"><ele>1.0</ele><time>2026-04-25T15:20:35.999Z</time></trkpt><trkpt lat="42.511745454909395" lon="11.19558910840857"><ele>1.0</ele><time>2026-04-25T15:20:36.999Z</time></trkpt><trkpt lat="42.511924914806265" lon="11.195499931333206"><ele>1.3333333333333333</ele><time>2026-04-25T15:20:37.999Z</time></trkpt><trkpt lat="42.512113910025775" lon="11.195416410539298"><ele>1.6666666666666665</ele><time>2026-04-25T15:20:38.999Z</time></trkpt><trkpt lat="42.51231352705407" lon="11.195323055241424"><ele>2.0</ele><time>2026-04-25T15:20:39.999Z</time></trkpt><trkpt lat="42.51251973665721" lon="11.195234073997975"><ele>2.0</ele><time>2026-04-25T15:20:40.999Z</time></trkpt><trkpt lat="42.5127150940601" lon="11.195152830044345"><ele>2.0</ele><time>2026-04-25T15:20:41.999Z</time></trkpt><trkpt lat="42.51291400751737" lon="11.19507138054407"><ele>2.0</ele><time>2026-04-25T15:20:42.999Z</time></trkpt><trkpt lat="42.51312066344365" lon="11.194991017443309"><ele>2.0</ele><time>2026-04-25T15:20:43.999Z</time></trkpt><trkpt lat="42.51333062116527" lon="11.19493057232952"><ele>2.0</ele><time>2026-04-25T15:20:44.999Z</time></trkpt><trkpt lat="42.51353979129573" lon="11.19487370788764"><ele>2.0</ele><time>2026-04-25T15:20:45.999Z</time></trkpt><trkpt lat="42.513749730664706" lon="11.194806591307195"><ele>2.333333333333333</ele><time>2026-04-25T15:20:46.999Z</time></trkpt><trkpt lat="42.513968749282455" lon="11.194741114801888"><ele>2.6666666666666665</ele><time>2026-04-25T15:20:47.999Z</time></trkpt><trkpt lat="42.51418785551669" lon="11.19467155238539"><ele>3.0</ele><time>2026-04-25T15:20:48.999Z</time></trkpt><trkpt lat="42.514407885155805" lon="11.194606297902137"><ele>3.333333333333333</ele><time>2026-04-25T15:20:49.999Z</time></trkpt><trkpt lat="42.51461908936009" lon="11.194536248013671"><ele>3.6666666666666665</ele><time>2026-04-25T15:20:50.999Z</time></trkpt><trkpt lat="42.514831357753266" lon="11.194469344915158"><ele>4.0</ele><time>2026-04-25T15:20:51.999Z</time></trkpt><trkpt lat="42.515044098778134" lon="11.19439901344315"><ele>4.0</ele><time>2026-04-25T15:20:52.999Z</time></trkpt><trkpt lat="42.51525647610072" lon="11.194327165515055"><ele>4.0</ele><time>2026-04-25T15:20:53.999Z</time></trkpt><trkpt lat="42.515468362111726" lon="11.194252508832061"><ele>4.0</ele><time>2026-04-25T15:20:54.999Z</time></trkpt><trkpt lat="42.51567784679251" lon="11.19419531918796"><ele>4.0</ele><time>2026-04-25T15:20:55.999Z</time></trkpt><trkpt lat="42.515891137443994" lon="11.19413384454232"><ele>4.0</ele><time>2026-04-25T15:20:56.999Z</time></trkpt><trkpt lat="42.5161031227816" lon="11.19407175544096"><ele>4.0</ele><time>2026-04-25T15:20:57.999Z</time></trkpt><trkpt lat="42.51631679861655" lon="11.194013340579941"><ele>4.0</ele><time>2026-04-25T15:20:58.999Z</time></trkpt><trkpt lat="42.51653107667814" lon="11.193959911754314"><ele>4.0</ele><time>2026-04-25T15:20:59.999Z</time></trkpt><trkpt lat="42.51674643833501" lon="11.193906469425194"><ele>4.0</ele><time>2026-04-25T15:21:00.999Z</time></trkpt><trkpt lat="42.51694046934317" lon="11.193841295245463"><ele>3.6666666666666665</ele><time>2026-04-25T15:21:01.999Z</time></trkpt><trkpt lat="42.517149902626045" lon="11.193774959497183"><ele>3.333333333333333</ele><time>2026-04-25T15:21:02.999Z</time></trkpt><trkpt lat="42.51736002942424" lon="11.193706955517687"><ele>3.0</ele><time>2026-04-25T15:21:03.999Z</time></trkpt><trkpt lat="42.51757097960258" lon="11.19364043530294"><ele>3.0</ele><time>2026-04-25T15:21:04.999Z</time></trkpt><trkpt lat="42.51778085234043" lon="11.19357942607668"><ele>3.0</ele><time>2026-04-25T15:21:05.999Z</time></trkpt><trkpt lat="42.517987694527555" lon="11.193520491089341"><ele>3.0</ele><time>2026-04-25T15:21:06.999Z</time></trkpt><trkpt lat="42.518195696317235" lon="11.193454711879243"><ele>2.6666666666666665</ele><time>2026-04-25T15:21:07.999Z</time></trkpt><trkpt lat="42.518402869824236" lon="11.193390840381332"><ele>2.333333333333333</ele><time>2026-04-25T15:21:08.999Z</time></trkpt><trkpt lat="42.51861294178347" lon="11.193325922946862"><ele>2.0</ele><time>2026-04-25T15:21:09.999Z</time></trkpt><trkpt lat="42.518819315540476" lon="11.19326224769783"><ele>2.0</ele><time>2026-04-25T15:21:10.999Z</time></trkpt><trkpt lat="42.51902545936039" lon="11.193197895316143"><ele>2.0</ele><time>2026-04-25T15:21:11.999Z</time></trkpt><trkpt lat="42.51923318023998" lon="11.19312977536281"><ele>2.0</ele><time>2026-04-25T15:21:12.999Z</time></trkpt><trkpt lat="42.51944026222708" lon="11.193057532137939"><ele>2.333333333333333</ele><time>2026-04-25T15:21:13.999Z</time></trkpt><trkpt lat="42.51964129087188" lon="11.192976666848505"><ele>2.6666666666666665</ele><time>2026-04-25T15:21:15Z</time></trkpt><trkpt lat="42.519841511572885" lon="11.192882606718486"><ele>3.0</ele><time>2026-04-25T15:21:16Z</time></trkpt><trkpt lat="42.520043509924626" lon="11.19279010886152"><ele>3.0</ele><time>2026-04-25T15:21:17Z</time></trkpt><trkpt lat="42.520244975720104" lon="11.19269696165953"><ele>3.0</ele><time>2026-04-25T15:21:18Z</time></trkpt><trkpt lat="42.52044076365065" lon="11.19258711625278"><ele>3.0</ele><time>2026-04-25T15:21:19Z</time></trkpt><trkpt lat="42.520641556913645" lon="11.19247675000043"><ele>3.333333333333333</ele><time>2026-04-25T15:21:20Z</time></trkpt><trkpt lat="42.52084661482545" lon="11.192371273239326"><ele>3.6666666666666665</ele><time>2026-04-25T15:21:21Z</time></trkpt><trkpt lat="42.52105056852013" lon="11.192266934178067"><ele>4.0</ele><time>2026-04-25T15:21:22Z</time></trkpt><trkpt lat="42.52125420879192" lon="11.192158856565511"><ele>4.0</ele><time>2026-04-25T15:21:23Z</time></trkpt><trkpt lat="42.521456596791595" lon="11.1920528549392"><ele>4.0</ele><time>2026-04-25T15:21:24Z</time></trkpt><trkpt lat="42.52165797852411" lon="11.191947341757068"><ele>4.0</ele><time>2026-04-25T15:21:25Z</time></trkpt><trkpt lat="42.52186160151921" lon="11.1918419333088"><ele>4.0</ele><time>2026-04-25T15:21:26Z</time></trkpt><trkpt lat="42.5220604612785" lon="11.191737488080731"><ele>4.0</ele><time>2026-04-25T15:21:27Z</time></trkpt><trkpt lat="42.52226232223198" lon="11.191639531115742"><ele>4.0</ele><time>2026-04-25T15:21:28Z</time></trkpt><trkpt lat="42.52246323650625" lon="11.191536734539227"><ele>3.6666666666666665</ele><time>2026-04-25T15:21:29Z</time></trkpt><trkpt lat="42.52266505352693" lon="11.191430086461649"><ele>3.333333333333333</ele><time>2026-04-25T15:21:30Z</time></trkpt><trkpt lat="42.52286924878906" lon="11.191327145692345"><ele>3.0</ele><time>2026-04-25T15:21:31Z</time></trkpt><trkpt lat="42.52307014628966" lon="11.19122273344041"><ele>2.3333333333333335</ele><time>2026-04-25T15:21:32Z</time></trkpt><trkpt lat="42.52326859070533" lon="11.191119088167373"><ele>1.6666666666666665</ele><time>2026-04-25T15:21:33Z</time></trkpt><trkpt lat="42.52346756312348" lon="11.191008401010587"><ele>1.0</ele><time>2026-04-25T15:21:34Z</time></trkpt><trkpt lat="42.52366734937796" lon="11.190899941450931"><ele>1.0</ele><time>2026-04-25T15:21:35Z</time></trkpt><trkpt lat="42.52386768434342" lon="11.19079336196749"><ele>1.0</ele><time>2026-04-25T15:21:36Z</time></trkpt><trkpt lat="42.52406945458009" lon="11.190693399364307"><ele>1.0</ele><time>2026-04-25T15:21:37Z</time></trkpt><trkpt lat="42.52426691954348" lon="11.190593735988204"><ele>1.3333333333333333</ele><time>2026-04-25T15:21:38Z</time></trkpt><trkpt lat="42.52446603935506" lon="11.190490467087116"><ele>1.6666666666666665</ele><time>2026-04-25T15:21:39Z</time></trkpt><trkpt lat="42.52466519339104" lon="11.190381108872291"><ele>2.0</ele><time>2026-04-25T15:21:40Z</time></trkpt><trkpt lat="42.52486673113641" lon="11.19027606292333"><ele>2.0</ele><time>2026-04-25T15:21:41Z</time></trkpt><trkpt lat="42.52507153190387" lon="11.19016902691132"><ele>2.0</ele><time>2026-04-25T15:21:42Z</time></trkpt><trkpt lat="42.525273653139294" lon="11.190062164305706"><ele>2.0</ele><time>2026-04-25T15:21:43Z</time></trkpt><trkpt lat="42.525478190168435" lon="11.18995431897485"><ele>1.3333333333333333</ele><time>2026-04-25T15:21:44Z</time></trkpt><trkpt lat="42.5256798851342" lon="11.189851096077271"><ele>0.6666666666666666</ele><time>2026-04-25T15:21:45Z</time></trkpt><trkpt lat="42.525881916043744" lon="11.18974749786598"><ele>0.0</ele><time>2026-04-25T15:21:46Z</time></trkpt><trkpt lat="42.526085745400344" lon="11.18964158011041"><ele>1.0</ele><time>2026-04-25T15:21:47Z</time></trkpt><trkpt lat="42.52629010499713" lon="11.189533511964862"><ele>2.0</ele><time>2026-04-25T15:21:48Z</time></trkpt><trkpt lat="42.52649059512554" lon="11.189428076431284"><ele>3.0</ele><time>2026-04-25T15:21:49Z</time></trkpt><trkpt lat="42.526690781448615" lon="11.189323488586428"><ele>3.0</ele><time>2026-04-25T15:21:50Z</time></trkpt><trkpt lat="42.52689044514149" lon="11.189217790702063"><ele>3.0</ele><time>2026-04-25T15:21:51Z</time></trkpt><trkpt lat="42.52708723896164" lon="11.18911998623854"><ele>3.0</ele><time>2026-04-25T15:21:52Z</time></trkpt><trkpt lat="42.5272858319247" lon="11.189012731466482"><ele>3.333333333333333</ele><time>2026-04-25T15:21:53Z</time></trkpt><trkpt lat="42.52748852368027" lon="11.188904747870883"><ele>3.6666666666666665</ele><time>2026-04-25T15:21:54Z</time></trkpt><trkpt lat="42.527689308735496" lon="11.188802969650943"><ele>4.0</ele><time>2026-04-25T15:21:55Z</time></trkpt><trkpt lat="42.52788977926696" lon="11.188709968561627"><ele>3.0</ele><time>2026-04-25T15:21:56Z</time></trkpt><trkpt lat="42.52808602292918" lon="11.188599972041583"><ele>2.0</ele><time>2026-04-25T15:21:57Z</time></trkpt><trkpt lat="42.52828057312561" lon="11.18850136769832"><ele>1.0</ele><time>2026-04-25T15:21:58Z</time></trkpt><trkpt lat="42.528476826264786" lon="11.18838792816371"><ele>1.0</ele><time>2026-04-25T15:21:59Z</time></trkpt><trkpt lat="42.52867383487392" lon="11.18828994900814"><ele>1.0</ele><time>2026-04-25T15:22:00Z</time></trkpt><trkpt lat="42.52886784659746" lon="11.188195304628884"><ele>1.0</ele><time>2026-04-25T15:22:01Z</time></trkpt><trkpt lat="42.52906134280229" lon="11.188082702209211"><ele>1.3333333333333333</ele><time>2026-04-25T15:22:02Z</time></trkpt><trkpt lat="42.52925636278468" lon="11.187971163207184"><ele>1.6666666666666665</ele><time>2026-04-25T15:22:03Z</time></trkpt><trkpt lat="42.529461038009195" lon="11.187871844798796"><ele>2.0</ele><time>2026-04-25T15:22:04Z</time></trkpt><trkpt lat="42.52966943448244" lon="11.187772378143778"><ele>2.0</ele><time>2026-04-25T15:22:05Z</time></trkpt><trkpt lat="42.52988574137073" lon="11.18765822482331"><ele>2.0</ele><time>2026-04-25T15:22:06Z</time></trkpt><trkpt lat="42.53009579387251" lon="11.187554371073356"><ele>2.0</ele><time>2026-04-25T15:22:07Z</time></trkpt><trkpt lat="42.530301319383234" lon="11.187452198907785"><ele>2.0</ele><time>2026-04-25T15:22:08Z</time></trkpt><trkpt lat="42.530515096959085" lon="11.187336898547287"><ele>2.0</ele><time>2026-04-25T15:22:08.999Z</time></trkpt><trkpt lat="42.53073319556963" lon="11.187219525434713"><ele>4.0</ele><time>2026-04-25T15:22:09.999Z</time></trkpt><trkpt lat="42.530941644114925" lon="11.187109126213034"><ele>6.0</ele><time>2026-04-25T15:22:10.999Z</time></trkpt><trkpt lat="42.531152291486585" lon="11.186996202917197"><ele>4.5</ele><time>2026-04-25T15:22:11.999Z</time></trkpt><trkpt lat="42.53136543879525" lon="11.186886094702375"><ele>3.0</ele><time>2026-04-25T15:22:12.999Z</time></trkpt><trkpt lat="42.531578589905486" lon="11.186778370887057"><ele>3.0</ele><time>2026-04-25T15:22:13.999Z</time></trkpt><trkpt lat="42.531785522236596" lon="11.186671758556122"><ele>3.0</ele><time>2026-04-25T15:22:14.999Z</time></trkpt><trkpt lat="42.53199517604014" lon="11.186562402111536"><ele>3.0</ele><time>2026-04-25T15:22:15.999Z</time></trkpt><trkpt lat="42.53220249058836" lon="11.186454079894471"><ele>3.333333333333333</ele><time>2026-04-25T15:22:16.999Z</time></trkpt><trkpt lat="42.53240635951865" lon="11.186343426229927"><ele>3.6666666666666665</ele><time>2026-04-25T15:22:17.999Z</time></trkpt><trkpt lat="42.5326093041161" lon="11.186234976860492"><ele>4.0</ele><time>2026-04-25T15:22:18.999Z</time></trkpt><trkpt lat="42.532819139252624" lon="11.186130997039307"><ele>3.333333333333333</ele><time>2026-04-25T15:22:19.999Z</time></trkpt><trkpt lat="42.53302680113144" lon="11.186024395432426"><ele>2.6666666666666665</ele><time>2026-04-25T15:22:20.999Z</time></trkpt><trkpt lat="42.53323802697848" lon="11.185916288766869"><ele>2.0</ele><time>2026-04-25T15:22:21.999Z</time></trkpt><trkpt lat="42.53345520705811" lon="11.185799866648093"><ele>2.0</ele><time>2026-04-25T15:22:22.999Z</time></trkpt><trkpt lat="42.53367853937673" lon="11.185685241030077"><ele>2.0</ele><time>2026-04-25T15:22:23.999Z</time></trkpt><trkpt lat="42.533905726062315" lon="11.185571437048944"><ele>2.0</ele><time>2026-04-25T15:22:24.999Z</time></trkpt><trkpt lat="42.53412577469034" lon="11.185448139591756"><ele>2.0</ele><time>2026-04-25T15:22:25.999Z</time></trkpt><trkpt lat="42.53433856615645" lon="11.18532922006968"><ele>2.0</ele><time>2026-04-25T15:22:26.999Z</time></trkpt><trkpt lat="42.534552094724695" lon="11.185217747191992"><ele>2.0</ele><time>2026-04-25T15:22:27.999Z</time></trkpt><trkpt lat="42.53476172219405" lon="11.185093700234848"><ele>2.0</ele><time>2026-04-25T15:22:28.999Z</time></trkpt><trkpt lat="42.53496621180278" lon="11.184957338382178"><ele>2.0</ele><time>2026-04-25T15:22:29.999Z</time></trkpt><trkpt lat="42.53516499732962" lon="11.184818241072664"><ele>2.333333333333333</ele><time>2026-04-25T15:22:30.999Z</time></trkpt><trkpt lat="42.53536705184232" lon="11.184684223604112"><ele>2.6666666666666665</ele><time>2026-04-25T15:22:31.999Z</time></trkpt><trkpt lat="42.53556516599818" lon="11.184545230130311"><ele>3.0</ele><time>2026-04-25T15:22:32.999Z</time></trkpt><trkpt lat="42.5357608426248" lon="11.18439795086541"><ele>3.0</ele><time>2026-04-25T15:22:33.999Z</time></trkpt><trkpt lat="42.535960766911046" lon="11.18425564255439"><ele>3.0</ele><time>2026-04-25T15:22:34.999Z</time></trkpt><trkpt lat="42.536162147122084" lon="11.184116425643682"><ele>2.5</ele><time>2026-04-25T15:22:35.999Z</time></trkpt><trkpt lat="42.53636797225222" lon="11.183972004108305"><ele>2.0</ele><time>2026-04-25T15:22:36.999Z</time></trkpt><trkpt lat="42.5365781467798" lon="11.18382337692649"><ele>2.0</ele><time>2026-04-25T15:22:37.999Z</time></trkpt><trkpt lat="42.53679121345405" lon="11.183673390075814"><ele>2.0</ele><time>2026-04-25T15:22:38.999Z</time></trkpt><trkpt lat="42.53700505425962" lon="11.183520763835816"><ele>2.0</ele><time>2026-04-25T15:22:39.999Z</time></trkpt><trkpt lat="42.53721433738436" lon="11.183376239786"><ele>2.0</ele><time>2026-04-25T15:22:40.999Z</time></trkpt><trkpt lat="42.5374194288055" lon="11.183237983584382"><ele>2.0</ele><time>2026-04-25T15:22:41.999Z</time></trkpt><trkpt lat="42.53761822201369" lon="11.183095179063995"><ele>2.0</ele><time>2026-04-25T15:22:42.999Z</time></trkpt><trkpt lat="42.53782137886413" lon="11.182942160011436"><ele>2.5</ele><time>2026-04-25T15:22:43.999Z</time></trkpt><trkpt lat="42.53802092636871" lon="11.182800086426157"><ele>3.0</ele><time>2026-04-25T15:22:44.999Z</time></trkpt><trkpt lat="42.538222599989474" lon="11.18265323857229"><ele>3.0</ele><time>2026-04-25T15:22:45.999Z</time></trkpt><trkpt lat="42.53842558671082" lon="11.1825128458441"><ele>3.0</ele><time>2026-04-25T15:22:46.999Z</time></trkpt><trkpt lat="42.53863379967708" lon="11.182374912335355"><ele>2.5</ele><time>2026-04-25T15:22:47.999Z</time></trkpt><trkpt lat="42.53883646804345" lon="11.182232386750961"><ele>2.0</ele><time>2026-04-25T15:22:48.999Z</time></trkpt><trkpt lat="42.5390352360764" lon="11.182092115012745"><ele>2.0</ele><time>2026-04-25T15:22:49.999Z</time></trkpt><trkpt lat="42.53922870027069" lon="11.181948128551614"><ele>2.0</ele><time>2026-04-25T15:22:50.999Z</time></trkpt><trkpt lat="42.539425016342314" lon="11.181808981395024"><ele>2.0</ele><time>2026-04-25T15:22:51.999Z</time></trkpt><trkpt lat="42.53962045490586" lon="11.181666644338204"><ele>1.6666666666666665</ele><time>2026-04-25T15:22:52.999Z</time></trkpt><trkpt lat="42.53981927269858" lon="11.18153256113465"><ele>1.3333333333333333</ele><time>2026-04-25T15:22:53.999Z</time></trkpt><trkpt lat="42.54001922530696" lon="11.181398460616265"><ele>1.0</ele><time>2026-04-25T15:22:54.999Z</time></trkpt><trkpt lat="42.540217660851596" lon="11.181260166501131"><ele>1.3333333333333333</ele><time>2026-04-25T15:22:55.999Z</time></trkpt><trkpt lat="42.54041219875416" lon="11.181116925362254"><ele>1.6666666666666665</ele><time>2026-04-25T15:22:56.999Z</time></trkpt><trkpt lat="42.54060638646762" lon="11.18097849610447"><ele>2.0</ele><time>2026-04-25T15:22:57.999Z</time></trkpt><trkpt lat="42.54080170629896" lon="11.180839520969764"><ele>2.0</ele><time>2026-04-25T15:22:58.999Z</time></trkpt><trkpt lat="42.54099750073991" lon="11.180700347889035"><ele>2.0</ele><time>2026-04-25T15:22:59.999Z</time></trkpt><trkpt lat="42.541189380501166" lon="11.180561210097991"><ele>2.0</ele><time>2026-04-25T15:23:00.999Z</time></trkpt><trkpt lat="42.541385483455976" lon="11.1804277894808"><ele>2.333333333333333</ele><time>2026-04-25T15:23:01.999Z</time></trkpt><trkpt lat="42.54158007734829" lon="11.180287972292476"><ele>2.6666666666666665</ele><time>2026-04-25T15:23:02.999Z</time></trkpt><trkpt lat="42.54177763175455" lon="11.180147998741663"><ele>3.0</ele><time>2026-04-25T15:23:03.999Z</time></trkpt><trkpt lat="42.54197526241012" lon="11.180009299387036"><ele>2.5</ele><time>2026-04-25T15:23:04.999Z</time></trkpt><trkpt lat="42.54217419114948" lon="11.179867653481576"><ele>2.0</ele><time>2026-04-25T15:23:05.999Z</time></trkpt><trkpt lat="42.542374577686786" lon="11.179728117814816"><ele>1.6666666666666665</ele><time>2026-04-25T15:23:06.999Z</time></trkpt><trkpt lat="42.54257439168354" lon="11.17958785347445"><ele>1.3333333333333333</ele><time>2026-04-25T15:23:07.999Z</time></trkpt><trkpt lat="42.542769090014595" lon="11.179450110681405"><ele>1.0</ele><time>2026-04-25T15:23:08.999Z</time></trkpt><trkpt lat="42.5429638816931" lon="11.179312216452377"><ele>1.0</ele><time>2026-04-25T15:23:09.999Z</time></trkpt><trkpt lat="42.543156302017785" lon="11.179178854610734"><ele>1.0</ele><time>2026-04-25T15:23:10.999Z</time></trkpt><trkpt lat="42.54335068345131" lon="11.17904288807354"><ele>1.0</ele><time>2026-04-25T15:23:11.999Z</time></trkpt><trkpt lat="42.54354773668947" lon="11.178906167851466"><ele>1.3333333333333333</ele><time>2026-04-25T15:23:12.999Z</time></trkpt><trkpt lat="42.54373887274809" lon="11.178760516091556"><ele>1.6666666666666665</ele><time>2026-04-25T15:23:13.999Z</time></trkpt><trkpt lat="42.5439309498424" lon="11.178614157165075"><ele>2.0</ele><time>2026-04-25T15:23:14.999Z</time></trkpt><trkpt lat="42.544120621810094" lon="11.178462403827433"><ele>2.0</ele><time>2026-04-25T15:23:15.999Z</time></trkpt><trkpt lat="42.54430494779124" lon="11.17830063504235"><ele>2.0</ele><time>2026-04-25T15:23:16.999Z</time></trkpt><trkpt lat="42.54449061538665" lon="11.178141546638466"><ele>2.0</ele><time>2026-04-25T15:23:17.999Z</time></trkpt><trkpt lat="42.544665379185034" lon="11.177978346965517"><ele>1.3333333333333333</ele><time>2026-04-25T15:23:18.999Z</time></trkpt><trkpt lat="42.54484584521152" lon="11.177807673109497"><ele>0.6666666666666666</ele><time>2026-04-25T15:23:19.999Z</time></trkpt><trkpt lat="42.54502313694515" lon="11.177631175664063"><ele>0.0</ele><time>2026-04-25T15:23:21Z</time></trkpt><trkpt lat="42.545201631227535" lon="11.17746214258067"><ele>1.3333333333333333</ele><time>2026-04-25T15:23:22Z</time></trkpt><trkpt lat="42.545379852171024" lon="11.17728926428985"><ele>2.6666666666666665</ele><time>2026-04-25T15:23:23Z</time></trkpt><trkpt lat="42.545564714316065" lon="11.177124117433381"><ele>4.0</ele><time>2026-04-25T15:23:24Z</time></trkpt><trkpt lat="42.54574352354411" lon="11.176945451778979"><ele>4.0</ele><time>2026-04-25T15:23:25Z</time></trkpt><trkpt lat="42.54592529452845" lon="11.176769235742356"><ele>4.0</ele><time>2026-04-25T15:23:26Z</time></trkpt><trkpt lat="42.546101072480546" lon="11.176590440076486"><ele>4.0</ele><time>2026-04-25T15:23:27Z</time></trkpt><trkpt lat="42.54628412071856" lon="11.176423011018276"><ele>4.333333333333333</ele><time>2026-04-25T15:23:28Z</time></trkpt><trkpt lat="42.54646336902568" lon="11.176256248561115"><ele>4.666666666666667</ele><time>2026-04-25T15:23:29Z</time></trkpt><trkpt lat="42.54663709741729" lon="11.176081371340684"><ele>5.0</ele><time>2026-04-25T15:23:30Z</time></trkpt><trkpt lat="42.546810111304445" lon="11.175906729537955"><ele>5.0</ele><time>2026-04-25T15:23:31Z</time></trkpt><trkpt lat="42.54698888833472" lon="11.175737002016241"><ele>5.0</ele><time>2026-04-25T15:23:32Z</time></trkpt><trkpt lat="42.54716676640205" lon="11.17557336731173"><ele>5.0</ele><time>2026-04-25T15:23:33Z</time></trkpt><trkpt lat="42.547343130805345" lon="11.175408481354232"><ele>4.666666666666667</ele><time>2026-04-25T15:23:34Z</time></trkpt><trkpt lat="42.547522401303674" lon="11.175241404087922"><ele>4.333333333333333</ele><time>2026-04-25T15:23:35Z</time></trkpt><trkpt lat="42.54771533021987" lon="11.175086780896406"><ele>4.0</ele><time>2026-04-25T15:23:36Z</time></trkpt><trkpt lat="42.54791991018817" lon="11.174963256518808"><ele>3.5</ele><time>2026-04-25T15:23:37Z</time></trkpt><trkpt lat="42.548136721850035" lon="11.174859471428915"><ele>3.0</ele><time>2026-04-25T15:23:38Z</time></trkpt><trkpt lat="42.54835401780377" lon="11.174779714800064"><ele>2.3333333333333335</ele><time>2026-04-25T15:23:39Z</time></trkpt><trkpt lat="42.54857679782252" lon="11.174688288696293"><ele>1.6666666666666665</ele><time>2026-04-25T15:23:40Z</time></trkpt><trkpt lat="42.548779526945374" lon="11.174627754706078"><ele>1.0</ele><time>2026-04-25T15:23:41Z</time></trkpt><trkpt lat="42.54897407517691" lon="11.17456387353565"><ele>1.0</ele><time>2026-04-25T15:23:42Z</time></trkpt><trkpt lat="42.54916104361908" lon="11.174498887315737"><ele>1.0</ele><time>2026-04-25T15:23:43Z</time></trkpt><trkpt lat="42.549344833685694" lon="11.174437543249288"><ele>1.0</ele><time>2026-04-25T15:23:44Z</time></trkpt><trkpt lat="42.549534670376396" lon="11.174370474959645"><ele>1.3333333333333333</ele><time>2026-04-25T15:23:45Z</time></trkpt><trkpt lat="42.54969867212892" lon="11.174304129145185"><ele>1.6666666666666665</ele><time>2026-04-25T15:23:46Z</time></trkpt><trkpt lat="42.54986992473435" lon="11.17424363229805"><ele>2.0</ele><time>2026-04-25T15:23:47Z</time></trkpt><trkpt lat="42.55004147082393" lon="11.1741735491022"><ele>2.0</ele><time>2026-04-25T15:23:48Z</time></trkpt><trkpt lat="42.550222651297915" lon="11.174095567412024"><ele>2.0</ele><time>2026-04-25T15:23:49Z</time></trkpt><trkpt lat="42.55040764352753" lon="11.17402575882674"><ele>2.0</ele><time>2026-04-25T15:23:50Z</time></trkpt><trkpt lat="42.55061526772682" lon="11.173955664119427"><ele>2.6666666666666665</ele><time>2026-04-25T15:23:51Z</time></trkpt><trkpt lat="42.550829321659045" lon="11.173881278102877"><ele>3.333333333333333</ele><time>2026-04-25T15:23:52Z</time></trkpt><trkpt lat="42.55105063823449" lon="11.173804906380415"><ele>4.0</ele><time>2026-04-25T15:23:53Z</time></trkpt><trkpt lat="42.551278987030706" lon="11.173729185489728"><ele>5.0</ele><time>2026-04-25T15:23:54Z</time></trkpt><trkpt lat="42.551497889394774" lon="11.173642833975626"><ele>6.0</ele><time>2026-04-25T15:23:55Z</time></trkpt><trkpt lat="42.551729495455625" lon="11.173551663550013"><ele>6.0</ele><time>2026-04-25T15:23:56Z</time></trkpt><trkpt lat="42.55195782916838" lon="11.17345275856498"><ele>6.0</ele><time>2026-04-25T15:23:57Z</time></trkpt><trkpt lat="42.55218368841853" lon="11.17334478678663"><ele>6.5</ele><time>2026-04-25T15:23:58Z</time></trkpt><trkpt lat="42.55240590090062" lon="11.173231512907869"><ele>7.0</ele><time>2026-04-25T15:23:59Z</time></trkpt><trkpt lat="42.55262482670049" lon="11.17310806781076"><ele>10.5</ele><time>2026-04-25T15:24:00Z</time></trkpt><trkpt lat="42.55284827409847" lon="11.172987217246812"><ele>14.0</ele><time>2026-04-25T15:24:01Z</time></trkpt><trkpt lat="42.553070821768685" lon="11.172863085167174"><ele>14.0</ele><time>2026-04-25T15:24:02Z</time></trkpt><trkpt lat="42.553290517283926" lon="11.172739010582722"><ele>14.0</ele><time>2026-04-25T15:24:03Z</time></trkpt><trkpt lat="42.55350929977229" lon="11.172612344295281"><ele>12.0</ele><time>2026-04-25T15:24:04Z</time></trkpt><trkpt lat="42.55373126214851" lon="11.172490440324092"><ele>10.0</ele><time>2026-04-25T15:24:05Z</time></trkpt><trkpt lat="42.553954824510036" lon="11.172370354756932"><ele>15.5</ele><time>2026-04-25T15:24:06Z</time></trkpt><trkpt lat="42.55417905220998" lon="11.172249208530713"><ele>21.0</ele><time>2026-04-25T15:24:07Z</time></trkpt><trkpt lat="42.55440227421538" lon="11.172122513845665"><ele>17.5</ele><time>2026-04-25T15:24:08Z</time></trkpt><trkpt lat="42.55462799754914" lon="11.17199522969809"><ele>14.0</ele><time>2026-04-25T15:24:09Z</time></trkpt><trkpt lat="42.55484725821087" lon="11.171858490889628"><ele>14.0</ele><time>2026-04-25T15:24:10Z</time></trkpt><trkpt lat="42.55506626850965" lon="11.17173723656597"><ele>14.0</ele><time>2026-04-25T15:24:11Z</time></trkpt><trkpt lat="42.555291377032525" lon="11.171617691167626"><ele>17.5</ele><time>2026-04-25T15:24:12Z</time></trkpt><trkpt lat="42.555508033759196" lon="11.171495480283003"><ele>21.0</ele><time>2026-04-25T15:24:13Z</time></trkpt><trkpt lat="42.555724420760605" lon="11.171374921977877"><ele>21.0</ele><time>2026-04-25T15:24:14Z</time></trkpt><trkpt lat="42.55594857835383" lon="11.171277422401575"><ele>21.0</ele><time>2026-04-25T15:24:15Z</time></trkpt><trkpt lat="42.55617782302996" lon="11.171209736049848"><ele>20.0</ele><time>2026-04-25T15:24:16Z</time></trkpt><trkpt lat="42.55640762694368" lon="11.171152811260264"><ele>19.0</ele><time>2026-04-25T15:24:17Z</time></trkpt><trkpt lat="42.5566433804046" lon="11.17111965326628"><ele>19.0</ele><time>2026-04-25T15:24:18Z</time></trkpt><trkpt lat="42.55687549585492" lon="11.171100395497504"><ele>19.0</ele><time>2026-04-25T15:24:19Z</time></trkpt><trkpt lat="42.557107958779945" lon="11.17110255359207"><ele>18.5</ele><time>2026-04-25T15:24:20Z</time></trkpt><trkpt lat="42.55733945940811" lon="11.171129098654163"><ele>18.0</ele><time>2026-04-25T15:24:21Z</time></trkpt><trkpt lat="42.557569143241416" lon="11.171169543733887"><ele>18.0</ele><time>2026-04-25T15:24:22Z</time></trkpt><trkpt lat="42.55779996207273" lon="11.171228113214056"><ele>18.0</ele><time>2026-04-25T15:24:23Z</time></trkpt><trkpt lat="42.558029990634964" lon="11.171309933776133"><ele>16.0</ele><time>2026-04-25T15:24:24Z</time></trkpt><trkpt lat="42.55825624540686" lon="11.1714067468061"><ele>14.0</ele><time>2026-04-25T15:24:24.999Z</time></trkpt><trkpt lat="42.55847772439009" lon="11.171515976009898"><ele>20.0</ele><time>2026-04-25T15:24:25.999Z</time></trkpt><trkpt lat="42.55869846773242" lon="11.17162374497479"><ele>26.0</ele><time>2026-04-25T15:24:26.999Z</time></trkpt><trkpt lat="42.558918620518945" lon="11.171737539702184"><ele>26.0</ele><time>2026-04-25T15:24:27.999Z</time></trkpt><trkpt lat="42.559142382328645" lon="11.171847380343298"><ele>26.0</ele><time>2026-04-25T15:24:28.999Z</time></trkpt><trkpt lat="42.55937277694549" lon="11.171963134302507"><ele>21.5</ele><time>2026-04-25T15:24:29.999Z</time></trkpt><trkpt lat="42.559594470308255" lon="11.172064224577769"><ele>17.0</ele><time>2026-04-25T15:24:30.999Z</time></trkpt><trkpt lat="42.55981215709817" lon="11.172170324509107"><ele>17.0</ele><time>2026-04-25T15:24:31.999Z</time></trkpt><trkpt lat="42.560030573080354" lon="11.172269232656424"><ele>17.0</ele><time>2026-04-25T15:24:32.999Z</time></trkpt><trkpt lat="42.560257302119616" lon="11.172379502351784"><ele>21.5</ele><time>2026-04-25T15:24:33.999Z</time></trkpt><trkpt lat="42.56048565758923" lon="11.172488256867874"><ele>26.0</ele><time>2026-04-25T15:24:34.999Z</time></trkpt><trkpt lat="42.56071525703814" lon="11.17259687658061"><ele>26.0</ele><time>2026-04-25T15:24:35.999Z</time></trkpt><trkpt lat="42.56094770799048" lon="11.172710257068644"><ele>26.0</ele><time>2026-04-25T15:24:36.999Z</time></trkpt><trkpt lat="42.56117516557472" lon="11.172824551182751"><ele>23.5</ele><time>2026-04-25T15:24:37.999Z</time></trkpt><trkpt lat="42.5614063867754" lon="11.172937633322306"><ele>21.0</ele><time>2026-04-25T15:24:38.999Z</time></trkpt><trkpt lat="42.56163394564824" lon="11.173048979420273"><ele>21.0</ele><time>2026-04-25T15:24:39.999Z</time></trkpt><trkpt lat="42.56186255729114" lon="11.173163775759745"><ele>21.0</ele><time>2026-04-25T15:24:40.999Z</time></trkpt><trkpt lat="42.56208644069126" lon="11.173273263213261"><ele>25.5</ele><time>2026-04-25T15:24:41.999Z</time></trkpt><trkpt lat="42.56231268807747" lon="11.173377216976315"><ele>30.0</ele><time>2026-04-25T15:24:42.999Z</time></trkpt><trkpt lat="42.56254516651802" lon="11.173458843483829"><ele>30.0</ele><time>2026-04-25T15:24:43.999Z</time></trkpt><trkpt lat="42.56278088017022" lon="11.17351188484728"><ele>30.0</ele><time>2026-04-25T15:24:44.999Z</time></trkpt><trkpt lat="42.56302254087872" lon="11.173547884380557"><ele>30.5</ele><time>2026-04-25T15:24:45.999Z</time></trkpt><trkpt lat="42.56326882317416" lon="11.1735621365524"><ele>31.0</ele><time>2026-04-25T15:24:46.999Z</time></trkpt><trkpt lat="42.56350890543361" lon="11.173567013188734"><ele>30.5</ele><time>2026-04-25T15:24:47.999Z</time></trkpt><trkpt lat="42.56374694507686" lon="11.1735454436709"><ele>30.0</ele><time>2026-04-25T15:24:48.999Z</time></trkpt><trkpt lat="42.56397740357464" lon="11.173513467570007"><ele>30.0</ele><time>2026-04-25T15:24:49.999Z</time></trkpt><trkpt lat="42.56419772793412" lon="11.173469131564234"><ele>30.0</ele><time>2026-04-25T15:24:50.999Z</time></trkpt><trkpt lat="42.56439844949439" lon="11.17340787068011"><ele>30.0</ele><time>2026-04-25T15:24:51.999Z</time></trkpt><trkpt lat="42.56459651505875" lon="11.173342694738167"><ele>31.0</ele><time>2026-04-25T15:24:52.999Z</time></trkpt><trkpt lat="42.564799286571734" lon="11.173273859263142"><ele>32.0</ele><time>2026-04-25T15:24:53.999Z</time></trkpt><trkpt lat="42.56498744369912" lon="11.173206303225365"><ele>33.0</ele><time>2026-04-25T15:24:54.999Z</time></trkpt><trkpt lat="42.56515455075257" lon="11.173135997409698"><ele>31.0</ele><time>2026-04-25T15:24:55.999Z</time></trkpt><trkpt lat="42.56530527891226" lon="11.173070685297883"><ele>29.0</ele><time>2026-04-25T15:24:56.999Z</time></trkpt><trkpt lat="42.565438489527715" lon="11.173016788133262"><ele>27.0</ele><time>2026-04-25T15:24:57.999Z</time></trkpt><trkpt lat="42.565570717541796" lon="11.172968298218091"><ele>25.0</ele><time>2026-04-25T15:24:58.999Z</time></trkpt><trkpt lat="42.56569190748566" lon="11.172951708930007"><ele>25.0</ele><time>2026-04-25T15:24:59.999Z</time></trkpt><trkpt lat="42.565784186742796" lon="11.172902468056705"><ele>25.0</ele><time>2026-04-25T15:25:00.999Z</time></trkpt><trkpt lat="42.565896316192514" lon="11.173099841577788"><ele>25.0</ele><time>2026-04-25T15:25:01.999Z</time></trkpt><trkpt lat="42.56599337808063" lon="11.173181501049843"><ele>25.0</ele><time>2026-04-25T15:25:02.999Z</time></trkpt><trkpt lat="42.56605462062117" lon="11.173349976032812"><ele>25.0</ele><time>2026-04-25T15:25:03.999Z</time></trkpt><trkpt lat="42.56615208700633" lon="11.173495532440134"><ele>25.0</ele><time>2026-04-25T15:25:04.999Z</time></trkpt><trkpt lat="42.56623668385443" lon="11.17365075215611"><ele>25.0</ele><time>2026-04-25T15:25:05.999Z</time></trkpt><trkpt lat="42.56633731678434" lon="11.173798495092415"><ele>25.0</ele><time>2026-04-25T15:25:06.999Z</time></trkpt><trkpt lat="42.56642535509592" lon="11.173927432873812"><ele>24.8</ele><time>2026-04-25T15:25:07.999Z</time></trkpt><trkpt lat="42.56649370664356" lon="11.174050370837769"><ele>24.6</ele><time>2026-04-25T15:25:08.999Z</time></trkpt><trkpt lat="42.566578336827156" lon="11.174143691259038"><ele>24.4</ele><time>2026-04-25T15:25:09.999Z</time></trkpt><trkpt lat="42.566689313609004" lon="11.174157119285551"><ele>24.2</ele><time>2026-04-25T15:25:10.999Z</time></trkpt><trkpt lat="42.56678466416065" lon="11.174158469912452"><ele>24.0</ele><time>2026-04-25T15:25:11.999Z</time></trkpt><trkpt lat="42.566863910411946" lon="11.17414974550983"><ele>24.0</ele><time>2026-04-25T15:25:12.999Z</time></trkpt><trkpt lat="42.56691202860519" lon="11.17408939028378"><ele>24.0</ele><time>2026-04-25T15:25:13.999Z</time></trkpt><trkpt lat="42.567018917221354" lon="11.174275102066387"><ele>24.0</ele><time>2026-04-25T15:25:15.999Z</time></trkpt><trkpt lat="42.56704382648487" lon="11.174366617314131"><ele>24.0</ele><time>2026-04-25T15:25:16.999Z</time></trkpt><trkpt lat="42.5669708407406" lon="11.174557381692352"><ele>24.0</ele><time>2026-04-25T15:25:18.999Z</time></trkpt><trkpt lat="42.5669446026377" lon="11.174678050750398"><ele>24.0</ele><time>2026-04-25T15:25:19.999Z</time></trkpt><trkpt lat="42.56692842790625" lon="11.17482906859959"><ele>24.0</ele><time>2026-04-25T15:25:20.999Z</time></trkpt><trkpt lat="42.56691387729426" lon="11.174957366429444"><ele>24.0</ele><time>2026-04-25T15:25:21.999Z</time></trkpt><trkpt lat="42.56692267860512" lon="11.1750681447175"><ele>24.0</ele><time>2026-04-25T15:25:22.999Z</time></trkpt><trkpt lat="42.56694565796195" lon="11.175173961012035"><ele>24.4</ele><time>2026-04-25T15:25:23.999Z</time></trkpt><trkpt lat="42.56702373017736" lon="11.175272483437714"><ele>24.799999999999997</ele><time>2026-04-25T15:25:24.999Z</time></trkpt><trkpt lat="42.5670985468253" lon="11.175370973428903"><ele>25.200000000000003</ele><time>2026-04-25T15:25:25.999Z</time></trkpt><trkpt lat="42.56715216576059" lon="11.175436699942937"><ele>25.6</ele><time>2026-04-25T15:25:27Z</time></trkpt><trkpt lat="42.56723405456161" lon="11.175565288637552"><ele>26.0</ele><time>2026-04-25T15:25:29Z</time></trkpt><trkpt lat="42.56729666680601" lon="11.175638877973666"><ele>21.0</ele><time>2026-04-25T15:25:30Z</time></trkpt><trkpt lat="42.56736108405458" lon="11.17571071214005"><ele>23.0</ele><time>2026-04-25T15:25:31Z</time></trkpt><trkpt lat="42.56730443868886" lon="11.175832596608672"><ele>23.0</ele><time>2026-04-25T15:25:35Z</time></trkpt><trkpt lat="42.5673695499951" lon="11.17576605218228"><ele>23.0</ele><time>2026-04-25T15:25:51Z</time></trkpt><trkpt lat="42.567304181619626" lon="11.175770808019584"><ele>23.0</ele><time>2026-04-25T15:28:04Z</time></trkpt><trkpt lat="42.56724517660214" lon="11.175814787486345"><ele>23.0</ele><time>2026-04-25T15:28:18Z</time></trkpt></trkseg></trk></gpx>